<?xml version="1.0" encoding="UTF-8" standalone="no" ?>
<gpx xmlns="http://www.topografix.com/GPX/1/1" xmlns:xsi="http://www.w3.org/2001/XMLSchema-instance" xsi:schemaLocation="http://www.topografix.com/GPX/1/1 http://www.topografix.com/GPX/1/1/gpx.xsd" version="1.1" creator="VisuGPX - https://www.visugpx.com">
  <metadata>
    <name>TOTAL 4x4 </name>
  </metadata>
  <wpt lat="42.36368" lon="2.84007">
    <ele>181</ele>
  </wpt>
  <wpt lat="42.36397" lon="2.83975">
    <ele>185.2</ele>
  </wpt>
  <wpt lat="42.36387" lon="2.83877">
    <ele>193</ele>
  </wpt>
  <wpt lat="42.36443" lon="2.83943">
    <ele>186.6</ele>
  </wpt>
  <wpt lat="42.2714" lon="2.52859">
    <ele>415.7</ele>
  </wpt>
  <wpt lat="42.27123" lon="2.52776">
    <ele>417.3</ele>
  </wpt>
  <wpt lat="42.27143" lon="2.53029">
    <ele>408.8</ele>
  </wpt>
  <trk>
    <name><![CDATA[TOTAL 4x4 _1]]></name>
    <extensions>
      <line xmlns="http://www.topografix.com/GPX/gpx_style/0/2">
        <color>0000FF</color>
        <width>4</width>
      </line>
    </extensions>
    <trkseg>
      <trkpt lat="42.42276" lon="2.92684">
        <ele>198.75</ele>
        <time>2021-07-30T15:34:23Z</time>
      </trkpt>
      <trkpt lat="42.42276" lon="2.92684">
        <ele>198.75</ele>
        <time>2021-07-30T15:34:23Z</time>
      </trkpt>
      <trkpt lat="42.42276" lon="2.92684">
        <ele>198.76</ele>
        <time>2021-07-30T15:34:24Z</time>
      </trkpt>
      <trkpt lat="42.42276" lon="2.92684">
        <ele>198.89</ele>
        <time>2021-07-30T15:34:29Z</time>
      </trkpt>
      <trkpt lat="42.42275" lon="2.92685">
        <ele>201.18</ele>
        <time>2021-07-30T15:35:33Z</time>
      </trkpt>
      <trkpt lat="42.42279" lon="2.92684">
        <ele>200.21</ele>
        <time>2021-07-30T15:36:03Z</time>
      </trkpt>
      <trkpt lat="42.42279" lon="2.92685">
        <ele>200.13</ele>
        <time>2021-07-30T15:36:06Z</time>
      </trkpt>
      <trkpt lat="42.42267" lon="2.92685">
        <ele>200.15</ele>
        <time>2021-07-30T15:36:25Z</time>
      </trkpt>
      <trkpt lat="42.42267" lon="2.92684">
        <ele>198.56</ele>
        <time>2021-07-30T15:36:57Z</time>
      </trkpt>
      <trkpt lat="42.42266" lon="2.92684">
        <ele>198.35</ele>
        <time>2021-07-30T15:37:11Z</time>
      </trkpt>
      <trkpt lat="42.42265" lon="2.92679">
        <ele>198.88</ele>
        <time>2021-07-30T15:37:29Z</time>
      </trkpt>
      <trkpt lat="42.42266" lon="2.92679">
        <ele>200.85</ele>
        <time>2021-07-30T15:38:24Z</time>
      </trkpt>
      <trkpt lat="42.42265" lon="2.92682">
        <ele>201.78</ele>
        <time>2021-07-30T15:38:33Z</time>
      </trkpt>
      <trkpt lat="42.42264" lon="2.92686">
        <ele>202.02</ele>
        <time>2021-07-30T15:38:50Z</time>
      </trkpt>
      <trkpt lat="42.42264" lon="2.92685">
        <ele>201.12</ele>
        <time>2021-07-30T15:39:23Z</time>
      </trkpt>
      <trkpt lat="42.42263" lon="2.92685">
        <ele>201.39</ele>
        <time>2021-07-30T15:39:42Z</time>
      </trkpt>
      <trkpt lat="42.42262" lon="2.92684">
        <ele>201.39</ele>
        <time>2021-07-30T15:40:17Z</time>
      </trkpt>
      <trkpt lat="42.42261" lon="2.92685">
        <ele>201.39</ele>
        <time>2021-07-30T15:40:49Z</time>
      </trkpt>
      <trkpt lat="42.42262" lon="2.92684">
        <ele>201.39</ele>
        <time>2021-07-30T15:40:57Z</time>
      </trkpt>
      <trkpt lat="42.42267" lon="2.92685">
        <ele>199.43</ele>
        <time>2021-07-30T15:41:07Z</time>
      </trkpt>
      <trkpt lat="42.42268" lon="2.92684">
        <ele>198.01</ele>
        <time>2021-07-30T15:41:51Z</time>
      </trkpt>
      <trkpt lat="42.42268" lon="2.92683">
        <ele>198.22</ele>
        <time>2021-07-30T15:43:24Z</time>
      </trkpt>
      <trkpt lat="42.42271" lon="2.92681">
        <ele>197.82</ele>
        <time>2021-07-30T15:43:52Z</time>
      </trkpt>
      <trkpt lat="42.42278" lon="2.92677">
        <ele>197.87</ele>
        <time>2021-07-30T15:43:56Z</time>
      </trkpt>
      <trkpt lat="42.42333" lon="2.9266">
        <ele>198.56</ele>
        <time>2021-07-30T15:44:07Z</time>
      </trkpt>
      <trkpt lat="42.42362" lon="2.92649">
        <ele>199.19</ele>
        <time>2021-07-30T15:44:11Z</time>
      </trkpt>
      <trkpt lat="42.42383" lon="2.92649">
        <ele>199.86</ele>
        <time>2021-07-30T15:44:15Z</time>
      </trkpt>
      <trkpt lat="42.42404" lon="2.92636">
        <ele>200.5</ele>
        <time>2021-07-30T15:44:20Z</time>
      </trkpt>
      <trkpt lat="42.42412" lon="2.92627">
        <ele>201.86</ele>
        <time>2021-07-30T15:44:29Z</time>
      </trkpt>
      <trkpt lat="42.42445" lon="2.92588">
        <ele>202.81</ele>
        <time>2021-07-30T15:44:40Z</time>
      </trkpt>
      <trkpt lat="42.42485" lon="2.92555">
        <ele>204.6</ele>
        <time>2021-07-30T15:44:54Z</time>
      </trkpt>
      <trkpt lat="42.42503" lon="2.92546">
        <ele>206.19</ele>
        <time>2021-07-30T15:45:06Z</time>
      </trkpt>
      <trkpt lat="42.42526" lon="2.92549">
        <ele>206.69</ele>
        <time>2021-07-30T15:45:26Z</time>
      </trkpt>
      <trkpt lat="42.42544" lon="2.92551">
        <ele>207.1</ele>
        <time>2021-07-30T15:45:30Z</time>
      </trkpt>
      <trkpt lat="42.42604" lon="2.92541">
        <ele>210.42</ele>
        <time>2021-07-30T15:45:41Z</time>
      </trkpt>
      <trkpt lat="42.42611" lon="2.92541">
        <ele>210.83</ele>
        <time>2021-07-30T15:45:42Z</time>
      </trkpt>
      <trkpt lat="42.42634" lon="2.92524">
        <ele>213.85</ele>
        <time>2021-07-30T15:45:48Z</time>
      </trkpt>
      <trkpt lat="42.42636" lon="2.9252">
        <ele>217.36</ele>
        <time>2021-07-30T15:46:01Z</time>
      </trkpt>
      <trkpt lat="42.42636" lon="2.9252">
        <ele>220.06</ele>
        <time>2021-07-30T15:46:58Z</time>
      </trkpt>
      <trkpt lat="42.42643" lon="2.92513">
        <ele>217.83</ele>
        <time>2021-07-30T15:49:27Z</time>
      </trkpt>
      <trkpt lat="42.42651" lon="2.92509">
        <ele>218.99</ele>
        <time>2021-07-30T15:49:40Z</time>
      </trkpt>
      <trkpt lat="42.42684" lon="2.92502">
        <ele>220.33</ele>
        <time>2021-07-30T15:49:52Z</time>
      </trkpt>
      <trkpt lat="42.42725" lon="2.92495">
        <ele>223.4</ele>
        <time>2021-07-30T15:50:01Z</time>
      </trkpt>
      <trkpt lat="42.42755" lon="2.92487">
        <ele>226.67</ele>
        <time>2021-07-30T15:50:06Z</time>
      </trkpt>
      <trkpt lat="42.42785" lon="2.92478">
        <ele>230.42</ele>
        <time>2021-07-30T15:50:11Z</time>
      </trkpt>
      <trkpt lat="42.42789" lon="2.92476">
        <ele>231.18</ele>
        <time>2021-07-30T15:50:12Z</time>
      </trkpt>
      <trkpt lat="42.42811" lon="2.925">
        <ele>235.52</ele>
        <time>2021-07-30T15:50:18Z</time>
      </trkpt>
      <trkpt lat="42.4281" lon="2.92522">
        <ele>236.57</ele>
        <time>2021-07-30T15:50:20Z</time>
      </trkpt>
      <trkpt lat="42.42806" lon="2.92562">
        <ele>240.27</ele>
        <time>2021-07-30T15:50:26Z</time>
      </trkpt>
      <trkpt lat="42.428" lon="2.92585">
        <ele>241.77</ele>
        <time>2021-07-30T15:50:29Z</time>
      </trkpt>
      <trkpt lat="42.42781" lon="2.92637">
        <ele>245.37</ele>
        <time>2021-07-30T15:50:35Z</time>
      </trkpt>
      <trkpt lat="42.42768" lon="2.92675">
        <ele>248.71</ele>
        <time>2021-07-30T15:50:39Z</time>
      </trkpt>
      <trkpt lat="42.42753" lon="2.92718">
        <ele>251.91</ele>
        <time>2021-07-30T15:50:44Z</time>
      </trkpt>
      <trkpt lat="42.42728" lon="2.92787">
        <ele>255.42</ele>
        <time>2021-07-30T15:50:50Z</time>
      </trkpt>
      <trkpt lat="42.42699" lon="2.92856">
        <ele>257.93</ele>
        <time>2021-07-30T15:50:57Z</time>
      </trkpt>
      <trkpt lat="42.42695" lon="2.92866">
        <ele>258.2</ele>
        <time>2021-07-30T15:50:58Z</time>
      </trkpt>
      <trkpt lat="42.4269" lon="2.92912">
        <ele>259.06</ele>
        <time>2021-07-30T15:51:02Z</time>
      </trkpt>
      <trkpt lat="42.42711" lon="2.92933">
        <ele>260.87</ele>
        <time>2021-07-30T15:51:08Z</time>
      </trkpt>
      <trkpt lat="42.42716" lon="2.92916">
        <ele>262.09</ele>
        <time>2021-07-30T15:51:10Z</time>
      </trkpt>
      <trkpt lat="42.42722" lon="2.92895">
        <ele>263.75</ele>
        <time>2021-07-30T15:51:13Z</time>
      </trkpt>
      <trkpt lat="42.42736" lon="2.92868">
        <ele>265.85</ele>
        <time>2021-07-30T15:51:17Z</time>
      </trkpt>
      <trkpt lat="42.42764" lon="2.92835">
        <ele>269.59</ele>
        <time>2021-07-30T15:51:25Z</time>
      </trkpt>
      <trkpt lat="42.42801" lon="2.92795">
        <ele>272.68</ele>
        <time>2021-07-30T15:51:31Z</time>
      </trkpt>
      <trkpt lat="42.42828" lon="2.92769">
        <ele>276.59</ele>
        <time>2021-07-30T15:51:36Z</time>
      </trkpt>
      <trkpt lat="42.42847" lon="2.92744">
        <ele>279.77</ele>
        <time>2021-07-30T15:51:40Z</time>
      </trkpt>
      <trkpt lat="42.42885" lon="2.92745">
        <ele>284.42</ele>
        <time>2021-07-30T15:51:45Z</time>
      </trkpt>
      <trkpt lat="42.42899" lon="2.92761">
        <ele>286.08</ele>
        <time>2021-07-30T15:51:47Z</time>
      </trkpt>
      <trkpt lat="42.42916" lon="2.92786">
        <ele>288.88</ele>
        <time>2021-07-30T15:51:50Z</time>
      </trkpt>
      <trkpt lat="42.4293" lon="2.92838">
        <ele>293.74</ele>
        <time>2021-07-30T15:51:55Z</time>
      </trkpt>
      <trkpt lat="42.42931" lon="2.92849">
        <ele>294.76</ele>
        <time>2021-07-30T15:51:56Z</time>
      </trkpt>
      <trkpt lat="42.42931" lon="2.92872">
        <ele>298.06</ele>
        <time>2021-07-30T15:51:59Z</time>
      </trkpt>
      <trkpt lat="42.42923" lon="2.92907">
        <ele>302.75</ele>
        <time>2021-07-30T15:52:04Z</time>
      </trkpt>
      <trkpt lat="42.42915" lon="2.92919">
        <ele>304.32</ele>
        <time>2021-07-30T15:52:06Z</time>
      </trkpt>
      <trkpt lat="42.4291" lon="2.92965">
        <ele>309.16</ele>
        <time>2021-07-30T15:52:12Z</time>
      </trkpt>
      <trkpt lat="42.42928" lon="2.93007">
        <ele>313.41</ele>
        <time>2021-07-30T15:52:17Z</time>
      </trkpt>
      <trkpt lat="42.42933" lon="2.9304">
        <ele>316.98</ele>
        <time>2021-07-30T15:52:21Z</time>
      </trkpt>
      <trkpt lat="42.42941" lon="2.93043">
        <ele>320.35</ele>
        <time>2021-07-30T15:52:28Z</time>
      </trkpt>
      <trkpt lat="42.42941" lon="2.93031">
        <ele>321.22</ele>
        <time>2021-07-30T15:52:30Z</time>
      </trkpt>
      <trkpt lat="42.4295" lon="2.93045">
        <ele>322.77</ele>
        <time>2021-07-30T15:52:35Z</time>
      </trkpt>
      <trkpt lat="42.42953" lon="2.93062">
        <ele>323.56</ele>
        <time>2021-07-30T15:52:37Z</time>
      </trkpt>
      <trkpt lat="42.4293" lon="2.93096">
        <ele>325.88</ele>
        <time>2021-07-30T15:52:43Z</time>
      </trkpt>
      <trkpt lat="42.42932" lon="2.93133">
        <ele>328.01</ele>
        <time>2021-07-30T15:52:47Z</time>
      </trkpt>
      <trkpt lat="42.42935" lon="2.93153">
        <ele>328.99</ele>
        <time>2021-07-30T15:52:49Z</time>
      </trkpt>
      <trkpt lat="42.42969" lon="2.93209">
        <ele>331.82</ele>
        <time>2021-07-30T15:52:56Z</time>
      </trkpt>
      <trkpt lat="42.42962" lon="2.93251">
        <ele>333.03</ele>
        <time>2021-07-30T15:53:00Z</time>
      </trkpt>
      <trkpt lat="42.42963" lon="2.93319">
        <ele>336.22</ele>
        <time>2021-07-30T15:53:07Z</time>
      </trkpt>
      <trkpt lat="42.42967" lon="2.93326">
        <ele>336.6</ele>
        <time>2021-07-30T15:53:08Z</time>
      </trkpt>
      <trkpt lat="42.42976" lon="2.93343">
        <ele>337.27</ele>
        <time>2021-07-30T15:53:10Z</time>
      </trkpt>
      <trkpt lat="42.43005" lon="2.9337">
        <ele>338.57</ele>
        <time>2021-07-30T15:53:14Z</time>
      </trkpt>
      <trkpt lat="42.4304" lon="2.93435">
        <ele>341.28</ele>
        <time>2021-07-30T15:53:23Z</time>
      </trkpt>
      <trkpt lat="42.43051" lon="2.93464">
        <ele>342.58</ele>
        <time>2021-07-30T15:53:27Z</time>
      </trkpt>
      <trkpt lat="42.43073" lon="2.93491">
        <ele>343.64</ele>
        <time>2021-07-30T15:53:31Z</time>
      </trkpt>
      <trkpt lat="42.4309" lon="2.93537">
        <ele>344.89</ele>
        <time>2021-07-30T15:53:36Z</time>
      </trkpt>
      <trkpt lat="42.43097" lon="2.93583">
        <ele>346.09</ele>
        <time>2021-07-30T15:53:40Z</time>
      </trkpt>
      <trkpt lat="42.43134" lon="2.93613">
        <ele>348.84</ele>
        <time>2021-07-30T15:53:49Z</time>
      </trkpt>
      <trkpt lat="42.43175" lon="2.93653">
        <ele>350.49</ele>
        <time>2021-07-30T15:53:57Z</time>
      </trkpt>
      <trkpt lat="42.43191" lon="2.93698">
        <ele>352.37</ele>
        <time>2021-07-30T15:54:01Z</time>
      </trkpt>
      <trkpt lat="42.43213" lon="2.93734">
        <ele>354.01</ele>
        <time>2021-07-30T15:54:05Z</time>
      </trkpt>
      <trkpt lat="42.4324" lon="2.9374">
        <ele>355.41</ele>
        <time>2021-07-30T15:54:10Z</time>
      </trkpt>
      <trkpt lat="42.43278" lon="2.93708">
        <ele>356.86</ele>
        <time>2021-07-30T15:54:15Z</time>
      </trkpt>
      <trkpt lat="42.4331" lon="2.93718">
        <ele>359.21</ele>
        <time>2021-07-30T15:54:22Z</time>
      </trkpt>
      <trkpt lat="42.43308" lon="2.93728">
        <ele>359.54</ele>
        <time>2021-07-30T15:54:23Z</time>
      </trkpt>
      <trkpt lat="42.43305" lon="2.93749">
        <ele>360.36</ele>
        <time>2021-07-30T15:54:25Z</time>
      </trkpt>
      <trkpt lat="42.43316" lon="2.93794">
        <ele>362.04</ele>
        <time>2021-07-30T15:54:30Z</time>
      </trkpt>
      <trkpt lat="42.43311" lon="2.93828">
        <ele>363.43</ele>
        <time>2021-07-30T15:54:35Z</time>
      </trkpt>
      <trkpt lat="42.43293" lon="2.93866">
        <ele>365.27</ele>
        <time>2021-07-30T15:54:40Z</time>
      </trkpt>
      <trkpt lat="42.43258" lon="2.93928">
        <ele>367.45</ele>
        <time>2021-07-30T15:54:47Z</time>
      </trkpt>
      <trkpt lat="42.43215" lon="2.93931">
        <ele>368.99</ele>
        <time>2021-07-30T15:54:52Z</time>
      </trkpt>
      <trkpt lat="42.43184" lon="2.93939">
        <ele>370.54</ele>
        <time>2021-07-30T15:54:56Z</time>
      </trkpt>
      <trkpt lat="42.43146" lon="2.93961">
        <ele>372.03</ele>
        <time>2021-07-30T15:55:01Z</time>
      </trkpt>
      <trkpt lat="42.43131" lon="2.9399">
        <ele>373.39</ele>
        <time>2021-07-30T15:55:06Z</time>
      </trkpt>
      <trkpt lat="42.43129" lon="2.9401">
        <ele>373.9</ele>
        <time>2021-07-30T15:55:08Z</time>
      </trkpt>
      <trkpt lat="42.43131" lon="2.9405">
        <ele>374.98</ele>
        <time>2021-07-30T15:55:12Z</time>
      </trkpt>
      <trkpt lat="42.43149" lon="2.94149">
        <ele>377.22</ele>
        <time>2021-07-30T15:55:22Z</time>
      </trkpt>
      <trkpt lat="42.43166" lon="2.94168">
        <ele>378.85</ele>
        <time>2021-07-30T15:55:30Z</time>
      </trkpt>
      <trkpt lat="42.43166" lon="2.94168">
        <ele>380.06</ele>
        <time>2021-07-30T15:55:46Z</time>
      </trkpt>
      <trkpt lat="42.43177" lon="2.94163">
        <ele>380.36</ele>
        <time>2021-07-30T15:56:05Z</time>
      </trkpt>
      <trkpt lat="42.43184" lon="2.94161">
        <ele>380.55</ele>
        <time>2021-07-30T15:56:17Z</time>
      </trkpt>
      <trkpt lat="42.4319" lon="2.9416">
        <ele>380.82</ele>
        <time>2021-07-30T15:56:38Z</time>
      </trkpt>
      <trkpt lat="42.43205" lon="2.94159">
        <ele>380.86</ele>
        <time>2021-07-30T15:56:41Z</time>
      </trkpt>
      <trkpt lat="42.43221" lon="2.94157">
        <ele>381.01</ele>
        <time>2021-07-30T15:56:43Z</time>
      </trkpt>
      <trkpt lat="42.43256" lon="2.94157">
        <ele>381.39</ele>
        <time>2021-07-30T15:56:47Z</time>
      </trkpt>
      <trkpt lat="42.4334" lon="2.94141">
        <ele>382.8</ele>
        <time>2021-07-30T15:56:58Z</time>
      </trkpt>
      <trkpt lat="42.4338" lon="2.94134">
        <ele>383.38</ele>
        <time>2021-07-30T15:57:05Z</time>
      </trkpt>
      <trkpt lat="42.4342" lon="2.94158">
        <ele>384.13</ele>
        <time>2021-07-30T15:57:13Z</time>
      </trkpt>
      <trkpt lat="42.43426" lon="2.94156">
        <ele>384.19</ele>
        <time>2021-07-30T15:57:14Z</time>
      </trkpt>
      <trkpt lat="42.43449" lon="2.94149">
        <ele>384.56</ele>
        <time>2021-07-30T15:57:20Z</time>
      </trkpt>
      <trkpt lat="42.43472" lon="2.94164">
        <ele>384.8</ele>
        <time>2021-07-30T15:57:24Z</time>
      </trkpt>
      <trkpt lat="42.43518" lon="2.94218">
        <ele>385.91</ele>
        <time>2021-07-30T15:57:30Z</time>
      </trkpt>
      <trkpt lat="42.43549" lon="2.94227">
        <ele>386.72</ele>
        <time>2021-07-30T15:57:34Z</time>
      </trkpt>
      <trkpt lat="42.43583" lon="2.94223">
        <ele>387.28</ele>
        <time>2021-07-30T15:57:38Z</time>
      </trkpt>
      <trkpt lat="42.43604" lon="2.94194">
        <ele>388.04</ele>
        <time>2021-07-30T15:57:43Z</time>
      </trkpt>
      <trkpt lat="42.43611" lon="2.94165">
        <ele>388.51</ele>
        <time>2021-07-30T15:57:46Z</time>
      </trkpt>
      <trkpt lat="42.43659" lon="2.94061">
        <ele>389.79</ele>
        <time>2021-07-30T15:57:55Z</time>
      </trkpt>
      <trkpt lat="42.43682" lon="2.93989">
        <ele>389.41</ele>
        <time>2021-07-30T15:58:00Z</time>
      </trkpt>
      <trkpt lat="42.43717" lon="2.93976">
        <ele>388.4</ele>
        <time>2021-07-30T15:58:05Z</time>
      </trkpt>
      <trkpt lat="42.43737" lon="2.93984">
        <ele>388.06</ele>
        <time>2021-07-30T15:58:07Z</time>
      </trkpt>
      <trkpt lat="42.43795" lon="2.93955">
        <ele>387.07</ele>
        <time>2021-07-30T15:58:14Z</time>
      </trkpt>
      <trkpt lat="42.43827" lon="2.93875">
        <ele>386.35</ele>
        <time>2021-07-30T15:58:22Z</time>
      </trkpt>
      <trkpt lat="42.43862" lon="2.93851">
        <ele>386.04</ele>
        <time>2021-07-30T15:58:27Z</time>
      </trkpt>
      <trkpt lat="42.43888" lon="2.93826">
        <ele>385.98</ele>
        <time>2021-07-30T15:58:31Z</time>
      </trkpt>
      <trkpt lat="42.43901" lon="2.93777">
        <ele>386.02</ele>
        <time>2021-07-30T15:58:36Z</time>
      </trkpt>
      <trkpt lat="42.43903" lon="2.9375">
        <ele>386.02</ele>
        <time>2021-07-30T15:58:38Z</time>
      </trkpt>
      <trkpt lat="42.43922" lon="2.9371">
        <ele>385.95</ele>
        <time>2021-07-30T15:58:42Z</time>
      </trkpt>
      <trkpt lat="42.43936" lon="2.93694">
        <ele>385.85</ele>
        <time>2021-07-30T15:58:44Z</time>
      </trkpt>
      <trkpt lat="42.43972" lon="2.93635">
        <ele>385.56</ele>
        <time>2021-07-30T15:58:49Z</time>
      </trkpt>
      <trkpt lat="42.44041" lon="2.93575">
        <ele>384.62</ele>
        <time>2021-07-30T15:58:57Z</time>
      </trkpt>
      <trkpt lat="42.44092" lon="2.93568">
        <ele>385.05</ele>
        <time>2021-07-30T15:59:03Z</time>
      </trkpt>
      <trkpt lat="42.4412" lon="2.93552">
        <ele>385.69</ele>
        <time>2021-07-30T15:59:07Z</time>
      </trkpt>
      <trkpt lat="42.44147" lon="2.93532">
        <ele>386.57</ele>
        <time>2021-07-30T15:59:11Z</time>
      </trkpt>
      <trkpt lat="42.4418" lon="2.93488">
        <ele>388.17</ele>
        <time>2021-07-30T15:59:18Z</time>
      </trkpt>
      <trkpt lat="42.44199" lon="2.93532">
        <ele>388.8</ele>
        <time>2021-07-30T15:59:23Z</time>
      </trkpt>
      <trkpt lat="42.44194" lon="2.93554">
        <ele>389.36</ele>
        <time>2021-07-30T15:59:25Z</time>
      </trkpt>
      <trkpt lat="42.44184" lon="2.93597">
        <ele>390.18</ele>
        <time>2021-07-30T15:59:29Z</time>
      </trkpt>
      <trkpt lat="42.44216" lon="2.93652">
        <ele>390.43</ele>
        <time>2021-07-30T15:59:37Z</time>
      </trkpt>
      <trkpt lat="42.44223" lon="2.93655">
        <ele>390.38</ele>
        <time>2021-07-30T15:59:38Z</time>
      </trkpt>
      <trkpt lat="42.44257" lon="2.93697">
        <ele>389.71</ele>
        <time>2021-07-30T15:59:44Z</time>
      </trkpt>
      <trkpt lat="42.44281" lon="2.93757">
        <ele>389.43</ele>
        <time>2021-07-30T15:59:50Z</time>
      </trkpt>
      <trkpt lat="42.443" lon="2.93805">
        <ele>389.49</ele>
        <time>2021-07-30T15:59:54Z</time>
      </trkpt>
      <trkpt lat="42.44336" lon="2.93881">
        <ele>389.76</ele>
        <time>2021-07-30T16:00:01Z</time>
      </trkpt>
      <trkpt lat="42.44368" lon="2.93964">
        <ele>389.88</ele>
        <time>2021-07-30T16:00:08Z</time>
      </trkpt>
      <trkpt lat="42.44402" lon="2.93997">
        <ele>390.06</ele>
        <time>2021-07-30T16:00:13Z</time>
      </trkpt>
      <trkpt lat="42.44418" lon="2.94006">
        <ele>390.1</ele>
        <time>2021-07-30T16:00:15Z</time>
      </trkpt>
      <trkpt lat="42.44473" lon="2.93979">
        <ele>389.94</ele>
        <time>2021-07-30T16:00:22Z</time>
      </trkpt>
      <trkpt lat="42.44488" lon="2.93964">
        <ele>389.76</ele>
        <time>2021-07-30T16:00:24Z</time>
      </trkpt>
      <trkpt lat="42.44506" lon="2.93902">
        <ele>389.13</ele>
        <time>2021-07-30T16:00:31Z</time>
      </trkpt>
      <trkpt lat="42.44532" lon="2.93914">
        <ele>388.8</ele>
        <time>2021-07-30T16:00:35Z</time>
      </trkpt>
      <trkpt lat="42.44551" lon="2.93927">
        <ele>388.95</ele>
        <time>2021-07-30T16:00:37Z</time>
      </trkpt>
      <trkpt lat="42.44613" lon="2.93949">
        <ele>390</ele>
        <time>2021-07-30T16:00:43Z</time>
      </trkpt>
      <trkpt lat="42.44725" lon="2.94011">
        <ele>391.47</ele>
        <time>2021-07-30T16:00:54Z</time>
      </trkpt>
      <trkpt lat="42.4478" lon="2.94055">
        <ele>392.3</ele>
        <time>2021-07-30T16:01:00Z</time>
      </trkpt>
      <trkpt lat="42.44818" lon="2.94106">
        <ele>392.98</ele>
        <time>2021-07-30T16:01:06Z</time>
      </trkpt>
      <trkpt lat="42.44798" lon="2.94141">
        <ele>392.97</ele>
        <time>2021-07-30T16:01:12Z</time>
      </trkpt>
      <trkpt lat="42.44774" lon="2.94139">
        <ele>392.95</ele>
        <time>2021-07-30T16:01:15Z</time>
      </trkpt>
      <trkpt lat="42.44693" lon="2.94103">
        <ele>392.83</ele>
        <time>2021-07-30T16:01:25Z</time>
      </trkpt>
      <trkpt lat="42.44654" lon="2.94096">
        <ele>392.04</ele>
        <time>2021-07-30T16:01:30Z</time>
      </trkpt>
      <trkpt lat="42.44561" lon="2.94124">
        <ele>392.78</ele>
        <time>2021-07-30T16:01:41Z</time>
      </trkpt>
      <trkpt lat="42.4453" lon="2.9415">
        <ele>393.81</ele>
        <time>2021-07-30T16:01:45Z</time>
      </trkpt>
      <trkpt lat="42.44505" lon="2.94189">
        <ele>394.88</ele>
        <time>2021-07-30T16:01:49Z</time>
      </trkpt>
      <trkpt lat="42.44472" lon="2.94214">
        <ele>396.09</ele>
        <time>2021-07-30T16:01:53Z</time>
      </trkpt>
      <trkpt lat="42.44407" lon="2.94263">
        <ele>398.12</ele>
        <time>2021-07-30T16:02:00Z</time>
      </trkpt>
      <trkpt lat="42.4433" lon="2.94382">
        <ele>399.17</ele>
        <time>2021-07-30T16:02:10Z</time>
      </trkpt>
      <trkpt lat="42.44327" lon="2.94427">
        <ele>398.64</ele>
        <time>2021-07-30T16:02:14Z</time>
      </trkpt>
      <trkpt lat="42.44344" lon="2.94494">
        <ele>396.86</ele>
        <time>2021-07-30T16:02:20Z</time>
      </trkpt>
      <trkpt lat="42.44363" lon="2.94523">
        <ele>396.29</ele>
        <time>2021-07-30T16:02:24Z</time>
      </trkpt>
      <trkpt lat="42.44373" lon="2.94535">
        <ele>396.12</ele>
        <time>2021-07-30T16:02:26Z</time>
      </trkpt>
      <trkpt lat="42.44385" lon="2.94581">
        <ele>395.7</ele>
        <time>2021-07-30T16:02:31Z</time>
      </trkpt>
      <trkpt lat="42.44385" lon="2.94619">
        <ele>395.55</ele>
        <time>2021-07-30T16:02:34Z</time>
      </trkpt>
      <trkpt lat="42.4441" lon="2.94706">
        <ele>393.2</ele>
        <time>2021-07-30T16:02:44Z</time>
      </trkpt>
      <trkpt lat="42.44434" lon="2.94741">
        <ele>389.59</ele>
        <time>2021-07-30T16:02:51Z</time>
      </trkpt>
      <trkpt lat="42.44441" lon="2.94752">
        <ele>388.56</ele>
        <time>2021-07-30T16:02:53Z</time>
      </trkpt>
      <trkpt lat="42.44433" lon="2.94814">
        <ele>386.13</ele>
        <time>2021-07-30T16:03:00Z</time>
      </trkpt>
      <trkpt lat="42.44426" lon="2.94822">
        <ele>386</ele>
        <time>2021-07-30T16:03:01Z</time>
      </trkpt>
      <trkpt lat="42.44331" lon="2.94927">
        <ele>389.58</ele>
        <time>2021-07-30T16:03:12Z</time>
      </trkpt>
      <trkpt lat="42.4426" lon="2.94995">
        <ele>392.67</ele>
        <time>2021-07-30T16:03:19Z</time>
      </trkpt>
      <trkpt lat="42.44219" lon="2.95055">
        <ele>391.79</ele>
        <time>2021-07-30T16:03:26Z</time>
      </trkpt>
      <trkpt lat="42.44197" lon="2.95131">
        <ele>390.05</ele>
        <time>2021-07-30T16:03:33Z</time>
      </trkpt>
      <trkpt lat="42.44192" lon="2.95161">
        <ele>389.49</ele>
        <time>2021-07-30T16:03:35Z</time>
      </trkpt>
      <trkpt lat="42.44175" lon="2.95216">
        <ele>386.02</ele>
        <time>2021-07-30T16:03:41Z</time>
      </trkpt>
      <trkpt lat="42.44165" lon="2.95248">
        <ele>384.2</ele>
        <time>2021-07-30T16:03:44Z</time>
      </trkpt>
      <trkpt lat="42.44164" lon="2.95261">
        <ele>382.81</ele>
        <time>2021-07-30T16:03:46Z</time>
      </trkpt>
      <trkpt lat="42.44137" lon="2.95302">
        <ele>378.49</ele>
        <time>2021-07-30T16:03:52Z</time>
      </trkpt>
      <trkpt lat="42.44114" lon="2.95312">
        <ele>375.3</ele>
        <time>2021-07-30T16:03:56Z</time>
      </trkpt>
      <trkpt lat="42.44106" lon="2.9531">
        <ele>372.7</ele>
        <time>2021-07-30T16:03:58Z</time>
      </trkpt>
      <trkpt lat="42.44071" lon="2.95286">
        <ele>368.36</ele>
        <time>2021-07-30T16:04:04Z</time>
      </trkpt>
      <trkpt lat="42.44054" lon="2.95258">
        <ele>365.47</ele>
        <time>2021-07-30T16:04:08Z</time>
      </trkpt>
      <trkpt lat="42.4403" lon="2.95217">
        <ele>361.56</ele>
        <time>2021-07-30T16:04:13Z</time>
      </trkpt>
      <trkpt lat="42.44022" lon="2.9521">
        <ele>359.9</ele>
        <time>2021-07-30T16:04:15Z</time>
      </trkpt>
      <trkpt lat="42.43992" lon="2.95191">
        <ele>356.14</ele>
        <time>2021-07-30T16:04:20Z</time>
      </trkpt>
      <trkpt lat="42.43971" lon="2.95168">
        <ele>351.63</ele>
        <time>2021-07-30T16:04:25Z</time>
      </trkpt>
      <trkpt lat="42.43964" lon="2.95159">
        <ele>349.9</ele>
        <time>2021-07-30T16:04:27Z</time>
      </trkpt>
      <trkpt lat="42.43948" lon="2.95143">
        <ele>347.52</ele>
        <time>2021-07-30T16:04:30Z</time>
      </trkpt>
      <trkpt lat="42.43913" lon="2.95128">
        <ele>343.33</ele>
        <time>2021-07-30T16:04:35Z</time>
      </trkpt>
      <trkpt lat="42.43875" lon="2.95104">
        <ele>337.8</ele>
        <time>2021-07-30T16:04:41Z</time>
      </trkpt>
      <trkpt lat="42.43866" lon="2.9507">
        <ele>334.32</ele>
        <time>2021-07-30T16:04:45Z</time>
      </trkpt>
      <trkpt lat="42.43867" lon="2.95057">
        <ele>333.47</ele>
        <time>2021-07-30T16:04:46Z</time>
      </trkpt>
      <trkpt lat="42.43856" lon="2.95001">
        <ele>328.32</ele>
        <time>2021-07-30T16:04:53Z</time>
      </trkpt>
      <trkpt lat="42.43823" lon="2.94994">
        <ele>324.79</ele>
        <time>2021-07-30T16:04:58Z</time>
      </trkpt>
      <trkpt lat="42.43818" lon="2.94996">
        <ele>323.8</ele>
        <time>2021-07-30T16:04:59Z</time>
      </trkpt>
      <trkpt lat="42.43788" lon="2.95011">
        <ele>320.51</ele>
        <time>2021-07-30T16:05:03Z</time>
      </trkpt>
      <trkpt lat="42.43743" lon="2.95035">
        <ele>316.31</ele>
        <time>2021-07-30T16:05:09Z</time>
      </trkpt>
      <trkpt lat="42.43712" lon="2.95036">
        <ele>313.18</ele>
        <time>2021-07-30T16:05:13Z</time>
      </trkpt>
      <trkpt lat="42.4371" lon="2.94999">
        <ele>309.43</ele>
        <time>2021-07-30T16:05:17Z</time>
      </trkpt>
      <trkpt lat="42.43692" lon="2.94983">
        <ele>306.16</ele>
        <time>2021-07-30T16:05:21Z</time>
      </trkpt>
      <trkpt lat="42.43667" lon="2.94995">
        <ele>304.04</ele>
        <time>2021-07-30T16:05:24Z</time>
      </trkpt>
      <trkpt lat="42.43644" lon="2.95013">
        <ele>301.87</ele>
        <time>2021-07-30T16:05:27Z</time>
      </trkpt>
      <trkpt lat="42.43589" lon="2.95024">
        <ele>297.74</ele>
        <time>2021-07-30T16:05:33Z</time>
      </trkpt>
      <trkpt lat="42.4358" lon="2.95024">
        <ele>296.93</ele>
        <time>2021-07-30T16:05:34Z</time>
      </trkpt>
      <trkpt lat="42.43553" lon="2.9501">
        <ele>292.74</ele>
        <time>2021-07-30T16:05:38Z</time>
      </trkpt>
      <trkpt lat="42.43529" lon="2.94987">
        <ele>289.04</ele>
        <time>2021-07-30T16:05:42Z</time>
      </trkpt>
      <trkpt lat="42.43516" lon="2.94975">
        <ele>287.4</ele>
        <time>2021-07-30T16:05:44Z</time>
      </trkpt>
      <trkpt lat="42.43486" lon="2.94962">
        <ele>282.73</ele>
        <time>2021-07-30T16:05:49Z</time>
      </trkpt>
      <trkpt lat="42.43447" lon="2.94968">
        <ele>277.99</ele>
        <time>2021-07-30T16:05:54Z</time>
      </trkpt>
      <trkpt lat="42.43423" lon="2.9498">
        <ele>273.65</ele>
        <time>2021-07-30T16:05:59Z</time>
      </trkpt>
      <trkpt lat="42.43418" lon="2.94982">
        <ele>272.74</ele>
        <time>2021-07-30T16:06:00Z</time>
      </trkpt>
      <trkpt lat="42.43373" lon="2.94977">
        <ele>268.3</ele>
        <time>2021-07-30T16:06:06Z</time>
      </trkpt>
      <trkpt lat="42.4336" lon="2.94975">
        <ele>265.69</ele>
        <time>2021-07-30T16:06:09Z</time>
      </trkpt>
      <trkpt lat="42.43304" lon="2.94994">
        <ele>261.17</ele>
        <time>2021-07-30T16:06:15Z</time>
      </trkpt>
      <trkpt lat="42.43296" lon="2.94997">
        <ele>260.41</ele>
        <time>2021-07-30T16:06:16Z</time>
      </trkpt>
      <trkpt lat="42.43269" lon="2.95021">
        <ele>256.12</ele>
        <time>2021-07-30T16:06:21Z</time>
      </trkpt>
      <trkpt lat="42.43257" lon="2.95033">
        <ele>254.76</ele>
        <time>2021-07-30T16:06:23Z</time>
      </trkpt>
      <trkpt lat="42.43244" lon="2.95028">
        <ele>250.7</ele>
        <time>2021-07-30T16:06:29Z</time>
      </trkpt>
      <trkpt lat="42.43258" lon="2.95013">
        <ele>248.78</ele>
        <time>2021-07-30T16:06:33Z</time>
      </trkpt>
      <trkpt lat="42.43266" lon="2.94997">
        <ele>245.1</ele>
        <time>2021-07-30T16:06:39Z</time>
      </trkpt>
      <trkpt lat="42.43257" lon="2.95003">
        <ele>244.03</ele>
        <time>2021-07-30T16:06:41Z</time>
      </trkpt>
      <trkpt lat="42.43236" lon="2.95008">
        <ele>242.2</ele>
        <time>2021-07-30T16:06:45Z</time>
      </trkpt>
      <trkpt lat="42.43178" lon="2.95057">
        <ele>239.94</ele>
        <time>2021-07-30T16:06:54Z</time>
      </trkpt>
      <trkpt lat="42.43117" lon="2.95096">
        <ele>239.75</ele>
        <time>2021-07-30T16:07:02Z</time>
      </trkpt>
      <trkpt lat="42.43078" lon="2.95124">
        <ele>241.2</ele>
        <time>2021-07-30T16:07:10Z</time>
      </trkpt>
      <trkpt lat="42.43063" lon="2.95137">
        <ele>239.85</ele>
        <time>2021-07-30T16:07:18Z</time>
      </trkpt>
      <trkpt lat="42.43065" lon="2.95138">
        <ele>238.83</ele>
        <time>2021-07-30T16:07:35Z</time>
      </trkpt>
      <trkpt lat="42.4306" lon="2.95143">
        <ele>238.84</ele>
        <time>2021-07-30T16:07:38Z</time>
      </trkpt>
      <trkpt lat="42.43026" lon="2.95172">
        <ele>238.67</ele>
        <time>2021-07-30T16:07:44Z</time>
      </trkpt>
      <trkpt lat="42.42964" lon="2.9523">
        <ele>236.73</ele>
        <time>2021-07-30T16:07:56Z</time>
      </trkpt>
      <trkpt lat="42.42943" lon="2.95255">
        <ele>235.96</ele>
        <time>2021-07-30T16:08:00Z</time>
      </trkpt>
      <trkpt lat="42.42889" lon="2.95274">
        <ele>234.9</ele>
        <time>2021-07-30T16:08:10Z</time>
      </trkpt>
      <trkpt lat="42.42879" lon="2.95279">
        <ele>234.87</ele>
        <time>2021-07-30T16:08:12Z</time>
      </trkpt>
      <trkpt lat="42.42837" lon="2.95313">
        <ele>234.9</ele>
        <time>2021-07-30T16:08:18Z</time>
      </trkpt>
      <trkpt lat="42.42798" lon="2.95329">
        <ele>234.87</ele>
        <time>2021-07-30T16:08:22Z</time>
      </trkpt>
      <trkpt lat="42.4269" lon="2.95356">
        <ele>236.46</ele>
        <time>2021-07-30T16:08:32Z</time>
      </trkpt>
      <trkpt lat="42.42659" lon="2.95365">
        <ele>237.99</ele>
        <time>2021-07-30T16:08:35Z</time>
      </trkpt>
      <trkpt lat="42.42587" lon="2.95439">
        <ele>242.09</ele>
        <time>2021-07-30T16:08:43Z</time>
      </trkpt>
      <trkpt lat="42.42568" lon="2.9546">
        <ele>243.34</ele>
        <time>2021-07-30T16:08:45Z</time>
      </trkpt>
      <trkpt lat="42.42493" lon="2.955">
        <ele>246.55</ele>
        <time>2021-07-30T16:08:53Z</time>
      </trkpt>
      <trkpt lat="42.42482" lon="2.95506">
        <ele>246.61</ele>
        <time>2021-07-30T16:08:54Z</time>
      </trkpt>
      <trkpt lat="42.4242" lon="2.95522">
        <ele>244.84</ele>
        <time>2021-07-30T16:09:00Z</time>
      </trkpt>
      <trkpt lat="42.42363" lon="2.95549">
        <ele>243.96</ele>
        <time>2021-07-30T16:09:06Z</time>
      </trkpt>
      <trkpt lat="42.42273" lon="2.95541">
        <ele>246.51</ele>
        <time>2021-07-30T16:09:14Z</time>
      </trkpt>
      <trkpt lat="42.42243" lon="2.95549">
        <ele>247.88</ele>
        <time>2021-07-30T16:09:17Z</time>
      </trkpt>
      <trkpt lat="42.42205" lon="2.95515">
        <ele>250.7</ele>
        <time>2021-07-30T16:09:23Z</time>
      </trkpt>
      <trkpt lat="42.42203" lon="2.95502">
        <ele>251.04</ele>
        <time>2021-07-30T16:09:24Z</time>
      </trkpt>
      <trkpt lat="42.422" lon="2.95471">
        <ele>251.57</ele>
        <time>2021-07-30T16:09:26Z</time>
      </trkpt>
      <trkpt lat="42.42182" lon="2.95397">
        <ele>251.75</ele>
        <time>2021-07-30T16:09:32Z</time>
      </trkpt>
      <trkpt lat="42.42152" lon="2.95413">
        <ele>251.14</ele>
        <time>2021-07-30T16:09:36Z</time>
      </trkpt>
      <trkpt lat="42.42103" lon="2.95455">
        <ele>251.41</ele>
        <time>2021-07-30T16:09:41Z</time>
      </trkpt>
      <trkpt lat="42.42062" lon="2.9547">
        <ele>252.55</ele>
        <time>2021-07-30T16:09:45Z</time>
      </trkpt>
      <trkpt lat="42.41988" lon="2.95457">
        <ele>255.95</ele>
        <time>2021-07-30T16:09:53Z</time>
      </trkpt>
      <trkpt lat="42.41952" lon="2.95448">
        <ele>258.29</ele>
        <time>2021-07-30T16:09:57Z</time>
      </trkpt>
      <trkpt lat="42.41906" lon="2.9547">
        <ele>261.13</ele>
        <time>2021-07-30T16:10:02Z</time>
      </trkpt>
      <trkpt lat="42.41869" lon="2.95486">
        <ele>263.65</ele>
        <time>2021-07-30T16:10:06Z</time>
      </trkpt>
      <trkpt lat="42.41827" lon="2.95469">
        <ele>266.89</ele>
        <time>2021-07-30T16:10:12Z</time>
      </trkpt>
      <trkpt lat="42.41839" lon="2.95423">
        <ele>269.48</ele>
        <time>2021-07-30T16:10:16Z</time>
      </trkpt>
      <trkpt lat="42.41854" lon="2.95346">
        <ele>272.07</ele>
        <time>2021-07-30T16:10:21Z</time>
      </trkpt>
      <trkpt lat="42.41858" lon="2.9528">
        <ele>272.41</ele>
        <time>2021-07-30T16:10:26Z</time>
      </trkpt>
      <trkpt lat="42.41861" lon="2.95228">
        <ele>270.59</ele>
        <time>2021-07-30T16:10:31Z</time>
      </trkpt>
      <trkpt lat="42.41854" lon="2.95201">
        <ele>266.77</ele>
        <time>2021-07-30T16:10:36Z</time>
      </trkpt>
      <trkpt lat="42.41854" lon="2.95197">
        <ele>262.98</ele>
        <time>2021-07-30T16:10:44Z</time>
      </trkpt>
      <trkpt lat="42.41854" lon="2.95197">
        <ele>261.92</ele>
        <time>2021-07-30T16:11:32Z</time>
      </trkpt>
      <trkpt lat="42.41864" lon="2.95142">
        <ele>262.35</ele>
        <time>2021-07-30T16:11:40Z</time>
      </trkpt>
      <trkpt lat="42.41861" lon="2.95113">
        <ele>262.22</ele>
        <time>2021-07-30T16:11:46Z</time>
      </trkpt>
      <trkpt lat="42.41864" lon="2.95073">
        <ele>259.51</ele>
        <time>2021-07-30T16:11:53Z</time>
      </trkpt>
      <trkpt lat="42.41892" lon="2.95033">
        <ele>255.93</ele>
        <time>2021-07-30T16:12:00Z</time>
      </trkpt>
      <trkpt lat="42.41917" lon="2.95001">
        <ele>252.52</ele>
        <time>2021-07-30T16:12:05Z</time>
      </trkpt>
      <trkpt lat="42.41927" lon="2.94989">
        <ele>251.53</ele>
        <time>2021-07-30T16:12:07Z</time>
      </trkpt>
      <trkpt lat="42.41935" lon="2.94973">
        <ele>250.06</ele>
        <time>2021-07-30T16:12:10Z</time>
      </trkpt>
      <trkpt lat="42.41944" lon="2.94946">
        <ele>247.19</ele>
        <time>2021-07-30T16:12:15Z</time>
      </trkpt>
      <trkpt lat="42.41946" lon="2.94904">
        <ele>243.11</ele>
        <time>2021-07-30T16:12:23Z</time>
      </trkpt>
      <trkpt lat="42.41944" lon="2.9485">
        <ele>240.55</ele>
        <time>2021-07-30T16:12:31Z</time>
      </trkpt>
      <trkpt lat="42.41913" lon="2.94789">
        <ele>237.33</ele>
        <time>2021-07-30T16:12:39Z</time>
      </trkpt>
      <trkpt lat="42.41874" lon="2.94749">
        <ele>233.72</ele>
        <time>2021-07-30T16:12:45Z</time>
      </trkpt>
      <trkpt lat="42.41864" lon="2.94714">
        <ele>230.52</ele>
        <time>2021-07-30T16:12:49Z</time>
      </trkpt>
      <trkpt lat="42.4186" lon="2.94655">
        <ele>226.22</ele>
        <time>2021-07-30T16:12:54Z</time>
      </trkpt>
      <trkpt lat="42.41861" lon="2.94643">
        <ele>225.2</ele>
        <time>2021-07-30T16:12:55Z</time>
      </trkpt>
      <trkpt lat="42.41873" lon="2.94596">
        <ele>220.72</ele>
        <time>2021-07-30T16:12:59Z</time>
      </trkpt>
      <trkpt lat="42.41882" lon="2.94558">
        <ele>217.31</ele>
        <time>2021-07-30T16:13:02Z</time>
      </trkpt>
      <trkpt lat="42.41884" lon="2.94548">
        <ele>216.22</ele>
        <time>2021-07-30T16:13:03Z</time>
      </trkpt>
      <trkpt lat="42.4189" lon="2.94508">
        <ele>211.75</ele>
        <time>2021-07-30T16:13:07Z</time>
      </trkpt>
      <trkpt lat="42.4188" lon="2.94441">
        <ele>207.2</ele>
        <time>2021-07-30T16:13:13Z</time>
      </trkpt>
      <trkpt lat="42.41874" lon="2.94401">
        <ele>204.83</ele>
        <time>2021-07-30T16:13:16Z</time>
      </trkpt>
      <trkpt lat="42.4186" lon="2.94363">
        <ele>200.66</ele>
        <time>2021-07-30T16:13:20Z</time>
      </trkpt>
      <trkpt lat="42.41845" lon="2.94345">
        <ele>198.73</ele>
        <time>2021-07-30T16:13:22Z</time>
      </trkpt>
      <trkpt lat="42.4183" lon="2.94327">
        <ele>196.84</ele>
        <time>2021-07-30T16:13:24Z</time>
      </trkpt>
      <trkpt lat="42.41804" lon="2.94305">
        <ele>192.5</ele>
        <time>2021-07-30T16:13:28Z</time>
      </trkpt>
      <trkpt lat="42.41783" lon="2.94289">
        <ele>189.05</ele>
        <time>2021-07-30T16:13:31Z</time>
      </trkpt>
      <trkpt lat="42.41777" lon="2.94285">
        <ele>188</ele>
        <time>2021-07-30T16:13:32Z</time>
      </trkpt>
      <trkpt lat="42.41752" lon="2.94284">
        <ele>183.99</ele>
        <time>2021-07-30T16:13:36Z</time>
      </trkpt>
      <trkpt lat="42.41672" lon="2.94311">
        <ele>181.5</ele>
        <time>2021-07-30T16:13:44Z</time>
      </trkpt>
      <trkpt lat="42.41655" lon="2.94321">
        <ele>181.62</ele>
        <time>2021-07-30T16:13:46Z</time>
      </trkpt>
      <trkpt lat="42.41599" lon="2.94332">
        <ele>180.96</ele>
        <time>2021-07-30T16:13:52Z</time>
      </trkpt>
      <trkpt lat="42.41501" lon="2.94365">
        <ele>179.49</ele>
        <time>2021-07-30T16:14:00Z</time>
      </trkpt>
      <trkpt lat="42.41465" lon="2.94344">
        <ele>177.68</ele>
        <time>2021-07-30T16:14:05Z</time>
      </trkpt>
      <trkpt lat="42.4142" lon="2.94258">
        <ele>174.28</ele>
        <time>2021-07-30T16:14:12Z</time>
      </trkpt>
      <trkpt lat="42.41394" lon="2.94188">
        <ele>171.26</ele>
        <time>2021-07-30T16:14:17Z</time>
      </trkpt>
      <trkpt lat="42.41398" lon="2.94127">
        <ele>167.65</ele>
        <time>2021-07-30T16:14:23Z</time>
      </trkpt>
      <trkpt lat="42.41405" lon="2.94107">
        <ele>166.68</ele>
        <time>2021-07-30T16:14:25Z</time>
      </trkpt>
      <trkpt lat="42.41411" lon="2.9409">
        <ele>165.78</ele>
        <time>2021-07-30T16:14:27Z</time>
      </trkpt>
      <trkpt lat="42.41398" lon="2.94075">
        <ele>164.33</ele>
        <time>2021-07-30T16:14:32Z</time>
      </trkpt>
      <trkpt lat="42.41386" lon="2.94078">
        <ele>164.11</ele>
        <time>2021-07-30T16:14:33Z</time>
      </trkpt>
      <trkpt lat="42.41374" lon="2.94082">
        <ele>163.92</ele>
        <time>2021-07-30T16:14:34Z</time>
      </trkpt>
      <trkpt lat="42.41361" lon="2.94086">
        <ele>163.77</ele>
        <time>2021-07-30T16:14:35Z</time>
      </trkpt>
      <trkpt lat="42.41348" lon="2.9409">
        <ele>163.67</ele>
        <time>2021-07-30T16:14:36Z</time>
      </trkpt>
      <trkpt lat="42.41262" lon="2.9412">
        <ele>162.75</ele>
        <time>2021-07-30T16:14:43Z</time>
      </trkpt>
      <trkpt lat="42.41163" lon="2.94177">
        <ele>160.36</ele>
        <time>2021-07-30T16:14:53Z</time>
      </trkpt>
      <trkpt lat="42.41157" lon="2.94177">
        <ele>160.16</ele>
        <time>2021-07-30T16:14:54Z</time>
      </trkpt>
      <trkpt lat="42.41152" lon="2.94173">
        <ele>159.93</ele>
        <time>2021-07-30T16:14:55Z</time>
      </trkpt>
      <trkpt lat="42.41148" lon="2.94165">
        <ele>159.63</ele>
        <time>2021-07-30T16:14:56Z</time>
      </trkpt>
      <trkpt lat="42.41145" lon="2.94156">
        <ele>159.33</ele>
        <time>2021-07-30T16:14:57Z</time>
      </trkpt>
      <trkpt lat="42.41139" lon="2.94135">
        <ele>158.93</ele>
        <time>2021-07-30T16:14:59Z</time>
      </trkpt>
      <trkpt lat="42.41121" lon="2.94025">
        <ele>158.38</ele>
        <time>2021-07-30T16:15:09Z</time>
      </trkpt>
      <trkpt lat="42.41089" lon="2.93938">
        <ele>158.41</ele>
        <time>2021-07-30T16:15:16Z</time>
      </trkpt>
      <trkpt lat="42.41074" lon="2.93875">
        <ele>158.32</ele>
        <time>2021-07-30T16:15:21Z</time>
      </trkpt>
      <trkpt lat="42.41044" lon="2.93835">
        <ele>157.78</ele>
        <time>2021-07-30T16:15:26Z</time>
      </trkpt>
      <trkpt lat="42.40976" lon="2.9379">
        <ele>156.27</ele>
        <time>2021-07-30T16:15:36Z</time>
      </trkpt>
      <trkpt lat="42.40961" lon="2.93802">
        <ele>155.19</ele>
        <time>2021-07-30T16:15:40Z</time>
      </trkpt>
      <trkpt lat="42.40895" lon="2.93906">
        <ele>155.91</ele>
        <time>2021-07-30T16:15:48Z</time>
      </trkpt>
      <trkpt lat="42.40819" lon="2.93973">
        <ele>156.78</ele>
        <time>2021-07-30T16:15:54Z</time>
      </trkpt>
      <trkpt lat="42.4071" lon="2.94133">
        <ele>156.95</ele>
        <time>2021-07-30T16:16:02Z</time>
      </trkpt>
      <trkpt lat="42.40611" lon="2.9428">
        <ele>157.06</ele>
        <time>2021-07-30T16:16:09Z</time>
      </trkpt>
      <trkpt lat="42.40589" lon="2.94339">
        <ele>156.28</ele>
        <time>2021-07-30T16:16:12Z</time>
      </trkpt>
      <trkpt lat="42.40552" lon="2.94407">
        <ele>154.68</ele>
        <time>2021-07-30T16:16:16Z</time>
      </trkpt>
      <trkpt lat="42.40511" lon="2.94482">
        <ele>153.59</ele>
        <time>2021-07-30T16:16:20Z</time>
      </trkpt>
      <trkpt lat="42.40508" lon="2.9461">
        <ele>152.4</ele>
        <time>2021-07-30T16:16:26Z</time>
      </trkpt>
      <trkpt lat="42.4051" lon="2.94635">
        <ele>152.31</ele>
        <time>2021-07-30T16:16:27Z</time>
      </trkpt>
      <trkpt lat="42.40515" lon="2.94725">
        <ele>152.02</ele>
        <time>2021-07-30T16:16:32Z</time>
      </trkpt>
      <trkpt lat="42.40507" lon="2.94736">
        <ele>151.93</ele>
        <time>2021-07-30T16:16:33Z</time>
      </trkpt>
      <trkpt lat="42.40446" lon="2.94792">
        <ele>151.57</ele>
        <time>2021-07-30T16:16:38Z</time>
      </trkpt>
      <trkpt lat="42.40418" lon="2.94837">
        <ele>151.51</ele>
        <time>2021-07-30T16:16:41Z</time>
      </trkpt>
      <trkpt lat="42.40332" lon="2.9491">
        <ele>151.35</ele>
        <time>2021-07-30T16:16:47Z</time>
      </trkpt>
      <trkpt lat="42.40312" lon="2.94912">
        <ele>151.36</ele>
        <time>2021-07-30T16:16:48Z</time>
      </trkpt>
      <trkpt lat="42.4018" lon="2.94949">
        <ele>152.42</ele>
        <time>2021-07-30T16:16:55Z</time>
      </trkpt>
      <trkpt lat="42.40149" lon="2.94973">
        <ele>152.6</ele>
        <time>2021-07-30T16:16:57Z</time>
      </trkpt>
      <trkpt lat="42.40056" lon="2.95106">
        <ele>153.29</ele>
        <time>2021-07-30T16:17:04Z</time>
      </trkpt>
      <trkpt lat="42.40008" lon="2.9519">
        <ele>154.65</ele>
        <time>2021-07-30T16:17:08Z</time>
      </trkpt>
      <trkpt lat="42.39949" lon="2.95225">
        <ele>155.61</ele>
        <time>2021-07-30T16:17:13Z</time>
      </trkpt>
      <trkpt lat="42.39921" lon="2.9521">
        <ele>155.85</ele>
        <time>2021-07-30T16:17:15Z</time>
      </trkpt>
      <trkpt lat="42.39779" lon="2.9509">
        <ele>156.83</ele>
        <time>2021-07-30T16:17:23Z</time>
      </trkpt>
      <trkpt lat="42.39684" lon="2.9501">
        <ele>155.57</ele>
        <time>2021-07-30T16:17:28Z</time>
      </trkpt>
      <trkpt lat="42.39634" lon="2.94936">
        <ele>154.05</ele>
        <time>2021-07-30T16:17:32Z</time>
      </trkpt>
      <trkpt lat="42.39585" lon="2.94907">
        <ele>153.86</ele>
        <time>2021-07-30T16:17:35Z</time>
      </trkpt>
      <trkpt lat="42.39505" lon="2.94837">
        <ele>155.42</ele>
        <time>2021-07-30T16:17:40Z</time>
      </trkpt>
      <trkpt lat="42.39474" lon="2.94789">
        <ele>156.83</ele>
        <time>2021-07-30T16:17:43Z</time>
      </trkpt>
      <trkpt lat="42.39404" lon="2.94771">
        <ele>157.25</ele>
        <time>2021-07-30T16:17:49Z</time>
      </trkpt>
      <trkpt lat="42.39355" lon="2.94758">
        <ele>156.15</ele>
        <time>2021-07-30T16:17:52Z</time>
      </trkpt>
      <trkpt lat="42.39283" lon="2.94714">
        <ele>153.17</ele>
        <time>2021-07-30T16:17:56Z</time>
      </trkpt>
      <trkpt lat="42.39217" lon="2.94703">
        <ele>149.15</ele>
        <time>2021-07-30T16:18:00Z</time>
      </trkpt>
      <trkpt lat="42.39162" lon="2.94665">
        <ele>144.87</ele>
        <time>2021-07-30T16:18:05Z</time>
      </trkpt>
      <trkpt lat="42.3915" lon="2.94658">
        <ele>144.57</ele>
        <time>2021-07-30T16:18:06Z</time>
      </trkpt>
      <trkpt lat="42.39124" lon="2.94655">
        <ele>144.35</ele>
        <time>2021-07-30T16:18:08Z</time>
      </trkpt>
      <trkpt lat="42.39053" lon="2.94653">
        <ele>144.82</ele>
        <time>2021-07-30T16:18:13Z</time>
      </trkpt>
      <trkpt lat="42.39021" lon="2.94611">
        <ele>144.53</ele>
        <time>2021-07-30T16:18:17Z</time>
      </trkpt>
      <trkpt lat="42.39005" lon="2.94564">
        <ele>144.23</ele>
        <time>2021-07-30T16:18:20Z</time>
      </trkpt>
      <trkpt lat="42.3894" lon="2.94542">
        <ele>142.77</ele>
        <time>2021-07-30T16:18:26Z</time>
      </trkpt>
      <trkpt lat="42.38859" lon="2.94503">
        <ele>139.18</ele>
        <time>2021-07-30T16:18:32Z</time>
      </trkpt>
      <trkpt lat="42.38839" lon="2.94465">
        <ele>137.64</ele>
        <time>2021-07-30T16:18:34Z</time>
      </trkpt>
      <trkpt lat="42.38802" lon="2.94386">
        <ele>135.72</ele>
        <time>2021-07-30T16:18:38Z</time>
      </trkpt>
      <trkpt lat="42.38784" lon="2.9433">
        <ele>135.47</ele>
        <time>2021-07-30T16:18:41Z</time>
      </trkpt>
      <trkpt lat="42.38714" lon="2.94268">
        <ele>134.34</ele>
        <time>2021-07-30T16:18:47Z</time>
      </trkpt>
      <trkpt lat="42.38635" lon="2.94304">
        <ele>131.51</ele>
        <time>2021-07-30T16:18:52Z</time>
      </trkpt>
      <trkpt lat="42.38467" lon="2.94444">
        <ele>129.18</ele>
        <time>2021-07-30T16:19:02Z</time>
      </trkpt>
      <trkpt lat="42.38309" lon="2.94513">
        <ele>128.94</ele>
        <time>2021-07-30T16:19:11Z</time>
      </trkpt>
      <trkpt lat="42.38294" lon="2.9452">
        <ele>128.69</ele>
        <time>2021-07-30T16:19:12Z</time>
      </trkpt>
      <trkpt lat="42.38242" lon="2.94518">
        <ele>127.27</ele>
        <time>2021-07-30T16:19:16Z</time>
      </trkpt>
      <trkpt lat="42.38199" lon="2.94523">
        <ele>125.76</ele>
        <time>2021-07-30T16:19:20Z</time>
      </trkpt>
      <trkpt lat="42.38185" lon="2.94531">
        <ele>124.79</ele>
        <time>2021-07-30T16:19:22Z</time>
      </trkpt>
      <trkpt lat="42.3817" lon="2.94523">
        <ele>122.6</ele>
        <time>2021-07-30T16:19:27Z</time>
      </trkpt>
      <trkpt lat="42.38145" lon="2.94481">
        <ele>119.88</ele>
        <time>2021-07-30T16:19:35Z</time>
      </trkpt>
      <trkpt lat="42.38139" lon="2.9447">
        <ele>119.61</ele>
        <time>2021-07-30T16:19:37Z</time>
      </trkpt>
      <trkpt lat="42.38118" lon="2.94458">
        <ele>119.02</ele>
        <time>2021-07-30T16:19:42Z</time>
      </trkpt>
      <trkpt lat="42.38086" lon="2.94445">
        <ele>119.75</ele>
        <time>2021-07-30T16:19:49Z</time>
      </trkpt>
      <trkpt lat="42.3804" lon="2.94345">
        <ele>120.9</ele>
        <time>2021-07-30T16:20:01Z</time>
      </trkpt>
      <trkpt lat="42.38029" lon="2.94297">
        <ele>120.3</ele>
        <time>2021-07-30T16:20:07Z</time>
      </trkpt>
      <trkpt lat="42.38009" lon="2.94251">
        <ele>119.85</ele>
        <time>2021-07-30T16:20:12Z</time>
      </trkpt>
      <trkpt lat="42.37972" lon="2.94177">
        <ele>120.3</ele>
        <time>2021-07-30T16:20:22Z</time>
      </trkpt>
      <trkpt lat="42.37934" lon="2.94101">
        <ele>119.97</ele>
        <time>2021-07-30T16:20:31Z</time>
      </trkpt>
      <trkpt lat="42.37912" lon="2.94046">
        <ele>117.75</ele>
        <time>2021-07-30T16:20:39Z</time>
      </trkpt>
      <trkpt lat="42.37897" lon="2.94007">
        <ele>114.73</ele>
        <time>2021-07-30T16:20:45Z</time>
      </trkpt>
      <trkpt lat="42.37882" lon="2.93981">
        <ele>112.49</ele>
        <time>2021-07-30T16:20:49Z</time>
      </trkpt>
      <trkpt lat="42.37881" lon="2.93928">
        <ele>108.38</ele>
        <time>2021-07-30T16:20:55Z</time>
      </trkpt>
      <trkpt lat="42.37885" lon="2.93919">
        <ele>107.75</ele>
        <time>2021-07-30T16:20:56Z</time>
      </trkpt>
      <trkpt lat="42.37894" lon="2.9389">
        <ele>105.13</ele>
        <time>2021-07-30T16:21:00Z</time>
      </trkpt>
      <trkpt lat="42.37912" lon="2.9386">
        <ele>101.96</ele>
        <time>2021-07-30T16:21:05Z</time>
      </trkpt>
      <trkpt lat="42.37901" lon="2.93824">
        <ele>98.27</ele>
        <time>2021-07-30T16:21:11Z</time>
      </trkpt>
      <trkpt lat="42.37866" lon="2.93802">
        <ele>96.78</ele>
        <time>2021-07-30T16:21:17Z</time>
      </trkpt>
      <trkpt lat="42.37846" lon="2.93788">
        <ele>97.13</ele>
        <time>2021-07-30T16:21:22Z</time>
      </trkpt>
      <trkpt lat="42.3783" lon="2.93755">
        <ele>97.87</ele>
        <time>2021-07-30T16:21:26Z</time>
      </trkpt>
      <trkpt lat="42.37821" lon="2.9372">
        <ele>98.74</ele>
        <time>2021-07-30T16:21:29Z</time>
      </trkpt>
      <trkpt lat="42.37819" lon="2.93686">
        <ele>101.38</ele>
        <time>2021-07-30T16:21:34Z</time>
      </trkpt>
      <trkpt lat="42.37823" lon="2.93641">
        <ele>105.74</ele>
        <time>2021-07-30T16:21:41Z</time>
      </trkpt>
      <trkpt lat="42.37823" lon="2.93568">
        <ele>109.38</ele>
        <time>2021-07-30T16:21:47Z</time>
      </trkpt>
      <trkpt lat="42.37823" lon="2.93528">
        <ele>110.67</ele>
        <time>2021-07-30T16:21:50Z</time>
      </trkpt>
      <trkpt lat="42.37823" lon="2.93503">
        <ele>110.9</ele>
        <time>2021-07-30T16:21:52Z</time>
      </trkpt>
      <trkpt lat="42.37803" lon="2.9338">
        <ele>109.47</ele>
        <time>2021-07-30T16:22:01Z</time>
      </trkpt>
      <trkpt lat="42.37796" lon="2.93348">
        <ele>108.8</ele>
        <time>2021-07-30T16:22:03Z</time>
      </trkpt>
      <trkpt lat="42.37796" lon="2.93288">
        <ele>107.63</ele>
        <time>2021-07-30T16:22:07Z</time>
      </trkpt>
      <trkpt lat="42.37814" lon="2.93133">
        <ele>108.55</ele>
        <time>2021-07-30T16:22:16Z</time>
      </trkpt>
      <trkpt lat="42.37808" lon="2.93042">
        <ele>111.67</ele>
        <time>2021-07-30T16:22:22Z</time>
      </trkpt>
      <trkpt lat="42.37813" lon="2.92976">
        <ele>115.87</ele>
        <time>2021-07-30T16:22:27Z</time>
      </trkpt>
      <trkpt lat="42.37783" lon="2.9294">
        <ele>120.37</ele>
        <time>2021-07-30T16:22:32Z</time>
      </trkpt>
      <trkpt lat="42.37759" lon="2.92906">
        <ele>123.95</ele>
        <time>2021-07-30T16:22:36Z</time>
      </trkpt>
      <trkpt lat="42.37722" lon="2.9288">
        <ele>128.35</ele>
        <time>2021-07-30T16:22:41Z</time>
      </trkpt>
      <trkpt lat="42.377" lon="2.9285">
        <ele>132.06</ele>
        <time>2021-07-30T16:22:46Z</time>
      </trkpt>
      <trkpt lat="42.37685" lon="2.9279">
        <ele>134.96</ele>
        <time>2021-07-30T16:22:51Z</time>
      </trkpt>
      <trkpt lat="42.37681" lon="2.92773">
        <ele>135.7</ele>
        <time>2021-07-30T16:22:53Z</time>
      </trkpt>
      <trkpt lat="42.37657" lon="2.92696">
        <ele>136.27</ele>
        <time>2021-07-30T16:23:00Z</time>
      </trkpt>
      <trkpt lat="42.37622" lon="2.92596">
        <ele>135.21</ele>
        <time>2021-07-30T16:23:06Z</time>
      </trkpt>
      <trkpt lat="42.37605" lon="2.92542">
        <ele>133.74</ele>
        <time>2021-07-30T16:23:10Z</time>
      </trkpt>
      <trkpt lat="42.37564" lon="2.92467">
        <ele>131.59</ele>
        <time>2021-07-30T16:23:15Z</time>
      </trkpt>
      <trkpt lat="42.37509" lon="2.9238">
        <ele>127.69</ele>
        <time>2021-07-30T16:23:22Z</time>
      </trkpt>
      <trkpt lat="42.37503" lon="2.92364">
        <ele>127.27</ele>
        <time>2021-07-30T16:23:23Z</time>
      </trkpt>
      <trkpt lat="42.37473" lon="2.92283">
        <ele>125.18</ele>
        <time>2021-07-30T16:23:29Z</time>
      </trkpt>
      <trkpt lat="42.37446" lon="2.92252">
        <ele>123.49</ele>
        <time>2021-07-30T16:23:34Z</time>
      </trkpt>
      <trkpt lat="42.37432" lon="2.92246">
        <ele>122.43</ele>
        <time>2021-07-30T16:23:41Z</time>
      </trkpt>
      <trkpt lat="42.37423" lon="2.92263">
        <ele>122.1</ele>
        <time>2021-07-30T16:23:45Z</time>
      </trkpt>
      <trkpt lat="42.37405" lon="2.92326">
        <ele>121.8</ele>
        <time>2021-07-30T16:23:50Z</time>
      </trkpt>
      <trkpt lat="42.37357" lon="2.92428">
        <ele>119.61</ele>
        <time>2021-07-30T16:23:57Z</time>
      </trkpt>
      <trkpt lat="42.37323" lon="2.92428">
        <ele>116.83</ele>
        <time>2021-07-30T16:24:03Z</time>
      </trkpt>
      <trkpt lat="42.37318" lon="2.92418">
        <ele>116.48</ele>
        <time>2021-07-30T16:24:04Z</time>
      </trkpt>
      <trkpt lat="42.37249" lon="2.92302">
        <ele>113.41</ele>
        <time>2021-07-30T16:24:13Z</time>
      </trkpt>
      <trkpt lat="42.37227" lon="2.92264">
        <ele>110.88</ele>
        <time>2021-07-30T16:24:18Z</time>
      </trkpt>
      <trkpt lat="42.37224" lon="2.92256">
        <ele>107.81</ele>
        <time>2021-07-30T16:24:25Z</time>
      </trkpt>
      <trkpt lat="42.37208" lon="2.92231">
        <ele>106.67</ele>
        <time>2021-07-30T16:24:48Z</time>
      </trkpt>
      <trkpt lat="42.37192" lon="2.92205">
        <ele>106.28</ele>
        <time>2021-07-30T16:24:54Z</time>
      </trkpt>
      <trkpt lat="42.37169" lon="2.9221">
        <ele>105.93</ele>
        <time>2021-07-30T16:24:58Z</time>
      </trkpt>
      <trkpt lat="42.37129" lon="2.92232">
        <ele>105.7</ele>
        <time>2021-07-30T16:25:02Z</time>
      </trkpt>
      <trkpt lat="42.371" lon="2.92266">
        <ele>105.61</ele>
        <time>2021-07-30T16:25:05Z</time>
      </trkpt>
      <trkpt lat="42.37035" lon="2.92306">
        <ele>104.79</ele>
        <time>2021-07-30T16:25:11Z</time>
      </trkpt>
      <trkpt lat="42.36981" lon="2.92317">
        <ele>103.56</ele>
        <time>2021-07-30T16:25:16Z</time>
      </trkpt>
      <trkpt lat="42.36899" lon="2.9232">
        <ele>102.76</ele>
        <time>2021-07-30T16:25:22Z</time>
      </trkpt>
      <trkpt lat="42.36857" lon="2.923">
        <ele>102.36</ele>
        <time>2021-07-30T16:25:25Z</time>
      </trkpt>
      <trkpt lat="42.36786" lon="2.92299">
        <ele>101.99</ele>
        <time>2021-07-30T16:25:30Z</time>
      </trkpt>
      <trkpt lat="42.36758" lon="2.923">
        <ele>101.87</ele>
        <time>2021-07-30T16:25:32Z</time>
      </trkpt>
      <trkpt lat="42.36705" lon="2.92325">
        <ele>101.5</ele>
        <time>2021-07-30T16:25:37Z</time>
      </trkpt>
      <trkpt lat="42.36695" lon="2.92334">
        <ele>100.46</ele>
        <time>2021-07-30T16:25:42Z</time>
      </trkpt>
      <trkpt lat="42.36685" lon="2.92342">
        <ele>99.65</ele>
        <time>2021-07-30T16:25:50Z</time>
      </trkpt>
      <trkpt lat="42.36644" lon="2.92359">
        <ele>99.8</ele>
        <time>2021-07-30T16:25:55Z</time>
      </trkpt>
      <trkpt lat="42.36574" lon="2.92364">
        <ele>100.16</ele>
        <time>2021-07-30T16:26:01Z</time>
      </trkpt>
      <trkpt lat="42.36506" lon="2.92384">
        <ele>103.01</ele>
        <time>2021-07-30T16:26:10Z</time>
      </trkpt>
      <trkpt lat="42.36494" lon="2.92392">
        <ele>103.32</ele>
        <time>2021-07-30T16:26:13Z</time>
      </trkpt>
      <trkpt lat="42.36455" lon="2.92386">
        <ele>102.6</ele>
        <time>2021-07-30T16:26:20Z</time>
      </trkpt>
      <trkpt lat="42.36441" lon="2.92396">
        <ele>101.63</ele>
        <time>2021-07-30T16:26:23Z</time>
      </trkpt>
      <trkpt lat="42.36415" lon="2.92426">
        <ele>100.96</ele>
        <time>2021-07-30T16:26:27Z</time>
      </trkpt>
      <trkpt lat="42.36384" lon="2.92445">
        <ele>100.79</ele>
        <time>2021-07-30T16:26:31Z</time>
      </trkpt>
      <trkpt lat="42.36346" lon="2.92459">
        <ele>101.1</ele>
        <time>2021-07-30T16:26:36Z</time>
      </trkpt>
      <trkpt lat="42.36323" lon="2.92459">
        <ele>102.07</ele>
        <time>2021-07-30T16:26:40Z</time>
      </trkpt>
      <trkpt lat="42.36283" lon="2.92454">
        <ele>102.73</ele>
        <time>2021-07-30T16:26:45Z</time>
      </trkpt>
      <trkpt lat="42.3623" lon="2.92414">
        <ele>100.97</ele>
        <time>2021-07-30T16:26:52Z</time>
      </trkpt>
      <trkpt lat="42.36163" lon="2.92358">
        <ele>97.42</ele>
        <time>2021-07-30T16:26:59Z</time>
      </trkpt>
      <trkpt lat="42.36095" lon="2.92328">
        <ele>93.5</ele>
        <time>2021-07-30T16:27:06Z</time>
      </trkpt>
      <trkpt lat="42.36081" lon="2.92315">
        <ele>91.22</ele>
        <time>2021-07-30T16:27:09Z</time>
      </trkpt>
      <trkpt lat="42.36055" lon="2.92299">
        <ele>89.35</ele>
        <time>2021-07-30T16:27:13Z</time>
      </trkpt>
      <trkpt lat="42.36034" lon="2.92242">
        <ele>88.81</ele>
        <time>2021-07-30T16:27:19Z</time>
      </trkpt>
      <trkpt lat="42.36016" lon="2.92197">
        <ele>90.61</ele>
        <time>2021-07-30T16:27:25Z</time>
      </trkpt>
      <trkpt lat="42.35941" lon="2.92106">
        <ele>93.86</ele>
        <time>2021-07-30T16:27:36Z</time>
      </trkpt>
      <trkpt lat="42.35897" lon="2.92058">
        <ele>96.53</ele>
        <time>2021-07-30T16:27:44Z</time>
      </trkpt>
      <trkpt lat="42.35873" lon="2.92026">
        <ele>97.86</ele>
        <time>2021-07-30T16:27:48Z</time>
      </trkpt>
      <trkpt lat="42.35866" lon="2.91992">
        <ele>98.84</ele>
        <time>2021-07-30T16:27:52Z</time>
      </trkpt>
      <trkpt lat="42.35848" lon="2.91965">
        <ele>98.88</ele>
        <time>2021-07-30T16:27:57Z</time>
      </trkpt>
      <trkpt lat="42.35837" lon="2.91956">
        <ele>98.51</ele>
        <time>2021-07-30T16:27:59Z</time>
      </trkpt>
      <trkpt lat="42.35807" lon="2.91948">
        <ele>97.11</ele>
        <time>2021-07-30T16:28:04Z</time>
      </trkpt>
      <trkpt lat="42.35781" lon="2.91923">
        <ele>95.04</ele>
        <time>2021-07-30T16:28:09Z</time>
      </trkpt>
      <trkpt lat="42.35758" lon="2.91886">
        <ele>93.14</ele>
        <time>2021-07-30T16:28:13Z</time>
      </trkpt>
      <trkpt lat="42.35731" lon="2.91853">
        <ele>91.26</ele>
        <time>2021-07-30T16:28:18Z</time>
      </trkpt>
      <trkpt lat="42.35714" lon="2.91814">
        <ele>89.63</ele>
        <time>2021-07-30T16:28:22Z</time>
      </trkpt>
      <trkpt lat="42.35716" lon="2.91779">
        <ele>87.86</ele>
        <time>2021-07-30T16:28:26Z</time>
      </trkpt>
      <trkpt lat="42.357" lon="2.91724">
        <ele>85.99</ele>
        <time>2021-07-30T16:28:32Z</time>
      </trkpt>
      <trkpt lat="42.35677" lon="2.9163">
        <ele>88.57</ele>
        <time>2021-07-30T16:28:43Z</time>
      </trkpt>
      <trkpt lat="42.35674" lon="2.91609">
        <ele>91.21</ele>
        <time>2021-07-30T16:28:47Z</time>
      </trkpt>
      <trkpt lat="42.35678" lon="2.91565">
        <ele>95.43</ele>
        <time>2021-07-30T16:28:53Z</time>
      </trkpt>
      <trkpt lat="42.35691" lon="2.91517">
        <ele>98.79</ele>
        <time>2021-07-30T16:28:57Z</time>
      </trkpt>
      <trkpt lat="42.35698" lon="2.9149">
        <ele>100.16</ele>
        <time>2021-07-30T16:28:59Z</time>
      </trkpt>
      <trkpt lat="42.35687" lon="2.91438">
        <ele>102.47</ele>
        <time>2021-07-30T16:29:04Z</time>
      </trkpt>
      <trkpt lat="42.35668" lon="2.91405">
        <ele>102.97</ele>
        <time>2021-07-30T16:29:08Z</time>
      </trkpt>
      <trkpt lat="42.3563" lon="2.91398">
        <ele>101.72</ele>
        <time>2021-07-30T16:29:15Z</time>
      </trkpt>
      <trkpt lat="42.3562" lon="2.91364">
        <ele>98.86</ele>
        <time>2021-07-30T16:29:21Z</time>
      </trkpt>
      <trkpt lat="42.35621" lon="2.91355">
        <ele>98.28</ele>
        <time>2021-07-30T16:29:22Z</time>
      </trkpt>
      <trkpt lat="42.35624" lon="2.91333">
        <ele>97.21</ele>
        <time>2021-07-30T16:29:24Z</time>
      </trkpt>
      <trkpt lat="42.35629" lon="2.91317">
        <ele>95.66</ele>
        <time>2021-07-30T16:29:26Z</time>
      </trkpt>
      <trkpt lat="42.35605" lon="2.91297">
        <ele>91.89</ele>
        <time>2021-07-30T16:29:32Z</time>
      </trkpt>
      <trkpt lat="42.35596" lon="2.91299">
        <ele>91.38</ele>
        <time>2021-07-30T16:29:33Z</time>
      </trkpt>
      <trkpt lat="42.35568" lon="2.91305">
        <ele>89.46</ele>
        <time>2021-07-30T16:29:36Z</time>
      </trkpt>
      <trkpt lat="42.35541" lon="2.9128">
        <ele>86.16</ele>
        <time>2021-07-30T16:29:41Z</time>
      </trkpt>
      <trkpt lat="42.35525" lon="2.91209">
        <ele>84.09</ele>
        <time>2021-07-30T16:29:50Z</time>
      </trkpt>
      <trkpt lat="42.35526" lon="2.912">
        <ele>84.06</ele>
        <time>2021-07-30T16:29:51Z</time>
      </trkpt>
      <trkpt lat="42.35528" lon="2.91191">
        <ele>84.09</ele>
        <time>2021-07-30T16:29:52Z</time>
      </trkpt>
      <trkpt lat="42.35551" lon="2.91131">
        <ele>85.03</ele>
        <time>2021-07-30T16:29:58Z</time>
      </trkpt>
      <trkpt lat="42.35554" lon="2.91119">
        <ele>85.2</ele>
        <time>2021-07-30T16:29:59Z</time>
      </trkpt>
      <trkpt lat="42.35557" lon="2.91105">
        <ele>85.39</ele>
        <time>2021-07-30T16:30:00Z</time>
      </trkpt>
      <trkpt lat="42.35567" lon="2.90991">
        <ele>86.78</ele>
        <time>2021-07-30T16:30:07Z</time>
      </trkpt>
      <trkpt lat="42.35572" lon="2.9094">
        <ele>90.07</ele>
        <time>2021-07-30T16:30:11Z</time>
      </trkpt>
      <trkpt lat="42.35579" lon="2.90892">
        <ele>93.69</ele>
        <time>2021-07-30T16:30:16Z</time>
      </trkpt>
      <trkpt lat="42.35582" lon="2.90883">
        <ele>94.31</ele>
        <time>2021-07-30T16:30:17Z</time>
      </trkpt>
      <trkpt lat="42.35586" lon="2.90875">
        <ele>94.85</ele>
        <time>2021-07-30T16:30:18Z</time>
      </trkpt>
      <trkpt lat="42.35599" lon="2.90861">
        <ele>95.84</ele>
        <time>2021-07-30T16:30:20Z</time>
      </trkpt>
      <trkpt lat="42.35624" lon="2.90786">
        <ele>98.61</ele>
        <time>2021-07-30T16:30:28Z</time>
      </trkpt>
      <trkpt lat="42.35621" lon="2.90762">
        <ele>98.69</ele>
        <time>2021-07-30T16:30:30Z</time>
      </trkpt>
      <trkpt lat="42.35642" lon="2.90715">
        <ele>97.33</ele>
        <time>2021-07-30T16:30:36Z</time>
      </trkpt>
      <trkpt lat="42.3566" lon="2.90703">
        <ele>96.79</ele>
        <time>2021-07-30T16:30:38Z</time>
      </trkpt>
      <trkpt lat="42.35699" lon="2.90672">
        <ele>94.74</ele>
        <time>2021-07-30T16:30:43Z</time>
      </trkpt>
      <trkpt lat="42.35714" lon="2.90668">
        <ele>94.12</ele>
        <time>2021-07-30T16:30:45Z</time>
      </trkpt>
      <trkpt lat="42.35723" lon="2.90628">
        <ele>92.03</ele>
        <time>2021-07-30T16:30:51Z</time>
      </trkpt>
      <trkpt lat="42.35681" lon="2.90613">
        <ele>88.38</ele>
        <time>2021-07-30T16:30:57Z</time>
      </trkpt>
      <trkpt lat="42.3566" lon="2.906">
        <ele>85.37</ele>
        <time>2021-07-30T16:31:01Z</time>
      </trkpt>
      <trkpt lat="42.35668" lon="2.90572">
        <ele>83.07</ele>
        <time>2021-07-30T16:31:04Z</time>
      </trkpt>
      <trkpt lat="42.35652" lon="2.90543">
        <ele>78</ele>
        <time>2021-07-30T16:31:11Z</time>
      </trkpt>
      <trkpt lat="42.35643" lon="2.90547">
        <ele>77.29</ele>
        <time>2021-07-30T16:31:12Z</time>
      </trkpt>
      <trkpt lat="42.35624" lon="2.90556">
        <ele>76.18</ele>
        <time>2021-07-30T16:31:14Z</time>
      </trkpt>
      <trkpt lat="42.35592" lon="2.90541">
        <ele>73.52</ele>
        <time>2021-07-30T16:31:19Z</time>
      </trkpt>
      <trkpt lat="42.35587" lon="2.9053">
        <ele>69.71</ele>
        <time>2021-07-30T16:31:25Z</time>
      </trkpt>
      <trkpt lat="42.35585" lon="2.90521">
        <ele>68.87</ele>
        <time>2021-07-30T16:31:27Z</time>
      </trkpt>
      <trkpt lat="42.35602" lon="2.9045">
        <ele>66.97</ele>
        <time>2021-07-30T16:31:34Z</time>
      </trkpt>
      <trkpt lat="42.35613" lon="2.9043">
        <ele>65.69</ele>
        <time>2021-07-30T16:31:42Z</time>
      </trkpt>
      <trkpt lat="42.35613" lon="2.90429">
        <ele>65.14</ele>
        <time>2021-07-30T16:31:52Z</time>
      </trkpt>
      <trkpt lat="42.35617" lon="2.90419">
        <ele>64.89</ele>
        <time>2021-07-30T16:32:05Z</time>
      </trkpt>
      <trkpt lat="42.35617" lon="2.90419">
        <ele>64.72</ele>
        <time>2021-07-30T16:32:10Z</time>
      </trkpt>
      <trkpt lat="42.35588" lon="2.90418">
        <ele>64.99</ele>
        <time>2021-07-30T16:32:16Z</time>
      </trkpt>
      <trkpt lat="42.35484" lon="2.90462">
        <ele>66.39</ele>
        <time>2021-07-30T16:32:23Z</time>
      </trkpt>
      <trkpt lat="42.35279" lon="2.90515">
        <ele>65.58</ele>
        <time>2021-07-30T16:32:33Z</time>
      </trkpt>
      <trkpt lat="42.35141" lon="2.90586">
        <ele>64.79</ele>
        <time>2021-07-30T16:32:40Z</time>
      </trkpt>
      <trkpt lat="42.351" lon="2.90631">
        <ele>62.61</ele>
        <time>2021-07-30T16:32:44Z</time>
      </trkpt>
      <trkpt lat="42.35066" lon="2.90613">
        <ele>58.61</ele>
        <time>2021-07-30T16:32:50Z</time>
      </trkpt>
      <trkpt lat="42.3509" lon="2.90573">
        <ele>57.62</ele>
        <time>2021-07-30T16:32:54Z</time>
      </trkpt>
      <trkpt lat="42.35109" lon="2.90559">
        <ele>57.48</ele>
        <time>2021-07-30T16:32:56Z</time>
      </trkpt>
      <trkpt lat="42.35191" lon="2.90501">
        <ele>57.99</ele>
        <time>2021-07-30T16:33:02Z</time>
      </trkpt>
      <trkpt lat="42.35289" lon="2.9037">
        <ele>59.9</ele>
        <time>2021-07-30T16:33:09Z</time>
      </trkpt>
      <trkpt lat="42.35343" lon="2.90292">
        <ele>62.09</ele>
        <time>2021-07-30T16:33:13Z</time>
      </trkpt>
      <trkpt lat="42.35396" lon="2.90199">
        <ele>64.38</ele>
        <time>2021-07-30T16:33:18Z</time>
      </trkpt>
      <trkpt lat="42.3542" lon="2.9017">
        <ele>64.63</ele>
        <time>2021-07-30T16:33:20Z</time>
      </trkpt>
      <trkpt lat="42.35481" lon="2.90142">
        <ele>64.83</ele>
        <time>2021-07-30T16:33:24Z</time>
      </trkpt>
      <trkpt lat="42.35557" lon="2.90093">
        <ele>65.13</ele>
        <time>2021-07-30T16:33:29Z</time>
      </trkpt>
      <trkpt lat="42.3569" lon="2.89934">
        <ele>68.32</ele>
        <time>2021-07-30T16:33:38Z</time>
      </trkpt>
      <trkpt lat="42.35777" lon="2.89833">
        <ele>71.36</ele>
        <time>2021-07-30T16:33:44Z</time>
      </trkpt>
      <trkpt lat="42.35787" lon="2.89815">
        <ele>71.82</ele>
        <time>2021-07-30T16:33:45Z</time>
      </trkpt>
      <trkpt lat="42.35795" lon="2.89796">
        <ele>72.34</ele>
        <time>2021-07-30T16:33:46Z</time>
      </trkpt>
      <trkpt lat="42.35801" lon="2.89775">
        <ele>72.79</ele>
        <time>2021-07-30T16:33:47Z</time>
      </trkpt>
      <trkpt lat="42.35831" lon="2.89624">
        <ele>76.39</ele>
        <time>2021-07-30T16:33:53Z</time>
      </trkpt>
      <trkpt lat="42.35851" lon="2.89513">
        <ele>79.98</ele>
        <time>2021-07-30T16:33:57Z</time>
      </trkpt>
      <trkpt lat="42.35879" lon="2.89375">
        <ele>83.14</ele>
        <time>2021-07-30T16:34:02Z</time>
      </trkpt>
      <trkpt lat="42.35907" lon="2.89235">
        <ele>86.49</ele>
        <time>2021-07-30T16:34:07Z</time>
      </trkpt>
      <trkpt lat="42.35935" lon="2.89094">
        <ele>89.68</ele>
        <time>2021-07-30T16:34:12Z</time>
      </trkpt>
      <trkpt lat="42.35964" lon="2.88951">
        <ele>93.35</ele>
        <time>2021-07-30T16:34:17Z</time>
      </trkpt>
      <trkpt lat="42.35999" lon="2.88779">
        <ele>96.62</ele>
        <time>2021-07-30T16:34:23Z</time>
      </trkpt>
      <trkpt lat="42.36051" lon="2.88535">
        <ele>98.55</ele>
        <time>2021-07-30T16:34:32Z</time>
      </trkpt>
      <trkpt lat="42.36107" lon="2.88429">
        <ele>98.41</ele>
        <time>2021-07-30T16:34:38Z</time>
      </trkpt>
      <trkpt lat="42.36112" lon="2.88406">
        <ele>98.4</ele>
        <time>2021-07-30T16:34:39Z</time>
      </trkpt>
      <trkpt lat="42.36144" lon="2.88219">
        <ele>102.12</ele>
        <time>2021-07-30T16:34:47Z</time>
      </trkpt>
      <trkpt lat="42.36154" lon="2.88121">
        <ele>105.73</ele>
        <time>2021-07-30T16:34:51Z</time>
      </trkpt>
      <trkpt lat="42.36165" lon="2.88026">
        <ele>109.71</ele>
        <time>2021-07-30T16:34:55Z</time>
      </trkpt>
      <trkpt lat="42.36168" lon="2.87982">
        <ele>111.94</ele>
        <time>2021-07-30T16:34:57Z</time>
      </trkpt>
      <trkpt lat="42.36156" lon="2.87888">
        <ele>116.61</ele>
        <time>2021-07-30T16:35:01Z</time>
      </trkpt>
      <trkpt lat="42.36142" lon="2.87816">
        <ele>120.13</ele>
        <time>2021-07-30T16:35:04Z</time>
      </trkpt>
      <trkpt lat="42.3613" lon="2.87749">
        <ele>123.4</ele>
        <time>2021-07-30T16:35:07Z</time>
      </trkpt>
      <trkpt lat="42.36117" lon="2.87684">
        <ele>126.73</ele>
        <time>2021-07-30T16:35:10Z</time>
      </trkpt>
      <trkpt lat="42.36101" lon="2.87597">
        <ele>130.63</ele>
        <time>2021-07-30T16:35:14Z</time>
      </trkpt>
      <trkpt lat="42.36087" lon="2.87524">
        <ele>133.66</ele>
        <time>2021-07-30T16:35:17Z</time>
      </trkpt>
      <trkpt lat="42.3608" lon="2.87426">
        <ele>137.5</ele>
        <time>2021-07-30T16:35:21Z</time>
      </trkpt>
      <trkpt lat="42.3608" lon="2.87384">
        <ele>139.37</ele>
        <time>2021-07-30T16:35:23Z</time>
      </trkpt>
      <trkpt lat="42.36105" lon="2.87312">
        <ele>141.95</ele>
        <time>2021-07-30T16:35:27Z</time>
      </trkpt>
      <trkpt lat="42.3614" lon="2.87255">
        <ele>142.52</ele>
        <time>2021-07-30T16:35:30Z</time>
      </trkpt>
      <trkpt lat="42.36165" lon="2.87137">
        <ele>142.26</ele>
        <time>2021-07-30T16:35:35Z</time>
      </trkpt>
      <trkpt lat="42.3616" lon="2.87109">
        <ele>141.95</ele>
        <time>2021-07-30T16:35:36Z</time>
      </trkpt>
      <trkpt lat="42.36125" lon="2.86945">
        <ele>141.33</ele>
        <time>2021-07-30T16:35:42Z</time>
      </trkpt>
      <trkpt lat="42.3615" lon="2.86792">
        <ele>141.21</ele>
        <time>2021-07-30T16:35:48Z</time>
      </trkpt>
      <trkpt lat="42.36183" lon="2.86729">
        <ele>141.54</ele>
        <time>2021-07-30T16:35:51Z</time>
      </trkpt>
      <trkpt lat="42.36244" lon="2.86667">
        <ele>142.23</ele>
        <time>2021-07-30T16:35:55Z</time>
      </trkpt>
      <trkpt lat="42.3631" lon="2.86548">
        <ele>143.39</ele>
        <time>2021-07-30T16:36:01Z</time>
      </trkpt>
      <trkpt lat="42.36315" lon="2.86492">
        <ele>143.8</ele>
        <time>2021-07-30T16:36:03Z</time>
      </trkpt>
      <trkpt lat="42.36328" lon="2.86355">
        <ele>143.99</ele>
        <time>2021-07-30T16:36:08Z</time>
      </trkpt>
      <trkpt lat="42.36356" lon="2.86259">
        <ele>142.84</ele>
        <time>2021-07-30T16:36:12Z</time>
      </trkpt>
      <trkpt lat="42.36363" lon="2.86104">
        <ele>138.93</ele>
        <time>2021-07-30T16:36:18Z</time>
      </trkpt>
      <trkpt lat="42.36374" lon="2.85988">
        <ele>135.74</ele>
        <time>2021-07-30T16:36:22Z</time>
      </trkpt>
      <trkpt lat="42.36378" lon="2.85866">
        <ele>131.96</ele>
        <time>2021-07-30T16:36:26Z</time>
      </trkpt>
      <trkpt lat="42.36371" lon="2.85776">
        <ele>128.59</ele>
        <time>2021-07-30T16:36:29Z</time>
      </trkpt>
      <trkpt lat="42.36366" lon="2.85723">
        <ele>126.41</ele>
        <time>2021-07-30T16:36:31Z</time>
      </trkpt>
      <trkpt lat="42.3639" lon="2.85628">
        <ele>122.91</ele>
        <time>2021-07-30T16:36:35Z</time>
      </trkpt>
      <trkpt lat="42.36422" lon="2.85488">
        <ele>122.09</ele>
        <time>2021-07-30T16:36:41Z</time>
      </trkpt>
      <trkpt lat="42.36372" lon="2.85392">
        <ele>121.86</ele>
        <time>2021-07-30T16:36:46Z</time>
      </trkpt>
      <trkpt lat="42.36355" lon="2.85381">
        <ele>121.81</ele>
        <time>2021-07-30T16:36:47Z</time>
      </trkpt>
      <trkpt lat="42.36325" lon="2.85359">
        <ele>121.69</ele>
        <time>2021-07-30T16:36:49Z</time>
      </trkpt>
      <trkpt lat="42.36289" lon="2.85281">
        <ele>121.34</ele>
        <time>2021-07-30T16:36:53Z</time>
      </trkpt>
      <trkpt lat="42.36258" lon="2.8507">
        <ele>122.96</ele>
        <time>2021-07-30T16:37:02Z</time>
      </trkpt>
      <trkpt lat="42.36262" lon="2.85005">
        <ele>123.69</ele>
        <time>2021-07-30T16:37:05Z</time>
      </trkpt>
      <trkpt lat="42.36247" lon="2.8485">
        <ele>125.64</ele>
        <time>2021-07-30T16:37:12Z</time>
      </trkpt>
      <trkpt lat="42.36228" lon="2.84729">
        <ele>129.18</ele>
        <time>2021-07-30T16:37:17Z</time>
      </trkpt>
      <trkpt lat="42.36219" lon="2.8466">
        <ele>131.05</ele>
        <time>2021-07-30T16:37:20Z</time>
      </trkpt>
      <trkpt lat="42.36241" lon="2.84575">
        <ele>133.41</ele>
        <time>2021-07-30T16:37:24Z</time>
      </trkpt>
      <trkpt lat="42.36294" lon="2.84477">
        <ele>137.13</ele>
        <time>2021-07-30T16:37:29Z</time>
      </trkpt>
      <trkpt lat="42.36322" lon="2.84425">
        <ele>139.67</ele>
        <time>2021-07-30T16:37:32Z</time>
      </trkpt>
      <trkpt lat="42.36332" lon="2.84321">
        <ele>143.59</ele>
        <time>2021-07-30T16:37:37Z</time>
      </trkpt>
      <trkpt lat="42.36332" lon="2.8428">
        <ele>145.21</ele>
        <time>2021-07-30T16:37:39Z</time>
      </trkpt>
      <trkpt lat="42.36303" lon="2.84199">
        <ele>149.11</ele>
        <time>2021-07-30T16:37:44Z</time>
      </trkpt>
      <trkpt lat="42.36311" lon="2.84133">
        <ele>151.53</ele>
        <time>2021-07-30T16:37:48Z</time>
      </trkpt>
      <trkpt lat="42.3637" lon="2.84099">
        <ele>154.83</ele>
        <time>2021-07-30T16:37:53Z</time>
      </trkpt>
      <trkpt lat="42.36443" lon="2.841">
        <ele>158.83</ele>
        <time>2021-07-30T16:37:58Z</time>
      </trkpt>
      <trkpt lat="42.36456" lon="2.841">
        <ele>159.69</ele>
        <time>2021-07-30T16:37:59Z</time>
      </trkpt>
      <trkpt lat="42.36491" lon="2.84056">
        <ele>163.8</ele>
        <time>2021-07-30T16:38:04Z</time>
      </trkpt>
      <trkpt lat="42.36482" lon="2.84007">
        <ele>177.6</ele>
      </trkpt>
      <trkpt lat="42.36482" lon="2.84007">
        <ele>177.6</ele>
      </trkpt>
      <trkpt lat="42.36501" lon="2.83973">
        <ele>178.9</ele>
      </trkpt>
      <trkpt lat="42.36501" lon="2.83973">
        <ele>178.9</ele>
      </trkpt>
      <trkpt lat="42.36504" lon="2.83899">
        <ele>183.2</ele>
      </trkpt>
      <trkpt lat="42.36504" lon="2.83899">
        <ele>183.2</ele>
      </trkpt>
      <trkpt lat="42.36619" lon="2.83619">
        <ele>191</ele>
      </trkpt>
      <trkpt lat="42.36619" lon="2.83619">
        <ele>191</ele>
      </trkpt>
      <trkpt lat="42.36607" lon="2.8348">
        <ele>195.6</ele>
      </trkpt>
      <trkpt lat="42.36598" lon="2.83421">
        <ele>198.5</ele>
      </trkpt>
      <trkpt lat="42.36598" lon="2.83421">
        <ele>198.5</ele>
      </trkpt>
      <trkpt lat="42.36598" lon="2.83377">
        <ele>199.8</ele>
      </trkpt>
      <trkpt lat="42.36598" lon="2.83377">
        <ele>199.8</ele>
      </trkpt>
      <trkpt lat="42.36629" lon="2.83212">
        <ele>197.8</ele>
      </trkpt>
      <trkpt lat="42.36629" lon="2.83212">
        <ele>197.8</ele>
      </trkpt>
      <trkpt lat="42.36503" lon="2.83189">
        <ele>197.68</ele>
        <time>2021-07-30T16:53:06Z</time>
      </trkpt>
      <trkpt lat="42.3642" lon="2.83176">
        <ele>200.01</ele>
        <time>2021-07-30T16:53:12Z</time>
      </trkpt>
      <trkpt lat="42.36377" lon="2.83156">
        <ele>202.11</ele>
        <time>2021-07-30T16:53:15Z</time>
      </trkpt>
      <trkpt lat="42.36304" lon="2.83136">
        <ele>206.6</ele>
        <time>2021-07-30T16:53:20Z</time>
      </trkpt>
      <trkpt lat="42.36258" lon="2.83124">
        <ele>210.09</ele>
        <time>2021-07-30T16:53:23Z</time>
      </trkpt>
      <trkpt lat="42.36191" lon="2.83131">
        <ele>215.21</ele>
        <time>2021-07-30T16:53:27Z</time>
      </trkpt>
      <trkpt lat="42.36142" lon="2.83124">
        <ele>220.21</ele>
        <time>2021-07-30T16:53:31Z</time>
      </trkpt>
      <trkpt lat="42.36133" lon="2.8312">
        <ele>221.28</ele>
        <time>2021-07-30T16:53:32Z</time>
      </trkpt>
      <trkpt lat="42.36103" lon="2.83113">
        <ele>224.17</ele>
        <time>2021-07-30T16:53:35Z</time>
      </trkpt>
      <trkpt lat="42.36007" lon="2.83039">
        <ele>223.86</ele>
        <time>2021-07-30T16:53:44Z</time>
      </trkpt>
      <trkpt lat="42.35964" lon="2.82988">
        <ele>220.22</ele>
        <time>2021-07-30T16:53:48Z</time>
      </trkpt>
      <trkpt lat="42.3593" lon="2.82959">
        <ele>216.33</ele>
        <time>2021-07-30T16:53:51Z</time>
      </trkpt>
      <trkpt lat="42.35895" lon="2.82929">
        <ele>214.4</ele>
        <time>2021-07-30T16:53:55Z</time>
      </trkpt>
      <trkpt lat="42.35875" lon="2.82873">
        <ele>213.71</ele>
        <time>2021-07-30T16:54:00Z</time>
      </trkpt>
      <trkpt lat="42.35853" lon="2.8281">
        <ele>211.98</ele>
        <time>2021-07-30T16:54:05Z</time>
      </trkpt>
      <trkpt lat="42.3582" lon="2.82753">
        <ele>207.99</ele>
        <time>2021-07-30T16:54:11Z</time>
      </trkpt>
      <trkpt lat="42.35813" lon="2.82693">
        <ele>204.15</ele>
        <time>2021-07-30T16:54:16Z</time>
      </trkpt>
      <trkpt lat="42.35814" lon="2.826">
        <ele>199.66</ele>
        <time>2021-07-30T16:54:22Z</time>
      </trkpt>
      <trkpt lat="42.35807" lon="2.82556">
        <ele>197.53</ele>
        <time>2021-07-30T16:54:25Z</time>
      </trkpt>
      <trkpt lat="42.35809" lon="2.82496">
        <ele>194.94</ele>
        <time>2021-07-30T16:54:29Z</time>
      </trkpt>
      <trkpt lat="42.35797" lon="2.82449">
        <ele>193.17</ele>
        <time>2021-07-30T16:54:33Z</time>
      </trkpt>
      <trkpt lat="42.35785" lon="2.82415">
        <ele>191.99</ele>
        <time>2021-07-30T16:54:36Z</time>
      </trkpt>
      <trkpt lat="42.35794" lon="2.82344">
        <ele>188.42</ele>
        <time>2021-07-30T16:54:42Z</time>
      </trkpt>
      <trkpt lat="42.35775" lon="2.82329">
        <ele>185.95</ele>
        <time>2021-07-30T16:54:46Z</time>
      </trkpt>
      <trkpt lat="42.35736" lon="2.82269">
        <ele>182.95</ele>
        <time>2021-07-30T16:54:54Z</time>
      </trkpt>
      <trkpt lat="42.35735" lon="2.82239">
        <ele>182.29</ele>
        <time>2021-07-30T16:54:56Z</time>
      </trkpt>
      <trkpt lat="42.35695" lon="2.82154">
        <ele>180.6</ele>
        <time>2021-07-30T16:55:04Z</time>
      </trkpt>
      <trkpt lat="42.35677" lon="2.82108">
        <ele>179.49</ele>
        <time>2021-07-30T16:55:09Z</time>
      </trkpt>
      <trkpt lat="42.35658" lon="2.82003">
        <ele>178.79</ele>
        <time>2021-07-30T16:55:16Z</time>
      </trkpt>
      <trkpt lat="42.35649" lon="2.81918">
        <ele>176.48</ele>
        <time>2021-07-30T16:55:22Z</time>
      </trkpt>
      <trkpt lat="42.35687" lon="2.8187">
        <ele>172.2</ele>
        <time>2021-07-30T16:55:29Z</time>
      </trkpt>
      <trkpt lat="42.35729" lon="2.81847">
        <ele>170.52</ele>
        <time>2021-07-30T16:55:33Z</time>
      </trkpt>
      <trkpt lat="42.35757" lon="2.81798">
        <ele>168.85</ele>
        <time>2021-07-30T16:55:37Z</time>
      </trkpt>
      <trkpt lat="42.35807" lon="2.81726">
        <ele>165.02</ele>
        <time>2021-07-30T16:55:44Z</time>
      </trkpt>
      <trkpt lat="42.35814" lon="2.81717">
        <ele>164.51</ele>
        <time>2021-07-30T16:55:45Z</time>
      </trkpt>
      <trkpt lat="42.35864" lon="2.81724">
        <ele>161.05</ele>
        <time>2021-07-30T16:55:51Z</time>
      </trkpt>
      <trkpt lat="42.3593" lon="2.81758">
        <ele>160.35</ele>
        <time>2021-07-30T16:55:58Z</time>
      </trkpt>
      <trkpt lat="42.35987" lon="2.81698">
        <ele>160.78</ele>
        <time>2021-07-30T16:56:05Z</time>
      </trkpt>
      <trkpt lat="42.36009" lon="2.81636">
        <ele>161.09</ele>
        <time>2021-07-30T16:56:09Z</time>
      </trkpt>
      <trkpt lat="42.36054" lon="2.81609">
        <ele>160.6</ele>
        <time>2021-07-30T16:56:15Z</time>
      </trkpt>
      <trkpt lat="42.36069" lon="2.81586">
        <ele>160.56</ele>
        <time>2021-07-30T16:56:19Z</time>
      </trkpt>
      <trkpt lat="42.3609" lon="2.81521">
        <ele>160.66</ele>
        <time>2021-07-30T16:56:24Z</time>
      </trkpt>
      <trkpt lat="42.36129" lon="2.81466">
        <ele>161.15</ele>
        <time>2021-07-30T16:56:28Z</time>
      </trkpt>
      <trkpt lat="42.36157" lon="2.81444">
        <ele>161.46</ele>
        <time>2021-07-30T16:56:31Z</time>
      </trkpt>
      <trkpt lat="42.3616" lon="2.81365">
        <ele>163.04</ele>
        <time>2021-07-30T16:56:37Z</time>
      </trkpt>
      <trkpt lat="42.36154" lon="2.81334">
        <ele>163.16</ele>
        <time>2021-07-30T16:56:39Z</time>
      </trkpt>
      <trkpt lat="42.36156" lon="2.81262">
        <ele>162.77</ele>
        <time>2021-07-30T16:56:43Z</time>
      </trkpt>
      <trkpt lat="42.36184" lon="2.81139">
        <ele>162.48</ele>
        <time>2021-07-30T16:56:52Z</time>
      </trkpt>
      <trkpt lat="42.3619" lon="2.81115">
        <ele>161.66</ele>
        <time>2021-07-30T16:56:58Z</time>
      </trkpt>
      <trkpt lat="42.36197" lon="2.81092">
        <ele>161.33</ele>
        <time>2021-07-30T16:57:01Z</time>
      </trkpt>
      <trkpt lat="42.36247" lon="2.80999">
        <ele>162.93</ele>
        <time>2021-07-30T16:57:09Z</time>
      </trkpt>
      <trkpt lat="42.36253" lon="2.80982">
        <ele>163.33</ele>
        <time>2021-07-30T16:57:10Z</time>
      </trkpt>
      <trkpt lat="42.3626" lon="2.80911">
        <ele>165.65</ele>
        <time>2021-07-30T16:57:14Z</time>
      </trkpt>
      <trkpt lat="42.36285" lon="2.80821">
        <ele>169.89</ele>
        <time>2021-07-30T16:57:20Z</time>
      </trkpt>
      <trkpt lat="42.36331" lon="2.80777">
        <ele>173.17</ele>
        <time>2021-07-30T16:57:25Z</time>
      </trkpt>
      <trkpt lat="42.36377" lon="2.8073">
        <ele>175.79</ele>
        <time>2021-07-30T16:57:30Z</time>
      </trkpt>
      <trkpt lat="42.36443" lon="2.80583">
        <ele>179.54</ele>
        <time>2021-07-30T16:57:39Z</time>
      </trkpt>
      <trkpt lat="42.36473" lon="2.80494">
        <ele>181.02</ele>
        <time>2021-07-30T16:57:44Z</time>
      </trkpt>
      <trkpt lat="42.36492" lon="2.80452">
        <ele>182.75</ele>
        <time>2021-07-30T16:57:47Z</time>
      </trkpt>
      <trkpt lat="42.36501" lon="2.80406">
        <ele>184.75</ele>
        <time>2021-07-30T16:57:50Z</time>
      </trkpt>
      <trkpt lat="42.36545" lon="2.80334">
        <ele>188.59</ele>
        <time>2021-07-30T16:57:57Z</time>
      </trkpt>
      <trkpt lat="42.36553" lon="2.80307">
        <ele>189.45</ele>
        <time>2021-07-30T16:57:59Z</time>
      </trkpt>
      <trkpt lat="42.36567" lon="2.80261">
        <ele>190.15</ele>
        <time>2021-07-30T16:58:02Z</time>
      </trkpt>
      <trkpt lat="42.36574" lon="2.80179">
        <ele>189.9</ele>
        <time>2021-07-30T16:58:07Z</time>
      </trkpt>
      <trkpt lat="42.36625" lon="2.80106">
        <ele>187.55</ele>
        <time>2021-07-30T16:58:14Z</time>
      </trkpt>
      <trkpt lat="42.36701" lon="2.80048">
        <ele>183.76</ele>
        <time>2021-07-30T16:58:21Z</time>
      </trkpt>
      <trkpt lat="42.36722" lon="2.80031">
        <ele>182.48</ele>
        <time>2021-07-30T16:58:23Z</time>
      </trkpt>
      <trkpt lat="42.36788" lon="2.79969">
        <ele>178.56</ele>
        <time>2021-07-30T16:58:30Z</time>
      </trkpt>
      <trkpt lat="42.3683" lon="2.79962">
        <ele>174.61</ele>
        <time>2021-07-30T16:58:36Z</time>
      </trkpt>
      <trkpt lat="42.36861" lon="2.7994">
        <ele>172.57</ele>
        <time>2021-07-30T16:58:40Z</time>
      </trkpt>
      <trkpt lat="42.36948" lon="2.79903">
        <ele>169.46</ele>
        <time>2021-07-30T16:58:48Z</time>
      </trkpt>
      <trkpt lat="42.36971" lon="2.79881">
        <ele>168.36</ele>
        <time>2021-07-30T16:58:52Z</time>
      </trkpt>
      <trkpt lat="42.36998" lon="2.79846">
        <ele>168.42</ele>
        <time>2021-07-30T16:58:58Z</time>
      </trkpt>
      <trkpt lat="42.37017" lon="2.79831">
        <ele>169.17</ele>
        <time>2021-07-30T16:59:01Z</time>
      </trkpt>
      <trkpt lat="42.37076" lon="2.79754">
        <ele>169.81</ele>
        <time>2021-07-30T16:59:09Z</time>
      </trkpt>
      <trkpt lat="42.37106" lon="2.79689">
        <ele>169.55</ele>
        <time>2021-07-30T16:59:14Z</time>
      </trkpt>
      <trkpt lat="42.37135" lon="2.79641">
        <ele>168.9</ele>
        <time>2021-07-30T16:59:18Z</time>
      </trkpt>
      <trkpt lat="42.37154" lon="2.79571">
        <ele>166.27</ele>
        <time>2021-07-30T16:59:23Z</time>
      </trkpt>
      <trkpt lat="42.37212" lon="2.79517">
        <ele>164.09</ele>
        <time>2021-07-30T16:59:30Z</time>
      </trkpt>
      <trkpt lat="42.37235" lon="2.79471">
        <ele>161.31</ele>
        <time>2021-07-30T16:59:38Z</time>
      </trkpt>
      <trkpt lat="42.37191" lon="2.79458">
        <ele>160.33</ele>
        <time>2021-07-30T16:59:43Z</time>
      </trkpt>
      <trkpt lat="42.37136" lon="2.79461">
        <ele>160.58</ele>
        <time>2021-07-30T16:59:47Z</time>
      </trkpt>
      <trkpt lat="42.37087" lon="2.79481">
        <ele>161.46</ele>
        <time>2021-07-30T16:59:51Z</time>
      </trkpt>
      <trkpt lat="42.37059" lon="2.79432">
        <ele>162.2</ele>
        <time>2021-07-30T16:59:57Z</time>
      </trkpt>
      <trkpt lat="42.37049" lon="2.79371">
        <ele>162.32</ele>
        <time>2021-07-30T17:00:01Z</time>
      </trkpt>
      <trkpt lat="42.37035" lon="2.79335">
        <ele>162.29</ele>
        <time>2021-07-30T17:00:05Z</time>
      </trkpt>
      <trkpt lat="42.37009" lon="2.79297">
        <ele>161.81</ele>
        <time>2021-07-30T17:00:14Z</time>
      </trkpt>
      <trkpt lat="42.36992" lon="2.79315">
        <ele>161.05</ele>
        <time>2021-07-30T17:00:20Z</time>
      </trkpt>
      <trkpt lat="42.36986" lon="2.7933">
        <ele>160.02</ele>
        <time>2021-07-30T17:00:32Z</time>
      </trkpt>
      <trkpt lat="42.36974" lon="2.7936">
        <ele>159.82</ele>
        <time>2021-07-30T17:00:40Z</time>
      </trkpt>
      <trkpt lat="42.36987" lon="2.79403">
        <ele>160.18</ele>
        <time>2021-07-30T17:00:48Z</time>
      </trkpt>
      <trkpt lat="42.36991" lon="2.79415">
        <ele>160.52</ele>
        <time>2021-07-30T17:00:50Z</time>
      </trkpt>
      <trkpt lat="42.36994" lon="2.79439">
        <ele>161.42</ele>
        <time>2021-07-30T17:00:53Z</time>
      </trkpt>
      <trkpt lat="42.36991" lon="2.79473">
        <ele>162.67</ele>
        <time>2021-07-30T17:00:57Z</time>
      </trkpt>
      <trkpt lat="42.36989" lon="2.79521">
        <ele>164.34</ele>
        <time>2021-07-30T17:01:03Z</time>
      </trkpt>
      <trkpt lat="42.36978" lon="2.79568">
        <ele>165.85</ele>
        <time>2021-07-30T17:01:08Z</time>
      </trkpt>
      <trkpt lat="42.3695" lon="2.79614">
        <ele>167.27</ele>
        <time>2021-07-30T17:01:14Z</time>
      </trkpt>
      <trkpt lat="42.36918" lon="2.79679">
        <ele>169.82</ele>
        <time>2021-07-30T17:01:23Z</time>
      </trkpt>
      <trkpt lat="42.36876" lon="2.79688">
        <ele>169.96</ele>
        <time>2021-07-30T17:01:29Z</time>
      </trkpt>
      <trkpt lat="42.36848" lon="2.79695">
        <ele>169.5</ele>
        <time>2021-07-30T17:01:34Z</time>
      </trkpt>
      <trkpt lat="42.36809" lon="2.79712">
        <ele>169.35</ele>
        <time>2021-07-30T17:01:45Z</time>
      </trkpt>
      <trkpt lat="42.36798" lon="2.7972">
        <ele>170.56</ele>
        <time>2021-07-30T17:01:49Z</time>
      </trkpt>
      <trkpt lat="42.36769" lon="2.79734">
        <ele>173.52</ele>
        <time>2021-07-30T17:01:56Z</time>
      </trkpt>
      <trkpt lat="42.36752" lon="2.79738">
        <ele>174.59</ele>
        <time>2021-07-30T17:01:59Z</time>
      </trkpt>
      <trkpt lat="42.3672" lon="2.79738">
        <ele>176.08</ele>
        <time>2021-07-30T17:02:04Z</time>
      </trkpt>
      <trkpt lat="42.36703" lon="2.79706">
        <ele>178.2</ele>
        <time>2021-07-30T17:02:12Z</time>
      </trkpt>
      <trkpt lat="42.36722" lon="2.79688">
        <ele>181.16</ele>
        <time>2021-07-30T17:02:18Z</time>
      </trkpt>
      <trkpt lat="42.36732" lon="2.79684">
        <ele>183.05</ele>
        <time>2021-07-30T17:02:21Z</time>
      </trkpt>
      <trkpt lat="42.36728" lon="2.7966">
        <ele>185.93</ele>
        <time>2021-07-30T17:02:26Z</time>
      </trkpt>
      <trkpt lat="42.36748" lon="2.79642">
        <ele>190.05</ele>
        <time>2021-07-30T17:02:33Z</time>
      </trkpt>
      <trkpt lat="42.36777" lon="2.79627">
        <ele>193.21</ele>
        <time>2021-07-30T17:02:38Z</time>
      </trkpt>
      <trkpt lat="42.36796" lon="2.79602">
        <ele>195.55</ele>
        <time>2021-07-30T17:02:42Z</time>
      </trkpt>
      <trkpt lat="42.36804" lon="2.79586">
        <ele>196.74</ele>
        <time>2021-07-30T17:02:44Z</time>
      </trkpt>
      <trkpt lat="42.36808" lon="2.79554">
        <ele>198.56</ele>
        <time>2021-07-30T17:02:48Z</time>
      </trkpt>
      <trkpt lat="42.36807" lon="2.79502">
        <ele>202.41</ele>
        <time>2021-07-30T17:02:55Z</time>
      </trkpt>
      <trkpt lat="42.36811" lon="2.79475">
        <ele>204.09</ele>
        <time>2021-07-30T17:02:58Z</time>
      </trkpt>
      <trkpt lat="42.36818" lon="2.7945">
        <ele>205.89</ele>
        <time>2021-07-30T17:03:01Z</time>
      </trkpt>
      <trkpt lat="42.36822" lon="2.79424">
        <ele>207.99</ele>
        <time>2021-07-30T17:03:04Z</time>
      </trkpt>
      <trkpt lat="42.36829" lon="2.79402">
        <ele>209.91</ele>
        <time>2021-07-30T17:03:07Z</time>
      </trkpt>
      <trkpt lat="42.36814" lon="2.794">
        <ele>213.37</ele>
        <time>2021-07-30T17:03:13Z</time>
      </trkpt>
      <trkpt lat="42.3681" lon="2.79407">
        <ele>213.93</ele>
        <time>2021-07-30T17:03:14Z</time>
      </trkpt>
      <trkpt lat="42.36786" lon="2.79435">
        <ele>216.35</ele>
        <time>2021-07-30T17:03:18Z</time>
      </trkpt>
      <trkpt lat="42.36749" lon="2.79437">
        <ele>220.35</ele>
        <time>2021-07-30T17:03:24Z</time>
      </trkpt>
      <trkpt lat="42.36743" lon="2.79429">
        <ele>221.57</ele>
        <time>2021-07-30T17:03:26Z</time>
      </trkpt>
      <trkpt lat="42.36736" lon="2.79419">
        <ele>222.83</ele>
        <time>2021-07-30T17:03:28Z</time>
      </trkpt>
      <trkpt lat="42.36707" lon="2.79393">
        <ele>226.35</ele>
        <time>2021-07-30T17:03:35Z</time>
      </trkpt>
      <trkpt lat="42.36694" lon="2.79378">
        <ele>229.12</ele>
        <time>2021-07-30T17:03:40Z</time>
      </trkpt>
      <trkpt lat="42.36683" lon="2.79383">
        <ele>230.55</ele>
        <time>2021-07-30T17:03:43Z</time>
      </trkpt>
      <trkpt lat="42.36672" lon="2.79394">
        <ele>232.25</ele>
        <time>2021-07-30T17:03:46Z</time>
      </trkpt>
      <trkpt lat="42.36652" lon="2.79418">
        <ele>234.1</ele>
        <time>2021-07-30T17:03:50Z</time>
      </trkpt>
      <trkpt lat="42.36636" lon="2.79443">
        <ele>236.32</ele>
        <time>2021-07-30T17:03:54Z</time>
      </trkpt>
      <trkpt lat="42.36606" lon="2.79444">
        <ele>240.47</ele>
        <time>2021-07-30T17:04:01Z</time>
      </trkpt>
      <trkpt lat="42.36597" lon="2.79418">
        <ele>243.87</ele>
        <time>2021-07-30T17:04:06Z</time>
      </trkpt>
      <trkpt lat="42.36597" lon="2.79402">
        <ele>245.96</ele>
        <time>2021-07-30T17:04:09Z</time>
      </trkpt>
      <trkpt lat="42.36593" lon="2.79363">
        <ele>250.07</ele>
        <time>2021-07-30T17:04:15Z</time>
      </trkpt>
      <trkpt lat="42.36592" lon="2.79356">
        <ele>250.74</ele>
        <time>2021-07-30T17:04:16Z</time>
      </trkpt>
      <trkpt lat="42.36573" lon="2.79313">
        <ele>254.91</ele>
        <time>2021-07-30T17:04:23Z</time>
      </trkpt>
      <trkpt lat="42.3656" lon="2.79274">
        <ele>258.09</ele>
        <time>2021-07-30T17:04:28Z</time>
      </trkpt>
      <trkpt lat="42.36552" lon="2.79244">
        <ele>260.1</ele>
        <time>2021-07-30T17:04:32Z</time>
      </trkpt>
      <trkpt lat="42.36558" lon="2.79187">
        <ele>263.97</ele>
        <time>2021-07-30T17:04:40Z</time>
      </trkpt>
      <trkpt lat="42.36565" lon="2.79163">
        <ele>265.67</ele>
        <time>2021-07-30T17:04:43Z</time>
      </trkpt>
      <trkpt lat="42.36572" lon="2.79143">
        <ele>267.14</ele>
        <time>2021-07-30T17:04:46Z</time>
      </trkpt>
      <trkpt lat="42.36564" lon="2.79081">
        <ele>270.02</ele>
        <time>2021-07-30T17:04:53Z</time>
      </trkpt>
      <trkpt lat="42.36557" lon="2.79013">
        <ele>271.5</ele>
        <time>2021-07-30T17:05:00Z</time>
      </trkpt>
      <trkpt lat="42.36554" lon="2.78989">
        <ele>271.84</ele>
        <time>2021-07-30T17:05:02Z</time>
      </trkpt>
      <trkpt lat="42.36528" lon="2.78936">
        <ele>271.48</ele>
        <time>2021-07-30T17:05:08Z</time>
      </trkpt>
      <trkpt lat="42.36508" lon="2.7893">
        <ele>271.2</ele>
        <time>2021-07-30T17:05:10Z</time>
      </trkpt>
      <trkpt lat="42.36473" lon="2.78924">
        <ele>269.9</ele>
        <time>2021-07-30T17:05:17Z</time>
      </trkpt>
      <trkpt lat="42.36452" lon="2.78922">
        <ele>269.61</ele>
        <time>2021-07-30T17:05:25Z</time>
      </trkpt>
      <trkpt lat="42.36384" lon="2.7892">
        <ele>272.79</ele>
        <time>2021-07-30T17:05:36Z</time>
      </trkpt>
      <trkpt lat="42.36338" lon="2.78912">
        <ele>275.83</ele>
        <time>2021-07-30T17:05:43Z</time>
      </trkpt>
      <trkpt lat="42.36314" lon="2.78877">
        <ele>277.84</ele>
        <time>2021-07-30T17:05:49Z</time>
      </trkpt>
      <trkpt lat="42.36287" lon="2.78818">
        <ele>281.54</ele>
        <time>2021-07-30T17:05:58Z</time>
      </trkpt>
      <trkpt lat="42.36268" lon="2.78782">
        <ele>284.58</ele>
        <time>2021-07-30T17:06:04Z</time>
      </trkpt>
      <trkpt lat="42.36258" lon="2.78769">
        <ele>286.21</ele>
        <time>2021-07-30T17:06:07Z</time>
      </trkpt>
      <trkpt lat="42.36234" lon="2.78756">
        <ele>289.69</ele>
        <time>2021-07-30T17:06:15Z</time>
      </trkpt>
      <trkpt lat="42.36199" lon="2.78742">
        <ele>292.98</ele>
        <time>2021-07-30T17:06:23Z</time>
      </trkpt>
      <trkpt lat="42.36183" lon="2.78731">
        <ele>294.87</ele>
        <time>2021-07-30T17:06:27Z</time>
      </trkpt>
      <trkpt lat="42.36151" lon="2.78704">
        <ele>298.39</ele>
        <time>2021-07-30T17:06:34Z</time>
      </trkpt>
      <trkpt lat="42.36123" lon="2.78691">
        <ele>301.49</ele>
        <time>2021-07-30T17:06:39Z</time>
      </trkpt>
      <trkpt lat="42.36101" lon="2.78682">
        <ele>303.02</ele>
        <time>2021-07-30T17:06:42Z</time>
      </trkpt>
      <trkpt lat="42.36067" lon="2.78677">
        <ele>305.26</ele>
        <time>2021-07-30T17:06:47Z</time>
      </trkpt>
      <trkpt lat="42.36041" lon="2.78649">
        <ele>307.78</ele>
        <time>2021-07-30T17:06:53Z</time>
      </trkpt>
      <trkpt lat="42.3602" lon="2.78599">
        <ele>311.66</ele>
        <time>2021-07-30T17:07:00Z</time>
      </trkpt>
      <trkpt lat="42.36003" lon="2.78533">
        <ele>313.37</ele>
        <time>2021-07-30T17:07:07Z</time>
      </trkpt>
      <trkpt lat="42.36003" lon="2.78515">
        <ele>313.55</ele>
        <time>2021-07-30T17:07:09Z</time>
      </trkpt>
      <trkpt lat="42.36003" lon="2.78497">
        <ele>313.88</ele>
        <time>2021-07-30T17:07:11Z</time>
      </trkpt>
      <trkpt lat="42.35997" lon="2.78436">
        <ele>315.57</ele>
        <time>2021-07-30T17:07:18Z</time>
      </trkpt>
      <trkpt lat="42.35992" lon="2.78423">
        <ele>316.92</ele>
        <time>2021-07-30T17:07:21Z</time>
      </trkpt>
      <trkpt lat="42.35991" lon="2.78399">
        <ele>319.26</ele>
        <time>2021-07-30T17:07:25Z</time>
      </trkpt>
      <trkpt lat="42.35973" lon="2.78374">
        <ele>322.31</ele>
        <time>2021-07-30T17:07:32Z</time>
      </trkpt>
      <trkpt lat="42.35933" lon="2.78371">
        <ele>325.79</ele>
        <time>2021-07-30T17:07:41Z</time>
      </trkpt>
      <trkpt lat="42.35923" lon="2.78369">
        <ele>326.51</ele>
        <time>2021-07-30T17:07:43Z</time>
      </trkpt>
      <trkpt lat="42.35901" lon="2.7835">
        <ele>328.34</ele>
        <time>2021-07-30T17:07:48Z</time>
      </trkpt>
      <trkpt lat="42.35883" lon="2.78322">
        <ele>331.85</ele>
        <time>2021-07-30T17:07:56Z</time>
      </trkpt>
      <trkpt lat="42.35875" lon="2.7832">
        <ele>333.07</ele>
        <time>2021-07-30T17:07:59Z</time>
      </trkpt>
      <trkpt lat="42.35852" lon="2.7834">
        <ele>336.3</ele>
        <time>2021-07-30T17:08:07Z</time>
      </trkpt>
      <trkpt lat="42.35806" lon="2.78355">
        <ele>337.92</ele>
        <time>2021-07-30T17:08:19Z</time>
      </trkpt>
      <trkpt lat="42.35767" lon="2.78371">
        <ele>335.76</ele>
        <time>2021-07-30T17:08:26Z</time>
      </trkpt>
      <trkpt lat="42.35749" lon="2.78353">
        <ele>333.38</ele>
        <time>2021-07-30T17:08:31Z</time>
      </trkpt>
      <trkpt lat="42.35744" lon="2.78325">
        <ele>332.41</ele>
        <time>2021-07-30T17:08:34Z</time>
      </trkpt>
      <trkpt lat="42.3571" lon="2.78288">
        <ele>331.19</ele>
        <time>2021-07-30T17:08:41Z</time>
      </trkpt>
      <trkpt lat="42.3569" lon="2.78273">
        <ele>329.17</ele>
        <time>2021-07-30T17:08:47Z</time>
      </trkpt>
      <trkpt lat="42.35694" lon="2.78256">
        <ele>327.57</ele>
        <time>2021-07-30T17:08:52Z</time>
      </trkpt>
      <trkpt lat="42.35697" lon="2.78242">
        <ele>327.84</ele>
        <time>2021-07-30T17:09:04Z</time>
      </trkpt>
      <trkpt lat="42.35696" lon="2.78241">
        <ele>327.93</ele>
        <time>2021-07-30T17:09:05Z</time>
      </trkpt>
      <trkpt lat="42.35693" lon="2.78193">
        <ele>329.35</ele>
        <time>2021-07-30T17:09:17Z</time>
      </trkpt>
      <trkpt lat="42.35676" lon="2.7814">
        <ele>331.93</ele>
        <time>2021-07-30T17:09:25Z</time>
      </trkpt>
      <trkpt lat="42.35659" lon="2.78082">
        <ele>335.59</ele>
        <time>2021-07-30T17:09:34Z</time>
      </trkpt>
      <trkpt lat="42.35648" lon="2.78052">
        <ele>336</ele>
        <time>2021-07-30T17:09:43Z</time>
      </trkpt>
      <trkpt lat="42.35648" lon="2.78051">
        <ele>336</ele>
        <time>2021-07-30T17:09:44Z</time>
      </trkpt>
      <trkpt lat="42.35643" lon="2.78042">
        <ele>336.11</ele>
        <time>2021-07-30T17:09:58Z</time>
      </trkpt>
      <trkpt lat="42.35638" lon="2.78026">
        <ele>336.58</ele>
        <time>2021-07-30T17:10:05Z</time>
      </trkpt>
      <trkpt lat="42.35623" lon="2.77993">
        <ele>337.87</ele>
        <time>2021-07-30T17:10:12Z</time>
      </trkpt>
      <trkpt lat="42.356" lon="2.7798">
        <ele>339.38</ele>
        <time>2021-07-30T17:10:16Z</time>
      </trkpt>
      <trkpt lat="42.35585" lon="2.77967">
        <ele>340.45</ele>
        <time>2021-07-30T17:10:19Z</time>
      </trkpt>
      <trkpt lat="42.3556" lon="2.77948">
        <ele>342.35</ele>
        <time>2021-07-30T17:10:24Z</time>
      </trkpt>
      <trkpt lat="42.35527" lon="2.77931">
        <ele>344.2</ele>
        <time>2021-07-30T17:10:29Z</time>
      </trkpt>
      <trkpt lat="42.35489" lon="2.77926">
        <ele>346.68</ele>
        <time>2021-07-30T17:10:37Z</time>
      </trkpt>
      <trkpt lat="42.35485" lon="2.77927">
        <ele>347.12</ele>
        <time>2021-07-30T17:10:38Z</time>
      </trkpt>
      <trkpt lat="42.35448" lon="2.77938">
        <ele>350.77</ele>
        <time>2021-07-30T17:10:46Z</time>
      </trkpt>
      <trkpt lat="42.35398" lon="2.77954">
        <ele>353.68</ele>
        <time>2021-07-30T17:10:54Z</time>
      </trkpt>
      <trkpt lat="42.35356" lon="2.7794">
        <ele>355.35</ele>
        <time>2021-07-30T17:11:00Z</time>
      </trkpt>
      <trkpt lat="42.35346" lon="2.77932">
        <ele>355.65</ele>
        <time>2021-07-30T17:11:02Z</time>
      </trkpt>
      <trkpt lat="42.353" lon="2.77918">
        <ele>354.85</ele>
        <time>2021-07-30T17:11:10Z</time>
      </trkpt>
      <trkpt lat="42.35268" lon="2.77956">
        <ele>351.72</ele>
        <time>2021-07-30T17:11:17Z</time>
      </trkpt>
      <trkpt lat="42.35262" lon="2.77987">
        <ele>349.28</ele>
        <time>2021-07-30T17:11:21Z</time>
      </trkpt>
      <trkpt lat="42.35244" lon="2.78004">
        <ele>346.55</ele>
        <time>2021-07-30T17:11:25Z</time>
      </trkpt>
      <trkpt lat="42.35232" lon="2.78047">
        <ele>342.4</ele>
        <time>2021-07-30T17:11:32Z</time>
      </trkpt>
      <trkpt lat="42.35249" lon="2.781">
        <ele>339.17</ele>
        <time>2021-07-30T17:11:38Z</time>
      </trkpt>
      <trkpt lat="42.35223" lon="2.78135">
        <ele>336.55</ele>
        <time>2021-07-30T17:11:45Z</time>
      </trkpt>
      <trkpt lat="42.35215" lon="2.78137">
        <ele>336.38</ele>
        <time>2021-07-30T17:11:46Z</time>
      </trkpt>
      <trkpt lat="42.35181" lon="2.78161">
        <ele>335.76</ele>
        <time>2021-07-30T17:11:51Z</time>
      </trkpt>
      <trkpt lat="42.35168" lon="2.7817">
        <ele>335.64</ele>
        <time>2021-07-30T17:11:53Z</time>
      </trkpt>
      <trkpt lat="42.35141" lon="2.78233">
        <ele>334.85</ele>
        <time>2021-07-30T17:12:00Z</time>
      </trkpt>
      <trkpt lat="42.35135" lon="2.78263">
        <ele>334.16</ele>
        <time>2021-07-30T17:12:03Z</time>
      </trkpt>
      <trkpt lat="42.35106" lon="2.78284">
        <ele>332.55</ele>
        <time>2021-07-30T17:12:10Z</time>
      </trkpt>
      <trkpt lat="42.3509" lon="2.78281">
        <ele>332.11</ele>
        <time>2021-07-30T17:12:13Z</time>
      </trkpt>
      <trkpt lat="42.35042" lon="2.78295">
        <ele>329.59</ele>
        <time>2021-07-30T17:12:21Z</time>
      </trkpt>
      <trkpt lat="42.3502" lon="2.78296">
        <ele>328.24</ele>
        <time>2021-07-30T17:12:24Z</time>
      </trkpt>
      <trkpt lat="42.34998" lon="2.78302">
        <ele>326.34</ele>
        <time>2021-07-30T17:12:27Z</time>
      </trkpt>
      <trkpt lat="42.34985" lon="2.78313">
        <ele>324</ele>
        <time>2021-07-30T17:12:30Z</time>
      </trkpt>
      <trkpt lat="42.3497" lon="2.78299">
        <ele>319.42</ele>
        <time>2021-07-30T17:12:35Z</time>
      </trkpt>
      <trkpt lat="42.34963" lon="2.78269">
        <ele>315.86</ele>
        <time>2021-07-30T17:12:40Z</time>
      </trkpt>
      <trkpt lat="42.34962" lon="2.78254">
        <ele>314.3</ele>
        <time>2021-07-30T17:12:42Z</time>
      </trkpt>
      <trkpt lat="42.34955" lon="2.78209">
        <ele>311.11</ele>
        <time>2021-07-30T17:12:47Z</time>
      </trkpt>
      <trkpt lat="42.34952" lon="2.78193">
        <ele>309.66</ele>
        <time>2021-07-30T17:12:49Z</time>
      </trkpt>
      <trkpt lat="42.34961" lon="2.78161">
        <ele>305.82</ele>
        <time>2021-07-30T17:12:54Z</time>
      </trkpt>
      <trkpt lat="42.34971" lon="2.78151">
        <ele>304.31</ele>
        <time>2021-07-30T17:12:56Z</time>
      </trkpt>
      <trkpt lat="42.34996" lon="2.7812">
        <ele>300.26</ele>
        <time>2021-07-30T17:13:01Z</time>
      </trkpt>
      <trkpt lat="42.35005" lon="2.78106">
        <ele>298.46</ele>
        <time>2021-07-30T17:13:03Z</time>
      </trkpt>
      <trkpt lat="42.35015" lon="2.78095">
        <ele>296.65</ele>
        <time>2021-07-30T17:13:05Z</time>
      </trkpt>
      <trkpt lat="42.35035" lon="2.78078">
        <ele>293.83</ele>
        <time>2021-07-30T17:13:08Z</time>
      </trkpt>
      <trkpt lat="42.35047" lon="2.78038">
        <ele>290.29</ele>
        <time>2021-07-30T17:13:13Z</time>
      </trkpt>
      <trkpt lat="42.35065" lon="2.78013">
        <ele>288.26</ele>
        <time>2021-07-30T17:13:17Z</time>
      </trkpt>
      <trkpt lat="42.35094" lon="2.77995">
        <ele>285.3</ele>
        <time>2021-07-30T17:13:22Z</time>
      </trkpt>
      <trkpt lat="42.35085" lon="2.77971">
        <ele>281.71</ele>
        <time>2021-07-30T17:13:29Z</time>
      </trkpt>
      <trkpt lat="42.35073" lon="2.7796">
        <ele>281.4</ele>
        <time>2021-07-30T17:13:31Z</time>
      </trkpt>
      <trkpt lat="42.35063" lon="2.77948">
        <ele>281.31</ele>
        <time>2021-07-30T17:13:33Z</time>
      </trkpt>
      <trkpt lat="42.35052" lon="2.779">
        <ele>282.41</ele>
        <time>2021-07-30T17:13:40Z</time>
      </trkpt>
      <trkpt lat="42.35025" lon="2.77872">
        <ele>282.51</ele>
        <time>2021-07-30T17:13:46Z</time>
      </trkpt>
      <trkpt lat="42.34995" lon="2.7788">
        <ele>279.68</ele>
        <time>2021-07-30T17:13:53Z</time>
      </trkpt>
      <trkpt lat="42.34979" lon="2.77889">
        <ele>278.1</ele>
        <time>2021-07-30T17:13:56Z</time>
      </trkpt>
      <trkpt lat="42.34951" lon="2.77893">
        <ele>274.25</ele>
        <time>2021-07-30T17:14:01Z</time>
      </trkpt>
      <trkpt lat="42.34934" lon="2.77875">
        <ele>269.65</ele>
        <time>2021-07-30T17:14:06Z</time>
      </trkpt>
      <trkpt lat="42.34926" lon="2.77858">
        <ele>266.39</ele>
        <time>2021-07-30T17:14:10Z</time>
      </trkpt>
      <trkpt lat="42.34917" lon="2.77884">
        <ele>263.24</ele>
        <time>2021-07-30T17:14:15Z</time>
      </trkpt>
      <trkpt lat="42.34922" lon="2.77924">
        <ele>258.46</ele>
        <time>2021-07-30T17:14:23Z</time>
      </trkpt>
      <trkpt lat="42.3491" lon="2.77921">
        <ele>255.91</ele>
        <time>2021-07-30T17:14:29Z</time>
      </trkpt>
      <trkpt lat="42.34892" lon="2.77883">
        <ele>252.66</ele>
        <time>2021-07-30T17:14:37Z</time>
      </trkpt>
      <trkpt lat="42.34888" lon="2.77851">
        <ele>249.07</ele>
        <time>2021-07-30T17:14:44Z</time>
      </trkpt>
      <trkpt lat="42.34879" lon="2.77867">
        <ele>247.48</ele>
        <time>2021-07-30T17:14:48Z</time>
      </trkpt>
      <trkpt lat="42.34877" lon="2.7788">
        <ele>246.73</ele>
        <time>2021-07-30T17:14:50Z</time>
      </trkpt>
      <trkpt lat="42.34869" lon="2.77913">
        <ele>242.9</ele>
        <time>2021-07-30T17:14:56Z</time>
      </trkpt>
      <trkpt lat="42.3487" lon="2.77919">
        <ele>242.26</ele>
        <time>2021-07-30T17:14:57Z</time>
      </trkpt>
      <trkpt lat="42.34871" lon="2.77929">
        <ele>240.91</ele>
        <time>2021-07-30T17:14:59Z</time>
      </trkpt>
      <trkpt lat="42.34858" lon="2.77927">
        <ele>236.66</ele>
        <time>2021-07-30T17:15:05Z</time>
      </trkpt>
      <trkpt lat="42.34844" lon="2.77906">
        <ele>232.81</ele>
        <time>2021-07-30T17:15:13Z</time>
      </trkpt>
      <trkpt lat="42.34834" lon="2.77888">
        <ele>229.47</ele>
        <time>2021-07-30T17:15:20Z</time>
      </trkpt>
      <trkpt lat="42.34827" lon="2.77886">
        <ele>228.76</ele>
        <time>2021-07-30T17:15:22Z</time>
      </trkpt>
      <trkpt lat="42.34818" lon="2.77886">
        <ele>228.07</ele>
        <time>2021-07-30T17:15:24Z</time>
      </trkpt>
      <trkpt lat="42.34796" lon="2.7787">
        <ele>225.94</ele>
        <time>2021-07-30T17:15:29Z</time>
      </trkpt>
      <trkpt lat="42.34784" lon="2.77857">
        <ele>224.72</ele>
        <time>2021-07-30T17:15:32Z</time>
      </trkpt>
      <trkpt lat="42.34767" lon="2.77842">
        <ele>223.15</ele>
        <time>2021-07-30T17:15:36Z</time>
      </trkpt>
      <trkpt lat="42.34746" lon="2.77815">
        <ele>221.66</ele>
        <time>2021-07-30T17:15:40Z</time>
      </trkpt>
      <trkpt lat="42.34732" lon="2.77803">
        <ele>219.17</ele>
        <time>2021-07-30T17:15:44Z</time>
      </trkpt>
      <trkpt lat="42.34722" lon="2.77799">
        <ele>218.26</ele>
        <time>2021-07-30T17:15:46Z</time>
      </trkpt>
      <trkpt lat="42.34705" lon="2.77784">
        <ele>216.85</ele>
        <time>2021-07-30T17:15:50Z</time>
      </trkpt>
      <trkpt lat="42.34692" lon="2.77767">
        <ele>215.79</ele>
        <time>2021-07-30T17:15:53Z</time>
      </trkpt>
      <trkpt lat="42.34677" lon="2.77735">
        <ele>213.47</ele>
        <time>2021-07-30T17:15:57Z</time>
      </trkpt>
      <trkpt lat="42.34665" lon="2.77716">
        <ele>211.7</ele>
        <time>2021-07-30T17:16:00Z</time>
      </trkpt>
      <trkpt lat="42.34631" lon="2.77685">
        <ele>208.54</ele>
        <time>2021-07-30T17:16:06Z</time>
      </trkpt>
      <trkpt lat="42.34615" lon="2.77676">
        <ele>206.46</ele>
        <time>2021-07-30T17:16:09Z</time>
      </trkpt>
      <trkpt lat="42.34596" lon="2.77643">
        <ele>203.98</ele>
        <time>2021-07-30T17:16:14Z</time>
      </trkpt>
      <trkpt lat="42.34558" lon="2.77632">
        <ele>200.95</ele>
        <time>2021-07-30T17:16:21Z</time>
      </trkpt>
      <trkpt lat="42.34541" lon="2.77642">
        <ele>199.71</ele>
        <time>2021-07-30T17:16:24Z</time>
      </trkpt>
      <trkpt lat="42.3453" lon="2.77652">
        <ele>199.03</ele>
        <time>2021-07-30T17:16:26Z</time>
      </trkpt>
      <trkpt lat="42.34484" lon="2.777">
        <ele>195.98</ele>
        <time>2021-07-30T17:16:34Z</time>
      </trkpt>
      <trkpt lat="42.34437" lon="2.77743">
        <ele>192.85</ele>
        <time>2021-07-30T17:16:41Z</time>
      </trkpt>
      <trkpt lat="42.34424" lon="2.77755">
        <ele>191.95</ele>
        <time>2021-07-30T17:16:43Z</time>
      </trkpt>
      <trkpt lat="42.3441" lon="2.77779">
        <ele>190.01</ele>
        <time>2021-07-30T17:16:47Z</time>
      </trkpt>
      <trkpt lat="42.34405" lon="2.77796">
        <ele>189.24</ele>
        <time>2021-07-30T17:16:49Z</time>
      </trkpt>
      <trkpt lat="42.34353" lon="2.77895">
        <ele>185.67</ele>
        <time>2021-07-30T17:17:01Z</time>
      </trkpt>
      <trkpt lat="42.34328" lon="2.77992">
        <ele>184.78</ele>
        <time>2021-07-30T17:17:10Z</time>
      </trkpt>
      <trkpt lat="42.34328" lon="2.78047">
        <ele>185.83</ele>
        <time>2021-07-30T17:17:16Z</time>
      </trkpt>
      <trkpt lat="42.3433" lon="2.78094">
        <ele>186.43</ele>
        <time>2021-07-30T17:17:21Z</time>
      </trkpt>
      <trkpt lat="42.34334" lon="2.78144">
        <ele>187.31</ele>
        <time>2021-07-30T17:17:26Z</time>
      </trkpt>
      <trkpt lat="42.34326" lon="2.78176">
        <ele>187.72</ele>
        <time>2021-07-30T17:17:30Z</time>
      </trkpt>
      <trkpt lat="42.34304" lon="2.78232">
        <ele>186.61</ele>
        <time>2021-07-30T17:17:36Z</time>
      </trkpt>
      <trkpt lat="42.34274" lon="2.78286">
        <ele>184</ele>
        <time>2021-07-30T17:17:42Z</time>
      </trkpt>
      <trkpt lat="42.3425" lon="2.78319">
        <ele>180.3</ele>
        <time>2021-07-30T17:17:48Z</time>
      </trkpt>
      <trkpt lat="42.34208" lon="2.78379">
        <ele>177.03</ele>
        <time>2021-07-30T17:17:56Z</time>
      </trkpt>
      <trkpt lat="42.34205" lon="2.78401">
        <ele>176.58</ele>
        <time>2021-07-30T17:17:58Z</time>
      </trkpt>
      <trkpt lat="42.34204" lon="2.78422">
        <ele>176.33</ele>
        <time>2021-07-30T17:18:00Z</time>
      </trkpt>
      <trkpt lat="42.34196" lon="2.78451">
        <ele>176.15</ele>
        <time>2021-07-30T17:18:04Z</time>
      </trkpt>
      <trkpt lat="42.34194" lon="2.78461">
        <ele>176.44</ele>
        <time>2021-07-30T17:18:06Z</time>
      </trkpt>
      <trkpt lat="42.34185" lon="2.78498">
        <ele>178.34</ele>
        <time>2021-07-30T17:18:12Z</time>
      </trkpt>
      <trkpt lat="42.34146" lon="2.7857">
        <ele>179.61</ele>
        <time>2021-07-30T17:18:20Z</time>
      </trkpt>
      <trkpt lat="42.34114" lon="2.78633">
        <ele>176.12</ele>
        <time>2021-07-30T17:18:27Z</time>
      </trkpt>
      <trkpt lat="42.34109" lon="2.78645">
        <ele>174.53</ele>
        <time>2021-07-30T17:18:29Z</time>
      </trkpt>
      <trkpt lat="42.34107" lon="2.78674">
        <ele>171.92</ele>
        <time>2021-07-30T17:18:33Z</time>
      </trkpt>
      <trkpt lat="42.34088" lon="2.78678">
        <ele>168.19</ele>
        <time>2021-07-30T17:18:39Z</time>
      </trkpt>
      <trkpt lat="42.34077" lon="2.7866">
        <ele>166.84</ele>
        <time>2021-07-30T17:18:42Z</time>
      </trkpt>
      <trkpt lat="42.3407" lon="2.78648">
        <ele>166.05</ele>
        <time>2021-07-30T17:18:44Z</time>
      </trkpt>
      <trkpt lat="42.34036" lon="2.78654">
        <ele>163.97</ele>
        <time>2021-07-30T17:18:50Z</time>
      </trkpt>
      <trkpt lat="42.34006" lon="2.78684">
        <ele>162.05</ele>
        <time>2021-07-30T17:18:54Z</time>
      </trkpt>
      <trkpt lat="42.33947" lon="2.78786">
        <ele>162.69</ele>
        <time>2021-07-30T17:19:04Z</time>
      </trkpt>
      <trkpt lat="42.33909" lon="2.78839">
        <ele>165.96</ele>
        <time>2021-07-30T17:19:09Z</time>
      </trkpt>
      <trkpt lat="42.33873" lon="2.78903">
        <ele>170.27</ele>
        <time>2021-07-30T17:19:14Z</time>
      </trkpt>
      <trkpt lat="42.33834" lon="2.78992">
        <ele>173.4</ele>
        <time>2021-07-30T17:19:19Z</time>
      </trkpt>
      <trkpt lat="42.3379" lon="2.79097">
        <ele>172.83</ele>
        <time>2021-07-30T17:19:26Z</time>
      </trkpt>
      <trkpt lat="42.33762" lon="2.791">
        <ele>169.2</ele>
        <time>2021-07-30T17:19:31Z</time>
      </trkpt>
      <trkpt lat="42.33738" lon="2.79076">
        <ele>166.95</ele>
        <time>2021-07-30T17:19:34Z</time>
      </trkpt>
      <trkpt lat="42.33732" lon="2.79034">
        <ele>164.49</ele>
        <time>2021-07-30T17:19:38Z</time>
      </trkpt>
      <trkpt lat="42.33733" lon="2.79">
        <ele>163.96</ele>
        <time>2021-07-30T17:19:41Z</time>
      </trkpt>
      <trkpt lat="42.33719" lon="2.78995">
        <ele>162.76</ele>
        <time>2021-07-30T17:19:48Z</time>
      </trkpt>
      <trkpt lat="42.33711" lon="2.79018">
        <ele>162.23</ele>
        <time>2021-07-30T17:19:50Z</time>
      </trkpt>
      <trkpt lat="42.33664" lon="2.79049">
        <ele>161.45</ele>
        <time>2021-07-30T17:19:56Z</time>
      </trkpt>
      <trkpt lat="42.33554" lon="2.79063">
        <ele>161.53</ele>
        <time>2021-07-30T17:20:06Z</time>
      </trkpt>
      <trkpt lat="42.33531" lon="2.79066">
        <ele>161.52</ele>
        <time>2021-07-30T17:20:12Z</time>
      </trkpt>
      <trkpt lat="42.33521" lon="2.79076">
        <ele>161.28</ele>
        <time>2021-07-30T17:20:15Z</time>
      </trkpt>
      <trkpt lat="42.33498" lon="2.79082">
        <ele>160.45</ele>
        <time>2021-07-30T17:20:20Z</time>
      </trkpt>
      <trkpt lat="42.33488" lon="2.79074">
        <ele>160.29</ele>
        <time>2021-07-30T17:20:22Z</time>
      </trkpt>
      <trkpt lat="42.33477" lon="2.79038">
        <ele>160.13</ele>
        <time>2021-07-30T17:20:26Z</time>
      </trkpt>
      <trkpt lat="42.33474" lon="2.78943">
        <ele>163.29</ele>
        <time>2021-07-30T17:20:33Z</time>
      </trkpt>
      <trkpt lat="42.33471" lon="2.78901">
        <ele>166.4</ele>
        <time>2021-07-30T17:20:36Z</time>
      </trkpt>
      <trkpt lat="42.33472" lon="2.78858">
        <ele>170.19</ele>
        <time>2021-07-30T17:20:39Z</time>
      </trkpt>
      <trkpt lat="42.33459" lon="2.78824">
        <ele>175.36</ele>
        <time>2021-07-30T17:20:43Z</time>
      </trkpt>
      <trkpt lat="42.33452" lon="2.7882">
        <ele>176.58</ele>
        <time>2021-07-30T17:20:44Z</time>
      </trkpt>
      <trkpt lat="42.33425" lon="2.78808">
        <ele>180.96</ele>
        <time>2021-07-30T17:20:48Z</time>
      </trkpt>
      <trkpt lat="42.33409" lon="2.78798">
        <ele>182.74</ele>
        <time>2021-07-30T17:20:50Z</time>
      </trkpt>
      <trkpt lat="42.33366" lon="2.78759">
        <ele>187.09</ele>
        <time>2021-07-30T17:20:55Z</time>
      </trkpt>
      <trkpt lat="42.33331" lon="2.78692">
        <ele>191.74</ele>
        <time>2021-07-30T17:21:00Z</time>
      </trkpt>
      <trkpt lat="42.33291" lon="2.78657">
        <ele>195.81</ele>
        <time>2021-07-30T17:21:04Z</time>
      </trkpt>
      <trkpt lat="42.33265" lon="2.78659">
        <ele>197.88</ele>
        <time>2021-07-30T17:21:06Z</time>
      </trkpt>
      <trkpt lat="42.33177" lon="2.78651">
        <ele>203.1</ele>
        <time>2021-07-30T17:21:12Z</time>
      </trkpt>
      <trkpt lat="42.33123" lon="2.78638">
        <ele>206.91</ele>
        <time>2021-07-30T17:21:16Z</time>
      </trkpt>
      <trkpt lat="42.33095" lon="2.78631">
        <ele>208.93</ele>
        <time>2021-07-30T17:21:18Z</time>
      </trkpt>
      <trkpt lat="42.33037" lon="2.786">
        <ele>213.2</ele>
        <time>2021-07-30T17:21:22Z</time>
      </trkpt>
      <trkpt lat="42.32993" lon="2.78571">
        <ele>216.79</ele>
        <time>2021-07-30T17:21:25Z</time>
      </trkpt>
      <trkpt lat="42.32953" lon="2.78548">
        <ele>220.49</ele>
        <time>2021-07-30T17:21:28Z</time>
      </trkpt>
      <trkpt lat="42.32943" lon="2.78541">
        <ele>221.68</ele>
        <time>2021-07-30T17:21:29Z</time>
      </trkpt>
      <trkpt lat="42.32911" lon="2.78547">
        <ele>226.66</ele>
        <time>2021-07-30T17:21:34Z</time>
      </trkpt>
      <trkpt lat="42.32884" lon="2.78538">
        <ele>228.88</ele>
        <time>2021-07-30T17:21:38Z</time>
      </trkpt>
      <trkpt lat="42.3284" lon="2.78538">
        <ele>228.72</ele>
        <time>2021-07-30T17:21:46Z</time>
      </trkpt>
      <trkpt lat="42.32831" lon="2.78548">
        <ele>228.43</ele>
        <time>2021-07-30T17:21:47Z</time>
      </trkpt>
      <trkpt lat="42.32812" lon="2.78568">
        <ele>227.57</ele>
        <time>2021-07-30T17:21:49Z</time>
      </trkpt>
      <trkpt lat="42.32764" lon="2.78575">
        <ele>223.55</ele>
        <time>2021-07-30T17:21:54Z</time>
      </trkpt>
      <trkpt lat="42.32752" lon="2.78556">
        <ele>220.27</ele>
        <time>2021-07-30T17:21:56Z</time>
      </trkpt>
      <trkpt lat="42.32755" lon="2.78516">
        <ele>217.43</ele>
        <time>2021-07-30T17:21:59Z</time>
      </trkpt>
      <trkpt lat="42.32762" lon="2.78479">
        <ele>215.12</ele>
        <time>2021-07-30T17:22:02Z</time>
      </trkpt>
      <trkpt lat="42.32758" lon="2.78463">
        <ele>211.97</ele>
        <time>2021-07-30T17:22:06Z</time>
      </trkpt>
      <trkpt lat="42.32702" lon="2.78508">
        <ele>209</ele>
        <time>2021-07-30T17:22:11Z</time>
      </trkpt>
      <trkpt lat="42.32687" lon="2.78598">
        <ele>205.02</ele>
        <time>2021-07-30T17:22:17Z</time>
      </trkpt>
      <trkpt lat="42.3269" lon="2.78616">
        <ele>204.22</ele>
        <time>2021-07-30T17:22:18Z</time>
      </trkpt>
      <trkpt lat="42.32697" lon="2.78651">
        <ele>202.5</ele>
        <time>2021-07-30T17:22:20Z</time>
      </trkpt>
      <trkpt lat="42.32691" lon="2.78743">
        <ele>197.77</ele>
        <time>2021-07-30T17:22:25Z</time>
      </trkpt>
      <trkpt lat="42.32689" lon="2.78772">
        <ele>195.33</ele>
        <time>2021-07-30T17:22:27Z</time>
      </trkpt>
      <trkpt lat="42.32659" lon="2.78802">
        <ele>190.24</ele>
        <time>2021-07-30T17:22:31Z</time>
      </trkpt>
      <trkpt lat="42.32608" lon="2.78834">
        <ele>185.98</ele>
        <time>2021-07-30T17:22:35Z</time>
      </trkpt>
      <trkpt lat="42.32581" lon="2.78849">
        <ele>184.24</ele>
        <time>2021-07-30T17:22:37Z</time>
      </trkpt>
      <trkpt lat="42.32526" lon="2.78866">
        <ele>181.45</ele>
        <time>2021-07-30T17:22:41Z</time>
      </trkpt>
      <trkpt lat="42.32422" lon="2.78847">
        <ele>177.64</ele>
        <time>2021-07-30T17:22:48Z</time>
      </trkpt>
      <trkpt lat="42.32364" lon="2.78848">
        <ele>174.02</ele>
        <time>2021-07-30T17:22:53Z</time>
      </trkpt>
      <trkpt lat="42.32351" lon="2.78877">
        <ele>169.87</ele>
        <time>2021-07-30T17:22:58Z</time>
      </trkpt>
      <trkpt lat="42.32335" lon="2.78896">
        <ele>166.86</ele>
        <time>2021-07-30T17:23:03Z</time>
      </trkpt>
      <trkpt lat="42.32322" lon="2.78895">
        <ele>165.94</ele>
        <time>2021-07-30T17:23:05Z</time>
      </trkpt>
      <trkpt lat="42.32301" lon="2.78896">
        <ele>165.28</ele>
        <time>2021-07-30T17:23:10Z</time>
      </trkpt>
      <trkpt lat="42.32293" lon="2.78875">
        <ele>165.21</ele>
        <time>2021-07-30T17:23:13Z</time>
      </trkpt>
      <trkpt lat="42.32268" lon="2.7887">
        <ele>165.63</ele>
        <time>2021-07-30T17:23:17Z</time>
      </trkpt>
      <trkpt lat="42.32204" lon="2.789">
        <ele>166.53</ele>
        <time>2021-07-30T17:23:26Z</time>
      </trkpt>
      <trkpt lat="42.32165" lon="2.78916">
        <ele>166.77</ele>
        <time>2021-07-30T17:23:31Z</time>
      </trkpt>
      <trkpt lat="42.32118" lon="2.78905">
        <ele>167.32</ele>
        <time>2021-07-30T17:23:37Z</time>
      </trkpt>
      <trkpt lat="42.32095" lon="2.78876">
        <ele>168</ele>
        <time>2021-07-30T17:23:45Z</time>
      </trkpt>
      <trkpt lat="42.32056" lon="2.78829">
        <ele>168.55</ele>
        <time>2021-07-30T17:23:52Z</time>
      </trkpt>
      <trkpt lat="42.32029" lon="2.78736">
        <ele>169.5</ele>
        <time>2021-07-30T17:24:00Z</time>
      </trkpt>
      <trkpt lat="42.32039" lon="2.78604">
        <ele>170.88</ele>
        <time>2021-07-30T17:24:09Z</time>
      </trkpt>
      <trkpt lat="42.32048" lon="2.78494">
        <ele>172.71</ele>
        <time>2021-07-30T17:24:18Z</time>
      </trkpt>
      <trkpt lat="42.32058" lon="2.78371">
        <ele>174.76</ele>
        <time>2021-07-30T17:24:26Z</time>
      </trkpt>
      <trkpt lat="42.32057" lon="2.78353">
        <ele>175.05</ele>
        <time>2021-07-30T17:24:27Z</time>
      </trkpt>
      <trkpt lat="42.32016" lon="2.7818">
        <ele>175.01</ele>
        <time>2021-07-30T17:24:36Z</time>
      </trkpt>
      <trkpt lat="42.31976" lon="2.78088">
        <ele>173.33</ele>
        <time>2021-07-30T17:24:42Z</time>
      </trkpt>
      <trkpt lat="42.31938" lon="2.78068">
        <ele>172.9</ele>
        <time>2021-07-30T17:24:47Z</time>
      </trkpt>
      <trkpt lat="42.31829" lon="2.78079">
        <ele>174.57</ele>
        <time>2021-07-30T17:24:55Z</time>
      </trkpt>
      <trkpt lat="42.31718" lon="2.78129">
        <ele>177.61</ele>
        <time>2021-07-30T17:25:03Z</time>
      </trkpt>
      <trkpt lat="42.31659" lon="2.781">
        <ele>179.02</ele>
        <time>2021-07-30T17:25:09Z</time>
      </trkpt>
      <trkpt lat="42.31653" lon="2.7807">
        <ele>179.14</ele>
        <time>2021-07-30T17:25:11Z</time>
      </trkpt>
      <trkpt lat="42.31631" lon="2.77912">
        <ele>179.48</ele>
        <time>2021-07-30T17:25:19Z</time>
      </trkpt>
      <trkpt lat="42.31595" lon="2.77822">
        <ele>180.62</ele>
        <time>2021-07-30T17:25:24Z</time>
      </trkpt>
      <trkpt lat="42.31498" lon="2.77684">
        <ele>184.49</ele>
        <time>2021-07-30T17:25:32Z</time>
      </trkpt>
      <trkpt lat="42.31377" lon="2.77516">
        <ele>187.51</ele>
        <time>2021-07-30T17:25:42Z</time>
      </trkpt>
      <trkpt lat="42.31253" lon="2.77337">
        <ele>190.67</ele>
        <time>2021-07-30T17:25:52Z</time>
      </trkpt>
      <trkpt lat="42.31229" lon="2.7726">
        <ele>191.95</ele>
        <time>2021-07-30T17:25:56Z</time>
      </trkpt>
      <trkpt lat="42.31219" lon="2.77179">
        <ele>193.14</ele>
        <time>2021-07-30T17:26:00Z</time>
      </trkpt>
      <trkpt lat="42.31219" lon="2.77118">
        <ele>194.46</ele>
        <time>2021-07-30T17:26:03Z</time>
      </trkpt>
      <trkpt lat="42.31204" lon="2.7702">
        <ele>196.39</ele>
        <time>2021-07-30T17:26:08Z</time>
      </trkpt>
      <trkpt lat="42.31197" lon="2.76786">
        <ele>195.56</ele>
        <time>2021-07-30T17:26:18Z</time>
      </trkpt>
      <trkpt lat="42.31193" lon="2.76742">
        <ele>194.97</ele>
        <time>2021-07-30T17:26:20Z</time>
      </trkpt>
      <trkpt lat="42.31125" lon="2.76512">
        <ele>194.57</ele>
        <time>2021-07-30T17:26:30Z</time>
      </trkpt>
      <trkpt lat="42.31069" lon="2.7634">
        <ele>196.81</ele>
        <time>2021-07-30T17:26:38Z</time>
      </trkpt>
      <trkpt lat="42.30988" lon="2.76263">
        <ele>200.2</ele>
        <time>2021-07-30T17:26:44Z</time>
      </trkpt>
      <trkpt lat="42.30972" lon="2.76256">
        <ele>200.91</ele>
        <time>2021-07-30T17:26:45Z</time>
      </trkpt>
      <trkpt lat="42.30911" lon="2.76228">
        <ele>204.15</ele>
        <time>2021-07-30T17:26:49Z</time>
      </trkpt>
      <trkpt lat="42.30886" lon="2.76156">
        <ele>207.54</ele>
        <time>2021-07-30T17:26:54Z</time>
      </trkpt>
      <trkpt lat="42.30918" lon="2.76077">
        <ele>208.56</ele>
        <time>2021-07-30T17:26:58Z</time>
      </trkpt>
      <trkpt lat="42.3092" lon="2.7603">
        <ele>208.83</ele>
        <time>2021-07-30T17:27:00Z</time>
      </trkpt>
      <trkpt lat="42.30908" lon="2.75715">
        <ele>208.64</ele>
        <time>2021-07-30T17:27:11Z</time>
      </trkpt>
      <trkpt lat="42.30891" lon="2.75275">
        <ele>209.05</ele>
        <time>2021-07-30T17:27:25Z</time>
      </trkpt>
      <trkpt lat="42.30885" lon="2.74933">
        <ele>207.53</ele>
        <time>2021-07-30T17:27:36Z</time>
      </trkpt>
      <trkpt lat="42.30885" lon="2.74906">
        <ele>207.39</ele>
        <time>2021-07-30T17:27:37Z</time>
      </trkpt>
      <trkpt lat="42.30855" lon="2.74725">
        <ele>208.32</ele>
        <time>2021-07-30T17:27:44Z</time>
      </trkpt>
      <trkpt lat="42.30837" lon="2.74501">
        <ele>211.62</ele>
        <time>2021-07-30T17:27:52Z</time>
      </trkpt>
      <trkpt lat="42.30826" lon="2.74363">
        <ele>213.71</ele>
        <time>2021-07-30T17:27:57Z</time>
      </trkpt>
      <trkpt lat="42.30749" lon="2.74093">
        <ele>216.62</ele>
        <time>2021-07-30T17:28:07Z</time>
      </trkpt>
      <trkpt lat="42.30696" lon="2.73915">
        <ele>217.98</ele>
        <time>2021-07-30T17:28:14Z</time>
      </trkpt>
      <trkpt lat="42.30667" lon="2.73636">
        <ele>219.89</ele>
        <time>2021-07-30T17:28:24Z</time>
      </trkpt>
      <trkpt lat="42.30621" lon="2.73283">
        <ele>222.78</ele>
        <time>2021-07-30T17:28:36Z</time>
      </trkpt>
      <trkpt lat="42.30563" lon="2.72959">
        <ele>223.47</ele>
        <time>2021-07-30T17:28:47Z</time>
      </trkpt>
      <trkpt lat="42.30569" lon="2.7276">
        <ele>224.77</ele>
        <time>2021-07-30T17:28:54Z</time>
      </trkpt>
      <trkpt lat="42.30582" lon="2.72529">
        <ele>227.82</ele>
        <time>2021-07-30T17:29:02Z</time>
      </trkpt>
      <trkpt lat="42.30596" lon="2.72283">
        <ele>230.47</ele>
        <time>2021-07-30T17:29:12Z</time>
      </trkpt>
      <trkpt lat="42.306" lon="2.72216">
        <ele>230.86</ele>
        <time>2021-07-30T17:29:16Z</time>
      </trkpt>
      <trkpt lat="42.30588" lon="2.72169">
        <ele>230.62</ele>
        <time>2021-07-30T17:29:21Z</time>
      </trkpt>
      <trkpt lat="42.30559" lon="2.72115">
        <ele>229.75</ele>
        <time>2021-07-30T17:29:30Z</time>
      </trkpt>
      <trkpt lat="42.30531" lon="2.7206">
        <ele>229.54</ele>
        <time>2021-07-30T17:29:40Z</time>
      </trkpt>
      <trkpt lat="42.30499" lon="2.72001">
        <ele>229.56</ele>
        <time>2021-07-30T17:29:49Z</time>
      </trkpt>
      <trkpt lat="42.30494" lon="2.7197">
        <ele>229.62</ele>
        <time>2021-07-30T17:29:57Z</time>
      </trkpt>
      <trkpt lat="42.30509" lon="2.71961">
        <ele>229.63</ele>
        <time>2021-07-30T17:30:01Z</time>
      </trkpt>
      <trkpt lat="42.30546" lon="2.71952">
        <ele>230.37</ele>
        <time>2021-07-30T17:30:10Z</time>
      </trkpt>
      <trkpt lat="42.30547" lon="2.71918">
        <ele>231.74</ele>
        <time>2021-07-30T17:30:16Z</time>
      </trkpt>
      <trkpt lat="42.30543" lon="2.71893">
        <ele>232.11</ele>
        <time>2021-07-30T17:30:18Z</time>
      </trkpt>
      <trkpt lat="42.30552" lon="2.71757">
        <ele>233.84</ele>
        <time>2021-07-30T17:30:29Z</time>
      </trkpt>
      <trkpt lat="42.30554" lon="2.71747">
        <ele>233.88</ele>
        <time>2021-07-30T17:30:30Z</time>
      </trkpt>
      <trkpt lat="42.30576" lon="2.71711">
        <ele>233.9</ele>
        <time>2021-07-30T17:30:34Z</time>
      </trkpt>
      <trkpt lat="42.30612" lon="2.71662">
        <ele>233.64</ele>
        <time>2021-07-30T17:30:41Z</time>
      </trkpt>
      <trkpt lat="42.30616" lon="2.71635">
        <ele>232.3</ele>
        <time>2021-07-30T17:30:47Z</time>
      </trkpt>
      <trkpt lat="42.30608" lon="2.71605">
        <ele>231.16</ele>
        <time>2021-07-30T17:30:54Z</time>
      </trkpt>
      <trkpt lat="42.30605" lon="2.71553">
        <ele>231.03</ele>
        <time>2021-07-30T17:31:00Z</time>
      </trkpt>
      <trkpt lat="42.30627" lon="2.71518">
        <ele>232.43</ele>
        <time>2021-07-30T17:31:07Z</time>
      </trkpt>
      <trkpt lat="42.30632" lon="2.71482">
        <ele>233.92</ele>
        <time>2021-07-30T17:31:11Z</time>
      </trkpt>
      <trkpt lat="42.30631" lon="2.71378">
        <ele>237.69</ele>
        <time>2021-07-30T17:31:20Z</time>
      </trkpt>
      <trkpt lat="42.30638" lon="2.71278">
        <ele>240.82</ele>
        <time>2021-07-30T17:31:28Z</time>
      </trkpt>
      <trkpt lat="42.30632" lon="2.71139">
        <ele>243.4</ele>
        <time>2021-07-30T17:31:38Z</time>
      </trkpt>
      <trkpt lat="42.30633" lon="2.71026">
        <ele>246.57</ele>
        <time>2021-07-30T17:31:47Z</time>
      </trkpt>
      <trkpt lat="42.30642" lon="2.70984">
        <ele>247.37</ele>
        <time>2021-07-30T17:31:50Z</time>
      </trkpt>
      <trkpt lat="42.30645" lon="2.7094">
        <ele>247.63</ele>
        <time>2021-07-30T17:31:54Z</time>
      </trkpt>
      <trkpt lat="42.30656" lon="2.7091">
        <ele>245.91</ele>
        <time>2021-07-30T17:32:00Z</time>
      </trkpt>
      <trkpt lat="42.30673" lon="2.70903">
        <ele>242.44</ele>
        <time>2021-07-30T17:32:12Z</time>
      </trkpt>
      <trkpt lat="42.30686" lon="2.70906">
        <ele>241.43</ele>
        <time>2021-07-30T17:32:16Z</time>
      </trkpt>
      <trkpt lat="42.30699" lon="2.70915">
        <ele>240.95</ele>
        <time>2021-07-30T17:32:19Z</time>
      </trkpt>
      <trkpt lat="42.30714" lon="2.70923">
        <ele>240.57</ele>
        <time>2021-07-30T17:32:22Z</time>
      </trkpt>
      <trkpt lat="42.30743" lon="2.70911">
        <ele>240.21</ele>
        <time>2021-07-30T17:32:29Z</time>
      </trkpt>
      <trkpt lat="42.30749" lon="2.70897">
        <ele>240.23</ele>
        <time>2021-07-30T17:32:31Z</time>
      </trkpt>
      <trkpt lat="42.30758" lon="2.70858">
        <ele>240.06</ele>
        <time>2021-07-30T17:32:36Z</time>
      </trkpt>
      <trkpt lat="42.30764" lon="2.7074">
        <ele>239.84</ele>
        <time>2021-07-30T17:32:45Z</time>
      </trkpt>
      <trkpt lat="42.30761" lon="2.70728">
        <ele>239.82</ele>
        <time>2021-07-30T17:32:46Z</time>
      </trkpt>
      <trkpt lat="42.30733" lon="2.70621">
        <ele>239.05</ele>
        <time>2021-07-30T17:32:52Z</time>
      </trkpt>
      <trkpt lat="42.30725" lon="2.70583">
        <ele>238.15</ele>
        <time>2021-07-30T17:32:54Z</time>
      </trkpt>
      <trkpt lat="42.30722" lon="2.70534">
        <ele>237.27</ele>
        <time>2021-07-30T17:32:57Z</time>
      </trkpt>
      <trkpt lat="42.30754" lon="2.70507">
        <ele>237.21</ele>
        <time>2021-07-30T17:33:04Z</time>
      </trkpt>
      <trkpt lat="42.30802" lon="2.70484">
        <ele>239.34</ele>
        <time>2021-07-30T17:33:11Z</time>
      </trkpt>
      <trkpt lat="42.30815" lon="2.70482">
        <ele>240.42</ele>
        <time>2021-07-30T17:33:13Z</time>
      </trkpt>
      <trkpt lat="42.30876" lon="2.70434">
        <ele>242.72</ele>
        <time>2021-07-30T17:33:22Z</time>
      </trkpt>
      <trkpt lat="42.30901" lon="2.7042">
        <ele>241.55</ele>
        <time>2021-07-30T17:33:26Z</time>
      </trkpt>
      <trkpt lat="42.30931" lon="2.7041">
        <ele>241.19</ele>
        <time>2021-07-30T17:33:34Z</time>
      </trkpt>
      <trkpt lat="42.30946" lon="2.70409">
        <ele>241.54</ele>
        <time>2021-07-30T17:33:45Z</time>
      </trkpt>
      <trkpt lat="42.3101" lon="2.70391">
        <ele>242.27</ele>
        <time>2021-07-30T17:33:52Z</time>
      </trkpt>
      <trkpt lat="42.31075" lon="2.70382">
        <ele>245.46</ele>
        <time>2021-07-30T17:34:00Z</time>
      </trkpt>
      <trkpt lat="42.31105" lon="2.70383">
        <ele>247.66</ele>
        <time>2021-07-30T17:34:09Z</time>
      </trkpt>
      <trkpt lat="42.31138" lon="2.70352">
        <ele>248.08</ele>
        <time>2021-07-30T17:34:14Z</time>
      </trkpt>
      <trkpt lat="42.31203" lon="2.70231">
        <ele>247.59</ele>
        <time>2021-07-30T17:34:24Z</time>
      </trkpt>
      <trkpt lat="42.31247" lon="2.70199">
        <ele>248.14</ele>
        <time>2021-07-30T17:34:29Z</time>
      </trkpt>
      <trkpt lat="42.31294" lon="2.70202">
        <ele>247.46</ele>
        <time>2021-07-30T17:34:35Z</time>
      </trkpt>
      <trkpt lat="42.31328" lon="2.70276">
        <ele>246.88</ele>
        <time>2021-07-30T17:34:43Z</time>
      </trkpt>
      <trkpt lat="42.31339" lon="2.70346">
        <ele>249.98</ele>
        <time>2021-07-30T17:34:50Z</time>
      </trkpt>
      <trkpt lat="42.31356" lon="2.7036">
        <ele>250.87</ele>
        <time>2021-07-30T17:34:52Z</time>
      </trkpt>
      <trkpt lat="42.31384" lon="2.70379">
        <ele>251.99</ele>
        <time>2021-07-30T17:34:55Z</time>
      </trkpt>
      <trkpt lat="42.31456" lon="2.70383">
        <ele>253.85</ele>
        <time>2021-07-30T17:35:02Z</time>
      </trkpt>
      <trkpt lat="42.31496" lon="2.70367">
        <ele>255.11</ele>
        <time>2021-07-30T17:35:07Z</time>
      </trkpt>
      <trkpt lat="42.31522" lon="2.70347">
        <ele>255.56</ele>
        <time>2021-07-30T17:35:12Z</time>
      </trkpt>
      <trkpt lat="42.3154" lon="2.70302">
        <ele>257.6</ele>
        <time>2021-07-30T17:35:20Z</time>
      </trkpt>
      <trkpt lat="42.31508" lon="2.70309">
        <ele>259.29</ele>
        <time>2021-07-30T17:35:24Z</time>
      </trkpt>
      <trkpt lat="42.31491" lon="2.70319">
        <ele>260.51</ele>
        <time>2021-07-30T17:35:26Z</time>
      </trkpt>
      <trkpt lat="42.31473" lon="2.70307">
        <ele>263.72</ele>
        <time>2021-07-30T17:35:31Z</time>
      </trkpt>
      <trkpt lat="42.31494" lon="2.70299">
        <ele>266.76</ele>
        <time>2021-07-30T17:35:36Z</time>
      </trkpt>
      <trkpt lat="42.31506" lon="2.70286">
        <ele>267.91</ele>
        <time>2021-07-30T17:35:38Z</time>
      </trkpt>
      <trkpt lat="42.31521" lon="2.7026">
        <ele>271.69</ele>
        <time>2021-07-30T17:35:44Z</time>
      </trkpt>
      <trkpt lat="42.31498" lon="2.70247">
        <ele>274.77</ele>
        <time>2021-07-30T17:35:49Z</time>
      </trkpt>
      <trkpt lat="42.31495" lon="2.70238">
        <ele>275.37</ele>
        <time>2021-07-30T17:35:50Z</time>
      </trkpt>
      <trkpt lat="42.31489" lon="2.70218">
        <ele>276.74</ele>
        <time>2021-07-30T17:35:52Z</time>
      </trkpt>
      <trkpt lat="42.31488" lon="2.70174">
        <ele>280.52</ele>
        <time>2021-07-30T17:35:56Z</time>
      </trkpt>
      <trkpt lat="42.31491" lon="2.70153">
        <ele>282.49</ele>
        <time>2021-07-30T17:35:58Z</time>
      </trkpt>
      <trkpt lat="42.31473" lon="2.7013">
        <ele>287.45</ele>
        <time>2021-07-30T17:36:03Z</time>
      </trkpt>
      <trkpt lat="42.31452" lon="2.70123">
        <ele>290.76</ele>
        <time>2021-07-30T17:36:07Z</time>
      </trkpt>
      <trkpt lat="42.31469" lon="2.70122">
        <ele>293.25</ele>
        <time>2021-07-30T17:36:11Z</time>
      </trkpt>
      <trkpt lat="42.31505" lon="2.70121">
        <ele>296.49</ele>
        <time>2021-07-30T17:36:16Z</time>
      </trkpt>
      <trkpt lat="42.31511" lon="2.70162">
        <ele>298.13</ele>
        <time>2021-07-30T17:36:20Z</time>
      </trkpt>
      <trkpt lat="42.31521" lon="2.70173">
        <ele>299.5</ele>
        <time>2021-07-30T17:36:25Z</time>
      </trkpt>
      <trkpt lat="42.31519" lon="2.70169">
        <ele>299.69</ele>
        <time>2021-07-30T17:36:26Z</time>
      </trkpt>
      <trkpt lat="42.31513" lon="2.70116">
        <ele>301.19</ele>
        <time>2021-07-30T17:36:32Z</time>
      </trkpt>
      <trkpt lat="42.31509" lon="2.70101">
        <ele>302.06</ele>
        <time>2021-07-30T17:36:34Z</time>
      </trkpt>
      <trkpt lat="42.3145" lon="2.70088">
        <ele>305.51</ele>
        <time>2021-07-30T17:36:40Z</time>
      </trkpt>
      <trkpt lat="42.3144" lon="2.70082">
        <ele>306.15</ele>
        <time>2021-07-30T17:36:41Z</time>
      </trkpt>
      <trkpt lat="42.31419" lon="2.70066">
        <ele>308.33</ele>
        <time>2021-07-30T17:36:44Z</time>
      </trkpt>
      <trkpt lat="42.31415" lon="2.70045">
        <ele>312.16</ele>
        <time>2021-07-30T17:36:48Z</time>
      </trkpt>
      <trkpt lat="42.31431" lon="2.70059">
        <ele>314.15</ele>
        <time>2021-07-30T17:36:51Z</time>
      </trkpt>
      <trkpt lat="42.31505" lon="2.70066">
        <ele>318.85</ele>
        <time>2021-07-30T17:36:59Z</time>
      </trkpt>
      <trkpt lat="42.3154" lon="2.70077">
        <ele>320.93</ele>
        <time>2021-07-30T17:37:03Z</time>
      </trkpt>
      <trkpt lat="42.31587" lon="2.70083">
        <ele>324.45</ele>
        <time>2021-07-30T17:37:10Z</time>
      </trkpt>
      <trkpt lat="42.31581" lon="2.70075">
        <ele>326.34</ele>
        <time>2021-07-30T17:37:14Z</time>
      </trkpt>
      <trkpt lat="42.31546" lon="2.70056">
        <ele>328.3</ele>
        <time>2021-07-30T17:37:19Z</time>
      </trkpt>
      <trkpt lat="42.31498" lon="2.70036">
        <ele>331.14</ele>
        <time>2021-07-30T17:37:24Z</time>
      </trkpt>
      <trkpt lat="42.31487" lon="2.70012">
        <ele>335.13</ele>
        <time>2021-07-30T17:37:31Z</time>
      </trkpt>
      <trkpt lat="42.31512" lon="2.70014">
        <ele>336.84</ele>
        <time>2021-07-30T17:37:34Z</time>
      </trkpt>
      <trkpt lat="42.31553" lon="2.70032">
        <ele>339.99</ele>
        <time>2021-07-30T17:37:39Z</time>
      </trkpt>
      <trkpt lat="42.31599" lon="2.70034">
        <ele>342.97</ele>
        <time>2021-07-30T17:37:44Z</time>
      </trkpt>
      <trkpt lat="42.3163" lon="2.70028">
        <ele>345.21</ele>
        <time>2021-07-30T17:37:48Z</time>
      </trkpt>
      <trkpt lat="42.31669" lon="2.70045">
        <ele>349.16</ele>
        <time>2021-07-30T17:37:55Z</time>
      </trkpt>
      <trkpt lat="42.31679" lon="2.70053">
        <ele>352.35</ele>
        <time>2021-07-30T17:38:02Z</time>
      </trkpt>
      <trkpt lat="42.31675" lon="2.70044">
        <ele>353.1</ele>
        <time>2021-07-30T17:38:04Z</time>
      </trkpt>
      <trkpt lat="42.31645" lon="2.7">
        <ele>356.32</ele>
        <time>2021-07-30T17:38:15Z</time>
      </trkpt>
      <trkpt lat="42.31643" lon="2.69995">
        <ele>356.58</ele>
        <time>2021-07-30T17:38:16Z</time>
      </trkpt>
      <trkpt lat="42.31669" lon="2.69976">
        <ele>358.17</ele>
        <time>2021-07-30T17:38:22Z</time>
      </trkpt>
      <trkpt lat="42.31697" lon="2.69928">
        <ele>361.9</ele>
        <time>2021-07-30T17:38:29Z</time>
      </trkpt>
      <trkpt lat="42.31697" lon="2.69909">
        <ele>363.05</ele>
        <time>2021-07-30T17:38:31Z</time>
      </trkpt>
      <trkpt lat="42.31695" lon="2.69883">
        <ele>364.58</ele>
        <time>2021-07-30T17:38:34Z</time>
      </trkpt>
      <trkpt lat="42.31705" lon="2.69834">
        <ele>367.69</ele>
        <time>2021-07-30T17:38:39Z</time>
      </trkpt>
      <trkpt lat="42.31733" lon="2.69783">
        <ele>371.48</ele>
        <time>2021-07-30T17:38:45Z</time>
      </trkpt>
      <trkpt lat="42.31747" lon="2.69758">
        <ele>373.36</ele>
        <time>2021-07-30T17:38:48Z</time>
      </trkpt>
      <trkpt lat="42.31758" lon="2.69718">
        <ele>375.96</ele>
        <time>2021-07-30T17:38:52Z</time>
      </trkpt>
      <trkpt lat="42.31761" lon="2.69679">
        <ele>378.49</ele>
        <time>2021-07-30T17:38:56Z</time>
      </trkpt>
      <trkpt lat="42.31754" lon="2.69638">
        <ele>381.19</ele>
        <time>2021-07-30T17:39:00Z</time>
      </trkpt>
      <trkpt lat="42.3174" lon="2.69606">
        <ele>384.93</ele>
        <time>2021-07-30T17:39:06Z</time>
      </trkpt>
      <trkpt lat="42.31742" lon="2.69575">
        <ele>387.92</ele>
        <time>2021-07-30T17:39:13Z</time>
      </trkpt>
      <trkpt lat="42.31749" lon="2.69571">
        <ele>388.63</ele>
        <time>2021-07-30T17:39:15Z</time>
      </trkpt>
      <trkpt lat="42.3177" lon="2.69586">
        <ele>392.29</ele>
        <time>2021-07-30T17:39:24Z</time>
      </trkpt>
      <trkpt lat="42.31781" lon="2.69625">
        <ele>395.53</ele>
        <time>2021-07-30T17:39:31Z</time>
      </trkpt>
      <trkpt lat="42.31784" lon="2.69628">
        <ele>395.96</ele>
        <time>2021-07-30T17:39:32Z</time>
      </trkpt>
      <trkpt lat="42.31804" lon="2.69603">
        <ele>398.29</ele>
        <time>2021-07-30T17:39:39Z</time>
      </trkpt>
      <trkpt lat="42.31809" lon="2.69586">
        <ele>398.93</ele>
        <time>2021-07-30T17:39:41Z</time>
      </trkpt>
      <trkpt lat="42.31814" lon="2.69558">
        <ele>400.05</ele>
        <time>2021-07-30T17:39:44Z</time>
      </trkpt>
      <trkpt lat="42.31853" lon="2.69479">
        <ele>403.75</ele>
        <time>2021-07-30T17:39:53Z</time>
      </trkpt>
      <trkpt lat="42.31875" lon="2.69429">
        <ele>406.92</ele>
        <time>2021-07-30T17:39:59Z</time>
      </trkpt>
      <trkpt lat="42.31892" lon="2.69392">
        <ele>409.63</ele>
        <time>2021-07-30T17:40:04Z</time>
      </trkpt>
      <trkpt lat="42.31905" lon="2.69373">
        <ele>412.72</ele>
        <time>2021-07-30T17:40:09Z</time>
      </trkpt>
      <trkpt lat="42.31893" lon="2.69381">
        <ele>415.99</ele>
        <time>2021-07-30T17:40:16Z</time>
      </trkpt>
      <trkpt lat="42.31882" lon="2.69394">
        <ele>416.96</ele>
        <time>2021-07-30T17:40:18Z</time>
      </trkpt>
      <trkpt lat="42.31847" lon="2.69429">
        <ele>419.79</ele>
        <time>2021-07-30T17:40:24Z</time>
      </trkpt>
      <trkpt lat="42.31834" lon="2.69413">
        <ele>422.54</ele>
        <time>2021-07-30T17:40:32Z</time>
      </trkpt>
      <trkpt lat="42.31839" lon="2.69402">
        <ele>423.24</ele>
        <time>2021-07-30T17:40:34Z</time>
      </trkpt>
      <trkpt lat="42.31847" lon="2.69389">
        <ele>423.89</ele>
        <time>2021-07-30T17:40:36Z</time>
      </trkpt>
      <trkpt lat="42.3186" lon="2.69333">
        <ele>426.38</ele>
        <time>2021-07-30T17:40:42Z</time>
      </trkpt>
      <trkpt lat="42.31856" lon="2.69265">
        <ele>430.08</ele>
        <time>2021-07-30T17:40:50Z</time>
      </trkpt>
      <trkpt lat="42.31854" lon="2.69249">
        <ele>431.43</ele>
        <time>2021-07-30T17:40:52Z</time>
      </trkpt>
      <trkpt lat="42.31856" lon="2.69207">
        <ele>435.23</ele>
        <time>2021-07-30T17:40:57Z</time>
      </trkpt>
      <trkpt lat="42.31861" lon="2.69175">
        <ele>438.39</ele>
        <time>2021-07-30T17:41:01Z</time>
      </trkpt>
      <trkpt lat="42.31845" lon="2.69142">
        <ele>442.64</ele>
        <time>2021-07-30T17:41:07Z</time>
      </trkpt>
      <trkpt lat="42.31825" lon="2.69124">
        <ele>445.92</ele>
        <time>2021-07-30T17:41:13Z</time>
      </trkpt>
      <trkpt lat="42.31838" lon="2.69124">
        <ele>447.46</ele>
        <time>2021-07-30T17:41:17Z</time>
      </trkpt>
      <trkpt lat="42.31858" lon="2.69137">
        <ele>449.17</ele>
        <time>2021-07-30T17:41:21Z</time>
      </trkpt>
      <trkpt lat="42.31877" lon="2.69158">
        <ele>450.97</ele>
        <time>2021-07-30T17:41:25Z</time>
      </trkpt>
      <trkpt lat="42.31895" lon="2.69185">
        <ele>453.2</ele>
        <time>2021-07-30T17:41:30Z</time>
      </trkpt>
      <trkpt lat="42.31904" lon="2.69177">
        <ele>456</ele>
        <time>2021-07-30T17:41:36Z</time>
      </trkpt>
      <trkpt lat="42.31899" lon="2.69166">
        <ele>456.79</ele>
        <time>2021-07-30T17:41:38Z</time>
      </trkpt>
      <trkpt lat="42.31871" lon="2.69108">
        <ele>460.49</ele>
        <time>2021-07-30T17:41:46Z</time>
      </trkpt>
      <trkpt lat="42.31854" lon="2.69084">
        <ele>463.45</ele>
        <time>2021-07-30T17:41:53Z</time>
      </trkpt>
      <trkpt lat="42.31868" lon="2.69083">
        <ele>465.5</ele>
        <time>2021-07-30T17:41:59Z</time>
      </trkpt>
      <trkpt lat="42.31877" lon="2.69093">
        <ele>466.18</ele>
        <time>2021-07-30T17:42:01Z</time>
      </trkpt>
      <trkpt lat="42.31918" lon="2.69117">
        <ele>469.61</ele>
        <time>2021-07-30T17:42:09Z</time>
      </trkpt>
      <trkpt lat="42.31921" lon="2.69117">
        <ele>470.01</ele>
        <time>2021-07-30T17:42:10Z</time>
      </trkpt>
      <trkpt lat="42.31915" lon="2.69103">
        <ele>472.45</ele>
        <time>2021-07-30T17:42:16Z</time>
      </trkpt>
      <trkpt lat="42.31879" lon="2.69063">
        <ele>476.3</ele>
        <time>2021-07-30T17:42:25Z</time>
      </trkpt>
      <trkpt lat="42.31876" lon="2.69057">
        <ele>476.72</ele>
        <time>2021-07-30T17:42:26Z</time>
      </trkpt>
      <trkpt lat="42.31859" lon="2.68994">
        <ele>480.6</ele>
        <time>2021-07-30T17:42:34Z</time>
      </trkpt>
      <trkpt lat="42.31854" lon="2.68977">
        <ele>481.65</ele>
        <time>2021-07-30T17:42:36Z</time>
      </trkpt>
      <trkpt lat="42.31829" lon="2.68932">
        <ele>485.41</ele>
        <time>2021-07-30T17:42:43Z</time>
      </trkpt>
      <trkpt lat="42.31824" lon="2.68905">
        <ele>488.71</ele>
        <time>2021-07-30T17:42:49Z</time>
      </trkpt>
      <trkpt lat="42.31802" lon="2.68858">
        <ele>492.51</ele>
        <time>2021-07-30T17:42:55Z</time>
      </trkpt>
      <trkpt lat="42.3178" lon="2.68812">
        <ele>495.84</ele>
        <time>2021-07-30T17:42:59Z</time>
      </trkpt>
      <trkpt lat="42.31769" lon="2.68791">
        <ele>497.52</ele>
        <time>2021-07-30T17:43:01Z</time>
      </trkpt>
      <trkpt lat="42.31757" lon="2.68777">
        <ele>499.07</ele>
        <time>2021-07-30T17:43:03Z</time>
      </trkpt>
      <trkpt lat="42.31766" lon="2.68764">
        <ele>501.93</ele>
        <time>2021-07-30T17:43:08Z</time>
      </trkpt>
      <trkpt lat="42.31771" lon="2.68771">
        <ele>502.41</ele>
        <time>2021-07-30T17:43:09Z</time>
      </trkpt>
      <trkpt lat="42.31777" lon="2.68777">
        <ele>502.98</ele>
        <time>2021-07-30T17:43:10Z</time>
      </trkpt>
      <trkpt lat="42.31808" lon="2.68819">
        <ele>505.66</ele>
        <time>2021-07-30T17:43:15Z</time>
      </trkpt>
      <trkpt lat="42.31812" lon="2.6881">
        <ele>508.6</ele>
        <time>2021-07-30T17:43:21Z</time>
      </trkpt>
      <trkpt lat="42.31801" lon="2.68793">
        <ele>509.44</ele>
        <time>2021-07-30T17:43:23Z</time>
      </trkpt>
      <trkpt lat="42.31796" lon="2.68782">
        <ele>509.75</ele>
        <time>2021-07-30T17:43:24Z</time>
      </trkpt>
      <trkpt lat="42.31763" lon="2.68735">
        <ele>512.53</ele>
        <time>2021-07-30T17:43:29Z</time>
      </trkpt>
      <trkpt lat="42.31758" lon="2.68723">
        <ele>513.16</ele>
        <time>2021-07-30T17:43:30Z</time>
      </trkpt>
      <trkpt lat="42.31756" lon="2.68711">
        <ele>513.75</ele>
        <time>2021-07-30T17:43:31Z</time>
      </trkpt>
      <trkpt lat="42.31754" lon="2.68697">
        <ele>514.37</ele>
        <time>2021-07-30T17:43:32Z</time>
      </trkpt>
      <trkpt lat="42.31752" lon="2.68684">
        <ele>515.09</ele>
        <time>2021-07-30T17:43:33Z</time>
      </trkpt>
      <trkpt lat="42.31753" lon="2.68605">
        <ele>519.53</ele>
        <time>2021-07-30T17:43:39Z</time>
      </trkpt>
      <trkpt lat="42.31767" lon="2.68541">
        <ele>523.61</ele>
        <time>2021-07-30T17:43:45Z</time>
      </trkpt>
      <trkpt lat="42.31769" lon="2.68529">
        <ele>524.28</ele>
        <time>2021-07-30T17:43:46Z</time>
      </trkpt>
      <trkpt lat="42.31772" lon="2.68479">
        <ele>527.31</ele>
        <time>2021-07-30T17:43:50Z</time>
      </trkpt>
      <trkpt lat="42.31786" lon="2.68421">
        <ele>531.28</ele>
        <time>2021-07-30T17:43:55Z</time>
      </trkpt>
      <trkpt lat="42.31784" lon="2.68396">
        <ele>533.02</ele>
        <time>2021-07-30T17:43:57Z</time>
      </trkpt>
      <trkpt lat="42.31782" lon="2.6837">
        <ele>534.64</ele>
        <time>2021-07-30T17:43:59Z</time>
      </trkpt>
      <trkpt lat="42.31782" lon="2.68337">
        <ele>537.14</ele>
        <time>2021-07-30T17:44:02Z</time>
      </trkpt>
      <trkpt lat="42.31763" lon="2.68312">
        <ele>540.83</ele>
        <time>2021-07-30T17:44:06Z</time>
      </trkpt>
      <trkpt lat="42.31735" lon="2.68273">
        <ele>544.76</ele>
        <time>2021-07-30T17:44:11Z</time>
      </trkpt>
      <trkpt lat="42.31701" lon="2.68242">
        <ele>549.6</ele>
        <time>2021-07-30T17:44:16Z</time>
      </trkpt>
      <trkpt lat="42.31691" lon="2.68239">
        <ele>550.67</ele>
        <time>2021-07-30T17:44:17Z</time>
      </trkpt>
      <trkpt lat="42.31661" lon="2.68225">
        <ele>554.21</ele>
        <time>2021-07-30T17:44:21Z</time>
      </trkpt>
      <trkpt lat="42.31642" lon="2.68244">
        <ele>557.33</ele>
        <time>2021-07-30T17:44:25Z</time>
      </trkpt>
      <trkpt lat="42.31626" lon="2.68269">
        <ele>559.2</ele>
        <time>2021-07-30T17:44:28Z</time>
      </trkpt>
      <trkpt lat="42.3158" lon="2.68267">
        <ele>563.2</ele>
        <time>2021-07-30T17:44:35Z</time>
      </trkpt>
      <trkpt lat="42.31568" lon="2.68235">
        <ele>564.88</ele>
        <time>2021-07-30T17:44:38Z</time>
      </trkpt>
      <trkpt lat="42.31555" lon="2.68205">
        <ele>566.77</ele>
        <time>2021-07-30T17:44:41Z</time>
      </trkpt>
      <trkpt lat="42.3154" lon="2.68187">
        <ele>568.78</ele>
        <time>2021-07-30T17:44:44Z</time>
      </trkpt>
      <trkpt lat="42.31546" lon="2.68148">
        <ele>572.38</ele>
        <time>2021-07-30T17:44:51Z</time>
      </trkpt>
      <trkpt lat="42.31542" lon="2.68128">
        <ele>573.34</ele>
        <time>2021-07-30T17:44:53Z</time>
      </trkpt>
      <trkpt lat="42.31546" lon="2.68045">
        <ele>577.6</ele>
        <time>2021-07-30T17:45:00Z</time>
      </trkpt>
      <trkpt lat="42.31548" lon="2.68034">
        <ele>578.29</ele>
        <time>2021-07-30T17:45:01Z</time>
      </trkpt>
      <trkpt lat="42.31574" lon="2.67981">
        <ele>582.67</ele>
        <time>2021-07-30T17:45:06Z</time>
      </trkpt>
      <trkpt lat="42.31585" lon="2.67964">
        <ele>584.2</ele>
        <time>2021-07-30T17:45:08Z</time>
      </trkpt>
      <trkpt lat="42.316" lon="2.67895">
        <ele>588.44</ele>
        <time>2021-07-30T17:45:14Z</time>
      </trkpt>
      <trkpt lat="42.31605" lon="2.67874">
        <ele>589.87</ele>
        <time>2021-07-30T17:45:16Z</time>
      </trkpt>
      <trkpt lat="42.31618" lon="2.67823">
        <ele>593.63</ele>
        <time>2021-07-30T17:45:21Z</time>
      </trkpt>
      <trkpt lat="42.31621" lon="2.67797">
        <ele>595.21</ele>
        <time>2021-07-30T17:45:23Z</time>
      </trkpt>
      <trkpt lat="42.3164" lon="2.67731">
        <ele>599.54</ele>
        <time>2021-07-30T17:45:29Z</time>
      </trkpt>
      <trkpt lat="42.31644" lon="2.67722">
        <ele>601.09</ele>
        <time>2021-07-30T17:45:31Z</time>
      </trkpt>
      <trkpt lat="42.31651" lon="2.67745">
        <ele>604.67</ele>
        <time>2021-07-30T17:45:37Z</time>
      </trkpt>
      <trkpt lat="42.31651" lon="2.67817">
        <ele>608.42</ele>
        <time>2021-07-30T17:45:43Z</time>
      </trkpt>
      <trkpt lat="42.31651" lon="2.6783">
        <ele>609.17</ele>
        <time>2021-07-30T17:45:44Z</time>
      </trkpt>
      <trkpt lat="42.3165" lon="2.67898">
        <ele>613.1</ele>
        <time>2021-07-30T17:45:49Z</time>
      </trkpt>
      <trkpt lat="42.31656" lon="2.67972">
        <ele>616.88</ele>
        <time>2021-07-30T17:45:54Z</time>
      </trkpt>
      <trkpt lat="42.31654" lon="2.68008">
        <ele>619.42</ele>
        <time>2021-07-30T17:45:57Z</time>
      </trkpt>
      <trkpt lat="42.31661" lon="2.68016">
        <ele>623.52</ele>
        <time>2021-07-30T17:46:03Z</time>
      </trkpt>
      <trkpt lat="42.31661" lon="2.68008">
        <ele>623.95</ele>
        <time>2021-07-30T17:46:04Z</time>
      </trkpt>
      <trkpt lat="42.31664" lon="2.67982">
        <ele>625.27</ele>
        <time>2021-07-30T17:46:07Z</time>
      </trkpt>
      <trkpt lat="42.31673" lon="2.67874">
        <ele>628.25</ele>
        <time>2021-07-30T17:46:17Z</time>
      </trkpt>
      <trkpt lat="42.31683" lon="2.67824">
        <ele>629.26</ele>
        <time>2021-07-30T17:46:21Z</time>
      </trkpt>
      <trkpt lat="42.31692" lon="2.67707">
        <ele>633.19</ele>
        <time>2021-07-30T17:46:30Z</time>
      </trkpt>
      <trkpt lat="42.31696" lon="2.67644">
        <ele>636.62</ele>
        <time>2021-07-30T17:46:36Z</time>
      </trkpt>
      <trkpt lat="42.31697" lon="2.67626">
        <ele>637.65</ele>
        <time>2021-07-30T17:46:38Z</time>
      </trkpt>
      <trkpt lat="42.31679" lon="2.67584">
        <ele>640.04</ele>
        <time>2021-07-30T17:46:43Z</time>
      </trkpt>
      <trkpt lat="42.31673" lon="2.67575">
        <ele>640.31</ele>
        <time>2021-07-30T17:46:44Z</time>
      </trkpt>
      <trkpt lat="42.31653" lon="2.67515">
        <ele>641.7</ele>
        <time>2021-07-30T17:46:50Z</time>
      </trkpt>
      <trkpt lat="42.31652" lon="2.67493">
        <ele>642.27</ele>
        <time>2021-07-30T17:46:52Z</time>
      </trkpt>
      <trkpt lat="42.31648" lon="2.67471">
        <ele>643.28</ele>
        <time>2021-07-30T17:46:55Z</time>
      </trkpt>
      <trkpt lat="42.31633" lon="2.67446">
        <ele>644.9</ele>
        <time>2021-07-30T17:46:59Z</time>
      </trkpt>
      <trkpt lat="42.31601" lon="2.67428">
        <ele>646.77</ele>
        <time>2021-07-30T17:47:03Z</time>
      </trkpt>
      <trkpt lat="42.31571" lon="2.6741">
        <ele>648.18</ele>
        <time>2021-07-30T17:47:07Z</time>
      </trkpt>
      <trkpt lat="42.31544" lon="2.67408">
        <ele>649.25</ele>
        <time>2021-07-30T17:47:11Z</time>
      </trkpt>
      <trkpt lat="42.315" lon="2.6743">
        <ele>649.78</ele>
        <time>2021-07-30T17:47:17Z</time>
      </trkpt>
      <trkpt lat="42.31463" lon="2.67476">
        <ele>649.82</ele>
        <time>2021-07-30T17:47:24Z</time>
      </trkpt>
      <trkpt lat="42.31424" lon="2.67486">
        <ele>649.16</ele>
        <time>2021-07-30T17:47:30Z</time>
      </trkpt>
      <trkpt lat="42.31393" lon="2.67466">
        <ele>648.44</ele>
        <time>2021-07-30T17:47:36Z</time>
      </trkpt>
      <trkpt lat="42.31363" lon="2.67441">
        <ele>648.28</ele>
        <time>2021-07-30T17:47:41Z</time>
      </trkpt>
      <trkpt lat="42.31341" lon="2.67428">
        <ele>648.19</ele>
        <time>2021-07-30T17:47:45Z</time>
      </trkpt>
      <trkpt lat="42.3132" lon="2.67371">
        <ele>649.26</ele>
        <time>2021-07-30T17:47:54Z</time>
      </trkpt>
      <trkpt lat="42.31322" lon="2.67362">
        <ele>649.5</ele>
        <time>2021-07-30T17:47:55Z</time>
      </trkpt>
      <trkpt lat="42.31325" lon="2.67354">
        <ele>649.82</ele>
        <time>2021-07-30T17:47:56Z</time>
      </trkpt>
      <trkpt lat="42.31328" lon="2.67346">
        <ele>650.28</ele>
        <time>2021-07-30T17:47:57Z</time>
      </trkpt>
      <trkpt lat="42.31332" lon="2.67337">
        <ele>650.79</ele>
        <time>2021-07-30T17:47:58Z</time>
      </trkpt>
      <trkpt lat="42.31336" lon="2.67328">
        <ele>651.25</ele>
        <time>2021-07-30T17:47:59Z</time>
      </trkpt>
      <trkpt lat="42.31339" lon="2.67318">
        <ele>651.7</ele>
        <time>2021-07-30T17:48:00Z</time>
      </trkpt>
      <trkpt lat="42.31342" lon="2.67306">
        <ele>652.26</ele>
        <time>2021-07-30T17:48:01Z</time>
      </trkpt>
      <trkpt lat="42.31343" lon="2.67293">
        <ele>652.84</ele>
        <time>2021-07-30T17:48:02Z</time>
      </trkpt>
      <trkpt lat="42.31344" lon="2.67279">
        <ele>653.32</ele>
        <time>2021-07-30T17:48:03Z</time>
      </trkpt>
      <trkpt lat="42.31345" lon="2.67266">
        <ele>653.7</ele>
        <time>2021-07-30T17:48:04Z</time>
      </trkpt>
      <trkpt lat="42.31349" lon="2.67223">
        <ele>655.26</ele>
        <time>2021-07-30T17:48:08Z</time>
      </trkpt>
      <trkpt lat="42.31352" lon="2.67213">
        <ele>655.58</ele>
        <time>2021-07-30T17:48:09Z</time>
      </trkpt>
      <trkpt lat="42.31356" lon="2.67202">
        <ele>655.85</ele>
        <time>2021-07-30T17:48:10Z</time>
      </trkpt>
      <trkpt lat="42.31365" lon="2.67157">
        <ele>656.68</ele>
        <time>2021-07-30T17:48:14Z</time>
      </trkpt>
      <trkpt lat="42.31365" lon="2.6711">
        <ele>657.37</ele>
        <time>2021-07-30T17:48:19Z</time>
      </trkpt>
      <trkpt lat="42.31358" lon="2.67075">
        <ele>657.26</ele>
        <time>2021-07-30T17:48:23Z</time>
      </trkpt>
      <trkpt lat="42.31365" lon="2.67001">
        <ele>656.14</ele>
        <time>2021-07-30T17:48:30Z</time>
      </trkpt>
      <trkpt lat="42.31394" lon="2.66927">
        <ele>655.31</ele>
        <time>2021-07-30T17:48:38Z</time>
      </trkpt>
      <trkpt lat="42.31413" lon="2.66802">
        <ele>656.59</ele>
        <time>2021-07-30T17:48:49Z</time>
      </trkpt>
      <trkpt lat="42.31447" lon="2.66776">
        <ele>659.01</ele>
        <time>2021-07-30T17:48:57Z</time>
      </trkpt>
      <trkpt lat="42.31473" lon="2.66764">
        <ele>660.73</ele>
        <time>2021-07-30T17:49:03Z</time>
      </trkpt>
      <trkpt lat="42.31482" lon="2.66749">
        <ele>661.3</ele>
        <time>2021-07-30T17:49:05Z</time>
      </trkpt>
      <trkpt lat="42.31499" lon="2.66656">
        <ele>663.5</ele>
        <time>2021-07-30T17:49:12Z</time>
      </trkpt>
      <trkpt lat="42.31499" lon="2.66619">
        <ele>664.47</ele>
        <time>2021-07-30T17:49:15Z</time>
      </trkpt>
      <trkpt lat="42.31497" lon="2.66595">
        <ele>664.82</ele>
        <time>2021-07-30T17:49:17Z</time>
      </trkpt>
      <trkpt lat="42.31496" lon="2.66537">
        <ele>665.72</ele>
        <time>2021-07-30T17:49:23Z</time>
      </trkpt>
      <trkpt lat="42.31498" lon="2.66528">
        <ele>665.95</ele>
        <time>2021-07-30T17:49:24Z</time>
      </trkpt>
      <trkpt lat="42.31502" lon="2.66508">
        <ele>666.47</ele>
        <time>2021-07-30T17:49:26Z</time>
      </trkpt>
      <trkpt lat="42.31503" lon="2.66498">
        <ele>666.75</ele>
        <time>2021-07-30T17:49:27Z</time>
      </trkpt>
      <trkpt lat="42.31507" lon="2.66449">
        <ele>668.74</ele>
        <time>2021-07-30T17:49:32Z</time>
      </trkpt>
      <trkpt lat="42.31506" lon="2.6644">
        <ele>669.15</ele>
        <time>2021-07-30T17:49:33Z</time>
      </trkpt>
      <trkpt lat="42.31503" lon="2.6643">
        <ele>669.66</ele>
        <time>2021-07-30T17:49:34Z</time>
      </trkpt>
      <trkpt lat="42.315" lon="2.6642">
        <ele>670.14</ele>
        <time>2021-07-30T17:49:35Z</time>
      </trkpt>
      <trkpt lat="42.31497" lon="2.6641">
        <ele>670.65</ele>
        <time>2021-07-30T17:49:36Z</time>
      </trkpt>
      <trkpt lat="42.31479" lon="2.66365">
        <ele>673.39</ele>
        <time>2021-07-30T17:49:41Z</time>
      </trkpt>
      <trkpt lat="42.31474" lon="2.66326">
        <ele>675.44</ele>
        <time>2021-07-30T17:49:45Z</time>
      </trkpt>
      <trkpt lat="42.31478" lon="2.66266">
        <ele>677.23</ele>
        <time>2021-07-30T17:49:50Z</time>
      </trkpt>
      <trkpt lat="42.3148" lon="2.66203">
        <ele>678.09</ele>
        <time>2021-07-30T17:49:56Z</time>
      </trkpt>
      <trkpt lat="42.31446" lon="2.66166">
        <ele>678.81</ele>
        <time>2021-07-30T17:50:03Z</time>
      </trkpt>
      <trkpt lat="42.3144" lon="2.66161">
        <ele>678.91</ele>
        <time>2021-07-30T17:50:04Z</time>
      </trkpt>
      <trkpt lat="42.3142" lon="2.66146">
        <ele>679.24</ele>
        <time>2021-07-30T17:50:07Z</time>
      </trkpt>
      <trkpt lat="42.31387" lon="2.66102">
        <ele>679.85</ele>
        <time>2021-07-30T17:50:15Z</time>
      </trkpt>
      <trkpt lat="42.31379" lon="2.66109">
        <ele>680.07</ele>
        <time>2021-07-30T17:50:17Z</time>
      </trkpt>
      <trkpt lat="42.31346" lon="2.66115">
        <ele>680.57</ele>
        <time>2021-07-30T17:50:23Z</time>
      </trkpt>
      <trkpt lat="42.31322" lon="2.66102">
        <ele>680.89</ele>
        <time>2021-07-30T17:50:26Z</time>
      </trkpt>
      <trkpt lat="42.31241" lon="2.66098">
        <ele>682.8</ele>
        <time>2021-07-30T17:50:35Z</time>
      </trkpt>
      <trkpt lat="42.31226" lon="2.66096">
        <ele>683.03</ele>
        <time>2021-07-30T17:50:37Z</time>
      </trkpt>
      <trkpt lat="42.31195" lon="2.66085">
        <ele>683.1</ele>
        <time>2021-07-30T17:50:41Z</time>
      </trkpt>
      <trkpt lat="42.31115" lon="2.66077">
        <ele>683.44</ele>
        <time>2021-07-30T17:50:50Z</time>
      </trkpt>
      <trkpt lat="42.31099" lon="2.66075">
        <ele>683.65</ele>
        <time>2021-07-30T17:50:52Z</time>
      </trkpt>
      <trkpt lat="42.31066" lon="2.66073">
        <ele>685.87</ele>
        <time>2021-07-30T17:51:00Z</time>
      </trkpt>
      <trkpt lat="42.31045" lon="2.66029">
        <ele>687.97</ele>
        <time>2021-07-30T17:51:07Z</time>
      </trkpt>
      <trkpt lat="42.31045" lon="2.66016">
        <ele>688.38</ele>
        <time>2021-07-30T17:51:08Z</time>
      </trkpt>
      <trkpt lat="42.31051" lon="2.65911">
        <ele>692.06</ele>
        <time>2021-07-30T17:51:17Z</time>
      </trkpt>
      <trkpt lat="42.31058" lon="2.65847">
        <ele>695.57</ele>
        <time>2021-07-30T17:51:24Z</time>
      </trkpt>
      <trkpt lat="42.31054" lon="2.65838">
        <ele>695.97</ele>
        <time>2021-07-30T17:51:25Z</time>
      </trkpt>
      <trkpt lat="42.31047" lon="2.65817">
        <ele>696.61</ele>
        <time>2021-07-30T17:51:27Z</time>
      </trkpt>
      <trkpt lat="42.3103" lon="2.65712">
        <ele>700.2</ele>
        <time>2021-07-30T17:51:37Z</time>
      </trkpt>
      <trkpt lat="42.31027" lon="2.65681">
        <ele>702.06</ele>
        <time>2021-07-30T17:51:40Z</time>
      </trkpt>
      <trkpt lat="42.30997" lon="2.65586">
        <ele>704.29</ele>
        <time>2021-07-30T17:51:49Z</time>
      </trkpt>
      <trkpt lat="42.30972" lon="2.65539">
        <ele>703.33</ele>
        <time>2021-07-30T17:51:54Z</time>
      </trkpt>
      <trkpt lat="42.30945" lon="2.65516">
        <ele>701.15</ele>
        <time>2021-07-30T17:51:58Z</time>
      </trkpt>
      <trkpt lat="42.30919" lon="2.65465">
        <ele>697.15</ele>
        <time>2021-07-30T17:52:05Z</time>
      </trkpt>
      <trkpt lat="42.30897" lon="2.65426">
        <ele>696.1</ele>
        <time>2021-07-30T17:52:11Z</time>
      </trkpt>
      <trkpt lat="42.30864" lon="2.6541">
        <ele>695.2</ele>
        <time>2021-07-30T17:52:16Z</time>
      </trkpt>
      <trkpt lat="42.30826" lon="2.65422">
        <ele>693.86</ele>
        <time>2021-07-30T17:52:22Z</time>
      </trkpt>
      <trkpt lat="42.30711" lon="2.65467">
        <ele>692.02</ele>
        <time>2021-07-30T17:52:34Z</time>
      </trkpt>
      <trkpt lat="42.30639" lon="2.65486">
        <ele>689.61</ele>
        <time>2021-07-30T17:52:41Z</time>
      </trkpt>
      <trkpt lat="42.30594" lon="2.655">
        <ele>686.51</ele>
        <time>2021-07-30T17:52:47Z</time>
      </trkpt>
      <trkpt lat="42.30525" lon="2.65536">
        <ele>682.91</ele>
        <time>2021-07-30T17:52:55Z</time>
      </trkpt>
      <trkpt lat="42.30472" lon="2.65561">
        <ele>679.46</ele>
        <time>2021-07-30T17:53:01Z</time>
      </trkpt>
      <trkpt lat="42.30425" lon="2.65597">
        <ele>675.92</ele>
        <time>2021-07-30T17:53:07Z</time>
      </trkpt>
      <trkpt lat="42.30413" lon="2.6561">
        <ele>672.87</ele>
        <time>2021-07-30T17:53:11Z</time>
      </trkpt>
      <trkpt lat="42.30413" lon="2.65612">
        <ele>669.7</ele>
        <time>2021-07-30T17:53:17Z</time>
      </trkpt>
      <trkpt lat="42.30412" lon="2.65613">
        <ele>668.86</ele>
        <time>2021-07-30T17:53:19Z</time>
      </trkpt>
      <trkpt lat="42.30403" lon="2.65618">
        <ele>668.05</ele>
        <time>2021-07-30T17:53:24Z</time>
      </trkpt>
      <trkpt lat="42.30396" lon="2.65629">
        <ele>667.16</ele>
        <time>2021-07-30T17:53:28Z</time>
      </trkpt>
      <trkpt lat="42.30387" lon="2.65658">
        <ele>666.62</ele>
        <time>2021-07-30T17:53:32Z</time>
      </trkpt>
      <trkpt lat="42.30372" lon="2.65693">
        <ele>665.41</ele>
        <time>2021-07-30T17:53:36Z</time>
      </trkpt>
      <trkpt lat="42.30331" lon="2.65755">
        <ele>663.5</ele>
        <time>2021-07-30T17:53:45Z</time>
      </trkpt>
      <trkpt lat="42.30314" lon="2.65744">
        <ele>661.82</ele>
        <time>2021-07-30T17:53:52Z</time>
      </trkpt>
      <trkpt lat="42.30313" lon="2.65739">
        <ele>661.58</ele>
        <time>2021-07-30T17:53:53Z</time>
      </trkpt>
      <trkpt lat="42.30311" lon="2.65721">
        <ele>660.9</ele>
        <time>2021-07-30T17:53:56Z</time>
      </trkpt>
      <trkpt lat="42.30298" lon="2.65683">
        <ele>659.62</ele>
        <time>2021-07-30T17:54:02Z</time>
      </trkpt>
      <trkpt lat="42.30285" lon="2.65664">
        <ele>658.29</ele>
        <time>2021-07-30T17:54:07Z</time>
      </trkpt>
      <trkpt lat="42.30262" lon="2.6565">
        <ele>656.18</ele>
        <time>2021-07-30T17:54:14Z</time>
      </trkpt>
      <trkpt lat="42.30272" lon="2.6564">
        <ele>654.1</ele>
        <time>2021-07-30T17:54:21Z</time>
      </trkpt>
      <trkpt lat="42.30275" lon="2.65642">
        <ele>653.81</ele>
        <time>2021-07-30T17:54:22Z</time>
      </trkpt>
      <trkpt lat="42.3029" lon="2.65651">
        <ele>653.04</ele>
        <time>2021-07-30T17:54:25Z</time>
      </trkpt>
      <trkpt lat="42.303" lon="2.65659">
        <ele>652.42</ele>
        <time>2021-07-30T17:54:27Z</time>
      </trkpt>
      <trkpt lat="42.30318" lon="2.6568">
        <ele>651.29</ele>
        <time>2021-07-30T17:54:31Z</time>
      </trkpt>
      <trkpt lat="42.30333" lon="2.65707">
        <ele>648.6</ele>
        <time>2021-07-30T17:54:39Z</time>
      </trkpt>
      <trkpt lat="42.30343" lon="2.65689">
        <ele>647.4</ele>
        <time>2021-07-30T17:54:44Z</time>
      </trkpt>
      <trkpt lat="42.30354" lon="2.65618">
        <ele>643.98</ele>
        <time>2021-07-30T17:54:56Z</time>
      </trkpt>
      <trkpt lat="42.30366" lon="2.65555">
        <ele>640.04</ele>
        <time>2021-07-30T17:55:06Z</time>
      </trkpt>
      <trkpt lat="42.30381" lon="2.65529">
        <ele>637.9</ele>
        <time>2021-07-30T17:55:11Z</time>
      </trkpt>
      <trkpt lat="42.30395" lon="2.65502">
        <ele>636.43</ele>
        <time>2021-07-30T17:55:16Z</time>
      </trkpt>
      <trkpt lat="42.30416" lon="2.65475">
        <ele>634.96</ele>
        <time>2021-07-30T17:55:21Z</time>
      </trkpt>
      <trkpt lat="42.30427" lon="2.65456">
        <ele>633.85</ele>
        <time>2021-07-30T17:55:24Z</time>
      </trkpt>
      <trkpt lat="42.30435" lon="2.65445">
        <ele>633.04</ele>
        <time>2021-07-30T17:55:26Z</time>
      </trkpt>
      <trkpt lat="42.30454" lon="2.65433">
        <ele>631.31</ele>
        <time>2021-07-30T17:55:30Z</time>
      </trkpt>
      <trkpt lat="42.30466" lon="2.65424">
        <ele>630.42</ele>
        <time>2021-07-30T17:55:33Z</time>
      </trkpt>
      <trkpt lat="42.30477" lon="2.65417">
        <ele>629.51</ele>
        <time>2021-07-30T17:55:36Z</time>
      </trkpt>
      <trkpt lat="42.30467" lon="2.65407">
        <ele>628.08</ele>
        <time>2021-07-30T17:55:42Z</time>
      </trkpt>
      <trkpt lat="42.30463" lon="2.65409">
        <ele>627.69</ele>
        <time>2021-07-30T17:55:43Z</time>
      </trkpt>
      <trkpt lat="42.30454" lon="2.65414">
        <ele>627.05</ele>
        <time>2021-07-30T17:55:45Z</time>
      </trkpt>
      <trkpt lat="42.3044" lon="2.65412">
        <ele>623.79</ele>
        <time>2021-07-30T17:55:54Z</time>
      </trkpt>
      <trkpt lat="42.30457" lon="2.65376">
        <ele>620.64</ele>
        <time>2021-07-30T17:56:01Z</time>
      </trkpt>
      <trkpt lat="42.30447" lon="2.65377">
        <ele>617.79</ele>
        <time>2021-07-30T17:56:07Z</time>
      </trkpt>
      <trkpt lat="42.3042" lon="2.65385">
        <ele>618.19</ele>
        <time>2021-07-30T17:56:16Z</time>
      </trkpt>
      <trkpt lat="42.30401" lon="2.65382">
        <ele>619.42</ele>
        <time>2021-07-30T17:56:20Z</time>
      </trkpt>
      <trkpt lat="42.30381" lon="2.65384">
        <ele>620.69</ele>
        <time>2021-07-30T17:56:24Z</time>
      </trkpt>
      <trkpt lat="42.30342" lon="2.65402">
        <ele>622.35</ele>
        <time>2021-07-30T17:56:29Z</time>
      </trkpt>
      <trkpt lat="42.30299" lon="2.65433">
        <ele>624.4</ele>
        <time>2021-07-30T17:56:35Z</time>
      </trkpt>
      <trkpt lat="42.30288" lon="2.65436">
        <ele>625.3</ele>
        <time>2021-07-30T17:56:37Z</time>
      </trkpt>
      <trkpt lat="42.30274" lon="2.65399">
        <ele>626.22</ele>
        <time>2021-07-30T17:56:42Z</time>
      </trkpt>
      <trkpt lat="42.30272" lon="2.6538">
        <ele>626.64</ele>
        <time>2021-07-30T17:56:44Z</time>
      </trkpt>
      <trkpt lat="42.30283" lon="2.65298">
        <ele>627.62</ele>
        <time>2021-07-30T17:56:53Z</time>
      </trkpt>
      <trkpt lat="42.3028" lon="2.65256">
        <ele>627.62</ele>
        <time>2021-07-30T17:56:58Z</time>
      </trkpt>
      <trkpt lat="42.30261" lon="2.6515">
        <ele>627.43</ele>
        <time>2021-07-30T17:57:11Z</time>
      </trkpt>
      <trkpt lat="42.30251" lon="2.65094">
        <ele>626.59</ele>
        <time>2021-07-30T17:57:17Z</time>
      </trkpt>
      <trkpt lat="42.30251" lon="2.65075">
        <ele>626.36</ele>
        <time>2021-07-30T17:57:19Z</time>
      </trkpt>
      <trkpt lat="42.30243" lon="2.65032">
        <ele>625.74</ele>
        <time>2021-07-30T17:57:23Z</time>
      </trkpt>
      <trkpt lat="42.30251" lon="2.64978">
        <ele>624.82</ele>
        <time>2021-07-30T17:57:30Z</time>
      </trkpt>
      <trkpt lat="42.30256" lon="2.64965">
        <ele>624.41</ele>
        <time>2021-07-30T17:57:33Z</time>
      </trkpt>
      <trkpt lat="42.30246" lon="2.64964">
        <ele>623.89</ele>
        <time>2021-07-30T17:57:38Z</time>
      </trkpt>
      <trkpt lat="42.30214" lon="2.6499">
        <ele>626.2</ele>
        <time>2021-07-30T17:57:48Z</time>
      </trkpt>
      <trkpt lat="42.30207" lon="2.65032">
        <ele>628.91</ele>
        <time>2021-07-30T17:57:56Z</time>
      </trkpt>
      <trkpt lat="42.30197" lon="2.65055">
        <ele>630.34</ele>
        <time>2021-07-30T17:58:00Z</time>
      </trkpt>
      <trkpt lat="42.3019" lon="2.65088">
        <ele>631.77</ele>
        <time>2021-07-30T17:58:04Z</time>
      </trkpt>
      <trkpt lat="42.30186" lon="2.65133">
        <ele>635.02</ele>
        <time>2021-07-30T17:58:11Z</time>
      </trkpt>
      <trkpt lat="42.30178" lon="2.65121">
        <ele>638</ele>
        <time>2021-07-30T17:58:17Z</time>
      </trkpt>
      <trkpt lat="42.30167" lon="2.65088">
        <ele>641.55</ele>
        <time>2021-07-30T17:58:27Z</time>
      </trkpt>
      <trkpt lat="42.30165" lon="2.65078">
        <ele>642.4</ele>
        <time>2021-07-30T17:58:29Z</time>
      </trkpt>
      <trkpt lat="42.30168" lon="2.65007">
        <ele>645.92</ele>
        <time>2021-07-30T17:58:39Z</time>
      </trkpt>
      <trkpt lat="42.30172" lon="2.64965">
        <ele>647.81</ele>
        <time>2021-07-30T17:58:44Z</time>
      </trkpt>
      <trkpt lat="42.30177" lon="2.6494">
        <ele>649.78</ele>
        <time>2021-07-30T17:58:48Z</time>
      </trkpt>
      <trkpt lat="42.30176" lon="2.6491">
        <ele>651.74</ele>
        <time>2021-07-30T17:58:52Z</time>
      </trkpt>
      <trkpt lat="42.30176" lon="2.64887">
        <ele>653.12</ele>
        <time>2021-07-30T17:58:55Z</time>
      </trkpt>
      <trkpt lat="42.3018" lon="2.64866">
        <ele>654.69</ele>
        <time>2021-07-30T17:58:58Z</time>
      </trkpt>
      <trkpt lat="42.30184" lon="2.64826">
        <ele>657.28</ele>
        <time>2021-07-30T17:59:03Z</time>
      </trkpt>
      <trkpt lat="42.30177" lon="2.64796">
        <ele>659.97</ele>
        <time>2021-07-30T17:59:07Z</time>
      </trkpt>
      <trkpt lat="42.3017" lon="2.64781">
        <ele>661.26</ele>
        <time>2021-07-30T17:59:09Z</time>
      </trkpt>
      <trkpt lat="42.30155" lon="2.64739">
        <ele>665.41</ele>
        <time>2021-07-30T17:59:16Z</time>
      </trkpt>
      <trkpt lat="42.30139" lon="2.64734">
        <ele>668.45</ele>
        <time>2021-07-30T17:59:22Z</time>
      </trkpt>
      <trkpt lat="42.30115" lon="2.64704">
        <ele>670.81</ele>
        <time>2021-07-30T17:59:29Z</time>
      </trkpt>
      <trkpt lat="42.30098" lon="2.64685">
        <ele>672.63</ele>
        <time>2021-07-30T17:59:33Z</time>
      </trkpt>
      <trkpt lat="42.30072" lon="2.64642">
        <ele>676.32</ele>
        <time>2021-07-30T17:59:41Z</time>
      </trkpt>
      <trkpt lat="42.30069" lon="2.64589">
        <ele>679.45</ele>
        <time>2021-07-30T17:59:50Z</time>
      </trkpt>
      <trkpt lat="42.3007" lon="2.6457">
        <ele>680.25</ele>
        <time>2021-07-30T17:59:52Z</time>
      </trkpt>
      <trkpt lat="42.30073" lon="2.64543">
        <ele>681.48</ele>
        <time>2021-07-30T17:59:55Z</time>
      </trkpt>
      <trkpt lat="42.30073" lon="2.64535">
        <ele>681.63</ele>
        <time>2021-07-30T17:59:56Z</time>
      </trkpt>
      <trkpt lat="42.30066" lon="2.64506">
        <ele>682.4</ele>
        <time>2021-07-30T18:00:00Z</time>
      </trkpt>
      <trkpt lat="42.3006" lon="2.64472">
        <ele>682.64</ele>
        <time>2021-07-30T18:00:04Z</time>
      </trkpt>
      <trkpt lat="42.30048" lon="2.64442">
        <ele>682.66</ele>
        <time>2021-07-30T18:00:08Z</time>
      </trkpt>
      <trkpt lat="42.30044" lon="2.64408">
        <ele>682.61</ele>
        <time>2021-07-30T18:00:13Z</time>
      </trkpt>
      <trkpt lat="42.30049" lon="2.64382">
        <ele>682.75</ele>
        <time>2021-07-30T18:00:16Z</time>
      </trkpt>
      <trkpt lat="42.30054" lon="2.64317">
        <ele>683.42</ele>
        <time>2021-07-30T18:00:23Z</time>
      </trkpt>
      <trkpt lat="42.30047" lon="2.6429">
        <ele>684.32</ele>
        <time>2021-07-30T18:00:27Z</time>
      </trkpt>
      <trkpt lat="42.30048" lon="2.64258">
        <ele>685.46</ele>
        <time>2021-07-30T18:00:31Z</time>
      </trkpt>
      <trkpt lat="42.30045" lon="2.64218">
        <ele>688.69</ele>
        <time>2021-07-30T18:00:40Z</time>
      </trkpt>
      <trkpt lat="42.30036" lon="2.64231">
        <ele>690.42</ele>
        <time>2021-07-30T18:00:46Z</time>
      </trkpt>
      <trkpt lat="42.30021" lon="2.64262">
        <ele>692.62</ele>
        <time>2021-07-30T18:00:54Z</time>
      </trkpt>
      <trkpt lat="42.30022" lon="2.64278">
        <ele>693.92</ele>
        <time>2021-07-30T18:00:58Z</time>
      </trkpt>
      <trkpt lat="42.30025" lon="2.64313">
        <ele>695.29</ele>
        <time>2021-07-30T18:01:03Z</time>
      </trkpt>
      <trkpt lat="42.30013" lon="2.64374">
        <ele>698.91</ele>
        <time>2021-07-30T18:01:12Z</time>
      </trkpt>
      <trkpt lat="42.30002" lon="2.6439">
        <ele>700.36</ele>
        <time>2021-07-30T18:01:15Z</time>
      </trkpt>
      <trkpt lat="42.30015" lon="2.64462">
        <ele>702.37</ele>
        <time>2021-07-30T18:01:25Z</time>
      </trkpt>
      <trkpt lat="42.30019" lon="2.64479">
        <ele>702.81</ele>
        <time>2021-07-30T18:01:27Z</time>
      </trkpt>
      <trkpt lat="42.3002" lon="2.64523">
        <ele>706.32</ele>
        <time>2021-07-30T18:01:36Z</time>
      </trkpt>
      <trkpt lat="42.30021" lon="2.6454">
        <ele>707.39</ele>
        <time>2021-07-30T18:01:39Z</time>
      </trkpt>
      <trkpt lat="42.30021" lon="2.64565">
        <ele>708.83</ele>
        <time>2021-07-30T18:01:43Z</time>
      </trkpt>
      <trkpt lat="42.30021" lon="2.64616">
        <ele>712.9</ele>
        <time>2021-07-30T18:01:50Z</time>
      </trkpt>
      <trkpt lat="42.3002" lon="2.64654">
        <ele>716.15</ele>
        <time>2021-07-30T18:01:55Z</time>
      </trkpt>
      <trkpt lat="42.3002" lon="2.64669">
        <ele>717.68</ele>
        <time>2021-07-30T18:01:57Z</time>
      </trkpt>
      <trkpt lat="42.30021" lon="2.64682">
        <ele>719.04</ele>
        <time>2021-07-30T18:01:59Z</time>
      </trkpt>
      <trkpt lat="42.30022" lon="2.64709">
        <ele>722.06</ele>
        <time>2021-07-30T18:02:03Z</time>
      </trkpt>
      <trkpt lat="42.30022" lon="2.64746">
        <ele>726.38</ele>
        <time>2021-07-30T18:02:08Z</time>
      </trkpt>
      <trkpt lat="42.30022" lon="2.64754">
        <ele>727.28</ele>
        <time>2021-07-30T18:02:09Z</time>
      </trkpt>
      <trkpt lat="42.30011" lon="2.64793">
        <ele>731.79</ele>
        <time>2021-07-30T18:02:14Z</time>
      </trkpt>
      <trkpt lat="42.30013" lon="2.64816">
        <ele>735.14</ele>
        <time>2021-07-30T18:02:18Z</time>
      </trkpt>
      <trkpt lat="42.30028" lon="2.64841">
        <ele>738.19</ele>
        <time>2021-07-30T18:02:22Z</time>
      </trkpt>
      <trkpt lat="42.30031" lon="2.64877">
        <ele>741.31</ele>
        <time>2021-07-30T18:02:27Z</time>
      </trkpt>
      <trkpt lat="42.30022" lon="2.64932">
        <ele>745.52</ele>
        <time>2021-07-30T18:02:35Z</time>
      </trkpt>
      <trkpt lat="42.30011" lon="2.64971">
        <ele>748.96</ele>
        <time>2021-07-30T18:02:41Z</time>
      </trkpt>
      <trkpt lat="42.29998" lon="2.65005">
        <ele>751.96</ele>
        <time>2021-07-30T18:02:47Z</time>
      </trkpt>
      <trkpt lat="42.29995" lon="2.65017">
        <ele>753.01</ele>
        <time>2021-07-30T18:02:49Z</time>
      </trkpt>
      <trkpt lat="42.29975" lon="2.65057">
        <ele>756.56</ele>
        <time>2021-07-30T18:02:57Z</time>
      </trkpt>
      <trkpt lat="42.29962" lon="2.65088">
        <ele>759.59</ele>
        <time>2021-07-30T18:03:05Z</time>
      </trkpt>
      <trkpt lat="42.29944" lon="2.65126">
        <ele>763.5</ele>
        <time>2021-07-30T18:03:14Z</time>
      </trkpt>
      <trkpt lat="42.29941" lon="2.65141">
        <ele>764.59</ele>
        <time>2021-07-30T18:03:17Z</time>
      </trkpt>
      <trkpt lat="42.29914" lon="2.65172">
        <ele>766.7</ele>
        <time>2021-07-30T18:03:23Z</time>
      </trkpt>
      <trkpt lat="42.299" lon="2.65176">
        <ele>767.12</ele>
        <time>2021-07-30T18:03:25Z</time>
      </trkpt>
      <trkpt lat="42.29843" lon="2.65207">
        <ele>767.83</ele>
        <time>2021-07-30T18:03:35Z</time>
      </trkpt>
      <trkpt lat="42.29782" lon="2.65261">
        <ele>768.54</ele>
        <time>2021-07-30T18:03:46Z</time>
      </trkpt>
      <trkpt lat="42.29772" lon="2.6527">
        <ele>768.65</ele>
        <time>2021-07-30T18:03:48Z</time>
      </trkpt>
      <trkpt lat="42.29711" lon="2.65289">
        <ele>771</ele>
        <time>2021-07-30T18:03:59Z</time>
      </trkpt>
      <trkpt lat="42.29708" lon="2.6529">
        <ele>772.06</ele>
        <time>2021-07-30T18:04:09Z</time>
      </trkpt>
      <trkpt lat="42.29708" lon="2.65289">
        <ele>772.16</ele>
        <time>2021-07-30T18:08:50Z</time>
      </trkpt>
      <trkpt lat="42.29709" lon="2.65289">
        <ele>772.16</ele>
        <time>2021-07-30T18:09:35Z</time>
      </trkpt>
      <trkpt lat="42.29706" lon="2.65291">
        <ele>772.16</ele>
        <time>2021-07-30T18:10:30Z</time>
      </trkpt>
      <trkpt lat="42.29672" lon="2.65292">
        <ele>771.99</ele>
        <time>2021-07-30T18:10:41Z</time>
      </trkpt>
      <trkpt lat="42.29628" lon="2.65273">
        <ele>770.36</ele>
        <time>2021-07-30T18:10:54Z</time>
      </trkpt>
      <trkpt lat="42.29624" lon="2.6527">
        <ele>770.14</ele>
        <time>2021-07-30T18:10:55Z</time>
      </trkpt>
      <trkpt lat="42.29614" lon="2.65258">
        <ele>769.65</ele>
        <time>2021-07-30T18:10:58Z</time>
      </trkpt>
      <trkpt lat="42.29586" lon="2.65204">
        <ele>766.32</ele>
        <time>2021-07-30T18:11:10Z</time>
      </trkpt>
      <trkpt lat="42.2957" lon="2.65177">
        <ele>763.84</ele>
        <time>2021-07-30T18:11:16Z</time>
      </trkpt>
      <trkpt lat="42.29536" lon="2.65152">
        <ele>760.32</ele>
        <time>2021-07-30T18:11:24Z</time>
      </trkpt>
      <trkpt lat="42.29532" lon="2.65149">
        <ele>759.86</ele>
        <time>2021-07-30T18:11:25Z</time>
      </trkpt>
      <trkpt lat="42.29517" lon="2.65105">
        <ele>756.01</ele>
        <time>2021-07-30T18:11:33Z</time>
      </trkpt>
      <trkpt lat="42.29518" lon="2.651">
        <ele>755.41</ele>
        <time>2021-07-30T18:11:34Z</time>
      </trkpt>
      <trkpt lat="42.2952" lon="2.65089">
        <ele>754.23</ele>
        <time>2021-07-30T18:11:36Z</time>
      </trkpt>
      <trkpt lat="42.29529" lon="2.65055">
        <ele>751.15</ele>
        <time>2021-07-30T18:11:41Z</time>
      </trkpt>
      <trkpt lat="42.29529" lon="2.65045">
        <ele>749.86</ele>
        <time>2021-07-30T18:11:43Z</time>
      </trkpt>
      <trkpt lat="42.29523" lon="2.64994">
        <ele>745.59</ele>
        <time>2021-07-30T18:11:50Z</time>
      </trkpt>
      <trkpt lat="42.29515" lon="2.64951">
        <ele>741.96</ele>
        <time>2021-07-30T18:11:55Z</time>
      </trkpt>
      <trkpt lat="42.29511" lon="2.64934">
        <ele>740.6</ele>
        <time>2021-07-30T18:11:57Z</time>
      </trkpt>
      <trkpt lat="42.29507" lon="2.64925">
        <ele>739.97</ele>
        <time>2021-07-30T18:11:58Z</time>
      </trkpt>
      <trkpt lat="42.29499" lon="2.64909">
        <ele>738.66</ele>
        <time>2021-07-30T18:12:00Z</time>
      </trkpt>
      <trkpt lat="42.29494" lon="2.64902">
        <ele>738.1</ele>
        <time>2021-07-30T18:12:01Z</time>
      </trkpt>
      <trkpt lat="42.29487" lon="2.64887">
        <ele>737.14</ele>
        <time>2021-07-30T18:12:03Z</time>
      </trkpt>
      <trkpt lat="42.29485" lon="2.64881">
        <ele>736.87</ele>
        <time>2021-07-30T18:12:04Z</time>
      </trkpt>
      <trkpt lat="42.29483" lon="2.64875">
        <ele>736.74</ele>
        <time>2021-07-30T18:12:05Z</time>
      </trkpt>
      <trkpt lat="42.29476" lon="2.64858">
        <ele>736.75</ele>
        <time>2021-07-30T18:12:08Z</time>
      </trkpt>
      <trkpt lat="42.29472" lon="2.64848">
        <ele>737.03</ele>
        <time>2021-07-30T18:12:10Z</time>
      </trkpt>
      <trkpt lat="42.29466" lon="2.64839">
        <ele>737.41</ele>
        <time>2021-07-30T18:12:12Z</time>
      </trkpt>
      <trkpt lat="42.2946" lon="2.64829">
        <ele>738</ele>
        <time>2021-07-30T18:12:14Z</time>
      </trkpt>
      <trkpt lat="42.29456" lon="2.64826">
        <ele>738.21</ele>
        <time>2021-07-30T18:12:15Z</time>
      </trkpt>
      <trkpt lat="42.29452" lon="2.64823">
        <ele>738.41</ele>
        <time>2021-07-30T18:12:16Z</time>
      </trkpt>
      <trkpt lat="42.29446" lon="2.64815">
        <ele>739.04</ele>
        <time>2021-07-30T18:12:18Z</time>
      </trkpt>
      <trkpt lat="42.29443" lon="2.64809">
        <ele>739.35</ele>
        <time>2021-07-30T18:12:19Z</time>
      </trkpt>
      <trkpt lat="42.29442" lon="2.64803">
        <ele>739.59</ele>
        <time>2021-07-30T18:12:20Z</time>
      </trkpt>
      <trkpt lat="42.29448" lon="2.64779">
        <ele>740.42</ele>
        <time>2021-07-30T18:12:23Z</time>
      </trkpt>
      <trkpt lat="42.29463" lon="2.64724">
        <ele>743.15</ele>
        <time>2021-07-30T18:12:33Z</time>
      </trkpt>
      <trkpt lat="42.29472" lon="2.64666">
        <ele>745.39</ele>
        <time>2021-07-30T18:12:47Z</time>
      </trkpt>
      <trkpt lat="42.29473" lon="2.64651">
        <ele>745.57</ele>
        <time>2021-07-30T18:12:49Z</time>
      </trkpt>
      <trkpt lat="42.29482" lon="2.64589">
        <ele>748.84</ele>
        <time>2021-07-30T18:12:59Z</time>
      </trkpt>
      <trkpt lat="42.29481" lon="2.64585">
        <ele>749.21</ele>
        <time>2021-07-30T18:13:00Z</time>
      </trkpt>
      <trkpt lat="42.29475" lon="2.64574">
        <ele>750.99</ele>
        <time>2021-07-30T18:13:04Z</time>
      </trkpt>
      <trkpt lat="42.29455" lon="2.64534">
        <ele>754.28</ele>
        <time>2021-07-30T18:13:14Z</time>
      </trkpt>
      <trkpt lat="42.29431" lon="2.64505">
        <ele>757.72</ele>
        <time>2021-07-30T18:13:22Z</time>
      </trkpt>
      <trkpt lat="42.29408" lon="2.64502">
        <ele>760.89</ele>
        <time>2021-07-30T18:13:29Z</time>
      </trkpt>
      <trkpt lat="42.29388" lon="2.64509">
        <ele>763.25</ele>
        <time>2021-07-30T18:13:35Z</time>
      </trkpt>
      <trkpt lat="42.29349" lon="2.64487">
        <ele>766.87</ele>
        <time>2021-07-30T18:13:43Z</time>
      </trkpt>
      <trkpt lat="42.29347" lon="2.64462">
        <ele>768.55</ele>
        <time>2021-07-30T18:13:46Z</time>
      </trkpt>
      <trkpt lat="42.29325" lon="2.64407">
        <ele>770.66</ele>
        <time>2021-07-30T18:13:53Z</time>
      </trkpt>
      <trkpt lat="42.29302" lon="2.64383">
        <ele>771.48</ele>
        <time>2021-07-30T18:13:58Z</time>
      </trkpt>
      <trkpt lat="42.29295" lon="2.64367">
        <ele>772.17</ele>
        <time>2021-07-30T18:14:01Z</time>
      </trkpt>
      <trkpt lat="42.29275" lon="2.64343">
        <ele>774.17</ele>
        <time>2021-07-30T18:14:07Z</time>
      </trkpt>
      <trkpt lat="42.29285" lon="2.64332">
        <ele>776</ele>
        <time>2021-07-30T18:14:12Z</time>
      </trkpt>
      <trkpt lat="42.29327" lon="2.64342">
        <ele>779.84</ele>
        <time>2021-07-30T18:14:21Z</time>
      </trkpt>
      <trkpt lat="42.29345" lon="2.64351">
        <ele>781.35</ele>
        <time>2021-07-30T18:14:25Z</time>
      </trkpt>
      <trkpt lat="42.29347" lon="2.64331">
        <ele>783.87</ele>
        <time>2021-07-30T18:14:32Z</time>
      </trkpt>
      <trkpt lat="42.29344" lon="2.64327">
        <ele>784.3</ele>
        <time>2021-07-30T18:14:33Z</time>
      </trkpt>
      <trkpt lat="42.29338" lon="2.64319">
        <ele>785.26</ele>
        <time>2021-07-30T18:14:35Z</time>
      </trkpt>
      <trkpt lat="42.2933" lon="2.64304">
        <ele>786.4</ele>
        <time>2021-07-30T18:14:38Z</time>
      </trkpt>
      <trkpt lat="42.29325" lon="2.64255">
        <ele>790.23</ele>
        <time>2021-07-30T18:14:46Z</time>
      </trkpt>
      <trkpt lat="42.29326" lon="2.64244">
        <ele>791.09</ele>
        <time>2021-07-30T18:14:48Z</time>
      </trkpt>
      <trkpt lat="42.29325" lon="2.64191">
        <ele>794.64</ele>
        <time>2021-07-30T18:14:57Z</time>
      </trkpt>
      <trkpt lat="42.29321" lon="2.64158">
        <ele>796.78</ele>
        <time>2021-07-30T18:15:02Z</time>
      </trkpt>
      <trkpt lat="42.29316" lon="2.64109">
        <ele>800.11</ele>
        <time>2021-07-30T18:15:10Z</time>
      </trkpt>
      <trkpt lat="42.2931" lon="2.64074">
        <ele>802.78</ele>
        <time>2021-07-30T18:15:15Z</time>
      </trkpt>
      <trkpt lat="42.29311" lon="2.64028">
        <ele>805.93</ele>
        <time>2021-07-30T18:15:21Z</time>
      </trkpt>
      <trkpt lat="42.29323" lon="2.63968">
        <ele>809.52</ele>
        <time>2021-07-30T18:15:28Z</time>
      </trkpt>
      <trkpt lat="42.29337" lon="2.63922">
        <ele>812.56</ele>
        <time>2021-07-30T18:15:35Z</time>
      </trkpt>
      <trkpt lat="42.29347" lon="2.63856">
        <ele>816.44</ele>
        <time>2021-07-30T18:15:44Z</time>
      </trkpt>
      <trkpt lat="42.29355" lon="2.63826">
        <ele>818.2</ele>
        <time>2021-07-30T18:15:49Z</time>
      </trkpt>
      <trkpt lat="42.29364" lon="2.63783">
        <ele>821.34</ele>
        <time>2021-07-30T18:15:56Z</time>
      </trkpt>
      <trkpt lat="42.29366" lon="2.63757">
        <ele>822.78</ele>
        <time>2021-07-30T18:15:59Z</time>
      </trkpt>
      <trkpt lat="42.29366" lon="2.63711">
        <ele>827.05</ele>
        <time>2021-07-30T18:16:06Z</time>
      </trkpt>
      <trkpt lat="42.2937" lon="2.63689">
        <ele>830.13</ele>
        <time>2021-07-30T18:16:11Z</time>
      </trkpt>
      <trkpt lat="42.29381" lon="2.63632">
        <ele>833.21</ele>
        <time>2021-07-30T18:16:18Z</time>
      </trkpt>
      <trkpt lat="42.29382" lon="2.63604">
        <ele>834.48</ele>
        <time>2021-07-30T18:16:21Z</time>
      </trkpt>
      <trkpt lat="42.29351" lon="2.63584">
        <ele>836.42</ele>
        <time>2021-07-30T18:16:28Z</time>
      </trkpt>
      <trkpt lat="42.29323" lon="2.63583">
        <ele>838.7</ele>
        <time>2021-07-30T18:16:33Z</time>
      </trkpt>
      <trkpt lat="42.29302" lon="2.63574">
        <ele>840.14</ele>
        <time>2021-07-30T18:16:36Z</time>
      </trkpt>
      <trkpt lat="42.2925" lon="2.63551">
        <ele>844.38</ele>
        <time>2021-07-30T18:16:43Z</time>
      </trkpt>
      <trkpt lat="42.29221" lon="2.63542">
        <ele>847.51</ele>
        <time>2021-07-30T18:16:48Z</time>
      </trkpt>
      <trkpt lat="42.29203" lon="2.63535">
        <ele>849.59</ele>
        <time>2021-07-30T18:16:51Z</time>
      </trkpt>
      <trkpt lat="42.29174" lon="2.63503">
        <ele>853.51</ele>
        <time>2021-07-30T18:16:57Z</time>
      </trkpt>
      <trkpt lat="42.2916" lon="2.63488">
        <ele>855.47</ele>
        <time>2021-07-30T18:17:00Z</time>
      </trkpt>
      <trkpt lat="42.29134" lon="2.63463">
        <ele>859.09</ele>
        <time>2021-07-30T18:17:06Z</time>
      </trkpt>
      <trkpt lat="42.29128" lon="2.6346">
        <ele>859.7</ele>
        <time>2021-07-30T18:17:07Z</time>
      </trkpt>
      <trkpt lat="42.29119" lon="2.6345">
        <ele>860.88</ele>
        <time>2021-07-30T18:17:09Z</time>
      </trkpt>
      <trkpt lat="42.2911" lon="2.63442">
        <ele>861.96</ele>
        <time>2021-07-30T18:17:11Z</time>
      </trkpt>
      <trkpt lat="42.29089" lon="2.63439">
        <ele>864.74</ele>
        <time>2021-07-30T18:17:15Z</time>
      </trkpt>
      <trkpt lat="42.29074" lon="2.63431">
        <ele>866.58</ele>
        <time>2021-07-30T18:17:18Z</time>
      </trkpt>
      <trkpt lat="42.29064" lon="2.6343">
        <ele>867.76</ele>
        <time>2021-07-30T18:17:20Z</time>
      </trkpt>
      <trkpt lat="42.29043" lon="2.63412">
        <ele>870.92</ele>
        <time>2021-07-30T18:17:25Z</time>
      </trkpt>
      <trkpt lat="42.29032" lon="2.634">
        <ele>872.06</ele>
        <time>2021-07-30T18:17:27Z</time>
      </trkpt>
      <trkpt lat="42.29008" lon="2.63398">
        <ele>874.21</ele>
        <time>2021-07-30T18:17:31Z</time>
      </trkpt>
      <trkpt lat="42.28986" lon="2.634">
        <ele>876.11</ele>
        <time>2021-07-30T18:17:35Z</time>
      </trkpt>
      <trkpt lat="42.2895" lon="2.63346">
        <ele>877.23</ele>
        <time>2021-07-30T18:17:42Z</time>
      </trkpt>
      <trkpt lat="42.28935" lon="2.63329">
        <ele>877.37</ele>
        <time>2021-07-30T18:17:44Z</time>
      </trkpt>
      <trkpt lat="42.28904" lon="2.63322">
        <ele>877.78</ele>
        <time>2021-07-30T18:17:48Z</time>
      </trkpt>
      <trkpt lat="42.28867" lon="2.63324">
        <ele>878.78</ele>
        <time>2021-07-30T18:17:53Z</time>
      </trkpt>
      <trkpt lat="42.28837" lon="2.63356">
        <ele>880.58</ele>
        <time>2021-07-30T18:17:59Z</time>
      </trkpt>
      <trkpt lat="42.28829" lon="2.63365">
        <ele>881.33</ele>
        <time>2021-07-30T18:18:01Z</time>
      </trkpt>
      <trkpt lat="42.28822" lon="2.63384">
        <ele>882.39</ele>
        <time>2021-07-30T18:18:04Z</time>
      </trkpt>
      <trkpt lat="42.2881" lon="2.63404">
        <ele>884.35</ele>
        <time>2021-07-30T18:18:08Z</time>
      </trkpt>
      <trkpt lat="42.28803" lon="2.63418">
        <ele>886.4</ele>
        <time>2021-07-30T18:18:12Z</time>
      </trkpt>
      <trkpt lat="42.28758" lon="2.63478">
        <ele>890.14</ele>
        <time>2021-07-30T18:18:21Z</time>
      </trkpt>
      <trkpt lat="42.28746" lon="2.63492">
        <ele>891.23</ele>
        <time>2021-07-30T18:18:23Z</time>
      </trkpt>
      <trkpt lat="42.28728" lon="2.6354">
        <ele>894.8</ele>
        <time>2021-07-30T18:18:29Z</time>
      </trkpt>
      <trkpt lat="42.28719" lon="2.63533">
        <ele>897.63</ele>
        <time>2021-07-30T18:18:34Z</time>
      </trkpt>
      <trkpt lat="42.2872" lon="2.63528">
        <ele>898.25</ele>
        <time>2021-07-30T18:18:35Z</time>
      </trkpt>
      <trkpt lat="42.28731" lon="2.63442">
        <ele>902.59</ele>
        <time>2021-07-30T18:18:42Z</time>
      </trkpt>
      <trkpt lat="42.28739" lon="2.63376">
        <ele>906.33</ele>
        <time>2021-07-30T18:18:47Z</time>
      </trkpt>
      <trkpt lat="42.28737" lon="2.6332">
        <ele>909.47</ele>
        <time>2021-07-30T18:18:51Z</time>
      </trkpt>
      <trkpt lat="42.28727" lon="2.63254">
        <ele>913.49</ele>
        <time>2021-07-30T18:18:56Z</time>
      </trkpt>
      <trkpt lat="42.28727" lon="2.63222">
        <ele>915.98</ele>
        <time>2021-07-30T18:18:59Z</time>
      </trkpt>
      <trkpt lat="42.2871" lon="2.63173">
        <ele>920.44</ele>
        <time>2021-07-30T18:19:05Z</time>
      </trkpt>
      <trkpt lat="42.28718" lon="2.63118">
        <ele>925.47</ele>
        <time>2021-07-30T18:19:13Z</time>
      </trkpt>
      <trkpt lat="42.2872" lon="2.63097">
        <ele>926.52</ele>
        <time>2021-07-30T18:19:15Z</time>
      </trkpt>
      <trkpt lat="42.28745" lon="2.63045">
        <ele>931.32</ele>
        <time>2021-07-30T18:19:22Z</time>
      </trkpt>
      <trkpt lat="42.28751" lon="2.63036">
        <ele>931.93</ele>
        <time>2021-07-30T18:19:23Z</time>
      </trkpt>
      <trkpt lat="42.28774" lon="2.62976">
        <ele>935.48</ele>
        <time>2021-07-30T18:19:28Z</time>
      </trkpt>
      <trkpt lat="42.28784" lon="2.62913">
        <ele>939.74</ele>
        <time>2021-07-30T18:19:33Z</time>
      </trkpt>
      <trkpt lat="42.28787" lon="2.62891">
        <ele>941.51</ele>
        <time>2021-07-30T18:19:35Z</time>
      </trkpt>
      <trkpt lat="42.2879" lon="2.62845">
        <ele>944.76</ele>
        <time>2021-07-30T18:19:39Z</time>
      </trkpt>
      <trkpt lat="42.28812" lon="2.62801">
        <ele>948.59</ele>
        <time>2021-07-30T18:19:45Z</time>
      </trkpt>
      <trkpt lat="42.28817" lon="2.62792">
        <ele>948.84</ele>
        <time>2021-07-30T18:19:46Z</time>
      </trkpt>
      <trkpt lat="42.28833" lon="2.62773">
        <ele>948.96</ele>
        <time>2021-07-30T18:19:49Z</time>
      </trkpt>
      <trkpt lat="42.28833" lon="2.62743">
        <ele>947.54</ele>
        <time>2021-07-30T18:19:54Z</time>
      </trkpt>
      <trkpt lat="42.2884" lon="2.62658">
        <ele>944.63</ele>
        <time>2021-07-30T18:20:01Z</time>
      </trkpt>
      <trkpt lat="42.28833" lon="2.62593">
        <ele>941</ele>
        <time>2021-07-30T18:20:07Z</time>
      </trkpt>
      <trkpt lat="42.28831" lon="2.62581">
        <ele>939.52</ele>
        <time>2021-07-30T18:20:09Z</time>
      </trkpt>
      <trkpt lat="42.28819" lon="2.62557">
        <ele>937.51</ele>
        <time>2021-07-30T18:20:12Z</time>
      </trkpt>
      <trkpt lat="42.28808" lon="2.62494">
        <ele>934.35</ele>
        <time>2021-07-30T18:20:17Z</time>
      </trkpt>
      <trkpt lat="42.28803" lon="2.62439">
        <ele>930.5</ele>
        <time>2021-07-30T18:20:22Z</time>
      </trkpt>
      <trkpt lat="42.28801" lon="2.62433">
        <ele>929.75</ele>
        <time>2021-07-30T18:20:23Z</time>
      </trkpt>
      <trkpt lat="42.28797" lon="2.62419">
        <ele>927.33</ele>
        <time>2021-07-30T18:20:26Z</time>
      </trkpt>
      <trkpt lat="42.28785" lon="2.624">
        <ele>925.42</ele>
        <time>2021-07-30T18:20:29Z</time>
      </trkpt>
      <trkpt lat="42.28763" lon="2.62373">
        <ele>922.74</ele>
        <time>2021-07-30T18:20:33Z</time>
      </trkpt>
      <trkpt lat="42.28744" lon="2.62346">
        <ele>920.15</ele>
        <time>2021-07-30T18:20:37Z</time>
      </trkpt>
      <trkpt lat="42.28728" lon="2.62301">
        <ele>916.16</ele>
        <time>2021-07-30T18:20:43Z</time>
      </trkpt>
      <trkpt lat="42.28726" lon="2.62266">
        <ele>914.16</ele>
        <time>2021-07-30T18:20:46Z</time>
      </trkpt>
      <trkpt lat="42.28728" lon="2.62225">
        <ele>912</ele>
        <time>2021-07-30T18:20:49Z</time>
      </trkpt>
      <trkpt lat="42.28725" lon="2.62175">
        <ele>909.67</ele>
        <time>2021-07-30T18:20:53Z</time>
      </trkpt>
      <trkpt lat="42.28722" lon="2.62142">
        <ele>905.3</ele>
        <time>2021-07-30T18:21:01Z</time>
      </trkpt>
      <trkpt lat="42.28721" lon="2.6213">
        <ele>903.08</ele>
        <time>2021-07-30T18:21:13Z</time>
      </trkpt>
      <trkpt lat="42.28717" lon="2.62116">
        <ele>902.53</ele>
        <time>2021-07-30T18:21:20Z</time>
      </trkpt>
      <trkpt lat="42.28716" lon="2.62094">
        <ele>902.38</ele>
        <time>2021-07-30T18:21:24Z</time>
      </trkpt>
      <trkpt lat="42.28718" lon="2.62042">
        <ele>900.79</ele>
        <time>2021-07-30T18:21:33Z</time>
      </trkpt>
      <trkpt lat="42.28729" lon="2.61984">
        <ele>899.12</ele>
        <time>2021-07-30T18:21:39Z</time>
      </trkpt>
      <trkpt lat="42.28742" lon="2.61952">
        <ele>897.4</ele>
        <time>2021-07-30T18:21:43Z</time>
      </trkpt>
      <trkpt lat="42.28754" lon="2.61935">
        <ele>896.25</ele>
        <time>2021-07-30T18:21:46Z</time>
      </trkpt>
      <trkpt lat="42.28758" lon="2.61919">
        <ele>895.37</ele>
        <time>2021-07-30T18:21:48Z</time>
      </trkpt>
      <trkpt lat="42.28759" lon="2.61908">
        <ele>895.06</ele>
        <time>2021-07-30T18:21:49Z</time>
      </trkpt>
      <trkpt lat="42.28758" lon="2.61895">
        <ele>894.74</ele>
        <time>2021-07-30T18:21:50Z</time>
      </trkpt>
      <trkpt lat="42.28758" lon="2.61883">
        <ele>894.33</ele>
        <time>2021-07-30T18:21:51Z</time>
      </trkpt>
      <trkpt lat="42.28756" lon="2.61847">
        <ele>893.21</ele>
        <time>2021-07-30T18:21:54Z</time>
      </trkpt>
      <trkpt lat="42.28753" lon="2.61837">
        <ele>892.89</ele>
        <time>2021-07-30T18:21:55Z</time>
      </trkpt>
      <trkpt lat="42.2875" lon="2.61814">
        <ele>892.08</ele>
        <time>2021-07-30T18:21:57Z</time>
      </trkpt>
      <trkpt lat="42.28749" lon="2.61804">
        <ele>891.69</ele>
        <time>2021-07-30T18:21:58Z</time>
      </trkpt>
      <trkpt lat="42.28773" lon="2.61757">
        <ele>889.66</ele>
        <time>2021-07-30T18:22:04Z</time>
      </trkpt>
      <trkpt lat="42.28799" lon="2.61732">
        <ele>889.44</ele>
        <time>2021-07-30T18:22:08Z</time>
      </trkpt>
      <trkpt lat="42.28824" lon="2.61649">
        <ele>890.04</ele>
        <time>2021-07-30T18:22:15Z</time>
      </trkpt>
      <trkpt lat="42.28829" lon="2.61638">
        <ele>890.02</ele>
        <time>2021-07-30T18:22:16Z</time>
      </trkpt>
      <trkpt lat="42.2885" lon="2.61607">
        <ele>889.89</ele>
        <time>2021-07-30T18:22:19Z</time>
      </trkpt>
      <trkpt lat="42.28864" lon="2.6157">
        <ele>888.67</ele>
        <time>2021-07-30T18:22:23Z</time>
      </trkpt>
      <trkpt lat="42.28877" lon="2.61472">
        <ele>885.39</ele>
        <time>2021-07-30T18:22:31Z</time>
      </trkpt>
      <trkpt lat="42.28883" lon="2.61441">
        <ele>883.65</ele>
        <time>2021-07-30T18:22:34Z</time>
      </trkpt>
      <trkpt lat="42.2887" lon="2.61408">
        <ele>881.06</ele>
        <time>2021-07-30T18:22:40Z</time>
      </trkpt>
      <trkpt lat="42.28869" lon="2.61404">
        <ele>880.96</ele>
        <time>2021-07-30T18:22:41Z</time>
      </trkpt>
      <trkpt lat="42.28878" lon="2.6137">
        <ele>881.15</ele>
        <time>2021-07-30T18:22:45Z</time>
      </trkpt>
      <trkpt lat="42.28891" lon="2.61313">
        <ele>881.27</ele>
        <time>2021-07-30T18:22:50Z</time>
      </trkpt>
      <trkpt lat="42.28903" lon="2.61296">
        <ele>880.69</ele>
        <time>2021-07-30T18:22:54Z</time>
      </trkpt>
      <trkpt lat="42.28907" lon="2.61286">
        <ele>880.33</ele>
        <time>2021-07-30T18:22:57Z</time>
      </trkpt>
      <trkpt lat="42.28891" lon="2.61231">
        <ele>879.98</ele>
        <time>2021-07-30T18:23:04Z</time>
      </trkpt>
      <trkpt lat="42.28893" lon="2.61212">
        <ele>879.74</ele>
        <time>2021-07-30T18:23:06Z</time>
      </trkpt>
      <trkpt lat="42.289" lon="2.61167">
        <ele>878.82</ele>
        <time>2021-07-30T18:23:10Z</time>
      </trkpt>
      <trkpt lat="42.28896" lon="2.61138">
        <ele>877.74</ele>
        <time>2021-07-30T18:23:14Z</time>
      </trkpt>
      <trkpt lat="42.28877" lon="2.61091">
        <ele>876.04</ele>
        <time>2021-07-30T18:23:19Z</time>
      </trkpt>
      <trkpt lat="42.28861" lon="2.61032">
        <ele>872.19</ele>
        <time>2021-07-30T18:23:25Z</time>
      </trkpt>
      <trkpt lat="42.28856" lon="2.61004">
        <ele>869.57</ele>
        <time>2021-07-30T18:23:28Z</time>
      </trkpt>
      <trkpt lat="42.28855" lon="2.6098">
        <ele>867.04</ele>
        <time>2021-07-30T18:23:31Z</time>
      </trkpt>
      <trkpt lat="42.28849" lon="2.6098">
        <ele>862.93</ele>
        <time>2021-07-30T18:23:37Z</time>
      </trkpt>
      <trkpt lat="42.28851" lon="2.60987">
        <ele>862.35</ele>
        <time>2021-07-30T18:23:38Z</time>
      </trkpt>
      <trkpt lat="42.28857" lon="2.61049">
        <ele>858.75</ele>
        <time>2021-07-30T18:23:46Z</time>
      </trkpt>
      <trkpt lat="42.28855" lon="2.61131">
        <ele>855.87</ele>
        <time>2021-07-30T18:23:54Z</time>
      </trkpt>
      <trkpt lat="42.28856" lon="2.61198">
        <ele>852.79</ele>
        <time>2021-07-30T18:24:01Z</time>
      </trkpt>
      <trkpt lat="42.28836" lon="2.61201">
        <ele>849.79</ele>
        <time>2021-07-30T18:24:07Z</time>
      </trkpt>
      <trkpt lat="42.28836" lon="2.61193">
        <ele>849.38</ele>
        <time>2021-07-30T18:24:08Z</time>
      </trkpt>
      <trkpt lat="42.28829" lon="2.61117">
        <ele>845.86</ele>
        <time>2021-07-30T18:24:16Z</time>
      </trkpt>
      <trkpt lat="42.28823" lon="2.61091">
        <ele>844.32</ele>
        <time>2021-07-30T18:24:19Z</time>
      </trkpt>
      <trkpt lat="42.2882" lon="2.61055">
        <ele>841.87</ele>
        <time>2021-07-30T18:24:23Z</time>
      </trkpt>
      <trkpt lat="42.28809" lon="2.61014">
        <ele>839.38</ele>
        <time>2021-07-30T18:24:27Z</time>
      </trkpt>
      <trkpt lat="42.28794" lon="2.60991">
        <ele>837.56</ele>
        <time>2021-07-30T18:24:30Z</time>
      </trkpt>
      <trkpt lat="42.28776" lon="2.60927">
        <ele>833.23</ele>
        <time>2021-07-30T18:24:36Z</time>
      </trkpt>
      <trkpt lat="42.28769" lon="2.6091">
        <ele>831.65</ele>
        <time>2021-07-30T18:24:38Z</time>
      </trkpt>
      <trkpt lat="42.28757" lon="2.60846">
        <ele>827.18</ele>
        <time>2021-07-30T18:24:44Z</time>
      </trkpt>
      <trkpt lat="42.28755" lon="2.60833">
        <ele>826.29</ele>
        <time>2021-07-30T18:24:45Z</time>
      </trkpt>
      <trkpt lat="42.28758" lon="2.60767">
        <ele>821.64</ele>
        <time>2021-07-30T18:24:51Z</time>
      </trkpt>
      <trkpt lat="42.28764" lon="2.60728">
        <ele>820.1</ele>
        <time>2021-07-30T18:24:54Z</time>
      </trkpt>
      <trkpt lat="42.28759" lon="2.60678">
        <ele>817.76</ele>
        <time>2021-07-30T18:24:58Z</time>
      </trkpt>
      <trkpt lat="42.28755" lon="2.60657">
        <ele>816.47</ele>
        <time>2021-07-30T18:25:00Z</time>
      </trkpt>
      <trkpt lat="42.2874" lon="2.60628">
        <ele>813.78</ele>
        <time>2021-07-30T18:25:04Z</time>
      </trkpt>
      <trkpt lat="42.28732" lon="2.60616">
        <ele>812.5</ele>
        <time>2021-07-30T18:25:06Z</time>
      </trkpt>
      <trkpt lat="42.28734" lon="2.60572">
        <ele>809.14</ele>
        <time>2021-07-30T18:25:11Z</time>
      </trkpt>
      <trkpt lat="42.28739" lon="2.60551">
        <ele>808</ele>
        <time>2021-07-30T18:25:13Z</time>
      </trkpt>
      <trkpt lat="42.28752" lon="2.60517">
        <ele>806.33</ele>
        <time>2021-07-30T18:25:17Z</time>
      </trkpt>
      <trkpt lat="42.28768" lon="2.60494">
        <ele>805.16</ele>
        <time>2021-07-30T18:25:20Z</time>
      </trkpt>
      <trkpt lat="42.28813" lon="2.6046">
        <ele>801.81</ele>
        <time>2021-07-30T18:25:28Z</time>
      </trkpt>
      <trkpt lat="42.28835" lon="2.60444">
        <ele>798.38</ele>
        <time>2021-07-30T18:25:35Z</time>
      </trkpt>
      <trkpt lat="42.28833" lon="2.60439">
        <ele>797.95</ele>
        <time>2021-07-30T18:25:36Z</time>
      </trkpt>
      <trkpt lat="42.2883" lon="2.60428">
        <ele>797.19</ele>
        <time>2021-07-30T18:25:38Z</time>
      </trkpt>
      <trkpt lat="42.2883" lon="2.60398">
        <ele>795.31</ele>
        <time>2021-07-30T18:25:42Z</time>
      </trkpt>
      <trkpt lat="42.28855" lon="2.60361">
        <ele>791.83</ele>
        <time>2021-07-30T18:25:48Z</time>
      </trkpt>
      <trkpt lat="42.28901" lon="2.60327">
        <ele>788.19</ele>
        <time>2021-07-30T18:25:55Z</time>
      </trkpt>
      <trkpt lat="42.28908" lon="2.60322">
        <ele>787.79</ele>
        <time>2021-07-30T18:25:56Z</time>
      </trkpt>
      <trkpt lat="42.28918" lon="2.60257">
        <ele>785.75</ele>
        <time>2021-07-30T18:26:02Z</time>
      </trkpt>
      <trkpt lat="42.28909" lon="2.60224">
        <ele>784.86</ele>
        <time>2021-07-30T18:26:05Z</time>
      </trkpt>
      <trkpt lat="42.28904" lon="2.6021">
        <ele>783.95</ele>
        <time>2021-07-30T18:26:07Z</time>
      </trkpt>
      <trkpt lat="42.289" lon="2.60153">
        <ele>781.5</ele>
        <time>2021-07-30T18:26:13Z</time>
      </trkpt>
      <trkpt lat="42.28902" lon="2.60102">
        <ele>778.2</ele>
        <time>2021-07-30T18:26:18Z</time>
      </trkpt>
      <trkpt lat="42.28901" lon="2.60053">
        <ele>774.04</ele>
        <time>2021-07-30T18:26:23Z</time>
      </trkpt>
      <trkpt lat="42.28899" lon="2.60026">
        <ele>770.66</ele>
        <time>2021-07-30T18:26:26Z</time>
      </trkpt>
      <trkpt lat="42.28901" lon="2.59991">
        <ele>767.04</ele>
        <time>2021-07-30T18:26:30Z</time>
      </trkpt>
      <trkpt lat="42.28907" lon="2.59938">
        <ele>763.26</ele>
        <time>2021-07-30T18:26:35Z</time>
      </trkpt>
      <trkpt lat="42.28917" lon="2.59898">
        <ele>760.18</ele>
        <time>2021-07-30T18:26:39Z</time>
      </trkpt>
      <trkpt lat="42.2892" lon="2.5989">
        <ele>759.4</ele>
        <time>2021-07-30T18:26:40Z</time>
      </trkpt>
      <trkpt lat="42.28904" lon="2.59891">
        <ele>755.04</ele>
        <time>2021-07-30T18:26:46Z</time>
      </trkpt>
      <trkpt lat="42.28881" lon="2.59929">
        <ele>753.03</ele>
        <time>2021-07-30T18:26:49Z</time>
      </trkpt>
      <trkpt lat="42.28854" lon="2.59988">
        <ele>749.08</ele>
        <time>2021-07-30T18:26:54Z</time>
      </trkpt>
      <trkpt lat="42.28848" lon="2.6001">
        <ele>747.17</ele>
        <time>2021-07-30T18:26:56Z</time>
      </trkpt>
      <trkpt lat="42.28834" lon="2.6005">
        <ele>742.95</ele>
        <time>2021-07-30T18:27:00Z</time>
      </trkpt>
      <trkpt lat="42.28826" lon="2.60071">
        <ele>740.79</ele>
        <time>2021-07-30T18:27:02Z</time>
      </trkpt>
      <trkpt lat="42.28797" lon="2.60091">
        <ele>736.46</ele>
        <time>2021-07-30T18:27:06Z</time>
      </trkpt>
      <trkpt lat="42.28771" lon="2.6012">
        <ele>732.73</ele>
        <time>2021-07-30T18:27:10Z</time>
      </trkpt>
      <trkpt lat="42.28767" lon="2.60164">
        <ele>728.25</ele>
        <time>2021-07-30T18:27:15Z</time>
      </trkpt>
      <trkpt lat="42.28745" lon="2.60172">
        <ele>725.75</ele>
        <time>2021-07-30T18:27:18Z</time>
      </trkpt>
      <trkpt lat="42.28727" lon="2.60175">
        <ele>724.13</ele>
        <time>2021-07-30T18:27:20Z</time>
      </trkpt>
      <trkpt lat="42.28692" lon="2.60181">
        <ele>720.15</ele>
        <time>2021-07-30T18:27:24Z</time>
      </trkpt>
      <trkpt lat="42.28643" lon="2.60193">
        <ele>713.81</ele>
        <time>2021-07-30T18:27:29Z</time>
      </trkpt>
      <trkpt lat="42.28633" lon="2.60198">
        <ele>712.46</ele>
        <time>2021-07-30T18:27:30Z</time>
      </trkpt>
      <trkpt lat="42.28617" lon="2.60209">
        <ele>709.62</ele>
        <time>2021-07-30T18:27:32Z</time>
      </trkpt>
      <trkpt lat="42.28591" lon="2.60219">
        <ele>704.01</ele>
        <time>2021-07-30T18:27:36Z</time>
      </trkpt>
      <trkpt lat="42.28587" lon="2.60226">
        <ele>702.56</ele>
        <time>2021-07-30T18:27:37Z</time>
      </trkpt>
      <trkpt lat="42.2857" lon="2.60264">
        <ele>697.45</ele>
        <time>2021-07-30T18:27:41Z</time>
      </trkpt>
      <trkpt lat="42.28556" lon="2.60293">
        <ele>694.24</ele>
        <time>2021-07-30T18:27:44Z</time>
      </trkpt>
      <trkpt lat="42.28547" lon="2.60307">
        <ele>691.99</ele>
        <time>2021-07-30T18:27:46Z</time>
      </trkpt>
      <trkpt lat="42.28523" lon="2.6034">
        <ele>687.04</ele>
        <time>2021-07-30T18:27:51Z</time>
      </trkpt>
      <trkpt lat="42.28513" lon="2.60357">
        <ele>685.06</ele>
        <time>2021-07-30T18:27:53Z</time>
      </trkpt>
      <trkpt lat="42.28508" lon="2.60405">
        <ele>680.56</ele>
        <time>2021-07-30T18:27:58Z</time>
      </trkpt>
      <trkpt lat="42.28513" lon="2.60428">
        <ele>677.88</ele>
        <time>2021-07-30T18:28:01Z</time>
      </trkpt>
      <trkpt lat="42.28491" lon="2.60423">
        <ele>672.84</ele>
        <time>2021-07-30T18:28:06Z</time>
      </trkpt>
      <trkpt lat="42.28481" lon="2.60391">
        <ele>670.04</ele>
        <time>2021-07-30T18:28:10Z</time>
      </trkpt>
      <trkpt lat="42.28466" lon="2.60336">
        <ele>664.86</ele>
        <time>2021-07-30T18:28:17Z</time>
      </trkpt>
      <trkpt lat="42.28463" lon="2.60287">
        <ele>661.43</ele>
        <time>2021-07-30T18:28:22Z</time>
      </trkpt>
      <trkpt lat="42.28448" lon="2.60282">
        <ele>657.29</ele>
        <time>2021-07-30T18:28:27Z</time>
      </trkpt>
      <trkpt lat="42.28436" lon="2.60323">
        <ele>653.7</ele>
        <time>2021-07-30T18:28:33Z</time>
      </trkpt>
      <trkpt lat="42.28415" lon="2.60307">
        <ele>650.2</ele>
        <time>2021-07-30T18:28:38Z</time>
      </trkpt>
      <trkpt lat="42.28405" lon="2.60293">
        <ele>649.02</ele>
        <time>2021-07-30T18:28:40Z</time>
      </trkpt>
      <trkpt lat="42.28394" lon="2.60281">
        <ele>647.7</ele>
        <time>2021-07-30T18:28:42Z</time>
      </trkpt>
      <trkpt lat="42.2836" lon="2.60262">
        <ele>643.48</ele>
        <time>2021-07-30T18:28:47Z</time>
      </trkpt>
      <trkpt lat="42.2834" lon="2.60246">
        <ele>640.42</ele>
        <time>2021-07-30T18:28:50Z</time>
      </trkpt>
      <trkpt lat="42.28328" lon="2.60237">
        <ele>638.2</ele>
        <time>2021-07-30T18:28:52Z</time>
      </trkpt>
      <trkpt lat="42.28317" lon="2.60192">
        <ele>633.61</ele>
        <time>2021-07-30T18:28:57Z</time>
      </trkpt>
      <trkpt lat="42.28296" lon="2.60165">
        <ele>630.59</ele>
        <time>2021-07-30T18:29:01Z</time>
      </trkpt>
      <trkpt lat="42.28291" lon="2.60157">
        <ele>629.97</ele>
        <time>2021-07-30T18:29:02Z</time>
      </trkpt>
      <trkpt lat="42.28271" lon="2.60134">
        <ele>628.19</ele>
        <time>2021-07-30T18:29:05Z</time>
      </trkpt>
      <trkpt lat="42.28282" lon="2.60103">
        <ele>624.97</ele>
        <time>2021-07-30T18:29:11Z</time>
      </trkpt>
      <trkpt lat="42.28328" lon="2.60112">
        <ele>623.05</ele>
        <time>2021-07-30T18:29:18Z</time>
      </trkpt>
      <trkpt lat="42.28384" lon="2.60103">
        <ele>619.39</ele>
        <time>2021-07-30T18:29:25Z</time>
      </trkpt>
      <trkpt lat="42.28399" lon="2.60104">
        <ele>618.06</ele>
        <time>2021-07-30T18:29:27Z</time>
      </trkpt>
      <trkpt lat="42.28435" lon="2.60097">
        <ele>614.67</ele>
        <time>2021-07-30T18:29:34Z</time>
      </trkpt>
      <trkpt lat="42.28417" lon="2.60091">
        <ele>613.39</ele>
        <time>2021-07-30T18:29:37Z</time>
      </trkpt>
      <trkpt lat="42.28402" lon="2.60091">
        <ele>611.96</ele>
        <time>2021-07-30T18:29:40Z</time>
      </trkpt>
      <trkpt lat="42.28352" lon="2.60069">
        <ele>607.84</ele>
        <time>2021-07-30T18:29:47Z</time>
      </trkpt>
      <trkpt lat="42.28342" lon="2.60065">
        <ele>606.6</ele>
        <time>2021-07-30T18:29:49Z</time>
      </trkpt>
      <trkpt lat="42.28314" lon="2.60015">
        <ele>602.52</ele>
        <time>2021-07-30T18:29:56Z</time>
      </trkpt>
      <trkpt lat="42.28311" lon="2.60005">
        <ele>601.91</ele>
        <time>2021-07-30T18:29:57Z</time>
      </trkpt>
      <trkpt lat="42.28298" lon="2.5996">
        <ele>597.9</ele>
        <time>2021-07-30T18:30:03Z</time>
      </trkpt>
      <trkpt lat="42.28287" lon="2.59926">
        <ele>594.81</ele>
        <time>2021-07-30T18:30:08Z</time>
      </trkpt>
      <trkpt lat="42.28266" lon="2.59878">
        <ele>591.52</ele>
        <time>2021-07-30T18:30:14Z</time>
      </trkpt>
      <trkpt lat="42.28246" lon="2.59835">
        <ele>588.3</ele>
        <time>2021-07-30T18:30:19Z</time>
      </trkpt>
      <trkpt lat="42.28241" lon="2.59828">
        <ele>587.67</ele>
        <time>2021-07-30T18:30:20Z</time>
      </trkpt>
      <trkpt lat="42.282" lon="2.59814">
        <ele>583.98</ele>
        <time>2021-07-30T18:30:26Z</time>
      </trkpt>
      <trkpt lat="42.28178" lon="2.59825">
        <ele>582.14</ele>
        <time>2021-07-30T18:30:29Z</time>
      </trkpt>
      <trkpt lat="42.28158" lon="2.59839">
        <ele>580.34</ele>
        <time>2021-07-30T18:30:32Z</time>
      </trkpt>
      <trkpt lat="42.28145" lon="2.59876">
        <ele>577.78</ele>
        <time>2021-07-30T18:30:37Z</time>
      </trkpt>
      <trkpt lat="42.28143" lon="2.59975">
        <ele>575.85</ele>
        <time>2021-07-30T18:30:45Z</time>
      </trkpt>
      <trkpt lat="42.28153" lon="2.6003">
        <ele>574.73</ele>
        <time>2021-07-30T18:30:50Z</time>
      </trkpt>
      <trkpt lat="42.28164" lon="2.6012">
        <ele>570.18</ele>
        <time>2021-07-30T18:30:58Z</time>
      </trkpt>
      <trkpt lat="42.28174" lon="2.60181">
        <ele>567.02</ele>
        <time>2021-07-30T18:31:03Z</time>
      </trkpt>
      <trkpt lat="42.28193" lon="2.60215">
        <ele>565.21</ele>
        <time>2021-07-30T18:31:07Z</time>
      </trkpt>
      <trkpt lat="42.28221" lon="2.60309">
        <ele>562.83</ele>
        <time>2021-07-30T18:31:16Z</time>
      </trkpt>
      <trkpt lat="42.28208" lon="2.60386">
        <ele>561.39</ele>
        <time>2021-07-30T18:31:22Z</time>
      </trkpt>
      <trkpt lat="42.28214" lon="2.6043">
        <ele>560.49</ele>
        <time>2021-07-30T18:31:26Z</time>
      </trkpt>
      <trkpt lat="42.28243" lon="2.60498">
        <ele>558.12</ele>
        <time>2021-07-30T18:31:34Z</time>
      </trkpt>
      <trkpt lat="42.28264" lon="2.60531">
        <ele>555.75</ele>
        <time>2021-07-30T18:31:38Z</time>
      </trkpt>
      <trkpt lat="42.28258" lon="2.60564">
        <ele>551.24</ele>
        <time>2021-07-30T18:31:43Z</time>
      </trkpt>
      <trkpt lat="42.28222" lon="2.60575">
        <ele>549.12</ele>
        <time>2021-07-30T18:31:47Z</time>
      </trkpt>
      <trkpt lat="42.2815" lon="2.60584">
        <ele>545.49</ele>
        <time>2021-07-30T18:31:54Z</time>
      </trkpt>
      <trkpt lat="42.28142" lon="2.60586">
        <ele>544.69</ele>
        <time>2021-07-30T18:31:55Z</time>
      </trkpt>
      <trkpt lat="42.28103" lon="2.60581">
        <ele>540.24</ele>
        <time>2021-07-30T18:32:00Z</time>
      </trkpt>
      <trkpt lat="42.28082" lon="2.60569">
        <ele>537.52</ele>
        <time>2021-07-30T18:32:03Z</time>
      </trkpt>
      <trkpt lat="42.28032" lon="2.60525">
        <ele>532.32</ele>
        <time>2021-07-30T18:32:10Z</time>
      </trkpt>
      <trkpt lat="42.28023" lon="2.60525">
        <ele>531.68</ele>
        <time>2021-07-30T18:32:11Z</time>
      </trkpt>
      <trkpt lat="42.27993" lon="2.60522">
        <ele>529.99</ele>
        <time>2021-07-30T18:32:14Z</time>
      </trkpt>
      <trkpt lat="42.27949" lon="2.60536">
        <ele>528.33</ele>
        <time>2021-07-30T18:32:19Z</time>
      </trkpt>
      <trkpt lat="42.27884" lon="2.60547">
        <ele>527.01</ele>
        <time>2021-07-30T18:32:25Z</time>
      </trkpt>
      <trkpt lat="42.27826" lon="2.60567">
        <ele>524.92</ele>
        <time>2021-07-30T18:32:31Z</time>
      </trkpt>
      <trkpt lat="42.27797" lon="2.60569">
        <ele>523.75</ele>
        <time>2021-07-30T18:32:34Z</time>
      </trkpt>
      <trkpt lat="42.27744" lon="2.60593">
        <ele>523.74</ele>
        <time>2021-07-30T18:32:42Z</time>
      </trkpt>
      <trkpt lat="42.27729" lon="2.60603">
        <ele>523.74</ele>
        <time>2021-07-30T18:32:44Z</time>
      </trkpt>
      <trkpt lat="42.27677" lon="2.60613">
        <ele>521.83</ele>
        <time>2021-07-30T18:32:50Z</time>
      </trkpt>
      <trkpt lat="42.27664" lon="2.60608">
        <ele>520.82</ele>
        <time>2021-07-30T18:32:52Z</time>
      </trkpt>
      <trkpt lat="42.27622" lon="2.60609">
        <ele>518.18</ele>
        <time>2021-07-30T18:32:58Z</time>
      </trkpt>
      <trkpt lat="42.27577" lon="2.60612">
        <ele>513.84</ele>
        <time>2021-07-30T18:33:04Z</time>
      </trkpt>
      <trkpt lat="42.27548" lon="2.60609">
        <ele>510.25</ele>
        <time>2021-07-30T18:33:08Z</time>
      </trkpt>
      <trkpt lat="42.27533" lon="2.60607">
        <ele>508.46</ele>
        <time>2021-07-30T18:33:10Z</time>
      </trkpt>
      <trkpt lat="42.27513" lon="2.60588">
        <ele>503.57</ele>
        <time>2021-07-30T18:33:14Z</time>
      </trkpt>
      <trkpt lat="42.27499" lon="2.60561">
        <ele>500.33</ele>
        <time>2021-07-30T18:33:17Z</time>
      </trkpt>
      <trkpt lat="42.275" lon="2.60521">
        <ele>495.65</ele>
        <time>2021-07-30T18:33:21Z</time>
      </trkpt>
      <trkpt lat="42.27514" lon="2.60458">
        <ele>491.17</ele>
        <time>2021-07-30T18:33:26Z</time>
      </trkpt>
      <trkpt lat="42.27524" lon="2.60392">
        <ele>487.7</ele>
        <time>2021-07-30T18:33:31Z</time>
      </trkpt>
      <trkpt lat="42.27532" lon="2.60344">
        <ele>484.84</ele>
        <time>2021-07-30T18:33:35Z</time>
      </trkpt>
      <trkpt lat="42.27536" lon="2.6029">
        <ele>480.45</ele>
        <time>2021-07-30T18:33:40Z</time>
      </trkpt>
      <trkpt lat="42.27542" lon="2.60247">
        <ele>477.19</ele>
        <time>2021-07-30T18:33:44Z</time>
      </trkpt>
      <trkpt lat="42.27543" lon="2.60234">
        <ele>476.41</ele>
        <time>2021-07-30T18:33:45Z</time>
      </trkpt>
      <trkpt lat="42.27533" lon="2.60176">
        <ele>472.08</ele>
        <time>2021-07-30T18:33:50Z</time>
      </trkpt>
      <trkpt lat="42.2753" lon="2.60166">
        <ele>471.3</ele>
        <time>2021-07-30T18:33:51Z</time>
      </trkpt>
      <trkpt lat="42.27517" lon="2.60117">
        <ele>466.79</ele>
        <time>2021-07-30T18:33:56Z</time>
      </trkpt>
      <trkpt lat="42.27517" lon="2.60095">
        <ele>463.95</ele>
        <time>2021-07-30T18:33:59Z</time>
      </trkpt>
      <trkpt lat="42.27518" lon="2.60033">
        <ele>459.34</ele>
        <time>2021-07-30T18:34:05Z</time>
      </trkpt>
      <trkpt lat="42.27518" lon="2.60022">
        <ele>458.46</ele>
        <time>2021-07-30T18:34:06Z</time>
      </trkpt>
      <trkpt lat="42.27523" lon="2.59974">
        <ele>453.98</ele>
        <time>2021-07-30T18:34:12Z</time>
      </trkpt>
      <trkpt lat="42.27505" lon="2.59995">
        <ele>451.19</ele>
        <time>2021-07-30T18:34:16Z</time>
      </trkpt>
      <trkpt lat="42.27502" lon="2.60007">
        <ele>450.6</ele>
        <time>2021-07-30T18:34:17Z</time>
      </trkpt>
      <trkpt lat="42.27496" lon="2.6004">
        <ele>448.86</ele>
        <time>2021-07-30T18:34:20Z</time>
      </trkpt>
      <trkpt lat="42.27473" lon="2.60098">
        <ele>445.44</ele>
        <time>2021-07-30T18:34:26Z</time>
      </trkpt>
      <trkpt lat="42.27453" lon="2.60103">
        <ele>442.2</ele>
        <time>2021-07-30T18:34:32Z</time>
      </trkpt>
      <trkpt lat="42.27453" lon="2.60085">
        <ele>440.48</ele>
        <time>2021-07-30T18:34:35Z</time>
      </trkpt>
      <trkpt lat="42.27457" lon="2.60057">
        <ele>438.93</ele>
        <time>2021-07-30T18:34:38Z</time>
      </trkpt>
      <trkpt lat="42.27457" lon="2.60027">
        <ele>436.49</ele>
        <time>2021-07-30T18:34:41Z</time>
      </trkpt>
      <trkpt lat="42.27462" lon="2.59989">
        <ele>433.25</ele>
        <time>2021-07-30T18:34:45Z</time>
      </trkpt>
      <trkpt lat="42.27439" lon="2.5999">
        <ele>429.41</ele>
        <time>2021-07-30T18:34:50Z</time>
      </trkpt>
      <trkpt lat="42.27433" lon="2.59997">
        <ele>428.67</ele>
        <time>2021-07-30T18:34:51Z</time>
      </trkpt>
      <trkpt lat="42.27421" lon="2.60012">
        <ele>427.23</ele>
        <time>2021-07-30T18:34:53Z</time>
      </trkpt>
      <trkpt lat="42.27405" lon="2.60059">
        <ele>423.15</ele>
        <time>2021-07-30T18:34:58Z</time>
      </trkpt>
      <trkpt lat="42.2739" lon="2.6008">
        <ele>420.08</ele>
        <time>2021-07-30T18:35:02Z</time>
      </trkpt>
      <trkpt lat="42.27369" lon="2.60038">
        <ele>416.43</ele>
        <time>2021-07-30T18:35:07Z</time>
      </trkpt>
      <trkpt lat="42.27366" lon="2.60014">
        <ele>414.84</ele>
        <time>2021-07-30T18:35:09Z</time>
      </trkpt>
      <trkpt lat="42.27364" lon="2.59983">
        <ele>411.61</ele>
        <time>2021-07-30T18:35:12Z</time>
      </trkpt>
      <trkpt lat="42.27371" lon="2.59942">
        <ele>407.35</ele>
        <time>2021-07-30T18:35:16Z</time>
      </trkpt>
      <trkpt lat="42.27375" lon="2.59932">
        <ele>406.13</ele>
        <time>2021-07-30T18:35:17Z</time>
      </trkpt>
      <trkpt lat="42.27395" lon="2.5988">
        <ele>401.33</ele>
        <time>2021-07-30T18:35:22Z</time>
      </trkpt>
      <trkpt lat="42.27425" lon="2.5983">
        <ele>397.5</ele>
        <time>2021-07-30T18:35:26Z</time>
      </trkpt>
      <trkpt lat="42.27433" lon="2.59818">
        <ele>396.39</ele>
        <time>2021-07-30T18:35:27Z</time>
      </trkpt>
      <trkpt lat="42.27446" lon="2.59768">
        <ele>391.84</ele>
        <time>2021-07-30T18:35:31Z</time>
      </trkpt>
      <trkpt lat="42.27449" lon="2.59705">
        <ele>387.58</ele>
        <time>2021-07-30T18:35:36Z</time>
      </trkpt>
      <trkpt lat="42.27454" lon="2.59666">
        <ele>384.54</ele>
        <time>2021-07-30T18:35:40Z</time>
      </trkpt>
      <trkpt lat="42.27462" lon="2.59633">
        <ele>382.37</ele>
        <time>2021-07-30T18:35:43Z</time>
      </trkpt>
      <trkpt lat="42.2748" lon="2.59602">
        <ele>377.76</ele>
        <time>2021-07-30T18:35:48Z</time>
      </trkpt>
      <trkpt lat="42.27464" lon="2.59598">
        <ele>374.47</ele>
        <time>2021-07-30T18:35:52Z</time>
      </trkpt>
      <trkpt lat="42.27458" lon="2.59602">
        <ele>373.79</ele>
        <time>2021-07-30T18:35:53Z</time>
      </trkpt>
      <trkpt lat="42.27445" lon="2.59611">
        <ele>372.32</ele>
        <time>2021-07-30T18:35:55Z</time>
      </trkpt>
      <trkpt lat="42.27414" lon="2.59639">
        <ele>369.3</ele>
        <time>2021-07-30T18:35:59Z</time>
      </trkpt>
      <trkpt lat="42.27397" lon="2.59627">
        <ele>364.83</ele>
        <time>2021-07-30T18:36:04Z</time>
      </trkpt>
      <trkpt lat="42.27405" lon="2.59609">
        <ele>363.32</ele>
        <time>2021-07-30T18:36:06Z</time>
      </trkpt>
      <trkpt lat="42.27433" lon="2.59554">
        <ele>358.97</ele>
        <time>2021-07-30T18:36:13Z</time>
      </trkpt>
      <trkpt lat="42.27418" lon="2.59544">
        <ele>356.97</ele>
        <time>2021-07-30T18:36:16Z</time>
      </trkpt>
      <trkpt lat="42.27386" lon="2.59542">
        <ele>352.98</ele>
        <time>2021-07-30T18:36:20Z</time>
      </trkpt>
      <trkpt lat="42.2735" lon="2.59538">
        <ele>349.33</ele>
        <time>2021-07-30T18:36:25Z</time>
      </trkpt>
      <trkpt lat="42.27331" lon="2.59538">
        <ele>347.57</ele>
        <time>2021-07-30T18:36:28Z</time>
      </trkpt>
      <trkpt lat="42.27326" lon="2.59541">
        <ele>347.04</ele>
        <time>2021-07-30T18:36:29Z</time>
      </trkpt>
      <trkpt lat="42.27321" lon="2.59546">
        <ele>346.54</ele>
        <time>2021-07-30T18:36:30Z</time>
      </trkpt>
      <trkpt lat="42.27317" lon="2.59553">
        <ele>346.09</ele>
        <time>2021-07-30T18:36:31Z</time>
      </trkpt>
      <trkpt lat="42.27314" lon="2.59562">
        <ele>345.65</ele>
        <time>2021-07-30T18:36:32Z</time>
      </trkpt>
      <trkpt lat="42.27311" lon="2.59572">
        <ele>345.23</ele>
        <time>2021-07-30T18:36:33Z</time>
      </trkpt>
      <trkpt lat="42.2731" lon="2.59582">
        <ele>344.87</ele>
        <time>2021-07-30T18:36:34Z</time>
      </trkpt>
      <trkpt lat="42.27308" lon="2.59592">
        <ele>344.55</ele>
        <time>2021-07-30T18:36:35Z</time>
      </trkpt>
      <trkpt lat="42.27302" lon="2.59685">
        <ele>341.82</ele>
        <time>2021-07-30T18:36:42Z</time>
      </trkpt>
      <trkpt lat="42.27305" lon="2.59699">
        <ele>341.18</ele>
        <time>2021-07-30T18:36:43Z</time>
      </trkpt>
      <trkpt lat="42.27309" lon="2.59712">
        <ele>340.54</ele>
        <time>2021-07-30T18:36:44Z</time>
      </trkpt>
      <trkpt lat="42.27312" lon="2.59722">
        <ele>339.87</ele>
        <time>2021-07-30T18:36:45Z</time>
      </trkpt>
      <trkpt lat="42.2729" lon="2.59759">
        <ele>336.57</ele>
        <time>2021-07-30T18:36:50Z</time>
      </trkpt>
      <trkpt lat="42.27257" lon="2.59766">
        <ele>335.69</ele>
        <time>2021-07-30T18:36:53Z</time>
      </trkpt>
      <trkpt lat="42.27224" lon="2.59771">
        <ele>334.61</ele>
        <time>2021-07-30T18:36:56Z</time>
      </trkpt>
      <trkpt lat="42.27194" lon="2.59795">
        <ele>330.62</ele>
        <time>2021-07-30T18:37:01Z</time>
      </trkpt>
      <trkpt lat="42.27186" lon="2.59764">
        <ele>327.01</ele>
        <time>2021-07-30T18:37:05Z</time>
      </trkpt>
      <trkpt lat="42.27197" lon="2.59747">
        <ele>325.38</ele>
        <time>2021-07-30T18:37:07Z</time>
      </trkpt>
      <trkpt lat="42.2721" lon="2.59731">
        <ele>323.76</ele>
        <time>2021-07-30T18:37:09Z</time>
      </trkpt>
      <trkpt lat="42.27229" lon="2.59692">
        <ele>319.74</ele>
        <time>2021-07-30T18:37:14Z</time>
      </trkpt>
      <trkpt lat="42.27199" lon="2.59699">
        <ele>316.39</ele>
        <time>2021-07-30T18:37:19Z</time>
      </trkpt>
      <trkpt lat="42.27169" lon="2.59716">
        <ele>313.83</ele>
        <time>2021-07-30T18:37:22Z</time>
      </trkpt>
      <trkpt lat="42.27141" lon="2.59785">
        <ele>310</ele>
        <time>2021-07-30T18:37:28Z</time>
      </trkpt>
      <trkpt lat="42.27127" lon="2.59822">
        <ele>308.55</ele>
        <time>2021-07-30T18:37:31Z</time>
      </trkpt>
      <trkpt lat="42.27043" lon="2.59865">
        <ele>304.29</ele>
        <time>2021-07-30T18:37:38Z</time>
      </trkpt>
      <trkpt lat="42.26992" lon="2.59862">
        <ele>300.08</ele>
        <time>2021-07-30T18:37:42Z</time>
      </trkpt>
      <trkpt lat="42.26982" lon="2.59862">
        <ele>299.02</ele>
        <time>2021-07-30T18:37:43Z</time>
      </trkpt>
      <trkpt lat="42.26966" lon="2.59846">
        <ele>294.14</ele>
        <time>2021-07-30T18:37:47Z</time>
      </trkpt>
      <trkpt lat="42.26966" lon="2.59838">
        <ele>290.8</ele>
        <time>2021-07-30T18:37:50Z</time>
      </trkpt>
      <trkpt lat="42.26951" lon="2.59835">
        <ele>287.67</ele>
        <time>2021-07-30T18:37:54Z</time>
      </trkpt>
      <trkpt lat="42.26912" lon="2.59879">
        <ele>284.25</ele>
        <time>2021-07-30T18:37:59Z</time>
      </trkpt>
      <trkpt lat="42.26899" lon="2.59912">
        <ele>280.28</ele>
        <time>2021-07-30T18:38:03Z</time>
      </trkpt>
      <trkpt lat="42.26889" lon="2.59907">
        <ele>277.14</ele>
        <time>2021-07-30T18:38:06Z</time>
      </trkpt>
      <trkpt lat="42.26893" lon="2.5989">
        <ele>275.35</ele>
        <time>2021-07-30T18:38:08Z</time>
      </trkpt>
      <trkpt lat="42.26883" lon="2.59879">
        <ele>270.68</ele>
        <time>2021-07-30T18:38:15Z</time>
      </trkpt>
      <trkpt lat="42.26876" lon="2.59906">
        <ele>269.35</ele>
        <time>2021-07-30T18:38:17Z</time>
      </trkpt>
      <trkpt lat="42.26856" lon="2.59978">
        <ele>266.57</ele>
        <time>2021-07-30T18:38:21Z</time>
      </trkpt>
      <trkpt lat="42.26823" lon="2.6003">
        <ele>262.74</ele>
        <time>2021-07-30T18:38:25Z</time>
      </trkpt>
      <trkpt lat="42.26784" lon="2.60108">
        <ele>258.31</ele>
        <time>2021-07-30T18:38:29Z</time>
      </trkpt>
      <trkpt lat="42.2676" lon="2.60171">
        <ele>255.22</ele>
        <time>2021-07-30T18:38:32Z</time>
      </trkpt>
      <trkpt lat="42.26747" lon="2.60207">
        <ele>253.39</ele>
        <time>2021-07-30T18:38:34Z</time>
      </trkpt>
      <trkpt lat="42.26708" lon="2.60253">
        <ele>249.16</ele>
        <time>2021-07-30T18:38:39Z</time>
      </trkpt>
      <trkpt lat="42.26675" lon="2.60277">
        <ele>246.34</ele>
        <time>2021-07-30T18:38:45Z</time>
      </trkpt>
      <trkpt lat="42.26574" lon="2.60318">
        <ele>244.8</ele>
        <time>2021-07-30T18:38:55Z</time>
      </trkpt>
      <trkpt lat="42.26493" lon="2.60358">
        <ele>245.01</ele>
        <time>2021-07-30T18:39:00Z</time>
      </trkpt>
      <trkpt lat="42.26446" lon="2.60395">
        <ele>244.96</ele>
        <time>2021-07-30T18:39:03Z</time>
      </trkpt>
      <trkpt lat="42.26288" lon="2.60458">
        <ele>243.54</ele>
        <time>2021-07-30T18:39:12Z</time>
      </trkpt>
      <trkpt lat="42.26169" lon="2.6046">
        <ele>244.62</ele>
        <time>2021-07-30T18:39:19Z</time>
      </trkpt>
      <trkpt lat="42.26113" lon="2.60485">
        <ele>246.33</ele>
        <time>2021-07-30T18:39:23Z</time>
      </trkpt>
      <trkpt lat="42.26048" lon="2.60499">
        <ele>248.42</ele>
        <time>2021-07-30T18:39:28Z</time>
      </trkpt>
      <trkpt lat="42.25979" lon="2.60443">
        <ele>248.9</ele>
        <time>2021-07-30T18:39:34Z</time>
      </trkpt>
      <trkpt lat="42.2595" lon="2.60393">
        <ele>248.84</ele>
        <time>2021-07-30T18:39:37Z</time>
      </trkpt>
      <trkpt lat="42.25891" lon="2.60279">
        <ele>248.44</ele>
        <time>2021-07-30T18:39:43Z</time>
      </trkpt>
      <trkpt lat="42.25805" lon="2.6016">
        <ele>246.84</ele>
        <time>2021-07-30T18:39:51Z</time>
      </trkpt>
      <trkpt lat="42.25795" lon="2.60149">
        <ele>246.58</ele>
        <time>2021-07-30T18:39:52Z</time>
      </trkpt>
      <trkpt lat="42.25722" lon="2.6014">
        <ele>244.85</ele>
        <time>2021-07-30T18:39:58Z</time>
      </trkpt>
      <trkpt lat="42.25696" lon="2.60142">
        <ele>244.4</ele>
        <time>2021-07-30T18:40:00Z</time>
      </trkpt>
      <trkpt lat="42.25603" lon="2.60199">
        <ele>244.13</ele>
        <time>2021-07-30T18:40:07Z</time>
      </trkpt>
      <trkpt lat="42.25506" lon="2.60198">
        <ele>244.68</ele>
        <time>2021-07-30T18:40:14Z</time>
      </trkpt>
      <trkpt lat="42.25465" lon="2.60143">
        <ele>245.17</ele>
        <time>2021-07-30T18:40:19Z</time>
      </trkpt>
      <trkpt lat="42.25435" lon="2.60102">
        <ele>244.72</ele>
        <time>2021-07-30T18:40:24Z</time>
      </trkpt>
      <trkpt lat="42.25413" lon="2.60097">
        <ele>244.52</ele>
        <time>2021-07-30T18:40:26Z</time>
      </trkpt>
      <trkpt lat="42.25315" lon="2.60041">
        <ele>244.82</ele>
        <time>2021-07-30T18:40:34Z</time>
      </trkpt>
      <trkpt lat="42.25269" lon="2.60027">
        <ele>243.31</ele>
        <time>2021-07-30T18:40:41Z</time>
      </trkpt>
      <trkpt lat="42.2527" lon="2.60028">
        <ele>242.69</ele>
        <time>2021-07-30T18:40:44Z</time>
      </trkpt>
      <trkpt lat="42.25308" lon="2.60042">
        <ele>241.8</ele>
        <time>2021-07-30T18:40:53Z</time>
      </trkpt>
      <trkpt lat="42.25317" lon="2.60047">
        <ele>242.09</ele>
        <time>2021-07-30T18:41:04Z</time>
      </trkpt>
      <trkpt lat="42.2531" lon="2.60049">
        <ele>242.16</ele>
        <time>2021-07-30T18:41:12Z</time>
      </trkpt>
      <trkpt lat="42.25302" lon="2.60047">
        <ele>242.2</ele>
        <time>2021-07-30T18:41:15Z</time>
      </trkpt>
      <trkpt lat="42.25271" lon="2.60033">
        <ele>242.34</ele>
        <time>2021-07-30T18:41:19Z</time>
      </trkpt>
      <trkpt lat="42.25183" lon="2.60048">
        <ele>242.76</ele>
        <time>2021-07-30T18:41:26Z</time>
      </trkpt>
      <trkpt lat="42.25094" lon="2.60069">
        <ele>243.89</ele>
        <time>2021-07-30T18:41:32Z</time>
      </trkpt>
      <trkpt lat="42.25058" lon="2.60095">
        <ele>244.15</ele>
        <time>2021-07-30T18:41:35Z</time>
      </trkpt>
      <trkpt lat="42.25015" lon="2.60153">
        <ele>243.98</ele>
        <time>2021-07-30T18:41:39Z</time>
      </trkpt>
      <trkpt lat="42.2493" lon="2.6034">
        <ele>240.4</ele>
        <time>2021-07-30T18:41:49Z</time>
      </trkpt>
      <trkpt lat="42.24894" lon="2.60408">
        <ele>237.69</ele>
        <time>2021-07-30T18:41:55Z</time>
      </trkpt>
      <trkpt lat="42.24856" lon="2.60421">
        <ele>236.35</ele>
        <time>2021-07-30T18:41:59Z</time>
      </trkpt>
      <trkpt lat="42.24813" lon="2.60422">
        <ele>235</ele>
        <time>2021-07-30T18:42:03Z</time>
      </trkpt>
      <trkpt lat="42.24783" lon="2.60385">
        <ele>231.46</ele>
        <time>2021-07-30T18:42:09Z</time>
      </trkpt>
      <trkpt lat="42.24753" lon="2.60321">
        <ele>227.61</ele>
        <time>2021-07-30T18:42:16Z</time>
      </trkpt>
      <trkpt lat="42.24744" lon="2.60309">
        <ele>226.64</ele>
        <time>2021-07-30T18:42:18Z</time>
      </trkpt>
      <trkpt lat="42.24699" lon="2.6026">
        <ele>223.02</ele>
        <time>2021-07-30T18:42:26Z</time>
      </trkpt>
      <trkpt lat="42.2466" lon="2.60215">
        <ele>220.83</ele>
        <time>2021-07-30T18:42:31Z</time>
      </trkpt>
      <trkpt lat="42.24631" lon="2.60194">
        <ele>218.89</ele>
        <time>2021-07-30T18:42:35Z</time>
      </trkpt>
      <trkpt lat="42.24558" lon="2.60151">
        <ele>215.23</ele>
        <time>2021-07-30T18:42:43Z</time>
      </trkpt>
      <trkpt lat="42.24454" lon="2.6006">
        <ele>213.4</ele>
        <time>2021-07-30T18:42:53Z</time>
      </trkpt>
      <trkpt lat="42.24327" lon="2.59952">
        <ele>213.12</ele>
        <time>2021-07-30T18:43:02Z</time>
      </trkpt>
      <trkpt lat="42.24244" lon="2.59839">
        <ele>212.93</ele>
        <time>2021-07-30T18:43:09Z</time>
      </trkpt>
      <trkpt lat="42.24198" lon="2.59768">
        <ele>213.1</ele>
        <time>2021-07-30T18:43:14Z</time>
      </trkpt>
      <trkpt lat="42.24151" lon="2.59755">
        <ele>213.74</ele>
        <time>2021-07-30T18:43:19Z</time>
      </trkpt>
      <trkpt lat="42.24115" lon="2.59811">
        <ele>215.02</ele>
        <time>2021-07-30T18:43:23Z</time>
      </trkpt>
      <trkpt lat="42.24063" lon="2.59902">
        <ele>218.37</ele>
        <time>2021-07-30T18:43:29Z</time>
      </trkpt>
      <trkpt lat="42.24015" lon="2.59931">
        <ele>220.91</ele>
        <time>2021-07-30T18:43:33Z</time>
      </trkpt>
      <trkpt lat="42.23979" lon="2.59937">
        <ele>222.66</ele>
        <time>2021-07-30T18:43:36Z</time>
      </trkpt>
      <trkpt lat="42.23948" lon="2.59893">
        <ele>226.5</ele>
        <time>2021-07-30T18:43:42Z</time>
      </trkpt>
      <trkpt lat="42.23969" lon="2.59865">
        <ele>227.74</ele>
        <time>2021-07-30T18:43:44Z</time>
      </trkpt>
      <trkpt lat="42.23988" lon="2.59838">
        <ele>229.23</ele>
        <time>2021-07-30T18:43:46Z</time>
      </trkpt>
      <trkpt lat="42.23975" lon="2.59789">
        <ele>233.42</ele>
        <time>2021-07-30T18:43:52Z</time>
      </trkpt>
      <trkpt lat="42.23957" lon="2.59794">
        <ele>234.87</ele>
        <time>2021-07-30T18:43:54Z</time>
      </trkpt>
      <trkpt lat="42.2387" lon="2.59824">
        <ele>239.09</ele>
        <time>2021-07-30T18:44:00Z</time>
      </trkpt>
      <trkpt lat="42.23807" lon="2.59862">
        <ele>242.84</ele>
        <time>2021-07-30T18:44:04Z</time>
      </trkpt>
      <trkpt lat="42.23782" lon="2.59878">
        <ele>244.94</ele>
        <time>2021-07-30T18:44:06Z</time>
      </trkpt>
      <trkpt lat="42.23731" lon="2.59856">
        <ele>249.53</ele>
        <time>2021-07-30T18:44:11Z</time>
      </trkpt>
      <trkpt lat="42.23741" lon="2.59801">
        <ele>252.17</ele>
        <time>2021-07-30T18:44:14Z</time>
      </trkpt>
      <trkpt lat="42.23764" lon="2.59695">
        <ele>257.06</ele>
        <time>2021-07-30T18:44:19Z</time>
      </trkpt>
      <trkpt lat="42.23769" lon="2.59661">
        <ele>258.74</ele>
        <time>2021-07-30T18:44:21Z</time>
      </trkpt>
      <trkpt lat="42.23746" lon="2.59604">
        <ele>261.28</ele>
        <time>2021-07-30T18:44:27Z</time>
      </trkpt>
      <trkpt lat="42.23734" lon="2.59602">
        <ele>261.82</ele>
        <time>2021-07-30T18:44:33Z</time>
      </trkpt>
      <trkpt lat="42.2375" lon="2.59594">
        <ele>261.95</ele>
        <time>2021-07-30T18:44:40Z</time>
      </trkpt>
      <trkpt lat="42.23792" lon="2.59604">
        <ele>262.16</ele>
        <time>2021-07-30T18:44:46Z</time>
      </trkpt>
      <trkpt lat="42.23808" lon="2.59622">
        <ele>262.53</ele>
        <time>2021-07-30T18:44:50Z</time>
      </trkpt>
      <trkpt lat="42.23832" lon="2.59669">
        <ele>264.27</ele>
        <time>2021-07-30T18:44:55Z</time>
      </trkpt>
      <trkpt lat="42.23879" lon="2.59692">
        <ele>265.77</ele>
        <time>2021-07-30T18:45:02Z</time>
      </trkpt>
      <trkpt lat="42.23907" lon="2.59674">
        <ele>266.1</ele>
        <time>2021-07-30T18:45:05Z</time>
      </trkpt>
      <trkpt lat="42.23978" lon="2.59612">
        <ele>269.94</ele>
        <time>2021-07-30T18:45:11Z</time>
      </trkpt>
      <trkpt lat="42.24011" lon="2.59577">
        <ele>273.28</ele>
        <time>2021-07-30T18:45:14Z</time>
      </trkpt>
      <trkpt lat="42.24037" lon="2.59541">
        <ele>277.19</ele>
        <time>2021-07-30T18:45:17Z</time>
      </trkpt>
      <trkpt lat="42.2406" lon="2.59498">
        <ele>281.41</ele>
        <time>2021-07-30T18:45:20Z</time>
      </trkpt>
      <trkpt lat="42.24084" lon="2.59449">
        <ele>285.36</ele>
        <time>2021-07-30T18:45:23Z</time>
      </trkpt>
      <trkpt lat="42.24109" lon="2.59399">
        <ele>288.82</ele>
        <time>2021-07-30T18:45:26Z</time>
      </trkpt>
      <trkpt lat="42.24133" lon="2.5936">
        <ele>292.05</ele>
        <time>2021-07-30T18:45:29Z</time>
      </trkpt>
      <trkpt lat="42.24139" lon="2.59349">
        <ele>292.97</ele>
        <time>2021-07-30T18:45:30Z</time>
      </trkpt>
      <trkpt lat="42.24143" lon="2.59337">
        <ele>293.89</ele>
        <time>2021-07-30T18:45:31Z</time>
      </trkpt>
      <trkpt lat="42.24151" lon="2.59316">
        <ele>295.68</ele>
        <time>2021-07-30T18:45:33Z</time>
      </trkpt>
      <trkpt lat="42.24157" lon="2.59309">
        <ele>296.35</ele>
        <time>2021-07-30T18:45:34Z</time>
      </trkpt>
      <trkpt lat="42.24164" lon="2.59305">
        <ele>296.92</ele>
        <time>2021-07-30T18:45:35Z</time>
      </trkpt>
      <trkpt lat="42.24174" lon="2.59309">
        <ele>297.44</ele>
        <time>2021-07-30T18:45:36Z</time>
      </trkpt>
      <trkpt lat="42.24186" lon="2.59311">
        <ele>298</ele>
        <time>2021-07-30T18:45:37Z</time>
      </trkpt>
      <trkpt lat="42.24236" lon="2.593">
        <ele>300.79</ele>
        <time>2021-07-30T18:45:42Z</time>
      </trkpt>
      <trkpt lat="42.24255" lon="2.59289">
        <ele>302.23</ele>
        <time>2021-07-30T18:45:44Z</time>
      </trkpt>
      <trkpt lat="42.24291" lon="2.59231">
        <ele>306.07</ele>
        <time>2021-07-30T18:45:49Z</time>
      </trkpt>
      <trkpt lat="42.24308" lon="2.59139">
        <ele>310.32</ele>
        <time>2021-07-30T18:45:55Z</time>
      </trkpt>
      <trkpt lat="42.24309" lon="2.59127">
        <ele>311</ele>
        <time>2021-07-30T18:45:56Z</time>
      </trkpt>
      <trkpt lat="42.24303" lon="2.59063">
        <ele>313.79</ele>
        <time>2021-07-30T18:46:01Z</time>
      </trkpt>
      <trkpt lat="42.24291" lon="2.59008">
        <ele>314.93</ele>
        <time>2021-07-30T18:46:06Z</time>
      </trkpt>
      <trkpt lat="42.24284" lon="2.58965">
        <ele>315.16</ele>
        <time>2021-07-30T18:46:14Z</time>
      </trkpt>
      <trkpt lat="42.24287" lon="2.58946">
        <ele>314.75</ele>
        <time>2021-07-30T18:46:18Z</time>
      </trkpt>
      <trkpt lat="42.24317" lon="2.58885">
        <ele>314.22</ele>
        <time>2021-07-30T18:46:25Z</time>
      </trkpt>
      <trkpt lat="42.24316" lon="2.58857">
        <ele>313.9</ele>
        <time>2021-07-30T18:46:27Z</time>
      </trkpt>
      <trkpt lat="42.2432" lon="2.58801">
        <ele>313.1</ele>
        <time>2021-07-30T18:46:31Z</time>
      </trkpt>
      <trkpt lat="42.24329" lon="2.5878">
        <ele>312.55</ele>
        <time>2021-07-30T18:46:34Z</time>
      </trkpt>
      <trkpt lat="42.24334" lon="2.58742">
        <ele>312.29</ele>
        <time>2021-07-30T18:46:38Z</time>
      </trkpt>
      <trkpt lat="42.24325" lon="2.58698">
        <ele>311.73</ele>
        <time>2021-07-30T18:46:42Z</time>
      </trkpt>
      <trkpt lat="42.24348" lon="2.58655">
        <ele>310.43</ele>
        <time>2021-07-30T18:46:48Z</time>
      </trkpt>
      <trkpt lat="42.24363" lon="2.58642">
        <ele>311.12</ele>
        <time>2021-07-30T18:46:51Z</time>
      </trkpt>
      <trkpt lat="42.24376" lon="2.58568">
        <ele>313.79</ele>
        <time>2021-07-30T18:46:58Z</time>
      </trkpt>
      <trkpt lat="42.24373" lon="2.58553">
        <ele>314.14</ele>
        <time>2021-07-30T18:46:59Z</time>
      </trkpt>
      <trkpt lat="42.24359" lon="2.58449">
        <ele>313.73</ele>
        <time>2021-07-30T18:47:07Z</time>
      </trkpt>
      <trkpt lat="42.24343" lon="2.58408">
        <ele>312.62</ele>
        <time>2021-07-30T18:47:12Z</time>
      </trkpt>
      <trkpt lat="42.24312" lon="2.58298">
        <ele>315.74</ele>
        <time>2021-07-30T18:47:21Z</time>
      </trkpt>
      <trkpt lat="42.24307" lon="2.58286">
        <ele>316.19</ele>
        <time>2021-07-30T18:47:22Z</time>
      </trkpt>
      <trkpt lat="42.24258" lon="2.58271">
        <ele>317.88</ele>
        <time>2021-07-30T18:47:28Z</time>
      </trkpt>
      <trkpt lat="42.24244" lon="2.58243">
        <ele>319.62</ele>
        <time>2021-07-30T18:47:34Z</time>
      </trkpt>
      <trkpt lat="42.24246" lon="2.58221">
        <ele>320.15</ele>
        <time>2021-07-30T18:47:36Z</time>
      </trkpt>
      <trkpt lat="42.24229" lon="2.58165">
        <ele>322.4</ele>
        <time>2021-07-30T18:47:41Z</time>
      </trkpt>
      <trkpt lat="42.24144" lon="2.58094">
        <ele>326.13</ele>
        <time>2021-07-30T18:47:49Z</time>
      </trkpt>
      <trkpt lat="42.24118" lon="2.58077">
        <ele>326.45</ele>
        <time>2021-07-30T18:47:52Z</time>
      </trkpt>
      <trkpt lat="42.241" lon="2.58058">
        <ele>325.66</ele>
        <time>2021-07-30T18:47:55Z</time>
      </trkpt>
      <trkpt lat="42.24114" lon="2.5803">
        <ele>323.44</ele>
        <time>2021-07-30T18:48:00Z</time>
      </trkpt>
      <trkpt lat="42.24121" lon="2.58024">
        <ele>323.15</ele>
        <time>2021-07-30T18:48:01Z</time>
      </trkpt>
      <trkpt lat="42.24142" lon="2.58005">
        <ele>322.23</ele>
        <time>2021-07-30T18:48:04Z</time>
      </trkpt>
      <trkpt lat="42.24206" lon="2.57973">
        <ele>319.29</ele>
        <time>2021-07-30T18:48:10Z</time>
      </trkpt>
      <trkpt lat="42.24242" lon="2.57936">
        <ele>317.64</ele>
        <time>2021-07-30T18:48:14Z</time>
      </trkpt>
      <trkpt lat="42.24311" lon="2.57802">
        <ele>315.11</ele>
        <time>2021-07-30T18:48:23Z</time>
      </trkpt>
      <trkpt lat="42.2432" lon="2.57729">
        <ele>315.74</ele>
        <time>2021-07-30T18:48:28Z</time>
      </trkpt>
      <trkpt lat="42.24302" lon="2.57665">
        <ele>315.63</ele>
        <time>2021-07-30T18:48:34Z</time>
      </trkpt>
      <trkpt lat="42.24286" lon="2.57607">
        <ele>314.38</ele>
        <time>2021-07-30T18:48:39Z</time>
      </trkpt>
      <trkpt lat="42.24304" lon="2.57525">
        <ele>313.29</ele>
        <time>2021-07-30T18:48:45Z</time>
      </trkpt>
      <trkpt lat="42.24316" lon="2.57496">
        <ele>313.53</ele>
        <time>2021-07-30T18:48:48Z</time>
      </trkpt>
      <trkpt lat="42.24286" lon="2.57446">
        <ele>312.46</ele>
        <time>2021-07-30T18:48:55Z</time>
      </trkpt>
      <trkpt lat="42.24271" lon="2.57424">
        <ele>309.44</ele>
        <time>2021-07-30T18:49:00Z</time>
      </trkpt>
      <trkpt lat="42.2427" lon="2.57365">
        <ele>308.12</ele>
        <time>2021-07-30T18:49:06Z</time>
      </trkpt>
      <trkpt lat="42.24247" lon="2.57289">
        <ele>309.66</ele>
        <time>2021-07-30T18:49:12Z</time>
      </trkpt>
      <trkpt lat="42.24243" lon="2.57258">
        <ele>310.29</ele>
        <time>2021-07-30T18:49:14Z</time>
      </trkpt>
      <trkpt lat="42.24203" lon="2.5714">
        <ele>313.26</ele>
        <time>2021-07-30T18:49:21Z</time>
      </trkpt>
      <trkpt lat="42.24167" lon="2.57102">
        <ele>318</ele>
        <time>2021-07-30T18:49:26Z</time>
      </trkpt>
      <trkpt lat="42.24141" lon="2.5708">
        <ele>321.89</ele>
        <time>2021-07-30T18:49:29Z</time>
      </trkpt>
      <trkpt lat="42.24104" lon="2.57049">
        <ele>325.79</ele>
        <time>2021-07-30T18:49:33Z</time>
      </trkpt>
      <trkpt lat="42.24108" lon="2.57008">
        <ele>329.56</ele>
        <time>2021-07-30T18:49:38Z</time>
      </trkpt>
      <trkpt lat="42.2412" lon="2.56949">
        <ele>332.77</ele>
        <time>2021-07-30T18:49:42Z</time>
      </trkpt>
      <trkpt lat="42.24121" lon="2.5693">
        <ele>333.62</ele>
        <time>2021-07-30T18:49:43Z</time>
      </trkpt>
      <trkpt lat="42.24125" lon="2.56826">
        <ele>336.44</ele>
        <time>2021-07-30T18:49:48Z</time>
      </trkpt>
      <trkpt lat="42.24143" lon="2.5672">
        <ele>336.18</ele>
        <time>2021-07-30T18:49:54Z</time>
      </trkpt>
      <trkpt lat="42.2414" lon="2.56655">
        <ele>334.96</ele>
        <time>2021-07-30T18:49:58Z</time>
      </trkpt>
      <trkpt lat="42.24131" lon="2.5657">
        <ele>332.06</ele>
        <time>2021-07-30T18:50:03Z</time>
      </trkpt>
      <trkpt lat="42.24162" lon="2.56498">
        <ele>326.99</ele>
        <time>2021-07-30T18:50:09Z</time>
      </trkpt>
      <trkpt lat="42.2417" lon="2.5644">
        <ele>323.87</ele>
        <time>2021-07-30T18:50:13Z</time>
      </trkpt>
      <trkpt lat="42.24147" lon="2.56382">
        <ele>321.46</ele>
        <time>2021-07-30T18:50:17Z</time>
      </trkpt>
      <trkpt lat="42.24136" lon="2.56356">
        <ele>320.35</ele>
        <time>2021-07-30T18:50:19Z</time>
      </trkpt>
      <trkpt lat="42.24123" lon="2.5626">
        <ele>316.04</ele>
        <time>2021-07-30T18:50:25Z</time>
      </trkpt>
      <trkpt lat="42.24096" lon="2.56192">
        <ele>311.43</ele>
        <time>2021-07-30T18:50:29Z</time>
      </trkpt>
      <trkpt lat="42.2408" lon="2.56166">
        <ele>306.96</ele>
        <time>2021-07-30T18:50:32Z</time>
      </trkpt>
      <trkpt lat="42.24084" lon="2.56141">
        <ele>302.09</ele>
        <time>2021-07-30T18:50:35Z</time>
      </trkpt>
      <trkpt lat="42.24086" lon="2.56134">
        <ele>300.65</ele>
        <time>2021-07-30T18:50:36Z</time>
      </trkpt>
      <trkpt lat="42.24078" lon="2.5611">
        <ele>295.51</ele>
        <time>2021-07-30T18:50:40Z</time>
      </trkpt>
      <trkpt lat="42.24051" lon="2.56106">
        <ele>292.59</ele>
        <time>2021-07-30T18:50:43Z</time>
      </trkpt>
      <trkpt lat="42.23996" lon="2.56067">
        <ele>288.41</ele>
        <time>2021-07-30T18:50:49Z</time>
      </trkpt>
      <trkpt lat="42.23974" lon="2.55989">
        <ele>286.64</ele>
        <time>2021-07-30T18:50:54Z</time>
      </trkpt>
      <trkpt lat="42.23932" lon="2.55862">
        <ele>283.1</ele>
        <time>2021-07-30T18:51:02Z</time>
      </trkpt>
      <trkpt lat="42.23901" lon="2.55823">
        <ele>282.01</ele>
        <time>2021-07-30T18:51:06Z</time>
      </trkpt>
      <trkpt lat="42.23862" lon="2.55779">
        <ele>278.12</ele>
        <time>2021-07-30T18:51:11Z</time>
      </trkpt>
      <trkpt lat="42.23866" lon="2.55744">
        <ele>273.79</ele>
        <time>2021-07-30T18:51:16Z</time>
      </trkpt>
      <trkpt lat="42.23895" lon="2.55742">
        <ele>270.57</ele>
        <time>2021-07-30T18:51:21Z</time>
      </trkpt>
      <trkpt lat="42.23911" lon="2.55761">
        <ele>269.66</ele>
        <time>2021-07-30T18:51:24Z</time>
      </trkpt>
      <trkpt lat="42.23955" lon="2.55794">
        <ele>269.65</ele>
        <time>2021-07-30T18:51:29Z</time>
      </trkpt>
      <trkpt lat="42.24004" lon="2.55777">
        <ele>270.88</ele>
        <time>2021-07-30T18:51:36Z</time>
      </trkpt>
      <trkpt lat="42.23994" lon="2.55733">
        <ele>271.7</ele>
        <time>2021-07-30T18:51:40Z</time>
      </trkpt>
      <trkpt lat="42.23982" lon="2.55691">
        <ele>272.66</ele>
        <time>2021-07-30T18:51:43Z</time>
      </trkpt>
      <trkpt lat="42.23983" lon="2.55659">
        <ele>273.73</ele>
        <time>2021-07-30T18:51:45Z</time>
      </trkpt>
      <trkpt lat="42.2396" lon="2.55613">
        <ele>277.85</ele>
        <time>2021-07-30T18:51:49Z</time>
      </trkpt>
      <trkpt lat="42.23929" lon="2.55612">
        <ele>281.54</ele>
        <time>2021-07-30T18:51:52Z</time>
      </trkpt>
      <trkpt lat="42.23892" lon="2.55627">
        <ele>284.99</ele>
        <time>2021-07-30T18:51:56Z</time>
      </trkpt>
      <trkpt lat="42.23892" lon="2.55611">
        <ele>286.64</ele>
        <time>2021-07-30T18:52:01Z</time>
      </trkpt>
      <trkpt lat="42.23898" lon="2.55609">
        <ele>286.9</ele>
        <time>2021-07-30T18:52:02Z</time>
      </trkpt>
      <trkpt lat="42.2395" lon="2.55595">
        <ele>288.42</ele>
        <time>2021-07-30T18:52:07Z</time>
      </trkpt>
      <trkpt lat="42.24011" lon="2.55621">
        <ele>290.86</ele>
        <time>2021-07-30T18:52:13Z</time>
      </trkpt>
      <trkpt lat="42.24015" lon="2.55585">
        <ele>293.15</ele>
        <time>2021-07-30T18:52:18Z</time>
      </trkpt>
      <trkpt lat="42.2396" lon="2.55553">
        <ele>295.96</ele>
        <time>2021-07-30T18:52:23Z</time>
      </trkpt>
      <trkpt lat="42.23899" lon="2.55497">
        <ele>300.59</ele>
        <time>2021-07-30T18:52:29Z</time>
      </trkpt>
      <trkpt lat="42.23916" lon="2.55422">
        <ele>303.72</ele>
        <time>2021-07-30T18:52:34Z</time>
      </trkpt>
      <trkpt lat="42.23971" lon="2.55369">
        <ele>307.98</ele>
        <time>2021-07-30T18:52:40Z</time>
      </trkpt>
      <trkpt lat="42.23991" lon="2.55423">
        <ele>310.63</ele>
        <time>2021-07-30T18:52:44Z</time>
      </trkpt>
      <trkpt lat="42.24028" lon="2.55471">
        <ele>314.61</ele>
        <time>2021-07-30T18:52:48Z</time>
      </trkpt>
      <trkpt lat="42.24088" lon="2.55503">
        <ele>318.33</ele>
        <time>2021-07-30T18:52:52Z</time>
      </trkpt>
      <trkpt lat="42.24105" lon="2.55503">
        <ele>319.36</ele>
        <time>2021-07-30T18:52:53Z</time>
      </trkpt>
      <trkpt lat="42.24173" lon="2.55503">
        <ele>323.65</ele>
        <time>2021-07-30T18:52:57Z</time>
      </trkpt>
      <trkpt lat="42.24225" lon="2.55496">
        <ele>327.06</ele>
        <time>2021-07-30T18:53:00Z</time>
      </trkpt>
      <trkpt lat="42.24269" lon="2.55491">
        <ele>330.57</ele>
        <time>2021-07-30T18:53:03Z</time>
      </trkpt>
      <trkpt lat="42.24314" lon="2.55463">
        <ele>334.36</ele>
        <time>2021-07-30T18:53:07Z</time>
      </trkpt>
      <trkpt lat="42.24366" lon="2.55413">
        <ele>338.6</ele>
        <time>2021-07-30T18:53:12Z</time>
      </trkpt>
      <trkpt lat="42.24383" lon="2.55383">
        <ele>340.24</ele>
        <time>2021-07-30T18:53:14Z</time>
      </trkpt>
      <trkpt lat="42.24402" lon="2.55355">
        <ele>342.03</ele>
        <time>2021-07-30T18:53:16Z</time>
      </trkpt>
      <trkpt lat="42.24436" lon="2.55274">
        <ele>346.25</ele>
        <time>2021-07-30T18:53:21Z</time>
      </trkpt>
      <trkpt lat="42.24445" lon="2.55264">
        <ele>347.1</ele>
        <time>2021-07-30T18:53:22Z</time>
      </trkpt>
      <trkpt lat="42.24463" lon="2.55192">
        <ele>351.77</ele>
        <time>2021-07-30T18:53:28Z</time>
      </trkpt>
      <trkpt lat="42.24455" lon="2.55107">
        <ele>354.75</ele>
        <time>2021-07-30T18:53:33Z</time>
      </trkpt>
      <trkpt lat="42.24498" lon="2.55038">
        <ele>358.97</ele>
        <time>2021-07-30T18:53:38Z</time>
      </trkpt>
      <trkpt lat="42.24511" lon="2.55034">
        <ele>359.79</ele>
        <time>2021-07-30T18:53:39Z</time>
      </trkpt>
      <trkpt lat="42.24565" lon="2.54984">
        <ele>364.46</ele>
        <time>2021-07-30T18:53:44Z</time>
      </trkpt>
      <trkpt lat="42.24587" lon="2.5493">
        <ele>366.94</ele>
        <time>2021-07-30T18:53:47Z</time>
      </trkpt>
      <trkpt lat="42.24592" lon="2.54875">
        <ele>369.77</ele>
        <time>2021-07-30T18:53:50Z</time>
      </trkpt>
      <trkpt lat="42.24627" lon="2.54819">
        <ele>373.65</ele>
        <time>2021-07-30T18:53:55Z</time>
      </trkpt>
      <trkpt lat="42.24636" lon="2.54761">
        <ele>376.76</ele>
        <time>2021-07-30T18:53:59Z</time>
      </trkpt>
      <trkpt lat="42.24635" lon="2.54699">
        <ele>380.21</ele>
        <time>2021-07-30T18:54:04Z</time>
      </trkpt>
      <trkpt lat="42.2468" lon="2.54668">
        <ele>383.45</ele>
        <time>2021-07-30T18:54:09Z</time>
      </trkpt>
      <trkpt lat="42.24694" lon="2.54642">
        <ele>384.76</ele>
        <time>2021-07-30T18:54:11Z</time>
      </trkpt>
      <trkpt lat="42.24707" lon="2.54612">
        <ele>386.18</ele>
        <time>2021-07-30T18:54:13Z</time>
      </trkpt>
      <trkpt lat="42.24744" lon="2.54603">
        <ele>388.8</ele>
        <time>2021-07-30T18:54:17Z</time>
      </trkpt>
      <trkpt lat="42.24789" lon="2.54628">
        <ele>392.51</ele>
        <time>2021-07-30T18:54:22Z</time>
      </trkpt>
      <trkpt lat="42.24824" lon="2.54589">
        <ele>395.91</ele>
        <time>2021-07-30T18:54:26Z</time>
      </trkpt>
      <trkpt lat="42.24836" lon="2.54569">
        <ele>396.75</ele>
        <time>2021-07-30T18:54:27Z</time>
      </trkpt>
      <trkpt lat="42.24864" lon="2.54509">
        <ele>400.29</ele>
        <time>2021-07-30T18:54:30Z</time>
      </trkpt>
      <trkpt lat="42.24886" lon="2.54418">
        <ele>404.71</ele>
        <time>2021-07-30T18:54:34Z</time>
      </trkpt>
      <trkpt lat="42.24896" lon="2.54377">
        <ele>406.71</ele>
        <time>2021-07-30T18:54:36Z</time>
      </trkpt>
      <trkpt lat="42.24953" lon="2.5433">
        <ele>411.16</ele>
        <time>2021-07-30T18:54:41Z</time>
      </trkpt>
      <trkpt lat="42.25" lon="2.54383">
        <ele>414.65</ele>
        <time>2021-07-30T18:54:45Z</time>
      </trkpt>
      <trkpt lat="42.2506" lon="2.54411">
        <ele>419.06</ele>
        <time>2021-07-30T18:54:51Z</time>
      </trkpt>
      <trkpt lat="42.25087" lon="2.54416">
        <ele>420.43</ele>
        <time>2021-07-30T18:54:53Z</time>
      </trkpt>
      <trkpt lat="42.25139" lon="2.54365">
        <ele>424.47</ele>
        <time>2021-07-30T18:54:58Z</time>
      </trkpt>
      <trkpt lat="42.252" lon="2.54212">
        <ele>429.56</ele>
        <time>2021-07-30T18:55:05Z</time>
      </trkpt>
      <trkpt lat="42.2521" lon="2.54189">
        <ele>429.84</ele>
        <time>2021-07-30T18:55:06Z</time>
      </trkpt>
      <trkpt lat="42.25242" lon="2.54122">
        <ele>430.06</ele>
        <time>2021-07-30T18:55:09Z</time>
      </trkpt>
      <trkpt lat="42.25266" lon="2.5404">
        <ele>429.03</ele>
        <time>2021-07-30T18:55:13Z</time>
      </trkpt>
      <trkpt lat="42.25292" lon="2.53997">
        <ele>426.54</ele>
        <time>2021-07-30T18:55:17Z</time>
      </trkpt>
      <trkpt lat="42.2533" lon="2.53927">
        <ele>424.32</ele>
        <time>2021-07-30T18:55:22Z</time>
      </trkpt>
      <trkpt lat="42.25372" lon="2.53886">
        <ele>423.37</ele>
        <time>2021-07-30T18:55:26Z</time>
      </trkpt>
      <trkpt lat="42.25427" lon="2.53832">
        <ele>422.54</ele>
        <time>2021-07-30T18:55:32Z</time>
      </trkpt>
      <trkpt lat="42.25438" lon="2.53795">
        <ele>422.24</ele>
        <time>2021-07-30T18:55:34Z</time>
      </trkpt>
      <trkpt lat="42.25452" lon="2.53734">
        <ele>421.8</ele>
        <time>2021-07-30T18:55:37Z</time>
      </trkpt>
      <trkpt lat="42.25438" lon="2.53661">
        <ele>421.45</ele>
        <time>2021-07-30T18:55:42Z</time>
      </trkpt>
      <trkpt lat="42.25429" lon="2.53655">
        <ele>421.45</ele>
        <time>2021-07-30T18:55:43Z</time>
      </trkpt>
      <trkpt lat="42.25416" lon="2.53598">
        <ele>422.48</ele>
        <time>2021-07-30T18:55:50Z</time>
      </trkpt>
      <trkpt lat="42.25427" lon="2.5359">
        <ele>422.91</ele>
        <time>2021-07-30T18:55:51Z</time>
      </trkpt>
      <trkpt lat="42.2545" lon="2.53492">
        <ele>426.62</ele>
        <time>2021-07-30T18:55:58Z</time>
      </trkpt>
      <trkpt lat="42.25488" lon="2.53429">
        <ele>429.66</ele>
        <time>2021-07-30T18:56:03Z</time>
      </trkpt>
      <trkpt lat="42.2551" lon="2.53334">
        <ele>433.86</ele>
        <time>2021-07-30T18:56:10Z</time>
      </trkpt>
      <trkpt lat="42.25467" lon="2.53265">
        <ele>435.96</ele>
        <time>2021-07-30T18:56:16Z</time>
      </trkpt>
      <trkpt lat="42.25469" lon="2.532">
        <ele>438.83</ele>
        <time>2021-07-30T18:56:22Z</time>
      </trkpt>
      <trkpt lat="42.25502" lon="2.53215">
        <ele>440.52</ele>
        <time>2021-07-30T18:56:26Z</time>
      </trkpt>
      <trkpt lat="42.25523" lon="2.53257">
        <ele>442.16</ele>
        <time>2021-07-30T18:56:29Z</time>
      </trkpt>
      <trkpt lat="42.2555" lon="2.53297">
        <ele>443.63</ele>
        <time>2021-07-30T18:56:32Z</time>
      </trkpt>
      <trkpt lat="42.25603" lon="2.53304">
        <ele>445.67</ele>
        <time>2021-07-30T18:56:37Z</time>
      </trkpt>
      <trkpt lat="42.25682" lon="2.53264">
        <ele>449.68</ele>
        <time>2021-07-30T18:56:43Z</time>
      </trkpt>
      <trkpt lat="42.25735" lon="2.53293">
        <ele>453.59</ele>
        <time>2021-07-30T18:56:50Z</time>
      </trkpt>
      <trkpt lat="42.25679" lon="2.53323">
        <ele>455.32</ele>
        <time>2021-07-30T18:56:54Z</time>
      </trkpt>
      <trkpt lat="42.25647" lon="2.53357">
        <ele>456.56</ele>
        <time>2021-07-30T18:56:57Z</time>
      </trkpt>
      <trkpt lat="42.25616" lon="2.53399">
        <ele>457.87</ele>
        <time>2021-07-30T18:57:00Z</time>
      </trkpt>
      <trkpt lat="42.25596" lon="2.53468">
        <ele>459.89</ele>
        <time>2021-07-30T18:57:04Z</time>
      </trkpt>
      <trkpt lat="42.25579" lon="2.53516">
        <ele>461.57</ele>
        <time>2021-07-30T18:57:07Z</time>
      </trkpt>
      <trkpt lat="42.25579" lon="2.53614">
        <ele>465.62</ele>
        <time>2021-07-30T18:57:13Z</time>
      </trkpt>
      <trkpt lat="42.25602" lon="2.53662">
        <ele>468.28</ele>
        <time>2021-07-30T18:57:17Z</time>
      </trkpt>
      <trkpt lat="42.25659" lon="2.53687">
        <ele>471.82</ele>
        <time>2021-07-30T18:57:22Z</time>
      </trkpt>
      <trkpt lat="42.25708" lon="2.53706">
        <ele>474.69</ele>
        <time>2021-07-30T18:57:26Z</time>
      </trkpt>
      <trkpt lat="42.25776" lon="2.53705">
        <ele>478.58</ele>
        <time>2021-07-30T18:57:32Z</time>
      </trkpt>
      <trkpt lat="42.25789" lon="2.53708">
        <ele>479.25</ele>
        <time>2021-07-30T18:57:33Z</time>
      </trkpt>
      <trkpt lat="42.25846" lon="2.53722">
        <ele>481.92</ele>
        <time>2021-07-30T18:57:37Z</time>
      </trkpt>
      <trkpt lat="42.25888" lon="2.53693">
        <ele>485.17</ele>
        <time>2021-07-30T18:57:42Z</time>
      </trkpt>
      <trkpt lat="42.25913" lon="2.53613">
        <ele>487.78</ele>
        <time>2021-07-30T18:57:47Z</time>
      </trkpt>
      <trkpt lat="42.25923" lon="2.53603">
        <ele>487.85</ele>
        <time>2021-07-30T18:57:48Z</time>
      </trkpt>
      <trkpt lat="42.25963" lon="2.53538">
        <ele>486.35</ele>
        <time>2021-07-30T18:57:53Z</time>
      </trkpt>
      <trkpt lat="42.26009" lon="2.53491">
        <ele>481.98</ele>
        <time>2021-07-30T18:57:59Z</time>
      </trkpt>
      <trkpt lat="42.26056" lon="2.53438">
        <ele>478.88</ele>
        <time>2021-07-30T18:58:04Z</time>
      </trkpt>
      <trkpt lat="42.26116" lon="2.53384">
        <ele>475.51</ele>
        <time>2021-07-30T18:58:09Z</time>
      </trkpt>
      <trkpt lat="42.26166" lon="2.53353">
        <ele>472.11</ele>
        <time>2021-07-30T18:58:13Z</time>
      </trkpt>
      <trkpt lat="42.2619" lon="2.53334">
        <ele>470.36</ele>
        <time>2021-07-30T18:58:15Z</time>
      </trkpt>
      <trkpt lat="42.2622" lon="2.5328">
        <ele>466.69</ele>
        <time>2021-07-30T18:58:19Z</time>
      </trkpt>
      <trkpt lat="42.26256" lon="2.53255">
        <ele>461.99</ele>
        <time>2021-07-30T18:58:24Z</time>
      </trkpt>
      <trkpt lat="42.26328" lon="2.53206">
        <ele>457.31</ele>
        <time>2021-07-30T18:58:31Z</time>
      </trkpt>
      <trkpt lat="42.26343" lon="2.53151">
        <ele>455.58</ele>
        <time>2021-07-30T18:58:34Z</time>
      </trkpt>
      <trkpt lat="42.26349" lon="2.5305">
        <ele>452.2</ele>
        <time>2021-07-30T18:58:39Z</time>
      </trkpt>
      <trkpt lat="42.26377" lon="2.53013">
        <ele>448.05</ele>
        <time>2021-07-30T18:58:44Z</time>
      </trkpt>
      <trkpt lat="42.264" lon="2.53061">
        <ele>445.55</ele>
        <time>2021-07-30T18:58:48Z</time>
      </trkpt>
      <trkpt lat="42.26403" lon="2.53081">
        <ele>445.08</ele>
        <time>2021-07-30T18:58:49Z</time>
      </trkpt>
      <trkpt lat="42.26435" lon="2.53293">
        <ele>441.41</ele>
        <time>2021-07-30T18:58:58Z</time>
      </trkpt>
      <trkpt lat="42.26439" lon="2.53311">
        <ele>440.72</ele>
        <time>2021-07-30T18:58:59Z</time>
      </trkpt>
      <trkpt lat="42.26487" lon="2.53363">
        <ele>436.39</ele>
        <time>2021-07-30T18:59:04Z</time>
      </trkpt>
      <trkpt lat="42.26532" lon="2.53363">
        <ele>433.44</ele>
        <time>2021-07-30T18:59:07Z</time>
      </trkpt>
      <trkpt lat="42.26589" lon="2.53345">
        <ele>430.12</ele>
        <time>2021-07-30T18:59:11Z</time>
      </trkpt>
      <trkpt lat="42.2666" lon="2.53362">
        <ele>425.57</ele>
        <time>2021-07-30T18:59:16Z</time>
      </trkpt>
      <trkpt lat="42.26705" lon="2.53372">
        <ele>423.03</ele>
        <time>2021-07-30T18:59:19Z</time>
      </trkpt>
      <trkpt lat="42.26768" lon="2.53359">
        <ele>420.15</ele>
        <time>2021-07-30T18:59:23Z</time>
      </trkpt>
      <trkpt lat="42.26813" lon="2.53338">
        <ele>418.36</ele>
        <time>2021-07-30T18:59:26Z</time>
      </trkpt>
      <trkpt lat="42.26869" lon="2.53336">
        <ele>414.18</ele>
        <time>2021-07-30T18:59:30Z</time>
      </trkpt>
      <trkpt lat="42.26896" lon="2.53331">
        <ele>412.36</ele>
        <time>2021-07-30T18:59:32Z</time>
      </trkpt>
      <trkpt lat="42.2694" lon="2.53268">
        <ele>407.9</ele>
        <time>2021-07-30T18:59:37Z</time>
      </trkpt>
      <trkpt lat="42.26945" lon="2.53248">
        <ele>407.05</ele>
        <time>2021-07-30T18:59:38Z</time>
      </trkpt>
      <trkpt lat="42.26966" lon="2.53116">
        <ele>402.57</ele>
        <time>2021-07-30T18:59:44Z</time>
      </trkpt>
      <trkpt lat="42.26967" lon="2.53095">
        <ele>401.56</ele>
        <time>2021-07-30T18:59:45Z</time>
      </trkpt>
      <trkpt lat="42.2695" lon="2.53021">
        <ele>397.41</ele>
        <time>2021-07-30T18:59:49Z</time>
      </trkpt>
      <trkpt lat="42.2694" lon="2.53006">
        <ele>396.48</ele>
        <time>2021-07-30T18:59:50Z</time>
      </trkpt>
      <trkpt lat="42.26915" lon="2.52969">
        <ele>393.66</ele>
        <time>2021-07-30T18:59:53Z</time>
      </trkpt>
      <trkpt lat="42.26917" lon="2.52919">
        <ele>389.82</ele>
        <time>2021-07-30T18:59:58Z</time>
      </trkpt>
      <trkpt lat="42.26923" lon="2.52911">
        <ele>389.18</ele>
        <time>2021-07-30T18:59:59Z</time>
      </trkpt>
      <trkpt lat="42.27017" lon="2.52814">
        <ele>387.48</ele>
        <time>2021-07-30T19:00:10Z</time>
      </trkpt>
      <trkpt lat="42.27028" lon="2.52808">
        <ele>387.9</ele>
        <time>2021-07-30T19:00:11Z</time>
      </trkpt>
      <trkpt lat="42.2709" lon="2.52801">
        <ele>390.75</ele>
        <time>2021-07-30T19:00:19Z</time>
      </trkpt>
      <trkpt lat="42.27111" lon="2.52805">
        <ele>391.85</ele>
        <time>2021-07-30T19:00:23Z</time>
      </trkpt>
      <trkpt lat="42.27116" lon="2.52809">
        <ele>392.13</ele>
        <time>2021-07-30T19:00:24Z</time>
      </trkpt>
      <trkpt lat="42.27119" lon="2.52812">
        <ele>392.34</ele>
        <time>2021-07-30T19:00:25Z</time>
      </trkpt>
      <trkpt lat="42.2712" lon="2.52815">
        <ele>392.5</ele>
        <time>2021-07-30T19:00:26Z</time>
      </trkpt>
      <trkpt lat="42.27121" lon="2.52817">
        <ele>392.67</ele>
        <time>2021-07-30T19:00:27Z</time>
      </trkpt>
      <trkpt lat="42.27121" lon="2.52821">
        <ele>393.7</ele>
        <time>2021-07-30T19:00:34Z</time>
      </trkpt>
      <trkpt lat="42.2712" lon="2.52819">
        <ele>393.79</ele>
        <time>2021-07-30T19:00:35Z</time>
      </trkpt>
      <trkpt lat="42.27119" lon="2.52817">
        <ele>393.86</ele>
        <time>2021-07-30T19:00:36Z</time>
      </trkpt>
      <trkpt lat="42.27117" lon="2.52815">
        <ele>393.9</ele>
        <time>2021-07-30T19:00:37Z</time>
      </trkpt>
      <trkpt lat="42.27113" lon="2.52811">
        <ele>393.92</ele>
        <time>2021-07-30T19:00:39Z</time>
      </trkpt>
      <trkpt lat="42.27111" lon="2.5281">
        <ele>393.93</ele>
        <time>2021-07-30T19:00:40Z</time>
      </trkpt>
      <trkpt lat="42.2711" lon="2.5281">
        <ele>393.94</ele>
        <time>2021-07-30T19:00:41Z</time>
      </trkpt>
      <trkpt lat="42.27107" lon="2.52811">
        <ele>393.94</ele>
        <time>2021-07-30T19:00:42Z</time>
      </trkpt>
      <trkpt lat="42.27105" lon="2.52812">
        <ele>393.92</ele>
        <time>2021-07-30T19:00:43Z</time>
      </trkpt>
      <trkpt lat="42.27104" lon="2.52814">
        <ele>393.91</ele>
        <time>2021-07-30T19:00:44Z</time>
      </trkpt>
      <trkpt lat="42.27103" lon="2.52817">
        <ele>393.88</ele>
        <time>2021-07-30T19:00:45Z</time>
      </trkpt>
      <trkpt lat="42.27105" lon="2.5283">
        <ele>393.62</ele>
        <time>2021-07-30T19:00:50Z</time>
      </trkpt>
      <trkpt lat="42.27106" lon="2.52835">
        <ele>393.46</ele>
        <time>2021-07-30T19:01:06Z</time>
      </trkpt>
      <trkpt lat="42.27106" lon="2.52834">
        <ele>393.47</ele>
        <time>2021-07-30T19:01:07Z</time>
      </trkpt>
      <trkpt lat="42.27103" lon="2.52822">
        <ele>393.53</ele>
        <time>2021-07-30T19:01:11Z</time>
      </trkpt>
      <trkpt lat="42.27106" lon="2.52816">
        <ele>393.55</ele>
        <time>2021-07-30T19:01:13Z</time>
      </trkpt>
      <trkpt lat="42.27108" lon="2.52815">
        <ele>393.58</ele>
        <time>2021-07-30T19:01:14Z</time>
      </trkpt>
      <trkpt lat="42.2711" lon="2.52815">
        <ele>393.63</ele>
        <time>2021-07-30T19:01:15Z</time>
      </trkpt>
      <trkpt lat="42.27113" lon="2.52817">
        <ele>393.68</ele>
        <time>2021-07-30T19:01:16Z</time>
      </trkpt>
      <trkpt lat="42.27115" lon="2.52819">
        <ele>393.76</ele>
        <time>2021-07-30T19:01:17Z</time>
      </trkpt>
      <trkpt lat="42.27118" lon="2.52822">
        <ele>393.88</ele>
        <time>2021-07-30T19:01:18Z</time>
      </trkpt>
      <trkpt lat="42.2712" lon="2.52826">
        <ele>393.99</ele>
        <time>2021-07-30T19:01:19Z</time>
      </trkpt>
      <trkpt lat="42.27121" lon="2.5283">
        <ele>394.08</ele>
        <time>2021-07-30T19:01:20Z</time>
      </trkpt>
      <trkpt lat="42.27123" lon="2.52834">
        <ele>394.2</ele>
        <time>2021-07-30T19:01:21Z</time>
      </trkpt>
      <trkpt lat="42.2713" lon="2.52856">
        <ele>395.95</ele>
        <time>2021-07-30T19:01:34Z</time>
      </trkpt>
      <trkpt lat="42.27136" lon="2.52873">
        <ele>396.96</ele>
        <time>2021-07-30T19:01:42Z</time>
      </trkpt>
      <trkpt lat="42.27146" lon="2.52869">
        <ele>398.06</ele>
        <time>2021-07-30T19:01:53Z</time>
      </trkpt>
      <trkpt lat="42.27142" lon="2.52872">
        <ele>398.15</ele>
        <time>2021-07-30T19:01:57Z</time>
      </trkpt>
      <trkpt lat="42.27137" lon="2.52879">
        <ele>398.29</ele>
        <time>2021-07-30T19:02:12Z</time>
      </trkpt>
      <trkpt lat="42.27138" lon="2.52882">
        <ele>398.56</ele>
        <time>2021-07-30T19:02:22Z</time>
      </trkpt>
      <trkpt lat="42.27138" lon="2.52882">
        <ele>398.56</ele>
        <time>2021-07-30T19:02:22Z</time>
      </trkpt>
    </trkseg>
  </trk>
  <trk>
    <name><![CDATA[TOTAL 4x4 _2]]></name>
    <extensions>
      <line xmlns="http://www.topografix.com/GPX/gpx_style/0/2">
        <color>00FF00</color>
        <width>4</width>
      </line>
    </extensions>
    <trkseg>
      <trkpt lat="42.36504" lon="2.83981">
        <ele>178.1</ele>
      </trkpt>
      <trkpt lat="42.36504" lon="2.83981">
        <ele>178.1</ele>
      </trkpt>
      <trkpt lat="42.36504" lon="2.83981">
        <ele>178.1</ele>
      </trkpt>
    </trkseg>
  </trk>
  <trk>
    <name><![CDATA[J2]]></name>
    <extensions>
      <line xmlns="http://www.topografix.com/GPX/gpx_style/0/2">
        <color>0000FF</color>
        <width>4</width>
      </line>
    </extensions>
    <trkseg>
      <trkpt lat="42.27139" lon="2.52884">
        <ele>414.15</ele>
        <time>2021-07-31T08:16:59Z</time>
      </trkpt>
      <trkpt lat="42.27139" lon="2.52884">
        <ele>414.13</ele>
        <time>2021-07-31T08:17:00Z</time>
      </trkpt>
      <trkpt lat="42.27139" lon="2.5288">
        <ele>414.59</ele>
        <time>2021-07-31T08:17:46Z</time>
      </trkpt>
      <trkpt lat="42.27139" lon="2.52881">
        <ele>415.01</ele>
        <time>2021-07-31T08:18:26Z</time>
      </trkpt>
      <trkpt lat="42.27138" lon="2.52891">
        <ele>415.72</ele>
        <time>2021-07-31T08:19:11Z</time>
      </trkpt>
      <trkpt lat="42.27136" lon="2.52893">
        <ele>415.74</ele>
        <time>2021-07-31T08:19:12Z</time>
      </trkpt>
      <trkpt lat="42.27118" lon="2.52886">
        <ele>415.69</ele>
        <time>2021-07-31T08:19:18Z</time>
      </trkpt>
      <trkpt lat="42.27108" lon="2.5286">
        <ele>415.43</ele>
        <time>2021-07-31T08:19:22Z</time>
      </trkpt>
      <trkpt lat="42.27091" lon="2.52872">
        <ele>413.14</ele>
        <time>2021-07-31T08:19:30Z</time>
      </trkpt>
      <trkpt lat="42.27095" lon="2.52886">
        <ele>412.73</ele>
        <time>2021-07-31T08:19:32Z</time>
      </trkpt>
      <trkpt lat="42.2712" lon="2.52967">
        <ele>412.6</ele>
        <time>2021-07-31T08:19:41Z</time>
      </trkpt>
      <trkpt lat="42.27147" lon="2.53017">
        <ele>413.35</ele>
        <time>2021-07-31T08:19:45Z</time>
      </trkpt>
      <trkpt lat="42.27215" lon="2.53082">
        <ele>416.33</ele>
        <time>2021-07-31T08:19:52Z</time>
      </trkpt>
      <trkpt lat="42.27253" lon="2.53151">
        <ele>420.33</ele>
        <time>2021-07-31T08:19:58Z</time>
      </trkpt>
      <trkpt lat="42.27263" lon="2.53187">
        <ele>421.59</ele>
        <time>2021-07-31T08:20:01Z</time>
      </trkpt>
      <trkpt lat="42.27319" lon="2.53337">
        <ele>421.19</ele>
        <time>2021-07-31T08:20:14Z</time>
      </trkpt>
      <trkpt lat="42.27349" lon="2.53407">
        <ele>418.99</ele>
        <time>2021-07-31T08:20:20Z</time>
      </trkpt>
      <trkpt lat="42.27349" lon="2.53476">
        <ele>416.97</ele>
        <time>2021-07-31T08:20:25Z</time>
      </trkpt>
      <trkpt lat="42.27371" lon="2.53527">
        <ele>416.51</ele>
        <time>2021-07-31T08:20:29Z</time>
      </trkpt>
      <trkpt lat="42.27456" lon="2.53666">
        <ele>417.97</ele>
        <time>2021-07-31T08:20:42Z</time>
      </trkpt>
      <trkpt lat="42.2754" lon="2.53753">
        <ele>421.12</ele>
        <time>2021-07-31T08:20:51Z</time>
      </trkpt>
      <trkpt lat="42.27558" lon="2.53773">
        <ele>422.49</ele>
        <time>2021-07-31T08:20:53Z</time>
      </trkpt>
      <trkpt lat="42.27566" lon="2.53786">
        <ele>423.14</ele>
        <time>2021-07-31T08:20:54Z</time>
      </trkpt>
      <trkpt lat="42.27575" lon="2.53796">
        <ele>423.9</ele>
        <time>2021-07-31T08:20:55Z</time>
      </trkpt>
      <trkpt lat="42.27605" lon="2.53853">
        <ele>427.38</ele>
        <time>2021-07-31T08:20:59Z</time>
      </trkpt>
      <trkpt lat="42.27624" lon="2.53886">
        <ele>430.04</ele>
        <time>2021-07-31T08:21:02Z</time>
      </trkpt>
      <trkpt lat="42.27631" lon="2.53894">
        <ele>430.73</ele>
        <time>2021-07-31T08:21:03Z</time>
      </trkpt>
      <trkpt lat="42.27638" lon="2.53898">
        <ele>431.45</ele>
        <time>2021-07-31T08:21:04Z</time>
      </trkpt>
      <trkpt lat="42.27646" lon="2.53897">
        <ele>432.16</ele>
        <time>2021-07-31T08:21:05Z</time>
      </trkpt>
      <trkpt lat="42.27653" lon="2.53892">
        <ele>432.86</ele>
        <time>2021-07-31T08:21:06Z</time>
      </trkpt>
      <trkpt lat="42.27661" lon="2.53848">
        <ele>435.83</ele>
        <time>2021-07-31T08:21:11Z</time>
      </trkpt>
      <trkpt lat="42.27646" lon="2.53819">
        <ele>437.2</ele>
        <time>2021-07-31T08:21:13Z</time>
      </trkpt>
      <trkpt lat="42.27592" lon="2.53709">
        <ele>441.6</ele>
        <time>2021-07-31T08:21:19Z</time>
      </trkpt>
      <trkpt lat="42.27554" lon="2.53598">
        <ele>444.88</ele>
        <time>2021-07-31T08:21:24Z</time>
      </trkpt>
      <trkpt lat="42.27535" lon="2.53518">
        <ele>448.04</ele>
        <time>2021-07-31T08:21:28Z</time>
      </trkpt>
      <trkpt lat="42.2752" lon="2.53452">
        <ele>451.51</ele>
        <time>2021-07-31T08:21:32Z</time>
      </trkpt>
      <trkpt lat="42.27529" lon="2.53408">
        <ele>455.44</ele>
        <time>2021-07-31T08:21:37Z</time>
      </trkpt>
      <trkpt lat="42.27563" lon="2.53468">
        <ele>460.27</ele>
        <time>2021-07-31T08:21:43Z</time>
      </trkpt>
      <trkpt lat="42.27602" lon="2.53532">
        <ele>463.96</ele>
        <time>2021-07-31T08:21:47Z</time>
      </trkpt>
      <trkpt lat="42.27635" lon="2.53582">
        <ele>467.42</ele>
        <time>2021-07-31T08:21:50Z</time>
      </trkpt>
      <trkpt lat="42.27668" lon="2.53632">
        <ele>471.26</ele>
        <time>2021-07-31T08:21:53Z</time>
      </trkpt>
      <trkpt lat="42.277" lon="2.53678">
        <ele>475.62</ele>
        <time>2021-07-31T08:21:56Z</time>
      </trkpt>
      <trkpt lat="42.27723" lon="2.53703">
        <ele>478.69</ele>
        <time>2021-07-31T08:21:58Z</time>
      </trkpt>
      <trkpt lat="42.27762" lon="2.53719">
        <ele>483.25</ele>
        <time>2021-07-31T08:22:01Z</time>
      </trkpt>
      <trkpt lat="42.2779" lon="2.53714">
        <ele>486.3</ele>
        <time>2021-07-31T08:22:03Z</time>
      </trkpt>
      <trkpt lat="42.2783" lon="2.53705">
        <ele>490.63</ele>
        <time>2021-07-31T08:22:06Z</time>
      </trkpt>
      <trkpt lat="42.27861" lon="2.53727">
        <ele>494.71</ele>
        <time>2021-07-31T08:22:09Z</time>
      </trkpt>
      <trkpt lat="42.2787" lon="2.53767">
        <ele>498.6</ele>
        <time>2021-07-31T08:22:12Z</time>
      </trkpt>
      <trkpt lat="42.2788" lon="2.53836">
        <ele>503.64</ele>
        <time>2021-07-31T08:22:16Z</time>
      </trkpt>
      <trkpt lat="42.27885" lon="2.53883">
        <ele>507.75</ele>
        <time>2021-07-31T08:22:19Z</time>
      </trkpt>
      <trkpt lat="42.279" lon="2.53912">
        <ele>512.36</ele>
        <time>2021-07-31T08:22:22Z</time>
      </trkpt>
      <trkpt lat="42.27922" lon="2.53909">
        <ele>515.92</ele>
        <time>2021-07-31T08:22:25Z</time>
      </trkpt>
      <trkpt lat="42.27925" lon="2.53875">
        <ele>519</ele>
        <time>2021-07-31T08:22:28Z</time>
      </trkpt>
      <trkpt lat="42.27924" lon="2.53861">
        <ele>519.85</ele>
        <time>2021-07-31T08:22:29Z</time>
      </trkpt>
      <trkpt lat="42.2792" lon="2.53798">
        <ele>524.71</ele>
        <time>2021-07-31T08:22:33Z</time>
      </trkpt>
      <trkpt lat="42.27917" lon="2.53741">
        <ele>528.5</ele>
        <time>2021-07-31T08:22:36Z</time>
      </trkpt>
      <trkpt lat="42.27913" lon="2.5368">
        <ele>532.93</ele>
        <time>2021-07-31T08:22:39Z</time>
      </trkpt>
      <trkpt lat="42.27896" lon="2.53628">
        <ele>537.62</ele>
        <time>2021-07-31T08:22:42Z</time>
      </trkpt>
      <trkpt lat="42.27861" lon="2.53595">
        <ele>542</ele>
        <time>2021-07-31T08:22:45Z</time>
      </trkpt>
      <trkpt lat="42.27848" lon="2.53589">
        <ele>543.4</ele>
        <time>2021-07-31T08:22:46Z</time>
      </trkpt>
      <trkpt lat="42.27822" lon="2.53579">
        <ele>545.91</ele>
        <time>2021-07-31T08:22:48Z</time>
      </trkpt>
      <trkpt lat="42.27787" lon="2.53538">
        <ele>551.06</ele>
        <time>2021-07-31T08:22:52Z</time>
      </trkpt>
      <trkpt lat="42.2778" lon="2.53506">
        <ele>555.99</ele>
        <time>2021-07-31T08:22:57Z</time>
      </trkpt>
      <trkpt lat="42.27778" lon="2.53487">
        <ele>559.33</ele>
        <time>2021-07-31T08:23:04Z</time>
      </trkpt>
      <trkpt lat="42.27778" lon="2.53483">
        <ele>559.66</ele>
        <time>2021-07-31T08:23:05Z</time>
      </trkpt>
      <trkpt lat="42.27817" lon="2.53445">
        <ele>563.21</ele>
        <time>2021-07-31T08:23:13Z</time>
      </trkpt>
      <trkpt lat="42.27848" lon="2.53437">
        <ele>565.26</ele>
        <time>2021-07-31T08:23:16Z</time>
      </trkpt>
      <trkpt lat="42.27903" lon="2.53389">
        <ele>569.39</ele>
        <time>2021-07-31T08:23:21Z</time>
      </trkpt>
      <trkpt lat="42.27924" lon="2.53364">
        <ele>571.62</ele>
        <time>2021-07-31T08:23:23Z</time>
      </trkpt>
      <trkpt lat="42.27945" lon="2.53308">
        <ele>576.35</ele>
        <time>2021-07-31T08:23:27Z</time>
      </trkpt>
      <trkpt lat="42.27936" lon="2.5327">
        <ele>579.98</ele>
        <time>2021-07-31T08:23:30Z</time>
      </trkpt>
      <trkpt lat="42.27927" lon="2.53262">
        <ele>581.19</ele>
        <time>2021-07-31T08:23:31Z</time>
      </trkpt>
      <trkpt lat="42.27895" lon="2.53197">
        <ele>586.44</ele>
        <time>2021-07-31T08:23:36Z</time>
      </trkpt>
      <trkpt lat="42.27893" lon="2.5318">
        <ele>587.51</ele>
        <time>2021-07-31T08:23:37Z</time>
      </trkpt>
      <trkpt lat="42.27885" lon="2.53118">
        <ele>591.91</ele>
        <time>2021-07-31T08:23:41Z</time>
      </trkpt>
      <trkpt lat="42.27885" lon="2.53103">
        <ele>593.1</ele>
        <time>2021-07-31T08:23:42Z</time>
      </trkpt>
      <trkpt lat="42.279" lon="2.53043">
        <ele>597.73</ele>
        <time>2021-07-31T08:23:46Z</time>
      </trkpt>
      <trkpt lat="42.27927" lon="2.53009">
        <ele>601.19</ele>
        <time>2021-07-31T08:23:49Z</time>
      </trkpt>
      <trkpt lat="42.27972" lon="2.5296">
        <ele>606.16</ele>
        <time>2021-07-31T08:23:53Z</time>
      </trkpt>
      <trkpt lat="42.28005" lon="2.52918">
        <ele>610.24</ele>
        <time>2021-07-31T08:23:56Z</time>
      </trkpt>
      <trkpt lat="42.28039" lon="2.52879">
        <ele>614.63</ele>
        <time>2021-07-31T08:23:59Z</time>
      </trkpt>
      <trkpt lat="42.28051" lon="2.52866">
        <ele>616.14</ele>
        <time>2021-07-31T08:24:00Z</time>
      </trkpt>
      <trkpt lat="42.28079" lon="2.52826">
        <ele>620.68</ele>
        <time>2021-07-31T08:24:03Z</time>
      </trkpt>
      <trkpt lat="42.28096" lon="2.52765">
        <ele>626.4</ele>
        <time>2021-07-31T08:24:07Z</time>
      </trkpt>
      <trkpt lat="42.28094" lon="2.52732">
        <ele>630.54</ele>
        <time>2021-07-31T08:24:09Z</time>
      </trkpt>
      <trkpt lat="42.28091" lon="2.52715">
        <ele>630.54</ele>
        <time>2021-07-31T08:24:10Z</time>
      </trkpt>
      <trkpt lat="42.2808" lon="2.52686">
        <ele>634.25</ele>
        <time>2021-07-31T08:24:12Z</time>
      </trkpt>
      <trkpt lat="42.28073" lon="2.52672">
        <ele>635.57</ele>
        <time>2021-07-31T08:24:13Z</time>
      </trkpt>
      <trkpt lat="42.28052" lon="2.52632">
        <ele>639.5</ele>
        <time>2021-07-31T08:24:16Z</time>
      </trkpt>
      <trkpt lat="42.28045" lon="2.52572">
        <ele>644.31</ele>
        <time>2021-07-31T08:24:20Z</time>
      </trkpt>
      <trkpt lat="42.28054" lon="2.52523">
        <ele>647.91</ele>
        <time>2021-07-31T08:24:23Z</time>
      </trkpt>
      <trkpt lat="42.28044" lon="2.52473">
        <ele>651.57</ele>
        <time>2021-07-31T08:24:26Z</time>
      </trkpt>
      <trkpt lat="42.28037" lon="2.52457">
        <ele>652.87</ele>
        <time>2021-07-31T08:24:27Z</time>
      </trkpt>
      <trkpt lat="42.28007" lon="2.52393">
        <ele>657.9</ele>
        <time>2021-07-31T08:24:31Z</time>
      </trkpt>
      <trkpt lat="42.27986" lon="2.52355">
        <ele>661.65</ele>
        <time>2021-07-31T08:24:34Z</time>
      </trkpt>
      <trkpt lat="42.2798" lon="2.52343">
        <ele>662.93</ele>
        <time>2021-07-31T08:24:35Z</time>
      </trkpt>
      <trkpt lat="42.2797" lon="2.52285">
        <ele>667.55</ele>
        <time>2021-07-31T08:24:39Z</time>
      </trkpt>
      <trkpt lat="42.27986" lon="2.52258">
        <ele>669.75</ele>
        <time>2021-07-31T08:24:41Z</time>
      </trkpt>
      <trkpt lat="42.28023" lon="2.522">
        <ele>674.64</ele>
        <time>2021-07-31T08:24:45Z</time>
      </trkpt>
      <trkpt lat="42.2804" lon="2.5217">
        <ele>677.32</ele>
        <time>2021-07-31T08:24:47Z</time>
      </trkpt>
      <trkpt lat="42.28061" lon="2.52096">
        <ele>682.94</ele>
        <time>2021-07-31T08:24:51Z</time>
      </trkpt>
      <trkpt lat="42.28071" lon="2.52037">
        <ele>687.01</ele>
        <time>2021-07-31T08:24:54Z</time>
      </trkpt>
      <trkpt lat="42.28076" lon="2.52018">
        <ele>688.39</ele>
        <time>2021-07-31T08:24:55Z</time>
      </trkpt>
      <trkpt lat="42.28112" lon="2.51957">
        <ele>694.08</ele>
        <time>2021-07-31T08:24:59Z</time>
      </trkpt>
      <trkpt lat="42.28146" lon="2.51915">
        <ele>698.32</ele>
        <time>2021-07-31T08:25:02Z</time>
      </trkpt>
      <trkpt lat="42.28178" lon="2.51878">
        <ele>702.65</ele>
        <time>2021-07-31T08:25:05Z</time>
      </trkpt>
      <trkpt lat="42.28212" lon="2.51845">
        <ele>706.71</ele>
        <time>2021-07-31T08:25:08Z</time>
      </trkpt>
      <trkpt lat="42.28224" lon="2.51835">
        <ele>708.12</ele>
        <time>2021-07-31T08:25:09Z</time>
      </trkpt>
      <trkpt lat="42.2828" lon="2.51815">
        <ele>713.7</ele>
        <time>2021-07-31T08:25:13Z</time>
      </trkpt>
      <trkpt lat="42.28322" lon="2.51804">
        <ele>718</ele>
        <time>2021-07-31T08:25:16Z</time>
      </trkpt>
      <trkpt lat="42.28353" lon="2.5179">
        <ele>722.37</ele>
        <time>2021-07-31T08:25:19Z</time>
      </trkpt>
      <trkpt lat="42.28367" lon="2.51781">
        <ele>724.99</ele>
        <time>2021-07-31T08:25:21Z</time>
      </trkpt>
      <trkpt lat="42.28378" lon="2.51764">
        <ele>729.23</ele>
        <time>2021-07-31T08:25:25Z</time>
      </trkpt>
      <trkpt lat="42.28379" lon="2.5176">
        <ele>730.14</ele>
        <time>2021-07-31T08:25:26Z</time>
      </trkpt>
      <trkpt lat="42.28392" lon="2.51712">
        <ele>734.75</ele>
        <time>2021-07-31T08:25:34Z</time>
      </trkpt>
      <trkpt lat="42.28395" lon="2.51701">
        <ele>735.26</ele>
        <time>2021-07-31T08:25:35Z</time>
      </trkpt>
      <trkpt lat="42.28425" lon="2.51665">
        <ele>737.31</ele>
        <time>2021-07-31T08:25:39Z</time>
      </trkpt>
      <trkpt lat="42.28444" lon="2.51653">
        <ele>738.77</ele>
        <time>2021-07-31T08:25:41Z</time>
      </trkpt>
      <trkpt lat="42.28471" lon="2.51601">
        <ele>743.19</ele>
        <time>2021-07-31T08:25:46Z</time>
      </trkpt>
      <trkpt lat="42.2846" lon="2.51563">
        <ele>747.23</ele>
        <time>2021-07-31T08:25:50Z</time>
      </trkpt>
      <trkpt lat="42.28438" lon="2.51527">
        <ele>751.27</ele>
        <time>2021-07-31T08:25:56Z</time>
      </trkpt>
      <trkpt lat="42.28407" lon="2.51473">
        <ele>754.67</ele>
        <time>2021-07-31T08:26:01Z</time>
      </trkpt>
      <trkpt lat="42.28394" lon="2.51449">
        <ele>756.2</ele>
        <time>2021-07-31T08:26:03Z</time>
      </trkpt>
      <trkpt lat="42.28386" lon="2.51393">
        <ele>760.58</ele>
        <time>2021-07-31T08:26:08Z</time>
      </trkpt>
      <trkpt lat="42.28443" lon="2.51405">
        <ele>764.09</ele>
        <time>2021-07-31T08:26:13Z</time>
      </trkpt>
      <trkpt lat="42.28516" lon="2.51373">
        <ele>766.87</ele>
        <time>2021-07-31T08:26:18Z</time>
      </trkpt>
      <trkpt lat="42.28606" lon="2.51287">
        <ele>769.25</ele>
        <time>2021-07-31T08:26:24Z</time>
      </trkpt>
      <trkpt lat="42.28662" lon="2.51189">
        <ele>770.68</ele>
        <time>2021-07-31T08:26:30Z</time>
      </trkpt>
      <trkpt lat="42.28663" lon="2.51072">
        <ele>771.59</ele>
        <time>2021-07-31T08:26:36Z</time>
      </trkpt>
      <trkpt lat="42.2863" lon="2.50995">
        <ele>772.34</ele>
        <time>2021-07-31T08:26:40Z</time>
      </trkpt>
      <trkpt lat="42.28532" lon="2.50871">
        <ele>774.29</ele>
        <time>2021-07-31T08:26:48Z</time>
      </trkpt>
      <trkpt lat="42.28469" lon="2.5085">
        <ele>774.64</ele>
        <time>2021-07-31T08:26:52Z</time>
      </trkpt>
      <trkpt lat="42.28319" lon="2.50831">
        <ele>775.46</ele>
        <time>2021-07-31T08:27:01Z</time>
      </trkpt>
      <trkpt lat="42.28291" lon="2.50774">
        <ele>775.3</ele>
        <time>2021-07-31T08:27:06Z</time>
      </trkpt>
      <trkpt lat="42.28328" lon="2.50718">
        <ele>774.97</ele>
        <time>2021-07-31T08:27:10Z</time>
      </trkpt>
      <trkpt lat="42.28339" lon="2.50706">
        <ele>774.96</ele>
        <time>2021-07-31T08:27:11Z</time>
      </trkpt>
      <trkpt lat="42.28383" lon="2.5066">
        <ele>775.34</ele>
        <time>2021-07-31T08:27:15Z</time>
      </trkpt>
      <trkpt lat="42.28427" lon="2.50647">
        <ele>775.67</ele>
        <time>2021-07-31T08:27:19Z</time>
      </trkpt>
      <trkpt lat="42.28451" lon="2.50644">
        <ele>775.87</ele>
        <time>2021-07-31T08:27:21Z</time>
      </trkpt>
      <trkpt lat="42.28526" lon="2.50612">
        <ele>776.9</ele>
        <time>2021-07-31T08:27:27Z</time>
      </trkpt>
      <trkpt lat="42.28571" lon="2.50537">
        <ele>777.92</ele>
        <time>2021-07-31T08:27:33Z</time>
      </trkpt>
      <trkpt lat="42.28572" lon="2.5052">
        <ele>778.04</ele>
        <time>2021-07-31T08:27:34Z</time>
      </trkpt>
      <trkpt lat="42.28576" lon="2.50353">
        <ele>779.57</ele>
        <time>2021-07-31T08:27:42Z</time>
      </trkpt>
      <trkpt lat="42.28531" lon="2.50213">
        <ele>780.62</ele>
        <time>2021-07-31T08:27:49Z</time>
      </trkpt>
      <trkpt lat="42.28492" lon="2.50155">
        <ele>780.67</ele>
        <time>2021-07-31T08:27:53Z</time>
      </trkpt>
      <trkpt lat="42.285" lon="2.50095">
        <ele>780.39</ele>
        <time>2021-07-31T08:27:58Z</time>
      </trkpt>
      <trkpt lat="42.28508" lon="2.50084">
        <ele>780.34</ele>
        <time>2021-07-31T08:27:59Z</time>
      </trkpt>
      <trkpt lat="42.28547" lon="2.50022">
        <ele>780.24</ele>
        <time>2021-07-31T08:28:04Z</time>
      </trkpt>
      <trkpt lat="42.28563" lon="2.49931">
        <ele>780.3</ele>
        <time>2021-07-31T08:28:10Z</time>
      </trkpt>
      <trkpt lat="42.28594" lon="2.49873">
        <ele>780.43</ele>
        <time>2021-07-31T08:28:14Z</time>
      </trkpt>
      <trkpt lat="42.28729" lon="2.49741">
        <ele>782.66</ele>
        <time>2021-07-31T08:28:24Z</time>
      </trkpt>
      <trkpt lat="42.28782" lon="2.49696">
        <ele>783.54</ele>
        <time>2021-07-31T08:28:28Z</time>
      </trkpt>
      <trkpt lat="42.2879" lon="2.49633">
        <ele>784.07</ele>
        <time>2021-07-31T08:28:33Z</time>
      </trkpt>
      <trkpt lat="42.28729" lon="2.49594">
        <ele>784.95</ele>
        <time>2021-07-31T08:28:38Z</time>
      </trkpt>
      <trkpt lat="42.28714" lon="2.49592">
        <ele>785.14</ele>
        <time>2021-07-31T08:28:39Z</time>
      </trkpt>
      <trkpt lat="42.28659" lon="2.49585">
        <ele>786.18</ele>
        <time>2021-07-31T08:28:43Z</time>
      </trkpt>
      <trkpt lat="42.28627" lon="2.49547">
        <ele>786.74</ele>
        <time>2021-07-31T08:28:48Z</time>
      </trkpt>
      <trkpt lat="42.28645" lon="2.49489">
        <ele>787.35</ele>
        <time>2021-07-31T08:28:53Z</time>
      </trkpt>
      <trkpt lat="42.28638" lon="2.49453">
        <ele>787.89</ele>
        <time>2021-07-31T08:28:56Z</time>
      </trkpt>
      <trkpt lat="42.28613" lon="2.49395">
        <ele>788.77</ele>
        <time>2021-07-31T08:29:01Z</time>
      </trkpt>
      <trkpt lat="42.28622" lon="2.49314">
        <ele>790.38</ele>
        <time>2021-07-31T08:29:08Z</time>
      </trkpt>
      <trkpt lat="42.28656" lon="2.4927">
        <ele>791.06</ele>
        <time>2021-07-31T08:29:12Z</time>
      </trkpt>
      <trkpt lat="42.28706" lon="2.49231">
        <ele>791.37</ele>
        <time>2021-07-31T08:29:16Z</time>
      </trkpt>
      <trkpt lat="42.28765" lon="2.49245">
        <ele>790.64</ele>
        <time>2021-07-31T08:29:22Z</time>
      </trkpt>
      <trkpt lat="42.2876" lon="2.4931">
        <ele>789.6</ele>
        <time>2021-07-31T08:29:26Z</time>
      </trkpt>
      <trkpt lat="42.28784" lon="2.49352">
        <ele>788.89</ele>
        <time>2021-07-31T08:29:30Z</time>
      </trkpt>
      <trkpt lat="42.28837" lon="2.49328">
        <ele>787.45</ele>
        <time>2021-07-31T08:29:35Z</time>
      </trkpt>
      <trkpt lat="42.28869" lon="2.49284">
        <ele>786.57</ele>
        <time>2021-07-31T08:29:38Z</time>
      </trkpt>
      <trkpt lat="42.28917" lon="2.49177">
        <ele>784.7</ele>
        <time>2021-07-31T08:29:44Z</time>
      </trkpt>
      <trkpt lat="42.29002" lon="2.49051">
        <ele>782.12</ele>
        <time>2021-07-31T08:29:52Z</time>
      </trkpt>
      <trkpt lat="42.29034" lon="2.4899">
        <ele>781.41</ele>
        <time>2021-07-31T08:29:56Z</time>
      </trkpt>
      <trkpt lat="42.29073" lon="2.48824">
        <ele>780.02</ele>
        <time>2021-07-31T08:30:04Z</time>
      </trkpt>
      <trkpt lat="42.29083" lon="2.48768">
        <ele>779.18</ele>
        <time>2021-07-31T08:30:07Z</time>
      </trkpt>
      <trkpt lat="42.29055" lon="2.48683">
        <ele>776.26</ele>
        <time>2021-07-31T08:30:13Z</time>
      </trkpt>
      <trkpt lat="42.29042" lon="2.4868">
        <ele>775.52</ele>
        <time>2021-07-31T08:30:14Z</time>
      </trkpt>
      <trkpt lat="42.29007" lon="2.48628">
        <ele>770.42</ele>
        <time>2021-07-31T08:30:20Z</time>
      </trkpt>
      <trkpt lat="42.29016" lon="2.48601">
        <ele>768.94</ele>
        <time>2021-07-31T08:30:22Z</time>
      </trkpt>
      <trkpt lat="42.29028" lon="2.48574">
        <ele>767.75</ele>
        <time>2021-07-31T08:30:24Z</time>
      </trkpt>
      <trkpt lat="42.29074" lon="2.48504">
        <ele>764.68</ele>
        <time>2021-07-31T08:30:31Z</time>
      </trkpt>
      <trkpt lat="42.29067" lon="2.48466">
        <ele>762.93</ele>
        <time>2021-07-31T08:30:36Z</time>
      </trkpt>
      <trkpt lat="42.29052" lon="2.48446">
        <ele>762.16</ele>
        <time>2021-07-31T08:30:38Z</time>
      </trkpt>
      <trkpt lat="42.29028" lon="2.48383">
        <ele>760.46</ele>
        <time>2021-07-31T08:30:42Z</time>
      </trkpt>
      <trkpt lat="42.28996" lon="2.48265">
        <ele>756.79</ele>
        <time>2021-07-31T08:30:48Z</time>
      </trkpt>
      <trkpt lat="42.2898" lon="2.48211">
        <ele>753.28</ele>
        <time>2021-07-31T08:30:51Z</time>
      </trkpt>
      <trkpt lat="42.28946" lon="2.48173">
        <ele>749.21</ele>
        <time>2021-07-31T08:30:55Z</time>
      </trkpt>
      <trkpt lat="42.28909" lon="2.48177">
        <ele>746.51</ele>
        <time>2021-07-31T08:30:58Z</time>
      </trkpt>
      <trkpt lat="42.28849" lon="2.48148">
        <ele>741.25</ele>
        <time>2021-07-31T08:31:04Z</time>
      </trkpt>
      <trkpt lat="42.28835" lon="2.48068">
        <ele>738.48</ele>
        <time>2021-07-31T08:31:10Z</time>
      </trkpt>
      <trkpt lat="42.28853" lon="2.48027">
        <ele>738.27</ele>
        <time>2021-07-31T08:31:13Z</time>
      </trkpt>
      <trkpt lat="42.28867" lon="2.47999">
        <ele>738.46</ele>
        <time>2021-07-31T08:31:15Z</time>
      </trkpt>
      <trkpt lat="42.28926" lon="2.47922">
        <ele>740.93</ele>
        <time>2021-07-31T08:31:23Z</time>
      </trkpt>
      <trkpt lat="42.28926" lon="2.47906">
        <ele>741.39</ele>
        <time>2021-07-31T08:31:24Z</time>
      </trkpt>
      <trkpt lat="42.28923" lon="2.47794">
        <ele>745.37</ele>
        <time>2021-07-31T08:31:31Z</time>
      </trkpt>
      <trkpt lat="42.28923" lon="2.47756">
        <ele>746.92</ele>
        <time>2021-07-31T08:31:34Z</time>
      </trkpt>
      <trkpt lat="42.28962" lon="2.47683">
        <ele>749.86</ele>
        <time>2021-07-31T08:31:42Z</time>
      </trkpt>
      <trkpt lat="42.28942" lon="2.47649">
        <ele>751.12</ele>
        <time>2021-07-31T08:31:47Z</time>
      </trkpt>
      <trkpt lat="42.28931" lon="2.47649">
        <ele>751.33</ele>
        <time>2021-07-31T08:31:48Z</time>
      </trkpt>
      <trkpt lat="42.2887" lon="2.47631">
        <ele>751.29</ele>
        <time>2021-07-31T08:31:53Z</time>
      </trkpt>
      <trkpt lat="42.28783" lon="2.47625">
        <ele>747.63</ele>
        <time>2021-07-31T08:32:00Z</time>
      </trkpt>
      <trkpt lat="42.28745" lon="2.4759">
        <ele>743.97</ele>
        <time>2021-07-31T08:32:04Z</time>
      </trkpt>
      <trkpt lat="42.28721" lon="2.47572">
        <ele>742.38</ele>
        <time>2021-07-31T08:32:06Z</time>
      </trkpt>
      <trkpt lat="42.28672" lon="2.47536">
        <ele>737.57</ele>
        <time>2021-07-31T08:32:11Z</time>
      </trkpt>
      <trkpt lat="42.28698" lon="2.47482">
        <ele>732.69</ele>
        <time>2021-07-31T08:32:16Z</time>
      </trkpt>
      <trkpt lat="42.28721" lon="2.47477">
        <ele>731.08</ele>
        <time>2021-07-31T08:32:18Z</time>
      </trkpt>
      <trkpt lat="42.28744" lon="2.47477">
        <ele>729.79</ele>
        <time>2021-07-31T08:32:20Z</time>
      </trkpt>
      <trkpt lat="42.2879" lon="2.47456">
        <ele>727.58</ele>
        <time>2021-07-31T08:32:24Z</time>
      </trkpt>
      <trkpt lat="42.28835" lon="2.47417">
        <ele>725.22</ele>
        <time>2021-07-31T08:32:28Z</time>
      </trkpt>
      <trkpt lat="42.28845" lon="2.47393">
        <ele>722.36</ele>
        <time>2021-07-31T08:32:33Z</time>
      </trkpt>
      <trkpt lat="42.28849" lon="2.47355">
        <ele>720.3</ele>
        <time>2021-07-31T08:32:46Z</time>
      </trkpt>
      <trkpt lat="42.28866" lon="2.47321">
        <ele>723.66</ele>
        <time>2021-07-31T08:32:56Z</time>
      </trkpt>
      <trkpt lat="42.28869" lon="2.47293">
        <ele>726.87</ele>
        <time>2021-07-31T08:33:03Z</time>
      </trkpt>
      <trkpt lat="42.28869" lon="2.47267">
        <ele>730.17</ele>
        <time>2021-07-31T08:33:11Z</time>
      </trkpt>
      <trkpt lat="42.28867" lon="2.47248">
        <ele>733.18</ele>
        <time>2021-07-31T08:33:19Z</time>
      </trkpt>
      <trkpt lat="42.28858" lon="2.47217">
        <ele>736.34</ele>
        <time>2021-07-31T08:33:29Z</time>
      </trkpt>
      <trkpt lat="42.2886" lon="2.47189">
        <ele>739.68</ele>
        <time>2021-07-31T08:33:38Z</time>
      </trkpt>
      <trkpt lat="42.28854" lon="2.47171">
        <ele>742.77</ele>
        <time>2021-07-31T08:33:46Z</time>
      </trkpt>
      <trkpt lat="42.28843" lon="2.47163">
        <ele>744.49</ele>
        <time>2021-07-31T08:33:51Z</time>
      </trkpt>
      <trkpt lat="42.2884" lon="2.47175">
        <ele>746.71</ele>
        <time>2021-07-31T08:33:58Z</time>
      </trkpt>
      <trkpt lat="42.28839" lon="2.47203">
        <ele>749.73</ele>
        <time>2021-07-31T08:34:09Z</time>
      </trkpt>
      <trkpt lat="42.28835" lon="2.47214">
        <ele>751.26</ele>
        <time>2021-07-31T08:34:13Z</time>
      </trkpt>
      <trkpt lat="42.28824" lon="2.47207">
        <ele>753.41</ele>
        <time>2021-07-31T08:34:19Z</time>
      </trkpt>
      <trkpt lat="42.28807" lon="2.47186">
        <ele>756.78</ele>
        <time>2021-07-31T08:34:28Z</time>
      </trkpt>
      <trkpt lat="42.28792" lon="2.47183">
        <ele>758.94</ele>
        <time>2021-07-31T08:34:33Z</time>
      </trkpt>
      <trkpt lat="42.28767" lon="2.47169">
        <ele>762.84</ele>
        <time>2021-07-31T08:34:42Z</time>
      </trkpt>
      <trkpt lat="42.28748" lon="2.47156">
        <ele>766.03</ele>
        <time>2021-07-31T08:34:48Z</time>
      </trkpt>
      <trkpt lat="42.2873" lon="2.4714">
        <ele>769.25</ele>
        <time>2021-07-31T08:34:54Z</time>
      </trkpt>
      <trkpt lat="42.28707" lon="2.47119">
        <ele>772.71</ele>
        <time>2021-07-31T08:35:00Z</time>
      </trkpt>
      <trkpt lat="42.28691" lon="2.47112">
        <ele>775.85</ele>
        <time>2021-07-31T08:35:05Z</time>
      </trkpt>
      <trkpt lat="42.28674" lon="2.47111">
        <ele>779.12</ele>
        <time>2021-07-31T08:35:11Z</time>
      </trkpt>
      <trkpt lat="42.28658" lon="2.47115">
        <ele>782.38</ele>
        <time>2021-07-31T08:35:18Z</time>
      </trkpt>
      <trkpt lat="42.28653" lon="2.47115">
        <ele>783.17</ele>
        <time>2021-07-31T08:35:20Z</time>
      </trkpt>
      <trkpt lat="42.28646" lon="2.47105">
        <ele>784.35</ele>
        <time>2021-07-31T08:35:24Z</time>
      </trkpt>
      <trkpt lat="42.28633" lon="2.47063">
        <ele>787.58</ele>
        <time>2021-07-31T08:35:36Z</time>
      </trkpt>
      <trkpt lat="42.28616" lon="2.47025">
        <ele>790.6</ele>
        <time>2021-07-31T08:35:46Z</time>
      </trkpt>
      <trkpt lat="42.28599" lon="2.46979">
        <ele>793.65</ele>
        <time>2021-07-31T08:35:57Z</time>
      </trkpt>
      <trkpt lat="42.28589" lon="2.46923">
        <ele>796.79</ele>
        <time>2021-07-31T08:36:07Z</time>
      </trkpt>
      <trkpt lat="42.28596" lon="2.46886">
        <ele>799.63</ele>
        <time>2021-07-31T08:36:18Z</time>
      </trkpt>
      <trkpt lat="42.28605" lon="2.46858">
        <ele>802.34</ele>
        <time>2021-07-31T08:36:31Z</time>
      </trkpt>
      <trkpt lat="42.2862" lon="2.46828">
        <ele>805.47</ele>
        <time>2021-07-31T08:36:42Z</time>
      </trkpt>
      <trkpt lat="42.28622" lon="2.46819">
        <ele>808.49</ele>
        <time>2021-07-31T08:36:56Z</time>
      </trkpt>
      <trkpt lat="42.28624" lon="2.46793">
        <ele>811.22</ele>
        <time>2021-07-31T08:37:20Z</time>
      </trkpt>
      <trkpt lat="42.28626" lon="2.46771">
        <ele>814.28</ele>
        <time>2021-07-31T08:37:32Z</time>
      </trkpt>
      <trkpt lat="42.28624" lon="2.46748">
        <ele>817.34</ele>
        <time>2021-07-31T08:37:45Z</time>
      </trkpt>
      <trkpt lat="42.28623" lon="2.46725">
        <ele>820.44</ele>
        <time>2021-07-31T08:37:59Z</time>
      </trkpt>
      <trkpt lat="42.28614" lon="2.467">
        <ele>823.56</ele>
        <time>2021-07-31T08:38:13Z</time>
      </trkpt>
      <trkpt lat="42.28596" lon="2.46679">
        <ele>826.72</ele>
        <time>2021-07-31T08:38:27Z</time>
      </trkpt>
      <trkpt lat="42.28575" lon="2.46652">
        <ele>829.97</ele>
        <time>2021-07-31T08:38:37Z</time>
      </trkpt>
      <trkpt lat="42.28555" lon="2.46623">
        <ele>833.19</ele>
        <time>2021-07-31T08:38:46Z</time>
      </trkpt>
      <trkpt lat="42.28543" lon="2.46596">
        <ele>835.58</ele>
        <time>2021-07-31T08:38:51Z</time>
      </trkpt>
      <trkpt lat="42.28534" lon="2.46561">
        <ele>839.11</ele>
        <time>2021-07-31T08:38:57Z</time>
      </trkpt>
      <trkpt lat="42.28527" lon="2.46528">
        <ele>843.06</ele>
        <time>2021-07-31T08:39:03Z</time>
      </trkpt>
      <trkpt lat="42.28523" lon="2.46502">
        <ele>846.35</ele>
        <time>2021-07-31T08:39:08Z</time>
      </trkpt>
      <trkpt lat="42.28534" lon="2.46474">
        <ele>849.84</ele>
        <time>2021-07-31T08:39:14Z</time>
      </trkpt>
      <trkpt lat="42.28548" lon="2.46443">
        <ele>853</ele>
        <time>2021-07-31T08:39:20Z</time>
      </trkpt>
      <trkpt lat="42.28556" lon="2.46414">
        <ele>856.3</ele>
        <time>2021-07-31T08:39:27Z</time>
      </trkpt>
      <trkpt lat="42.28561" lon="2.46381">
        <ele>859.37</ele>
        <time>2021-07-31T08:39:36Z</time>
      </trkpt>
      <trkpt lat="42.28563" lon="2.46339">
        <ele>862.51</ele>
        <time>2021-07-31T08:39:47Z</time>
      </trkpt>
      <trkpt lat="42.28566" lon="2.463">
        <ele>865.61</ele>
        <time>2021-07-31T08:39:56Z</time>
      </trkpt>
      <trkpt lat="42.28571" lon="2.46267">
        <ele>868.79</ele>
        <time>2021-07-31T08:40:04Z</time>
      </trkpt>
      <trkpt lat="42.28575" lon="2.46242">
        <ele>871.8</ele>
        <time>2021-07-31T08:40:11Z</time>
      </trkpt>
      <trkpt lat="42.2858" lon="2.46214">
        <ele>875.01</ele>
        <time>2021-07-31T08:40:18Z</time>
      </trkpt>
      <trkpt lat="42.28589" lon="2.4618">
        <ele>878.27</ele>
        <time>2021-07-31T08:40:26Z</time>
      </trkpt>
      <trkpt lat="42.28597" lon="2.4617">
        <ele>879.54</ele>
        <time>2021-07-31T08:40:29Z</time>
      </trkpt>
      <trkpt lat="42.28615" lon="2.46178">
        <ele>881.68</ele>
        <time>2021-07-31T08:40:34Z</time>
      </trkpt>
      <trkpt lat="42.28639" lon="2.46187">
        <ele>885</ele>
        <time>2021-07-31T08:40:45Z</time>
      </trkpt>
      <trkpt lat="42.28655" lon="2.46196">
        <ele>888.07</ele>
        <time>2021-07-31T08:41:03Z</time>
      </trkpt>
      <trkpt lat="42.28679" lon="2.46219">
        <ele>891.06</ele>
        <time>2021-07-31T08:41:20Z</time>
      </trkpt>
      <trkpt lat="42.2869" lon="2.46229">
        <ele>893.78</ele>
        <time>2021-07-31T08:41:35Z</time>
      </trkpt>
      <trkpt lat="42.28704" lon="2.46239">
        <ele>895.44</ele>
        <time>2021-07-31T08:41:57Z</time>
      </trkpt>
      <trkpt lat="42.28719" lon="2.46251">
        <ele>897.89</ele>
        <time>2021-07-31T08:42:10Z</time>
      </trkpt>
      <trkpt lat="42.28739" lon="2.46245">
        <ele>900.85</ele>
        <time>2021-07-31T08:42:27Z</time>
      </trkpt>
      <trkpt lat="42.28753" lon="2.46216">
        <ele>903.33</ele>
        <time>2021-07-31T08:42:41Z</time>
      </trkpt>
      <trkpt lat="42.28765" lon="2.4619">
        <ele>906.36</ele>
        <time>2021-07-31T08:42:54Z</time>
      </trkpt>
      <trkpt lat="42.28766" lon="2.46157">
        <ele>909.47</ele>
        <time>2021-07-31T08:43:09Z</time>
      </trkpt>
      <trkpt lat="42.28766" lon="2.46132">
        <ele>912</ele>
        <time>2021-07-31T08:43:23Z</time>
      </trkpt>
      <trkpt lat="42.28757" lon="2.46097">
        <ele>914.66</ele>
        <time>2021-07-31T08:43:40Z</time>
      </trkpt>
      <trkpt lat="42.28746" lon="2.4606">
        <ele>917.57</ele>
        <time>2021-07-31T08:43:54Z</time>
      </trkpt>
      <trkpt lat="42.28752" lon="2.46024">
        <ele>920.58</ele>
        <time>2021-07-31T08:44:07Z</time>
      </trkpt>
      <trkpt lat="42.2876" lon="2.45984">
        <ele>923.34</ele>
        <time>2021-07-31T08:44:20Z</time>
      </trkpt>
      <trkpt lat="42.28752" lon="2.45956">
        <ele>923.46</ele>
        <time>2021-07-31T08:44:36Z</time>
      </trkpt>
      <trkpt lat="42.28741" lon="2.45937">
        <ele>922.19</ele>
        <time>2021-07-31T08:44:49Z</time>
      </trkpt>
      <trkpt lat="42.2872" lon="2.45905">
        <ele>920.78</ele>
        <time>2021-07-31T08:45:04Z</time>
      </trkpt>
      <trkpt lat="42.28693" lon="2.4586">
        <ele>920.25</ele>
        <time>2021-07-31T08:45:17Z</time>
      </trkpt>
      <trkpt lat="42.28669" lon="2.45812">
        <ele>919.96</ele>
        <time>2021-07-31T08:45:29Z</time>
      </trkpt>
      <trkpt lat="42.28662" lon="2.45779">
        <ele>920.15</ele>
        <time>2021-07-31T08:45:39Z</time>
      </trkpt>
      <trkpt lat="42.28652" lon="2.45753">
        <ele>920.79</ele>
        <time>2021-07-31T08:45:50Z</time>
      </trkpt>
      <trkpt lat="42.28652" lon="2.45753">
        <ele>920.93</ele>
        <time>2021-07-31T08:46:11Z</time>
      </trkpt>
      <trkpt lat="42.28645" lon="2.45733">
        <ele>921.18</ele>
        <time>2021-07-31T08:46:54Z</time>
      </trkpt>
      <trkpt lat="42.28643" lon="2.45731">
        <ele>921.23</ele>
        <time>2021-07-31T08:47:12Z</time>
      </trkpt>
      <trkpt lat="42.28634" lon="2.45701">
        <ele>921.5</ele>
        <time>2021-07-31T08:47:30Z</time>
      </trkpt>
      <trkpt lat="42.28621" lon="2.45658">
        <ele>923.32</ele>
        <time>2021-07-31T08:47:45Z</time>
      </trkpt>
      <trkpt lat="42.28605" lon="2.45612">
        <ele>926.17</ele>
        <time>2021-07-31T08:47:59Z</time>
      </trkpt>
      <trkpt lat="42.28592" lon="2.4557">
        <ele>929.11</ele>
        <time>2021-07-31T08:48:11Z</time>
      </trkpt>
      <trkpt lat="42.28578" lon="2.45517">
        <ele>932.36</ele>
        <time>2021-07-31T08:48:23Z</time>
      </trkpt>
      <trkpt lat="42.28574" lon="2.45471">
        <ele>935.47</ele>
        <time>2021-07-31T08:48:32Z</time>
      </trkpt>
      <trkpt lat="42.28579" lon="2.45435">
        <ele>938.66</ele>
        <time>2021-07-31T08:48:40Z</time>
      </trkpt>
      <trkpt lat="42.28593" lon="2.45402">
        <ele>941.9</ele>
        <time>2021-07-31T08:48:49Z</time>
      </trkpt>
      <trkpt lat="42.28618" lon="2.45373">
        <ele>945.18</ele>
        <time>2021-07-31T08:48:58Z</time>
      </trkpt>
      <trkpt lat="42.28648" lon="2.45309">
        <ele>948.07</ele>
        <time>2021-07-31T08:49:08Z</time>
      </trkpt>
      <trkpt lat="42.28657" lon="2.45289">
        <ele>947.78</ele>
        <time>2021-07-31T08:49:16Z</time>
      </trkpt>
      <trkpt lat="42.28667" lon="2.45281">
        <ele>947.23</ele>
        <time>2021-07-31T08:50:10Z</time>
      </trkpt>
      <trkpt lat="42.28668" lon="2.45281">
        <ele>947.19</ele>
        <time>2021-07-31T08:50:11Z</time>
      </trkpt>
      <trkpt lat="42.28673" lon="2.45283">
        <ele>947.1</ele>
        <time>2021-07-31T08:50:16Z</time>
      </trkpt>
      <trkpt lat="42.28676" lon="2.45286">
        <ele>947.31</ele>
        <time>2021-07-31T08:50:23Z</time>
      </trkpt>
      <trkpt lat="42.28679" lon="2.45298">
        <ele>947.44</ele>
        <time>2021-07-31T08:50:27Z</time>
      </trkpt>
      <trkpt lat="42.28692" lon="2.45332">
        <ele>948.81</ele>
        <time>2021-07-31T08:50:38Z</time>
      </trkpt>
      <trkpt lat="42.28698" lon="2.45327">
        <ele>950.29</ele>
        <time>2021-07-31T08:50:58Z</time>
      </trkpt>
      <trkpt lat="42.28692" lon="2.45276">
        <ele>953.6</ele>
        <time>2021-07-31T08:51:13Z</time>
      </trkpt>
      <trkpt lat="42.2868" lon="2.45234">
        <ele>956.64</ele>
        <time>2021-07-31T08:51:24Z</time>
      </trkpt>
      <trkpt lat="42.28691" lon="2.45236">
        <ele>958.9</ele>
        <time>2021-07-31T08:51:32Z</time>
      </trkpt>
      <trkpt lat="42.28709" lon="2.45287">
        <ele>962.3</ele>
        <time>2021-07-31T08:51:46Z</time>
      </trkpt>
      <trkpt lat="42.28722" lon="2.45337">
        <ele>965.4</ele>
        <time>2021-07-31T08:51:58Z</time>
      </trkpt>
      <trkpt lat="42.28726" lon="2.45374">
        <ele>968.47</ele>
        <time>2021-07-31T08:52:11Z</time>
      </trkpt>
      <trkpt lat="42.28732" lon="2.45397">
        <ele>970.23</ele>
        <time>2021-07-31T08:52:26Z</time>
      </trkpt>
      <trkpt lat="42.28733" lon="2.45407">
        <ele>971.2</ele>
        <time>2021-07-31T08:52:40Z</time>
      </trkpt>
      <trkpt lat="42.28732" lon="2.45413">
        <ele>971.4</ele>
        <time>2021-07-31T08:52:44Z</time>
      </trkpt>
      <trkpt lat="42.28736" lon="2.45416">
        <ele>971.65</ele>
        <time>2021-07-31T08:52:47Z</time>
      </trkpt>
      <trkpt lat="42.28747" lon="2.4544">
        <ele>973.74</ele>
        <time>2021-07-31T08:53:02Z</time>
      </trkpt>
      <trkpt lat="42.28771" lon="2.45458">
        <ele>975.53</ele>
        <time>2021-07-31T08:53:14Z</time>
      </trkpt>
      <trkpt lat="42.28793" lon="2.45497">
        <ele>977.79</ele>
        <time>2021-07-31T08:53:26Z</time>
      </trkpt>
      <trkpt lat="42.28825" lon="2.45517">
        <ele>979.08</ele>
        <time>2021-07-31T08:53:38Z</time>
      </trkpt>
      <trkpt lat="42.28845" lon="2.45533">
        <ele>979.55</ele>
        <time>2021-07-31T08:53:48Z</time>
      </trkpt>
      <trkpt lat="42.2887" lon="2.45542">
        <ele>980.14</ele>
        <time>2021-07-31T08:53:53Z</time>
      </trkpt>
      <trkpt lat="42.2892" lon="2.45536">
        <ele>981.55</ele>
        <time>2021-07-31T08:54:08Z</time>
      </trkpt>
      <trkpt lat="42.28961" lon="2.45519">
        <ele>983.54</ele>
        <time>2021-07-31T08:54:22Z</time>
      </trkpt>
      <trkpt lat="42.28987" lon="2.45491">
        <ele>985.67</ele>
        <time>2021-07-31T08:54:33Z</time>
      </trkpt>
      <trkpt lat="42.29021" lon="2.45459">
        <ele>988.75</ele>
        <time>2021-07-31T08:54:48Z</time>
      </trkpt>
      <trkpt lat="42.29051" lon="2.45426">
        <ele>991.33</ele>
        <time>2021-07-31T08:55:00Z</time>
      </trkpt>
      <trkpt lat="42.29086" lon="2.45392">
        <ele>994.45</ele>
        <time>2021-07-31T08:55:12Z</time>
      </trkpt>
      <trkpt lat="42.29122" lon="2.4537">
        <ele>996.35</ele>
        <time>2021-07-31T08:55:20Z</time>
      </trkpt>
      <trkpt lat="42.29166" lon="2.45325">
        <ele>999.62</ele>
        <time>2021-07-31T08:55:30Z</time>
      </trkpt>
      <trkpt lat="42.29189" lon="2.45282">
        <ele>1002.43</ele>
        <time>2021-07-31T08:55:42Z</time>
      </trkpt>
      <trkpt lat="42.29216" lon="2.45245">
        <ele>1005.02</ele>
        <time>2021-07-31T08:55:53Z</time>
      </trkpt>
      <trkpt lat="42.29222" lon="2.45206">
        <ele>1007.5</ele>
        <time>2021-07-31T08:56:05Z</time>
      </trkpt>
      <trkpt lat="42.29251" lon="2.45179">
        <ele>1009.78</ele>
        <time>2021-07-31T08:56:16Z</time>
      </trkpt>
      <trkpt lat="42.29276" lon="2.45125">
        <ele>1012.73</ele>
        <time>2021-07-31T08:56:28Z</time>
      </trkpt>
      <trkpt lat="42.29295" lon="2.45068">
        <ele>1015.42</ele>
        <time>2021-07-31T08:56:39Z</time>
      </trkpt>
      <trkpt lat="42.29296" lon="2.44998">
        <ele>1018.73</ele>
        <time>2021-07-31T08:56:52Z</time>
      </trkpt>
      <trkpt lat="42.29275" lon="2.44945">
        <ele>1021.46</ele>
        <time>2021-07-31T08:57:04Z</time>
      </trkpt>
      <trkpt lat="42.29246" lon="2.44901">
        <ele>1024.64</ele>
        <time>2021-07-31T08:57:16Z</time>
      </trkpt>
      <trkpt lat="42.29206" lon="2.44885">
        <ele>1027.71</ele>
        <time>2021-07-31T08:57:27Z</time>
      </trkpt>
      <trkpt lat="42.29167" lon="2.44873">
        <ele>1030.72</ele>
        <time>2021-07-31T08:57:38Z</time>
      </trkpt>
      <trkpt lat="42.29109" lon="2.44872">
        <ele>1033.57</ele>
        <time>2021-07-31T08:57:51Z</time>
      </trkpt>
      <trkpt lat="42.29059" lon="2.44876">
        <ele>1036.71</ele>
        <time>2021-07-31T08:58:03Z</time>
      </trkpt>
      <trkpt lat="42.29018" lon="2.44895">
        <ele>1039.8</ele>
        <time>2021-07-31T08:58:14Z</time>
      </trkpt>
      <trkpt lat="42.2897" lon="2.4491">
        <ele>1042.99</ele>
        <time>2021-07-31T08:58:26Z</time>
      </trkpt>
      <trkpt lat="42.28916" lon="2.44917">
        <ele>1046.1</ele>
        <time>2021-07-31T08:58:37Z</time>
      </trkpt>
      <trkpt lat="42.28898" lon="2.44917">
        <ele>1046.64</ele>
        <time>2021-07-31T08:58:39Z</time>
      </trkpt>
      <trkpt lat="42.28853" lon="2.44903">
        <ele>1048.9</ele>
        <time>2021-07-31T08:58:45Z</time>
      </trkpt>
      <trkpt lat="42.2881" lon="2.44893">
        <ele>1051.16</ele>
        <time>2021-07-31T08:58:51Z</time>
      </trkpt>
      <trkpt lat="42.2877" lon="2.44899">
        <ele>1053.78</ele>
        <time>2021-07-31T08:58:58Z</time>
      </trkpt>
      <trkpt lat="42.28749" lon="2.4489">
        <ele>1055.63</ele>
        <time>2021-07-31T08:59:02Z</time>
      </trkpt>
      <trkpt lat="42.28726" lon="2.4488">
        <ele>1059.5</ele>
        <time>2021-07-31T08:59:09Z</time>
      </trkpt>
      <trkpt lat="42.28698" lon="2.44874">
        <ele>1062.76</ele>
        <time>2021-07-31T08:59:16Z</time>
      </trkpt>
      <trkpt lat="42.28676" lon="2.44873">
        <ele>1066.09</ele>
        <time>2021-07-31T08:59:23Z</time>
      </trkpt>
      <trkpt lat="42.28666" lon="2.44872">
        <ele>1069.15</ele>
        <time>2021-07-31T08:59:32Z</time>
      </trkpt>
      <trkpt lat="42.2866" lon="2.44869">
        <ele>1071.51</ele>
        <time>2021-07-31T08:59:54Z</time>
      </trkpt>
      <trkpt lat="42.28656" lon="2.44866">
        <ele>1071.81</ele>
        <time>2021-07-31T09:00:03Z</time>
      </trkpt>
      <trkpt lat="42.28632" lon="2.44836">
        <ele>1074.77</ele>
        <time>2021-07-31T09:00:19Z</time>
      </trkpt>
      <trkpt lat="42.28605" lon="2.44808">
        <ele>1077.97</ele>
        <time>2021-07-31T09:00:30Z</time>
      </trkpt>
      <trkpt lat="42.28585" lon="2.44788">
        <ele>1081.06</ele>
        <time>2021-07-31T09:00:39Z</time>
      </trkpt>
      <trkpt lat="42.28569" lon="2.44775">
        <ele>1084.08</ele>
        <time>2021-07-31T09:00:47Z</time>
      </trkpt>
      <trkpt lat="42.28565" lon="2.44768">
        <ele>1085.5</ele>
        <time>2021-07-31T09:00:50Z</time>
      </trkpt>
      <trkpt lat="42.28543" lon="2.44733">
        <ele>1088.73</ele>
        <time>2021-07-31T09:01:03Z</time>
      </trkpt>
      <trkpt lat="42.28515" lon="2.44718">
        <ele>1090.83</ele>
        <time>2021-07-31T09:01:14Z</time>
      </trkpt>
      <trkpt lat="42.28495" lon="2.44712">
        <ele>1092.39</ele>
        <time>2021-07-31T09:01:49Z</time>
      </trkpt>
      <trkpt lat="42.28457" lon="2.44696">
        <ele>1093.71</ele>
        <time>2021-07-31T09:02:02Z</time>
      </trkpt>
      <trkpt lat="42.28444" lon="2.44692">
        <ele>1095.45</ele>
        <time>2021-07-31T09:02:14Z</time>
      </trkpt>
      <trkpt lat="42.28441" lon="2.44686">
        <ele>1095.75</ele>
        <time>2021-07-31T09:02:20Z</time>
      </trkpt>
      <trkpt lat="42.28447" lon="2.44644">
        <ele>1098.03</ele>
        <time>2021-07-31T09:02:34Z</time>
      </trkpt>
      <trkpt lat="42.28441" lon="2.44592">
        <ele>1100.78</ele>
        <time>2021-07-31T09:02:47Z</time>
      </trkpt>
      <trkpt lat="42.28437" lon="2.44571">
        <ele>1101.3</ele>
        <time>2021-07-31T09:02:50Z</time>
      </trkpt>
      <trkpt lat="42.28425" lon="2.44554">
        <ele>1101.66</ele>
        <time>2021-07-31T09:02:54Z</time>
      </trkpt>
      <trkpt lat="42.28395" lon="2.44516">
        <ele>1101.14</ele>
        <time>2021-07-31T09:03:05Z</time>
      </trkpt>
      <trkpt lat="42.28376" lon="2.44475">
        <ele>1101.43</ele>
        <time>2021-07-31T09:03:18Z</time>
      </trkpt>
      <trkpt lat="42.28361" lon="2.44413">
        <ele>1103.02</ele>
        <time>2021-07-31T09:03:30Z</time>
      </trkpt>
      <trkpt lat="42.28348" lon="2.44362">
        <ele>1104.65</ele>
        <time>2021-07-31T09:03:40Z</time>
      </trkpt>
      <trkpt lat="42.28335" lon="2.44314">
        <ele>1106.32</ele>
        <time>2021-07-31T09:03:49Z</time>
      </trkpt>
      <trkpt lat="42.2834" lon="2.44264">
        <ele>1107.27</ele>
        <time>2021-07-31T09:03:58Z</time>
      </trkpt>
      <trkpt lat="42.28345" lon="2.44241">
        <ele>1107.51</ele>
        <time>2021-07-31T09:04:02Z</time>
      </trkpt>
      <trkpt lat="42.28342" lon="2.44187">
        <ele>1106.88</ele>
        <time>2021-07-31T09:04:13Z</time>
      </trkpt>
      <trkpt lat="42.28341" lon="2.44138">
        <ele>1104.62</ele>
        <time>2021-07-31T09:04:23Z</time>
      </trkpt>
      <trkpt lat="42.28343" lon="2.44086">
        <ele>1101.43</ele>
        <time>2021-07-31T09:04:35Z</time>
      </trkpt>
      <trkpt lat="42.28347" lon="2.44033">
        <ele>1098.28</ele>
        <time>2021-07-31T09:04:46Z</time>
      </trkpt>
      <trkpt lat="42.28347" lon="2.43987">
        <ele>1095.77</ele>
        <time>2021-07-31T09:04:59Z</time>
      </trkpt>
      <trkpt lat="42.28359" lon="2.4395">
        <ele>1093.65</ele>
        <time>2021-07-31T09:05:09Z</time>
      </trkpt>
      <trkpt lat="42.28377" lon="2.43881">
        <ele>1091.14</ele>
        <time>2021-07-31T09:05:21Z</time>
      </trkpt>
      <trkpt lat="42.2838" lon="2.43874">
        <ele>1090.96</ele>
        <time>2021-07-31T09:05:22Z</time>
      </trkpt>
      <trkpt lat="42.28393" lon="2.43857">
        <ele>1090.54</ele>
        <time>2021-07-31T09:05:26Z</time>
      </trkpt>
      <trkpt lat="42.2841" lon="2.43801">
        <ele>1089.11</ele>
        <time>2021-07-31T09:05:39Z</time>
      </trkpt>
      <trkpt lat="42.28412" lon="2.43795">
        <ele>1089.08</ele>
        <time>2021-07-31T09:05:40Z</time>
      </trkpt>
      <trkpt lat="42.28422" lon="2.43776">
        <ele>1089.05</ele>
        <time>2021-07-31T09:05:43Z</time>
      </trkpt>
      <trkpt lat="42.28456" lon="2.43711">
        <ele>1091.06</ele>
        <time>2021-07-31T09:05:57Z</time>
      </trkpt>
      <trkpt lat="42.28464" lon="2.43692">
        <ele>1092.08</ele>
        <time>2021-07-31T09:06:01Z</time>
      </trkpt>
      <trkpt lat="42.28472" lon="2.43639">
        <ele>1095.63</ele>
        <time>2021-07-31T09:06:11Z</time>
      </trkpt>
      <trkpt lat="42.28472" lon="2.43597">
        <ele>1098.51</ele>
        <time>2021-07-31T09:06:23Z</time>
      </trkpt>
      <trkpt lat="42.28472" lon="2.43577">
        <ele>1098.62</ele>
        <time>2021-07-31T09:06:39Z</time>
      </trkpt>
      <trkpt lat="42.28471" lon="2.43579">
        <ele>1098.59</ele>
        <time>2021-07-31T09:06:40Z</time>
      </trkpt>
      <trkpt lat="42.2847" lon="2.43582">
        <ele>1098.56</ele>
        <time>2021-07-31T09:06:55Z</time>
      </trkpt>
      <trkpt lat="42.28472" lon="2.43561">
        <ele>1098.65</ele>
        <time>2021-07-31T09:07:01Z</time>
      </trkpt>
      <trkpt lat="42.28487" lon="2.43499">
        <ele>1097.99</ele>
        <time>2021-07-31T09:07:14Z</time>
      </trkpt>
      <trkpt lat="42.28497" lon="2.43465">
        <ele>1098.23</ele>
        <time>2021-07-31T09:07:25Z</time>
      </trkpt>
      <trkpt lat="42.28512" lon="2.43445">
        <ele>1099.12</ele>
        <time>2021-07-31T09:07:36Z</time>
      </trkpt>
      <trkpt lat="42.28515" lon="2.43438">
        <ele>1100.54</ele>
        <time>2021-07-31T09:07:46Z</time>
      </trkpt>
      <trkpt lat="42.2853" lon="2.43414">
        <ele>1101.41</ele>
        <time>2021-07-31T09:09:25Z</time>
      </trkpt>
      <trkpt lat="42.28565" lon="2.43376">
        <ele>1104.53</ele>
        <time>2021-07-31T09:09:36Z</time>
      </trkpt>
      <trkpt lat="42.28589" lon="2.43349">
        <ele>1107.62</ele>
        <time>2021-07-31T09:09:44Z</time>
      </trkpt>
      <trkpt lat="42.28606" lon="2.43335">
        <ele>1109.28</ele>
        <time>2021-07-31T09:09:49Z</time>
      </trkpt>
      <trkpt lat="42.28636" lon="2.43316">
        <ele>1112.84</ele>
        <time>2021-07-31T09:09:58Z</time>
      </trkpt>
      <trkpt lat="42.28662" lon="2.43307">
        <ele>1115.26</ele>
        <time>2021-07-31T09:10:05Z</time>
      </trkpt>
      <trkpt lat="42.28693" lon="2.43314">
        <ele>1118.66</ele>
        <time>2021-07-31T09:10:13Z</time>
      </trkpt>
      <trkpt lat="42.28711" lon="2.43297">
        <ele>1121.78</ele>
        <time>2021-07-31T09:10:22Z</time>
      </trkpt>
      <trkpt lat="42.28717" lon="2.43292">
        <ele>1124.04</ele>
        <time>2021-07-31T09:10:39Z</time>
      </trkpt>
      <trkpt lat="42.28722" lon="2.43286">
        <ele>1125.07</ele>
        <time>2021-07-31T09:10:57Z</time>
      </trkpt>
      <trkpt lat="42.28738" lon="2.43272">
        <ele>1125.98</ele>
        <time>2021-07-31T09:11:18Z</time>
      </trkpt>
      <trkpt lat="42.28756" lon="2.4325">
        <ele>1126.57</ele>
        <time>2021-07-31T09:11:24Z</time>
      </trkpt>
      <trkpt lat="42.28793" lon="2.43224">
        <ele>1125.67</ele>
        <time>2021-07-31T09:11:33Z</time>
      </trkpt>
      <trkpt lat="42.28812" lon="2.43195">
        <ele>1124.82</ele>
        <time>2021-07-31T09:11:38Z</time>
      </trkpt>
      <trkpt lat="42.28837" lon="2.43178">
        <ele>1123.48</ele>
        <time>2021-07-31T09:11:43Z</time>
      </trkpt>
      <trkpt lat="42.28863" lon="2.4317">
        <ele>1121.94</ele>
        <time>2021-07-31T09:11:48Z</time>
      </trkpt>
      <trkpt lat="42.28881" lon="2.43158">
        <ele>1120.59</ele>
        <time>2021-07-31T09:11:52Z</time>
      </trkpt>
      <trkpt lat="42.28915" lon="2.43109">
        <ele>1117.85</ele>
        <time>2021-07-31T09:12:00Z</time>
      </trkpt>
      <trkpt lat="42.28931" lon="2.43084">
        <ele>1116.57</ele>
        <time>2021-07-31T09:12:04Z</time>
      </trkpt>
      <trkpt lat="42.28938" lon="2.4307">
        <ele>1116.27</ele>
        <time>2021-07-31T09:12:06Z</time>
      </trkpt>
      <trkpt lat="42.28977" lon="2.4303">
        <ele>1114.64</ele>
        <time>2021-07-31T09:12:15Z</time>
      </trkpt>
      <trkpt lat="42.29006" lon="2.43005">
        <ele>1114.84</ele>
        <time>2021-07-31T09:12:26Z</time>
      </trkpt>
      <trkpt lat="42.29004" lon="2.42983">
        <ele>1115.08</ele>
        <time>2021-07-31T09:12:29Z</time>
      </trkpt>
      <trkpt lat="42.28967" lon="2.42904">
        <ele>1115.37</ele>
        <time>2021-07-31T09:12:39Z</time>
      </trkpt>
      <trkpt lat="42.28963" lon="2.42897">
        <ele>1115.37</ele>
        <time>2021-07-31T09:12:40Z</time>
      </trkpt>
      <trkpt lat="42.28946" lon="2.42877">
        <ele>1115.35</ele>
        <time>2021-07-31T09:12:44Z</time>
      </trkpt>
      <trkpt lat="42.28936" lon="2.42869">
        <ele>1115.3</ele>
        <time>2021-07-31T09:12:46Z</time>
      </trkpt>
      <trkpt lat="42.28914" lon="2.42838">
        <ele>1115.3</ele>
        <time>2021-07-31T09:12:51Z</time>
      </trkpt>
      <trkpt lat="42.28895" lon="2.42816">
        <ele>1115.3</ele>
        <time>2021-07-31T09:12:55Z</time>
      </trkpt>
      <trkpt lat="42.28883" lon="2.42795">
        <ele>1114.92</ele>
        <time>2021-07-31T09:12:59Z</time>
      </trkpt>
      <trkpt lat="42.28871" lon="2.42782">
        <ele>1114.53</ele>
        <time>2021-07-31T09:13:03Z</time>
      </trkpt>
      <trkpt lat="42.28863" lon="2.42773">
        <ele>1114.26</ele>
        <time>2021-07-31T09:13:06Z</time>
      </trkpt>
      <trkpt lat="42.28854" lon="2.42732">
        <ele>1113.88</ele>
        <time>2021-07-31T09:13:12Z</time>
      </trkpt>
      <trkpt lat="42.28849" lon="2.42716">
        <ele>1113.85</ele>
        <time>2021-07-31T09:13:14Z</time>
      </trkpt>
      <trkpt lat="42.28823" lon="2.42692">
        <ele>1113.58</ele>
        <time>2021-07-31T09:13:20Z</time>
      </trkpt>
      <trkpt lat="42.28806" lon="2.42689">
        <ele>1113.58</ele>
        <time>2021-07-31T09:13:23Z</time>
      </trkpt>
      <trkpt lat="42.28791" lon="2.42684">
        <ele>1113.64</ele>
        <time>2021-07-31T09:13:26Z</time>
      </trkpt>
      <trkpt lat="42.28743" lon="2.42657">
        <ele>1113.76</ele>
        <time>2021-07-31T09:13:38Z</time>
      </trkpt>
      <trkpt lat="42.2874" lon="2.42654">
        <ele>1113.73</ele>
        <time>2021-07-31T09:13:39Z</time>
      </trkpt>
      <trkpt lat="42.2874" lon="2.42625">
        <ele>1113.59</ele>
        <time>2021-07-31T09:13:44Z</time>
      </trkpt>
      <trkpt lat="42.2874" lon="2.42598">
        <ele>1113.6</ele>
        <time>2021-07-31T09:13:48Z</time>
      </trkpt>
      <trkpt lat="42.28737" lon="2.42544">
        <ele>1113.57</ele>
        <time>2021-07-31T09:14:00Z</time>
      </trkpt>
      <trkpt lat="42.2873" lon="2.42513">
        <ele>1113.52</ele>
        <time>2021-07-31T09:14:12Z</time>
      </trkpt>
      <trkpt lat="42.28738" lon="2.42465">
        <ele>1113.55</ele>
        <time>2021-07-31T09:14:25Z</time>
      </trkpt>
      <trkpt lat="42.28746" lon="2.42426">
        <ele>1113.77</ele>
        <time>2021-07-31T09:14:36Z</time>
      </trkpt>
      <trkpt lat="42.28751" lon="2.42374">
        <ele>1113.87</ele>
        <time>2021-07-31T09:14:47Z</time>
      </trkpt>
      <trkpt lat="42.28767" lon="2.42297">
        <ele>1114.11</ele>
        <time>2021-07-31T09:14:59Z</time>
      </trkpt>
      <trkpt lat="42.28767" lon="2.42291">
        <ele>1114.11</ele>
        <time>2021-07-31T09:15:00Z</time>
      </trkpt>
      <trkpt lat="42.28752" lon="2.42181">
        <ele>1114.11</ele>
        <time>2021-07-31T09:15:16Z</time>
      </trkpt>
      <trkpt lat="42.28738" lon="2.42133">
        <ele>1113.78</ele>
        <time>2021-07-31T09:15:28Z</time>
      </trkpt>
      <trkpt lat="42.28734" lon="2.42106">
        <ele>1113.87</ele>
        <time>2021-07-31T09:15:35Z</time>
      </trkpt>
      <trkpt lat="42.28712" lon="2.42062">
        <ele>1114.07</ele>
        <time>2021-07-31T09:15:45Z</time>
      </trkpt>
      <trkpt lat="42.28706" lon="2.41978">
        <ele>1114</ele>
        <time>2021-07-31T09:15:58Z</time>
      </trkpt>
      <trkpt lat="42.28706" lon="2.41931">
        <ele>1114.26</ele>
        <time>2021-07-31T09:16:06Z</time>
      </trkpt>
      <trkpt lat="42.28696" lon="2.41887">
        <ele>1115.29</ele>
        <time>2021-07-31T09:16:16Z</time>
      </trkpt>
      <trkpt lat="42.2866" lon="2.4184">
        <ele>1114.76</ele>
        <time>2021-07-31T09:16:27Z</time>
      </trkpt>
      <trkpt lat="42.28632" lon="2.41807">
        <ele>1113.84</ele>
        <time>2021-07-31T09:16:38Z</time>
      </trkpt>
      <trkpt lat="42.28605" lon="2.41787">
        <ele>1113.11</ele>
        <time>2021-07-31T09:17:03Z</time>
      </trkpt>
      <trkpt lat="42.28563" lon="2.41782">
        <ele>1111.44</ele>
        <time>2021-07-31T09:17:15Z</time>
      </trkpt>
      <trkpt lat="42.2852" lon="2.41781">
        <ele>1108.17</ele>
        <time>2021-07-31T09:17:28Z</time>
      </trkpt>
      <trkpt lat="42.28481" lon="2.4177">
        <ele>1105.21</ele>
        <time>2021-07-31T09:17:38Z</time>
      </trkpt>
      <trkpt lat="42.28449" lon="2.41763">
        <ele>1101.88</ele>
        <time>2021-07-31T09:17:46Z</time>
      </trkpt>
      <trkpt lat="42.28426" lon="2.41748">
        <ele>1099.05</ele>
        <time>2021-07-31T09:17:52Z</time>
      </trkpt>
      <trkpt lat="42.28419" lon="2.4174">
        <ele>1098.1</ele>
        <time>2021-07-31T09:17:54Z</time>
      </trkpt>
      <trkpt lat="42.28403" lon="2.41688">
        <ele>1094.38</ele>
        <time>2021-07-31T09:18:01Z</time>
      </trkpt>
      <trkpt lat="42.28403" lon="2.41674">
        <ele>1093.34</ele>
        <time>2021-07-31T09:18:03Z</time>
      </trkpt>
      <trkpt lat="42.2841" lon="2.41635">
        <ele>1090.82</ele>
        <time>2021-07-31T09:18:09Z</time>
      </trkpt>
      <trkpt lat="42.28408" lon="2.41605">
        <ele>1089.31</ele>
        <time>2021-07-31T09:18:13Z</time>
      </trkpt>
      <trkpt lat="42.28402" lon="2.41585">
        <ele>1088.49</ele>
        <time>2021-07-31T09:18:16Z</time>
      </trkpt>
      <trkpt lat="42.28388" lon="2.41515">
        <ele>1085.32</ele>
        <time>2021-07-31T09:18:27Z</time>
      </trkpt>
      <trkpt lat="42.28381" lon="2.41496">
        <ele>1083.97</ele>
        <time>2021-07-31T09:18:30Z</time>
      </trkpt>
      <trkpt lat="42.2837" lon="2.41444">
        <ele>1080.22</ele>
        <time>2021-07-31T09:18:37Z</time>
      </trkpt>
      <trkpt lat="42.28366" lon="2.41429">
        <ele>1079.15</ele>
        <time>2021-07-31T09:18:39Z</time>
      </trkpt>
      <trkpt lat="42.28373" lon="2.41397">
        <ele>1076.09</ele>
        <time>2021-07-31T09:18:45Z</time>
      </trkpt>
      <trkpt lat="42.28388" lon="2.41378">
        <ele>1074.27</ele>
        <time>2021-07-31T09:18:49Z</time>
      </trkpt>
      <trkpt lat="42.28424" lon="2.41354">
        <ele>1072.65</ele>
        <time>2021-07-31T09:18:55Z</time>
      </trkpt>
      <trkpt lat="42.28435" lon="2.41333">
        <ele>1072.04</ele>
        <time>2021-07-31T09:18:59Z</time>
      </trkpt>
      <trkpt lat="42.28437" lon="2.41239">
        <ele>1069.94</ele>
        <time>2021-07-31T09:19:12Z</time>
      </trkpt>
      <trkpt lat="42.28433" lon="2.41163">
        <ele>1069.39</ele>
        <time>2021-07-31T09:19:22Z</time>
      </trkpt>
      <trkpt lat="42.28451" lon="2.4107">
        <ele>1067.63</ele>
        <time>2021-07-31T09:19:34Z</time>
      </trkpt>
      <trkpt lat="42.28456" lon="2.41063">
        <ele>1067.27</ele>
        <time>2021-07-31T09:19:36Z</time>
      </trkpt>
      <trkpt lat="42.28495" lon="2.41066">
        <ele>1065.77</ele>
        <time>2021-07-31T09:19:47Z</time>
      </trkpt>
      <trkpt lat="42.28555" lon="2.4107">
        <ele>1065.95</ele>
        <time>2021-07-31T09:20:00Z</time>
      </trkpt>
      <trkpt lat="42.28567" lon="2.41073">
        <ele>1065.95</ele>
        <time>2021-07-31T09:20:03Z</time>
      </trkpt>
      <trkpt lat="42.28619" lon="2.41109">
        <ele>1064.69</ele>
        <time>2021-07-31T09:20:17Z</time>
      </trkpt>
      <trkpt lat="42.28646" lon="2.41119">
        <ele>1061.33</ele>
        <time>2021-07-31T09:20:26Z</time>
      </trkpt>
      <trkpt lat="42.2869" lon="2.41126">
        <ele>1058.34</ele>
        <time>2021-07-31T09:20:36Z</time>
      </trkpt>
      <trkpt lat="42.28738" lon="2.41139">
        <ele>1057.39</ele>
        <time>2021-07-31T09:20:47Z</time>
      </trkpt>
      <trkpt lat="42.28748" lon="2.4114">
        <ele>1057.42</ele>
        <time>2021-07-31T09:20:49Z</time>
      </trkpt>
      <trkpt lat="42.28798" lon="2.41137">
        <ele>1056.94</ele>
        <time>2021-07-31T09:21:00Z</time>
      </trkpt>
      <trkpt lat="42.28816" lon="2.41142">
        <ele>1056.02</ele>
        <time>2021-07-31T09:21:06Z</time>
      </trkpt>
      <trkpt lat="42.28858" lon="2.41123">
        <ele>1052.94</ele>
        <time>2021-07-31T09:21:17Z</time>
      </trkpt>
      <trkpt lat="42.28884" lon="2.41118">
        <ele>1049.68</ele>
        <time>2021-07-31T09:21:25Z</time>
      </trkpt>
      <trkpt lat="42.28906" lon="2.41114">
        <ele>1046.39</ele>
        <time>2021-07-31T09:21:32Z</time>
      </trkpt>
      <trkpt lat="42.2893" lon="2.41114">
        <ele>1043.31</ele>
        <time>2021-07-31T09:21:38Z</time>
      </trkpt>
      <trkpt lat="42.28966" lon="2.41113">
        <ele>1041.1</ele>
        <time>2021-07-31T09:21:44Z</time>
      </trkpt>
      <trkpt lat="42.29002" lon="2.411">
        <ele>1038.92</ele>
        <time>2021-07-31T09:21:51Z</time>
      </trkpt>
      <trkpt lat="42.29002" lon="2.41094">
        <ele>1038.78</ele>
        <time>2021-07-31T09:21:52Z</time>
      </trkpt>
      <trkpt lat="42.29002" lon="2.41082">
        <ele>1038.53</ele>
        <time>2021-07-31T09:21:54Z</time>
      </trkpt>
      <trkpt lat="42.29003" lon="2.41059">
        <ele>1038.06</ele>
        <time>2021-07-31T09:22:03Z</time>
      </trkpt>
      <trkpt lat="42.29006" lon="2.41005">
        <ele>1038.82</ele>
        <time>2021-07-31T09:22:15Z</time>
      </trkpt>
      <trkpt lat="42.29006" lon="2.40952">
        <ele>1040.39</ele>
        <time>2021-07-31T09:22:22Z</time>
      </trkpt>
      <trkpt lat="42.29008" lon="2.40917">
        <ele>1041.48</ele>
        <time>2021-07-31T09:22:26Z</time>
      </trkpt>
      <trkpt lat="42.29013" lon="2.40894">
        <ele>1042.76</ele>
        <time>2021-07-31T09:22:29Z</time>
      </trkpt>
      <trkpt lat="42.29024" lon="2.40858">
        <ele>1044.02</ele>
        <time>2021-07-31T09:22:34Z</time>
      </trkpt>
      <trkpt lat="42.29033" lon="2.40843">
        <ele>1044.66</ele>
        <time>2021-07-31T09:22:37Z</time>
      </trkpt>
      <trkpt lat="42.29039" lon="2.40824">
        <ele>1045.41</ele>
        <time>2021-07-31T09:22:41Z</time>
      </trkpt>
      <trkpt lat="42.2904" lon="2.40812">
        <ele>1045.83</ele>
        <time>2021-07-31T09:22:43Z</time>
      </trkpt>
      <trkpt lat="42.29049" lon="2.40781">
        <ele>1047.09</ele>
        <time>2021-07-31T09:22:48Z</time>
      </trkpt>
      <trkpt lat="42.29067" lon="2.40755">
        <ele>1047.99</ele>
        <time>2021-07-31T09:22:53Z</time>
      </trkpt>
      <trkpt lat="42.29078" lon="2.40735">
        <ele>1048.5</ele>
        <time>2021-07-31T09:22:56Z</time>
      </trkpt>
      <trkpt lat="42.29113" lon="2.40689">
        <ele>1050.3</ele>
        <time>2021-07-31T09:23:05Z</time>
      </trkpt>
      <trkpt lat="42.29131" lon="2.40648">
        <ele>1051.68</ele>
        <time>2021-07-31T09:23:10Z</time>
      </trkpt>
      <trkpt lat="42.29137" lon="2.40619">
        <ele>1052.65</ele>
        <time>2021-07-31T09:23:14Z</time>
      </trkpt>
      <trkpt lat="42.29136" lon="2.40589">
        <ele>1053.3</ele>
        <time>2021-07-31T09:23:18Z</time>
      </trkpt>
      <trkpt lat="42.29129" lon="2.40553">
        <ele>1054.34</ele>
        <time>2021-07-31T09:23:22Z</time>
      </trkpt>
      <trkpt lat="42.29114" lon="2.40514">
        <ele>1055.28</ele>
        <time>2021-07-31T09:23:27Z</time>
      </trkpt>
      <trkpt lat="42.29108" lon="2.40488">
        <ele>1055.83</ele>
        <time>2021-07-31T09:23:30Z</time>
      </trkpt>
      <trkpt lat="42.29092" lon="2.40426">
        <ele>1058.1</ele>
        <time>2021-07-31T09:23:38Z</time>
      </trkpt>
      <trkpt lat="42.29039" lon="2.40359">
        <ele>1060.23</ele>
        <time>2021-07-31T09:23:51Z</time>
      </trkpt>
      <trkpt lat="42.28991" lon="2.40307">
        <ele>1061.4</ele>
        <time>2021-07-31T09:24:01Z</time>
      </trkpt>
      <trkpt lat="42.28961" lon="2.40274">
        <ele>1061.91</ele>
        <time>2021-07-31T09:24:07Z</time>
      </trkpt>
      <trkpt lat="42.28951" lon="2.40253">
        <ele>1061.94</ele>
        <time>2021-07-31T09:24:10Z</time>
      </trkpt>
      <trkpt lat="42.2892" lon="2.40205">
        <ele>1061.59</ele>
        <time>2021-07-31T09:24:18Z</time>
      </trkpt>
      <trkpt lat="42.28888" lon="2.40185">
        <ele>1059.54</ele>
        <time>2021-07-31T09:24:28Z</time>
      </trkpt>
      <trkpt lat="42.28883" lon="2.40186">
        <ele>1059.45</ele>
        <time>2021-07-31T09:24:29Z</time>
      </trkpt>
      <trkpt lat="42.2885" lon="2.40184">
        <ele>1059.11</ele>
        <time>2021-07-31T09:24:35Z</time>
      </trkpt>
      <trkpt lat="42.28798" lon="2.40163">
        <ele>1058.76</ele>
        <time>2021-07-31T09:24:47Z</time>
      </trkpt>
      <trkpt lat="42.28782" lon="2.40152">
        <ele>1058.81</ele>
        <time>2021-07-31T09:24:52Z</time>
      </trkpt>
      <trkpt lat="42.2875" lon="2.4011">
        <ele>1059.38</ele>
        <time>2021-07-31T09:25:04Z</time>
      </trkpt>
      <trkpt lat="42.28737" lon="2.40095">
        <ele>1059.5</ele>
        <time>2021-07-31T09:25:08Z</time>
      </trkpt>
      <trkpt lat="42.28715" lon="2.40077">
        <ele>1060.01</ele>
        <time>2021-07-31T09:25:15Z</time>
      </trkpt>
      <trkpt lat="42.28678" lon="2.40032">
        <ele>1060.33</ele>
        <time>2021-07-31T09:25:27Z</time>
      </trkpt>
      <trkpt lat="42.28662" lon="2.39987">
        <ele>1061.4</ele>
        <time>2021-07-31T09:25:37Z</time>
      </trkpt>
      <trkpt lat="42.2863" lon="2.39981">
        <ele>1062.05</ele>
        <time>2021-07-31T09:25:46Z</time>
      </trkpt>
      <trkpt lat="42.28612" lon="2.39976">
        <ele>1062.12</ele>
        <time>2021-07-31T09:25:50Z</time>
      </trkpt>
      <trkpt lat="42.28581" lon="2.39959">
        <ele>1061.58</ele>
        <time>2021-07-31T09:26:00Z</time>
      </trkpt>
      <trkpt lat="42.28577" lon="2.39944">
        <ele>1060.81</ele>
        <time>2021-07-31T09:26:04Z</time>
      </trkpt>
      <trkpt lat="42.28571" lon="2.39884">
        <ele>1058.98</ele>
        <time>2021-07-31T09:26:11Z</time>
      </trkpt>
      <trkpt lat="42.28566" lon="2.398">
        <ele>1057.37</ele>
        <time>2021-07-31T09:26:21Z</time>
      </trkpt>
      <trkpt lat="42.28575" lon="2.39775">
        <ele>1057.43</ele>
        <time>2021-07-31T09:26:25Z</time>
      </trkpt>
      <trkpt lat="42.28592" lon="2.39734">
        <ele>1058.95</ele>
        <time>2021-07-31T09:26:34Z</time>
      </trkpt>
      <trkpt lat="42.2859" lon="2.397">
        <ele>1060.53</ele>
        <time>2021-07-31T09:26:40Z</time>
      </trkpt>
      <trkpt lat="42.28596" lon="2.3968">
        <ele>1061.3</ele>
        <time>2021-07-31T09:26:44Z</time>
      </trkpt>
      <trkpt lat="42.28608" lon="2.39634">
        <ele>1061.72</ele>
        <time>2021-07-31T09:26:54Z</time>
      </trkpt>
      <trkpt lat="42.28598" lon="2.39616">
        <ele>1061.76</ele>
        <time>2021-07-31T09:26:57Z</time>
      </trkpt>
      <trkpt lat="42.28585" lon="2.39587">
        <ele>1061.6</ele>
        <time>2021-07-31T09:27:01Z</time>
      </trkpt>
      <trkpt lat="42.28558" lon="2.39559">
        <ele>1061.47</ele>
        <time>2021-07-31T09:27:06Z</time>
      </trkpt>
      <trkpt lat="42.28524" lon="2.39493">
        <ele>1061.6</ele>
        <time>2021-07-31T09:27:17Z</time>
      </trkpt>
      <trkpt lat="42.28524" lon="2.39485">
        <ele>1061.6</ele>
        <time>2021-07-31T09:27:18Z</time>
      </trkpt>
      <trkpt lat="42.28526" lon="2.39469">
        <ele>1061.34</ele>
        <time>2021-07-31T09:27:20Z</time>
      </trkpt>
      <trkpt lat="42.28526" lon="2.39442">
        <ele>1058.84</ele>
        <time>2021-07-31T09:27:26Z</time>
      </trkpt>
      <trkpt lat="42.28526" lon="2.39413">
        <ele>1055.47</ele>
        <time>2021-07-31T09:27:32Z</time>
      </trkpt>
      <trkpt lat="42.28525" lon="2.39382">
        <ele>1052.46</ele>
        <time>2021-07-31T09:27:39Z</time>
      </trkpt>
      <trkpt lat="42.28525" lon="2.39378">
        <ele>1052.16</ele>
        <time>2021-07-31T09:27:40Z</time>
      </trkpt>
      <trkpt lat="42.2852" lon="2.39333">
        <ele>1048.9</ele>
        <time>2021-07-31T09:27:49Z</time>
      </trkpt>
      <trkpt lat="42.28514" lon="2.39295">
        <ele>1045.74</ele>
        <time>2021-07-31T09:27:56Z</time>
      </trkpt>
      <trkpt lat="42.28504" lon="2.39264">
        <ele>1042.73</ele>
        <time>2021-07-31T09:28:03Z</time>
      </trkpt>
      <trkpt lat="42.28498" lon="2.3923">
        <ele>1039.41</ele>
        <time>2021-07-31T09:28:11Z</time>
      </trkpt>
      <trkpt lat="42.28487" lon="2.39199">
        <ele>1036.28</ele>
        <time>2021-07-31T09:28:21Z</time>
      </trkpt>
      <trkpt lat="42.28484" lon="2.39189">
        <ele>1035.77</ele>
        <time>2021-07-31T09:28:23Z</time>
      </trkpt>
      <trkpt lat="42.2848" lon="2.39167">
        <ele>1034.7</ele>
        <time>2021-07-31T09:28:27Z</time>
      </trkpt>
      <trkpt lat="42.28466" lon="2.39091">
        <ele>1031.19</ele>
        <time>2021-07-31T09:28:39Z</time>
      </trkpt>
      <trkpt lat="42.28458" lon="2.39056">
        <ele>1029.96</ele>
        <time>2021-07-31T09:28:43Z</time>
      </trkpt>
      <trkpt lat="42.28458" lon="2.3905">
        <ele>1029.56</ele>
        <time>2021-07-31T09:28:44Z</time>
      </trkpt>
      <trkpt lat="42.28458" lon="2.39045">
        <ele>1029.1</ele>
        <time>2021-07-31T09:28:45Z</time>
      </trkpt>
      <trkpt lat="42.28459" lon="2.3904">
        <ele>1028.59</ele>
        <time>2021-07-31T09:28:46Z</time>
      </trkpt>
      <trkpt lat="42.2846" lon="2.39034">
        <ele>1028.05</ele>
        <time>2021-07-31T09:28:47Z</time>
      </trkpt>
      <trkpt lat="42.28462" lon="2.39027">
        <ele>1027.57</ele>
        <time>2021-07-31T09:28:48Z</time>
      </trkpt>
      <trkpt lat="42.28465" lon="2.39017">
        <ele>1027.11</ele>
        <time>2021-07-31T09:28:49Z</time>
      </trkpt>
      <trkpt lat="42.2847" lon="2.38995">
        <ele>1026.33</ele>
        <time>2021-07-31T09:28:51Z</time>
      </trkpt>
      <trkpt lat="42.28477" lon="2.38931">
        <ele>1023.98</ele>
        <time>2021-07-31T09:28:56Z</time>
      </trkpt>
      <trkpt lat="42.28475" lon="2.38879">
        <ele>1020.21</ele>
        <time>2021-07-31T09:29:01Z</time>
      </trkpt>
      <trkpt lat="42.28475" lon="2.38847">
        <ele>1016.25</ele>
        <time>2021-07-31T09:29:04Z</time>
      </trkpt>
      <trkpt lat="42.28476" lon="2.38837">
        <ele>1015.16</ele>
        <time>2021-07-31T09:29:05Z</time>
      </trkpt>
      <trkpt lat="42.28485" lon="2.38799">
        <ele>1010.84</ele>
        <time>2021-07-31T09:29:09Z</time>
      </trkpt>
      <trkpt lat="42.28494" lon="2.38758">
        <ele>1007.01</ele>
        <time>2021-07-31T09:29:13Z</time>
      </trkpt>
      <trkpt lat="42.28496" lon="2.38748">
        <ele>1006.18</ele>
        <time>2021-07-31T09:29:14Z</time>
      </trkpt>
      <trkpt lat="42.28499" lon="2.38713">
        <ele>1003.64</ele>
        <time>2021-07-31T09:29:17Z</time>
      </trkpt>
      <trkpt lat="42.28506" lon="2.38679">
        <ele>1001.51</ele>
        <time>2021-07-31T09:29:20Z</time>
      </trkpt>
      <trkpt lat="42.28536" lon="2.38603">
        <ele>997.35</ele>
        <time>2021-07-31T09:29:27Z</time>
      </trkpt>
      <trkpt lat="42.28543" lon="2.38583">
        <ele>996.14</ele>
        <time>2021-07-31T09:29:29Z</time>
      </trkpt>
      <trkpt lat="42.28552" lon="2.3852">
        <ele>991.82</ele>
        <time>2021-07-31T09:29:35Z</time>
      </trkpt>
      <trkpt lat="42.28553" lon="2.38505">
        <ele>988.82</ele>
        <time>2021-07-31T09:29:38Z</time>
      </trkpt>
      <trkpt lat="42.28564" lon="2.38506">
        <ele>983.87</ele>
        <time>2021-07-31T09:29:43Z</time>
      </trkpt>
      <trkpt lat="42.28569" lon="2.38526">
        <ele>980.75</ele>
        <time>2021-07-31T09:29:47Z</time>
      </trkpt>
      <trkpt lat="42.28572" lon="2.38538">
        <ele>979.61</ele>
        <time>2021-07-31T09:29:49Z</time>
      </trkpt>
      <trkpt lat="42.28573" lon="2.38551">
        <ele>978.41</ele>
        <time>2021-07-31T09:29:51Z</time>
      </trkpt>
      <trkpt lat="42.28569" lon="2.38585">
        <ele>974.46</ele>
        <time>2021-07-31T09:29:58Z</time>
      </trkpt>
      <trkpt lat="42.28568" lon="2.38589">
        <ele>973.79</ele>
        <time>2021-07-31T09:29:59Z</time>
      </trkpt>
      <trkpt lat="42.28585" lon="2.38582">
        <ele>970.59</ele>
        <time>2021-07-31T09:30:06Z</time>
      </trkpt>
      <trkpt lat="42.28588" lon="2.38575">
        <ele>970.4</ele>
        <time>2021-07-31T09:30:07Z</time>
      </trkpt>
      <trkpt lat="42.28593" lon="2.38558">
        <ele>970.06</ele>
        <time>2021-07-31T09:30:09Z</time>
      </trkpt>
      <trkpt lat="42.286" lon="2.38481">
        <ele>967.41</ele>
        <time>2021-07-31T09:30:17Z</time>
      </trkpt>
      <trkpt lat="42.28594" lon="2.3844">
        <ele>964.49</ele>
        <time>2021-07-31T09:30:23Z</time>
      </trkpt>
      <trkpt lat="42.28598" lon="2.38363">
        <ele>961.16</ele>
        <time>2021-07-31T09:30:31Z</time>
      </trkpt>
      <trkpt lat="42.28604" lon="2.38346">
        <ele>960.09</ele>
        <time>2021-07-31T09:30:33Z</time>
      </trkpt>
      <trkpt lat="42.28605" lon="2.38292">
        <ele>957.63</ele>
        <time>2021-07-31T09:30:37Z</time>
      </trkpt>
      <trkpt lat="42.28607" lon="2.38261">
        <ele>956.5</ele>
        <time>2021-07-31T09:30:39Z</time>
      </trkpt>
      <trkpt lat="42.28596" lon="2.38185">
        <ele>952.34</ele>
        <time>2021-07-31T09:30:44Z</time>
      </trkpt>
      <trkpt lat="42.28584" lon="2.38141">
        <ele>948.63</ele>
        <time>2021-07-31T09:30:47Z</time>
      </trkpt>
      <trkpt lat="42.28567" lon="2.38099">
        <ele>945.35</ele>
        <time>2021-07-31T09:30:50Z</time>
      </trkpt>
      <trkpt lat="42.28546" lon="2.38065">
        <ele>941.84</ele>
        <time>2021-07-31T09:30:53Z</time>
      </trkpt>
      <trkpt lat="42.28525" lon="2.38036">
        <ele>937.67</ele>
        <time>2021-07-31T09:30:56Z</time>
      </trkpt>
      <trkpt lat="42.28515" lon="2.38018">
        <ele>934.89</ele>
        <time>2021-07-31T09:30:58Z</time>
      </trkpt>
      <trkpt lat="42.28512" lon="2.37981">
        <ele>929.69</ele>
        <time>2021-07-31T09:31:02Z</time>
      </trkpt>
      <trkpt lat="42.28514" lon="2.3793">
        <ele>925.33</ele>
        <time>2021-07-31T09:31:07Z</time>
      </trkpt>
      <trkpt lat="42.28514" lon="2.37908">
        <ele>924.4</ele>
        <time>2021-07-31T09:31:09Z</time>
      </trkpt>
      <trkpt lat="42.28484" lon="2.37806">
        <ele>920.65</ele>
        <time>2021-07-31T09:31:17Z</time>
      </trkpt>
      <trkpt lat="42.28469" lon="2.37763">
        <ele>919.12</ele>
        <time>2021-07-31T09:31:20Z</time>
      </trkpt>
      <trkpt lat="42.28434" lon="2.37664">
        <ele>915.39</ele>
        <time>2021-07-31T09:31:27Z</time>
      </trkpt>
      <trkpt lat="42.2843" lon="2.37651">
        <ele>914.87</ele>
        <time>2021-07-31T09:31:28Z</time>
      </trkpt>
      <trkpt lat="42.28413" lon="2.37618">
        <ele>913.12</ele>
        <time>2021-07-31T09:31:31Z</time>
      </trkpt>
      <trkpt lat="42.28392" lon="2.37543">
        <ele>909.24</ele>
        <time>2021-07-31T09:31:37Z</time>
      </trkpt>
      <trkpt lat="42.28378" lon="2.37488">
        <ele>905.78</ele>
        <time>2021-07-31T09:31:42Z</time>
      </trkpt>
      <trkpt lat="42.28372" lon="2.3746">
        <ele>902.04</ele>
        <time>2021-07-31T09:31:47Z</time>
      </trkpt>
      <trkpt lat="42.28387" lon="2.37462">
        <ele>898.1</ele>
        <time>2021-07-31T09:31:53Z</time>
      </trkpt>
      <trkpt lat="42.28388" lon="2.37468">
        <ele>897.59</ele>
        <time>2021-07-31T09:31:54Z</time>
      </trkpt>
      <trkpt lat="42.28409" lon="2.37487">
        <ele>894.41</ele>
        <time>2021-07-31T09:32:03Z</time>
      </trkpt>
      <trkpt lat="42.28416" lon="2.37471">
        <ele>894.2</ele>
        <time>2021-07-31T09:32:05Z</time>
      </trkpt>
      <trkpt lat="42.28424" lon="2.37452">
        <ele>894.17</ele>
        <time>2021-07-31T09:32:07Z</time>
      </trkpt>
      <trkpt lat="42.28427" lon="2.37373">
        <ele>895.48</ele>
        <time>2021-07-31T09:32:14Z</time>
      </trkpt>
      <trkpt lat="42.28443" lon="2.37298">
        <ele>895.97</ele>
        <time>2021-07-31T09:32:21Z</time>
      </trkpt>
      <trkpt lat="42.28484" lon="2.37238">
        <ele>894.44</ele>
        <time>2021-07-31T09:32:27Z</time>
      </trkpt>
      <trkpt lat="42.28553" lon="2.37174">
        <ele>890.92</ele>
        <time>2021-07-31T09:32:34Z</time>
      </trkpt>
      <trkpt lat="42.28579" lon="2.37149">
        <ele>888.58</ele>
        <time>2021-07-31T09:32:37Z</time>
      </trkpt>
      <trkpt lat="42.28598" lon="2.37121">
        <ele>885.74</ele>
        <time>2021-07-31T09:32:40Z</time>
      </trkpt>
      <trkpt lat="42.28622" lon="2.37042">
        <ele>881.57</ele>
        <time>2021-07-31T09:32:47Z</time>
      </trkpt>
      <trkpt lat="42.28635" lon="2.37023">
        <ele>881.33</ele>
        <time>2021-07-31T09:32:49Z</time>
      </trkpt>
      <trkpt lat="42.28663" lon="2.36979">
        <ele>881.65</ele>
        <time>2021-07-31T09:32:57Z</time>
      </trkpt>
      <trkpt lat="42.28677" lon="2.36955">
        <ele>881.62</ele>
        <time>2021-07-31T09:33:02Z</time>
      </trkpt>
      <trkpt lat="42.28692" lon="2.36911">
        <ele>879.78</ele>
        <time>2021-07-31T09:33:10Z</time>
      </trkpt>
      <trkpt lat="42.28718" lon="2.36884">
        <ele>876.33</ele>
        <time>2021-07-31T09:33:18Z</time>
      </trkpt>
      <trkpt lat="42.28714" lon="2.36861">
        <ele>873.27</ele>
        <time>2021-07-31T09:33:24Z</time>
      </trkpt>
      <trkpt lat="42.28713" lon="2.36858">
        <ele>872.83</ele>
        <time>2021-07-31T09:33:25Z</time>
      </trkpt>
      <trkpt lat="42.28707" lon="2.36828">
        <ele>870.15</ele>
        <time>2021-07-31T09:33:36Z</time>
      </trkpt>
      <trkpt lat="42.28724" lon="2.36795">
        <ele>870.45</ele>
        <time>2021-07-31T09:33:43Z</time>
      </trkpt>
      <trkpt lat="42.28727" lon="2.36774">
        <ele>871.54</ele>
        <time>2021-07-31T09:33:46Z</time>
      </trkpt>
      <trkpt lat="42.28737" lon="2.36745">
        <ele>873.11</ele>
        <time>2021-07-31T09:33:50Z</time>
      </trkpt>
      <trkpt lat="42.28773" lon="2.36675">
        <ele>876.56</ele>
        <time>2021-07-31T09:33:59Z</time>
      </trkpt>
      <trkpt lat="42.28788" lon="2.36646">
        <ele>877.54</ele>
        <time>2021-07-31T09:34:04Z</time>
      </trkpt>
      <trkpt lat="42.28832" lon="2.36568">
        <ele>879.58</ele>
        <time>2021-07-31T09:34:16Z</time>
      </trkpt>
      <trkpt lat="42.28873" lon="2.36494">
        <ele>881.76</ele>
        <time>2021-07-31T09:34:29Z</time>
      </trkpt>
      <trkpt lat="42.28899" lon="2.36454">
        <ele>882.54</ele>
        <time>2021-07-31T09:34:39Z</time>
      </trkpt>
      <trkpt lat="42.28907" lon="2.36439">
        <ele>882.8</ele>
        <time>2021-07-31T09:34:50Z</time>
      </trkpt>
      <trkpt lat="42.28926" lon="2.36415">
        <ele>883.34</ele>
        <time>2021-07-31T09:35:23Z</time>
      </trkpt>
      <trkpt lat="42.28965" lon="2.36368">
        <ele>883.73</ele>
        <time>2021-07-31T09:35:35Z</time>
      </trkpt>
      <trkpt lat="42.2903" lon="2.36322">
        <ele>884.17</ele>
        <time>2021-07-31T09:35:48Z</time>
      </trkpt>
      <trkpt lat="42.29097" lon="2.36286">
        <ele>885.11</ele>
        <time>2021-07-31T09:35:58Z</time>
      </trkpt>
      <trkpt lat="42.29187" lon="2.36234">
        <ele>886.78</ele>
        <time>2021-07-31T09:36:09Z</time>
      </trkpt>
      <trkpt lat="42.29227" lon="2.36224">
        <ele>887.79</ele>
        <time>2021-07-31T09:36:14Z</time>
      </trkpt>
      <trkpt lat="42.29261" lon="2.3622">
        <ele>888.58</ele>
        <time>2021-07-31T09:36:20Z</time>
      </trkpt>
      <trkpt lat="42.29281" lon="2.36208">
        <ele>888.87</ele>
        <time>2021-07-31T09:36:23Z</time>
      </trkpt>
      <trkpt lat="42.29298" lon="2.36199">
        <ele>889.32</ele>
        <time>2021-07-31T09:36:26Z</time>
      </trkpt>
      <trkpt lat="42.29343" lon="2.36163">
        <ele>891.25</ele>
        <time>2021-07-31T09:36:36Z</time>
      </trkpt>
      <trkpt lat="42.29375" lon="2.36135">
        <ele>890.67</ele>
        <time>2021-07-31T09:36:48Z</time>
      </trkpt>
      <trkpt lat="42.2938" lon="2.3613">
        <ele>890.65</ele>
        <time>2021-07-31T09:36:50Z</time>
      </trkpt>
      <trkpt lat="42.29422" lon="2.36093">
        <ele>890.84</ele>
        <time>2021-07-31T09:36:58Z</time>
      </trkpt>
      <trkpt lat="42.29451" lon="2.36072">
        <ele>891.51</ele>
        <time>2021-07-31T09:37:05Z</time>
      </trkpt>
      <trkpt lat="42.29515" lon="2.36027">
        <ele>892.47</ele>
        <time>2021-07-31T09:37:14Z</time>
      </trkpt>
      <trkpt lat="42.29603" lon="2.36014">
        <ele>895.52</ele>
        <time>2021-07-31T09:37:23Z</time>
      </trkpt>
      <trkpt lat="42.29695" lon="2.36013">
        <ele>896.81</ele>
        <time>2021-07-31T09:37:35Z</time>
      </trkpt>
      <trkpt lat="42.29752" lon="2.36013">
        <ele>895.23</ele>
        <time>2021-07-31T09:37:46Z</time>
      </trkpt>
      <trkpt lat="42.29813" lon="2.36">
        <ele>895.53</ele>
        <time>2021-07-31T09:37:58Z</time>
      </trkpt>
      <trkpt lat="42.29825" lon="2.36006">
        <ele>895.19</ele>
        <time>2021-07-31T09:38:04Z</time>
      </trkpt>
      <trkpt lat="42.29835" lon="2.35996">
        <ele>894.93</ele>
        <time>2021-07-31T09:38:08Z</time>
      </trkpt>
      <trkpt lat="42.29841" lon="2.35987">
        <ele>894.81</ele>
        <time>2021-07-31T09:38:11Z</time>
      </trkpt>
      <trkpt lat="42.29895" lon="2.35948">
        <ele>896.05</ele>
        <time>2021-07-31T09:38:23Z</time>
      </trkpt>
      <trkpt lat="42.29935" lon="2.35925">
        <ele>897.03</ele>
        <time>2021-07-31T09:38:30Z</time>
      </trkpt>
      <trkpt lat="42.3001" lon="2.35863">
        <ele>899.75</ele>
        <time>2021-07-31T09:38:43Z</time>
      </trkpt>
      <trkpt lat="42.30043" lon="2.35836">
        <ele>900.83</ele>
        <time>2021-07-31T09:38:50Z</time>
      </trkpt>
      <trkpt lat="42.30078" lon="2.35799">
        <ele>902.63</ele>
        <time>2021-07-31T09:38:57Z</time>
      </trkpt>
      <trkpt lat="42.30098" lon="2.35787">
        <ele>903.41</ele>
        <time>2021-07-31T09:39:00Z</time>
      </trkpt>
      <trkpt lat="42.30111" lon="2.35784">
        <ele>903.88</ele>
        <time>2021-07-31T09:39:02Z</time>
      </trkpt>
      <trkpt lat="42.30137" lon="2.3579">
        <ele>905.29</ele>
        <time>2021-07-31T09:39:06Z</time>
      </trkpt>
      <trkpt lat="42.30155" lon="2.35805">
        <ele>906.6</ele>
        <time>2021-07-31T09:39:09Z</time>
      </trkpt>
      <trkpt lat="42.3018" lon="2.35846">
        <ele>907.98</ele>
        <time>2021-07-31T09:39:14Z</time>
      </trkpt>
      <trkpt lat="42.30202" lon="2.35846">
        <ele>908.71</ele>
        <time>2021-07-31T09:39:21Z</time>
      </trkpt>
      <trkpt lat="42.30205" lon="2.35845">
        <ele>908.36</ele>
        <time>2021-07-31T09:39:31Z</time>
      </trkpt>
      <trkpt lat="42.30225" lon="2.35856">
        <ele>908.37</ele>
        <time>2021-07-31T09:39:35Z</time>
      </trkpt>
      <trkpt lat="42.30344" lon="2.35902">
        <ele>909.68</ele>
        <time>2021-07-31T09:39:44Z</time>
      </trkpt>
      <trkpt lat="42.30508" lon="2.35957">
        <ele>912.72</ele>
        <time>2021-07-31T09:39:53Z</time>
      </trkpt>
      <trkpt lat="42.3062" lon="2.36048">
        <ele>913.82</ele>
        <time>2021-07-31T09:40:01Z</time>
      </trkpt>
      <trkpt lat="42.30695" lon="2.3611">
        <ele>913.95</ele>
        <time>2021-07-31T09:40:08Z</time>
      </trkpt>
      <trkpt lat="42.30728" lon="2.36151">
        <ele>913.8</ele>
        <time>2021-07-31T09:40:13Z</time>
      </trkpt>
      <trkpt lat="42.30756" lon="2.36169">
        <ele>914.09</ele>
        <time>2021-07-31T09:40:17Z</time>
      </trkpt>
      <trkpt lat="42.3077" lon="2.36205">
        <ele>914.69</ele>
        <time>2021-07-31T09:40:21Z</time>
      </trkpt>
      <trkpt lat="42.30798" lon="2.36216">
        <ele>915.83</ele>
        <time>2021-07-31T09:40:27Z</time>
      </trkpt>
      <trkpt lat="42.30799" lon="2.36213">
        <ele>915.89</ele>
        <time>2021-07-31T09:40:28Z</time>
      </trkpt>
      <trkpt lat="42.308" lon="2.36208">
        <ele>915.89</ele>
        <time>2021-07-31T09:40:29Z</time>
      </trkpt>
      <trkpt lat="42.30801" lon="2.36203">
        <ele>915.88</ele>
        <time>2021-07-31T09:40:30Z</time>
      </trkpt>
      <trkpt lat="42.308" lon="2.36197">
        <ele>915.86</ele>
        <time>2021-07-31T09:40:31Z</time>
      </trkpt>
      <trkpt lat="42.308" lon="2.36191">
        <ele>915.85</ele>
        <time>2021-07-31T09:40:32Z</time>
      </trkpt>
      <trkpt lat="42.308" lon="2.36184">
        <ele>915.82</ele>
        <time>2021-07-31T09:40:33Z</time>
      </trkpt>
      <trkpt lat="42.308" lon="2.36176">
        <ele>915.78</ele>
        <time>2021-07-31T09:40:34Z</time>
      </trkpt>
      <trkpt lat="42.30801" lon="2.36168">
        <ele>915.74</ele>
        <time>2021-07-31T09:40:35Z</time>
      </trkpt>
      <trkpt lat="42.30804" lon="2.3616">
        <ele>915.71</ele>
        <time>2021-07-31T09:40:36Z</time>
      </trkpt>
      <trkpt lat="42.30808" lon="2.36151">
        <ele>915.7</ele>
        <time>2021-07-31T09:40:37Z</time>
      </trkpt>
      <trkpt lat="42.30813" lon="2.36142">
        <ele>915.7</ele>
        <time>2021-07-31T09:40:38Z</time>
      </trkpt>
      <trkpt lat="42.30818" lon="2.36133">
        <ele>915.7</ele>
        <time>2021-07-31T09:40:39Z</time>
      </trkpt>
      <trkpt lat="42.30825" lon="2.36126">
        <ele>915.75</ele>
        <time>2021-07-31T09:40:40Z</time>
      </trkpt>
      <trkpt lat="42.30832" lon="2.36121">
        <ele>915.87</ele>
        <time>2021-07-31T09:40:41Z</time>
      </trkpt>
      <trkpt lat="42.30839" lon="2.36116">
        <ele>916.01</ele>
        <time>2021-07-31T09:40:42Z</time>
      </trkpt>
      <trkpt lat="42.30848" lon="2.36111">
        <ele>916.22</ele>
        <time>2021-07-31T09:40:43Z</time>
      </trkpt>
      <trkpt lat="42.30876" lon="2.36098">
        <ele>917.76</ele>
        <time>2021-07-31T09:40:46Z</time>
      </trkpt>
      <trkpt lat="42.30964" lon="2.36113">
        <ele>921.3</ele>
        <time>2021-07-31T09:40:53Z</time>
      </trkpt>
      <trkpt lat="42.31006" lon="2.36165">
        <ele>922.74</ele>
        <time>2021-07-31T09:40:57Z</time>
      </trkpt>
      <trkpt lat="42.31043" lon="2.36225">
        <ele>923.29</ele>
        <time>2021-07-31T09:41:01Z</time>
      </trkpt>
      <trkpt lat="42.31133" lon="2.3628">
        <ele>924.09</ele>
        <time>2021-07-31T09:41:08Z</time>
      </trkpt>
      <trkpt lat="42.31149" lon="2.36282">
        <ele>924.4</ele>
        <time>2021-07-31T09:41:09Z</time>
      </trkpt>
      <trkpt lat="42.31255" lon="2.36288">
        <ele>928.04</ele>
        <time>2021-07-31T09:41:16Z</time>
      </trkpt>
      <trkpt lat="42.31285" lon="2.3629">
        <ele>929.07</ele>
        <time>2021-07-31T09:41:18Z</time>
      </trkpt>
      <trkpt lat="42.31295" lon="2.36221">
        <ele>929.62</ele>
        <time>2021-07-31T09:41:21Z</time>
      </trkpt>
      <trkpt lat="42.31329" lon="2.36224">
        <ele>929.93</ele>
        <time>2021-07-31T09:41:26Z</time>
      </trkpt>
      <trkpt lat="42.31346" lon="2.36231">
        <ele>929.89</ele>
        <time>2021-07-31T09:41:29Z</time>
      </trkpt>
      <trkpt lat="42.31383" lon="2.36218">
        <ele>929.99</ele>
        <time>2021-07-31T09:41:35Z</time>
      </trkpt>
      <trkpt lat="42.31433" lon="2.36213">
        <ele>930.33</ele>
        <time>2021-07-31T09:41:42Z</time>
      </trkpt>
      <trkpt lat="42.31439" lon="2.3621">
        <ele>930.34</ele>
        <time>2021-07-31T09:41:51Z</time>
      </trkpt>
      <trkpt lat="42.31491" lon="2.36208">
        <ele>930.54</ele>
        <time>2021-07-31T09:42:01Z</time>
      </trkpt>
      <trkpt lat="42.31554" lon="2.36201">
        <ele>931.7</ele>
        <time>2021-07-31T09:42:12Z</time>
      </trkpt>
      <trkpt lat="42.31566" lon="2.362">
        <ele>931.91</ele>
        <time>2021-07-31T09:42:14Z</time>
      </trkpt>
      <trkpt lat="42.31589" lon="2.36181">
        <ele>932.56</ele>
        <time>2021-07-31T09:42:18Z</time>
      </trkpt>
      <trkpt lat="42.3167" lon="2.3607">
        <ele>935.84</ele>
        <time>2021-07-31T09:42:29Z</time>
      </trkpt>
      <trkpt lat="42.31691" lon="2.3604">
        <ele>937.23</ele>
        <time>2021-07-31T09:42:32Z</time>
      </trkpt>
      <trkpt lat="42.31728" lon="2.35923">
        <ele>941.05</ele>
        <time>2021-07-31T09:42:40Z</time>
      </trkpt>
      <trkpt lat="42.31751" lon="2.35854">
        <ele>942.57</ele>
        <time>2021-07-31T09:42:45Z</time>
      </trkpt>
      <trkpt lat="42.31754" lon="2.35713">
        <ele>945.59</ele>
        <time>2021-07-31T09:42:55Z</time>
      </trkpt>
      <trkpt lat="42.31777" lon="2.35556">
        <ele>947.52</ele>
        <time>2021-07-31T09:43:06Z</time>
      </trkpt>
      <trkpt lat="42.31778" lon="2.35525">
        <ele>946.91</ele>
        <time>2021-07-31T09:43:12Z</time>
      </trkpt>
      <trkpt lat="42.31788" lon="2.35453">
        <ele>946.78</ele>
        <time>2021-07-31T09:43:21Z</time>
      </trkpt>
      <trkpt lat="42.31803" lon="2.35351">
        <ele>947.45</ele>
        <time>2021-07-31T09:43:28Z</time>
      </trkpt>
      <trkpt lat="42.31849" lon="2.35208">
        <ele>950.17</ele>
        <time>2021-07-31T09:43:36Z</time>
      </trkpt>
      <trkpt lat="42.31923" lon="2.35028">
        <ele>953.24</ele>
        <time>2021-07-31T09:43:47Z</time>
      </trkpt>
      <trkpt lat="42.31934" lon="2.34996">
        <ele>953.75</ele>
        <time>2021-07-31T09:43:49Z</time>
      </trkpt>
      <trkpt lat="42.31938" lon="2.34979">
        <ele>953.98</ele>
        <time>2021-07-31T09:43:50Z</time>
      </trkpt>
      <trkpt lat="42.31975" lon="2.34822">
        <ele>956.88</ele>
        <time>2021-07-31T09:44:00Z</time>
      </trkpt>
      <trkpt lat="42.3202" lon="2.34712">
        <ele>959.98</ele>
        <time>2021-07-31T09:44:07Z</time>
      </trkpt>
      <trkpt lat="42.32088" lon="2.34586">
        <ele>962.87</ele>
        <time>2021-07-31T09:44:17Z</time>
      </trkpt>
      <trkpt lat="42.32087" lon="2.34542">
        <ele>963.66</ele>
        <time>2021-07-31T09:44:22Z</time>
      </trkpt>
      <trkpt lat="42.32075" lon="2.34503">
        <ele>964.04</ele>
        <time>2021-07-31T09:44:27Z</time>
      </trkpt>
      <trkpt lat="42.32052" lon="2.34463">
        <ele>964.66</ele>
        <time>2021-07-31T09:44:33Z</time>
      </trkpt>
      <trkpt lat="42.32033" lon="2.34439">
        <ele>964.87</ele>
        <time>2021-07-31T09:44:37Z</time>
      </trkpt>
      <trkpt lat="42.32033" lon="2.34396">
        <ele>965.46</ele>
        <time>2021-07-31T09:44:43Z</time>
      </trkpt>
      <trkpt lat="42.32036" lon="2.34364">
        <ele>966.2</ele>
        <time>2021-07-31T09:44:48Z</time>
      </trkpt>
      <trkpt lat="42.32026" lon="2.34306">
        <ele>968.81</ele>
        <time>2021-07-31T09:44:57Z</time>
      </trkpt>
      <trkpt lat="42.32013" lon="2.34237">
        <ele>970.72</ele>
        <time>2021-07-31T09:45:03Z</time>
      </trkpt>
      <trkpt lat="42.32035" lon="2.34165">
        <ele>972.71</ele>
        <time>2021-07-31T09:45:10Z</time>
      </trkpt>
      <trkpt lat="42.32046" lon="2.34136">
        <ele>973.49</ele>
        <time>2021-07-31T09:45:13Z</time>
      </trkpt>
      <trkpt lat="42.32071" lon="2.33996">
        <ele>975.68</ele>
        <time>2021-07-31T09:45:23Z</time>
      </trkpt>
      <trkpt lat="42.32119" lon="2.33915">
        <ele>977.36</ele>
        <time>2021-07-31T09:45:29Z</time>
      </trkpt>
      <trkpt lat="42.32176" lon="2.33856">
        <ele>979.78</ele>
        <time>2021-07-31T09:45:35Z</time>
      </trkpt>
      <trkpt lat="42.32199" lon="2.33806">
        <ele>980.72</ele>
        <time>2021-07-31T09:45:39Z</time>
      </trkpt>
      <trkpt lat="42.32245" lon="2.33734">
        <ele>981.65</ele>
        <time>2021-07-31T09:45:45Z</time>
      </trkpt>
      <trkpt lat="42.32285" lon="2.33612">
        <ele>983.36</ele>
        <time>2021-07-31T09:45:54Z</time>
      </trkpt>
      <trkpt lat="42.32323" lon="2.33471">
        <ele>985.75</ele>
        <time>2021-07-31T09:46:02Z</time>
      </trkpt>
      <trkpt lat="42.32409" lon="2.33315">
        <ele>989.04</ele>
        <time>2021-07-31T09:46:11Z</time>
      </trkpt>
      <trkpt lat="42.32437" lon="2.33259">
        <ele>990.43</ele>
        <time>2021-07-31T09:46:14Z</time>
      </trkpt>
      <trkpt lat="42.32449" lon="2.33194">
        <ele>991.68</ele>
        <time>2021-07-31T09:46:17Z</time>
      </trkpt>
      <trkpt lat="42.32448" lon="2.33171">
        <ele>991.91</ele>
        <time>2021-07-31T09:46:18Z</time>
      </trkpt>
      <trkpt lat="42.32462" lon="2.33068">
        <ele>993.2</ele>
        <time>2021-07-31T09:46:23Z</time>
      </trkpt>
      <trkpt lat="42.32489" lon="2.3302">
        <ele>994.05</ele>
        <time>2021-07-31T09:46:26Z</time>
      </trkpt>
      <trkpt lat="42.32547" lon="2.32866">
        <ele>996.21</ele>
        <time>2021-07-31T09:46:34Z</time>
      </trkpt>
      <trkpt lat="42.32554" lon="2.3285">
        <ele>996.48</ele>
        <time>2021-07-31T09:46:35Z</time>
      </trkpt>
      <trkpt lat="42.32565" lon="2.32766">
        <ele>997.65</ele>
        <time>2021-07-31T09:46:40Z</time>
      </trkpt>
      <trkpt lat="42.32562" lon="2.32715">
        <ele>998.43</ele>
        <time>2021-07-31T09:46:43Z</time>
      </trkpt>
      <trkpt lat="42.32588" lon="2.32554">
        <ele>1000.5</ele>
        <time>2021-07-31T09:46:52Z</time>
      </trkpt>
      <trkpt lat="42.32626" lon="2.32347">
        <ele>1003.76</ele>
        <time>2021-07-31T09:47:02Z</time>
      </trkpt>
      <trkpt lat="42.32652" lon="2.32201">
        <ele>1006.89</ele>
        <time>2021-07-31T09:47:09Z</time>
      </trkpt>
      <trkpt lat="42.32676" lon="2.32084">
        <ele>1010.01</ele>
        <time>2021-07-31T09:47:15Z</time>
      </trkpt>
      <trkpt lat="42.32712" lon="2.31977">
        <ele>1013.17</ele>
        <time>2021-07-31T09:47:21Z</time>
      </trkpt>
      <trkpt lat="42.32761" lon="2.31837">
        <ele>1015.75</ele>
        <time>2021-07-31T09:47:29Z</time>
      </trkpt>
      <trkpt lat="42.32852" lon="2.31659">
        <ele>1018.79</ele>
        <time>2021-07-31T09:47:40Z</time>
      </trkpt>
      <trkpt lat="42.32865" lon="2.31586">
        <ele>1020.8</ele>
        <time>2021-07-31T09:47:44Z</time>
      </trkpt>
      <trkpt lat="42.32893" lon="2.31439">
        <ele>1024.51</ele>
        <time>2021-07-31T09:47:52Z</time>
      </trkpt>
      <trkpt lat="42.32932" lon="2.31314">
        <ele>1027.17</ele>
        <time>2021-07-31T09:48:00Z</time>
      </trkpt>
      <trkpt lat="42.32958" lon="2.31216">
        <ele>1029.52</ele>
        <time>2021-07-31T09:48:09Z</time>
      </trkpt>
      <trkpt lat="42.32989" lon="2.31138">
        <ele>1030.74</ele>
        <time>2021-07-31T09:48:17Z</time>
      </trkpt>
      <trkpt lat="42.33034" lon="2.31102">
        <ele>1031.65</ele>
        <time>2021-07-31T09:48:22Z</time>
      </trkpt>
      <trkpt lat="42.33092" lon="2.31084">
        <ele>1034.83</ele>
        <time>2021-07-31T09:48:30Z</time>
      </trkpt>
      <trkpt lat="42.33103" lon="2.31077">
        <ele>1035.98</ele>
        <time>2021-07-31T09:48:33Z</time>
      </trkpt>
      <trkpt lat="42.33158" lon="2.31004">
        <ele>1039.42</ele>
        <time>2021-07-31T09:48:45Z</time>
      </trkpt>
      <trkpt lat="42.33223" lon="2.30917">
        <ele>1042.76</ele>
        <time>2021-07-31T09:48:55Z</time>
      </trkpt>
      <trkpt lat="42.33307" lon="2.30835">
        <ele>1045.36</ele>
        <time>2021-07-31T09:49:03Z</time>
      </trkpt>
      <trkpt lat="42.33343" lon="2.30791">
        <ele>1047.27</ele>
        <time>2021-07-31T09:49:07Z</time>
      </trkpt>
      <trkpt lat="42.33359" lon="2.30773">
        <ele>1047.94</ele>
        <time>2021-07-31T09:49:09Z</time>
      </trkpt>
      <trkpt lat="42.33406" lon="2.30731">
        <ele>1048.8</ele>
        <time>2021-07-31T09:49:17Z</time>
      </trkpt>
      <trkpt lat="42.33486" lon="2.30659">
        <ele>1051.16</ele>
        <time>2021-07-31T09:49:26Z</time>
      </trkpt>
      <trkpt lat="42.33564" lon="2.30591">
        <ele>1054.17</ele>
        <time>2021-07-31T09:49:35Z</time>
      </trkpt>
      <trkpt lat="42.33657" lon="2.30544">
        <ele>1057.49</ele>
        <time>2021-07-31T09:49:43Z</time>
      </trkpt>
      <trkpt lat="42.33724" lon="2.30491">
        <ele>1061.03</ele>
        <time>2021-07-31T09:49:48Z</time>
      </trkpt>
      <trkpt lat="42.33738" lon="2.30482">
        <ele>1061.62</ele>
        <time>2021-07-31T09:49:49Z</time>
      </trkpt>
      <trkpt lat="42.33819" lon="2.30473">
        <ele>1063.77</ele>
        <time>2021-07-31T09:49:55Z</time>
      </trkpt>
      <trkpt lat="42.33886" lon="2.3043">
        <ele>1065.99</ele>
        <time>2021-07-31T09:50:01Z</time>
      </trkpt>
      <trkpt lat="42.33904" lon="2.30402">
        <ele>1066.85</ele>
        <time>2021-07-31T09:50:03Z</time>
      </trkpt>
      <trkpt lat="42.33988" lon="2.30347">
        <ele>1069.12</ele>
        <time>2021-07-31T09:50:10Z</time>
      </trkpt>
      <trkpt lat="42.33998" lon="2.3034">
        <ele>1069.39</ele>
        <time>2021-07-31T09:50:11Z</time>
      </trkpt>
      <trkpt lat="42.34037" lon="2.30244">
        <ele>1071.66</ele>
        <time>2021-07-31T09:50:18Z</time>
      </trkpt>
      <trkpt lat="42.34093" lon="2.3011">
        <ele>1074.5</ele>
        <time>2021-07-31T09:50:26Z</time>
      </trkpt>
      <trkpt lat="42.34171" lon="2.3001">
        <ele>1077</ele>
        <time>2021-07-31T09:50:33Z</time>
      </trkpt>
      <trkpt lat="42.34214" lon="2.29912">
        <ele>1079.41</ele>
        <time>2021-07-31T09:50:39Z</time>
      </trkpt>
      <trkpt lat="42.34229" lon="2.29852">
        <ele>1081.16</ele>
        <time>2021-07-31T09:50:43Z</time>
      </trkpt>
      <trkpt lat="42.34235" lon="2.29836">
        <ele>1081.83</ele>
        <time>2021-07-31T09:50:45Z</time>
      </trkpt>
      <trkpt lat="42.34219" lon="2.298">
        <ele>1084.02</ele>
        <time>2021-07-31T09:50:51Z</time>
      </trkpt>
      <trkpt lat="42.34215" lon="2.2979">
        <ele>1084.28</ele>
        <time>2021-07-31T09:50:52Z</time>
      </trkpt>
      <trkpt lat="42.34194" lon="2.29744">
        <ele>1085.42</ele>
        <time>2021-07-31T09:50:56Z</time>
      </trkpt>
      <trkpt lat="42.34177" lon="2.29723">
        <ele>1086.05</ele>
        <time>2021-07-31T09:50:58Z</time>
      </trkpt>
      <trkpt lat="42.34156" lon="2.29698">
        <ele>1086.61</ele>
        <time>2021-07-31T09:51:00Z</time>
      </trkpt>
      <trkpt lat="42.34125" lon="2.29604">
        <ele>1088.39</ele>
        <time>2021-07-31T09:51:05Z</time>
      </trkpt>
      <trkpt lat="42.34116" lon="2.29564">
        <ele>1089.56</ele>
        <time>2021-07-31T09:51:07Z</time>
      </trkpt>
      <trkpt lat="42.34064" lon="2.29445">
        <ele>1093.5</ele>
        <time>2021-07-31T09:51:13Z</time>
      </trkpt>
      <trkpt lat="42.34034" lon="2.29361">
        <ele>1096.96</ele>
        <time>2021-07-31T09:51:17Z</time>
      </trkpt>
      <trkpt lat="42.34008" lon="2.29272">
        <ele>1100.91</ele>
        <time>2021-07-31T09:51:21Z</time>
      </trkpt>
      <trkpt lat="42.34" lon="2.29252">
        <ele>1101.97</ele>
        <time>2021-07-31T09:51:22Z</time>
      </trkpt>
      <trkpt lat="42.3395" lon="2.29158">
        <ele>1106.59</ele>
        <time>2021-07-31T09:51:27Z</time>
      </trkpt>
      <trkpt lat="42.33922" lon="2.29111">
        <ele>1109.26</ele>
        <time>2021-07-31T09:51:30Z</time>
      </trkpt>
      <trkpt lat="42.33861" lon="2.29045">
        <ele>1114.15</ele>
        <time>2021-07-31T09:51:35Z</time>
      </trkpt>
      <trkpt lat="42.33826" lon="2.29009">
        <ele>1117.34</ele>
        <time>2021-07-31T09:51:38Z</time>
      </trkpt>
      <trkpt lat="42.33788" lon="2.28956">
        <ele>1121.53</ele>
        <time>2021-07-31T09:51:42Z</time>
      </trkpt>
      <trkpt lat="42.33744" lon="2.28912">
        <ele>1125.93</ele>
        <time>2021-07-31T09:51:46Z</time>
      </trkpt>
      <trkpt lat="42.33718" lon="2.28885">
        <ele>1129</ele>
        <time>2021-07-31T09:51:49Z</time>
      </trkpt>
      <trkpt lat="42.33722" lon="2.28845">
        <ele>1132.68</ele>
        <time>2021-07-31T09:51:54Z</time>
      </trkpt>
      <trkpt lat="42.33749" lon="2.28872">
        <ele>1135.14</ele>
        <time>2021-07-31T09:51:58Z</time>
      </trkpt>
      <trkpt lat="42.33769" lon="2.28906">
        <ele>1137.32</ele>
        <time>2021-07-31T09:52:01Z</time>
      </trkpt>
      <trkpt lat="42.33821" lon="2.28946">
        <ele>1141.18</ele>
        <time>2021-07-31T09:52:06Z</time>
      </trkpt>
      <trkpt lat="42.33853" lon="2.28973">
        <ele>1144.55</ele>
        <time>2021-07-31T09:52:10Z</time>
      </trkpt>
      <trkpt lat="42.33906" lon="2.28974">
        <ele>1148.44</ele>
        <time>2021-07-31T09:52:16Z</time>
      </trkpt>
      <trkpt lat="42.33943" lon="2.28978">
        <ele>1151.51</ele>
        <time>2021-07-31T09:52:21Z</time>
      </trkpt>
      <trkpt lat="42.33963" lon="2.29021">
        <ele>1154.56</ele>
        <time>2021-07-31T09:52:26Z</time>
      </trkpt>
      <trkpt lat="42.33968" lon="2.29023">
        <ele>1154.84</ele>
        <time>2021-07-31T09:52:27Z</time>
      </trkpt>
      <trkpt lat="42.33982" lon="2.29023">
        <ele>1155.56</ele>
        <time>2021-07-31T09:52:30Z</time>
      </trkpt>
      <trkpt lat="42.34004" lon="2.29049">
        <ele>1156.63</ele>
        <time>2021-07-31T09:52:36Z</time>
      </trkpt>
      <trkpt lat="42.34025" lon="2.2912">
        <ele>1157.92</ele>
        <time>2021-07-31T09:52:42Z</time>
      </trkpt>
      <trkpt lat="42.34057" lon="2.2917">
        <ele>1159.74</ele>
        <time>2021-07-31T09:52:47Z</time>
      </trkpt>
      <trkpt lat="42.34119" lon="2.29166">
        <ele>1163.1</ele>
        <time>2021-07-31T09:52:54Z</time>
      </trkpt>
      <trkpt lat="42.34163" lon="2.29199">
        <ele>1167.5</ele>
        <time>2021-07-31T09:53:01Z</time>
      </trkpt>
      <trkpt lat="42.34157" lon="2.29228">
        <ele>1168.8</ele>
        <time>2021-07-31T09:53:03Z</time>
      </trkpt>
      <trkpt lat="42.34182" lon="2.29327">
        <ele>1172.61</ele>
        <time>2021-07-31T09:53:10Z</time>
      </trkpt>
      <trkpt lat="42.34215" lon="2.29397">
        <ele>1176.36</ele>
        <time>2021-07-31T09:53:15Z</time>
      </trkpt>
      <trkpt lat="42.34233" lon="2.29436">
        <ele>1179.67</ele>
        <time>2021-07-31T09:53:19Z</time>
      </trkpt>
      <trkpt lat="42.34242" lon="2.29436">
        <ele>1183.95</ele>
        <time>2021-07-31T09:53:25Z</time>
      </trkpt>
      <trkpt lat="42.34221" lon="2.29405">
        <ele>1185.88</ele>
        <time>2021-07-31T09:53:28Z</time>
      </trkpt>
      <trkpt lat="42.342" lon="2.29326">
        <ele>1188.92</ele>
        <time>2021-07-31T09:53:33Z</time>
      </trkpt>
      <trkpt lat="42.34188" lon="2.29258">
        <ele>1192.21</ele>
        <time>2021-07-31T09:53:37Z</time>
      </trkpt>
      <trkpt lat="42.34197" lon="2.29212">
        <ele>1195.22</ele>
        <time>2021-07-31T09:53:41Z</time>
      </trkpt>
      <trkpt lat="42.34203" lon="2.29163">
        <ele>1198.67</ele>
        <time>2021-07-31T09:53:46Z</time>
      </trkpt>
      <trkpt lat="42.34197" lon="2.29141">
        <ele>1200.06</ele>
        <time>2021-07-31T09:53:48Z</time>
      </trkpt>
      <trkpt lat="42.34195" lon="2.29093">
        <ele>1202.32</ele>
        <time>2021-07-31T09:53:52Z</time>
      </trkpt>
      <trkpt lat="42.34155" lon="2.29078">
        <ele>1206.04</ele>
        <time>2021-07-31T09:53:58Z</time>
      </trkpt>
      <trkpt lat="42.34123" lon="2.29087">
        <ele>1207.63</ele>
        <time>2021-07-31T09:54:01Z</time>
      </trkpt>
      <trkpt lat="42.34086" lon="2.29041">
        <ele>1211.3</ele>
        <time>2021-07-31T09:54:07Z</time>
      </trkpt>
      <trkpt lat="42.34085" lon="2.29029">
        <ele>1211.73</ele>
        <time>2021-07-31T09:54:08Z</time>
      </trkpt>
      <trkpt lat="42.34082" lon="2.28994">
        <ele>1214.92</ele>
        <time>2021-07-31T09:54:15Z</time>
      </trkpt>
      <trkpt lat="42.34081" lon="2.28979">
        <ele>1216.84</ele>
        <time>2021-07-31T09:54:25Z</time>
      </trkpt>
      <trkpt lat="42.3408" lon="2.28974">
        <ele>1217</ele>
        <time>2021-07-31T09:54:26Z</time>
      </trkpt>
      <trkpt lat="42.34081" lon="2.28952">
        <ele>1217.5</ele>
        <time>2021-07-31T09:54:29Z</time>
      </trkpt>
      <trkpt lat="42.34085" lon="2.28925">
        <ele>1218.02</ele>
        <time>2021-07-31T09:54:32Z</time>
      </trkpt>
      <trkpt lat="42.3407" lon="2.28887">
        <ele>1219.74</ele>
        <time>2021-07-31T09:54:37Z</time>
      </trkpt>
      <trkpt lat="42.34059" lon="2.2887">
        <ele>1220.46</ele>
        <time>2021-07-31T09:54:39Z</time>
      </trkpt>
      <trkpt lat="42.34045" lon="2.28767">
        <ele>1223.87</ele>
        <time>2021-07-31T09:54:47Z</time>
      </trkpt>
      <trkpt lat="42.34007" lon="2.28714">
        <ele>1227.37</ele>
        <time>2021-07-31T09:54:52Z</time>
      </trkpt>
      <trkpt lat="42.33983" lon="2.28715">
        <ele>1229.73</ele>
        <time>2021-07-31T09:54:55Z</time>
      </trkpt>
      <trkpt lat="42.33945" lon="2.28693">
        <ele>1234.09</ele>
        <time>2021-07-31T09:55:01Z</time>
      </trkpt>
      <trkpt lat="42.33902" lon="2.28643">
        <ele>1238.17</ele>
        <time>2021-07-31T09:55:07Z</time>
      </trkpt>
      <trkpt lat="42.33882" lon="2.286">
        <ele>1241.15</ele>
        <time>2021-07-31T09:55:11Z</time>
      </trkpt>
      <trkpt lat="42.33869" lon="2.28522">
        <ele>1245.75</ele>
        <time>2021-07-31T09:55:16Z</time>
      </trkpt>
      <trkpt lat="42.33867" lon="2.28446">
        <ele>1249.91</ele>
        <time>2021-07-31T09:55:20Z</time>
      </trkpt>
      <trkpt lat="42.33863" lon="2.2839">
        <ele>1253.43</ele>
        <time>2021-07-31T09:55:23Z</time>
      </trkpt>
      <trkpt lat="42.33863" lon="2.28371">
        <ele>1254.53</ele>
        <time>2021-07-31T09:55:24Z</time>
      </trkpt>
      <trkpt lat="42.33875" lon="2.2831">
        <ele>1258.63</ele>
        <time>2021-07-31T09:55:28Z</time>
      </trkpt>
      <trkpt lat="42.33896" lon="2.28268">
        <ele>1261.4</ele>
        <time>2021-07-31T09:55:31Z</time>
      </trkpt>
      <trkpt lat="42.33938" lon="2.28219">
        <ele>1266.36</ele>
        <time>2021-07-31T09:55:36Z</time>
      </trkpt>
      <trkpt lat="42.33934" lon="2.28188">
        <ele>1269.08</ele>
        <time>2021-07-31T09:55:39Z</time>
      </trkpt>
      <trkpt lat="42.33942" lon="2.28124">
        <ele>1274.04</ele>
        <time>2021-07-31T09:55:45Z</time>
      </trkpt>
      <trkpt lat="42.33959" lon="2.2809">
        <ele>1277.81</ele>
        <time>2021-07-31T09:55:52Z</time>
      </trkpt>
      <trkpt lat="42.33971" lon="2.28052">
        <ele>1281.12</ele>
        <time>2021-07-31T09:56:00Z</time>
      </trkpt>
      <trkpt lat="42.33985" lon="2.27967">
        <ele>1284.2</ele>
        <time>2021-07-31T09:56:07Z</time>
      </trkpt>
      <trkpt lat="42.33989" lon="2.27918">
        <ele>1286.61</ele>
        <time>2021-07-31T09:56:11Z</time>
      </trkpt>
      <trkpt lat="42.33998" lon="2.27909">
        <ele>1287.84</ele>
        <time>2021-07-31T09:56:14Z</time>
      </trkpt>
      <trkpt lat="42.34001" lon="2.27941">
        <ele>1289.09</ele>
        <time>2021-07-31T09:56:18Z</time>
      </trkpt>
      <trkpt lat="42.33991" lon="2.28044">
        <ele>1292.63</ele>
        <time>2021-07-31T09:56:25Z</time>
      </trkpt>
      <trkpt lat="42.3399" lon="2.28059">
        <ele>1293.26</ele>
        <time>2021-07-31T09:56:26Z</time>
      </trkpt>
      <trkpt lat="42.33986" lon="2.28085">
        <ele>1294.35</ele>
        <time>2021-07-31T09:56:28Z</time>
      </trkpt>
      <trkpt lat="42.33993" lon="2.28156">
        <ele>1297.62</ele>
        <time>2021-07-31T09:56:34Z</time>
      </trkpt>
      <trkpt lat="42.34017" lon="2.28204">
        <ele>1299.61</ele>
        <time>2021-07-31T09:56:38Z</time>
      </trkpt>
      <trkpt lat="42.34025" lon="2.2824">
        <ele>1301.28</ele>
        <time>2021-07-31T09:56:41Z</time>
      </trkpt>
      <trkpt lat="42.34005" lon="2.28312">
        <ele>1305.38</ele>
        <time>2021-07-31T09:56:48Z</time>
      </trkpt>
      <trkpt lat="42.33998" lon="2.28321">
        <ele>1305.96</ele>
        <time>2021-07-31T09:56:49Z</time>
      </trkpt>
      <trkpt lat="42.33972" lon="2.28351">
        <ele>1308.03</ele>
        <time>2021-07-31T09:56:53Z</time>
      </trkpt>
      <trkpt lat="42.33975" lon="2.28411">
        <ele>1310.77</ele>
        <time>2021-07-31T09:56:59Z</time>
      </trkpt>
      <trkpt lat="42.3398" lon="2.28421">
        <ele>1311.26</ele>
        <time>2021-07-31T09:57:00Z</time>
      </trkpt>
      <trkpt lat="42.34036" lon="2.28501">
        <ele>1315.09</ele>
        <time>2021-07-31T09:57:09Z</time>
      </trkpt>
      <trkpt lat="42.34044" lon="2.2851">
        <ele>1315.54</ele>
        <time>2021-07-31T09:57:10Z</time>
      </trkpt>
      <trkpt lat="42.34103" lon="2.28552">
        <ele>1319.09</ele>
        <time>2021-07-31T09:57:16Z</time>
      </trkpt>
      <trkpt lat="42.34141" lon="2.28583">
        <ele>1322.12</ele>
        <time>2021-07-31T09:57:20Z</time>
      </trkpt>
      <trkpt lat="42.34166" lon="2.28607">
        <ele>1325.58</ele>
        <time>2021-07-31T09:57:23Z</time>
      </trkpt>
      <trkpt lat="42.34191" lon="2.2865">
        <ele>1329.73</ele>
        <time>2021-07-31T09:57:28Z</time>
      </trkpt>
      <trkpt lat="42.34192" lon="2.28656">
        <ele>1330.3</ele>
        <time>2021-07-31T09:57:29Z</time>
      </trkpt>
      <trkpt lat="42.34195" lon="2.28665">
        <ele>1331.04</ele>
        <time>2021-07-31T09:57:31Z</time>
      </trkpt>
      <trkpt lat="42.34207" lon="2.28686">
        <ele>1332.09</ele>
        <time>2021-07-31T09:57:35Z</time>
      </trkpt>
      <trkpt lat="42.34216" lon="2.2872">
        <ele>1333.08</ele>
        <time>2021-07-31T09:57:39Z</time>
      </trkpt>
      <trkpt lat="42.34245" lon="2.28771">
        <ele>1334.03</ele>
        <time>2021-07-31T09:57:45Z</time>
      </trkpt>
      <trkpt lat="42.34323" lon="2.28821">
        <ele>1336.2</ele>
        <time>2021-07-31T09:57:54Z</time>
      </trkpt>
      <trkpt lat="42.34347" lon="2.28845">
        <ele>1337.29</ele>
        <time>2021-07-31T09:57:58Z</time>
      </trkpt>
      <trkpt lat="42.34366" lon="2.28867">
        <ele>1338.38</ele>
        <time>2021-07-31T09:58:01Z</time>
      </trkpt>
      <trkpt lat="42.34414" lon="2.28968">
        <ele>1342.19</ele>
        <time>2021-07-31T09:58:10Z</time>
      </trkpt>
      <trkpt lat="42.34421" lon="2.28958">
        <ele>1345.35</ele>
        <time>2021-07-31T09:58:16Z</time>
      </trkpt>
      <trkpt lat="42.34416" lon="2.28941">
        <ele>1346.19</ele>
        <time>2021-07-31T09:58:18Z</time>
      </trkpt>
      <trkpt lat="42.34397" lon="2.28857">
        <ele>1349.74</ele>
        <time>2021-07-31T09:58:25Z</time>
      </trkpt>
      <trkpt lat="42.34385" lon="2.28805">
        <ele>1353.06</ele>
        <time>2021-07-31T09:58:32Z</time>
      </trkpt>
      <trkpt lat="42.3438" lon="2.28782">
        <ele>1356.33</ele>
        <time>2021-07-31T09:58:39Z</time>
      </trkpt>
      <trkpt lat="42.34379" lon="2.28783">
        <ele>1359.24</ele>
        <time>2021-07-31T09:58:57Z</time>
      </trkpt>
      <trkpt lat="42.3438" lon="2.2878">
        <ele>1359.56</ele>
        <time>2021-07-31T09:59:29Z</time>
      </trkpt>
      <trkpt lat="42.34391" lon="2.28778">
        <ele>1359.81</ele>
        <time>2021-07-31T09:59:33Z</time>
      </trkpt>
      <trkpt lat="42.34422" lon="2.28798">
        <ele>1362.01</ele>
        <time>2021-07-31T09:59:40Z</time>
      </trkpt>
      <trkpt lat="42.34449" lon="2.28845">
        <ele>1365.61</ele>
        <time>2021-07-31T09:59:47Z</time>
      </trkpt>
      <trkpt lat="42.34456" lon="2.28854">
        <ele>1366.82</ele>
        <time>2021-07-31T09:59:49Z</time>
      </trkpt>
      <trkpt lat="42.34481" lon="2.28875">
        <ele>1369.51</ele>
        <time>2021-07-31T09:59:54Z</time>
      </trkpt>
      <trkpt lat="42.34503" lon="2.28856">
        <ele>1373.48</ele>
        <time>2021-07-31T10:00:00Z</time>
      </trkpt>
      <trkpt lat="42.34496" lon="2.28838">
        <ele>1374.84</ele>
        <time>2021-07-31T10:00:02Z</time>
      </trkpt>
      <trkpt lat="42.34482" lon="2.28807">
        <ele>1376.96</ele>
        <time>2021-07-31T10:00:05Z</time>
      </trkpt>
      <trkpt lat="42.34464" lon="2.28742">
        <ele>1380.91</ele>
        <time>2021-07-31T10:00:10Z</time>
      </trkpt>
      <trkpt lat="42.34444" lon="2.2869">
        <ele>1384.34</ele>
        <time>2021-07-31T10:00:14Z</time>
      </trkpt>
      <trkpt lat="42.34425" lon="2.28637">
        <ele>1388.18</ele>
        <time>2021-07-31T10:00:18Z</time>
      </trkpt>
      <trkpt lat="42.34413" lon="2.28609">
        <ele>1391.25</ele>
        <time>2021-07-31T10:00:21Z</time>
      </trkpt>
      <trkpt lat="42.34408" lon="2.28602">
        <ele>1392.21</ele>
        <time>2021-07-31T10:00:22Z</time>
      </trkpt>
      <trkpt lat="42.34388" lon="2.28584">
        <ele>1396.02</ele>
        <time>2021-07-31T10:00:26Z</time>
      </trkpt>
      <trkpt lat="42.34374" lon="2.28579">
        <ele>1398.12</ele>
        <time>2021-07-31T10:00:29Z</time>
      </trkpt>
      <trkpt lat="42.34351" lon="2.28565">
        <ele>1400.86</ele>
        <time>2021-07-31T10:00:33Z</time>
      </trkpt>
      <trkpt lat="42.34314" lon="2.2851">
        <ele>1405.39</ele>
        <time>2021-07-31T10:00:39Z</time>
      </trkpt>
      <trkpt lat="42.34291" lon="2.28468">
        <ele>1410.25</ele>
        <time>2021-07-31T10:00:43Z</time>
      </trkpt>
      <trkpt lat="42.3427" lon="2.28424">
        <ele>1414.17</ele>
        <time>2021-07-31T10:00:47Z</time>
      </trkpt>
      <trkpt lat="42.34269" lon="2.28368">
        <ele>1418.2</ele>
        <time>2021-07-31T10:00:51Z</time>
      </trkpt>
      <trkpt lat="42.34275" lon="2.28339">
        <ele>1420.42</ele>
        <time>2021-07-31T10:00:53Z</time>
      </trkpt>
      <trkpt lat="42.3429" lon="2.28283">
        <ele>1424.9</ele>
        <time>2021-07-31T10:00:57Z</time>
      </trkpt>
      <trkpt lat="42.34294" lon="2.28271">
        <ele>1426.02</ele>
        <time>2021-07-31T10:00:58Z</time>
      </trkpt>
      <trkpt lat="42.34326" lon="2.28213">
        <ele>1431.03</ele>
        <time>2021-07-31T10:01:03Z</time>
      </trkpt>
      <trkpt lat="42.34347" lon="2.28176">
        <ele>1434.38</ele>
        <time>2021-07-31T10:01:06Z</time>
      </trkpt>
      <trkpt lat="42.34363" lon="2.28144">
        <ele>1437.45</ele>
        <time>2021-07-31T10:01:09Z</time>
      </trkpt>
      <trkpt lat="42.34383" lon="2.28095">
        <ele>1440.79</ele>
        <time>2021-07-31T10:01:13Z</time>
      </trkpt>
      <trkpt lat="42.34406" lon="2.28038">
        <ele>1444.68</ele>
        <time>2021-07-31T10:01:17Z</time>
      </trkpt>
      <trkpt lat="42.34418" lon="2.28011">
        <ele>1446.92</ele>
        <time>2021-07-31T10:01:19Z</time>
      </trkpt>
      <trkpt lat="42.34445" lon="2.28006">
        <ele>1451.64</ele>
        <time>2021-07-31T10:01:24Z</time>
      </trkpt>
      <trkpt lat="42.3444" lon="2.28049">
        <ele>1454.75</ele>
        <time>2021-07-31T10:01:28Z</time>
      </trkpt>
      <trkpt lat="42.3443" lon="2.2814">
        <ele>1460.12</ele>
        <time>2021-07-31T10:01:34Z</time>
      </trkpt>
      <trkpt lat="42.34428" lon="2.28193">
        <ele>1463.64</ele>
        <time>2021-07-31T10:01:37Z</time>
      </trkpt>
      <trkpt lat="42.34426" lon="2.28243">
        <ele>1467.66</ele>
        <time>2021-07-31T10:01:40Z</time>
      </trkpt>
      <trkpt lat="42.34425" lon="2.28256">
        <ele>1468.91</ele>
        <time>2021-07-31T10:01:41Z</time>
      </trkpt>
      <trkpt lat="42.34436" lon="2.28304">
        <ele>1473.15</ele>
        <time>2021-07-31T10:01:45Z</time>
      </trkpt>
      <trkpt lat="42.34453" lon="2.28321">
        <ele>1475.2</ele>
        <time>2021-07-31T10:01:47Z</time>
      </trkpt>
      <trkpt lat="42.34491" lon="2.28356">
        <ele>1478.92</ele>
        <time>2021-07-31T10:01:51Z</time>
      </trkpt>
      <trkpt lat="42.34528" lon="2.28367">
        <ele>1483.27</ele>
        <time>2021-07-31T10:01:55Z</time>
      </trkpt>
      <trkpt lat="42.34548" lon="2.28356">
        <ele>1485.27</ele>
        <time>2021-07-31T10:01:57Z</time>
      </trkpt>
      <trkpt lat="42.34589" lon="2.2833">
        <ele>1489.31</ele>
        <time>2021-07-31T10:02:01Z</time>
      </trkpt>
      <trkpt lat="42.34616" lon="2.28314">
        <ele>1492.38</ele>
        <time>2021-07-31T10:02:04Z</time>
      </trkpt>
      <trkpt lat="42.34653" lon="2.28291">
        <ele>1495.89</ele>
        <time>2021-07-31T10:02:08Z</time>
      </trkpt>
      <trkpt lat="42.34679" lon="2.2827">
        <ele>1498.93</ele>
        <time>2021-07-31T10:02:11Z</time>
      </trkpt>
      <trkpt lat="42.34713" lon="2.28236">
        <ele>1502.49</ele>
        <time>2021-07-31T10:02:15Z</time>
      </trkpt>
      <trkpt lat="42.34739" lon="2.2821">
        <ele>1505.49</ele>
        <time>2021-07-31T10:02:18Z</time>
      </trkpt>
      <trkpt lat="42.34771" lon="2.28178">
        <ele>1509.21</ele>
        <time>2021-07-31T10:02:22Z</time>
      </trkpt>
      <trkpt lat="42.34795" lon="2.28153">
        <ele>1513.09</ele>
        <time>2021-07-31T10:02:25Z</time>
      </trkpt>
      <trkpt lat="42.3482" lon="2.28124">
        <ele>1516.1</ele>
        <time>2021-07-31T10:02:28Z</time>
      </trkpt>
      <trkpt lat="42.34848" lon="2.28096">
        <ele>1519.24</ele>
        <time>2021-07-31T10:02:31Z</time>
      </trkpt>
      <trkpt lat="42.34868" lon="2.2808">
        <ele>1521.51</ele>
        <time>2021-07-31T10:02:33Z</time>
      </trkpt>
      <trkpt lat="42.34909" lon="2.28066">
        <ele>1526.06</ele>
        <time>2021-07-31T10:02:37Z</time>
      </trkpt>
      <trkpt lat="42.34925" lon="2.28063">
        <ele>1528.25</ele>
        <time>2021-07-31T10:02:39Z</time>
      </trkpt>
      <trkpt lat="42.34925" lon="2.28037">
        <ele>1532.39</ele>
        <time>2021-07-31T10:02:44Z</time>
      </trkpt>
      <trkpt lat="42.34908" lon="2.28039">
        <ele>1533.66</ele>
        <time>2021-07-31T10:02:46Z</time>
      </trkpt>
      <trkpt lat="42.34852" lon="2.28059">
        <ele>1538.06</ele>
        <time>2021-07-31T10:02:51Z</time>
      </trkpt>
      <trkpt lat="42.34822" lon="2.28068">
        <ele>1541.17</ele>
        <time>2021-07-31T10:02:54Z</time>
      </trkpt>
      <trkpt lat="42.34792" lon="2.28077">
        <ele>1544.78</ele>
        <time>2021-07-31T10:02:58Z</time>
      </trkpt>
      <trkpt lat="42.34786" lon="2.28079">
        <ele>1545.61</ele>
        <time>2021-07-31T10:02:59Z</time>
      </trkpt>
      <trkpt lat="42.34766" lon="2.28051">
        <ele>1549.48</ele>
        <time>2021-07-31T10:03:05Z</time>
      </trkpt>
      <trkpt lat="42.34769" lon="2.2804">
        <ele>1550.86</ele>
        <time>2021-07-31T10:03:08Z</time>
      </trkpt>
      <trkpt lat="42.34806" lon="2.27972">
        <ele>1554.49</ele>
        <time>2021-07-31T10:03:18Z</time>
      </trkpt>
      <trkpt lat="42.34815" lon="2.27947">
        <ele>1555.71</ele>
        <time>2021-07-31T10:03:21Z</time>
      </trkpt>
      <trkpt lat="42.34824" lon="2.27871">
        <ele>1559.45</ele>
        <time>2021-07-31T10:03:28Z</time>
      </trkpt>
      <trkpt lat="42.34829" lon="2.27801">
        <ele>1562.85</ele>
        <time>2021-07-31T10:03:34Z</time>
      </trkpt>
      <trkpt lat="42.34827" lon="2.27746">
        <ele>1565.2</ele>
        <time>2021-07-31T10:03:38Z</time>
      </trkpt>
      <trkpt lat="42.34852" lon="2.2772">
        <ele>1569.27</ele>
        <time>2021-07-31T10:03:44Z</time>
      </trkpt>
      <trkpt lat="42.34857" lon="2.27763">
        <ele>1571.19</ele>
        <time>2021-07-31T10:03:47Z</time>
      </trkpt>
      <trkpt lat="42.3487" lon="2.27843">
        <ele>1575.13</ele>
        <time>2021-07-31T10:03:53Z</time>
      </trkpt>
      <trkpt lat="42.34879" lon="2.27875">
        <ele>1576.96</ele>
        <time>2021-07-31T10:03:56Z</time>
      </trkpt>
      <trkpt lat="42.34924" lon="2.27903">
        <ele>1581.05</ele>
        <time>2021-07-31T10:04:02Z</time>
      </trkpt>
      <trkpt lat="42.34942" lon="2.27893">
        <ele>1582.54</ele>
        <time>2021-07-31T10:04:04Z</time>
      </trkpt>
      <trkpt lat="42.34958" lon="2.27881">
        <ele>1583.86</ele>
        <time>2021-07-31T10:04:06Z</time>
      </trkpt>
      <trkpt lat="42.35011" lon="2.27883">
        <ele>1587.57</ele>
        <time>2021-07-31T10:04:12Z</time>
      </trkpt>
      <trkpt lat="42.3502" lon="2.27885">
        <ele>1588.18</ele>
        <time>2021-07-31T10:04:13Z</time>
      </trkpt>
      <trkpt lat="42.35066" lon="2.27875">
        <ele>1591.84</ele>
        <time>2021-07-31T10:04:18Z</time>
      </trkpt>
      <trkpt lat="42.35115" lon="2.27852">
        <ele>1596.32</ele>
        <time>2021-07-31T10:04:24Z</time>
      </trkpt>
      <trkpt lat="42.35152" lon="2.27832">
        <ele>1599.39</ele>
        <time>2021-07-31T10:04:28Z</time>
      </trkpt>
      <trkpt lat="42.3519" lon="2.2781">
        <ele>1602.98</ele>
        <time>2021-07-31T10:04:32Z</time>
      </trkpt>
      <trkpt lat="42.35229" lon="2.27792">
        <ele>1606.44</ele>
        <time>2021-07-31T10:04:36Z</time>
      </trkpt>
      <trkpt lat="42.35269" lon="2.27784">
        <ele>1610.11</ele>
        <time>2021-07-31T10:04:40Z</time>
      </trkpt>
      <trkpt lat="42.35307" lon="2.27778">
        <ele>1613.55</ele>
        <time>2021-07-31T10:04:44Z</time>
      </trkpt>
      <trkpt lat="42.35351" lon="2.27752">
        <ele>1618.14</ele>
        <time>2021-07-31T10:04:49Z</time>
      </trkpt>
      <trkpt lat="42.35384" lon="2.27729">
        <ele>1621.73</ele>
        <time>2021-07-31T10:04:53Z</time>
      </trkpt>
      <trkpt lat="42.3541" lon="2.27711">
        <ele>1625.21</ele>
        <time>2021-07-31T10:04:57Z</time>
      </trkpt>
      <trkpt lat="42.35406" lon="2.27679">
        <ele>1629.21</ele>
        <time>2021-07-31T10:05:03Z</time>
      </trkpt>
      <trkpt lat="42.35383" lon="2.27688">
        <ele>1631.2</ele>
        <time>2021-07-31T10:05:06Z</time>
      </trkpt>
      <trkpt lat="42.35358" lon="2.27702">
        <ele>1633.34</ele>
        <time>2021-07-31T10:05:09Z</time>
      </trkpt>
      <trkpt lat="42.35308" lon="2.27698">
        <ele>1637.2</ele>
        <time>2021-07-31T10:05:14Z</time>
      </trkpt>
      <trkpt lat="42.35264" lon="2.2768">
        <ele>1640.74</ele>
        <time>2021-07-31T10:05:18Z</time>
      </trkpt>
      <trkpt lat="42.3521" lon="2.27682">
        <ele>1644.88</ele>
        <time>2021-07-31T10:05:23Z</time>
      </trkpt>
      <trkpt lat="42.3517" lon="2.2769">
        <ele>1648.51</ele>
        <time>2021-07-31T10:05:27Z</time>
      </trkpt>
      <trkpt lat="42.35132" lon="2.27669">
        <ele>1652.89</ele>
        <time>2021-07-31T10:05:32Z</time>
      </trkpt>
      <trkpt lat="42.35107" lon="2.27617">
        <ele>1656.16</ele>
        <time>2021-07-31T10:05:37Z</time>
      </trkpt>
      <trkpt lat="42.3508" lon="2.27592">
        <ele>1658.23</ele>
        <time>2021-07-31T10:05:40Z</time>
      </trkpt>
      <trkpt lat="42.3506" lon="2.27578">
        <ele>1660.48</ele>
        <time>2021-07-31T10:05:42Z</time>
      </trkpt>
      <trkpt lat="42.35031" lon="2.27516">
        <ele>1664.87</ele>
        <time>2021-07-31T10:05:47Z</time>
      </trkpt>
      <trkpt lat="42.35018" lon="2.27452">
        <ele>1669.17</ele>
        <time>2021-07-31T10:05:52Z</time>
      </trkpt>
      <trkpt lat="42.35007" lon="2.27403">
        <ele>1672.19</ele>
        <time>2021-07-31T10:05:56Z</time>
      </trkpt>
      <trkpt lat="42.34993" lon="2.27335">
        <ele>1676</ele>
        <time>2021-07-31T10:06:01Z</time>
      </trkpt>
      <trkpt lat="42.3498" lon="2.27274">
        <ele>1679.52</ele>
        <time>2021-07-31T10:06:05Z</time>
      </trkpt>
      <trkpt lat="42.34966" lon="2.27212">
        <ele>1683.37</ele>
        <time>2021-07-31T10:06:09Z</time>
      </trkpt>
      <trkpt lat="42.34952" lon="2.27165">
        <ele>1686.84</ele>
        <time>2021-07-31T10:06:13Z</time>
      </trkpt>
      <trkpt lat="42.3495" lon="2.27156">
        <ele>1687.61</ele>
        <time>2021-07-31T10:06:14Z</time>
      </trkpt>
      <trkpt lat="42.34961" lon="2.27126">
        <ele>1691.84</ele>
        <time>2021-07-31T10:06:20Z</time>
      </trkpt>
      <trkpt lat="42.3498" lon="2.27161">
        <ele>1694.43</ele>
        <time>2021-07-31T10:06:25Z</time>
      </trkpt>
      <trkpt lat="42.34985" lon="2.27171">
        <ele>1694.91</ele>
        <time>2021-07-31T10:06:26Z</time>
      </trkpt>
      <trkpt lat="42.3502" lon="2.27241">
        <ele>1698.68</ele>
        <time>2021-07-31T10:06:32Z</time>
      </trkpt>
      <trkpt lat="42.35047" lon="2.27298">
        <ele>1702.19</ele>
        <time>2021-07-31T10:06:37Z</time>
      </trkpt>
      <trkpt lat="42.35072" lon="2.27351">
        <ele>1705.39</ele>
        <time>2021-07-31T10:06:42Z</time>
      </trkpt>
      <trkpt lat="42.35094" lon="2.27396">
        <ele>1708.44</ele>
        <time>2021-07-31T10:06:46Z</time>
      </trkpt>
      <trkpt lat="42.3514" lon="2.27424">
        <ele>1712.43</ele>
        <time>2021-07-31T10:06:51Z</time>
      </trkpt>
      <trkpt lat="42.35162" lon="2.27422">
        <ele>1713.82</ele>
        <time>2021-07-31T10:06:53Z</time>
      </trkpt>
      <trkpt lat="42.35222" lon="2.27407">
        <ele>1717.73</ele>
        <time>2021-07-31T10:06:58Z</time>
      </trkpt>
      <trkpt lat="42.35269" lon="2.27392">
        <ele>1721.53</ele>
        <time>2021-07-31T10:07:02Z</time>
      </trkpt>
      <trkpt lat="42.35317" lon="2.27358">
        <ele>1726.23</ele>
        <time>2021-07-31T10:07:07Z</time>
      </trkpt>
      <trkpt lat="42.35329" lon="2.27346">
        <ele>1729.5</ele>
        <time>2021-07-31T10:07:11Z</time>
      </trkpt>
      <trkpt lat="42.35331" lon="2.27344">
        <ele>1732.52</ele>
        <time>2021-07-31T10:07:18Z</time>
      </trkpt>
      <trkpt lat="42.35353" lon="2.27325">
        <ele>1734.35</ele>
        <time>2021-07-31T10:07:33Z</time>
      </trkpt>
      <trkpt lat="42.35401" lon="2.27283">
        <ele>1737.35</ele>
        <time>2021-07-31T10:07:41Z</time>
      </trkpt>
      <trkpt lat="42.35422" lon="2.27259">
        <ele>1739.05</ele>
        <time>2021-07-31T10:07:44Z</time>
      </trkpt>
      <trkpt lat="42.35456" lon="2.27188">
        <ele>1743.04</ele>
        <time>2021-07-31T10:07:50Z</time>
      </trkpt>
      <trkpt lat="42.35478" lon="2.27137">
        <ele>1746.14</ele>
        <time>2021-07-31T10:07:54Z</time>
      </trkpt>
      <trkpt lat="42.35501" lon="2.27086">
        <ele>1749.83</ele>
        <time>2021-07-31T10:07:58Z</time>
      </trkpt>
      <trkpt lat="42.35521" lon="2.27046">
        <ele>1753.26</ele>
        <time>2021-07-31T10:08:02Z</time>
      </trkpt>
      <trkpt lat="42.35511" lon="2.27012">
        <ele>1757.29</ele>
        <time>2021-07-31T10:08:07Z</time>
      </trkpt>
      <trkpt lat="42.35481" lon="2.27032">
        <ele>1759.6</ele>
        <time>2021-07-31T10:08:10Z</time>
      </trkpt>
      <trkpt lat="42.35461" lon="2.27049">
        <ele>1761.58</ele>
        <time>2021-07-31T10:08:12Z</time>
      </trkpt>
      <trkpt lat="42.35405" lon="2.27082">
        <ele>1766.3</ele>
        <time>2021-07-31T10:08:17Z</time>
      </trkpt>
      <trkpt lat="42.35363" lon="2.27119">
        <ele>1770.34</ele>
        <time>2021-07-31T10:08:21Z</time>
      </trkpt>
      <trkpt lat="42.35331" lon="2.27149">
        <ele>1773.55</ele>
        <time>2021-07-31T10:08:24Z</time>
      </trkpt>
      <trkpt lat="42.35319" lon="2.27157">
        <ele>1774.63</ele>
        <time>2021-07-31T10:08:25Z</time>
      </trkpt>
      <trkpt lat="42.35268" lon="2.27175">
        <ele>1779.94</ele>
        <time>2021-07-31T10:08:29Z</time>
      </trkpt>
      <trkpt lat="42.35235" lon="2.27176">
        <ele>1783.69</ele>
        <time>2021-07-31T10:08:32Z</time>
      </trkpt>
      <trkpt lat="42.35217" lon="2.27175">
        <ele>1785.45</ele>
        <time>2021-07-31T10:08:34Z</time>
      </trkpt>
      <trkpt lat="42.35191" lon="2.27142">
        <ele>1789.84</ele>
        <time>2021-07-31T10:08:40Z</time>
      </trkpt>
      <trkpt lat="42.3519" lon="2.27125">
        <ele>1791.09</ele>
        <time>2021-07-31T10:08:42Z</time>
      </trkpt>
      <trkpt lat="42.35189" lon="2.2705">
        <ele>1794.7</ele>
        <time>2021-07-31T10:08:49Z</time>
      </trkpt>
      <trkpt lat="42.35185" lon="2.26992">
        <ele>1798.03</ele>
        <time>2021-07-31T10:08:54Z</time>
      </trkpt>
      <trkpt lat="42.35176" lon="2.26933">
        <ele>1801.25</ele>
        <time>2021-07-31T10:08:59Z</time>
      </trkpt>
      <trkpt lat="42.35167" lon="2.269">
        <ele>1803.66</ele>
        <time>2021-07-31T10:09:02Z</time>
      </trkpt>
      <trkpt lat="42.35143" lon="2.2685">
        <ele>1808.16</ele>
        <time>2021-07-31T10:09:07Z</time>
      </trkpt>
      <trkpt lat="42.35128" lon="2.26822">
        <ele>1811.25</ele>
        <time>2021-07-31T10:09:10Z</time>
      </trkpt>
      <trkpt lat="42.3511" lon="2.26791">
        <ele>1814.62</ele>
        <time>2021-07-31T10:09:14Z</time>
      </trkpt>
      <trkpt lat="42.35098" lon="2.26765">
        <ele>1817.04</ele>
        <time>2021-07-31T10:09:18Z</time>
      </trkpt>
      <trkpt lat="42.35088" lon="2.26745">
        <ele>1820.8</ele>
        <time>2021-07-31T10:09:25Z</time>
      </trkpt>
      <trkpt lat="42.35086" lon="2.26741">
        <ele>1823.36</ele>
        <time>2021-07-31T10:09:41Z</time>
      </trkpt>
      <trkpt lat="42.35086" lon="2.26741">
        <ele>1825.46</ele>
        <time>2021-07-31T10:11:12Z</time>
      </trkpt>
      <trkpt lat="42.35086" lon="2.2674">
        <ele>1824.72</ele>
        <time>2021-07-31T10:12:52Z</time>
      </trkpt>
      <trkpt lat="42.35086" lon="2.2674">
        <ele>1824.72</ele>
        <time>2021-07-31T10:14:42Z</time>
      </trkpt>
      <trkpt lat="42.35087" lon="2.2674">
        <ele>1824.72</ele>
        <time>2021-07-31T10:15:26Z</time>
      </trkpt>
      <trkpt lat="42.35085" lon="2.26729">
        <ele>1824.72</ele>
        <time>2021-07-31T10:15:30Z</time>
      </trkpt>
      <trkpt lat="42.3506" lon="2.26661">
        <ele>1824.36</ele>
        <time>2021-07-31T10:15:39Z</time>
      </trkpt>
      <trkpt lat="42.35036" lon="2.266">
        <ele>1827.43</ele>
        <time>2021-07-31T10:15:45Z</time>
      </trkpt>
      <trkpt lat="42.35021" lon="2.26558">
        <ele>1830</ele>
        <time>2021-07-31T10:15:49Z</time>
      </trkpt>
      <trkpt lat="42.35014" lon="2.26526">
        <ele>1834.67</ele>
        <time>2021-07-31T10:15:54Z</time>
      </trkpt>
      <trkpt lat="42.35014" lon="2.26512">
        <ele>1837.7</ele>
        <time>2021-07-31T10:16:04Z</time>
      </trkpt>
      <trkpt lat="42.35018" lon="2.26451">
        <ele>1839.81</ele>
        <time>2021-07-31T10:16:11Z</time>
      </trkpt>
      <trkpt lat="42.35027" lon="2.26379">
        <ele>1843.12</ele>
        <time>2021-07-31T10:16:16Z</time>
      </trkpt>
      <trkpt lat="42.35032" lon="2.26334">
        <ele>1846.02</ele>
        <time>2021-07-31T10:16:19Z</time>
      </trkpt>
      <trkpt lat="42.35026" lon="2.26258">
        <ele>1851.06</ele>
        <time>2021-07-31T10:16:24Z</time>
      </trkpt>
      <trkpt lat="42.35027" lon="2.26195">
        <ele>1855.77</ele>
        <time>2021-07-31T10:16:28Z</time>
      </trkpt>
      <trkpt lat="42.35028" lon="2.26183">
        <ele>1856.89</ele>
        <time>2021-07-31T10:16:29Z</time>
      </trkpt>
      <trkpt lat="42.35023" lon="2.26136">
        <ele>1861.09</ele>
        <time>2021-07-31T10:16:33Z</time>
      </trkpt>
      <trkpt lat="42.35016" lon="2.26076">
        <ele>1864.93</ele>
        <time>2021-07-31T10:16:37Z</time>
      </trkpt>
      <trkpt lat="42.35016" lon="2.2603">
        <ele>1868.38</ele>
        <time>2021-07-31T10:16:40Z</time>
      </trkpt>
      <trkpt lat="42.35016" lon="2.25981">
        <ele>1872.03</ele>
        <time>2021-07-31T10:16:43Z</time>
      </trkpt>
      <trkpt lat="42.35017" lon="2.2593">
        <ele>1875.67</ele>
        <time>2021-07-31T10:16:46Z</time>
      </trkpt>
      <trkpt lat="42.35019" lon="2.2588">
        <ele>1879.87</ele>
        <time>2021-07-31T10:16:49Z</time>
      </trkpt>
      <trkpt lat="42.35032" lon="2.25834">
        <ele>1884.92</ele>
        <time>2021-07-31T10:16:53Z</time>
      </trkpt>
      <trkpt lat="42.35037" lon="2.25823">
        <ele>1888.34</ele>
        <time>2021-07-31T10:16:57Z</time>
      </trkpt>
      <trkpt lat="42.35037" lon="2.25824">
        <ele>1891.47</ele>
        <time>2021-07-31T10:17:04Z</time>
      </trkpt>
      <trkpt lat="42.35043" lon="2.25809">
        <ele>1894.13</ele>
        <time>2021-07-31T10:17:33Z</time>
      </trkpt>
      <trkpt lat="42.35065" lon="2.25752">
        <ele>1895.68</ele>
        <time>2021-07-31T10:17:42Z</time>
      </trkpt>
      <trkpt lat="42.35096" lon="2.2567">
        <ele>1899.36</ele>
        <time>2021-07-31T10:17:49Z</time>
      </trkpt>
      <trkpt lat="42.35108" lon="2.25616">
        <ele>1902.95</ele>
        <time>2021-07-31T10:17:53Z</time>
      </trkpt>
      <trkpt lat="42.35116" lon="2.2556">
        <ele>1906.51</ele>
        <time>2021-07-31T10:17:57Z</time>
      </trkpt>
      <trkpt lat="42.35125" lon="2.25516">
        <ele>1909.66</ele>
        <time>2021-07-31T10:18:00Z</time>
      </trkpt>
      <trkpt lat="42.35133" lon="2.25477">
        <ele>1912.79</ele>
        <time>2021-07-31T10:18:03Z</time>
      </trkpt>
      <trkpt lat="42.3514" lon="2.25438">
        <ele>1916.32</ele>
        <time>2021-07-31T10:18:07Z</time>
      </trkpt>
      <trkpt lat="42.35146" lon="2.254">
        <ele>1919.53</ele>
        <time>2021-07-31T10:18:11Z</time>
      </trkpt>
      <trkpt lat="42.35148" lon="2.25372">
        <ele>1923.05</ele>
        <time>2021-07-31T10:18:16Z</time>
      </trkpt>
      <trkpt lat="42.35141" lon="2.25319">
        <ele>1926.45</ele>
        <time>2021-07-31T10:18:23Z</time>
      </trkpt>
      <trkpt lat="42.3513" lon="2.25257">
        <ele>1929.65</ele>
        <time>2021-07-31T10:18:28Z</time>
      </trkpt>
      <trkpt lat="42.35127" lon="2.25237">
        <ele>1931.22</ele>
        <time>2021-07-31T10:18:30Z</time>
      </trkpt>
      <trkpt lat="42.35139" lon="2.2519">
        <ele>1935.37</ele>
        <time>2021-07-31T10:18:35Z</time>
      </trkpt>
      <trkpt lat="42.35162" lon="2.25174">
        <ele>1937.47</ele>
        <time>2021-07-31T10:18:38Z</time>
      </trkpt>
      <trkpt lat="42.35207" lon="2.25155">
        <ele>1941.26</ele>
        <time>2021-07-31T10:18:43Z</time>
      </trkpt>
      <trkpt lat="42.35241" lon="2.25153">
        <ele>1944.68</ele>
        <time>2021-07-31T10:18:47Z</time>
      </trkpt>
      <trkpt lat="42.35276" lon="2.25154">
        <ele>1947.9</ele>
        <time>2021-07-31T10:18:51Z</time>
      </trkpt>
      <trkpt lat="42.3531" lon="2.25155">
        <ele>1950.9</ele>
        <time>2021-07-31T10:18:55Z</time>
      </trkpt>
      <trkpt lat="42.35345" lon="2.25147">
        <ele>1954.13</ele>
        <time>2021-07-31T10:18:59Z</time>
      </trkpt>
      <trkpt lat="42.35381" lon="2.25131">
        <ele>1957.51</ele>
        <time>2021-07-31T10:19:03Z</time>
      </trkpt>
      <trkpt lat="42.35416" lon="2.2511">
        <ele>1961.19</ele>
        <time>2021-07-31T10:19:07Z</time>
      </trkpt>
      <trkpt lat="42.35452" lon="2.25085">
        <ele>1964.97</ele>
        <time>2021-07-31T10:19:11Z</time>
      </trkpt>
      <trkpt lat="42.35471" lon="2.25072">
        <ele>1966.96</ele>
        <time>2021-07-31T10:19:13Z</time>
      </trkpt>
      <trkpt lat="42.35509" lon="2.25022">
        <ele>1972.82</ele>
        <time>2021-07-31T10:19:18Z</time>
      </trkpt>
      <trkpt lat="42.35516" lon="2.24996">
        <ele>1974.81</ele>
        <time>2021-07-31T10:19:20Z</time>
      </trkpt>
      <trkpt lat="42.35523" lon="2.24958">
        <ele>1977.32</ele>
        <time>2021-07-31T10:19:23Z</time>
      </trkpt>
      <trkpt lat="42.35513" lon="2.24873">
        <ele>1981.25</ele>
        <time>2021-07-31T10:19:29Z</time>
      </trkpt>
      <trkpt lat="42.35496" lon="2.2478">
        <ele>1984.8</ele>
        <time>2021-07-31T10:19:34Z</time>
      </trkpt>
      <trkpt lat="42.35495" lon="2.2467">
        <ele>1988.38</ele>
        <time>2021-07-31T10:19:39Z</time>
      </trkpt>
      <trkpt lat="42.35494" lon="2.24589">
        <ele>1991.71</ele>
        <time>2021-07-31T10:19:43Z</time>
      </trkpt>
      <trkpt lat="42.35495" lon="2.24555">
        <ele>1993.24</ele>
        <time>2021-07-31T10:19:45Z</time>
      </trkpt>
      <trkpt lat="42.35469" lon="2.24501">
        <ele>1996.62</ele>
        <time>2021-07-31T10:19:50Z</time>
      </trkpt>
      <trkpt lat="42.35452" lon="2.24486">
        <ele>1997.49</ele>
        <time>2021-07-31T10:19:52Z</time>
      </trkpt>
      <trkpt lat="42.3544" lon="2.24434">
        <ele>1998.03</ele>
        <time>2021-07-31T10:19:58Z</time>
      </trkpt>
      <trkpt lat="42.35459" lon="2.24411">
        <ele>1997.84</ele>
        <time>2021-07-31T10:20:01Z</time>
      </trkpt>
      <trkpt lat="42.35575" lon="2.24314">
        <ele>1996.25</ele>
        <time>2021-07-31T10:20:13Z</time>
      </trkpt>
      <trkpt lat="42.35643" lon="2.24315">
        <ele>1994.15</ele>
        <time>2021-07-31T10:20:20Z</time>
      </trkpt>
      <trkpt lat="42.35719" lon="2.24363">
        <ele>1992.14</ele>
        <time>2021-07-31T10:20:27Z</time>
      </trkpt>
      <trkpt lat="42.35836" lon="2.24367">
        <ele>1989.65</ele>
        <time>2021-07-31T10:20:37Z</time>
      </trkpt>
      <trkpt lat="42.35956" lon="2.2432">
        <ele>1987.84</ele>
        <time>2021-07-31T10:20:48Z</time>
      </trkpt>
      <trkpt lat="42.36033" lon="2.24275">
        <ele>1984.76</ele>
        <time>2021-07-31T10:20:57Z</time>
      </trkpt>
      <trkpt lat="42.36049" lon="2.24267">
        <ele>1984.2</ele>
        <time>2021-07-31T10:20:59Z</time>
      </trkpt>
      <trkpt lat="42.36069" lon="2.24241">
        <ele>1982.43</ele>
        <time>2021-07-31T10:21:05Z</time>
      </trkpt>
      <trkpt lat="42.36076" lon="2.24208">
        <ele>1981.52</ele>
        <time>2021-07-31T10:21:09Z</time>
      </trkpt>
      <trkpt lat="42.3614" lon="2.2413">
        <ele>1980.71</ele>
        <time>2021-07-31T10:21:17Z</time>
      </trkpt>
      <trkpt lat="42.36203" lon="2.24076">
        <ele>1976.95</ele>
        <time>2021-07-31T10:21:24Z</time>
      </trkpt>
      <trkpt lat="42.36209" lon="2.24043">
        <ele>1972.74</ele>
        <time>2021-07-31T10:21:30Z</time>
      </trkpt>
      <trkpt lat="42.36173" lon="2.24039">
        <ele>1971.52</ele>
        <time>2021-07-31T10:21:35Z</time>
      </trkpt>
      <trkpt lat="42.36057" lon="2.24064">
        <ele>1974.28</ele>
        <time>2021-07-31T10:21:44Z</time>
      </trkpt>
      <trkpt lat="42.35999" lon="2.24074">
        <ele>1976.17</ele>
        <time>2021-07-31T10:21:50Z</time>
      </trkpt>
      <trkpt lat="42.35968" lon="2.24078">
        <ele>1976.39</ele>
        <time>2021-07-31T10:21:53Z</time>
      </trkpt>
      <trkpt lat="42.35915" lon="2.24061">
        <ele>1976.9</ele>
        <time>2021-07-31T10:21:58Z</time>
      </trkpt>
      <trkpt lat="42.3584" lon="2.24013">
        <ele>1978.77</ele>
        <time>2021-07-31T10:22:05Z</time>
      </trkpt>
      <trkpt lat="42.35814" lon="2.2397">
        <ele>1979.02</ele>
        <time>2021-07-31T10:22:09Z</time>
      </trkpt>
      <trkpt lat="42.35794" lon="2.23911">
        <ele>1978.59</ele>
        <time>2021-07-31T10:22:15Z</time>
      </trkpt>
      <trkpt lat="42.35795" lon="2.23912">
        <ele>1975.15</ele>
        <time>2021-07-31T10:22:21Z</time>
      </trkpt>
      <trkpt lat="42.35795" lon="2.23912">
        <ele>1972.11</ele>
        <time>2021-07-31T10:22:40Z</time>
      </trkpt>
      <trkpt lat="42.35793" lon="2.23905">
        <ele>1971.83</ele>
        <time>2021-07-31T10:22:50Z</time>
      </trkpt>
      <trkpt lat="42.35772" lon="2.23849">
        <ele>1972.06</ele>
        <time>2021-07-31T10:22:57Z</time>
      </trkpt>
      <trkpt lat="42.35727" lon="2.23815">
        <ele>1972.3</ele>
        <time>2021-07-31T10:23:03Z</time>
      </trkpt>
      <trkpt lat="42.35615" lon="2.23793">
        <ele>1975.54</ele>
        <time>2021-07-31T10:23:11Z</time>
      </trkpt>
      <trkpt lat="42.35601" lon="2.23787">
        <ele>1976.17</ele>
        <time>2021-07-31T10:23:12Z</time>
      </trkpt>
      <trkpt lat="42.35502" lon="2.23705">
        <ele>1979.79</ele>
        <time>2021-07-31T10:23:19Z</time>
      </trkpt>
      <trkpt lat="42.35394" lon="2.23599">
        <ele>1981.96</ele>
        <time>2021-07-31T10:23:28Z</time>
      </trkpt>
      <trkpt lat="42.3538" lon="2.23532">
        <ele>1979.91</ele>
        <time>2021-07-31T10:23:34Z</time>
      </trkpt>
      <trkpt lat="42.35398" lon="2.23509">
        <ele>1978.61</ele>
        <time>2021-07-31T10:23:36Z</time>
      </trkpt>
      <trkpt lat="42.35441" lon="2.23465">
        <ele>1976.61</ele>
        <time>2021-07-31T10:23:40Z</time>
      </trkpt>
      <trkpt lat="42.35508" lon="2.2335">
        <ele>1975.86</ele>
        <time>2021-07-31T10:23:48Z</time>
      </trkpt>
      <trkpt lat="42.35538" lon="2.23291">
        <ele>1974.02</ele>
        <time>2021-07-31T10:23:52Z</time>
      </trkpt>
      <trkpt lat="42.35536" lon="2.23237">
        <ele>1972.43</ele>
        <time>2021-07-31T10:23:57Z</time>
      </trkpt>
      <trkpt lat="42.35521" lon="2.23215">
        <ele>1971.12</ele>
        <time>2021-07-31T10:24:00Z</time>
      </trkpt>
      <trkpt lat="42.35525" lon="2.23159">
        <ele>1969.76</ele>
        <time>2021-07-31T10:24:06Z</time>
      </trkpt>
      <trkpt lat="42.35519" lon="2.23116">
        <ele>1968.69</ele>
        <time>2021-07-31T10:24:13Z</time>
      </trkpt>
      <trkpt lat="42.3551" lon="2.23119">
        <ele>1968.55</ele>
        <time>2021-07-31T10:24:14Z</time>
      </trkpt>
      <trkpt lat="42.35462" lon="2.23137">
        <ele>1968.12</ele>
        <time>2021-07-31T10:24:19Z</time>
      </trkpt>
      <trkpt lat="42.35377" lon="2.23121">
        <ele>1965.76</ele>
        <time>2021-07-31T10:24:27Z</time>
      </trkpt>
      <trkpt lat="42.35311" lon="2.231">
        <ele>1962.21</ele>
        <time>2021-07-31T10:24:35Z</time>
      </trkpt>
      <trkpt lat="42.35294" lon="2.23095">
        <ele>1958.45</ele>
        <time>2021-07-31T10:24:41Z</time>
      </trkpt>
      <trkpt lat="42.35284" lon="2.23091">
        <ele>1955.31</ele>
        <time>2021-07-31T10:24:48Z</time>
      </trkpt>
      <trkpt lat="42.35259" lon="2.23101">
        <ele>1953.39</ele>
        <time>2021-07-31T10:25:00Z</time>
      </trkpt>
      <trkpt lat="42.35248" lon="2.23112">
        <ele>1951.73</ele>
        <time>2021-07-31T10:25:09Z</time>
      </trkpt>
      <trkpt lat="42.35227" lon="2.23131">
        <ele>1950.17</ele>
        <time>2021-07-31T10:25:25Z</time>
      </trkpt>
      <trkpt lat="42.35196" lon="2.23157">
        <ele>1949.32</ele>
        <time>2021-07-31T10:25:36Z</time>
      </trkpt>
      <trkpt lat="42.35119" lon="2.23184">
        <ele>1949.4</ele>
        <time>2021-07-31T10:25:43Z</time>
      </trkpt>
      <trkpt lat="42.35046" lon="2.23204">
        <ele>1949.19</ele>
        <time>2021-07-31T10:25:48Z</time>
      </trkpt>
      <trkpt lat="42.34999" lon="2.23195">
        <ele>1945.65</ele>
        <time>2021-07-31T10:25:53Z</time>
      </trkpt>
      <trkpt lat="42.34978" lon="2.23157">
        <ele>1943.7</ele>
        <time>2021-07-31T10:25:56Z</time>
      </trkpt>
      <trkpt lat="42.3495" lon="2.23094">
        <ele>1941.7</ele>
        <time>2021-07-31T10:26:01Z</time>
      </trkpt>
      <trkpt lat="42.34919" lon="2.23085">
        <ele>1937.95</ele>
        <time>2021-07-31T10:26:06Z</time>
      </trkpt>
      <trkpt lat="42.34905" lon="2.231">
        <ele>1936.59</ele>
        <time>2021-07-31T10:26:08Z</time>
      </trkpt>
      <trkpt lat="42.34851" lon="2.2316">
        <ele>1934.73</ele>
        <time>2021-07-31T10:26:14Z</time>
      </trkpt>
      <trkpt lat="42.34764" lon="2.23194">
        <ele>1933.64</ele>
        <time>2021-07-31T10:26:21Z</time>
      </trkpt>
      <trkpt lat="42.34753" lon="2.23199">
        <ele>1933.45</ele>
        <time>2021-07-31T10:26:22Z</time>
      </trkpt>
      <trkpt lat="42.34658" lon="2.23282">
        <ele>1931.56</ele>
        <time>2021-07-31T10:26:32Z</time>
      </trkpt>
      <trkpt lat="42.34564" lon="2.23391">
        <ele>1931.49</ele>
        <time>2021-07-31T10:26:42Z</time>
      </trkpt>
      <trkpt lat="42.3454" lon="2.23422">
        <ele>1931.57</ele>
        <time>2021-07-31T10:26:45Z</time>
      </trkpt>
      <trkpt lat="42.34447" lon="2.23482">
        <ele>1931</ele>
        <time>2021-07-31T10:26:53Z</time>
      </trkpt>
      <trkpt lat="42.34426" lon="2.23494">
        <ele>1931.03</ele>
        <time>2021-07-31T10:26:55Z</time>
      </trkpt>
      <trkpt lat="42.34352" lon="2.23493">
        <ele>1931.22</ele>
        <time>2021-07-31T10:27:02Z</time>
      </trkpt>
      <trkpt lat="42.34329" lon="2.23467">
        <ele>1931.29</ele>
        <time>2021-07-31T10:27:05Z</time>
      </trkpt>
      <trkpt lat="42.34275" lon="2.23393">
        <ele>1928.93</ele>
        <time>2021-07-31T10:27:15Z</time>
      </trkpt>
      <trkpt lat="42.34248" lon="2.23355">
        <ele>1925.87</ele>
        <time>2021-07-31T10:27:27Z</time>
      </trkpt>
      <trkpt lat="42.34207" lon="2.23299">
        <ele>1925.52</ele>
        <time>2021-07-31T10:27:37Z</time>
      </trkpt>
      <trkpt lat="42.3415" lon="2.23224">
        <ele>1925.12</ele>
        <time>2021-07-31T10:27:48Z</time>
      </trkpt>
      <trkpt lat="42.34117" lon="2.23179">
        <ele>1925.16</ele>
        <time>2021-07-31T10:27:53Z</time>
      </trkpt>
      <trkpt lat="42.34103" lon="2.23123">
        <ele>1925.08</ele>
        <time>2021-07-31T10:27:58Z</time>
      </trkpt>
      <trkpt lat="42.34108" lon="2.22981">
        <ele>1925.34</ele>
        <time>2021-07-31T10:28:11Z</time>
      </trkpt>
      <trkpt lat="42.34087" lon="2.22945">
        <ele>1925.6</ele>
        <time>2021-07-31T10:28:18Z</time>
      </trkpt>
      <trkpt lat="42.34079" lon="2.22947">
        <ele>1925.57</ele>
        <time>2021-07-31T10:28:19Z</time>
      </trkpt>
      <trkpt lat="42.34045" lon="2.22956">
        <ele>1925.34</ele>
        <time>2021-07-31T10:28:23Z</time>
      </trkpt>
      <trkpt lat="42.34016" lon="2.22915">
        <ele>1925.34</ele>
        <time>2021-07-31T10:28:29Z</time>
      </trkpt>
      <trkpt lat="42.34003" lon="2.2276">
        <ele>1927.21</ele>
        <time>2021-07-31T10:28:40Z</time>
      </trkpt>
      <trkpt lat="42.34001" lon="2.22751">
        <ele>1927.3</ele>
        <time>2021-07-31T10:28:41Z</time>
      </trkpt>
      <trkpt lat="42.33972" lon="2.22747">
        <ele>1927</ele>
        <time>2021-07-31T10:28:47Z</time>
      </trkpt>
      <trkpt lat="42.33884" lon="2.22836">
        <ele>1925.38</ele>
        <time>2021-07-31T10:28:57Z</time>
      </trkpt>
      <trkpt lat="42.33761" lon="2.22956">
        <ele>1925.3</ele>
        <time>2021-07-31T10:29:09Z</time>
      </trkpt>
      <trkpt lat="42.33702" lon="2.23012">
        <ele>1924.76</ele>
        <time>2021-07-31T10:29:15Z</time>
      </trkpt>
      <trkpt lat="42.33691" lon="2.23071">
        <ele>1923.38</ele>
        <time>2021-07-31T10:29:21Z</time>
      </trkpt>
      <trkpt lat="42.33675" lon="2.23131">
        <ele>1921.89</ele>
        <time>2021-07-31T10:29:27Z</time>
      </trkpt>
      <trkpt lat="42.33666" lon="2.2314">
        <ele>1921.89</ele>
        <time>2021-07-31T10:29:28Z</time>
      </trkpt>
      <trkpt lat="42.33642" lon="2.23166">
        <ele>1922.07</ele>
        <time>2021-07-31T10:29:31Z</time>
      </trkpt>
      <trkpt lat="42.33627" lon="2.2321">
        <ele>1922.03</ele>
        <time>2021-07-31T10:29:35Z</time>
      </trkpt>
      <trkpt lat="42.33621" lon="2.23375">
        <ele>1920.95</ele>
        <time>2021-07-31T10:29:45Z</time>
      </trkpt>
      <trkpt lat="42.33619" lon="2.23436">
        <ele>1920.66</ele>
        <time>2021-07-31T10:29:49Z</time>
      </trkpt>
      <trkpt lat="42.33593" lon="2.23494">
        <ele>1920.26</ele>
        <time>2021-07-31T10:29:54Z</time>
      </trkpt>
      <trkpt lat="42.33459" lon="2.23643">
        <ele>1920.82</ele>
        <time>2021-07-31T10:30:08Z</time>
      </trkpt>
      <trkpt lat="42.33344" lon="2.23767">
        <ele>1920.65</ele>
        <time>2021-07-31T10:30:21Z</time>
      </trkpt>
      <trkpt lat="42.33316" lon="2.23798">
        <ele>1917.24</ele>
        <time>2021-07-31T10:30:28Z</time>
      </trkpt>
      <trkpt lat="42.33315" lon="2.23798">
        <ele>1914.17</ele>
        <time>2021-07-31T10:30:35Z</time>
      </trkpt>
      <trkpt lat="42.33301" lon="2.23818">
        <ele>1911.85</ele>
        <time>2021-07-31T10:30:50Z</time>
      </trkpt>
      <trkpt lat="42.33278" lon="2.2388">
        <ele>1910.03</ele>
        <time>2021-07-31T10:31:01Z</time>
      </trkpt>
      <trkpt lat="42.33266" lon="2.2398">
        <ele>1907.12</ele>
        <time>2021-07-31T10:31:11Z</time>
      </trkpt>
      <trkpt lat="42.33266" lon="2.2399">
        <ele>1906.7</ele>
        <time>2021-07-31T10:31:12Z</time>
      </trkpt>
      <trkpt lat="42.33249" lon="2.2405">
        <ele>1903.75</ele>
        <time>2021-07-31T10:31:18Z</time>
      </trkpt>
      <trkpt lat="42.33225" lon="2.24093">
        <ele>1901.07</ele>
        <time>2021-07-31T10:31:23Z</time>
      </trkpt>
      <trkpt lat="42.33206" lon="2.24177">
        <ele>1897.41</ele>
        <time>2021-07-31T10:31:30Z</time>
      </trkpt>
      <trkpt lat="42.33198" lon="2.24248">
        <ele>1894.21</ele>
        <time>2021-07-31T10:31:36Z</time>
      </trkpt>
      <trkpt lat="42.33208" lon="2.24321">
        <ele>1890.74</ele>
        <time>2021-07-31T10:31:42Z</time>
      </trkpt>
      <trkpt lat="42.33213" lon="2.24344">
        <ele>1889.53</ele>
        <time>2021-07-31T10:31:44Z</time>
      </trkpt>
      <trkpt lat="42.33203" lon="2.24382">
        <ele>1885.77</ele>
        <time>2021-07-31T10:31:49Z</time>
      </trkpt>
      <trkpt lat="42.33187" lon="2.24367">
        <ele>1883.84</ele>
        <time>2021-07-31T10:31:52Z</time>
      </trkpt>
      <trkpt lat="42.33152" lon="2.24259">
        <ele>1879.93</ele>
        <time>2021-07-31T10:32:02Z</time>
      </trkpt>
      <trkpt lat="42.33138" lon="2.2421">
        <ele>1876.74</ele>
        <time>2021-07-31T10:32:07Z</time>
      </trkpt>
      <trkpt lat="42.33129" lon="2.24166">
        <ele>1874.8</ele>
        <time>2021-07-31T10:32:11Z</time>
      </trkpt>
      <trkpt lat="42.33129" lon="2.241">
        <ele>1871.1</ele>
        <time>2021-07-31T10:32:17Z</time>
      </trkpt>
      <trkpt lat="42.33125" lon="2.24034">
        <ele>1867.51</ele>
        <time>2021-07-31T10:32:23Z</time>
      </trkpt>
      <trkpt lat="42.3312" lon="2.23986">
        <ele>1864.13</ele>
        <time>2021-07-31T10:32:28Z</time>
      </trkpt>
      <trkpt lat="42.33115" lon="2.23939">
        <ele>1860.68</ele>
        <time>2021-07-31T10:32:33Z</time>
      </trkpt>
      <trkpt lat="42.33092" lon="2.23891">
        <ele>1856.53</ele>
        <time>2021-07-31T10:32:39Z</time>
      </trkpt>
      <trkpt lat="42.33059" lon="2.23847">
        <ele>1852.62</ele>
        <time>2021-07-31T10:32:46Z</time>
      </trkpt>
      <trkpt lat="42.33017" lon="2.23792">
        <ele>1849.25</ele>
        <time>2021-07-31T10:32:53Z</time>
      </trkpt>
      <trkpt lat="42.32999" lon="2.23769">
        <ele>1847.54</ele>
        <time>2021-07-31T10:32:56Z</time>
      </trkpt>
      <trkpt lat="42.32962" lon="2.23736">
        <ele>1843.65</ele>
        <time>2021-07-31T10:33:02Z</time>
      </trkpt>
      <trkpt lat="42.32932" lon="2.23703">
        <ele>1840.6</ele>
        <time>2021-07-31T10:33:07Z</time>
      </trkpt>
      <trkpt lat="42.32897" lon="2.23663">
        <ele>1837.18</ele>
        <time>2021-07-31T10:33:13Z</time>
      </trkpt>
      <trkpt lat="42.32892" lon="2.23656">
        <ele>1836.56</ele>
        <time>2021-07-31T10:33:14Z</time>
      </trkpt>
      <trkpt lat="42.32882" lon="2.2364">
        <ele>1835.6</ele>
        <time>2021-07-31T10:33:16Z</time>
      </trkpt>
      <trkpt lat="42.32877" lon="2.23553">
        <ele>1831.46</ele>
        <time>2021-07-31T10:33:24Z</time>
      </trkpt>
      <trkpt lat="42.32885" lon="2.23532">
        <ele>1830.4</ele>
        <time>2021-07-31T10:33:26Z</time>
      </trkpt>
      <trkpt lat="42.32867" lon="2.23477">
        <ele>1825.96</ele>
        <time>2021-07-31T10:33:34Z</time>
      </trkpt>
      <trkpt lat="42.3286" lon="2.23476">
        <ele>1825.45</ele>
        <time>2021-07-31T10:33:35Z</time>
      </trkpt>
      <trkpt lat="42.32802" lon="2.23466">
        <ele>1821.8</ele>
        <time>2021-07-31T10:33:43Z</time>
      </trkpt>
      <trkpt lat="42.32751" lon="2.23456">
        <ele>1818.38</ele>
        <time>2021-07-31T10:33:50Z</time>
      </trkpt>
      <trkpt lat="42.327" lon="2.23455">
        <ele>1814.99</ele>
        <time>2021-07-31T10:33:57Z</time>
      </trkpt>
      <trkpt lat="42.32656" lon="2.2346">
        <ele>1811.77</ele>
        <time>2021-07-31T10:34:03Z</time>
      </trkpt>
      <trkpt lat="42.32599" lon="2.23467">
        <ele>1808.38</ele>
        <time>2021-07-31T10:34:10Z</time>
      </trkpt>
      <trkpt lat="42.32552" lon="2.23472">
        <ele>1804.97</ele>
        <time>2021-07-31T10:34:16Z</time>
      </trkpt>
      <trkpt lat="42.32544" lon="2.23472">
        <ele>1804.39</ele>
        <time>2021-07-31T10:34:17Z</time>
      </trkpt>
      <trkpt lat="42.32514" lon="2.23426">
        <ele>1801.69</ele>
        <time>2021-07-31T10:34:23Z</time>
      </trkpt>
      <trkpt lat="42.32515" lon="2.23399">
        <ele>1801.16</ele>
        <time>2021-07-31T10:34:25Z</time>
      </trkpt>
      <trkpt lat="42.32518" lon="2.23265">
        <ele>1797.87</ele>
        <time>2021-07-31T10:34:36Z</time>
      </trkpt>
      <trkpt lat="42.32519" lon="2.23095">
        <ele>1794.87</ele>
        <time>2021-07-31T10:34:49Z</time>
      </trkpt>
      <trkpt lat="42.32508" lon="2.22979">
        <ele>1792.35</ele>
        <time>2021-07-31T10:34:59Z</time>
      </trkpt>
      <trkpt lat="42.32488" lon="2.22882">
        <ele>1791.29</ele>
        <time>2021-07-31T10:35:07Z</time>
      </trkpt>
      <trkpt lat="42.32504" lon="2.22768">
        <ele>1790.45</ele>
        <time>2021-07-31T10:35:16Z</time>
      </trkpt>
      <trkpt lat="42.32511" lon="2.22717">
        <ele>1790.1</ele>
        <time>2021-07-31T10:35:20Z</time>
      </trkpt>
      <trkpt lat="42.32527" lon="2.22624">
        <ele>1788.6</ele>
        <time>2021-07-31T10:35:28Z</time>
      </trkpt>
      <trkpt lat="42.32548" lon="2.22578">
        <ele>1788.32</ele>
        <time>2021-07-31T10:35:32Z</time>
      </trkpt>
      <trkpt lat="42.32647" lon="2.22455">
        <ele>1786.28</ele>
        <time>2021-07-31T10:35:45Z</time>
      </trkpt>
      <trkpt lat="42.32682" lon="2.22433">
        <ele>1784.75</ele>
        <time>2021-07-31T10:35:50Z</time>
      </trkpt>
      <trkpt lat="42.32685" lon="2.22393">
        <ele>1782.73</ele>
        <time>2021-07-31T10:35:55Z</time>
      </trkpt>
      <trkpt lat="42.32681" lon="2.22384">
        <ele>1782.54</ele>
        <time>2021-07-31T10:35:56Z</time>
      </trkpt>
      <trkpt lat="42.32665" lon="2.22345">
        <ele>1781.64</ele>
        <time>2021-07-31T10:36:00Z</time>
      </trkpt>
      <trkpt lat="42.32658" lon="2.22303">
        <ele>1780.08</ele>
        <time>2021-07-31T10:36:04Z</time>
      </trkpt>
      <trkpt lat="42.32655" lon="2.22199">
        <ele>1776.4</ele>
        <time>2021-07-31T10:36:13Z</time>
      </trkpt>
      <trkpt lat="42.32654" lon="2.22122">
        <ele>1773.23</ele>
        <time>2021-07-31T10:36:20Z</time>
      </trkpt>
      <trkpt lat="42.32656" lon="2.221">
        <ele>1772.09</ele>
        <time>2021-07-31T10:36:22Z</time>
      </trkpt>
      <trkpt lat="42.32696" lon="2.22026">
        <ele>1768.36</ele>
        <time>2021-07-31T10:36:30Z</time>
      </trkpt>
      <trkpt lat="42.32716" lon="2.22017">
        <ele>1767.41</ele>
        <time>2021-07-31T10:36:32Z</time>
      </trkpt>
      <trkpt lat="42.32763" lon="2.22006">
        <ele>1763.58</ele>
        <time>2021-07-31T10:36:38Z</time>
      </trkpt>
      <trkpt lat="42.32768" lon="2.21966">
        <ele>1759.11</ele>
        <time>2021-07-31T10:36:44Z</time>
      </trkpt>
      <trkpt lat="42.32736" lon="2.21967">
        <ele>1756.26</ele>
        <time>2021-07-31T10:36:48Z</time>
      </trkpt>
      <trkpt lat="42.32676" lon="2.21985">
        <ele>1752.09</ele>
        <time>2021-07-31T10:36:54Z</time>
      </trkpt>
      <trkpt lat="42.32633" lon="2.21999">
        <ele>1748.52</ele>
        <time>2021-07-31T10:36:59Z</time>
      </trkpt>
      <trkpt lat="42.326" lon="2.22021">
        <ele>1745.49</ele>
        <time>2021-07-31T10:37:03Z</time>
      </trkpt>
      <trkpt lat="42.32569" lon="2.22049">
        <ele>1742.21</ele>
        <time>2021-07-31T10:37:07Z</time>
      </trkpt>
      <trkpt lat="42.32537" lon="2.22078">
        <ele>1739</ele>
        <time>2021-07-31T10:37:11Z</time>
      </trkpt>
      <trkpt lat="42.32516" lon="2.22101">
        <ele>1736.26</ele>
        <time>2021-07-31T10:37:14Z</time>
      </trkpt>
      <trkpt lat="42.32493" lon="2.22156">
        <ele>1731.84</ele>
        <time>2021-07-31T10:37:19Z</time>
      </trkpt>
      <trkpt lat="42.3249" lon="2.22168">
        <ele>1730.95</ele>
        <time>2021-07-31T10:37:20Z</time>
      </trkpt>
      <trkpt lat="42.32486" lon="2.22189">
        <ele>1729.25</ele>
        <time>2021-07-31T10:37:22Z</time>
      </trkpt>
      <trkpt lat="42.3246" lon="2.22204">
        <ele>1724.72</ele>
        <time>2021-07-31T10:37:27Z</time>
      </trkpt>
      <trkpt lat="42.3246" lon="2.22159">
        <ele>1721.48</ele>
        <time>2021-07-31T10:37:31Z</time>
      </trkpt>
      <trkpt lat="42.32477" lon="2.22108">
        <ele>1717.83</ele>
        <time>2021-07-31T10:37:36Z</time>
      </trkpt>
      <trkpt lat="42.32492" lon="2.22057">
        <ele>1714.44</ele>
        <time>2021-07-31T10:37:41Z</time>
      </trkpt>
      <trkpt lat="42.32508" lon="2.22017">
        <ele>1711.36</ele>
        <time>2021-07-31T10:37:45Z</time>
      </trkpt>
      <trkpt lat="42.32528" lon="2.21976">
        <ele>1708.34</ele>
        <time>2021-07-31T10:37:49Z</time>
      </trkpt>
      <trkpt lat="42.32554" lon="2.21928">
        <ele>1705.05</ele>
        <time>2021-07-31T10:37:54Z</time>
      </trkpt>
      <trkpt lat="42.32584" lon="2.21894">
        <ele>1701.95</ele>
        <time>2021-07-31T10:37:58Z</time>
      </trkpt>
      <trkpt lat="42.32626" lon="2.21858">
        <ele>1698.15</ele>
        <time>2021-07-31T10:38:03Z</time>
      </trkpt>
      <trkpt lat="42.32658" lon="2.21832">
        <ele>1694.57</ele>
        <time>2021-07-31T10:38:07Z</time>
      </trkpt>
      <trkpt lat="42.32681" lon="2.21813">
        <ele>1691.77</ele>
        <time>2021-07-31T10:38:10Z</time>
      </trkpt>
      <trkpt lat="42.32709" lon="2.21767">
        <ele>1687.41</ele>
        <time>2021-07-31T10:38:15Z</time>
      </trkpt>
      <trkpt lat="42.32724" lon="2.21746">
        <ele>1684.99</ele>
        <time>2021-07-31T10:38:18Z</time>
      </trkpt>
      <trkpt lat="42.32713" lon="2.21708">
        <ele>1680.9</ele>
        <time>2021-07-31T10:38:25Z</time>
      </trkpt>
      <trkpt lat="42.32692" lon="2.21719">
        <ele>1679.82</ele>
        <time>2021-07-31T10:38:28Z</time>
      </trkpt>
      <trkpt lat="42.32653" lon="2.2174">
        <ele>1678.55</ele>
        <time>2021-07-31T10:38:33Z</time>
      </trkpt>
      <trkpt lat="42.32615" lon="2.21706">
        <ele>1676.61</ele>
        <time>2021-07-31T10:38:39Z</time>
      </trkpt>
      <trkpt lat="42.32607" lon="2.21679">
        <ele>1676.03</ele>
        <time>2021-07-31T10:38:41Z</time>
      </trkpt>
      <trkpt lat="42.32589" lon="2.21582">
        <ele>1672.76</ele>
        <time>2021-07-31T10:38:49Z</time>
      </trkpt>
      <trkpt lat="42.32582" lon="2.21523">
        <ele>1669.48</ele>
        <time>2021-07-31T10:38:54Z</time>
      </trkpt>
      <trkpt lat="42.32572" lon="2.21467">
        <ele>1666.01</ele>
        <time>2021-07-31T10:38:59Z</time>
      </trkpt>
      <trkpt lat="42.32569" lon="2.21409">
        <ele>1662.65</ele>
        <time>2021-07-31T10:39:04Z</time>
      </trkpt>
      <trkpt lat="42.3257" lon="2.2135">
        <ele>1659.4</ele>
        <time>2021-07-31T10:39:09Z</time>
      </trkpt>
      <trkpt lat="42.32571" lon="2.21302">
        <ele>1656.58</ele>
        <time>2021-07-31T10:39:13Z</time>
      </trkpt>
      <trkpt lat="42.32563" lon="2.21255">
        <ele>1652.93</ele>
        <time>2021-07-31T10:39:17Z</time>
      </trkpt>
      <trkpt lat="42.32547" lon="2.21203">
        <ele>1649.72</ele>
        <time>2021-07-31T10:39:22Z</time>
      </trkpt>
      <trkpt lat="42.32548" lon="2.21128">
        <ele>1646.13</ele>
        <time>2021-07-31T10:39:28Z</time>
      </trkpt>
      <trkpt lat="42.32552" lon="2.21115">
        <ele>1645.58</ele>
        <time>2021-07-31T10:39:29Z</time>
      </trkpt>
      <trkpt lat="42.32565" lon="2.21079">
        <ele>1643.74</ele>
        <time>2021-07-31T10:39:32Z</time>
      </trkpt>
      <trkpt lat="42.32598" lon="2.21031">
        <ele>1639.74</ele>
        <time>2021-07-31T10:39:37Z</time>
      </trkpt>
      <trkpt lat="42.32625" lon="2.20995">
        <ele>1636.46</ele>
        <time>2021-07-31T10:39:41Z</time>
      </trkpt>
      <trkpt lat="42.32649" lon="2.20956">
        <ele>1632.92</ele>
        <time>2021-07-31T10:39:45Z</time>
      </trkpt>
      <trkpt lat="42.32663" lon="2.20926">
        <ele>1630.34</ele>
        <time>2021-07-31T10:39:48Z</time>
      </trkpt>
      <trkpt lat="42.32667" lon="2.20869">
        <ele>1626.45</ele>
        <time>2021-07-31T10:39:53Z</time>
      </trkpt>
      <trkpt lat="42.32642" lon="2.20837">
        <ele>1623.46</ele>
        <time>2021-07-31T10:39:57Z</time>
      </trkpt>
      <trkpt lat="42.32594" lon="2.20793">
        <ele>1619.22</ele>
        <time>2021-07-31T10:40:03Z</time>
      </trkpt>
      <trkpt lat="42.32562" lon="2.20764">
        <ele>1616.16</ele>
        <time>2021-07-31T10:40:07Z</time>
      </trkpt>
      <trkpt lat="42.32555" lon="2.20756">
        <ele>1615.34</ele>
        <time>2021-07-31T10:40:08Z</time>
      </trkpt>
      <trkpt lat="42.32529" lon="2.20698">
        <ele>1611.4</ele>
        <time>2021-07-31T10:40:13Z</time>
      </trkpt>
      <trkpt lat="42.32519" lon="2.20679">
        <ele>1609.81</ele>
        <time>2021-07-31T10:40:15Z</time>
      </trkpt>
      <trkpt lat="42.32515" lon="2.20624">
        <ele>1605.47</ele>
        <time>2021-07-31T10:40:20Z</time>
      </trkpt>
      <trkpt lat="42.32537" lon="2.20552">
        <ele>1601.28</ele>
        <time>2021-07-31T10:40:26Z</time>
      </trkpt>
      <trkpt lat="42.32556" lon="2.20492">
        <ele>1597.99</ele>
        <time>2021-07-31T10:40:31Z</time>
      </trkpt>
      <trkpt lat="42.32563" lon="2.20468">
        <ele>1596.42</ele>
        <time>2021-07-31T10:40:33Z</time>
      </trkpt>
      <trkpt lat="42.32548" lon="2.20427">
        <ele>1592.42</ele>
        <time>2021-07-31T10:40:38Z</time>
      </trkpt>
      <trkpt lat="42.32532" lon="2.20417">
        <ele>1590.89</ele>
        <time>2021-07-31T10:40:40Z</time>
      </trkpt>
      <trkpt lat="42.32514" lon="2.20366">
        <ele>1587.19</ele>
        <time>2021-07-31T10:40:45Z</time>
      </trkpt>
      <trkpt lat="42.32511" lon="2.20296">
        <ele>1582.97</ele>
        <time>2021-07-31T10:40:51Z</time>
      </trkpt>
      <trkpt lat="42.32511" lon="2.20269">
        <ele>1579.89</ele>
        <time>2021-07-31T10:40:54Z</time>
      </trkpt>
      <trkpt lat="42.32518" lon="2.20234">
        <ele>1575.75</ele>
        <time>2021-07-31T10:40:59Z</time>
      </trkpt>
      <trkpt lat="42.32533" lon="2.20198">
        <ele>1571.73</ele>
        <time>2021-07-31T10:41:05Z</time>
      </trkpt>
      <trkpt lat="42.32546" lon="2.20177">
        <ele>1568.48</ele>
        <time>2021-07-31T10:41:11Z</time>
      </trkpt>
      <trkpt lat="42.32563" lon="2.20151">
        <ele>1565.22</ele>
        <time>2021-07-31T10:41:19Z</time>
      </trkpt>
      <trkpt lat="42.32596" lon="2.20105">
        <ele>1562.05</ele>
        <time>2021-07-31T10:41:28Z</time>
      </trkpt>
      <trkpt lat="42.3262" lon="2.20076">
        <ele>1559.34</ele>
        <time>2021-07-31T10:41:34Z</time>
      </trkpt>
      <trkpt lat="42.32624" lon="2.20066">
        <ele>1558.31</ele>
        <time>2021-07-31T10:41:36Z</time>
      </trkpt>
      <trkpt lat="42.32632" lon="2.20047">
        <ele>1556.8</ele>
        <time>2021-07-31T10:41:40Z</time>
      </trkpt>
      <trkpt lat="42.32651" lon="2.20002">
        <ele>1553.11</ele>
        <time>2021-07-31T10:41:49Z</time>
      </trkpt>
      <trkpt lat="42.32651" lon="2.19963">
        <ele>1551.15</ele>
        <time>2021-07-31T10:41:54Z</time>
      </trkpt>
      <trkpt lat="42.32645" lon="2.1994">
        <ele>1549.92</ele>
        <time>2021-07-31T10:41:57Z</time>
      </trkpt>
      <trkpt lat="42.3264" lon="2.19902">
        <ele>1547.35</ele>
        <time>2021-07-31T10:42:02Z</time>
      </trkpt>
      <trkpt lat="42.32638" lon="2.19842">
        <ele>1543.49</ele>
        <time>2021-07-31T10:42:09Z</time>
      </trkpt>
      <trkpt lat="42.32632" lon="2.19801">
        <ele>1540.3</ele>
        <time>2021-07-31T10:42:15Z</time>
      </trkpt>
      <trkpt lat="42.32624" lon="2.19748">
        <ele>1536.91</ele>
        <time>2021-07-31T10:42:22Z</time>
      </trkpt>
      <trkpt lat="42.32628" lon="2.1971">
        <ele>1535.38</ele>
        <time>2021-07-31T10:42:26Z</time>
      </trkpt>
      <trkpt lat="42.3264" lon="2.19638">
        <ele>1531.62</ele>
        <time>2021-07-31T10:42:33Z</time>
      </trkpt>
      <trkpt lat="42.32643" lon="2.19582">
        <ele>1528.06</ele>
        <time>2021-07-31T10:42:38Z</time>
      </trkpt>
      <trkpt lat="42.32646" lon="2.19525">
        <ele>1524.82</ele>
        <time>2021-07-31T10:42:43Z</time>
      </trkpt>
      <trkpt lat="42.32646" lon="2.19485">
        <ele>1522.01</ele>
        <time>2021-07-31T10:42:47Z</time>
      </trkpt>
      <trkpt lat="42.32624" lon="2.19427">
        <ele>1518.57</ele>
        <time>2021-07-31T10:42:53Z</time>
      </trkpt>
      <trkpt lat="42.32597" lon="2.19357">
        <ele>1514.29</ele>
        <time>2021-07-31T10:43:00Z</time>
      </trkpt>
      <trkpt lat="42.32595" lon="2.19347">
        <ele>1513.7</ele>
        <time>2021-07-31T10:43:01Z</time>
      </trkpt>
      <trkpt lat="42.32589" lon="2.19264">
        <ele>1509.85</ele>
        <time>2021-07-31T10:43:08Z</time>
      </trkpt>
      <trkpt lat="42.32578" lon="2.19188">
        <ele>1506.52</ele>
        <time>2021-07-31T10:43:14Z</time>
      </trkpt>
      <trkpt lat="42.32568" lon="2.19143">
        <ele>1503.23</ele>
        <time>2021-07-31T10:43:18Z</time>
      </trkpt>
      <trkpt lat="42.32561" lon="2.191">
        <ele>1500.14</ele>
        <time>2021-07-31T10:43:22Z</time>
      </trkpt>
      <trkpt lat="42.32556" lon="2.19068">
        <ele>1497.68</ele>
        <time>2021-07-31T10:43:25Z</time>
      </trkpt>
      <trkpt lat="42.32559" lon="2.18999">
        <ele>1493.7</ele>
        <time>2021-07-31T10:43:31Z</time>
      </trkpt>
      <trkpt lat="42.32568" lon="2.18942">
        <ele>1490.37</ele>
        <time>2021-07-31T10:43:36Z</time>
      </trkpt>
      <trkpt lat="42.32579" lon="2.18884">
        <ele>1486.62</ele>
        <time>2021-07-31T10:43:41Z</time>
      </trkpt>
      <trkpt lat="42.32586" lon="2.18825">
        <ele>1482.89</ele>
        <time>2021-07-31T10:43:46Z</time>
      </trkpt>
      <trkpt lat="42.32598" lon="2.18774">
        <ele>1479.39</ele>
        <time>2021-07-31T10:43:51Z</time>
      </trkpt>
      <trkpt lat="42.32602" lon="2.18703">
        <ele>1475.1</ele>
        <time>2021-07-31T10:43:57Z</time>
      </trkpt>
      <trkpt lat="42.32602" lon="2.18691">
        <ele>1474.46</ele>
        <time>2021-07-31T10:43:58Z</time>
      </trkpt>
      <trkpt lat="42.32594" lon="2.1862">
        <ele>1470.1</ele>
        <time>2021-07-31T10:44:04Z</time>
      </trkpt>
      <trkpt lat="42.32586" lon="2.18543">
        <ele>1465.96</ele>
        <time>2021-07-31T10:44:10Z</time>
      </trkpt>
      <trkpt lat="42.32577" lon="2.18496">
        <ele>1462.26</ele>
        <time>2021-07-31T10:44:14Z</time>
      </trkpt>
      <trkpt lat="42.32568" lon="2.18449">
        <ele>1459.19</ele>
        <time>2021-07-31T10:44:18Z</time>
      </trkpt>
      <trkpt lat="42.32558" lon="2.18401">
        <ele>1456.04</ele>
        <time>2021-07-31T10:44:22Z</time>
      </trkpt>
      <trkpt lat="42.32536" lon="2.18348">
        <ele>1452.22</ele>
        <time>2021-07-31T10:44:27Z</time>
      </trkpt>
      <trkpt lat="42.32533" lon="2.18338">
        <ele>1451.63</ele>
        <time>2021-07-31T10:44:28Z</time>
      </trkpt>
      <trkpt lat="42.32518" lon="2.18269">
        <ele>1447.51</ele>
        <time>2021-07-31T10:44:34Z</time>
      </trkpt>
      <trkpt lat="42.32513" lon="2.18235">
        <ele>1444.4</ele>
        <time>2021-07-31T10:44:38Z</time>
      </trkpt>
      <trkpt lat="42.32511" lon="2.18227">
        <ele>1443.48</ele>
        <time>2021-07-31T10:44:39Z</time>
      </trkpt>
      <trkpt lat="42.32528" lon="2.18176">
        <ele>1439.22</ele>
        <time>2021-07-31T10:44:45Z</time>
      </trkpt>
      <trkpt lat="42.32534" lon="2.1817">
        <ele>1438.68</ele>
        <time>2021-07-31T10:44:46Z</time>
      </trkpt>
      <trkpt lat="42.32545" lon="2.18159">
        <ele>1437.74</ele>
        <time>2021-07-31T10:44:48Z</time>
      </trkpt>
      <trkpt lat="42.3261" lon="2.18158">
        <ele>1434.67</ele>
        <time>2021-07-31T10:44:53Z</time>
      </trkpt>
      <trkpt lat="42.3267" lon="2.1816">
        <ele>1430.97</ele>
        <time>2021-07-31T10:44:58Z</time>
      </trkpt>
      <trkpt lat="42.32714" lon="2.18154">
        <ele>1427.67</ele>
        <time>2021-07-31T10:45:02Z</time>
      </trkpt>
      <trkpt lat="42.32756" lon="2.1814">
        <ele>1424.19</ele>
        <time>2021-07-31T10:45:06Z</time>
      </trkpt>
      <trkpt lat="42.32797" lon="2.18124">
        <ele>1420.54</ele>
        <time>2021-07-31T10:45:10Z</time>
      </trkpt>
      <trkpt lat="42.32818" lon="2.18117">
        <ele>1418.68</ele>
        <time>2021-07-31T10:45:12Z</time>
      </trkpt>
      <trkpt lat="42.32853" lon="2.18117">
        <ele>1415.1</ele>
        <time>2021-07-31T10:45:16Z</time>
      </trkpt>
      <trkpt lat="42.3287" lon="2.18084">
        <ele>1411.01</ele>
        <time>2021-07-31T10:45:21Z</time>
      </trkpt>
      <trkpt lat="42.32837" lon="2.18061">
        <ele>1407.73</ele>
        <time>2021-07-31T10:45:25Z</time>
      </trkpt>
      <trkpt lat="42.32792" lon="2.1806">
        <ele>1404.4</ele>
        <time>2021-07-31T10:45:29Z</time>
      </trkpt>
      <trkpt lat="42.32782" lon="2.18064">
        <ele>1403.64</ele>
        <time>2021-07-31T10:45:30Z</time>
      </trkpt>
      <trkpt lat="42.32732" lon="2.18082">
        <ele>1399.29</ele>
        <time>2021-07-31T10:45:35Z</time>
      </trkpt>
      <trkpt lat="42.32694" lon="2.18085">
        <ele>1395.62</ele>
        <time>2021-07-31T10:45:39Z</time>
      </trkpt>
      <trkpt lat="42.3266" lon="2.18088">
        <ele>1392.06</ele>
        <time>2021-07-31T10:45:43Z</time>
      </trkpt>
      <trkpt lat="42.32646" lon="2.18088">
        <ele>1388.53</ele>
        <time>2021-07-31T10:45:47Z</time>
      </trkpt>
      <trkpt lat="42.32645" lon="2.18088">
        <ele>1384.87</ele>
        <time>2021-07-31T10:45:52Z</time>
      </trkpt>
      <trkpt lat="42.32623" lon="2.18084">
        <ele>1381.91</ele>
        <time>2021-07-31T10:46:01Z</time>
      </trkpt>
      <trkpt lat="42.32535" lon="2.18047">
        <ele>1378.16</ele>
        <time>2021-07-31T10:46:11Z</time>
      </trkpt>
      <trkpt lat="42.32488" lon="2.18022">
        <ele>1375.17</ele>
        <time>2021-07-31T10:46:16Z</time>
      </trkpt>
      <trkpt lat="42.32426" lon="2.18015">
        <ele>1370.74</ele>
        <time>2021-07-31T10:46:22Z</time>
      </trkpt>
      <trkpt lat="42.32385" lon="2.1802">
        <ele>1367.41</ele>
        <time>2021-07-31T10:46:26Z</time>
      </trkpt>
      <trkpt lat="42.32347" lon="2.1803">
        <ele>1363.83</ele>
        <time>2021-07-31T10:46:30Z</time>
      </trkpt>
      <trkpt lat="42.32314" lon="2.18042">
        <ele>1360.62</ele>
        <time>2021-07-31T10:46:34Z</time>
      </trkpt>
      <trkpt lat="42.32288" lon="2.18039">
        <ele>1356.64</ele>
        <time>2021-07-31T10:46:39Z</time>
      </trkpt>
      <trkpt lat="42.32295" lon="2.18011">
        <ele>1353.62</ele>
        <time>2021-07-31T10:46:43Z</time>
      </trkpt>
      <trkpt lat="42.32313" lon="2.18007">
        <ele>1352.39</ele>
        <time>2021-07-31T10:46:45Z</time>
      </trkpt>
      <trkpt lat="42.32374" lon="2.17981">
        <ele>1348.53</ele>
        <time>2021-07-31T10:46:51Z</time>
      </trkpt>
      <trkpt lat="42.3242" lon="2.17962">
        <ele>1345.12</ele>
        <time>2021-07-31T10:46:56Z</time>
      </trkpt>
      <trkpt lat="42.3246" lon="2.17949">
        <ele>1341.47</ele>
        <time>2021-07-31T10:47:01Z</time>
      </trkpt>
      <trkpt lat="42.32507" lon="2.17949">
        <ele>1337.75</ele>
        <time>2021-07-31T10:47:06Z</time>
      </trkpt>
      <trkpt lat="42.32555" lon="2.17944">
        <ele>1334.13</ele>
        <time>2021-07-31T10:47:11Z</time>
      </trkpt>
      <trkpt lat="42.32574" lon="2.17941">
        <ele>1332.53</ele>
        <time>2021-07-31T10:47:13Z</time>
      </trkpt>
      <trkpt lat="42.32617" lon="2.17921">
        <ele>1328.53</ele>
        <time>2021-07-31T10:47:18Z</time>
      </trkpt>
      <trkpt lat="42.32648" lon="2.17906">
        <ele>1325.36</ele>
        <time>2021-07-31T10:47:22Z</time>
      </trkpt>
      <trkpt lat="42.32672" lon="2.17897">
        <ele>1322.1</ele>
        <time>2021-07-31T10:47:26Z</time>
      </trkpt>
      <trkpt lat="42.32719" lon="2.17866">
        <ele>1317.46</ele>
        <time>2021-07-31T10:47:32Z</time>
      </trkpt>
      <trkpt lat="42.32763" lon="2.17825">
        <ele>1313.75</ele>
        <time>2021-07-31T10:47:37Z</time>
      </trkpt>
      <trkpt lat="42.328" lon="2.17776">
        <ele>1309.9</ele>
        <time>2021-07-31T10:47:42Z</time>
      </trkpt>
      <trkpt lat="42.32807" lon="2.17767">
        <ele>1309.03</ele>
        <time>2021-07-31T10:47:43Z</time>
      </trkpt>
      <trkpt lat="42.32848" lon="2.17731">
        <ele>1305.13</ele>
        <time>2021-07-31T10:47:48Z</time>
      </trkpt>
      <trkpt lat="42.32889" lon="2.17713">
        <ele>1301.94</ele>
        <time>2021-07-31T10:47:52Z</time>
      </trkpt>
      <trkpt lat="42.32931" lon="2.17698">
        <ele>1298.87</ele>
        <time>2021-07-31T10:47:56Z</time>
      </trkpt>
      <trkpt lat="42.32975" lon="2.17688">
        <ele>1295.51</ele>
        <time>2021-07-31T10:48:00Z</time>
      </trkpt>
      <trkpt lat="42.33018" lon="2.17688">
        <ele>1292.05</ele>
        <time>2021-07-31T10:48:04Z</time>
      </trkpt>
      <trkpt lat="42.33037" lon="2.17692">
        <ele>1290.22</ele>
        <time>2021-07-31T10:48:06Z</time>
      </trkpt>
      <trkpt lat="42.33065" lon="2.17706">
        <ele>1287.2</ele>
        <time>2021-07-31T10:48:09Z</time>
      </trkpt>
      <trkpt lat="42.33109" lon="2.17747">
        <ele>1282.69</ele>
        <time>2021-07-31T10:48:14Z</time>
      </trkpt>
      <trkpt lat="42.33126" lon="2.17764">
        <ele>1280.86</ele>
        <time>2021-07-31T10:48:16Z</time>
      </trkpt>
      <trkpt lat="42.33172" lon="2.17785">
        <ele>1276.14</ele>
        <time>2021-07-31T10:48:21Z</time>
      </trkpt>
      <trkpt lat="42.33208" lon="2.178">
        <ele>1272.4</ele>
        <time>2021-07-31T10:48:25Z</time>
      </trkpt>
      <trkpt lat="42.33241" lon="2.17822">
        <ele>1268.68</ele>
        <time>2021-07-31T10:48:29Z</time>
      </trkpt>
      <trkpt lat="42.33278" lon="2.17839">
        <ele>1265.22</ele>
        <time>2021-07-31T10:48:33Z</time>
      </trkpt>
      <trkpt lat="42.33319" lon="2.17864">
        <ele>1261.54</ele>
        <time>2021-07-31T10:48:37Z</time>
      </trkpt>
      <trkpt lat="42.33342" lon="2.1788">
        <ele>1258.76</ele>
        <time>2021-07-31T10:48:40Z</time>
      </trkpt>
      <trkpt lat="42.33364" lon="2.17928">
        <ele>1254.62</ele>
        <time>2021-07-31T10:48:45Z</time>
      </trkpt>
      <trkpt lat="42.33378" lon="2.17973">
        <ele>1251.71</ele>
        <time>2021-07-31T10:48:49Z</time>
      </trkpt>
      <trkpt lat="42.33395" lon="2.17988">
        <ele>1247.34</ele>
        <time>2021-07-31T10:48:55Z</time>
      </trkpt>
      <trkpt lat="42.334" lon="2.17959">
        <ele>1244.32</ele>
        <time>2021-07-31T10:49:02Z</time>
      </trkpt>
      <trkpt lat="42.33398" lon="2.1795">
        <ele>1243.93</ele>
        <time>2021-07-31T10:49:03Z</time>
      </trkpt>
      <trkpt lat="42.3341" lon="2.1794">
        <ele>1243.2</ele>
        <time>2021-07-31T10:49:05Z</time>
      </trkpt>
      <trkpt lat="42.33423" lon="2.17905">
        <ele>1241.48</ele>
        <time>2021-07-31T10:49:09Z</time>
      </trkpt>
      <trkpt lat="42.33422" lon="2.17861">
        <ele>1239.14</ele>
        <time>2021-07-31T10:49:14Z</time>
      </trkpt>
      <trkpt lat="42.3342" lon="2.17852">
        <ele>1238.7</ele>
        <time>2021-07-31T10:49:15Z</time>
      </trkpt>
      <trkpt lat="42.33371" lon="2.17772">
        <ele>1234.58</ele>
        <time>2021-07-31T10:49:22Z</time>
      </trkpt>
      <trkpt lat="42.33334" lon="2.17713">
        <ele>1230.94</ele>
        <time>2021-07-31T10:49:27Z</time>
      </trkpt>
      <trkpt lat="42.33296" lon="2.17674">
        <ele>1227.52</ele>
        <time>2021-07-31T10:49:31Z</time>
      </trkpt>
      <trkpt lat="42.33275" lon="2.17661">
        <ele>1225.78</ele>
        <time>2021-07-31T10:49:33Z</time>
      </trkpt>
      <trkpt lat="42.33213" lon="2.17665">
        <ele>1221.63</ele>
        <time>2021-07-31T10:49:38Z</time>
      </trkpt>
      <trkpt lat="42.3316" lon="2.17642">
        <ele>1217.79</ele>
        <time>2021-07-31T10:49:44Z</time>
      </trkpt>
      <trkpt lat="42.33105" lon="2.17562">
        <ele>1213.84</ele>
        <time>2021-07-31T10:49:51Z</time>
      </trkpt>
      <trkpt lat="42.33028" lon="2.17521">
        <ele>1209.64</ele>
        <time>2021-07-31T10:49:58Z</time>
      </trkpt>
      <trkpt lat="42.32975" lon="2.17502">
        <ele>1206.57</ele>
        <time>2021-07-31T10:50:02Z</time>
      </trkpt>
      <trkpt lat="42.32924" lon="2.17482">
        <ele>1203.25</ele>
        <time>2021-07-31T10:50:06Z</time>
      </trkpt>
      <trkpt lat="42.32865" lon="2.17477">
        <ele>1199.51</ele>
        <time>2021-07-31T10:50:10Z</time>
      </trkpt>
      <trkpt lat="42.32801" lon="2.17483">
        <ele>1195.73</ele>
        <time>2021-07-31T10:50:14Z</time>
      </trkpt>
      <trkpt lat="42.32753" lon="2.17488">
        <ele>1192.23</ele>
        <time>2021-07-31T10:50:17Z</time>
      </trkpt>
      <trkpt lat="42.32706" lon="2.1749">
        <ele>1188.67</ele>
        <time>2021-07-31T10:50:20Z</time>
      </trkpt>
      <trkpt lat="42.32661" lon="2.17491">
        <ele>1184.54</ele>
        <time>2021-07-31T10:50:23Z</time>
      </trkpt>
      <trkpt lat="42.32647" lon="2.17492">
        <ele>1183.21</ele>
        <time>2021-07-31T10:50:24Z</time>
      </trkpt>
      <trkpt lat="42.32596" lon="2.1751">
        <ele>1177.85</ele>
        <time>2021-07-31T10:50:28Z</time>
      </trkpt>
      <trkpt lat="42.32584" lon="2.17515">
        <ele>1176.6</ele>
        <time>2021-07-31T10:50:29Z</time>
      </trkpt>
      <trkpt lat="42.32538" lon="2.17507">
        <ele>1171.41</ele>
        <time>2021-07-31T10:50:33Z</time>
      </trkpt>
      <trkpt lat="42.32495" lon="2.17491">
        <ele>1167.35</ele>
        <time>2021-07-31T10:50:37Z</time>
      </trkpt>
      <trkpt lat="42.32451" lon="2.17458">
        <ele>1162.48</ele>
        <time>2021-07-31T10:50:42Z</time>
      </trkpt>
      <trkpt lat="42.32434" lon="2.17442">
        <ele>1160.54</ele>
        <time>2021-07-31T10:50:44Z</time>
      </trkpt>
      <trkpt lat="42.32386" lon="2.17429">
        <ele>1157.27</ele>
        <time>2021-07-31T10:50:48Z</time>
      </trkpt>
      <trkpt lat="42.32336" lon="2.17418">
        <ele>1154.2</ele>
        <time>2021-07-31T10:50:52Z</time>
      </trkpt>
      <trkpt lat="42.32286" lon="2.17426">
        <ele>1150.28</ele>
        <time>2021-07-31T10:50:56Z</time>
      </trkpt>
      <trkpt lat="42.32239" lon="2.17445">
        <ele>1146.79</ele>
        <time>2021-07-31T10:51:00Z</time>
      </trkpt>
      <trkpt lat="42.32191" lon="2.17445">
        <ele>1143.13</ele>
        <time>2021-07-31T10:51:04Z</time>
      </trkpt>
      <trkpt lat="42.3213" lon="2.17462">
        <ele>1138.67</ele>
        <time>2021-07-31T10:51:09Z</time>
      </trkpt>
      <trkpt lat="42.32086" lon="2.17483">
        <ele>1135.01</ele>
        <time>2021-07-31T10:51:13Z</time>
      </trkpt>
      <trkpt lat="42.32036" lon="2.17497">
        <ele>1131.22</ele>
        <time>2021-07-31T10:51:17Z</time>
      </trkpt>
      <trkpt lat="42.3198" lon="2.17504">
        <ele>1127.21</ele>
        <time>2021-07-31T10:51:21Z</time>
      </trkpt>
      <trkpt lat="42.31943" lon="2.17507">
        <ele>1124.2</ele>
        <time>2021-07-31T10:51:24Z</time>
      </trkpt>
      <trkpt lat="42.31906" lon="2.1751">
        <ele>1120.83</ele>
        <time>2021-07-31T10:51:27Z</time>
      </trkpt>
      <trkpt lat="42.31866" lon="2.17513">
        <ele>1117.45</ele>
        <time>2021-07-31T10:51:30Z</time>
      </trkpt>
      <trkpt lat="42.31826" lon="2.17522">
        <ele>1114.26</ele>
        <time>2021-07-31T10:51:33Z</time>
      </trkpt>
      <trkpt lat="42.31788" lon="2.1753">
        <ele>1110.96</ele>
        <time>2021-07-31T10:51:36Z</time>
      </trkpt>
      <trkpt lat="42.31756" lon="2.17534">
        <ele>1107.38</ele>
        <time>2021-07-31T10:51:39Z</time>
      </trkpt>
      <trkpt lat="42.31747" lon="2.17536">
        <ele>1106.19</ele>
        <time>2021-07-31T10:51:40Z</time>
      </trkpt>
      <trkpt lat="42.31716" lon="2.17552">
        <ele>1101.76</ele>
        <time>2021-07-31T10:51:44Z</time>
      </trkpt>
      <trkpt lat="42.31703" lon="2.17583">
        <ele>1098.6</ele>
        <time>2021-07-31T10:51:47Z</time>
      </trkpt>
      <trkpt lat="42.31698" lon="2.1761">
        <ele>1096.92</ele>
        <time>2021-07-31T10:51:49Z</time>
      </trkpt>
      <trkpt lat="42.31696" lon="2.17637">
        <ele>1095.58</ele>
        <time>2021-07-31T10:51:51Z</time>
      </trkpt>
      <trkpt lat="42.31703" lon="2.17777">
        <ele>1093.18</ele>
        <time>2021-07-31T10:52:02Z</time>
      </trkpt>
      <trkpt lat="42.31703" lon="2.17788">
        <ele>1093.13</ele>
        <time>2021-07-31T10:52:03Z</time>
      </trkpt>
      <trkpt lat="42.31713" lon="2.17855">
        <ele>1092.75</ele>
        <time>2021-07-31T10:52:09Z</time>
      </trkpt>
      <trkpt lat="42.31761" lon="2.17915">
        <ele>1092.07</ele>
        <time>2021-07-31T10:52:16Z</time>
      </trkpt>
      <trkpt lat="42.31779" lon="2.17933">
        <ele>1092.1</ele>
        <time>2021-07-31T10:52:18Z</time>
      </trkpt>
      <trkpt lat="42.31813" lon="2.18005">
        <ele>1091.8</ele>
        <time>2021-07-31T10:52:25Z</time>
      </trkpt>
      <trkpt lat="42.31824" lon="2.18021">
        <ele>1091.6</ele>
        <time>2021-07-31T10:52:27Z</time>
      </trkpt>
      <trkpt lat="42.3183" lon="2.18065">
        <ele>1090.87</ele>
        <time>2021-07-31T10:52:31Z</time>
      </trkpt>
      <trkpt lat="42.31843" lon="2.1813">
        <ele>1090.52</ele>
        <time>2021-07-31T10:52:38Z</time>
      </trkpt>
      <trkpt lat="42.31858" lon="2.18162">
        <ele>1091.04</ele>
        <time>2021-07-31T10:52:41Z</time>
      </trkpt>
      <trkpt lat="42.31835" lon="2.18216">
        <ele>1092.7</ele>
        <time>2021-07-31T10:52:48Z</time>
      </trkpt>
      <trkpt lat="42.31813" lon="2.18286">
        <ele>1092.82</ele>
        <time>2021-07-31T10:52:54Z</time>
      </trkpt>
      <trkpt lat="42.31805" lon="2.1831">
        <ele>1092.53</ele>
        <time>2021-07-31T10:52:56Z</time>
      </trkpt>
      <trkpt lat="42.31762" lon="2.1831">
        <ele>1090.64</ele>
        <time>2021-07-31T10:53:03Z</time>
      </trkpt>
      <trkpt lat="42.31738" lon="2.18319">
        <ele>1090.03</ele>
        <time>2021-07-31T10:53:07Z</time>
      </trkpt>
      <trkpt lat="42.31718" lon="2.18354">
        <ele>1089.58</ele>
        <time>2021-07-31T10:53:10Z</time>
      </trkpt>
      <trkpt lat="42.31699" lon="2.18463">
        <ele>1085.57</ele>
        <time>2021-07-31T10:53:17Z</time>
      </trkpt>
      <trkpt lat="42.317" lon="2.18524">
        <ele>1081.66</ele>
        <time>2021-07-31T10:53:21Z</time>
      </trkpt>
      <trkpt lat="42.31682" lon="2.18551">
        <ele>1077.26</ele>
        <time>2021-07-31T10:53:25Z</time>
      </trkpt>
      <trkpt lat="42.31638" lon="2.18613">
        <ele>1072.29</ele>
        <time>2021-07-31T10:53:32Z</time>
      </trkpt>
      <trkpt lat="42.3162" lon="2.1865">
        <ele>1070.6</ele>
        <time>2021-07-31T10:53:35Z</time>
      </trkpt>
      <trkpt lat="42.31612" lon="2.18714">
        <ele>1066.57</ele>
        <time>2021-07-31T10:53:40Z</time>
      </trkpt>
      <trkpt lat="42.31611" lon="2.18766">
        <ele>1062.84</ele>
        <time>2021-07-31T10:53:44Z</time>
      </trkpt>
      <trkpt lat="42.31603" lon="2.18774">
        <ele>1061.95</ele>
        <time>2021-07-31T10:53:45Z</time>
      </trkpt>
      <trkpt lat="42.31596" lon="2.18845">
        <ele>1059.17</ele>
        <time>2021-07-31T10:53:53Z</time>
      </trkpt>
      <trkpt lat="42.3161" lon="2.18876">
        <ele>1059.42</ele>
        <time>2021-07-31T10:53:56Z</time>
      </trkpt>
      <trkpt lat="42.31594" lon="2.18912">
        <ele>1061.04</ele>
        <time>2021-07-31T10:54:01Z</time>
      </trkpt>
      <trkpt lat="42.31581" lon="2.18986">
        <ele>1060.91</ele>
        <time>2021-07-31T10:54:09Z</time>
      </trkpt>
      <trkpt lat="42.31587" lon="2.1904">
        <ele>1057.06</ele>
        <time>2021-07-31T10:54:16Z</time>
      </trkpt>
      <trkpt lat="42.31571" lon="2.19067">
        <ele>1055.92</ele>
        <time>2021-07-31T10:54:19Z</time>
      </trkpt>
      <trkpt lat="42.31559" lon="2.19084">
        <ele>1054.9</ele>
        <time>2021-07-31T10:54:21Z</time>
      </trkpt>
      <trkpt lat="42.31537" lon="2.1917">
        <ele>1051.32</ele>
        <time>2021-07-31T10:54:27Z</time>
      </trkpt>
      <trkpt lat="42.31498" lon="2.19216">
        <ele>1047.41</ele>
        <time>2021-07-31T10:54:31Z</time>
      </trkpt>
      <trkpt lat="42.31473" lon="2.19257">
        <ele>1042.68</ele>
        <time>2021-07-31T10:54:35Z</time>
      </trkpt>
      <trkpt lat="42.31479" lon="2.19294">
        <ele>1039.22</ele>
        <time>2021-07-31T10:54:39Z</time>
      </trkpt>
      <trkpt lat="42.31481" lon="2.19298">
        <ele>1038.36</ele>
        <time>2021-07-31T10:54:40Z</time>
      </trkpt>
      <trkpt lat="42.31485" lon="2.19305">
        <ele>1035.85</ele>
        <time>2021-07-31T10:54:44Z</time>
      </trkpt>
      <trkpt lat="42.31472" lon="2.19295">
        <ele>1032.9</ele>
        <time>2021-07-31T10:54:53Z</time>
      </trkpt>
      <trkpt lat="42.31468" lon="2.19234">
        <ele>1032.13</ele>
        <time>2021-07-31T10:54:57Z</time>
      </trkpt>
      <trkpt lat="42.3146" lon="2.19079">
        <ele>1029.61</ele>
        <time>2021-07-31T10:55:04Z</time>
      </trkpt>
      <trkpt lat="42.31497" lon="2.18977">
        <ele>1026.59</ele>
        <time>2021-07-31T10:55:10Z</time>
      </trkpt>
      <trkpt lat="42.31512" lon="2.18917">
        <ele>1023.72</ele>
        <time>2021-07-31T10:55:14Z</time>
      </trkpt>
      <trkpt lat="42.3152" lon="2.1886">
        <ele>1019.74</ele>
        <time>2021-07-31T10:55:18Z</time>
      </trkpt>
      <trkpt lat="42.31518" lon="2.18791">
        <ele>1014.81</ele>
        <time>2021-07-31T10:55:23Z</time>
      </trkpt>
      <trkpt lat="42.31523" lon="2.1873">
        <ele>1011.31</ele>
        <time>2021-07-31T10:55:27Z</time>
      </trkpt>
      <trkpt lat="42.31508" lon="2.18683">
        <ele>1007.65</ele>
        <time>2021-07-31T10:55:31Z</time>
      </trkpt>
      <trkpt lat="42.31501" lon="2.18654">
        <ele>1005.96</ele>
        <time>2021-07-31T10:55:33Z</time>
      </trkpt>
      <trkpt lat="42.31461" lon="2.18604">
        <ele>1001.22</ele>
        <time>2021-07-31T10:55:39Z</time>
      </trkpt>
      <trkpt lat="42.3144" lon="2.18553">
        <ele>997.32</ele>
        <time>2021-07-31T10:55:43Z</time>
      </trkpt>
      <trkpt lat="42.31422" lon="2.18524">
        <ele>995.54</ele>
        <time>2021-07-31T10:55:45Z</time>
      </trkpt>
      <trkpt lat="42.31391" lon="2.18487">
        <ele>993.29</ele>
        <time>2021-07-31T10:55:48Z</time>
      </trkpt>
      <trkpt lat="42.31342" lon="2.18483">
        <ele>988.48</ele>
        <time>2021-07-31T10:55:52Z</time>
      </trkpt>
      <trkpt lat="42.31276" lon="2.18453">
        <ele>983.8</ele>
        <time>2021-07-31T10:55:57Z</time>
      </trkpt>
      <trkpt lat="42.31262" lon="2.18445">
        <ele>983.09</ele>
        <time>2021-07-31T10:55:58Z</time>
      </trkpt>
      <trkpt lat="42.31231" lon="2.18408">
        <ele>980.73</ele>
        <time>2021-07-31T10:56:01Z</time>
      </trkpt>
      <trkpt lat="42.312" lon="2.1837">
        <ele>978.17</ele>
        <time>2021-07-31T10:56:04Z</time>
      </trkpt>
      <trkpt lat="42.31183" lon="2.18313">
        <ele>974.15</ele>
        <time>2021-07-31T10:56:08Z</time>
      </trkpt>
      <trkpt lat="42.31184" lon="2.18257">
        <ele>970.91</ele>
        <time>2021-07-31T10:56:11Z</time>
      </trkpt>
      <trkpt lat="42.31195" lon="2.18186">
        <ele>966.56</ele>
        <time>2021-07-31T10:56:15Z</time>
      </trkpt>
      <trkpt lat="42.312" lon="2.18121">
        <ele>961.8</ele>
        <time>2021-07-31T10:56:19Z</time>
      </trkpt>
      <trkpt lat="42.31219" lon="2.18076">
        <ele>958.15</ele>
        <time>2021-07-31T10:56:22Z</time>
      </trkpt>
      <trkpt lat="42.31228" lon="2.18064">
        <ele>957.09</ele>
        <time>2021-07-31T10:56:23Z</time>
      </trkpt>
      <trkpt lat="42.31268" lon="2.17995">
        <ele>952.99</ele>
        <time>2021-07-31T10:56:28Z</time>
      </trkpt>
      <trkpt lat="42.31292" lon="2.17927">
        <ele>950.03</ele>
        <time>2021-07-31T10:56:32Z</time>
      </trkpt>
      <trkpt lat="42.313" lon="2.1781">
        <ele>946.37</ele>
        <time>2021-07-31T10:56:38Z</time>
      </trkpt>
      <trkpt lat="42.31309" lon="2.17669">
        <ele>942.53</ele>
        <time>2021-07-31T10:56:45Z</time>
      </trkpt>
      <trkpt lat="42.31295" lon="2.17612">
        <ele>937.97</ele>
        <time>2021-07-31T10:56:49Z</time>
      </trkpt>
      <trkpt lat="42.3128" lon="2.17589">
        <ele>935.89</ele>
        <time>2021-07-31T10:56:51Z</time>
      </trkpt>
      <trkpt lat="42.31245" lon="2.17535">
        <ele>931.1</ele>
        <time>2021-07-31T10:56:56Z</time>
      </trkpt>
      <trkpt lat="42.31225" lon="2.17507">
        <ele>927.85</ele>
        <time>2021-07-31T10:57:00Z</time>
      </trkpt>
      <trkpt lat="42.31185" lon="2.17449">
        <ele>923.89</ele>
        <time>2021-07-31T10:57:07Z</time>
      </trkpt>
      <trkpt lat="42.31167" lon="2.17427">
        <ele>922.88</ele>
        <time>2021-07-31T10:57:10Z</time>
      </trkpt>
      <trkpt lat="42.31137" lon="2.1741">
        <ele>921.62</ele>
        <time>2021-07-31T10:57:14Z</time>
      </trkpt>
      <trkpt lat="42.31091" lon="2.17396">
        <ele>918.71</ele>
        <time>2021-07-31T10:57:23Z</time>
      </trkpt>
      <trkpt lat="42.31055" lon="2.17375">
        <ele>916.03</ele>
        <time>2021-07-31T10:57:32Z</time>
      </trkpt>
      <trkpt lat="42.31017" lon="2.1734">
        <ele>915.52</ele>
        <time>2021-07-31T10:57:37Z</time>
      </trkpt>
      <trkpt lat="42.30995" lon="2.17295">
        <ele>914.53</ele>
        <time>2021-07-31T10:57:42Z</time>
      </trkpt>
      <trkpt lat="42.3098" lon="2.17247">
        <ele>913.47</ele>
        <time>2021-07-31T10:57:47Z</time>
      </trkpt>
      <trkpt lat="42.30943" lon="2.17194">
        <ele>910.95</ele>
        <time>2021-07-31T10:57:57Z</time>
      </trkpt>
      <trkpt lat="42.30925" lon="2.17151">
        <ele>908.42</ele>
        <time>2021-07-31T10:58:09Z</time>
      </trkpt>
      <trkpt lat="42.30896" lon="2.17091">
        <ele>907.39</ele>
        <time>2021-07-31T10:58:20Z</time>
      </trkpt>
      <trkpt lat="42.30876" lon="2.17066">
        <ele>906.49</ele>
        <time>2021-07-31T10:58:32Z</time>
      </trkpt>
      <trkpt lat="42.30866" lon="2.17061">
        <ele>906.34</ele>
        <time>2021-07-31T10:58:35Z</time>
      </trkpt>
      <trkpt lat="42.30855" lon="2.1706">
        <ele>906.27</ele>
        <time>2021-07-31T10:58:37Z</time>
      </trkpt>
      <trkpt lat="42.30832" lon="2.17064">
        <ele>905.5</ele>
        <time>2021-07-31T10:58:44Z</time>
      </trkpt>
      <trkpt lat="42.30829" lon="2.1707">
        <ele>905.33</ele>
        <time>2021-07-31T10:58:45Z</time>
      </trkpt>
      <trkpt lat="42.30826" lon="2.17075">
        <ele>905.2</ele>
        <time>2021-07-31T10:58:46Z</time>
      </trkpt>
      <trkpt lat="42.30821" lon="2.17079">
        <ele>905.1</ele>
        <time>2021-07-31T10:58:47Z</time>
      </trkpt>
      <trkpt lat="42.30818" lon="2.17082">
        <ele>904.99</ele>
        <time>2021-07-31T10:58:48Z</time>
      </trkpt>
      <trkpt lat="42.30815" lon="2.17085">
        <ele>904.84</ele>
        <time>2021-07-31T10:58:49Z</time>
      </trkpt>
      <trkpt lat="42.3081" lon="2.17087">
        <ele>904.68</ele>
        <time>2021-07-31T10:58:50Z</time>
      </trkpt>
      <trkpt lat="42.30804" lon="2.17087">
        <ele>904.55</ele>
        <time>2021-07-31T10:58:51Z</time>
      </trkpt>
      <trkpt lat="42.30799" lon="2.17086">
        <ele>904.47</ele>
        <time>2021-07-31T10:58:52Z</time>
      </trkpt>
      <trkpt lat="42.30794" lon="2.17087">
        <ele>904.39</ele>
        <time>2021-07-31T10:58:53Z</time>
      </trkpt>
      <trkpt lat="42.3075" lon="2.17083">
        <ele>903.07</ele>
        <time>2021-07-31T10:59:06Z</time>
      </trkpt>
      <trkpt lat="42.3074" lon="2.17081">
        <ele>902.23</ele>
        <time>2021-07-31T10:59:16Z</time>
      </trkpt>
      <trkpt lat="42.30728" lon="2.17057">
        <ele>904.2</ele>
        <time>2021-07-31T11:40:31Z</time>
      </trkpt>
      <trkpt lat="42.30731" lon="2.17054">
        <ele>904.23</ele>
        <time>2021-07-31T11:40:32Z</time>
      </trkpt>
      <trkpt lat="42.3075" lon="2.17024">
        <ele>904.29</ele>
        <time>2021-07-31T11:40:40Z</time>
      </trkpt>
      <trkpt lat="42.30762" lon="2.17019">
        <ele>904.23</ele>
        <time>2021-07-31T11:40:44Z</time>
      </trkpt>
      <trkpt lat="42.30815" lon="2.17013">
        <ele>904.86</ele>
        <time>2021-07-31T11:40:58Z</time>
      </trkpt>
      <trkpt lat="42.30867" lon="2.17001">
        <ele>905.88</ele>
        <time>2021-07-31T11:41:06Z</time>
      </trkpt>
      <trkpt lat="42.30943" lon="2.16986">
        <ele>909.11</ele>
        <time>2021-07-31T11:41:15Z</time>
      </trkpt>
      <trkpt lat="42.30989" lon="2.16978">
        <ele>911.9</ele>
        <time>2021-07-31T11:41:20Z</time>
      </trkpt>
      <trkpt lat="42.31047" lon="2.16995">
        <ele>916.02</ele>
        <time>2021-07-31T11:41:26Z</time>
      </trkpt>
      <trkpt lat="42.31095" lon="2.16997">
        <ele>918.91</ele>
        <time>2021-07-31T11:41:31Z</time>
      </trkpt>
      <trkpt lat="42.31183" lon="2.16951">
        <ele>922.52</ele>
        <time>2021-07-31T11:41:40Z</time>
      </trkpt>
      <trkpt lat="42.31252" lon="2.16911">
        <ele>925.53</ele>
        <time>2021-07-31T11:41:46Z</time>
      </trkpt>
      <trkpt lat="42.31273" lon="2.16898">
        <ele>926.28</ele>
        <time>2021-07-31T11:41:48Z</time>
      </trkpt>
      <trkpt lat="42.31322" lon="2.16847">
        <ele>928.02</ele>
        <time>2021-07-31T11:41:53Z</time>
      </trkpt>
      <trkpt lat="42.31406" lon="2.16801">
        <ele>931.97</ele>
        <time>2021-07-31T11:42:00Z</time>
      </trkpt>
      <trkpt lat="42.31461" lon="2.16778">
        <ele>933.29</ele>
        <time>2021-07-31T11:42:05Z</time>
      </trkpt>
      <trkpt lat="42.31585" lon="2.16746">
        <ele>935.46</ele>
        <time>2021-07-31T11:42:14Z</time>
      </trkpt>
      <trkpt lat="42.316" lon="2.16742">
        <ele>935.82</ele>
        <time>2021-07-31T11:42:15Z</time>
      </trkpt>
      <trkpt lat="42.31718" lon="2.16756">
        <ele>939.33</ele>
        <time>2021-07-31T11:42:23Z</time>
      </trkpt>
      <trkpt lat="42.31762" lon="2.1676">
        <ele>940.16</ele>
        <time>2021-07-31T11:42:26Z</time>
      </trkpt>
      <trkpt lat="42.31806" lon="2.16755">
        <ele>941.42</ele>
        <time>2021-07-31T11:42:29Z</time>
      </trkpt>
      <trkpt lat="42.31892" lon="2.16789">
        <ele>944.4</ele>
        <time>2021-07-31T11:42:35Z</time>
      </trkpt>
      <trkpt lat="42.31906" lon="2.168">
        <ele>944.91</ele>
        <time>2021-07-31T11:42:36Z</time>
      </trkpt>
      <trkpt lat="42.31953" lon="2.16851">
        <ele>947.67</ele>
        <time>2021-07-31T11:42:40Z</time>
      </trkpt>
      <trkpt lat="42.32013" lon="2.16891">
        <ele>950.91</ele>
        <time>2021-07-31T11:42:45Z</time>
      </trkpt>
      <trkpt lat="42.3204" lon="2.16921">
        <ele>953.2</ele>
        <time>2021-07-31T11:42:48Z</time>
      </trkpt>
      <trkpt lat="42.32094" lon="2.1694">
        <ele>957.38</ele>
        <time>2021-07-31T11:42:54Z</time>
      </trkpt>
      <trkpt lat="42.32128" lon="2.16945">
        <ele>958.78</ele>
        <time>2021-07-31T11:42:57Z</time>
      </trkpt>
      <trkpt lat="42.32174" lon="2.16924">
        <ele>960.55</ele>
        <time>2021-07-31T11:43:01Z</time>
      </trkpt>
      <trkpt lat="42.32278" lon="2.16904">
        <ele>962.93</ele>
        <time>2021-07-31T11:43:08Z</time>
      </trkpt>
      <trkpt lat="42.32296" lon="2.16905">
        <ele>963.4</ele>
        <time>2021-07-31T11:43:09Z</time>
      </trkpt>
      <trkpt lat="42.32376" lon="2.16938">
        <ele>965.67</ele>
        <time>2021-07-31T11:43:14Z</time>
      </trkpt>
      <trkpt lat="42.32447" lon="2.16931">
        <ele>968.51</ele>
        <time>2021-07-31T11:43:19Z</time>
      </trkpt>
      <trkpt lat="42.32489" lon="2.16939">
        <ele>970.97</ele>
        <time>2021-07-31T11:43:23Z</time>
      </trkpt>
      <trkpt lat="42.32558" lon="2.16937">
        <ele>975.71</ele>
        <time>2021-07-31T11:43:29Z</time>
      </trkpt>
      <trkpt lat="42.32615" lon="2.16944">
        <ele>978.96</ele>
        <time>2021-07-31T11:43:33Z</time>
      </trkpt>
      <trkpt lat="42.32628" lon="2.1695">
        <ele>979.8</ele>
        <time>2021-07-31T11:43:34Z</time>
      </trkpt>
      <trkpt lat="42.32652" lon="2.16962">
        <ele>981.5</ele>
        <time>2021-07-31T11:43:36Z</time>
      </trkpt>
      <trkpt lat="42.32701" lon="2.16964">
        <ele>983.94</ele>
        <time>2021-07-31T11:43:40Z</time>
      </trkpt>
      <trkpt lat="42.32769" lon="2.16952">
        <ele>987.66</ele>
        <time>2021-07-31T11:43:45Z</time>
      </trkpt>
      <trkpt lat="42.32815" lon="2.16948">
        <ele>990.35</ele>
        <time>2021-07-31T11:43:48Z</time>
      </trkpt>
      <trkpt lat="42.32895" lon="2.16937">
        <ele>994.5</ele>
        <time>2021-07-31T11:43:53Z</time>
      </trkpt>
      <trkpt lat="42.32981" lon="2.16947">
        <ele>997.57</ele>
        <time>2021-07-31T11:43:58Z</time>
      </trkpt>
      <trkpt lat="42.33011" lon="2.1695">
        <ele>998.34</ele>
        <time>2021-07-31T11:44:00Z</time>
      </trkpt>
      <trkpt lat="42.33052" lon="2.16935">
        <ele>999.08</ele>
        <time>2021-07-31T11:44:03Z</time>
      </trkpt>
      <trkpt lat="42.33134" lon="2.16962">
        <ele>1000.03</ele>
        <time>2021-07-31T11:44:09Z</time>
      </trkpt>
      <trkpt lat="42.33227" lon="2.17066">
        <ele>1003.64</ele>
        <time>2021-07-31T11:44:17Z</time>
      </trkpt>
      <trkpt lat="42.33236" lon="2.1708">
        <ele>1004.26</ele>
        <time>2021-07-31T11:44:18Z</time>
      </trkpt>
      <trkpt lat="42.33277" lon="2.17102">
        <ele>1007.69</ele>
        <time>2021-07-31T11:44:22Z</time>
      </trkpt>
      <trkpt lat="42.33314" lon="2.17093">
        <ele>1009.84</ele>
        <time>2021-07-31T11:44:25Z</time>
      </trkpt>
      <trkpt lat="42.33374" lon="2.17071">
        <ele>1014.23</ele>
        <time>2021-07-31T11:44:30Z</time>
      </trkpt>
      <trkpt lat="42.33405" lon="2.17095">
        <ele>1016.94</ele>
        <time>2021-07-31T11:44:33Z</time>
      </trkpt>
      <trkpt lat="42.33415" lon="2.17106">
        <ele>1017.7</ele>
        <time>2021-07-31T11:44:34Z</time>
      </trkpt>
      <trkpt lat="42.3347" lon="2.17154">
        <ele>1019.65</ele>
        <time>2021-07-31T11:44:39Z</time>
      </trkpt>
      <trkpt lat="42.3348" lon="2.17158">
        <ele>1019.71</ele>
        <time>2021-07-31T11:44:40Z</time>
      </trkpt>
      <trkpt lat="42.3349" lon="2.17158">
        <ele>1019.66</ele>
        <time>2021-07-31T11:44:41Z</time>
      </trkpt>
      <trkpt lat="42.33499" lon="2.17154">
        <ele>1019.52</ele>
        <time>2021-07-31T11:44:42Z</time>
      </trkpt>
      <trkpt lat="42.33513" lon="2.17144">
        <ele>1018.78</ele>
        <time>2021-07-31T11:44:44Z</time>
      </trkpt>
      <trkpt lat="42.33545" lon="2.17137">
        <ele>1014.61</ele>
        <time>2021-07-31T11:44:51Z</time>
      </trkpt>
      <trkpt lat="42.3355" lon="2.17142">
        <ele>1014.18</ele>
        <time>2021-07-31T11:44:52Z</time>
      </trkpt>
      <trkpt lat="42.33564" lon="2.17153">
        <ele>1013.59</ele>
        <time>2021-07-31T11:44:54Z</time>
      </trkpt>
      <trkpt lat="42.33614" lon="2.17148">
        <ele>1013.38</ele>
        <time>2021-07-31T11:44:59Z</time>
      </trkpt>
      <trkpt lat="42.33685" lon="2.17128">
        <ele>1014.24</ele>
        <time>2021-07-31T11:45:04Z</time>
      </trkpt>
      <trkpt lat="42.33805" lon="2.17142">
        <ele>1017.9</ele>
        <time>2021-07-31T11:45:12Z</time>
      </trkpt>
      <trkpt lat="42.3382" lon="2.17143">
        <ele>1018.56</ele>
        <time>2021-07-31T11:45:13Z</time>
      </trkpt>
      <trkpt lat="42.3391" lon="2.17094">
        <ele>1021.94</ele>
        <time>2021-07-31T11:45:20Z</time>
      </trkpt>
      <trkpt lat="42.33972" lon="2.16994">
        <ele>1024.96</ele>
        <time>2021-07-31T11:45:28Z</time>
      </trkpt>
      <trkpt lat="42.33972" lon="2.16914">
        <ele>1025.81</ele>
        <time>2021-07-31T11:45:33Z</time>
      </trkpt>
      <trkpt lat="42.33993" lon="2.16851">
        <ele>1026.96</ele>
        <time>2021-07-31T11:45:37Z</time>
      </trkpt>
      <trkpt lat="42.34071" lon="2.16755">
        <ele>1030.53</ele>
        <time>2021-07-31T11:45:44Z</time>
      </trkpt>
      <trkpt lat="42.34121" lon="2.167">
        <ele>1033.97</ele>
        <time>2021-07-31T11:45:49Z</time>
      </trkpt>
      <trkpt lat="42.34141" lon="2.16683">
        <ele>1035.44</ele>
        <time>2021-07-31T11:45:52Z</time>
      </trkpt>
      <trkpt lat="42.34157" lon="2.16685">
        <ele>1036.36</ele>
        <time>2021-07-31T11:45:56Z</time>
      </trkpt>
      <trkpt lat="42.3416" lon="2.16679">
        <ele>1037.18</ele>
        <time>2021-07-31T11:46:03Z</time>
      </trkpt>
      <trkpt lat="42.34138" lon="2.16679">
        <ele>1037.72</ele>
        <time>2021-07-31T11:46:09Z</time>
      </trkpt>
      <trkpt lat="42.34097" lon="2.16698">
        <ele>1041.23</ele>
        <time>2021-07-31T11:46:20Z</time>
      </trkpt>
      <trkpt lat="42.34095" lon="2.16698">
        <ele>1041.97</ele>
        <time>2021-07-31T11:46:22Z</time>
      </trkpt>
      <trkpt lat="42.34092" lon="2.16697">
        <ele>1042.73</ele>
        <time>2021-07-31T11:46:24Z</time>
      </trkpt>
      <trkpt lat="42.341" lon="2.16674">
        <ele>1045.42</ele>
        <time>2021-07-31T11:46:33Z</time>
      </trkpt>
      <trkpt lat="42.3409" lon="2.16662">
        <ele>1048.29</ele>
        <time>2021-07-31T11:46:39Z</time>
      </trkpt>
      <trkpt lat="42.34086" lon="2.16667">
        <ele>1048.8</ele>
        <time>2021-07-31T11:46:40Z</time>
      </trkpt>
      <trkpt lat="42.34044" lon="2.16704">
        <ele>1053.09</ele>
        <time>2021-07-31T11:46:46Z</time>
      </trkpt>
      <trkpt lat="42.34031" lon="2.16715">
        <ele>1055.09</ele>
        <time>2021-07-31T11:46:48Z</time>
      </trkpt>
      <trkpt lat="42.34021" lon="2.16712">
        <ele>1059.87</ele>
        <time>2021-07-31T11:46:53Z</time>
      </trkpt>
      <trkpt lat="42.34031" lon="2.16694">
        <ele>1063.48</ele>
        <time>2021-07-31T11:46:57Z</time>
      </trkpt>
      <trkpt lat="42.34047" lon="2.16669">
        <ele>1065.81</ele>
        <time>2021-07-31T11:47:00Z</time>
      </trkpt>
      <trkpt lat="42.34059" lon="2.16648">
        <ele>1067.7</ele>
        <time>2021-07-31T11:47:02Z</time>
      </trkpt>
      <trkpt lat="42.3407" lon="2.16601">
        <ele>1071.9</ele>
        <time>2021-07-31T11:47:06Z</time>
      </trkpt>
      <trkpt lat="42.34074" lon="2.16581">
        <ele>1074.04</ele>
        <time>2021-07-31T11:47:08Z</time>
      </trkpt>
      <trkpt lat="42.34077" lon="2.16563">
        <ele>1076.05</ele>
        <time>2021-07-31T11:47:10Z</time>
      </trkpt>
      <trkpt lat="42.34089" lon="2.16553">
        <ele>1079.36</ele>
        <time>2021-07-31T11:47:13Z</time>
      </trkpt>
      <trkpt lat="42.3412" lon="2.16557">
        <ele>1083.87</ele>
        <time>2021-07-31T11:47:17Z</time>
      </trkpt>
      <trkpt lat="42.34147" lon="2.16557">
        <ele>1086.71</ele>
        <time>2021-07-31T11:47:20Z</time>
      </trkpt>
      <trkpt lat="42.34191" lon="2.1657">
        <ele>1091</ele>
        <time>2021-07-31T11:47:25Z</time>
      </trkpt>
      <trkpt lat="42.34198" lon="2.16572">
        <ele>1091.81</ele>
        <time>2021-07-31T11:47:26Z</time>
      </trkpt>
      <trkpt lat="42.34219" lon="2.16568">
        <ele>1095.77</ele>
        <time>2021-07-31T11:47:31Z</time>
      </trkpt>
      <trkpt lat="42.34202" lon="2.16555">
        <ele>1098.91</ele>
        <time>2021-07-31T11:47:35Z</time>
      </trkpt>
      <trkpt lat="42.34159" lon="2.16525">
        <ele>1104.01</ele>
        <time>2021-07-31T11:47:40Z</time>
      </trkpt>
      <trkpt lat="42.3414" lon="2.16516">
        <ele>1105.97</ele>
        <time>2021-07-31T11:47:42Z</time>
      </trkpt>
      <trkpt lat="42.34125" lon="2.16497">
        <ele>1109.97</ele>
        <time>2021-07-31T11:47:47Z</time>
      </trkpt>
      <trkpt lat="42.3414" lon="2.16498">
        <ele>1112.51</ele>
        <time>2021-07-31T11:47:50Z</time>
      </trkpt>
      <trkpt lat="42.34164" lon="2.16503">
        <ele>1114.69</ele>
        <time>2021-07-31T11:47:53Z</time>
      </trkpt>
      <trkpt lat="42.34212" lon="2.16492">
        <ele>1118.6</ele>
        <time>2021-07-31T11:47:58Z</time>
      </trkpt>
      <trkpt lat="42.34233" lon="2.16481">
        <ele>1120.9</ele>
        <time>2021-07-31T11:48:01Z</time>
      </trkpt>
      <trkpt lat="42.34262" lon="2.16448">
        <ele>1124.81</ele>
        <time>2021-07-31T11:48:07Z</time>
      </trkpt>
      <trkpt lat="42.34258" lon="2.16427">
        <ele>1128.88</ele>
        <time>2021-07-31T11:48:13Z</time>
      </trkpt>
      <trkpt lat="42.34253" lon="2.16429">
        <ele>1129.48</ele>
        <time>2021-07-31T11:48:14Z</time>
      </trkpt>
      <trkpt lat="42.34212" lon="2.16428">
        <ele>1133.36</ele>
        <time>2021-07-31T11:48:19Z</time>
      </trkpt>
      <trkpt lat="42.34171" lon="2.16419">
        <ele>1137.77</ele>
        <time>2021-07-31T11:48:23Z</time>
      </trkpt>
      <trkpt lat="42.34142" lon="2.16414">
        <ele>1141.78</ele>
        <time>2021-07-31T11:48:26Z</time>
      </trkpt>
      <trkpt lat="42.34119" lon="2.16412">
        <ele>1145.95</ele>
        <time>2021-07-31T11:48:29Z</time>
      </trkpt>
      <trkpt lat="42.34095" lon="2.16418">
        <ele>1150.1</ele>
        <time>2021-07-31T11:48:32Z</time>
      </trkpt>
      <trkpt lat="42.34065" lon="2.16403">
        <ele>1155.59</ele>
        <time>2021-07-31T11:48:36Z</time>
      </trkpt>
      <trkpt lat="42.34037" lon="2.16384">
        <ele>1160.06</ele>
        <time>2021-07-31T11:48:39Z</time>
      </trkpt>
      <trkpt lat="42.3402" lon="2.16372">
        <ele>1163.43</ele>
        <time>2021-07-31T11:48:41Z</time>
      </trkpt>
      <trkpt lat="42.34002" lon="2.16362">
        <ele>1166.68</ele>
        <time>2021-07-31T11:48:43Z</time>
      </trkpt>
      <trkpt lat="42.33975" lon="2.16356">
        <ele>1171.38</ele>
        <time>2021-07-31T11:48:46Z</time>
      </trkpt>
      <trkpt lat="42.3395" lon="2.16361">
        <ele>1175.49</ele>
        <time>2021-07-31T11:48:49Z</time>
      </trkpt>
      <trkpt lat="42.33914" lon="2.16356">
        <ele>1182.04</ele>
        <time>2021-07-31T11:48:54Z</time>
      </trkpt>
      <trkpt lat="42.33889" lon="2.16373">
        <ele>1186.38</ele>
        <time>2021-07-31T11:48:58Z</time>
      </trkpt>
      <trkpt lat="42.3389" lon="2.16439">
        <ele>1190.23</ele>
        <time>2021-07-31T11:49:02Z</time>
      </trkpt>
      <trkpt lat="42.33877" lon="2.16503">
        <ele>1195.77</ele>
        <time>2021-07-31T11:49:07Z</time>
      </trkpt>
      <trkpt lat="42.33858" lon="2.16531">
        <ele>1199.72</ele>
        <time>2021-07-31T11:49:10Z</time>
      </trkpt>
      <trkpt lat="42.33827" lon="2.16544">
        <ele>1204.21</ele>
        <time>2021-07-31T11:49:13Z</time>
      </trkpt>
      <trkpt lat="42.33815" lon="2.16545">
        <ele>1205.83</ele>
        <time>2021-07-31T11:49:14Z</time>
      </trkpt>
      <trkpt lat="42.33787" lon="2.16557">
        <ele>1210.85</ele>
        <time>2021-07-31T11:49:17Z</time>
      </trkpt>
      <trkpt lat="42.33768" lon="2.16567">
        <ele>1216.31</ele>
        <time>2021-07-31T11:49:19Z</time>
      </trkpt>
      <trkpt lat="42.33755" lon="2.16585">
        <ele>1220.19</ele>
        <time>2021-07-31T11:49:21Z</time>
      </trkpt>
      <trkpt lat="42.33746" lon="2.16589">
        <ele>1222.08</ele>
        <time>2021-07-31T11:49:22Z</time>
      </trkpt>
      <trkpt lat="42.33732" lon="2.16599">
        <ele>1225.53</ele>
        <time>2021-07-31T11:49:24Z</time>
      </trkpt>
      <trkpt lat="42.33704" lon="2.16589">
        <ele>1230.98</ele>
        <time>2021-07-31T11:49:28Z</time>
      </trkpt>
      <trkpt lat="42.33692" lon="2.16581">
        <ele>1233.29</ele>
        <time>2021-07-31T11:49:30Z</time>
      </trkpt>
      <trkpt lat="42.33688" lon="2.16579">
        <ele>1234.21</ele>
        <time>2021-07-31T11:49:31Z</time>
      </trkpt>
      <trkpt lat="42.33684" lon="2.16578">
        <ele>1235.15</ele>
        <time>2021-07-31T11:49:32Z</time>
      </trkpt>
      <trkpt lat="42.33681" lon="2.16575">
        <ele>1235.96</ele>
        <time>2021-07-31T11:49:33Z</time>
      </trkpt>
      <trkpt lat="42.33678" lon="2.1657">
        <ele>1236.62</ele>
        <time>2021-07-31T11:49:34Z</time>
      </trkpt>
      <trkpt lat="42.33678" lon="2.16564">
        <ele>1237.27</ele>
        <time>2021-07-31T11:49:35Z</time>
      </trkpt>
      <trkpt lat="42.33682" lon="2.16559">
        <ele>1237.93</ele>
        <time>2021-07-31T11:49:36Z</time>
      </trkpt>
      <trkpt lat="42.33687" lon="2.16556">
        <ele>1238.51</ele>
        <time>2021-07-31T11:49:37Z</time>
      </trkpt>
      <trkpt lat="42.33698" lon="2.16554">
        <ele>1239.78</ele>
        <time>2021-07-31T11:49:39Z</time>
      </trkpt>
      <trkpt lat="42.33704" lon="2.16553">
        <ele>1240.35</ele>
        <time>2021-07-31T11:49:40Z</time>
      </trkpt>
      <trkpt lat="42.33709" lon="2.1655">
        <ele>1240.83</ele>
        <time>2021-07-31T11:49:41Z</time>
      </trkpt>
      <trkpt lat="42.33726" lon="2.16528">
        <ele>1242.32</ele>
        <time>2021-07-31T11:49:44Z</time>
      </trkpt>
      <trkpt lat="42.33753" lon="2.16475">
        <ele>1246.16</ele>
        <time>2021-07-31T11:49:50Z</time>
      </trkpt>
      <trkpt lat="42.33763" lon="2.16449">
        <ele>1249.99</ele>
        <time>2021-07-31T11:49:54Z</time>
      </trkpt>
      <trkpt lat="42.33771" lon="2.16429">
        <ele>1252.19</ele>
        <time>2021-07-31T11:49:57Z</time>
      </trkpt>
      <trkpt lat="42.33773" lon="2.16394">
        <ele>1254.66</ele>
        <time>2021-07-31T11:50:01Z</time>
      </trkpt>
      <trkpt lat="42.33766" lon="2.16335">
        <ele>1258.64</ele>
        <time>2021-07-31T11:50:07Z</time>
      </trkpt>
      <trkpt lat="42.33741" lon="2.16316">
        <ele>1263.04</ele>
        <time>2021-07-31T11:50:12Z</time>
      </trkpt>
      <trkpt lat="42.33726" lon="2.16317">
        <ele>1264.93</ele>
        <time>2021-07-31T11:50:14Z</time>
      </trkpt>
      <trkpt lat="42.3372" lon="2.16312">
        <ele>1266</ele>
        <time>2021-07-31T11:50:15Z</time>
      </trkpt>
      <trkpt lat="42.33717" lon="2.16303">
        <ele>1267.08</ele>
        <time>2021-07-31T11:50:16Z</time>
      </trkpt>
      <trkpt lat="42.33731" lon="2.16278">
        <ele>1270.11</ele>
        <time>2021-07-31T11:50:19Z</time>
      </trkpt>
      <trkpt lat="42.33739" lon="2.16269">
        <ele>1271.18</ele>
        <time>2021-07-31T11:50:20Z</time>
      </trkpt>
      <trkpt lat="42.33773" lon="2.16224">
        <ele>1275.61</ele>
        <time>2021-07-31T11:50:24Z</time>
      </trkpt>
      <trkpt lat="42.338" lon="2.16188">
        <ele>1279.33</ele>
        <time>2021-07-31T11:50:27Z</time>
      </trkpt>
      <trkpt lat="42.33814" lon="2.16166">
        <ele>1282.13</ele>
        <time>2021-07-31T11:50:29Z</time>
      </trkpt>
      <trkpt lat="42.33818" lon="2.16155">
        <ele>1283.54</ele>
        <time>2021-07-31T11:50:30Z</time>
      </trkpt>
      <trkpt lat="42.3382" lon="2.16144">
        <ele>1284.94</ele>
        <time>2021-07-31T11:50:31Z</time>
      </trkpt>
      <trkpt lat="42.3382" lon="2.16131">
        <ele>1287.64</ele>
        <time>2021-07-31T11:50:33Z</time>
      </trkpt>
      <trkpt lat="42.33811" lon="2.16127">
        <ele>1291.27</ele>
        <time>2021-07-31T11:50:36Z</time>
      </trkpt>
      <trkpt lat="42.33803" lon="2.16131">
        <ele>1292.35</ele>
        <time>2021-07-31T11:50:37Z</time>
      </trkpt>
      <trkpt lat="42.3375" lon="2.16134">
        <ele>1297.66</ele>
        <time>2021-07-31T11:50:42Z</time>
      </trkpt>
      <trkpt lat="42.33712" lon="2.16133">
        <ele>1301.22</ele>
        <time>2021-07-31T11:50:45Z</time>
      </trkpt>
      <trkpt lat="42.33699" lon="2.16133">
        <ele>1302.45</ele>
        <time>2021-07-31T11:50:46Z</time>
      </trkpt>
      <trkpt lat="42.33657" lon="2.16115">
        <ele>1307.76</ele>
        <time>2021-07-31T11:50:50Z</time>
      </trkpt>
      <trkpt lat="42.3364" lon="2.16096">
        <ele>1310.07</ele>
        <time>2021-07-31T11:50:52Z</time>
      </trkpt>
      <trkpt lat="42.33611" lon="2.16078">
        <ele>1313.67</ele>
        <time>2021-07-31T11:50:55Z</time>
      </trkpt>
      <trkpt lat="42.33588" lon="2.16051">
        <ele>1317.85</ele>
        <time>2021-07-31T11:50:59Z</time>
      </trkpt>
      <trkpt lat="42.33615" lon="2.16053">
        <ele>1320.9</ele>
        <time>2021-07-31T11:51:03Z</time>
      </trkpt>
      <trkpt lat="42.33643" lon="2.16041">
        <ele>1323.05</ele>
        <time>2021-07-31T11:51:06Z</time>
      </trkpt>
      <trkpt lat="42.33698" lon="2.16">
        <ele>1327.8</ele>
        <time>2021-07-31T11:51:11Z</time>
      </trkpt>
      <trkpt lat="42.3373" lon="2.15969">
        <ele>1331.44</ele>
        <time>2021-07-31T11:51:14Z</time>
      </trkpt>
      <trkpt lat="42.33757" lon="2.15945">
        <ele>1335.04</ele>
        <time>2021-07-31T11:51:17Z</time>
      </trkpt>
      <trkpt lat="42.33786" lon="2.15917">
        <ele>1339.02</ele>
        <time>2021-07-31T11:51:20Z</time>
      </trkpt>
      <trkpt lat="42.33816" lon="2.1589">
        <ele>1343.2</ele>
        <time>2021-07-31T11:51:23Z</time>
      </trkpt>
      <trkpt lat="42.3384" lon="2.1587">
        <ele>1347.23</ele>
        <time>2021-07-31T11:51:26Z</time>
      </trkpt>
      <trkpt lat="42.33884" lon="2.15861">
        <ele>1352.16</ele>
        <time>2021-07-31T11:51:31Z</time>
      </trkpt>
      <trkpt lat="42.33945" lon="2.1587">
        <ele>1356.32</ele>
        <time>2021-07-31T11:51:37Z</time>
      </trkpt>
      <trkpt lat="42.33966" lon="2.15873">
        <ele>1357.37</ele>
        <time>2021-07-31T11:51:39Z</time>
      </trkpt>
      <trkpt lat="42.34029" lon="2.15851">
        <ele>1361.07</ele>
        <time>2021-07-31T11:51:46Z</time>
      </trkpt>
      <trkpt lat="42.34034" lon="2.1584">
        <ele>1361.73</ele>
        <time>2021-07-31T11:51:47Z</time>
      </trkpt>
      <trkpt lat="42.34051" lon="2.15807">
        <ele>1363.32</ele>
        <time>2021-07-31T11:51:50Z</time>
      </trkpt>
      <trkpt lat="42.34052" lon="2.15721">
        <ele>1367.51</ele>
        <time>2021-07-31T11:51:56Z</time>
      </trkpt>
      <trkpt lat="42.34046" lon="2.15641">
        <ele>1372.21</ele>
        <time>2021-07-31T11:52:01Z</time>
      </trkpt>
      <trkpt lat="42.34051" lon="2.15596">
        <ele>1376.56</ele>
        <time>2021-07-31T11:52:04Z</time>
      </trkpt>
      <trkpt lat="42.34056" lon="2.15549">
        <ele>1381</ele>
        <time>2021-07-31T11:52:07Z</time>
      </trkpt>
      <trkpt lat="42.3406" lon="2.15503">
        <ele>1385.34</ele>
        <time>2021-07-31T11:52:10Z</time>
      </trkpt>
      <trkpt lat="42.34062" lon="2.15469">
        <ele>1389.12</ele>
        <time>2021-07-31T11:52:13Z</time>
      </trkpt>
      <trkpt lat="42.34069" lon="2.15441">
        <ele>1393.99</ele>
        <time>2021-07-31T11:52:18Z</time>
      </trkpt>
      <trkpt lat="42.34068" lon="2.15436">
        <ele>1395.1</ele>
        <time>2021-07-31T11:52:20Z</time>
      </trkpt>
      <trkpt lat="42.34066" lon="2.15434">
        <ele>1396.03</ele>
        <time>2021-07-31T11:52:22Z</time>
      </trkpt>
      <trkpt lat="42.34061" lon="2.15443">
        <ele>1397.29</ele>
        <time>2021-07-31T11:52:26Z</time>
      </trkpt>
      <trkpt lat="42.34034" lon="2.15501">
        <ele>1399.49</ele>
        <time>2021-07-31T11:52:33Z</time>
      </trkpt>
      <trkpt lat="42.33987" lon="2.15546">
        <ele>1401.92</ele>
        <time>2021-07-31T11:52:39Z</time>
      </trkpt>
      <trkpt lat="42.33868" lon="2.15628">
        <ele>1404.7</ele>
        <time>2021-07-31T11:52:52Z</time>
      </trkpt>
      <trkpt lat="42.33769" lon="2.15669">
        <ele>1405.89</ele>
        <time>2021-07-31T11:53:01Z</time>
      </trkpt>
      <trkpt lat="42.33655" lon="2.15736">
        <ele>1408.52</ele>
        <time>2021-07-31T11:53:10Z</time>
      </trkpt>
      <trkpt lat="42.33629" lon="2.15746">
        <ele>1409.24</ele>
        <time>2021-07-31T11:53:12Z</time>
      </trkpt>
      <trkpt lat="42.33562" lon="2.15755">
        <ele>1411.41</ele>
        <time>2021-07-31T11:53:17Z</time>
      </trkpt>
      <trkpt lat="42.33514" lon="2.15745">
        <ele>1412.49</ele>
        <time>2021-07-31T11:53:21Z</time>
      </trkpt>
      <trkpt lat="42.33465" lon="2.15769">
        <ele>1413.79</ele>
        <time>2021-07-31T11:53:26Z</time>
      </trkpt>
      <trkpt lat="42.33361" lon="2.15866">
        <ele>1417.08</ele>
        <time>2021-07-31T11:53:36Z</time>
      </trkpt>
      <trkpt lat="42.33325" lon="2.15882">
        <ele>1418.53</ele>
        <time>2021-07-31T11:53:40Z</time>
      </trkpt>
      <trkpt lat="42.33298" lon="2.15877">
        <ele>1419.92</ele>
        <time>2021-07-31T11:53:45Z</time>
      </trkpt>
      <trkpt lat="42.33222" lon="2.15817">
        <ele>1421.94</ele>
        <time>2021-07-31T11:53:53Z</time>
      </trkpt>
      <trkpt lat="42.33115" lon="2.15725">
        <ele>1425.17</ele>
        <time>2021-07-31T11:54:03Z</time>
      </trkpt>
      <trkpt lat="42.33058" lon="2.15689">
        <ele>1427.06</ele>
        <time>2021-07-31T11:54:08Z</time>
      </trkpt>
      <trkpt lat="42.32993" lon="2.15707">
        <ele>1430.38</ele>
        <time>2021-07-31T11:54:14Z</time>
      </trkpt>
      <trkpt lat="42.32918" lon="2.15699">
        <ele>1434.13</ele>
        <time>2021-07-31T11:54:21Z</time>
      </trkpt>
      <trkpt lat="42.32844" lon="2.15696">
        <ele>1437.44</ele>
        <time>2021-07-31T11:54:27Z</time>
      </trkpt>
      <trkpt lat="42.32822" lon="2.15691">
        <ele>1438.31</ele>
        <time>2021-07-31T11:54:29Z</time>
      </trkpt>
      <trkpt lat="42.32782" lon="2.15633">
        <ele>1440.8</ele>
        <time>2021-07-31T11:54:35Z</time>
      </trkpt>
      <trkpt lat="42.32772" lon="2.15611">
        <ele>1442.31</ele>
        <time>2021-07-31T11:54:38Z</time>
      </trkpt>
      <trkpt lat="42.32772" lon="2.15594">
        <ele>1445.94</ele>
        <time>2021-07-31T11:54:47Z</time>
      </trkpt>
      <trkpt lat="42.32772" lon="2.15593">
        <ele>1447.58</ele>
        <time>2021-07-31T11:55:22Z</time>
      </trkpt>
      <trkpt lat="42.32769" lon="2.15588">
        <ele>1447.63</ele>
        <time>2021-07-31T11:55:24Z</time>
      </trkpt>
      <trkpt lat="42.32755" lon="2.1555">
        <ele>1448.17</ele>
        <time>2021-07-31T11:55:29Z</time>
      </trkpt>
      <trkpt lat="42.32693" lon="2.15479">
        <ele>1452.05</ele>
        <time>2021-07-31T11:55:38Z</time>
      </trkpt>
      <trkpt lat="42.32677" lon="2.15453">
        <ele>1454.19</ele>
        <time>2021-07-31T11:55:41Z</time>
      </trkpt>
      <trkpt lat="42.32678" lon="2.15386">
        <ele>1458.17</ele>
        <time>2021-07-31T11:55:47Z</time>
      </trkpt>
      <trkpt lat="42.3268" lon="2.15299">
        <ele>1462.39</ele>
        <time>2021-07-31T11:55:54Z</time>
      </trkpt>
      <trkpt lat="42.32681" lon="2.15232">
        <ele>1466.6</ele>
        <time>2021-07-31T11:55:59Z</time>
      </trkpt>
      <trkpt lat="42.32682" lon="2.15167">
        <ele>1470.3</ele>
        <time>2021-07-31T11:56:04Z</time>
      </trkpt>
      <trkpt lat="42.32689" lon="2.15103">
        <ele>1473.98</ele>
        <time>2021-07-31T11:56:09Z</time>
      </trkpt>
      <trkpt lat="42.32701" lon="2.15048">
        <ele>1477.24</ele>
        <time>2021-07-31T11:56:13Z</time>
      </trkpt>
      <trkpt lat="42.32712" lon="2.1499">
        <ele>1480.75</ele>
        <time>2021-07-31T11:56:17Z</time>
      </trkpt>
      <trkpt lat="42.32719" lon="2.14933">
        <ele>1484.52</ele>
        <time>2021-07-31T11:56:21Z</time>
      </trkpt>
      <trkpt lat="42.32726" lon="2.14897">
        <ele>1487.18</ele>
        <time>2021-07-31T11:56:24Z</time>
      </trkpt>
      <trkpt lat="42.32703" lon="2.14872">
        <ele>1490.51</ele>
        <time>2021-07-31T11:56:29Z</time>
      </trkpt>
      <trkpt lat="42.32679" lon="2.14876">
        <ele>1491.43</ele>
        <time>2021-07-31T11:56:31Z</time>
      </trkpt>
      <trkpt lat="42.32614" lon="2.14894">
        <ele>1494.14</ele>
        <time>2021-07-31T11:56:36Z</time>
      </trkpt>
      <trkpt lat="42.32576" lon="2.14892">
        <ele>1496.07</ele>
        <time>2021-07-31T11:56:39Z</time>
      </trkpt>
      <trkpt lat="42.32513" lon="2.14872">
        <ele>1499.82</ele>
        <time>2021-07-31T11:56:44Z</time>
      </trkpt>
      <trkpt lat="42.32489" lon="2.14861">
        <ele>1501.38</ele>
        <time>2021-07-31T11:56:46Z</time>
      </trkpt>
      <trkpt lat="42.32444" lon="2.14807">
        <ele>1505.93</ele>
        <time>2021-07-31T11:56:51Z</time>
      </trkpt>
      <trkpt lat="42.3242" lon="2.14768">
        <ele>1509.02</ele>
        <time>2021-07-31T11:56:54Z</time>
      </trkpt>
      <trkpt lat="42.32399" lon="2.14724">
        <ele>1512.03</ele>
        <time>2021-07-31T11:56:57Z</time>
      </trkpt>
      <trkpt lat="42.32368" lon="2.14675">
        <ele>1516.16</ele>
        <time>2021-07-31T11:57:01Z</time>
      </trkpt>
      <trkpt lat="42.32365" lon="2.14608">
        <ele>1520.83</ele>
        <time>2021-07-31T11:57:06Z</time>
      </trkpt>
      <trkpt lat="42.32371" lon="2.14594">
        <ele>1521.76</ele>
        <time>2021-07-31T11:57:07Z</time>
      </trkpt>
      <trkpt lat="42.32392" lon="2.14534">
        <ele>1526.44</ele>
        <time>2021-07-31T11:57:12Z</time>
      </trkpt>
      <trkpt lat="42.32402" lon="2.14516">
        <ele>1528.1</ele>
        <time>2021-07-31T11:57:14Z</time>
      </trkpt>
      <trkpt lat="42.32431" lon="2.14477">
        <ele>1531.54</ele>
        <time>2021-07-31T11:57:18Z</time>
      </trkpt>
      <trkpt lat="42.32459" lon="2.14407">
        <ele>1535.42</ele>
        <time>2021-07-31T11:57:23Z</time>
      </trkpt>
      <trkpt lat="42.32483" lon="2.14354">
        <ele>1539.03</ele>
        <time>2021-07-31T11:57:27Z</time>
      </trkpt>
      <trkpt lat="42.32494" lon="2.14331">
        <ele>1540.94</ele>
        <time>2021-07-31T11:57:29Z</time>
      </trkpt>
      <trkpt lat="42.325" lon="2.1427">
        <ele>1544.74</ele>
        <time>2021-07-31T11:57:33Z</time>
      </trkpt>
      <trkpt lat="42.32498" lon="2.14183">
        <ele>1548.87</ele>
        <time>2021-07-31T11:57:38Z</time>
      </trkpt>
      <trkpt lat="42.32498" lon="2.14132">
        <ele>1552.66</ele>
        <time>2021-07-31T11:57:41Z</time>
      </trkpt>
      <trkpt lat="42.32498" lon="2.14078">
        <ele>1555.79</ele>
        <time>2021-07-31T11:57:44Z</time>
      </trkpt>
      <trkpt lat="42.3249" lon="2.14009">
        <ele>1559.54</ele>
        <time>2021-07-31T11:57:48Z</time>
      </trkpt>
      <trkpt lat="42.32481" lon="2.1396">
        <ele>1562.72</ele>
        <time>2021-07-31T11:57:51Z</time>
      </trkpt>
      <trkpt lat="42.32472" lon="2.13918">
        <ele>1565.52</ele>
        <time>2021-07-31T11:57:54Z</time>
      </trkpt>
      <trkpt lat="42.32471" lon="2.13853">
        <ele>1570.36</ele>
        <time>2021-07-31T11:57:59Z</time>
      </trkpt>
      <trkpt lat="42.32481" lon="2.13797">
        <ele>1573.81</ele>
        <time>2021-07-31T11:58:03Z</time>
      </trkpt>
      <trkpt lat="42.32492" lon="2.13764">
        <ele>1576.84</ele>
        <time>2021-07-31T11:58:06Z</time>
      </trkpt>
      <trkpt lat="42.32517" lon="2.13733">
        <ele>1580.08</ele>
        <time>2021-07-31T11:58:10Z</time>
      </trkpt>
      <trkpt lat="42.32554" lon="2.13704">
        <ele>1584.11</ele>
        <time>2021-07-31T11:58:15Z</time>
      </trkpt>
      <trkpt lat="42.3259" lon="2.13679">
        <ele>1587.09</ele>
        <time>2021-07-31T11:58:19Z</time>
      </trkpt>
      <trkpt lat="42.32598" lon="2.13632">
        <ele>1590.16</ele>
        <time>2021-07-31T11:58:23Z</time>
      </trkpt>
      <trkpt lat="42.32625" lon="2.13581">
        <ele>1593.01</ele>
        <time>2021-07-31T11:58:28Z</time>
      </trkpt>
      <trkpt lat="42.32683" lon="2.1351">
        <ele>1596.71</ele>
        <time>2021-07-31T11:58:36Z</time>
      </trkpt>
      <trkpt lat="42.32741" lon="2.13403">
        <ele>1599.79</ele>
        <time>2021-07-31T11:58:44Z</time>
      </trkpt>
      <trkpt lat="42.32794" lon="2.13285">
        <ele>1603.22</ele>
        <time>2021-07-31T11:58:52Z</time>
      </trkpt>
      <trkpt lat="42.32846" lon="2.13192">
        <ele>1606.39</ele>
        <time>2021-07-31T11:59:00Z</time>
      </trkpt>
      <trkpt lat="42.32904" lon="2.13076">
        <ele>1609.52</ele>
        <time>2021-07-31T11:59:09Z</time>
      </trkpt>
      <trkpt lat="42.3294" lon="2.13007">
        <ele>1612.5</ele>
        <time>2021-07-31T11:59:16Z</time>
      </trkpt>
      <trkpt lat="42.32925" lon="2.12963">
        <ele>1613.95</ele>
        <time>2021-07-31T11:59:21Z</time>
      </trkpt>
      <trkpt lat="42.32893" lon="2.12844">
        <ele>1616.23</ele>
        <time>2021-07-31T11:59:29Z</time>
      </trkpt>
      <trkpt lat="42.32885" lon="2.12776">
        <ele>1618.16</ele>
        <time>2021-07-31T11:59:33Z</time>
      </trkpt>
      <trkpt lat="42.329" lon="2.1265">
        <ele>1621.72</ele>
        <time>2021-07-31T11:59:40Z</time>
      </trkpt>
      <trkpt lat="42.32907" lon="2.12621">
        <ele>1622.59</ele>
        <time>2021-07-31T11:59:42Z</time>
      </trkpt>
      <trkpt lat="42.32931" lon="2.1257">
        <ele>1623.74</ele>
        <time>2021-07-31T11:59:46Z</time>
      </trkpt>
      <trkpt lat="42.32956" lon="2.1253">
        <ele>1625.17</ele>
        <time>2021-07-31T11:59:51Z</time>
      </trkpt>
      <trkpt lat="42.32963" lon="2.12513">
        <ele>1625.77</ele>
        <time>2021-07-31T11:59:55Z</time>
      </trkpt>
      <trkpt lat="42.32981" lon="2.12467">
        <ele>1626.19</ele>
        <time>2021-07-31T12:00:01Z</time>
      </trkpt>
      <trkpt lat="42.33037" lon="2.12338">
        <ele>1622.92</ele>
        <time>2021-07-31T12:00:11Z</time>
      </trkpt>
      <trkpt lat="42.3306" lon="2.12273">
        <ele>1619.46</ele>
        <time>2021-07-31T12:00:15Z</time>
      </trkpt>
      <trkpt lat="42.33079" lon="2.12209">
        <ele>1615.47</ele>
        <time>2021-07-31T12:00:19Z</time>
      </trkpt>
      <trkpt lat="42.33099" lon="2.12162">
        <ele>1612.24</ele>
        <time>2021-07-31T12:00:22Z</time>
      </trkpt>
      <trkpt lat="42.33124" lon="2.12116">
        <ele>1609.14</ele>
        <time>2021-07-31T12:00:25Z</time>
      </trkpt>
      <trkpt lat="42.33144" lon="2.12075">
        <ele>1605.7</ele>
        <time>2021-07-31T12:00:28Z</time>
      </trkpt>
      <trkpt lat="42.33176" lon="2.1204">
        <ele>1600.98</ele>
        <time>2021-07-31T12:00:32Z</time>
      </trkpt>
      <trkpt lat="42.33184" lon="2.12035">
        <ele>1599.91</ele>
        <time>2021-07-31T12:00:33Z</time>
      </trkpt>
      <trkpt lat="42.33205" lon="2.12017">
        <ele>1596.77</ele>
        <time>2021-07-31T12:00:36Z</time>
      </trkpt>
      <trkpt lat="42.33236" lon="2.11943">
        <ele>1592.24</ele>
        <time>2021-07-31T12:00:41Z</time>
      </trkpt>
      <trkpt lat="42.33273" lon="2.11879">
        <ele>1588.91</ele>
        <time>2021-07-31T12:00:45Z</time>
      </trkpt>
      <trkpt lat="42.33308" lon="2.11836">
        <ele>1584.83</ele>
        <time>2021-07-31T12:00:49Z</time>
      </trkpt>
      <trkpt lat="42.33319" lon="2.11821">
        <ele>1582.53</ele>
        <time>2021-07-31T12:00:51Z</time>
      </trkpt>
      <trkpt lat="42.33309" lon="2.11785">
        <ele>1578.2</ele>
        <time>2021-07-31T12:00:55Z</time>
      </trkpt>
      <trkpt lat="42.33253" lon="2.11763">
        <ele>1574.27</ele>
        <time>2021-07-31T12:00:59Z</time>
      </trkpt>
      <trkpt lat="42.33172" lon="2.1172">
        <ele>1567.26</ele>
        <time>2021-07-31T12:01:05Z</time>
      </trkpt>
      <trkpt lat="42.33137" lon="2.11648">
        <ele>1562.41</ele>
        <time>2021-07-31T12:01:10Z</time>
      </trkpt>
      <trkpt lat="42.33128" lon="2.11634">
        <ele>1561.47</ele>
        <time>2021-07-31T12:01:11Z</time>
      </trkpt>
      <trkpt lat="42.33093" lon="2.11596">
        <ele>1557.27</ele>
        <time>2021-07-31T12:01:15Z</time>
      </trkpt>
      <trkpt lat="42.33082" lon="2.11535">
        <ele>1553</ele>
        <time>2021-07-31T12:01:19Z</time>
      </trkpt>
      <trkpt lat="42.33072" lon="2.11444">
        <ele>1548.18</ele>
        <time>2021-07-31T12:01:24Z</time>
      </trkpt>
      <trkpt lat="42.33066" lon="2.11389">
        <ele>1544.84</ele>
        <time>2021-07-31T12:01:27Z</time>
      </trkpt>
      <trkpt lat="42.33066" lon="2.11332">
        <ele>1541.57</ele>
        <time>2021-07-31T12:01:30Z</time>
      </trkpt>
      <trkpt lat="42.33068" lon="2.11279">
        <ele>1538.15</ele>
        <time>2021-07-31T12:01:33Z</time>
      </trkpt>
      <trkpt lat="42.33065" lon="2.11244">
        <ele>1535.86</ele>
        <time>2021-07-31T12:01:35Z</time>
      </trkpt>
      <trkpt lat="42.33047" lon="2.1118">
        <ele>1531.33</ele>
        <time>2021-07-31T12:01:39Z</time>
      </trkpt>
      <trkpt lat="42.33044" lon="2.11165">
        <ele>1530.13</ele>
        <time>2021-07-31T12:01:40Z</time>
      </trkpt>
      <trkpt lat="42.33036" lon="2.11096">
        <ele>1525.83</ele>
        <time>2021-07-31T12:01:44Z</time>
      </trkpt>
      <trkpt lat="42.33037" lon="2.11046">
        <ele>1522.73</ele>
        <time>2021-07-31T12:01:47Z</time>
      </trkpt>
      <trkpt lat="42.3304" lon="2.11029">
        <ele>1521.62</ele>
        <time>2021-07-31T12:01:48Z</time>
      </trkpt>
      <trkpt lat="42.33055" lon="2.10982">
        <ele>1516.95</ele>
        <time>2021-07-31T12:01:52Z</time>
      </trkpt>
      <trkpt lat="42.33035" lon="2.10954">
        <ele>1511.24</ele>
        <time>2021-07-31T12:01:58Z</time>
      </trkpt>
      <trkpt lat="42.33012" lon="2.10939">
        <ele>1509.71</ele>
        <time>2021-07-31T12:02:00Z</time>
      </trkpt>
      <trkpt lat="42.32965" lon="2.10889">
        <ele>1505.82</ele>
        <time>2021-07-31T12:02:05Z</time>
      </trkpt>
      <trkpt lat="42.32932" lon="2.10836">
        <ele>1502.5</ele>
        <time>2021-07-31T12:02:09Z</time>
      </trkpt>
      <trkpt lat="42.32907" lon="2.10774">
        <ele>1498.8</ele>
        <time>2021-07-31T12:02:13Z</time>
      </trkpt>
      <trkpt lat="42.32905" lon="2.10715">
        <ele>1494.82</ele>
        <time>2021-07-31T12:02:17Z</time>
      </trkpt>
      <trkpt lat="42.32908" lon="2.107">
        <ele>1493.77</ele>
        <time>2021-07-31T12:02:18Z</time>
      </trkpt>
      <trkpt lat="42.32925" lon="2.10643">
        <ele>1489.57</ele>
        <time>2021-07-31T12:02:22Z</time>
      </trkpt>
      <trkpt lat="42.32943" lon="2.10588">
        <ele>1485.85</ele>
        <time>2021-07-31T12:02:26Z</time>
      </trkpt>
      <trkpt lat="42.32971" lon="2.10547">
        <ele>1481.42</ele>
        <time>2021-07-31T12:02:30Z</time>
      </trkpt>
      <trkpt lat="42.33008" lon="2.10508">
        <ele>1477.79</ele>
        <time>2021-07-31T12:02:34Z</time>
      </trkpt>
      <trkpt lat="42.33015" lon="2.10499">
        <ele>1476.77</ele>
        <time>2021-07-31T12:02:35Z</time>
      </trkpt>
      <trkpt lat="42.33014" lon="2.10466">
        <ele>1471.1</ele>
        <time>2021-07-31T12:02:40Z</time>
      </trkpt>
      <trkpt lat="42.32992" lon="2.10477">
        <ele>1468.73</ele>
        <time>2021-07-31T12:02:43Z</time>
      </trkpt>
      <trkpt lat="42.32931" lon="2.10513">
        <ele>1464.24</ele>
        <time>2021-07-31T12:02:49Z</time>
      </trkpt>
      <trkpt lat="42.3288" lon="2.10538">
        <ele>1461.15</ele>
        <time>2021-07-31T12:02:53Z</time>
      </trkpt>
      <trkpt lat="42.32869" lon="2.10544">
        <ele>1460.27</ele>
        <time>2021-07-31T12:02:54Z</time>
      </trkpt>
      <trkpt lat="42.32827" lon="2.10585">
        <ele>1456.47</ele>
        <time>2021-07-31T12:02:58Z</time>
      </trkpt>
      <trkpt lat="42.32808" lon="2.10605">
        <ele>1454.37</ele>
        <time>2021-07-31T12:03:00Z</time>
      </trkpt>
      <trkpt lat="42.3278" lon="2.10683">
        <ele>1449.37</ele>
        <time>2021-07-31T12:03:05Z</time>
      </trkpt>
      <trkpt lat="42.32771" lon="2.10734">
        <ele>1446.13</ele>
        <time>2021-07-31T12:03:08Z</time>
      </trkpt>
      <trkpt lat="42.32781" lon="2.10798">
        <ele>1441.75</ele>
        <time>2021-07-31T12:03:12Z</time>
      </trkpt>
      <trkpt lat="42.32808" lon="2.10869">
        <ele>1437.49</ele>
        <time>2021-07-31T12:03:16Z</time>
      </trkpt>
      <trkpt lat="42.32827" lon="2.10918">
        <ele>1434.32</ele>
        <time>2021-07-31T12:03:19Z</time>
      </trkpt>
      <trkpt lat="42.32846" lon="2.10965">
        <ele>1431.09</ele>
        <time>2021-07-31T12:03:22Z</time>
      </trkpt>
      <trkpt lat="42.32851" lon="2.10976">
        <ele>1430</ele>
        <time>2021-07-31T12:03:23Z</time>
      </trkpt>
      <trkpt lat="42.32845" lon="2.11015">
        <ele>1425</ele>
        <time>2021-07-31T12:03:27Z</time>
      </trkpt>
      <trkpt lat="42.32814" lon="2.11066">
        <ele>1420.69</ele>
        <time>2021-07-31T12:03:31Z</time>
      </trkpt>
      <trkpt lat="42.32784" lon="2.11123">
        <ele>1416.92</ele>
        <time>2021-07-31T12:03:35Z</time>
      </trkpt>
      <trkpt lat="42.32774" lon="2.11187">
        <ele>1412.87</ele>
        <time>2021-07-31T12:03:39Z</time>
      </trkpt>
      <trkpt lat="42.32787" lon="2.11246">
        <ele>1408.87</ele>
        <time>2021-07-31T12:03:43Z</time>
      </trkpt>
      <trkpt lat="42.32801" lon="2.11278">
        <ele>1405.69</ele>
        <time>2021-07-31T12:03:46Z</time>
      </trkpt>
      <trkpt lat="42.32792" lon="2.11314">
        <ele>1402.55</ele>
        <time>2021-07-31T12:03:49Z</time>
      </trkpt>
      <trkpt lat="42.32786" lon="2.11323">
        <ele>1401.51</ele>
        <time>2021-07-31T12:03:50Z</time>
      </trkpt>
      <trkpt lat="42.32767" lon="2.11355">
        <ele>1398.56</ele>
        <time>2021-07-31T12:03:53Z</time>
      </trkpt>
      <trkpt lat="42.32769" lon="2.11417">
        <ele>1394.01</ele>
        <time>2021-07-31T12:03:58Z</time>
      </trkpt>
      <trkpt lat="42.32775" lon="2.1143">
        <ele>1393.23</ele>
        <time>2021-07-31T12:03:59Z</time>
      </trkpt>
      <trkpt lat="42.32813" lon="2.11505">
        <ele>1389.2</ele>
        <time>2021-07-31T12:04:04Z</time>
      </trkpt>
      <trkpt lat="42.32818" lon="2.11518">
        <ele>1388.31</ele>
        <time>2021-07-31T12:04:05Z</time>
      </trkpt>
      <trkpt lat="42.32813" lon="2.11564">
        <ele>1384.32</ele>
        <time>2021-07-31T12:04:09Z</time>
      </trkpt>
      <trkpt lat="42.32765" lon="2.11562">
        <ele>1380.49</ele>
        <time>2021-07-31T12:04:13Z</time>
      </trkpt>
      <trkpt lat="42.32705" lon="2.11563">
        <ele>1376.62</ele>
        <time>2021-07-31T12:04:18Z</time>
      </trkpt>
      <trkpt lat="42.32676" lon="2.11605">
        <ele>1371.45</ele>
        <time>2021-07-31T12:04:23Z</time>
      </trkpt>
      <trkpt lat="42.32665" lon="2.11627">
        <ele>1368.33</ele>
        <time>2021-07-31T12:04:26Z</time>
      </trkpt>
      <trkpt lat="42.32648" lon="2.11601">
        <ele>1365.05</ele>
        <time>2021-07-31T12:04:29Z</time>
      </trkpt>
      <trkpt lat="42.32635" lon="2.11576">
        <ele>1363.49</ele>
        <time>2021-07-31T12:04:31Z</time>
      </trkpt>
      <trkpt lat="42.32639" lon="2.11528">
        <ele>1359.41</ele>
        <time>2021-07-31T12:04:35Z</time>
      </trkpt>
      <trkpt lat="42.32664" lon="2.11502">
        <ele>1356.4</ele>
        <time>2021-07-31T12:04:38Z</time>
      </trkpt>
      <trkpt lat="42.32695" lon="2.11492">
        <ele>1352.99</ele>
        <time>2021-07-31T12:04:41Z</time>
      </trkpt>
      <trkpt lat="42.32718" lon="2.11467">
        <ele>1347.12</ele>
        <time>2021-07-31T12:04:46Z</time>
      </trkpt>
      <trkpt lat="42.32705" lon="2.11443">
        <ele>1343.69</ele>
        <time>2021-07-31T12:04:49Z</time>
      </trkpt>
      <trkpt lat="42.32693" lon="2.11434">
        <ele>1342.58</ele>
        <time>2021-07-31T12:04:50Z</time>
      </trkpt>
      <trkpt lat="42.3265" lon="2.11395">
        <ele>1338.34</ele>
        <time>2021-07-31T12:04:54Z</time>
      </trkpt>
      <trkpt lat="42.32639" lon="2.11349">
        <ele>1333.64</ele>
        <time>2021-07-31T12:04:58Z</time>
      </trkpt>
      <trkpt lat="42.32654" lon="2.11315">
        <ele>1330.26</ele>
        <time>2021-07-31T12:05:01Z</time>
      </trkpt>
      <trkpt lat="42.32649" lon="2.1127">
        <ele>1324.47</ele>
        <time>2021-07-31T12:05:07Z</time>
      </trkpt>
      <trkpt lat="42.32612" lon="2.11231">
        <ele>1321.2</ele>
        <time>2021-07-31T12:05:11Z</time>
      </trkpt>
      <trkpt lat="42.3256" lon="2.11208">
        <ele>1317.82</ele>
        <time>2021-07-31T12:05:15Z</time>
      </trkpt>
      <trkpt lat="42.32526" lon="2.1118">
        <ele>1313.81</ele>
        <time>2021-07-31T12:05:19Z</time>
      </trkpt>
      <trkpt lat="42.32534" lon="2.11143">
        <ele>1310.56</ele>
        <time>2021-07-31T12:05:22Z</time>
      </trkpt>
      <trkpt lat="42.32558" lon="2.11109">
        <ele>1307.65</ele>
        <time>2021-07-31T12:05:25Z</time>
      </trkpt>
      <trkpt lat="42.32571" lon="2.11092">
        <ele>1305.94</ele>
        <time>2021-07-31T12:05:27Z</time>
      </trkpt>
      <trkpt lat="42.32569" lon="2.11059">
        <ele>1301.42</ele>
        <time>2021-07-31T12:05:32Z</time>
      </trkpt>
      <trkpt lat="42.32534" lon="2.11022">
        <ele>1298.25</ele>
        <time>2021-07-31T12:05:36Z</time>
      </trkpt>
      <trkpt lat="42.32519" lon="2.10997">
        <ele>1296.69</ele>
        <time>2021-07-31T12:05:38Z</time>
      </trkpt>
      <trkpt lat="42.32504" lon="2.10972">
        <ele>1295</ele>
        <time>2021-07-31T12:05:40Z</time>
      </trkpt>
      <trkpt lat="42.32464" lon="2.10937">
        <ele>1291.5</ele>
        <time>2021-07-31T12:05:44Z</time>
      </trkpt>
      <trkpt lat="42.32419" lon="2.10915">
        <ele>1287.67</ele>
        <time>2021-07-31T12:05:48Z</time>
      </trkpt>
      <trkpt lat="42.32391" lon="2.10859">
        <ele>1282.81</ele>
        <time>2021-07-31T12:05:53Z</time>
      </trkpt>
      <trkpt lat="42.3239" lon="2.10844">
        <ele>1281.92</ele>
        <time>2021-07-31T12:05:54Z</time>
      </trkpt>
      <trkpt lat="42.32389" lon="2.10814">
        <ele>1280.09</ele>
        <time>2021-07-31T12:05:56Z</time>
      </trkpt>
      <trkpt lat="42.32367" lon="2.10758">
        <ele>1275.73</ele>
        <time>2021-07-31T12:06:00Z</time>
      </trkpt>
      <trkpt lat="42.32337" lon="2.10702">
        <ele>1271.84</ele>
        <time>2021-07-31T12:06:04Z</time>
      </trkpt>
      <trkpt lat="42.32332" lon="2.10689">
        <ele>1270.87</ele>
        <time>2021-07-31T12:06:05Z</time>
      </trkpt>
      <trkpt lat="42.32325" lon="2.10635">
        <ele>1267.04</ele>
        <time>2021-07-31T12:06:09Z</time>
      </trkpt>
      <trkpt lat="42.32318" lon="2.1055">
        <ele>1262.42</ele>
        <time>2021-07-31T12:06:14Z</time>
      </trkpt>
      <trkpt lat="42.32316" lon="2.10503">
        <ele>1259.63</ele>
        <time>2021-07-31T12:06:17Z</time>
      </trkpt>
      <trkpt lat="42.32286" lon="2.10447">
        <ele>1254.81</ele>
        <time>2021-07-31T12:06:22Z</time>
      </trkpt>
      <trkpt lat="42.32259" lon="2.10425">
        <ele>1250.79</ele>
        <time>2021-07-31T12:06:26Z</time>
      </trkpt>
      <trkpt lat="42.32232" lon="2.10404">
        <ele>1247.13</ele>
        <time>2021-07-31T12:06:30Z</time>
      </trkpt>
      <trkpt lat="42.32214" lon="2.10388">
        <ele>1244.73</ele>
        <time>2021-07-31T12:06:33Z</time>
      </trkpt>
      <trkpt lat="42.32193" lon="2.1039">
        <ele>1241.02</ele>
        <time>2021-07-31T12:06:38Z</time>
      </trkpt>
      <trkpt lat="42.32207" lon="2.10421">
        <ele>1238.56</ele>
        <time>2021-07-31T12:06:42Z</time>
      </trkpt>
      <trkpt lat="42.32245" lon="2.10476">
        <ele>1236.23</ele>
        <time>2021-07-31T12:06:47Z</time>
      </trkpt>
      <trkpt lat="42.32242" lon="2.10567">
        <ele>1232.88</ele>
        <time>2021-07-31T12:06:53Z</time>
      </trkpt>
      <trkpt lat="42.3221" lon="2.10623">
        <ele>1229.98</ele>
        <time>2021-07-31T12:06:57Z</time>
      </trkpt>
      <trkpt lat="42.32156" lon="2.10681">
        <ele>1225.59</ele>
        <time>2021-07-31T12:07:02Z</time>
      </trkpt>
      <trkpt lat="42.32111" lon="2.10726">
        <ele>1221.83</ele>
        <time>2021-07-31T12:07:06Z</time>
      </trkpt>
      <trkpt lat="42.32077" lon="2.10752">
        <ele>1218.74</ele>
        <time>2021-07-31T12:07:09Z</time>
      </trkpt>
      <trkpt lat="42.32067" lon="2.10758">
        <ele>1217.7</ele>
        <time>2021-07-31T12:07:10Z</time>
      </trkpt>
      <trkpt lat="42.3203" lon="2.10754">
        <ele>1213.17</ele>
        <time>2021-07-31T12:07:14Z</time>
      </trkpt>
      <trkpt lat="42.32021" lon="2.10745">
        <ele>1212.01</ele>
        <time>2021-07-31T12:07:15Z</time>
      </trkpt>
      <trkpt lat="42.31988" lon="2.1071">
        <ele>1207.94</ele>
        <time>2021-07-31T12:07:19Z</time>
      </trkpt>
      <trkpt lat="42.31981" lon="2.10701">
        <ele>1206.9</ele>
        <time>2021-07-31T12:07:20Z</time>
      </trkpt>
      <trkpt lat="42.31981" lon="2.10653">
        <ele>1202.77</ele>
        <time>2021-07-31T12:07:24Z</time>
      </trkpt>
      <trkpt lat="42.32012" lon="2.10617">
        <ele>1198.9</ele>
        <time>2021-07-31T12:07:28Z</time>
      </trkpt>
      <trkpt lat="42.32035" lon="2.10618">
        <ele>1197.08</ele>
        <time>2021-07-31T12:07:30Z</time>
      </trkpt>
      <trkpt lat="42.32078" lon="2.10617">
        <ele>1193.75</ele>
        <time>2021-07-31T12:07:34Z</time>
      </trkpt>
      <trkpt lat="42.32102" lon="2.10603">
        <ele>1189.05</ele>
        <time>2021-07-31T12:07:38Z</time>
      </trkpt>
      <trkpt lat="42.32092" lon="2.10585">
        <ele>1187.21</ele>
        <time>2021-07-31T12:07:40Z</time>
      </trkpt>
      <trkpt lat="42.32053" lon="2.10524">
        <ele>1183.12</ele>
        <time>2021-07-31T12:07:45Z</time>
      </trkpt>
      <trkpt lat="42.32013" lon="2.1048">
        <ele>1179.69</ele>
        <time>2021-07-31T12:07:49Z</time>
      </trkpt>
      <trkpt lat="42.31995" lon="2.10457">
        <ele>1177.58</ele>
        <time>2021-07-31T12:07:51Z</time>
      </trkpt>
      <trkpt lat="42.31975" lon="2.10398">
        <ele>1173.49</ele>
        <time>2021-07-31T12:07:55Z</time>
      </trkpt>
      <trkpt lat="42.31946" lon="2.10377">
        <ele>1170.37</ele>
        <time>2021-07-31T12:07:58Z</time>
      </trkpt>
      <trkpt lat="42.31922" lon="2.10395">
        <ele>1168.52</ele>
        <time>2021-07-31T12:08:00Z</time>
      </trkpt>
      <trkpt lat="42.31864" lon="2.1043">
        <ele>1163.34</ele>
        <time>2021-07-31T12:08:07Z</time>
      </trkpt>
      <trkpt lat="42.31849" lon="2.10443">
        <ele>1160.11</ele>
        <time>2021-07-31T12:08:13Z</time>
      </trkpt>
      <trkpt lat="42.31814" lon="2.10415">
        <ele>1159.06</ele>
        <time>2021-07-31T12:08:18Z</time>
      </trkpt>
      <trkpt lat="42.31811" lon="2.10386">
        <ele>1159.08</ele>
        <time>2021-07-31T12:08:20Z</time>
      </trkpt>
      <trkpt lat="42.31807" lon="2.10337">
        <ele>1159.7</ele>
        <time>2021-07-31T12:08:23Z</time>
      </trkpt>
      <trkpt lat="42.31831" lon="2.10242">
        <ele>1161.9</ele>
        <time>2021-07-31T12:08:29Z</time>
      </trkpt>
      <trkpt lat="42.31849" lon="2.10219">
        <ele>1179</ele>
      </trkpt>
      <trkpt lat="42.31863" lon="2.10212">
        <ele>1163.8</ele>
        <time>2021-07-31T12:08:32Z</time>
      </trkpt>
      <trkpt lat="42.3193" lon="2.1017">
        <ele>1167.28</ele>
        <time>2021-07-31T12:08:37Z</time>
      </trkpt>
      <trkpt lat="42.31988" lon="2.10092">
        <ele>1171.11</ele>
        <time>2021-07-31T12:08:42Z</time>
      </trkpt>
      <trkpt lat="42.32002" lon="2.10055">
        <ele>1172.83</ele>
        <time>2021-07-31T12:08:44Z</time>
      </trkpt>
      <trkpt lat="42.32073" lon="2.09997">
        <ele>1175.78</ele>
        <time>2021-07-31T12:08:50Z</time>
      </trkpt>
      <trkpt lat="42.32104" lon="2.10003">
        <ele>1176.95</ele>
        <time>2021-07-31T12:08:52Z</time>
      </trkpt>
      <trkpt lat="42.32152" lon="2.10012">
        <ele>1178.4</ele>
        <time>2021-07-31T12:08:55Z</time>
      </trkpt>
      <trkpt lat="42.32208" lon="2.09986">
        <ele>1180.79</ele>
        <time>2021-07-31T12:09:00Z</time>
      </trkpt>
      <trkpt lat="42.32196" lon="2.0991">
        <ele>1181.98</ele>
        <time>2021-07-31T12:09:05Z</time>
      </trkpt>
      <trkpt lat="42.32177" lon="2.09907">
        <ele>1207.5</ele>
      </trkpt>
      <trkpt lat="42.32155" lon="2.09894">
        <ele>1206.5</ele>
      </trkpt>
      <trkpt lat="42.32109" lon="2.09846">
        <ele>1209.1</ele>
      </trkpt>
      <trkpt lat="42.32078" lon="2.09824">
        <ele>1208.2</ele>
      </trkpt>
      <trkpt lat="42.32041" lon="2.09815">
        <ele>1204.1</ele>
      </trkpt>
      <trkpt lat="42.32037" lon="2.0981">
        <ele>1204.2</ele>
      </trkpt>
    </trkseg>
  </trk>
  <trk>
    <name><![CDATA[TOTAL 4x4 _4]]></name>
    <extensions>
      <line xmlns="http://www.topografix.com/GPX/gpx_style/0/2">
        <color>00FFFF</color>
        <width>4</width>
      </line>
    </extensions>
    <trkseg>
      <trkpt lat="42.32016" lon="2.09817">
        <ele>1200.5</ele>
      </trkpt>
      <trkpt lat="42.32008" lon="2.09815">
        <ele>1199.7</ele>
      </trkpt>
      <trkpt lat="42.31987" lon="2.09812">
        <ele>1198</ele>
      </trkpt>
      <trkpt lat="42.31978" lon="2.09824">
        <ele>1183.72</ele>
        <time>2021-07-31T12:14:21Z</time>
      </trkpt>
      <trkpt lat="42.3194" lon="2.09835">
        <ele>1179.63</ele>
        <time>2021-07-31T12:14:28Z</time>
      </trkpt>
      <trkpt lat="42.31929" lon="2.09828">
        <ele>1176.31</ele>
        <time>2021-07-31T12:14:34Z</time>
      </trkpt>
      <trkpt lat="42.31928" lon="2.09827">
        <ele>1175.91</ele>
        <time>2021-07-31T12:14:35Z</time>
      </trkpt>
      <trkpt lat="42.31926" lon="2.09808">
        <ele>1174.5</ele>
        <time>2021-07-31T12:14:40Z</time>
      </trkpt>
      <trkpt lat="42.31925" lon="2.09789">
        <ele>1174</ele>
        <time>2021-07-31T12:14:43Z</time>
      </trkpt>
      <trkpt lat="42.31928" lon="2.09722">
        <ele>1173.8</ele>
        <time>2021-07-31T12:14:53Z</time>
      </trkpt>
      <trkpt lat="42.31928" lon="2.09667">
        <ele>1173.95</ele>
        <time>2021-07-31T12:14:59Z</time>
      </trkpt>
      <trkpt lat="42.31937" lon="2.09622">
        <ele>1173.59</ele>
        <time>2021-07-31T12:15:04Z</time>
      </trkpt>
      <trkpt lat="42.31941" lon="2.09615">
        <ele>1173.52</ele>
        <time>2021-07-31T12:15:05Z</time>
      </trkpt>
      <trkpt lat="42.31948" lon="2.09612">
        <ele>1173.38</ele>
        <time>2021-07-31T12:15:06Z</time>
      </trkpt>
      <trkpt lat="42.31956" lon="2.0961">
        <ele>1173.1</ele>
        <time>2021-07-31T12:15:07Z</time>
      </trkpt>
      <trkpt lat="42.31964" lon="2.09611">
        <ele>1172.76</ele>
        <time>2021-07-31T12:15:08Z</time>
      </trkpt>
      <trkpt lat="42.31973" lon="2.09615">
        <ele>1172.42</ele>
        <time>2021-07-31T12:15:09Z</time>
      </trkpt>
      <trkpt lat="42.32028" lon="2.09611">
        <ele>1170.26</ele>
        <time>2021-07-31T12:15:15Z</time>
      </trkpt>
      <trkpt lat="42.3205" lon="2.09597">
        <ele>1168.67</ele>
        <time>2021-07-31T12:15:18Z</time>
      </trkpt>
      <trkpt lat="42.32067" lon="2.09554">
        <ele>1166.35</ele>
        <time>2021-07-31T12:15:23Z</time>
      </trkpt>
      <trkpt lat="42.32086" lon="2.09468">
        <ele>1164.06</ele>
        <time>2021-07-31T12:15:31Z</time>
      </trkpt>
      <trkpt lat="42.32091" lon="2.09432">
        <ele>1163.08</ele>
        <time>2021-07-31T12:15:38Z</time>
      </trkpt>
      <trkpt lat="42.32091" lon="2.09419">
        <ele>1162.98</ele>
        <time>2021-07-31T12:15:39Z</time>
      </trkpt>
      <trkpt lat="42.32098" lon="2.09372">
        <ele>1162.63</ele>
        <time>2021-07-31T12:15:42Z</time>
      </trkpt>
      <trkpt lat="42.32105" lon="2.09355">
        <ele>1162.38</ele>
        <time>2021-07-31T12:15:43Z</time>
      </trkpt>
      <trkpt lat="42.32112" lon="2.09338">
        <ele>1162.14</ele>
        <time>2021-07-31T12:15:44Z</time>
      </trkpt>
      <trkpt lat="42.32143" lon="2.09281">
        <ele>1160.93</ele>
        <time>2021-07-31T12:15:48Z</time>
      </trkpt>
      <trkpt lat="42.32195" lon="2.09284">
        <ele>1157.56</ele>
        <time>2021-07-31T12:15:53Z</time>
      </trkpt>
      <trkpt lat="42.32239" lon="2.09314">
        <ele>1154.87</ele>
        <time>2021-07-31T12:15:57Z</time>
      </trkpt>
      <trkpt lat="42.32274" lon="2.09303">
        <ele>1149.72</ele>
        <time>2021-07-31T12:16:02Z</time>
      </trkpt>
      <trkpt lat="42.32265" lon="2.0925">
        <ele>1146.59</ele>
        <time>2021-07-31T12:16:06Z</time>
      </trkpt>
      <trkpt lat="42.32257" lon="2.09238">
        <ele>1145.89</ele>
        <time>2021-07-31T12:16:07Z</time>
      </trkpt>
      <trkpt lat="42.32217" lon="2.09133">
        <ele>1143.04</ele>
        <time>2021-07-31T12:16:14Z</time>
      </trkpt>
      <trkpt lat="42.32223" lon="2.09039">
        <ele>1142.77</ele>
        <time>2021-07-31T12:16:20Z</time>
      </trkpt>
      <trkpt lat="42.32206" lon="2.09">
        <ele>1142.49</ele>
        <time>2021-07-31T12:16:24Z</time>
      </trkpt>
      <trkpt lat="42.32172" lon="2.08958">
        <ele>1140.51</ele>
        <time>2021-07-31T12:16:29Z</time>
      </trkpt>
      <trkpt lat="42.32171" lon="2.08945">
        <ele>1140.11</ele>
        <time>2021-07-31T12:16:30Z</time>
      </trkpt>
      <trkpt lat="42.32173" lon="2.08929">
        <ele>1139.78</ele>
        <time>2021-07-31T12:16:31Z</time>
      </trkpt>
      <trkpt lat="42.32176" lon="2.08913">
        <ele>1139.49</ele>
        <time>2021-07-31T12:16:32Z</time>
      </trkpt>
      <trkpt lat="42.32181" lon="2.08898">
        <ele>1139.17</ele>
        <time>2021-07-31T12:16:33Z</time>
      </trkpt>
      <trkpt lat="42.32214" lon="2.08792">
        <ele>1137.55</ele>
        <time>2021-07-31T12:16:40Z</time>
      </trkpt>
      <trkpt lat="42.32228" lon="2.08772">
        <ele>1137.15</ele>
        <time>2021-07-31T12:16:42Z</time>
      </trkpt>
      <trkpt lat="42.32232" lon="2.08721">
        <ele>1136.08</ele>
        <time>2021-07-31T12:16:46Z</time>
      </trkpt>
      <trkpt lat="42.32252" lon="2.08628">
        <ele>1133.01</ele>
        <time>2021-07-31T12:16:53Z</time>
      </trkpt>
      <trkpt lat="42.32304" lon="2.08601">
        <ele>1130.42</ele>
        <time>2021-07-31T12:16:58Z</time>
      </trkpt>
      <trkpt lat="42.32318" lon="2.08565">
        <ele>1128.13</ele>
        <time>2021-07-31T12:17:02Z</time>
      </trkpt>
      <trkpt lat="42.32359" lon="2.0848">
        <ele>1123.86</ele>
        <time>2021-07-31T12:17:10Z</time>
      </trkpt>
      <trkpt lat="42.32355" lon="2.08445">
        <ele>1121.25</ele>
        <time>2021-07-31T12:17:15Z</time>
      </trkpt>
      <trkpt lat="42.32322" lon="2.08418">
        <ele>1119.25</ele>
        <time>2021-07-31T12:17:20Z</time>
      </trkpt>
      <trkpt lat="42.32298" lon="2.0834">
        <ele>1118.7</ele>
        <time>2021-07-31T12:17:27Z</time>
      </trkpt>
      <trkpt lat="42.32316" lon="2.08273">
        <ele>1119.29</ele>
        <time>2021-07-31T12:17:31Z</time>
      </trkpt>
      <trkpt lat="42.32362" lon="2.08194">
        <ele>1119.77</ele>
        <time>2021-07-31T12:17:38Z</time>
      </trkpt>
      <trkpt lat="42.32375" lon="2.08101">
        <ele>1119.33</ele>
        <time>2021-07-31T12:17:44Z</time>
      </trkpt>
      <trkpt lat="42.32368" lon="2.07947">
        <ele>1119.93</ele>
        <time>2021-07-31T12:17:51Z</time>
      </trkpt>
      <trkpt lat="42.32349" lon="2.07762">
        <ele>1121.46</ele>
        <time>2021-07-31T12:17:58Z</time>
      </trkpt>
      <trkpt lat="42.32312" lon="2.0763">
        <ele>1123.81</ele>
        <time>2021-07-31T12:18:04Z</time>
      </trkpt>
      <trkpt lat="42.32278" lon="2.07467">
        <ele>1126.41</ele>
        <time>2021-07-31T12:18:12Z</time>
      </trkpt>
      <trkpt lat="42.32271" lon="2.07407">
        <ele>1127.44</ele>
        <time>2021-07-31T12:18:15Z</time>
      </trkpt>
      <trkpt lat="42.32203" lon="2.07233">
        <ele>1131.05</ele>
        <time>2021-07-31T12:18:24Z</time>
      </trkpt>
      <trkpt lat="42.32189" lon="2.07196">
        <ele>1131.58</ele>
        <time>2021-07-31T12:18:26Z</time>
      </trkpt>
      <trkpt lat="42.32155" lon="2.0711">
        <ele>1133</ele>
        <time>2021-07-31T12:18:31Z</time>
      </trkpt>
      <trkpt lat="42.32155" lon="2.07057">
        <ele>1133.84</ele>
        <time>2021-07-31T12:18:35Z</time>
      </trkpt>
      <trkpt lat="42.32159" lon="2.06993">
        <ele>1135.65</ele>
        <time>2021-07-31T12:18:40Z</time>
      </trkpt>
      <trkpt lat="42.32156" lon="2.06966">
        <ele>1136.42</ele>
        <time>2021-07-31T12:18:42Z</time>
      </trkpt>
      <trkpt lat="42.32192" lon="2.06897">
        <ele>1138.18</ele>
        <time>2021-07-31T12:18:48Z</time>
      </trkpt>
      <trkpt lat="42.32227" lon="2.06889">
        <ele>1138.89</ele>
        <time>2021-07-31T12:18:51Z</time>
      </trkpt>
      <trkpt lat="42.32293" lon="2.06877">
        <ele>1141.58</ele>
        <time>2021-07-31T12:18:56Z</time>
      </trkpt>
      <trkpt lat="42.32361" lon="2.06811">
        <ele>1144.17</ele>
        <time>2021-07-31T12:19:02Z</time>
      </trkpt>
      <trkpt lat="42.32366" lon="2.06789">
        <ele>1144.65</ele>
        <time>2021-07-31T12:19:03Z</time>
      </trkpt>
      <trkpt lat="42.32411" lon="2.06621">
        <ele>1148.61</ele>
        <time>2021-07-31T12:19:10Z</time>
      </trkpt>
      <trkpt lat="42.32445" lon="2.06496">
        <ele>1151.84</ele>
        <time>2021-07-31T12:19:15Z</time>
      </trkpt>
      <trkpt lat="42.32462" lon="2.064">
        <ele>1155.11</ele>
        <time>2021-07-31T12:19:19Z</time>
      </trkpt>
      <trkpt lat="42.32487" lon="2.06314">
        <ele>1157.36</ele>
        <time>2021-07-31T12:19:23Z</time>
      </trkpt>
      <trkpt lat="42.32499" lon="2.06177">
        <ele>1161.17</ele>
        <time>2021-07-31T12:19:29Z</time>
      </trkpt>
      <trkpt lat="42.32501" lon="2.06053">
        <ele>1164.73</ele>
        <time>2021-07-31T12:19:34Z</time>
      </trkpt>
      <trkpt lat="42.32499" lon="2.05984">
        <ele>1167.43</ele>
        <time>2021-07-31T12:19:37Z</time>
      </trkpt>
      <trkpt lat="42.32521" lon="2.05874">
        <ele>1171.7</ele>
        <time>2021-07-31T12:19:42Z</time>
      </trkpt>
      <trkpt lat="42.3254" lon="2.05835">
        <ele>1173.3</ele>
        <time>2021-07-31T12:19:44Z</time>
      </trkpt>
      <trkpt lat="42.32595" lon="2.05744">
        <ele>1177.87</ele>
        <time>2021-07-31T12:19:49Z</time>
      </trkpt>
      <trkpt lat="42.3262" lon="2.05687">
        <ele>1180.95</ele>
        <time>2021-07-31T12:19:52Z</time>
      </trkpt>
      <trkpt lat="42.32632" lon="2.05628">
        <ele>1184.12</ele>
        <time>2021-07-31T12:19:55Z</time>
      </trkpt>
      <trkpt lat="42.32631" lon="2.05554">
        <ele>1188.14</ele>
        <time>2021-07-31T12:19:59Z</time>
      </trkpt>
      <trkpt lat="42.3263" lon="2.05536">
        <ele>1189.08</ele>
        <time>2021-07-31T12:20:00Z</time>
      </trkpt>
      <trkpt lat="42.32598" lon="2.05467">
        <ele>1193.05</ele>
        <time>2021-07-31T12:20:05Z</time>
      </trkpt>
      <trkpt lat="42.32587" lon="2.05459">
        <ele>1193.75</ele>
        <time>2021-07-31T12:20:06Z</time>
      </trkpt>
      <trkpt lat="42.32569" lon="2.0544">
        <ele>1195.34</ele>
        <time>2021-07-31T12:20:08Z</time>
      </trkpt>
      <trkpt lat="42.32552" lon="2.05371">
        <ele>1198.74</ele>
        <time>2021-07-31T12:20:13Z</time>
      </trkpt>
      <trkpt lat="42.32555" lon="2.05356">
        <ele>1199.39</ele>
        <time>2021-07-31T12:20:14Z</time>
      </trkpt>
      <trkpt lat="42.32558" lon="2.05268">
        <ele>1204.16</ele>
        <time>2021-07-31T12:20:21Z</time>
      </trkpt>
      <trkpt lat="42.32529" lon="2.05168">
        <ele>1208.25</ele>
        <time>2021-07-31T12:20:29Z</time>
      </trkpt>
      <trkpt lat="42.325" lon="2.05082">
        <ele>1211.32</ele>
        <time>2021-07-31T12:20:34Z</time>
      </trkpt>
      <trkpt lat="42.32469" lon="2.04993">
        <ele>1214.8</ele>
        <time>2021-07-31T12:20:39Z</time>
      </trkpt>
      <trkpt lat="42.3243" lon="2.04915">
        <ele>1218.32</ele>
        <time>2021-07-31T12:20:44Z</time>
      </trkpt>
      <trkpt lat="42.32421" lon="2.04902">
        <ele>1219.12</ele>
        <time>2021-07-31T12:20:45Z</time>
      </trkpt>
      <trkpt lat="42.32374" lon="2.04871">
        <ele>1222.56</ele>
        <time>2021-07-31T12:20:49Z</time>
      </trkpt>
      <trkpt lat="42.32351" lon="2.0486">
        <ele>1224.21</ele>
        <time>2021-07-31T12:20:51Z</time>
      </trkpt>
      <trkpt lat="42.32308" lon="2.04784">
        <ele>1228.02</ele>
        <time>2021-07-31T12:20:57Z</time>
      </trkpt>
      <trkpt lat="42.32296" lon="2.04753">
        <ele>1229.11</ele>
        <time>2021-07-31T12:20:59Z</time>
      </trkpt>
      <trkpt lat="42.3229" lon="2.04738">
        <ele>1229.37</ele>
        <time>2021-07-31T12:21:00Z</time>
      </trkpt>
      <trkpt lat="42.32267" lon="2.04701">
        <ele>1230.41</ele>
        <time>2021-07-31T12:21:03Z</time>
      </trkpt>
      <trkpt lat="42.3225" lon="2.04636">
        <ele>1231.69</ele>
        <time>2021-07-31T12:21:07Z</time>
      </trkpt>
      <trkpt lat="42.32243" lon="2.04582">
        <ele>1232.51</ele>
        <time>2021-07-31T12:21:10Z</time>
      </trkpt>
      <trkpt lat="42.32245" lon="2.04405">
        <ele>1236.36</ele>
        <time>2021-07-31T12:21:19Z</time>
      </trkpt>
      <trkpt lat="42.32244" lon="2.04339">
        <ele>1239.59</ele>
        <time>2021-07-31T12:21:22Z</time>
      </trkpt>
      <trkpt lat="42.32241" lon="2.04274">
        <ele>1242.61</ele>
        <time>2021-07-31T12:21:25Z</time>
      </trkpt>
      <trkpt lat="42.32224" lon="2.04191">
        <ele>1246.43</ele>
        <time>2021-07-31T12:21:29Z</time>
      </trkpt>
      <trkpt lat="42.32214" lon="2.04092">
        <ele>1249.79</ele>
        <time>2021-07-31T12:21:34Z</time>
      </trkpt>
      <trkpt lat="42.32213" lon="2.04072">
        <ele>1250.22</ele>
        <time>2021-07-31T12:21:35Z</time>
      </trkpt>
      <trkpt lat="42.32226" lon="2.03879">
        <ele>1253.87</ele>
        <time>2021-07-31T12:21:44Z</time>
      </trkpt>
      <trkpt lat="42.32218" lon="2.03771">
        <ele>1257.45</ele>
        <time>2021-07-31T12:21:49Z</time>
      </trkpt>
      <trkpt lat="42.32213" lon="2.03708">
        <ele>1259.39</ele>
        <time>2021-07-31T12:21:52Z</time>
      </trkpt>
      <trkpt lat="42.32215" lon="2.03688">
        <ele>1260.06</ele>
        <time>2021-07-31T12:21:53Z</time>
      </trkpt>
      <trkpt lat="42.32218" lon="2.03671">
        <ele>1260.64</ele>
        <time>2021-07-31T12:21:54Z</time>
      </trkpt>
      <trkpt lat="42.32223" lon="2.03656">
        <ele>1261.11</ele>
        <time>2021-07-31T12:21:55Z</time>
      </trkpt>
      <trkpt lat="42.32229" lon="2.03645">
        <ele>1261.58</ele>
        <time>2021-07-31T12:21:56Z</time>
      </trkpt>
      <trkpt lat="42.32257" lon="2.03634">
        <ele>1262.87</ele>
        <time>2021-07-31T12:21:59Z</time>
      </trkpt>
      <trkpt lat="42.32358" lon="2.03586">
        <ele>1266.76</ele>
        <time>2021-07-31T12:22:06Z</time>
      </trkpt>
      <trkpt lat="42.32412" lon="2.03541">
        <ele>1270.39</ele>
        <time>2021-07-31T12:22:10Z</time>
      </trkpt>
      <trkpt lat="42.32432" lon="2.03521">
        <ele>1272.21</ele>
        <time>2021-07-31T12:22:12Z</time>
      </trkpt>
      <trkpt lat="42.32445" lon="2.0348">
        <ele>1276.32</ele>
        <time>2021-07-31T12:22:17Z</time>
      </trkpt>
      <trkpt lat="42.32404" lon="2.0347">
        <ele>1278.06</ele>
        <time>2021-07-31T12:22:23Z</time>
      </trkpt>
      <trkpt lat="42.32377" lon="2.03498">
        <ele>1278.89</ele>
        <time>2021-07-31T12:22:26Z</time>
      </trkpt>
      <trkpt lat="42.32347" lon="2.03531">
        <ele>1280.44</ele>
        <time>2021-07-31T12:22:29Z</time>
      </trkpt>
      <trkpt lat="42.32271" lon="2.03528">
        <ele>1284.63</ele>
        <time>2021-07-31T12:22:36Z</time>
      </trkpt>
      <trkpt lat="42.32266" lon="2.03469">
        <ele>1288.12</ele>
        <time>2021-07-31T12:22:41Z</time>
      </trkpt>
      <trkpt lat="42.32288" lon="2.03381">
        <ele>1292.54</ele>
        <time>2021-07-31T12:22:47Z</time>
      </trkpt>
      <trkpt lat="42.32297" lon="2.03354">
        <ele>1293.9</ele>
        <time>2021-07-31T12:22:49Z</time>
      </trkpt>
      <trkpt lat="42.32302" lon="2.03312">
        <ele>1296.09</ele>
        <time>2021-07-31T12:22:52Z</time>
      </trkpt>
      <trkpt lat="42.32303" lon="2.03297">
        <ele>1296.81</ele>
        <time>2021-07-31T12:22:53Z</time>
      </trkpt>
      <trkpt lat="42.32306" lon="2.03282">
        <ele>1297.45</ele>
        <time>2021-07-31T12:22:54Z</time>
      </trkpt>
      <trkpt lat="42.32309" lon="2.03267">
        <ele>1298.02</ele>
        <time>2021-07-31T12:22:55Z</time>
      </trkpt>
      <trkpt lat="42.32328" lon="2.03181">
        <ele>1301.74</ele>
        <time>2021-07-31T12:23:00Z</time>
      </trkpt>
      <trkpt lat="42.32341" lon="2.03109">
        <ele>1304.99</ele>
        <time>2021-07-31T12:23:04Z</time>
      </trkpt>
      <trkpt lat="42.32346" lon="2.03032">
        <ele>1308.28</ele>
        <time>2021-07-31T12:23:08Z</time>
      </trkpt>
      <trkpt lat="42.32346" lon="2.02954">
        <ele>1311.91</ele>
        <time>2021-07-31T12:23:12Z</time>
      </trkpt>
      <trkpt lat="42.3235" lon="2.02872">
        <ele>1315.64</ele>
        <time>2021-07-31T12:23:16Z</time>
      </trkpt>
      <trkpt lat="42.32354" lon="2.02799">
        <ele>1319.14</ele>
        <time>2021-07-31T12:23:20Z</time>
      </trkpt>
      <trkpt lat="42.32338" lon="2.02718">
        <ele>1321.99</ele>
        <time>2021-07-31T12:23:26Z</time>
      </trkpt>
      <trkpt lat="42.32315" lon="2.02611">
        <ele>1325.81</ele>
        <time>2021-07-31T12:23:32Z</time>
      </trkpt>
      <trkpt lat="42.32311" lon="2.02594">
        <ele>1326.63</ele>
        <time>2021-07-31T12:23:33Z</time>
      </trkpt>
      <trkpt lat="42.32297" lon="2.025">
        <ele>1330.86</ele>
        <time>2021-07-31T12:23:38Z</time>
      </trkpt>
      <trkpt lat="42.32273" lon="2.0243">
        <ele>1334.28</ele>
        <time>2021-07-31T12:23:42Z</time>
      </trkpt>
      <trkpt lat="42.32242" lon="2.02373">
        <ele>1336.82</ele>
        <time>2021-07-31T12:23:46Z</time>
      </trkpt>
      <trkpt lat="42.32203" lon="2.02331">
        <ele>1338.99</ele>
        <time>2021-07-31T12:23:50Z</time>
      </trkpt>
      <trkpt lat="42.32168" lon="2.0225">
        <ele>1342.85</ele>
        <time>2021-07-31T12:23:56Z</time>
      </trkpt>
      <trkpt lat="42.32181" lon="2.0221">
        <ele>1344.62</ele>
        <time>2021-07-31T12:23:59Z</time>
      </trkpt>
      <trkpt lat="42.32193" lon="2.02188">
        <ele>1345.93</ele>
        <time>2021-07-31T12:24:01Z</time>
      </trkpt>
      <trkpt lat="42.32179" lon="2.02124">
        <ele>1349.81</ele>
        <time>2021-07-31T12:24:07Z</time>
      </trkpt>
      <trkpt lat="42.32158" lon="2.02059">
        <ele>1352.52</ele>
        <time>2021-07-31T12:24:12Z</time>
      </trkpt>
      <trkpt lat="42.32162" lon="2.02023">
        <ele>1355.72</ele>
        <time>2021-07-31T12:24:18Z</time>
      </trkpt>
      <trkpt lat="42.32168" lon="2.0195">
        <ele>1358.72</ele>
        <time>2021-07-31T12:24:25Z</time>
      </trkpt>
      <trkpt lat="42.32142" lon="2.01886">
        <ele>1362.06</ele>
        <time>2021-07-31T12:24:30Z</time>
      </trkpt>
      <trkpt lat="42.32115" lon="2.01808">
        <ele>1365.96</ele>
        <time>2021-07-31T12:24:36Z</time>
      </trkpt>
      <trkpt lat="42.3211" lon="2.0178">
        <ele>1367.95</ele>
        <time>2021-07-31T12:24:41Z</time>
      </trkpt>
      <trkpt lat="42.32109" lon="2.01769">
        <ele>1368.58</ele>
        <time>2021-07-31T12:24:43Z</time>
      </trkpt>
      <trkpt lat="42.32112" lon="2.01753">
        <ele>1369.43</ele>
        <time>2021-07-31T12:24:45Z</time>
      </trkpt>
      <trkpt lat="42.32116" lon="2.01674">
        <ele>1372.81</ele>
        <time>2021-07-31T12:24:51Z</time>
      </trkpt>
      <trkpt lat="42.3211" lon="2.0159">
        <ele>1376.96</ele>
        <time>2021-07-31T12:24:56Z</time>
      </trkpt>
      <trkpt lat="42.32104" lon="2.01541">
        <ele>1380.33</ele>
        <time>2021-07-31T12:25:00Z</time>
      </trkpt>
      <trkpt lat="42.32099" lon="2.01519">
        <ele>1381.52</ele>
        <time>2021-07-31T12:25:02Z</time>
      </trkpt>
      <trkpt lat="42.32088" lon="2.0148">
        <ele>1383.28</ele>
        <time>2021-07-31T12:25:06Z</time>
      </trkpt>
      <trkpt lat="42.3208" lon="2.01418">
        <ele>1385.1</ele>
        <time>2021-07-31T12:25:16Z</time>
      </trkpt>
      <trkpt lat="42.32074" lon="2.01398">
        <ele>1385.31</ele>
        <time>2021-07-31T12:25:21Z</time>
      </trkpt>
      <trkpt lat="42.32064" lon="2.01331">
        <ele>1386.63</ele>
        <time>2021-07-31T12:25:27Z</time>
      </trkpt>
      <trkpt lat="42.32058" lon="2.0132">
        <ele>1387.24</ele>
        <time>2021-07-31T12:25:28Z</time>
      </trkpt>
      <trkpt lat="42.32024" lon="2.01277">
        <ele>1391.03</ele>
        <time>2021-07-31T12:25:33Z</time>
      </trkpt>
      <trkpt lat="42.32013" lon="2.01241">
        <ele>1394.09</ele>
        <time>2021-07-31T12:25:36Z</time>
      </trkpt>
      <trkpt lat="42.32002" lon="2.01186">
        <ele>1398.58</ele>
        <time>2021-07-31T12:25:40Z</time>
      </trkpt>
      <trkpt lat="42.31991" lon="2.01144">
        <ele>1402.13</ele>
        <time>2021-07-31T12:25:43Z</time>
      </trkpt>
      <trkpt lat="42.31977" lon="2.01097">
        <ele>1405.76</ele>
        <time>2021-07-31T12:25:46Z</time>
      </trkpt>
      <trkpt lat="42.31962" lon="2.01023">
        <ele>1410.58</ele>
        <time>2021-07-31T12:25:50Z</time>
      </trkpt>
      <trkpt lat="42.31957" lon="2.00983">
        <ele>1413.4</ele>
        <time>2021-07-31T12:25:52Z</time>
      </trkpt>
      <trkpt lat="42.31957" lon="2.00905">
        <ele>1418.19</ele>
        <time>2021-07-31T12:25:56Z</time>
      </trkpt>
      <trkpt lat="42.31957" lon="2.00866">
        <ele>1421.89</ele>
        <time>2021-07-31T12:25:58Z</time>
      </trkpt>
      <trkpt lat="42.31974" lon="2.00787">
        <ele>1427.44</ele>
        <time>2021-07-31T12:26:02Z</time>
      </trkpt>
      <trkpt lat="42.31986" lon="2.00722">
        <ele>1431.95</ele>
        <time>2021-07-31T12:26:05Z</time>
      </trkpt>
      <trkpt lat="42.31992" lon="2.0068">
        <ele>1435.12</ele>
        <time>2021-07-31T12:26:07Z</time>
      </trkpt>
      <trkpt lat="42.31991" lon="2.00628">
        <ele>1439.96</ele>
        <time>2021-07-31T12:26:10Z</time>
      </trkpt>
      <trkpt lat="42.31982" lon="2.00591">
        <ele>1443.02</ele>
        <time>2021-07-31T12:26:12Z</time>
      </trkpt>
      <trkpt lat="42.31977" lon="2.0057">
        <ele>1444.41</ele>
        <time>2021-07-31T12:26:13Z</time>
      </trkpt>
      <trkpt lat="42.31996" lon="2.00477">
        <ele>1448.13</ele>
        <time>2021-07-31T12:26:18Z</time>
      </trkpt>
      <trkpt lat="42.32081" lon="2.00432">
        <ele>1450.02</ele>
        <time>2021-07-31T12:26:24Z</time>
      </trkpt>
      <trkpt lat="42.32097" lon="2.00436">
        <ele>1450.4</ele>
        <time>2021-07-31T12:26:25Z</time>
      </trkpt>
      <trkpt lat="42.32189" lon="2.00479">
        <ele>1454.04</ele>
        <time>2021-07-31T12:26:31Z</time>
      </trkpt>
      <trkpt lat="42.32204" lon="2.00485">
        <ele>1454.98</ele>
        <time>2021-07-31T12:26:32Z</time>
      </trkpt>
      <trkpt lat="42.32271" lon="2.00492">
        <ele>1459.37</ele>
        <time>2021-07-31T12:26:36Z</time>
      </trkpt>
      <trkpt lat="42.32326" lon="2.0051">
        <ele>1464.48</ele>
        <time>2021-07-31T12:26:40Z</time>
      </trkpt>
      <trkpt lat="42.32362" lon="2.00505">
        <ele>1469.86</ele>
        <time>2021-07-31T12:26:44Z</time>
      </trkpt>
      <trkpt lat="42.3238" lon="2.00489">
        <ele>1472.45</ele>
        <time>2021-07-31T12:26:46Z</time>
      </trkpt>
      <trkpt lat="42.32416" lon="2.00455">
        <ele>1477.27</ele>
        <time>2021-07-31T12:26:50Z</time>
      </trkpt>
      <trkpt lat="42.32442" lon="2.00423">
        <ele>1480.86</ele>
        <time>2021-07-31T12:26:53Z</time>
      </trkpt>
      <trkpt lat="42.32452" lon="2.00412">
        <ele>1482.15</ele>
        <time>2021-07-31T12:26:54Z</time>
      </trkpt>
      <trkpt lat="42.32502" lon="2.00385">
        <ele>1487.27</ele>
        <time>2021-07-31T12:26:58Z</time>
      </trkpt>
      <trkpt lat="42.32517" lon="2.00382">
        <ele>1488.55</ele>
        <time>2021-07-31T12:26:59Z</time>
      </trkpt>
      <trkpt lat="42.32565" lon="2.0037">
        <ele>1492.35</ele>
        <time>2021-07-31T12:27:02Z</time>
      </trkpt>
      <trkpt lat="42.32629" lon="2.00334">
        <ele>1497.65</ele>
        <time>2021-07-31T12:27:06Z</time>
      </trkpt>
      <trkpt lat="42.32681" lon="2.00279">
        <ele>1503.2</ele>
        <time>2021-07-31T12:27:10Z</time>
      </trkpt>
      <trkpt lat="42.32692" lon="2.00262">
        <ele>1504.71</ele>
        <time>2021-07-31T12:27:11Z</time>
      </trkpt>
      <trkpt lat="42.32736" lon="2.00193">
        <ele>1510.57</ele>
        <time>2021-07-31T12:27:15Z</time>
      </trkpt>
      <trkpt lat="42.32771" lon="2.00142">
        <ele>1514.94</ele>
        <time>2021-07-31T12:27:18Z</time>
      </trkpt>
      <trkpt lat="42.32783" lon="2.00126">
        <ele>1516.52</ele>
        <time>2021-07-31T12:27:19Z</time>
      </trkpt>
      <trkpt lat="42.32826" lon="2.0009">
        <ele>1521.14</ele>
        <time>2021-07-31T12:27:22Z</time>
      </trkpt>
      <trkpt lat="42.3284" lon="2.0008">
        <ele>1522.63</ele>
        <time>2021-07-31T12:27:23Z</time>
      </trkpt>
      <trkpt lat="42.32884" lon="2.00061">
        <ele>1527.49</ele>
        <time>2021-07-31T12:27:26Z</time>
      </trkpt>
      <trkpt lat="42.32933" lon="2.00054">
        <ele>1532.43</ele>
        <time>2021-07-31T12:27:29Z</time>
      </trkpt>
      <trkpt lat="42.32968" lon="2.0005">
        <ele>1535.59</ele>
        <time>2021-07-31T12:27:31Z</time>
      </trkpt>
      <trkpt lat="42.33004" lon="2.00047">
        <ele>1538.84</ele>
        <time>2021-07-31T12:27:33Z</time>
      </trkpt>
      <trkpt lat="42.33039" lon="2.00039">
        <ele>1542.46</ele>
        <time>2021-07-31T12:27:35Z</time>
      </trkpt>
      <trkpt lat="42.33073" lon="2.00027">
        <ele>1547.92</ele>
        <time>2021-07-31T12:27:37Z</time>
      </trkpt>
      <trkpt lat="42.33104" lon="2.00015">
        <ele>1551.66</ele>
        <time>2021-07-31T12:27:39Z</time>
      </trkpt>
      <trkpt lat="42.33117" lon="2.00009">
        <ele>1553.36</ele>
        <time>2021-07-31T12:27:40Z</time>
      </trkpt>
      <trkpt lat="42.33147" lon="1.99983">
        <ele>1558.28</ele>
        <time>2021-07-31T12:27:43Z</time>
      </trkpt>
      <trkpt lat="42.33164" lon="1.9994">
        <ele>1562.62</ele>
        <time>2021-07-31T12:27:46Z</time>
      </trkpt>
      <trkpt lat="42.33191" lon="1.99904">
        <ele>1566.62</ele>
        <time>2021-07-31T12:27:49Z</time>
      </trkpt>
      <trkpt lat="42.33203" lon="1.99893">
        <ele>1568.1</ele>
        <time>2021-07-31T12:27:50Z</time>
      </trkpt>
      <trkpt lat="42.33227" lon="1.99872">
        <ele>1571.06</ele>
        <time>2021-07-31T12:27:52Z</time>
      </trkpt>
      <trkpt lat="42.33253" lon="1.99819">
        <ele>1576.31</ele>
        <time>2021-07-31T12:27:56Z</time>
      </trkpt>
      <trkpt lat="42.33253" lon="1.99802">
        <ele>1577.67</ele>
        <time>2021-07-31T12:27:57Z</time>
      </trkpt>
      <trkpt lat="42.33253" lon="1.99728">
        <ele>1582.61</ele>
        <time>2021-07-31T12:28:01Z</time>
      </trkpt>
      <trkpt lat="42.33251" lon="1.99695">
        <ele>1585.15</ele>
        <time>2021-07-31T12:28:03Z</time>
      </trkpt>
      <trkpt lat="42.33222" lon="1.99669">
        <ele>1590.43</ele>
        <time>2021-07-31T12:28:07Z</time>
      </trkpt>
      <trkpt lat="42.332" lon="1.99681">
        <ele>1592.82</ele>
        <time>2021-07-31T12:28:09Z</time>
      </trkpt>
      <trkpt lat="42.33166" lon="1.99705">
        <ele>1596.46</ele>
        <time>2021-07-31T12:28:12Z</time>
      </trkpt>
      <trkpt lat="42.33122" lon="1.99712">
        <ele>1601.47</ele>
        <time>2021-07-31T12:28:16Z</time>
      </trkpt>
      <trkpt lat="42.33098" lon="1.99712">
        <ele>1604.34</ele>
        <time>2021-07-31T12:28:18Z</time>
      </trkpt>
      <trkpt lat="42.33048" lon="1.99723">
        <ele>1609.6</ele>
        <time>2021-07-31T12:28:22Z</time>
      </trkpt>
      <trkpt lat="42.32993" lon="1.99713">
        <ele>1615.05</ele>
        <time>2021-07-31T12:28:26Z</time>
      </trkpt>
      <trkpt lat="42.32949" lon="1.99695">
        <ele>1619.26</ele>
        <time>2021-07-31T12:28:29Z</time>
      </trkpt>
      <trkpt lat="42.32907" lon="1.99663">
        <ele>1623.74</ele>
        <time>2021-07-31T12:28:32Z</time>
      </trkpt>
      <trkpt lat="42.32881" lon="1.99645">
        <ele>1626.92</ele>
        <time>2021-07-31T12:28:34Z</time>
      </trkpt>
      <trkpt lat="42.32857" lon="1.99598">
        <ele>1632.82</ele>
        <time>2021-07-31T12:28:38Z</time>
      </trkpt>
      <trkpt lat="42.32863" lon="1.99563">
        <ele>1635.65</ele>
        <time>2021-07-31T12:28:40Z</time>
      </trkpt>
      <trkpt lat="42.32872" lon="1.99491">
        <ele>1641.15</ele>
        <time>2021-07-31T12:28:44Z</time>
      </trkpt>
      <trkpt lat="42.32865" lon="1.99415">
        <ele>1646.67</ele>
        <time>2021-07-31T12:28:48Z</time>
      </trkpt>
      <trkpt lat="42.32864" lon="1.99332">
        <ele>1652.38</ele>
        <time>2021-07-31T12:28:52Z</time>
      </trkpt>
      <trkpt lat="42.32865" lon="1.99288">
        <ele>1655.6</ele>
        <time>2021-07-31T12:28:54Z</time>
      </trkpt>
      <trkpt lat="42.32869" lon="1.99242">
        <ele>1658.84</ele>
        <time>2021-07-31T12:28:56Z</time>
      </trkpt>
      <trkpt lat="42.32876" lon="1.99195">
        <ele>1662.27</ele>
        <time>2021-07-31T12:28:58Z</time>
      </trkpt>
      <trkpt lat="42.32884" lon="1.99148">
        <ele>1665.83</ele>
        <time>2021-07-31T12:29:00Z</time>
      </trkpt>
      <trkpt lat="42.32893" lon="1.991">
        <ele>1669.42</ele>
        <time>2021-07-31T12:29:02Z</time>
      </trkpt>
      <trkpt lat="42.32908" lon="1.99052">
        <ele>1673.02</ele>
        <time>2021-07-31T12:29:04Z</time>
      </trkpt>
      <trkpt lat="42.32925" lon="1.99012">
        <ele>1676.76</ele>
        <time>2021-07-31T12:29:06Z</time>
      </trkpt>
      <trkpt lat="42.32963" lon="1.98962">
        <ele>1682.41</ele>
        <time>2021-07-31T12:29:09Z</time>
      </trkpt>
      <trkpt lat="42.3299" lon="1.98933">
        <ele>1686.1</ele>
        <time>2021-07-31T12:29:11Z</time>
      </trkpt>
      <trkpt lat="42.33001" lon="1.98918">
        <ele>1687.95</ele>
        <time>2021-07-31T12:29:12Z</time>
      </trkpt>
      <trkpt lat="42.33014" lon="1.9887">
        <ele>1693.57</ele>
        <time>2021-07-31T12:29:15Z</time>
      </trkpt>
      <trkpt lat="42.33013" lon="1.98853">
        <ele>1696.8</ele>
        <time>2021-07-31T12:29:16Z</time>
      </trkpt>
      <trkpt lat="42.33017" lon="1.98807">
        <ele>1700.9</ele>
        <time>2021-07-31T12:29:19Z</time>
      </trkpt>
      <trkpt lat="42.33031" lon="1.9878">
        <ele>1703.59</ele>
        <time>2021-07-31T12:29:21Z</time>
      </trkpt>
      <trkpt lat="42.33064" lon="1.98726">
        <ele>1709.07</ele>
        <time>2021-07-31T12:29:25Z</time>
      </trkpt>
      <trkpt lat="42.33082" lon="1.98696">
        <ele>1711.84</ele>
        <time>2021-07-31T12:29:27Z</time>
      </trkpt>
      <trkpt lat="42.3311" lon="1.98624">
        <ele>1717.73</ele>
        <time>2021-07-31T12:29:31Z</time>
      </trkpt>
      <trkpt lat="42.33117" lon="1.98605">
        <ele>1719.27</ele>
        <time>2021-07-31T12:29:32Z</time>
      </trkpt>
      <trkpt lat="42.33128" lon="1.98541">
        <ele>1724.09</ele>
        <time>2021-07-31T12:29:35Z</time>
      </trkpt>
      <trkpt lat="42.33129" lon="1.98521">
        <ele>1725.65</ele>
        <time>2021-07-31T12:29:36Z</time>
      </trkpt>
      <trkpt lat="42.33148" lon="1.98461">
        <ele>1732.32</ele>
        <time>2021-07-31T12:29:41Z</time>
      </trkpt>
      <trkpt lat="42.33149" lon="1.98436">
        <ele>1735.44</ele>
        <time>2021-07-31T12:29:45Z</time>
      </trkpt>
      <trkpt lat="42.33137" lon="1.98359">
        <ele>1737.43</ele>
        <time>2021-07-31T12:29:51Z</time>
      </trkpt>
      <trkpt lat="42.33142" lon="1.98279">
        <ele>1738.85</ele>
        <time>2021-07-31T12:29:55Z</time>
      </trkpt>
      <trkpt lat="42.33157" lon="1.982">
        <ele>1740.24</ele>
        <time>2021-07-31T12:29:59Z</time>
      </trkpt>
      <trkpt lat="42.33153" lon="1.98122">
        <ele>1741.81</ele>
        <time>2021-07-31T12:30:03Z</time>
      </trkpt>
      <trkpt lat="42.33133" lon="1.98048">
        <ele>1742.84</ele>
        <time>2021-07-31T12:30:07Z</time>
      </trkpt>
      <trkpt lat="42.33154" lon="1.97967">
        <ele>1744.09</ele>
        <time>2021-07-31T12:30:12Z</time>
      </trkpt>
      <trkpt lat="42.33186" lon="1.97929">
        <ele>1744.97</ele>
        <time>2021-07-31T12:30:15Z</time>
      </trkpt>
      <trkpt lat="42.33233" lon="1.97821">
        <ele>1747.4</ele>
        <time>2021-07-31T12:30:22Z</time>
      </trkpt>
      <trkpt lat="42.332" lon="1.97752">
        <ele>1748.45</ele>
        <time>2021-07-31T12:30:26Z</time>
      </trkpt>
      <trkpt lat="42.33175" lon="1.9772">
        <ele>1749.18</ele>
        <time>2021-07-31T12:30:28Z</time>
      </trkpt>
      <trkpt lat="42.3311" lon="1.97597">
        <ele>1751.52</ele>
        <time>2021-07-31T12:30:34Z</time>
      </trkpt>
      <trkpt lat="42.33095" lon="1.97447">
        <ele>1753.8</ele>
        <time>2021-07-31T12:30:40Z</time>
      </trkpt>
      <trkpt lat="42.33056" lon="1.97254">
        <ele>1755.98</ele>
        <time>2021-07-31T12:30:48Z</time>
      </trkpt>
      <trkpt lat="42.33019" lon="1.97146">
        <ele>1757.05</ele>
        <time>2021-07-31T12:30:53Z</time>
      </trkpt>
      <trkpt lat="42.33012" lon="1.96973">
        <ele>1758.69</ele>
        <time>2021-07-31T12:31:00Z</time>
      </trkpt>
      <trkpt lat="42.3304" lon="1.96806">
        <ele>1758.86</ele>
        <time>2021-07-31T12:31:06Z</time>
      </trkpt>
      <trkpt lat="42.33043" lon="1.96716">
        <ele>1758.76</ele>
        <time>2021-07-31T12:31:09Z</time>
      </trkpt>
      <trkpt lat="42.3309" lon="1.96563">
        <ele>1758.16</ele>
        <time>2021-07-31T12:31:15Z</time>
      </trkpt>
      <trkpt lat="42.33098" lon="1.9654">
        <ele>1758.19</ele>
        <time>2021-07-31T12:31:16Z</time>
      </trkpt>
      <trkpt lat="42.33101" lon="1.9639">
        <ele>1758.73</ele>
        <time>2021-07-31T12:31:22Z</time>
      </trkpt>
      <trkpt lat="42.33061" lon="1.96251">
        <ele>1760.53</ele>
        <time>2021-07-31T12:31:28Z</time>
      </trkpt>
      <trkpt lat="42.3301" lon="1.96183">
        <ele>1761.96</ele>
        <time>2021-07-31T12:31:32Z</time>
      </trkpt>
      <trkpt lat="42.32893" lon="1.96076">
        <ele>1765.45</ele>
        <time>2021-07-31T12:31:40Z</time>
      </trkpt>
      <trkpt lat="42.32794" lon="1.95987">
        <ele>1768.44</ele>
        <time>2021-07-31T12:31:48Z</time>
      </trkpt>
      <trkpt lat="42.32746" lon="1.95971">
        <ele>1769.54</ele>
        <time>2021-07-31T12:31:52Z</time>
      </trkpt>
      <trkpt lat="42.3268" lon="1.95947">
        <ele>1770.9</ele>
        <time>2021-07-31T12:31:57Z</time>
      </trkpt>
      <trkpt lat="42.32598" lon="1.95957">
        <ele>1774.77</ele>
        <time>2021-07-31T12:32:03Z</time>
      </trkpt>
      <trkpt lat="42.32537" lon="1.95982">
        <ele>1778.76</ele>
        <time>2021-07-31T12:32:08Z</time>
      </trkpt>
      <trkpt lat="42.32509" lon="1.95993">
        <ele>1781.39</ele>
        <time>2021-07-31T12:32:11Z</time>
      </trkpt>
      <trkpt lat="42.32482" lon="1.96012">
        <ele>1783.86</ele>
        <time>2021-07-31T12:32:15Z</time>
      </trkpt>
      <trkpt lat="42.32437" lon="1.96052">
        <ele>1787.02</ele>
        <time>2021-07-31T12:32:24Z</time>
      </trkpt>
      <trkpt lat="42.32367" lon="1.96103">
        <ele>1786.8</ele>
        <time>2021-07-31T12:32:34Z</time>
      </trkpt>
      <trkpt lat="42.32286" lon="1.96166">
        <ele>1787.14</ele>
        <time>2021-07-31T12:32:42Z</time>
      </trkpt>
      <trkpt lat="42.32251" lon="1.96214">
        <ele>1786.83</ele>
        <time>2021-07-31T12:32:46Z</time>
      </trkpt>
      <trkpt lat="42.32174" lon="1.96383">
        <ele>1786.13</ele>
        <time>2021-07-31T12:32:56Z</time>
      </trkpt>
      <trkpt lat="42.32089" lon="1.96575">
        <ele>1782.81</ele>
        <time>2021-07-31T12:33:04Z</time>
      </trkpt>
      <trkpt lat="42.32022" lon="1.96731">
        <ele>1779.28</ele>
        <time>2021-07-31T12:33:10Z</time>
      </trkpt>
      <trkpt lat="42.31966" lon="1.96849">
        <ele>1775.85</ele>
        <time>2021-07-31T12:33:15Z</time>
      </trkpt>
      <trkpt lat="42.31905" lon="1.96922">
        <ele>1772.65</ele>
        <time>2021-07-31T12:33:19Z</time>
      </trkpt>
      <trkpt lat="42.31843" lon="1.96994">
        <ele>1769.37</ele>
        <time>2021-07-31T12:33:23Z</time>
      </trkpt>
      <trkpt lat="42.31778" lon="1.97056">
        <ele>1766.15</ele>
        <time>2021-07-31T12:33:27Z</time>
      </trkpt>
      <trkpt lat="42.31704" lon="1.97068">
        <ele>1762.9</ele>
        <time>2021-07-31T12:33:31Z</time>
      </trkpt>
      <trkpt lat="42.31627" lon="1.97064">
        <ele>1760.96</ele>
        <time>2021-07-31T12:33:35Z</time>
      </trkpt>
      <trkpt lat="42.31536" lon="1.97063">
        <ele>1759.55</ele>
        <time>2021-07-31T12:33:40Z</time>
      </trkpt>
      <trkpt lat="42.31443" lon="1.97115">
        <ele>1755.7</ele>
        <time>2021-07-31T12:33:46Z</time>
      </trkpt>
      <trkpt lat="42.31388" lon="1.97114">
        <ele>1750.95</ele>
        <time>2021-07-31T12:33:51Z</time>
      </trkpt>
      <trkpt lat="42.31392" lon="1.97074">
        <ele>1747.16</ele>
        <time>2021-07-31T12:33:54Z</time>
      </trkpt>
      <trkpt lat="42.31393" lon="1.9701">
        <ele>1742.92</ele>
        <time>2021-07-31T12:33:58Z</time>
      </trkpt>
      <trkpt lat="42.3136" lon="1.97015">
        <ele>1739.33</ele>
        <time>2021-07-31T12:34:02Z</time>
      </trkpt>
      <trkpt lat="42.31331" lon="1.97052">
        <ele>1737.88</ele>
        <time>2021-07-31T12:34:05Z</time>
      </trkpt>
      <trkpt lat="42.31257" lon="1.97148">
        <ele>1738.51</ele>
        <time>2021-07-31T12:34:11Z</time>
      </trkpt>
      <trkpt lat="42.31179" lon="1.97174">
        <ele>1738.12</ele>
        <time>2021-07-31T12:34:16Z</time>
      </trkpt>
      <trkpt lat="42.3112" lon="1.97221">
        <ele>1737.12</ele>
        <time>2021-07-31T12:34:20Z</time>
      </trkpt>
      <trkpt lat="42.3111" lon="1.97242">
        <ele>1736.82</ele>
        <time>2021-07-31T12:34:21Z</time>
      </trkpt>
      <trkpt lat="42.30994" lon="1.97391">
        <ele>1736.49</ele>
        <time>2021-07-31T12:34:29Z</time>
      </trkpt>
      <trkpt lat="42.30889" lon="1.97514">
        <ele>1736.47</ele>
        <time>2021-07-31T12:34:36Z</time>
      </trkpt>
      <trkpt lat="42.30795" lon="1.97534">
        <ele>1734.6</ele>
        <time>2021-07-31T12:34:42Z</time>
      </trkpt>
      <trkpt lat="42.30729" lon="1.97517">
        <ele>1733.24</ele>
        <time>2021-07-31T12:34:46Z</time>
      </trkpt>
      <trkpt lat="42.30618" lon="1.97456">
        <ele>1730.87</ele>
        <time>2021-07-31T12:34:53Z</time>
      </trkpt>
      <trkpt lat="42.30572" lon="1.97467">
        <ele>1727.99</ele>
        <time>2021-07-31T12:34:58Z</time>
      </trkpt>
      <trkpt lat="42.30585" lon="1.97512">
        <ele>1726.33</ele>
        <time>2021-07-31T12:35:01Z</time>
      </trkpt>
      <trkpt lat="42.30657" lon="1.97658">
        <ele>1729.08</ele>
        <time>2021-07-31T12:35:10Z</time>
      </trkpt>
      <trkpt lat="42.30675" lon="1.97726">
        <ele>1732.64</ele>
        <time>2021-07-31T12:35:13Z</time>
      </trkpt>
      <trkpt lat="42.3068" lon="1.97751">
        <ele>1733.96</ele>
        <time>2021-07-31T12:35:14Z</time>
      </trkpt>
      <trkpt lat="42.30683" lon="1.97854">
        <ele>1739.72</ele>
        <time>2021-07-31T12:35:18Z</time>
      </trkpt>
      <trkpt lat="42.3068" lon="1.97907">
        <ele>1743.3</ele>
        <time>2021-07-31T12:35:20Z</time>
      </trkpt>
      <trkpt lat="42.3068" lon="1.97934">
        <ele>1745.19</ele>
        <time>2021-07-31T12:35:21Z</time>
      </trkpt>
      <trkpt lat="42.30692" lon="1.9801">
        <ele>1750.82</ele>
        <time>2021-07-31T12:35:24Z</time>
      </trkpt>
      <trkpt lat="42.30701" lon="1.98032">
        <ele>1752.57</ele>
        <time>2021-07-31T12:35:25Z</time>
      </trkpt>
      <trkpt lat="42.30717" lon="1.98072">
        <ele>1755.94</ele>
        <time>2021-07-31T12:35:27Z</time>
      </trkpt>
      <trkpt lat="42.30726" lon="1.98135">
        <ele>1760.5</ele>
        <time>2021-07-31T12:35:30Z</time>
      </trkpt>
      <trkpt lat="42.30704" lon="1.98198">
        <ele>1764.36</ele>
        <time>2021-07-31T12:35:33Z</time>
      </trkpt>
      <trkpt lat="42.30677" lon="1.98232">
        <ele>1767.89</ele>
        <time>2021-07-31T12:35:35Z</time>
      </trkpt>
      <trkpt lat="42.30641" lon="1.9825">
        <ele>1770.91</ele>
        <time>2021-07-31T12:35:37Z</time>
      </trkpt>
      <trkpt lat="42.30585" lon="1.98278">
        <ele>1775.79</ele>
        <time>2021-07-31T12:35:40Z</time>
      </trkpt>
      <trkpt lat="42.30551" lon="1.98302">
        <ele>1779.18</ele>
        <time>2021-07-31T12:35:42Z</time>
      </trkpt>
      <trkpt lat="42.30522" lon="1.98322">
        <ele>1782.22</ele>
        <time>2021-07-31T12:35:44Z</time>
      </trkpt>
      <trkpt lat="42.30512" lon="1.98389">
        <ele>1786.62</ele>
        <time>2021-07-31T12:35:49Z</time>
      </trkpt>
      <trkpt lat="42.30537" lon="1.98438">
        <ele>1788.66</ele>
        <time>2021-07-31T12:35:52Z</time>
      </trkpt>
      <trkpt lat="42.30563" lon="1.98493">
        <ele>1792.78</ele>
        <time>2021-07-31T12:35:55Z</time>
      </trkpt>
      <trkpt lat="42.30592" lon="1.98552">
        <ele>1796.73</ele>
        <time>2021-07-31T12:35:58Z</time>
      </trkpt>
      <trkpt lat="42.30613" lon="1.98594">
        <ele>1799.8</ele>
        <time>2021-07-31T12:36:00Z</time>
      </trkpt>
      <trkpt lat="42.30646" lon="1.98659">
        <ele>1804.13</ele>
        <time>2021-07-31T12:36:03Z</time>
      </trkpt>
      <trkpt lat="42.30667" lon="1.98703">
        <ele>1807.53</ele>
        <time>2021-07-31T12:36:05Z</time>
      </trkpt>
      <trkpt lat="42.30689" lon="1.98745">
        <ele>1811.34</ele>
        <time>2021-07-31T12:36:07Z</time>
      </trkpt>
      <trkpt lat="42.30701" lon="1.98803">
        <ele>1816.33</ele>
        <time>2021-07-31T12:36:10Z</time>
      </trkpt>
      <trkpt lat="42.30662" lon="1.98844">
        <ele>1820.18</ele>
        <time>2021-07-31T12:36:14Z</time>
      </trkpt>
      <trkpt lat="42.30634" lon="1.98837">
        <ele>1821.79</ele>
        <time>2021-07-31T12:36:16Z</time>
      </trkpt>
      <trkpt lat="42.30555" lon="1.98833">
        <ele>1825.26</ele>
        <time>2021-07-31T12:36:22Z</time>
      </trkpt>
      <trkpt lat="42.30491" lon="1.98873">
        <ele>1829.72</ele>
        <time>2021-07-31T12:36:27Z</time>
      </trkpt>
      <trkpt lat="42.30454" lon="1.98896">
        <ele>1833.28</ele>
        <time>2021-07-31T12:36:30Z</time>
      </trkpt>
      <trkpt lat="42.30414" lon="1.98919">
        <ele>1837.29</ele>
        <time>2021-07-31T12:36:33Z</time>
      </trkpt>
      <trkpt lat="42.30371" lon="1.98942">
        <ele>1841.02</ele>
        <time>2021-07-31T12:36:36Z</time>
      </trkpt>
      <trkpt lat="42.30312" lon="1.98962">
        <ele>1845.11</ele>
        <time>2021-07-31T12:36:40Z</time>
      </trkpt>
      <trkpt lat="42.30253" lon="1.98958">
        <ele>1849.34</ele>
        <time>2021-07-31T12:36:44Z</time>
      </trkpt>
      <trkpt lat="42.30213" lon="1.9897">
        <ele>1854.17</ele>
        <time>2021-07-31T12:36:49Z</time>
      </trkpt>
      <trkpt lat="42.30218" lon="1.99008">
        <ele>1856.54</ele>
        <time>2021-07-31T12:36:52Z</time>
      </trkpt>
      <trkpt lat="42.30218" lon="1.99109">
        <ele>1861.45</ele>
        <time>2021-07-31T12:36:59Z</time>
      </trkpt>
      <trkpt lat="42.30213" lon="1.99124">
        <ele>1862.26</ele>
        <time>2021-07-31T12:37:00Z</time>
      </trkpt>
      <trkpt lat="42.30175" lon="1.99195">
        <ele>1866.91</ele>
        <time>2021-07-31T12:37:05Z</time>
      </trkpt>
      <trkpt lat="42.30158" lon="1.99227">
        <ele>1868.96</ele>
        <time>2021-07-31T12:37:07Z</time>
      </trkpt>
      <trkpt lat="42.30141" lon="1.99293">
        <ele>1873.07</ele>
        <time>2021-07-31T12:37:11Z</time>
      </trkpt>
      <trkpt lat="42.30135" lon="1.99334">
        <ele>1877.31</ele>
        <time>2021-07-31T12:37:18Z</time>
      </trkpt>
      <trkpt lat="42.30133" lon="1.99343">
        <ele>1878.22</ele>
        <time>2021-07-31T12:37:27Z</time>
      </trkpt>
      <trkpt lat="42.30133" lon="1.99342">
        <ele>1878.81</ele>
        <time>2021-07-31T12:39:26Z</time>
      </trkpt>
      <trkpt lat="42.30133" lon="1.99344">
        <ele>1878.75</ele>
        <time>2021-07-31T12:42:53Z</time>
      </trkpt>
      <trkpt lat="42.30138" lon="1.99371">
        <ele>1878.84</ele>
        <time>2021-07-31T12:42:59Z</time>
      </trkpt>
      <trkpt lat="42.30126" lon="1.9948">
        <ele>1879.66</ele>
        <time>2021-07-31T12:43:08Z</time>
      </trkpt>
      <trkpt lat="42.30096" lon="1.99613">
        <ele>1881.05</ele>
        <time>2021-07-31T12:43:15Z</time>
      </trkpt>
      <trkpt lat="42.30072" lon="1.99834">
        <ele>1882.47</ele>
        <time>2021-07-31T12:43:24Z</time>
      </trkpt>
      <trkpt lat="42.30017" lon="1.9997">
        <ele>1881.03</ele>
        <time>2021-07-31T12:43:31Z</time>
      </trkpt>
      <trkpt lat="42.30001" lon="2.00003">
        <ele>1880.44</ele>
        <time>2021-07-31T12:43:33Z</time>
      </trkpt>
      <trkpt lat="42.29987" lon="2.00132">
        <ele>1879.72</ele>
        <time>2021-07-31T12:43:39Z</time>
      </trkpt>
      <trkpt lat="42.2998" lon="2.00247">
        <ele>1879.24</ele>
        <time>2021-07-31T12:43:44Z</time>
      </trkpt>
      <trkpt lat="42.30002" lon="2.00316">
        <ele>1878.34</ele>
        <time>2021-07-31T12:43:48Z</time>
      </trkpt>
      <trkpt lat="42.30017" lon="2.00431">
        <ele>1876.31</ele>
        <time>2021-07-31T12:43:53Z</time>
      </trkpt>
      <trkpt lat="42.30009" lon="2.00479">
        <ele>1875.35</ele>
        <time>2021-07-31T12:43:55Z</time>
      </trkpt>
      <trkpt lat="42.30009" lon="2.00595">
        <ele>1872.88</ele>
        <time>2021-07-31T12:44:00Z</time>
      </trkpt>
      <trkpt lat="42.30047" lon="2.00663">
        <ele>1869.24</ele>
        <time>2021-07-31T12:44:05Z</time>
      </trkpt>
      <trkpt lat="42.30087" lon="2.00695">
        <ele>1866.05</ele>
        <time>2021-07-31T12:44:09Z</time>
      </trkpt>
      <trkpt lat="42.30071" lon="2.00758">
        <ele>1862.32</ele>
        <time>2021-07-31T12:44:14Z</time>
      </trkpt>
      <trkpt lat="42.30028" lon="2.00877">
        <ele>1860.53</ele>
        <time>2021-07-31T12:44:19Z</time>
      </trkpt>
      <trkpt lat="42.30014" lon="2.01003">
        <ele>1857.98</ele>
        <time>2021-07-31T12:44:24Z</time>
      </trkpt>
      <trkpt lat="42.30043" lon="2.01108">
        <ele>1854.68</ele>
        <time>2021-07-31T12:44:29Z</time>
      </trkpt>
      <trkpt lat="42.30076" lon="2.01163">
        <ele>1852.42</ele>
        <time>2021-07-31T12:44:32Z</time>
      </trkpt>
      <trkpt lat="42.3014" lon="2.0121">
        <ele>1848.53</ele>
        <time>2021-07-31T12:44:36Z</time>
      </trkpt>
      <trkpt lat="42.30207" lon="2.01221">
        <ele>1842.91</ele>
        <time>2021-07-31T12:44:41Z</time>
      </trkpt>
      <trkpt lat="42.302" lon="2.01253">
        <ele>1839.04</ele>
        <time>2021-07-31T12:44:44Z</time>
      </trkpt>
      <trkpt lat="42.30178" lon="2.01263">
        <ele>1837.06</ele>
        <time>2021-07-31T12:44:46Z</time>
      </trkpt>
      <trkpt lat="42.30042" lon="2.01281">
        <ele>1833.04</ele>
        <time>2021-07-31T12:44:54Z</time>
      </trkpt>
      <trkpt lat="42.29914" lon="2.01237">
        <ele>1829.51</ele>
        <time>2021-07-31T12:45:01Z</time>
      </trkpt>
      <trkpt lat="42.29858" lon="2.01291">
        <ele>1825.85</ele>
        <time>2021-07-31T12:45:06Z</time>
      </trkpt>
      <trkpt lat="42.29845" lon="2.01333">
        <ele>1824.75</ele>
        <time>2021-07-31T12:45:08Z</time>
      </trkpt>
      <trkpt lat="42.2982" lon="2.01397">
        <ele>1823.6</ele>
        <time>2021-07-31T12:45:11Z</time>
      </trkpt>
      <trkpt lat="42.29791" lon="2.01543">
        <ele>1821.35</ele>
        <time>2021-07-31T12:45:17Z</time>
      </trkpt>
      <trkpt lat="42.29803" lon="2.01657">
        <ele>1818.02</ele>
        <time>2021-07-31T12:45:23Z</time>
      </trkpt>
      <trkpt lat="42.29825" lon="2.01688">
        <ele>1816.89</ele>
        <time>2021-07-31T12:45:25Z</time>
      </trkpt>
      <trkpt lat="42.29919" lon="2.01773">
        <ele>1814.16</ele>
        <time>2021-07-31T12:45:31Z</time>
      </trkpt>
      <trkpt lat="42.29986" lon="2.018">
        <ele>1812.38</ele>
        <time>2021-07-31T12:45:35Z</time>
      </trkpt>
      <trkpt lat="42.30057" lon="2.01801">
        <ele>1810.53</ele>
        <time>2021-07-31T12:45:39Z</time>
      </trkpt>
      <trkpt lat="42.30103" lon="2.01839">
        <ele>1807.22</ele>
        <time>2021-07-31T12:45:44Z</time>
      </trkpt>
      <trkpt lat="42.30059" lon="2.01915">
        <ele>1803.5</ele>
        <time>2021-07-31T12:45:49Z</time>
      </trkpt>
      <trkpt lat="42.30044" lon="2.02">
        <ele>1798.04</ele>
        <time>2021-07-31T12:45:55Z</time>
      </trkpt>
      <trkpt lat="42.30065" lon="2.02043">
        <ele>1794.28</ele>
        <time>2021-07-31T12:45:59Z</time>
      </trkpt>
      <trkpt lat="42.30007" lon="2.02082">
        <ele>1791.69</ele>
        <time>2021-07-31T12:46:04Z</time>
      </trkpt>
      <trkpt lat="42.29911" lon="2.02078">
        <ele>1790.86</ele>
        <time>2021-07-31T12:46:09Z</time>
      </trkpt>
      <trkpt lat="42.29892" lon="2.02068">
        <ele>1790.78</ele>
        <time>2021-07-31T12:46:10Z</time>
      </trkpt>
      <trkpt lat="42.29858" lon="2.0205">
        <ele>1790.69</ele>
        <time>2021-07-31T12:46:12Z</time>
      </trkpt>
      <trkpt lat="42.29781" lon="2.0205">
        <ele>1789.96</ele>
        <time>2021-07-31T12:46:16Z</time>
      </trkpt>
      <trkpt lat="42.29661" lon="2.02033">
        <ele>1786.09</ele>
        <time>2021-07-31T12:46:21Z</time>
      </trkpt>
      <trkpt lat="42.29592" lon="2.02009">
        <ele>1782.86</ele>
        <time>2021-07-31T12:46:24Z</time>
      </trkpt>
      <trkpt lat="42.29532" lon="2.01987">
        <ele>1778.98</ele>
        <time>2021-07-31T12:46:27Z</time>
      </trkpt>
      <trkpt lat="42.29515" lon="2.01984">
        <ele>1777.56</ele>
        <time>2021-07-31T12:46:28Z</time>
      </trkpt>
      <trkpt lat="42.29456" lon="2.01998">
        <ele>1771.62</ele>
        <time>2021-07-31T12:46:32Z</time>
      </trkpt>
      <trkpt lat="42.29433" lon="2.02027">
        <ele>1768.99</ele>
        <time>2021-07-31T12:46:34Z</time>
      </trkpt>
      <trkpt lat="42.29423" lon="2.02046">
        <ele>1767.7</ele>
        <time>2021-07-31T12:46:35Z</time>
      </trkpt>
      <trkpt lat="42.29416" lon="2.02067">
        <ele>1766.28</ele>
        <time>2021-07-31T12:46:36Z</time>
      </trkpt>
      <trkpt lat="42.29413" lon="2.02091">
        <ele>1764.85</ele>
        <time>2021-07-31T12:46:37Z</time>
      </trkpt>
      <trkpt lat="42.29413" lon="2.02114">
        <ele>1763.52</ele>
        <time>2021-07-31T12:46:38Z</time>
      </trkpt>
      <trkpt lat="42.29416" lon="2.02136">
        <ele>1762.25</ele>
        <time>2021-07-31T12:46:39Z</time>
      </trkpt>
      <trkpt lat="42.2942" lon="2.02158">
        <ele>1761.01</ele>
        <time>2021-07-31T12:46:40Z</time>
      </trkpt>
      <trkpt lat="42.29437" lon="2.0222">
        <ele>1756.87</ele>
        <time>2021-07-31T12:46:43Z</time>
      </trkpt>
      <trkpt lat="42.2948" lon="2.02283">
        <ele>1751.79</ele>
        <time>2021-07-31T12:46:47Z</time>
      </trkpt>
      <trkpt lat="42.29513" lon="2.02295">
        <ele>1749.37</ele>
        <time>2021-07-31T12:46:49Z</time>
      </trkpt>
      <trkpt lat="42.29574" lon="2.02311">
        <ele>1744.5</ele>
        <time>2021-07-31T12:46:53Z</time>
      </trkpt>
      <trkpt lat="42.29587" lon="2.02316">
        <ele>1743.2</ele>
        <time>2021-07-31T12:46:54Z</time>
      </trkpt>
      <trkpt lat="42.29616" lon="2.02359">
        <ele>1738.23</ele>
        <time>2021-07-31T12:46:58Z</time>
      </trkpt>
      <trkpt lat="42.29597" lon="2.02391">
        <ele>1735.86</ele>
        <time>2021-07-31T12:47:00Z</time>
      </trkpt>
      <trkpt lat="42.29541" lon="2.02486">
        <ele>1731.26</ele>
        <time>2021-07-31T12:47:05Z</time>
      </trkpt>
      <trkpt lat="42.29498" lon="2.02565">
        <ele>1727.45</ele>
        <time>2021-07-31T12:47:09Z</time>
      </trkpt>
      <trkpt lat="42.2948" lon="2.0265">
        <ele>1722.25</ele>
        <time>2021-07-31T12:47:13Z</time>
      </trkpt>
      <trkpt lat="42.29479" lon="2.02675">
        <ele>1720.74</ele>
        <time>2021-07-31T12:47:14Z</time>
      </trkpt>
      <trkpt lat="42.29472" lon="2.02738">
        <ele>1715.92</ele>
        <time>2021-07-31T12:47:17Z</time>
      </trkpt>
      <trkpt lat="42.29478" lon="2.02768">
        <ele>1712.56</ele>
        <time>2021-07-31T12:47:19Z</time>
      </trkpt>
      <trkpt lat="42.29497" lon="2.02791">
        <ele>1709.26</ele>
        <time>2021-07-31T12:47:21Z</time>
      </trkpt>
      <trkpt lat="42.29542" lon="2.02875">
        <ele>1702.57</ele>
        <time>2021-07-31T12:47:26Z</time>
      </trkpt>
      <trkpt lat="42.29568" lon="2.02959">
        <ele>1697.96</ele>
        <time>2021-07-31T12:47:30Z</time>
      </trkpt>
      <trkpt lat="42.29616" lon="2.03013">
        <ele>1692.41</ele>
        <time>2021-07-31T12:47:34Z</time>
      </trkpt>
      <trkpt lat="42.29698" lon="2.03037">
        <ele>1688.75</ele>
        <time>2021-07-31T12:47:38Z</time>
      </trkpt>
      <trkpt lat="42.29767" lon="2.03065">
        <ele>1684.05</ele>
        <time>2021-07-31T12:47:42Z</time>
      </trkpt>
      <trkpt lat="42.29814" lon="2.0311">
        <ele>1678.1</ele>
        <time>2021-07-31T12:47:46Z</time>
      </trkpt>
      <trkpt lat="42.29819" lon="2.03136">
        <ele>1675.07</ele>
        <time>2021-07-31T12:47:48Z</time>
      </trkpt>
      <trkpt lat="42.29807" lon="2.03159">
        <ele>1672.06</ele>
        <time>2021-07-31T12:47:50Z</time>
      </trkpt>
      <trkpt lat="42.29782" lon="2.03179">
        <ele>1669.51</ele>
        <time>2021-07-31T12:47:52Z</time>
      </trkpt>
      <trkpt lat="42.29752" lon="2.03199">
        <ele>1667.45</ele>
        <time>2021-07-31T12:47:54Z</time>
      </trkpt>
      <trkpt lat="42.29691" lon="2.03234">
        <ele>1662.7</ele>
        <time>2021-07-31T12:47:59Z</time>
      </trkpt>
      <trkpt lat="42.29691" lon="2.03278">
        <ele>1659.46</ele>
        <time>2021-07-31T12:48:02Z</time>
      </trkpt>
      <trkpt lat="42.29696" lon="2.033">
        <ele>1658.44</ele>
        <time>2021-07-31T12:48:03Z</time>
      </trkpt>
      <trkpt lat="42.29691" lon="2.03366">
        <ele>1652.81</ele>
        <time>2021-07-31T12:48:08Z</time>
      </trkpt>
      <trkpt lat="42.29662" lon="2.0336">
        <ele>1649.52</ele>
        <time>2021-07-31T12:48:11Z</time>
      </trkpt>
      <trkpt lat="42.29643" lon="2.03335">
        <ele>1648.65</ele>
        <time>2021-07-31T12:48:12Z</time>
      </trkpt>
      <trkpt lat="42.29552" lon="2.03258">
        <ele>1644.32</ele>
        <time>2021-07-31T12:48:17Z</time>
      </trkpt>
      <trkpt lat="42.29514" lon="2.03234">
        <ele>1642.27</ele>
        <time>2021-07-31T12:48:19Z</time>
      </trkpt>
      <trkpt lat="42.29472" lon="2.03222">
        <ele>1640.01</ele>
        <time>2021-07-31T12:48:21Z</time>
      </trkpt>
      <trkpt lat="42.29402" lon="2.03179">
        <ele>1634.73</ele>
        <time>2021-07-31T12:48:25Z</time>
      </trkpt>
      <trkpt lat="42.29373" lon="2.03155">
        <ele>1631.71</ele>
        <time>2021-07-31T12:48:27Z</time>
      </trkpt>
      <trkpt lat="42.29325" lon="2.03145">
        <ele>1627.08</ele>
        <time>2021-07-31T12:48:30Z</time>
      </trkpt>
      <trkpt lat="42.29288" lon="2.03157">
        <ele>1624.16</ele>
        <time>2021-07-31T12:48:32Z</time>
      </trkpt>
      <trkpt lat="42.29213" lon="2.0316">
        <ele>1617.84</ele>
        <time>2021-07-31T12:48:36Z</time>
      </trkpt>
      <trkpt lat="42.29195" lon="2.03151">
        <ele>1616.23</ele>
        <time>2021-07-31T12:48:37Z</time>
      </trkpt>
      <trkpt lat="42.29115" lon="2.03145">
        <ele>1610.62</ele>
        <time>2021-07-31T12:48:41Z</time>
      </trkpt>
      <trkpt lat="42.29053" lon="2.03143">
        <ele>1606.41</ele>
        <time>2021-07-31T12:48:44Z</time>
      </trkpt>
      <trkpt lat="42.29019" lon="2.03139">
        <ele>1603.57</ele>
        <time>2021-07-31T12:48:46Z</time>
      </trkpt>
      <trkpt lat="42.28965" lon="2.03167">
        <ele>1597.71</ele>
        <time>2021-07-31T12:48:50Z</time>
      </trkpt>
      <trkpt lat="42.28958" lon="2.03231">
        <ele>1593.59</ele>
        <time>2021-07-31T12:48:53Z</time>
      </trkpt>
      <trkpt lat="42.28965" lon="2.03334">
        <ele>1588.61</ele>
        <time>2021-07-31T12:48:58Z</time>
      </trkpt>
      <trkpt lat="42.28936" lon="2.03395">
        <ele>1586.58</ele>
        <time>2021-07-31T12:49:03Z</time>
      </trkpt>
      <trkpt lat="42.28896" lon="2.03358">
        <ele>1586.14</ele>
        <time>2021-07-31T12:49:06Z</time>
      </trkpt>
      <trkpt lat="42.28852" lon="2.03255">
        <ele>1585.5</ele>
        <time>2021-07-31T12:49:11Z</time>
      </trkpt>
      <trkpt lat="42.28796" lon="2.0323">
        <ele>1583.49</ele>
        <time>2021-07-31T12:49:15Z</time>
      </trkpt>
      <trkpt lat="42.28739" lon="2.03282">
        <ele>1580.67</ele>
        <time>2021-07-31T12:49:20Z</time>
      </trkpt>
      <trkpt lat="42.28737" lon="2.03309">
        <ele>1580.06</ele>
        <time>2021-07-31T12:49:21Z</time>
      </trkpt>
      <trkpt lat="42.28714" lon="2.03419">
        <ele>1576.51</ele>
        <time>2021-07-31T12:49:26Z</time>
      </trkpt>
      <trkpt lat="42.28679" lon="2.03479">
        <ele>1572.23</ele>
        <time>2021-07-31T12:49:30Z</time>
      </trkpt>
      <trkpt lat="42.28638" lon="2.03479">
        <ele>1569.16</ele>
        <time>2021-07-31T12:49:33Z</time>
      </trkpt>
      <trkpt lat="42.28614" lon="2.0345">
        <ele>1567</ele>
        <time>2021-07-31T12:49:35Z</time>
      </trkpt>
      <trkpt lat="42.28573" lon="2.03388">
        <ele>1562.91</ele>
        <time>2021-07-31T12:49:39Z</time>
      </trkpt>
      <trkpt lat="42.28544" lon="2.03339">
        <ele>1559.44</ele>
        <time>2021-07-31T12:49:42Z</time>
      </trkpt>
      <trkpt lat="42.28535" lon="2.03324">
        <ele>1558.23</ele>
        <time>2021-07-31T12:49:43Z</time>
      </trkpt>
      <trkpt lat="42.28489" lon="2.03305">
        <ele>1553.3</ele>
        <time>2021-07-31T12:49:47Z</time>
      </trkpt>
      <trkpt lat="42.28475" lon="2.0331">
        <ele>1552.02</ele>
        <time>2021-07-31T12:49:48Z</time>
      </trkpt>
      <trkpt lat="42.28425" lon="2.03327">
        <ele>1547.93</ele>
        <time>2021-07-31T12:49:51Z</time>
      </trkpt>
      <trkpt lat="42.2838" lon="2.03332">
        <ele>1544.26</ele>
        <time>2021-07-31T12:49:54Z</time>
      </trkpt>
      <trkpt lat="42.28339" lon="2.03367">
        <ele>1539.04</ele>
        <time>2021-07-31T12:49:58Z</time>
      </trkpt>
      <trkpt lat="42.28329" lon="2.03386">
        <ele>1537.73</ele>
        <time>2021-07-31T12:49:59Z</time>
      </trkpt>
      <trkpt lat="42.28294" lon="2.03458">
        <ele>1532.84</ele>
        <time>2021-07-31T12:50:03Z</time>
      </trkpt>
      <trkpt lat="42.2828" lon="2.03483">
        <ele>1530.4</ele>
        <time>2021-07-31T12:50:05Z</time>
      </trkpt>
      <trkpt lat="42.28249" lon="2.03471">
        <ele>1524.77</ele>
        <time>2021-07-31T12:50:09Z</time>
      </trkpt>
      <trkpt lat="42.28247" lon="2.03408">
        <ele>1520.99</ele>
        <time>2021-07-31T12:50:12Z</time>
      </trkpt>
      <trkpt lat="42.28269" lon="2.03355">
        <ele>1517.45</ele>
        <time>2021-07-31T12:50:15Z</time>
      </trkpt>
      <trkpt lat="42.28306" lon="2.03338">
        <ele>1513.98</ele>
        <time>2021-07-31T12:50:18Z</time>
      </trkpt>
      <trkpt lat="42.28326" lon="2.03295">
        <ele>1510.91</ele>
        <time>2021-07-31T12:50:21Z</time>
      </trkpt>
      <trkpt lat="42.28356" lon="2.03236">
        <ele>1506.79</ele>
        <time>2021-07-31T12:50:25Z</time>
      </trkpt>
      <trkpt lat="42.28367" lon="2.03177">
        <ele>1503.7</ele>
        <time>2021-07-31T12:50:28Z</time>
      </trkpt>
      <trkpt lat="42.28374" lon="2.03121">
        <ele>1500.72</ele>
        <time>2021-07-31T12:50:31Z</time>
      </trkpt>
      <trkpt lat="42.28367" lon="2.03056">
        <ele>1496.42</ele>
        <time>2021-07-31T12:50:35Z</time>
      </trkpt>
      <trkpt lat="42.28324" lon="2.03026">
        <ele>1492.59</ele>
        <time>2021-07-31T12:50:39Z</time>
      </trkpt>
      <trkpt lat="42.28279" lon="2.0299">
        <ele>1488.69</ele>
        <time>2021-07-31T12:50:43Z</time>
      </trkpt>
      <trkpt lat="42.28281" lon="2.02938">
        <ele>1485.64</ele>
        <time>2021-07-31T12:50:46Z</time>
      </trkpt>
      <trkpt lat="42.28288" lon="2.02922">
        <ele>1484.49</ele>
        <time>2021-07-31T12:50:47Z</time>
      </trkpt>
      <trkpt lat="42.28304" lon="2.02888">
        <ele>1482.41</ele>
        <time>2021-07-31T12:50:49Z</time>
      </trkpt>
      <trkpt lat="42.28315" lon="2.02806">
        <ele>1478.67</ele>
        <time>2021-07-31T12:50:53Z</time>
      </trkpt>
      <trkpt lat="42.28315" lon="2.02741">
        <ele>1474.96</ele>
        <time>2021-07-31T12:50:56Z</time>
      </trkpt>
      <trkpt lat="42.28284" lon="2.02661">
        <ele>1470.28</ele>
        <time>2021-07-31T12:51:01Z</time>
      </trkpt>
      <trkpt lat="42.28216" lon="2.02642">
        <ele>1466.63</ele>
        <time>2021-07-31T12:51:06Z</time>
      </trkpt>
      <trkpt lat="42.28134" lon="2.02618">
        <ele>1462.65</ele>
        <time>2021-07-31T12:51:12Z</time>
      </trkpt>
      <trkpt lat="42.28105" lon="2.02596">
        <ele>1461.7</ele>
        <time>2021-07-31T12:51:14Z</time>
      </trkpt>
      <trkpt lat="42.28037" lon="2.02596">
        <ele>1457.68</ele>
        <time>2021-07-31T12:51:19Z</time>
      </trkpt>
      <trkpt lat="42.28025" lon="2.02612">
        <ele>1456.76</ele>
        <time>2021-07-31T12:51:20Z</time>
      </trkpt>
      <trkpt lat="42.27989" lon="2.0266">
        <ele>1453.72</ele>
        <time>2021-07-31T12:51:23Z</time>
      </trkpt>
      <trkpt lat="42.27941" lon="2.02686">
        <ele>1450.46</ele>
        <time>2021-07-31T12:51:26Z</time>
      </trkpt>
      <trkpt lat="42.27885" lon="2.02752">
        <ele>1445.9</ele>
        <time>2021-07-31T12:51:30Z</time>
      </trkpt>
      <trkpt lat="42.27855" lon="2.02825">
        <ele>1442.46</ele>
        <time>2021-07-31T12:51:33Z</time>
      </trkpt>
      <trkpt lat="42.27831" lon="2.02895">
        <ele>1438.83</ele>
        <time>2021-07-31T12:51:36Z</time>
      </trkpt>
      <trkpt lat="42.27791" lon="2.02944">
        <ele>1433.68</ele>
        <time>2021-07-31T12:51:40Z</time>
      </trkpt>
      <trkpt lat="42.27766" lon="2.02906">
        <ele>1429.61</ele>
        <time>2021-07-31T12:51:43Z</time>
      </trkpt>
      <trkpt lat="42.27765" lon="2.02863">
        <ele>1427.44</ele>
        <time>2021-07-31T12:51:45Z</time>
      </trkpt>
      <trkpt lat="42.27768" lon="2.02741">
        <ele>1423.31</ele>
        <time>2021-07-31T12:51:50Z</time>
      </trkpt>
      <trkpt lat="42.27803" lon="2.02624">
        <ele>1420.17</ele>
        <time>2021-07-31T12:51:55Z</time>
      </trkpt>
      <trkpt lat="42.27851" lon="2.02545">
        <ele>1418.29</ele>
        <time>2021-07-31T12:51:59Z</time>
      </trkpt>
      <trkpt lat="42.27907" lon="2.02502">
        <ele>1416.4</ele>
        <time>2021-07-31T12:52:03Z</time>
      </trkpt>
      <trkpt lat="42.27935" lon="2.02441">
        <ele>1413.84</ele>
        <time>2021-07-31T12:52:09Z</time>
      </trkpt>
      <trkpt lat="42.27939" lon="2.02338">
        <ele>1411.17</ele>
        <time>2021-07-31T12:52:15Z</time>
      </trkpt>
      <trkpt lat="42.27947" lon="2.02249">
        <ele>1408.39</ele>
        <time>2021-07-31T12:52:20Z</time>
      </trkpt>
      <trkpt lat="42.27952" lon="2.02208">
        <ele>1406.96</ele>
        <time>2021-07-31T12:52:22Z</time>
      </trkpt>
      <trkpt lat="42.27981" lon="2.02099">
        <ele>1402.44</ele>
        <time>2021-07-31T12:52:27Z</time>
      </trkpt>
      <trkpt lat="42.27988" lon="2.0208">
        <ele>1401.35</ele>
        <time>2021-07-31T12:52:28Z</time>
      </trkpt>
      <trkpt lat="42.28023" lon="2.02025">
        <ele>1396.75</ele>
        <time>2021-07-31T12:52:32Z</time>
      </trkpt>
      <trkpt lat="42.28035" lon="2.01982">
        <ele>1392.09</ele>
        <time>2021-07-31T12:52:35Z</time>
      </trkpt>
      <trkpt lat="42.28037" lon="2.01966">
        <ele>1391</ele>
        <time>2021-07-31T12:52:36Z</time>
      </trkpt>
      <trkpt lat="42.28035" lon="2.0186">
        <ele>1385.2</ele>
        <time>2021-07-31T12:52:42Z</time>
      </trkpt>
      <trkpt lat="42.28049" lon="2.01827">
        <ele>1383.16</ele>
        <time>2021-07-31T12:52:44Z</time>
      </trkpt>
      <trkpt lat="42.28068" lon="2.01793">
        <ele>1381.32</ele>
        <time>2021-07-31T12:52:46Z</time>
      </trkpt>
      <trkpt lat="42.28083" lon="2.01719">
        <ele>1377.35</ele>
        <time>2021-07-31T12:52:50Z</time>
      </trkpt>
      <trkpt lat="42.28069" lon="2.01667">
        <ele>1374.15</ele>
        <time>2021-07-31T12:52:53Z</time>
      </trkpt>
      <trkpt lat="42.28039" lon="2.01639">
        <ele>1370.71</ele>
        <time>2021-07-31T12:52:56Z</time>
      </trkpt>
      <trkpt lat="42.28031" lon="2.01602">
        <ele>1366.78</ele>
        <time>2021-07-31T12:52:59Z</time>
      </trkpt>
      <trkpt lat="42.28047" lon="2.0157">
        <ele>1363.13</ele>
        <time>2021-07-31T12:53:02Z</time>
      </trkpt>
      <trkpt lat="42.2806" lon="2.01558">
        <ele>1360.97</ele>
        <time>2021-07-31T12:53:04Z</time>
      </trkpt>
      <trkpt lat="42.28083" lon="2.01519">
        <ele>1355.62</ele>
        <time>2021-07-31T12:53:10Z</time>
      </trkpt>
      <trkpt lat="42.28067" lon="2.01495">
        <ele>1353.97</ele>
        <time>2021-07-31T12:53:13Z</time>
      </trkpt>
      <trkpt lat="42.28028" lon="2.01429">
        <ele>1351.22</ele>
        <time>2021-07-31T12:53:18Z</time>
      </trkpt>
      <trkpt lat="42.2802" lon="2.01398">
        <ele>1349.95</ele>
        <time>2021-07-31T12:53:20Z</time>
      </trkpt>
      <trkpt lat="42.27979" lon="2.01377">
        <ele>1346.22</ele>
        <time>2021-07-31T12:53:25Z</time>
      </trkpt>
      <trkpt lat="42.27973" lon="2.01435">
        <ele>1343.62</ele>
        <time>2021-07-31T12:53:29Z</time>
      </trkpt>
      <trkpt lat="42.2798" lon="2.01546">
        <ele>1339.96</ele>
        <time>2021-07-31T12:53:34Z</time>
      </trkpt>
      <trkpt lat="42.27982" lon="2.01568">
        <ele>1339.16</ele>
        <time>2021-07-31T12:53:35Z</time>
      </trkpt>
      <trkpt lat="42.2797" lon="2.01629">
        <ele>1336.31</ele>
        <time>2021-07-31T12:53:38Z</time>
      </trkpt>
      <trkpt lat="42.27964" lon="2.01716">
        <ele>1331.32</ele>
        <time>2021-07-31T12:53:43Z</time>
      </trkpt>
      <trkpt lat="42.2794" lon="2.01754">
        <ele>1327.9</ele>
        <time>2021-07-31T12:53:46Z</time>
      </trkpt>
      <trkpt lat="42.27934" lon="2.01823">
        <ele>1324</ele>
        <time>2021-07-31T12:53:50Z</time>
      </trkpt>
      <trkpt lat="42.27915" lon="2.01931">
        <ele>1318.79</ele>
        <time>2021-07-31T12:53:56Z</time>
      </trkpt>
      <trkpt lat="42.2789" lon="2.01954">
        <ele>1316.67</ele>
        <time>2021-07-31T12:53:58Z</time>
      </trkpt>
      <trkpt lat="42.27866" lon="2.01977">
        <ele>1314.75</ele>
        <time>2021-07-31T12:54:00Z</time>
      </trkpt>
      <trkpt lat="42.27819" lon="2.02066">
        <ele>1310.3</ele>
        <time>2021-07-31T12:54:05Z</time>
      </trkpt>
      <trkpt lat="42.27787" lon="2.02147">
        <ele>1306.93</ele>
        <time>2021-07-31T12:54:09Z</time>
      </trkpt>
      <trkpt lat="42.27763" lon="2.02239">
        <ele>1302.6</ele>
        <time>2021-07-31T12:54:14Z</time>
      </trkpt>
      <trkpt lat="42.27745" lon="2.0226">
        <ele>1299.28</ele>
        <time>2021-07-31T12:54:17Z</time>
      </trkpt>
      <trkpt lat="42.27744" lon="2.02209">
        <ele>1296.77</ele>
        <time>2021-07-31T12:54:21Z</time>
      </trkpt>
      <trkpt lat="42.27751" lon="2.02192">
        <ele>1296.32</ele>
        <time>2021-07-31T12:54:22Z</time>
      </trkpt>
      <trkpt lat="42.27775" lon="2.02134">
        <ele>1294.92</ele>
        <time>2021-07-31T12:54:25Z</time>
      </trkpt>
      <trkpt lat="42.27813" lon="2.01992">
        <ele>1292.23</ele>
        <time>2021-07-31T12:54:31Z</time>
      </trkpt>
      <trkpt lat="42.27821" lon="2.0195">
        <ele>1290.85</ele>
        <time>2021-07-31T12:54:33Z</time>
      </trkpt>
      <trkpt lat="42.27854" lon="2.01893">
        <ele>1286.88</ele>
        <time>2021-07-31T12:54:37Z</time>
      </trkpt>
      <trkpt lat="42.27866" lon="2.01803">
        <ele>1282.18</ele>
        <time>2021-07-31T12:54:42Z</time>
      </trkpt>
      <trkpt lat="42.27868" lon="2.0171">
        <ele>1277.08</ele>
        <time>2021-07-31T12:54:47Z</time>
      </trkpt>
      <trkpt lat="42.27882" lon="2.0164">
        <ele>1273.76</ele>
        <time>2021-07-31T12:54:51Z</time>
      </trkpt>
      <trkpt lat="42.27876" lon="2.01594">
        <ele>1272.3</ele>
        <time>2021-07-31T12:54:53Z</time>
      </trkpt>
      <trkpt lat="42.27877" lon="2.01515">
        <ele>1270.41</ele>
        <time>2021-07-31T12:54:56Z</time>
      </trkpt>
      <trkpt lat="42.27847" lon="2.01375">
        <ele>1265.93</ele>
        <time>2021-07-31T12:55:02Z</time>
      </trkpt>
      <trkpt lat="42.27854" lon="2.01296">
        <ele>1261.31</ele>
        <time>2021-07-31T12:55:06Z</time>
      </trkpt>
      <trkpt lat="42.27855" lon="2.01275">
        <ele>1260.19</ele>
        <time>2021-07-31T12:55:07Z</time>
      </trkpt>
      <trkpt lat="42.27856" lon="2.01208">
        <ele>1257.16</ele>
        <time>2021-07-31T12:55:10Z</time>
      </trkpt>
      <trkpt lat="42.27847" lon="2.0112">
        <ele>1253.51</ele>
        <time>2021-07-31T12:55:14Z</time>
      </trkpt>
      <trkpt lat="42.27847" lon="2.01058">
        <ele>1250.9</ele>
        <time>2021-07-31T12:55:17Z</time>
      </trkpt>
      <trkpt lat="42.27838" lon="2.00978">
        <ele>1247.48</ele>
        <time>2021-07-31T12:55:21Z</time>
      </trkpt>
      <trkpt lat="42.27806" lon="2.00884">
        <ele>1243.03</ele>
        <time>2021-07-31T12:55:27Z</time>
      </trkpt>
      <trkpt lat="42.27799" lon="2.00794">
        <ele>1239.67</ele>
        <time>2021-07-31T12:55:32Z</time>
      </trkpt>
      <trkpt lat="42.27781" lon="2.00687">
        <ele>1235.23</ele>
        <time>2021-07-31T12:55:38Z</time>
      </trkpt>
      <trkpt lat="42.27776" lon="2.00671">
        <ele>1234.27</ele>
        <time>2021-07-31T12:55:39Z</time>
      </trkpt>
      <trkpt lat="42.27768" lon="2.00656">
        <ele>1233.33</ele>
        <time>2021-07-31T12:55:40Z</time>
      </trkpt>
      <trkpt lat="42.27755" lon="2.00645">
        <ele>1232.44</ele>
        <time>2021-07-31T12:55:41Z</time>
      </trkpt>
      <trkpt lat="42.27743" lon="2.00633">
        <ele>1231.56</ele>
        <time>2021-07-31T12:55:42Z</time>
      </trkpt>
      <trkpt lat="42.27703" lon="2.00536">
        <ele>1226.96</ele>
        <time>2021-07-31T12:55:47Z</time>
      </trkpt>
      <trkpt lat="42.27698" lon="2.00456">
        <ele>1223.04</ele>
        <time>2021-07-31T12:55:51Z</time>
      </trkpt>
      <trkpt lat="42.27677" lon="2.00401">
        <ele>1217.7</ele>
        <time>2021-07-31T12:55:55Z</time>
      </trkpt>
      <trkpt lat="42.27693" lon="2.00369">
        <ele>1214.17</ele>
        <time>2021-07-31T12:55:58Z</time>
      </trkpt>
      <trkpt lat="42.27719" lon="2.0038">
        <ele>1211.1</ele>
        <time>2021-07-31T12:56:01Z</time>
      </trkpt>
      <trkpt lat="42.27758" lon="2.00439">
        <ele>1208.54</ele>
        <time>2021-07-31T12:56:04Z</time>
      </trkpt>
      <trkpt lat="42.2778" lon="2.00473">
        <ele>1206.87</ele>
        <time>2021-07-31T12:56:06Z</time>
      </trkpt>
      <trkpt lat="42.27809" lon="2.00495">
        <ele>1204.41</ele>
        <time>2021-07-31T12:56:09Z</time>
      </trkpt>
      <trkpt lat="42.27832" lon="2.00486">
        <ele>1202.75</ele>
        <time>2021-07-31T12:56:11Z</time>
      </trkpt>
      <trkpt lat="42.27875" lon="2.00459">
        <ele>1199.92</ele>
        <time>2021-07-31T12:56:15Z</time>
      </trkpt>
      <trkpt lat="42.27901" lon="2.00389">
        <ele>1196.08</ele>
        <time>2021-07-31T12:56:21Z</time>
      </trkpt>
      <trkpt lat="42.27913" lon="2.00367">
        <ele>1194.94</ele>
        <time>2021-07-31T12:56:23Z</time>
      </trkpt>
      <trkpt lat="42.27908" lon="2.00286">
        <ele>1191.52</ele>
        <time>2021-07-31T12:56:29Z</time>
      </trkpt>
      <trkpt lat="42.27888" lon="2.00203">
        <ele>1186.65</ele>
        <time>2021-07-31T12:56:36Z</time>
      </trkpt>
      <trkpt lat="42.27841" lon="2.00204">
        <ele>1184.5</ele>
        <time>2021-07-31T12:56:39Z</time>
      </trkpt>
      <trkpt lat="42.27821" lon="2.00182">
        <ele>1182.72</ele>
        <time>2021-07-31T12:56:41Z</time>
      </trkpt>
      <trkpt lat="42.27764" lon="2.00171">
        <ele>1178.76</ele>
        <time>2021-07-31T12:56:46Z</time>
      </trkpt>
      <trkpt lat="42.27735" lon="2.00175">
        <ele>1177.26</ele>
        <time>2021-07-31T12:56:48Z</time>
      </trkpt>
      <trkpt lat="42.27679" lon="2.00147">
        <ele>1173.99</ele>
        <time>2021-07-31T12:56:52Z</time>
      </trkpt>
      <trkpt lat="42.27643" lon="2.00113">
        <ele>1171.67</ele>
        <time>2021-07-31T12:56:55Z</time>
      </trkpt>
      <trkpt lat="42.27604" lon="2.00026">
        <ele>1167.23</ele>
        <time>2021-07-31T12:57:00Z</time>
      </trkpt>
      <trkpt lat="42.27607" lon="1.99979">
        <ele>1165.38</ele>
        <time>2021-07-31T12:57:02Z</time>
      </trkpt>
      <trkpt lat="42.27605" lon="1.99917">
        <ele>1162.86</ele>
        <time>2021-07-31T12:57:05Z</time>
      </trkpt>
      <trkpt lat="42.2763" lon="1.99826">
        <ele>1158.88</ele>
        <time>2021-07-31T12:57:10Z</time>
      </trkpt>
      <trkpt lat="42.27634" lon="1.99809">
        <ele>1157.98</ele>
        <time>2021-07-31T12:57:11Z</time>
      </trkpt>
      <trkpt lat="42.27635" lon="1.99777">
        <ele>1156.05</ele>
        <time>2021-07-31T12:57:13Z</time>
      </trkpt>
      <trkpt lat="42.27572" lon="1.99763">
        <ele>1151.56</ele>
        <time>2021-07-31T12:57:18Z</time>
      </trkpt>
      <trkpt lat="42.27546" lon="1.99759">
        <ele>1149.8</ele>
        <time>2021-07-31T12:57:20Z</time>
      </trkpt>
      <trkpt lat="42.27498" lon="1.99736">
        <ele>1144.82</ele>
        <time>2021-07-31T12:57:25Z</time>
      </trkpt>
      <trkpt lat="42.27492" lon="1.99727">
        <ele>1143.8</ele>
        <time>2021-07-31T12:57:26Z</time>
      </trkpt>
      <trkpt lat="42.27502" lon="1.99619">
        <ele>1139.65</ele>
        <time>2021-07-31T12:57:31Z</time>
      </trkpt>
      <trkpt lat="42.27502" lon="1.99597">
        <ele>1138.82</ele>
        <time>2021-07-31T12:57:32Z</time>
      </trkpt>
      <trkpt lat="42.27516" lon="1.99514">
        <ele>1134.1</ele>
        <time>2021-07-31T12:57:36Z</time>
      </trkpt>
      <trkpt lat="42.27517" lon="1.99493">
        <ele>1133.14</ele>
        <time>2021-07-31T12:57:37Z</time>
      </trkpt>
      <trkpt lat="42.27505" lon="1.99422">
        <ele>1129.18</ele>
        <time>2021-07-31T12:57:41Z</time>
      </trkpt>
      <trkpt lat="42.27503" lon="1.99404">
        <ele>1128.16</ele>
        <time>2021-07-31T12:57:42Z</time>
      </trkpt>
      <trkpt lat="42.2751" lon="1.99329">
        <ele>1124.18</ele>
        <time>2021-07-31T12:57:46Z</time>
      </trkpt>
      <trkpt lat="42.27522" lon="1.99271">
        <ele>1121.13</ele>
        <time>2021-07-31T12:57:49Z</time>
      </trkpt>
      <trkpt lat="42.27522" lon="1.9925">
        <ele>1120.21</ele>
        <time>2021-07-31T12:57:50Z</time>
      </trkpt>
      <trkpt lat="42.27514" lon="1.99132">
        <ele>1115.8</ele>
        <time>2021-07-31T12:57:55Z</time>
      </trkpt>
      <trkpt lat="42.27506" lon="1.99032">
        <ele>1112.09</ele>
        <time>2021-07-31T12:57:59Z</time>
      </trkpt>
      <trkpt lat="42.27506" lon="1.99008">
        <ele>1111.06</ele>
        <time>2021-07-31T12:58:00Z</time>
      </trkpt>
      <trkpt lat="42.27519" lon="1.98932">
        <ele>1106.51</ele>
        <time>2021-07-31T12:58:04Z</time>
      </trkpt>
      <trkpt lat="42.27526" lon="1.98918">
        <ele>1105.24</ele>
        <time>2021-07-31T12:58:05Z</time>
      </trkpt>
      <trkpt lat="42.2754" lon="1.98863">
        <ele>1099.81</ele>
        <time>2021-07-31T12:58:10Z</time>
      </trkpt>
      <trkpt lat="42.27522" lon="1.98856">
        <ele>1096.61</ele>
        <time>2021-07-31T12:58:14Z</time>
      </trkpt>
      <trkpt lat="42.27503" lon="1.98898">
        <ele>1094.97</ele>
        <time>2021-07-31T12:58:17Z</time>
      </trkpt>
      <trkpt lat="42.27463" lon="1.99055">
        <ele>1091.27</ele>
        <time>2021-07-31T12:58:24Z</time>
      </trkpt>
      <trkpt lat="42.2745" lon="1.99182">
        <ele>1087.39</ele>
        <time>2021-07-31T12:58:29Z</time>
      </trkpt>
      <trkpt lat="42.27448" lon="1.99227">
        <ele>1085.44</ele>
        <time>2021-07-31T12:58:31Z</time>
      </trkpt>
      <trkpt lat="42.27432" lon="1.9928">
        <ele>1080.36</ele>
        <time>2021-07-31T12:58:35Z</time>
      </trkpt>
      <trkpt lat="42.27426" lon="1.99286">
        <ele>1077.68</ele>
        <time>2021-07-31T12:58:37Z</time>
      </trkpt>
      <trkpt lat="42.27415" lon="1.9923">
        <ele>1073.34</ele>
        <time>2021-07-31T12:58:41Z</time>
      </trkpt>
      <trkpt lat="42.27405" lon="1.99175">
        <ele>1071.16</ele>
        <time>2021-07-31T12:58:44Z</time>
      </trkpt>
      <trkpt lat="42.27391" lon="1.99052">
        <ele>1066.96</ele>
        <time>2021-07-31T12:58:50Z</time>
      </trkpt>
      <trkpt lat="42.27384" lon="1.99013">
        <ele>1065.43</ele>
        <time>2021-07-31T12:58:52Z</time>
      </trkpt>
      <trkpt lat="42.27391" lon="1.98901">
        <ele>1061.19</ele>
        <time>2021-07-31T12:58:57Z</time>
      </trkpt>
      <trkpt lat="42.27389" lon="1.98844">
        <ele>1059.03</ele>
        <time>2021-07-31T12:59:00Z</time>
      </trkpt>
      <trkpt lat="42.27373" lon="1.98796">
        <ele>1054.76</ele>
        <time>2021-07-31T12:59:05Z</time>
      </trkpt>
      <trkpt lat="42.27351" lon="1.98815">
        <ele>1051.63</ele>
        <time>2021-07-31T12:59:11Z</time>
      </trkpt>
      <trkpt lat="42.27351" lon="1.98825">
        <ele>1051.45</ele>
        <time>2021-07-31T12:59:12Z</time>
      </trkpt>
      <trkpt lat="42.27349" lon="1.9886">
        <ele>1051.5</ele>
        <time>2021-07-31T12:59:15Z</time>
      </trkpt>
      <trkpt lat="42.27328" lon="1.98909">
        <ele>1052.16</ele>
        <time>2021-07-31T12:59:19Z</time>
      </trkpt>
      <trkpt lat="42.27269" lon="1.98906">
        <ele>1053.41</ele>
        <time>2021-07-31T12:59:23Z</time>
      </trkpt>
      <trkpt lat="42.27176" lon="1.98827">
        <ele>1056.62</ele>
        <time>2021-07-31T12:59:29Z</time>
      </trkpt>
      <trkpt lat="42.27117" lon="1.9877">
        <ele>1060.27</ele>
        <time>2021-07-31T12:59:33Z</time>
      </trkpt>
      <trkpt lat="42.2704" lon="1.98759">
        <ele>1063.45</ele>
        <time>2021-07-31T12:59:38Z</time>
      </trkpt>
      <trkpt lat="42.27009" lon="1.98775">
        <ele>1064.55</ele>
        <time>2021-07-31T12:59:40Z</time>
      </trkpt>
      <trkpt lat="42.2692" lon="1.98774">
        <ele>1068</ele>
        <time>2021-07-31T12:59:46Z</time>
      </trkpt>
      <trkpt lat="42.26874" lon="1.98696">
        <ele>1067.29</ele>
        <time>2021-07-31T12:59:52Z</time>
      </trkpt>
      <trkpt lat="42.26833" lon="1.98692">
        <ele>1063.87</ele>
        <time>2021-07-31T12:59:58Z</time>
      </trkpt>
      <trkpt lat="42.26809" lon="1.98723">
        <ele>1062.8</ele>
        <time>2021-07-31T13:00:01Z</time>
      </trkpt>
      <trkpt lat="42.26777" lon="1.98698">
        <ele>1062.54</ele>
        <time>2021-07-31T13:00:06Z</time>
      </trkpt>
      <trkpt lat="42.26731" lon="1.98682">
        <ele>1063.07</ele>
        <time>2021-07-31T13:00:12Z</time>
      </trkpt>
      <trkpt lat="42.26708" lon="1.98704">
        <ele>1063.02</ele>
        <time>2021-07-31T13:00:14Z</time>
      </trkpt>
      <trkpt lat="42.26672" lon="1.98738">
        <ele>1062.81</ele>
        <time>2021-07-31T13:00:17Z</time>
      </trkpt>
      <trkpt lat="42.26621" lon="1.98761">
        <ele>1062.16</ele>
        <time>2021-07-31T13:00:21Z</time>
      </trkpt>
      <trkpt lat="42.26512" lon="1.98816">
        <ele>1058.65</ele>
        <time>2021-07-31T13:00:29Z</time>
      </trkpt>
      <trkpt lat="42.26486" lon="1.98821">
        <ele>1056.68</ele>
        <time>2021-07-31T13:00:31Z</time>
      </trkpt>
      <trkpt lat="42.26451" lon="1.98778">
        <ele>1051.83</ele>
        <time>2021-07-31T13:00:36Z</time>
      </trkpt>
      <trkpt lat="42.26447" lon="1.98763">
        <ele>1050.98</ele>
        <time>2021-07-31T13:00:37Z</time>
      </trkpt>
      <trkpt lat="42.26408" lon="1.98626">
        <ele>1046.94</ele>
        <time>2021-07-31T13:00:44Z</time>
      </trkpt>
      <trkpt lat="42.26381" lon="1.98564">
        <ele>1043.5</ele>
        <time>2021-07-31T13:00:48Z</time>
      </trkpt>
      <trkpt lat="42.26368" lon="1.9849">
        <ele>1037.7</ele>
        <time>2021-07-31T13:00:52Z</time>
      </trkpt>
      <trkpt lat="42.2633" lon="1.98456">
        <ele>1033.09</ele>
        <time>2021-07-31T13:00:55Z</time>
      </trkpt>
      <trkpt lat="42.26319" lon="1.9844">
        <ele>1029.65</ele>
        <time>2021-07-31T13:00:56Z</time>
      </trkpt>
      <trkpt lat="42.26302" lon="1.98404">
        <ele>1026.21</ele>
        <time>2021-07-31T13:00:58Z</time>
      </trkpt>
      <trkpt lat="42.26295" lon="1.98369">
        <ele>1022.89</ele>
        <time>2021-07-31T13:01:00Z</time>
      </trkpt>
      <trkpt lat="42.26285" lon="1.98346">
        <ele>1019.63</ele>
        <time>2021-07-31T13:01:02Z</time>
      </trkpt>
      <trkpt lat="42.26271" lon="1.98347">
        <ele>1016.35</ele>
        <time>2021-07-31T13:01:04Z</time>
      </trkpt>
      <trkpt lat="42.26259" lon="1.9836">
        <ele>1012.12</ele>
        <time>2021-07-31T13:01:07Z</time>
      </trkpt>
      <trkpt lat="42.26269" lon="1.98401">
        <ele>1008.85</ele>
        <time>2021-07-31T13:01:10Z</time>
      </trkpt>
      <trkpt lat="42.26273" lon="1.985">
        <ele>1004.25</ele>
        <time>2021-07-31T13:01:15Z</time>
      </trkpt>
      <trkpt lat="42.26283" lon="1.98558">
        <ele>1001.35</ele>
        <time>2021-07-31T13:01:18Z</time>
      </trkpt>
      <trkpt lat="42.26277" lon="1.98639">
        <ele>997.18</ele>
        <time>2021-07-31T13:01:22Z</time>
      </trkpt>
      <trkpt lat="42.26269" lon="1.9869">
        <ele>992.55</ele>
        <time>2021-07-31T13:01:26Z</time>
      </trkpt>
      <trkpt lat="42.26259" lon="1.98699">
        <ele>990.12</ele>
        <time>2021-07-31T13:01:28Z</time>
      </trkpt>
      <trkpt lat="42.26257" lon="1.98698">
        <ele>987.94</ele>
        <time>2021-07-31T13:01:30Z</time>
      </trkpt>
      <trkpt lat="42.2625" lon="1.9862">
        <ele>984.12</ele>
        <time>2021-07-31T13:01:34Z</time>
      </trkpt>
      <trkpt lat="42.26217" lon="1.98498">
        <ele>979.67</ele>
        <time>2021-07-31T13:01:39Z</time>
      </trkpt>
      <trkpt lat="42.26192" lon="1.98431">
        <ele>975.98</ele>
        <time>2021-07-31T13:01:42Z</time>
      </trkpt>
      <trkpt lat="42.26178" lon="1.9839">
        <ele>973.08</ele>
        <time>2021-07-31T13:01:44Z</time>
      </trkpt>
      <trkpt lat="42.26154" lon="1.98362">
        <ele>968.24</ele>
        <time>2021-07-31T13:01:47Z</time>
      </trkpt>
      <trkpt lat="42.26148" lon="1.98346">
        <ele>962.8</ele>
        <time>2021-07-31T13:01:50Z</time>
      </trkpt>
      <trkpt lat="42.26152" lon="1.98338">
        <ele>959.52</ele>
        <time>2021-07-31T13:01:52Z</time>
      </trkpt>
      <trkpt lat="42.26158" lon="1.98319">
        <ele>956.11</ele>
        <time>2021-07-31T13:01:55Z</time>
      </trkpt>
      <trkpt lat="42.26174" lon="1.98239">
        <ele>953.49</ele>
        <time>2021-07-31T13:02:06Z</time>
      </trkpt>
      <trkpt lat="42.26176" lon="1.9823">
        <ele>953.62</ele>
        <time>2021-07-31T13:02:07Z</time>
      </trkpt>
      <trkpt lat="42.26176" lon="1.98212">
        <ele>953.97</ele>
        <time>2021-07-31T13:02:09Z</time>
      </trkpt>
      <trkpt lat="42.26168" lon="1.98117">
        <ele>955.91</ele>
        <time>2021-07-31T13:02:20Z</time>
      </trkpt>
      <trkpt lat="42.26165" lon="1.9806">
        <ele>956.16</ele>
        <time>2021-07-31T13:02:30Z</time>
      </trkpt>
      <trkpt lat="42.26152" lon="1.98006">
        <ele>955.33</ele>
        <time>2021-07-31T13:02:44Z</time>
      </trkpt>
      <trkpt lat="42.26147" lon="1.97996">
        <ele>955.28</ele>
        <time>2021-07-31T13:02:45Z</time>
      </trkpt>
      <trkpt lat="42.26108" lon="1.97957">
        <ele>954.55</ele>
        <time>2021-07-31T13:02:49Z</time>
      </trkpt>
      <trkpt lat="42.26045" lon="1.97913">
        <ele>950.56</ele>
        <time>2021-07-31T13:02:55Z</time>
      </trkpt>
      <trkpt lat="42.26038" lon="1.97905">
        <ele>949.5</ele>
        <time>2021-07-31T13:02:56Z</time>
      </trkpt>
      <trkpt lat="42.26027" lon="1.97885">
        <ele>945.02</ele>
        <time>2021-07-31T13:03:00Z</time>
      </trkpt>
      <trkpt lat="42.26027" lon="1.9788">
        <ele>941.47</ele>
        <time>2021-07-31T13:03:04Z</time>
      </trkpt>
      <trkpt lat="42.26026" lon="1.97875">
        <ele>938.37</ele>
        <time>2021-07-31T13:03:13Z</time>
      </trkpt>
      <trkpt lat="42.26023" lon="1.97867">
        <ele>937.61</ele>
        <time>2021-07-31T13:04:11Z</time>
      </trkpt>
      <trkpt lat="42.26005" lon="1.97771">
        <ele>938.49</ele>
        <time>2021-07-31T13:04:23Z</time>
      </trkpt>
      <trkpt lat="42.25999" lon="1.97732">
        <ele>941.31</ele>
        <time>2021-07-31T13:04:34Z</time>
      </trkpt>
      <trkpt lat="42.25995" lon="1.97705">
        <ele>942.53</ele>
        <time>2021-07-31T13:04:41Z</time>
      </trkpt>
      <trkpt lat="42.25982" lon="1.97619">
        <ele>945.32</ele>
        <time>2021-07-31T13:04:49Z</time>
      </trkpt>
      <trkpt lat="42.25982" lon="1.97545">
        <ele>948.46</ele>
        <time>2021-07-31T13:04:54Z</time>
      </trkpt>
      <trkpt lat="42.25983" lon="1.97528">
        <ele>949.23</ele>
        <time>2021-07-31T13:04:55Z</time>
      </trkpt>
      <trkpt lat="42.25998" lon="1.97464">
        <ele>953.23</ele>
        <time>2021-07-31T13:04:59Z</time>
      </trkpt>
      <trkpt lat="42.26005" lon="1.97451">
        <ele>954.26</ele>
        <time>2021-07-31T13:05:00Z</time>
      </trkpt>
      <trkpt lat="42.26036" lon="1.97389">
        <ele>958.99</ele>
        <time>2021-07-31T13:05:05Z</time>
      </trkpt>
      <trkpt lat="42.26057" lon="1.97316">
        <ele>963.36</ele>
        <time>2021-07-31T13:05:10Z</time>
      </trkpt>
      <trkpt lat="42.26063" lon="1.97276">
        <ele>966.41</ele>
        <time>2021-07-31T13:05:13Z</time>
      </trkpt>
      <trkpt lat="42.26064" lon="1.97264">
        <ele>967.29</ele>
        <time>2021-07-31T13:05:14Z</time>
      </trkpt>
      <trkpt lat="42.26081" lon="1.97236">
        <ele>971.36</ele>
        <time>2021-07-31T13:05:20Z</time>
      </trkpt>
      <trkpt lat="42.2609" lon="1.97221">
        <ele>973.9</ele>
        <time>2021-07-31T13:05:26Z</time>
      </trkpt>
      <trkpt lat="42.26094" lon="1.97173">
        <ele>977.46</ele>
        <time>2021-07-31T13:05:34Z</time>
      </trkpt>
      <trkpt lat="42.26096" lon="1.97158">
        <ele>978.4</ele>
        <time>2021-07-31T13:05:36Z</time>
      </trkpt>
      <trkpt lat="42.26105" lon="1.97112">
        <ele>981.31</ele>
        <time>2021-07-31T13:05:41Z</time>
      </trkpt>
      <trkpt lat="42.26106" lon="1.9706">
        <ele>985.06</ele>
        <time>2021-07-31T13:05:46Z</time>
      </trkpt>
      <trkpt lat="42.26107" lon="1.97033">
        <ele>987.54</ele>
        <time>2021-07-31T13:05:49Z</time>
      </trkpt>
      <trkpt lat="42.26124" lon="1.97015">
        <ele>992.03</ele>
        <time>2021-07-31T13:05:54Z</time>
      </trkpt>
      <trkpt lat="42.26133" lon="1.97022">
        <ele>994.53</ele>
        <time>2021-07-31T13:05:56Z</time>
      </trkpt>
      <trkpt lat="42.26149" lon="1.97034">
        <ele>998.84</ele>
        <time>2021-07-31T13:06:02Z</time>
      </trkpt>
      <trkpt lat="42.26156" lon="1.97029">
        <ele>1000.3</ele>
        <time>2021-07-31T13:06:05Z</time>
      </trkpt>
      <trkpt lat="42.26179" lon="1.96985">
        <ele>1004.18</ele>
        <time>2021-07-31T13:06:12Z</time>
      </trkpt>
      <trkpt lat="42.26207" lon="1.96939">
        <ele>1007.91</ele>
        <time>2021-07-31T13:06:17Z</time>
      </trkpt>
      <trkpt lat="42.26214" lon="1.9693">
        <ele>1008.66</ele>
        <time>2021-07-31T13:06:18Z</time>
      </trkpt>
      <trkpt lat="42.26229" lon="1.96915">
        <ele>1010.34</ele>
        <time>2021-07-31T13:06:20Z</time>
      </trkpt>
      <trkpt lat="42.26271" lon="1.96895">
        <ele>1014.98</ele>
        <time>2021-07-31T13:06:25Z</time>
      </trkpt>
      <trkpt lat="42.26308" lon="1.96889">
        <ele>1018.95</ele>
        <time>2021-07-31T13:06:29Z</time>
      </trkpt>
      <trkpt lat="42.26335" lon="1.96884">
        <ele>1022</ele>
        <time>2021-07-31T13:06:32Z</time>
      </trkpt>
      <trkpt lat="42.26362" lon="1.96874">
        <ele>1025.34</ele>
        <time>2021-07-31T13:06:35Z</time>
      </trkpt>
      <trkpt lat="42.26387" lon="1.96864">
        <ele>1028.55</ele>
        <time>2021-07-31T13:06:38Z</time>
      </trkpt>
      <trkpt lat="42.2641" lon="1.96835">
        <ele>1032.87</ele>
        <time>2021-07-31T13:06:42Z</time>
      </trkpt>
      <trkpt lat="42.2641" lon="1.96802">
        <ele>1036.99</ele>
        <time>2021-07-31T13:06:46Z</time>
      </trkpt>
      <trkpt lat="42.26404" lon="1.96785">
        <ele>1038.73</ele>
        <time>2021-07-31T13:06:48Z</time>
      </trkpt>
      <trkpt lat="42.26402" lon="1.96759">
        <ele>1041.1</ele>
        <time>2021-07-31T13:06:51Z</time>
      </trkpt>
      <trkpt lat="42.26385" lon="1.96742">
        <ele>1045.06</ele>
        <time>2021-07-31T13:06:56Z</time>
      </trkpt>
      <trkpt lat="42.2638" lon="1.96745">
        <ele>1045.81</ele>
        <time>2021-07-31T13:06:57Z</time>
      </trkpt>
      <trkpt lat="42.26364" lon="1.9672">
        <ele>1050.36</ele>
        <time>2021-07-31T13:07:04Z</time>
      </trkpt>
      <trkpt lat="42.26366" lon="1.96714">
        <ele>1051</ele>
        <time>2021-07-31T13:07:05Z</time>
      </trkpt>
      <trkpt lat="42.26379" lon="1.96658">
        <ele>1055.25</ele>
        <time>2021-07-31T13:07:12Z</time>
      </trkpt>
      <trkpt lat="42.26381" lon="1.96648">
        <ele>1055.89</ele>
        <time>2021-07-31T13:07:13Z</time>
      </trkpt>
      <trkpt lat="42.26407" lon="1.96601">
        <ele>1059.61</ele>
        <time>2021-07-31T13:07:18Z</time>
      </trkpt>
      <trkpt lat="42.26428" lon="1.96566">
        <ele>1063.34</ele>
        <time>2021-07-31T13:07:22Z</time>
      </trkpt>
      <trkpt lat="42.26426" lon="1.96531">
        <ele>1066.34</ele>
        <time>2021-07-31T13:07:25Z</time>
      </trkpt>
      <trkpt lat="42.26424" lon="1.96519">
        <ele>1067.35</ele>
        <time>2021-07-31T13:07:26Z</time>
      </trkpt>
      <trkpt lat="42.2642" lon="1.96499">
        <ele>1069.37</ele>
        <time>2021-07-31T13:07:28Z</time>
      </trkpt>
      <trkpt lat="42.26425" lon="1.96447">
        <ele>1074.28</ele>
        <time>2021-07-31T13:07:33Z</time>
      </trkpt>
      <trkpt lat="42.26442" lon="1.96423">
        <ele>1078.49</ele>
        <time>2021-07-31T13:07:36Z</time>
      </trkpt>
      <trkpt lat="42.26453" lon="1.96395">
        <ele>1081.73</ele>
        <time>2021-07-31T13:07:39Z</time>
      </trkpt>
      <trkpt lat="42.26453" lon="1.96383">
        <ele>1082.7</ele>
        <time>2021-07-31T13:07:40Z</time>
      </trkpt>
      <trkpt lat="42.26455" lon="1.9636">
        <ele>1084.77</ele>
        <time>2021-07-31T13:07:42Z</time>
      </trkpt>
      <trkpt lat="42.26467" lon="1.96317">
        <ele>1088.84</ele>
        <time>2021-07-31T13:07:46Z</time>
      </trkpt>
      <trkpt lat="42.26474" lon="1.96298">
        <ele>1090.88</ele>
        <time>2021-07-31T13:07:48Z</time>
      </trkpt>
      <trkpt lat="42.26478" lon="1.96258">
        <ele>1094.89</ele>
        <time>2021-07-31T13:07:52Z</time>
      </trkpt>
      <trkpt lat="42.26481" lon="1.96215">
        <ele>1098.84</ele>
        <time>2021-07-31T13:07:56Z</time>
      </trkpt>
      <trkpt lat="42.26482" lon="1.96205">
        <ele>1099.83</ele>
        <time>2021-07-31T13:07:57Z</time>
      </trkpt>
      <trkpt lat="42.265" lon="1.96174">
        <ele>1103.83</ele>
        <time>2021-07-31T13:08:01Z</time>
      </trkpt>
      <trkpt lat="42.26513" lon="1.96169">
        <ele>1105.78</ele>
        <time>2021-07-31T13:08:03Z</time>
      </trkpt>
      <trkpt lat="42.26538" lon="1.96136">
        <ele>1111.13</ele>
        <time>2021-07-31T13:08:08Z</time>
      </trkpt>
      <trkpt lat="42.26538" lon="1.96101">
        <ele>1114.18</ele>
        <time>2021-07-31T13:08:11Z</time>
      </trkpt>
      <trkpt lat="42.26534" lon="1.9608">
        <ele>1116.25</ele>
        <time>2021-07-31T13:08:13Z</time>
      </trkpt>
      <trkpt lat="42.26538" lon="1.96027">
        <ele>1121.78</ele>
        <time>2021-07-31T13:08:18Z</time>
      </trkpt>
      <trkpt lat="42.26543" lon="1.96017">
        <ele>1122.87</ele>
        <time>2021-07-31T13:08:19Z</time>
      </trkpt>
      <trkpt lat="42.2656" lon="1.95974">
        <ele>1127.84</ele>
        <time>2021-07-31T13:08:23Z</time>
      </trkpt>
      <trkpt lat="42.26564" lon="1.95956">
        <ele>1130.27</ele>
        <time>2021-07-31T13:08:25Z</time>
      </trkpt>
      <trkpt lat="42.26577" lon="1.95951">
        <ele>1134.72</ele>
        <time>2021-07-31T13:08:29Z</time>
      </trkpt>
      <trkpt lat="42.26579" lon="1.95965">
        <ele>1136.91</ele>
        <time>2021-07-31T13:08:31Z</time>
      </trkpt>
      <trkpt lat="42.26581" lon="1.96028">
        <ele>1142.32</ele>
        <time>2021-07-31T13:08:37Z</time>
      </trkpt>
      <trkpt lat="42.26579" lon="1.96048">
        <ele>1144.01</ele>
        <time>2021-07-31T13:08:39Z</time>
      </trkpt>
      <trkpt lat="42.26591" lon="1.96053">
        <ele>1148.69</ele>
        <time>2021-07-31T13:08:44Z</time>
      </trkpt>
      <trkpt lat="42.26596" lon="1.96027">
        <ele>1151.01</ele>
        <time>2021-07-31T13:08:47Z</time>
      </trkpt>
      <trkpt lat="42.26612" lon="1.9599">
        <ele>1154.02</ele>
        <time>2021-07-31T13:08:51Z</time>
      </trkpt>
      <trkpt lat="42.26628" lon="1.95974">
        <ele>1157.33</ele>
        <time>2021-07-31T13:08:55Z</time>
      </trkpt>
      <trkpt lat="42.26645" lon="1.95964">
        <ele>1160.42</ele>
        <time>2021-07-31T13:08:59Z</time>
      </trkpt>
      <trkpt lat="42.26669" lon="1.95948">
        <ele>1162.94</ele>
        <time>2021-07-31T13:09:03Z</time>
      </trkpt>
      <trkpt lat="42.26686" lon="1.95945">
        <ele>1165.02</ele>
        <time>2021-07-31T13:09:06Z</time>
      </trkpt>
      <trkpt lat="42.26709" lon="1.95913">
        <ele>1169.15</ele>
        <time>2021-07-31T13:09:11Z</time>
      </trkpt>
      <trkpt lat="42.2671" lon="1.95876">
        <ele>1173</ele>
        <time>2021-07-31T13:09:15Z</time>
      </trkpt>
      <trkpt lat="42.26721" lon="1.9586">
        <ele>1175.05</ele>
        <time>2021-07-31T13:09:17Z</time>
      </trkpt>
      <trkpt lat="42.26747" lon="1.95827">
        <ele>1178.78</ele>
        <time>2021-07-31T13:09:21Z</time>
      </trkpt>
      <trkpt lat="42.26759" lon="1.95774">
        <ele>1182.9</ele>
        <time>2021-07-31T13:09:25Z</time>
      </trkpt>
      <trkpt lat="42.26759" lon="1.95757">
        <ele>1183.99</ele>
        <time>2021-07-31T13:09:26Z</time>
      </trkpt>
      <trkpt lat="42.26758" lon="1.95673">
        <ele>1188.69</ele>
        <time>2021-07-31T13:09:31Z</time>
      </trkpt>
      <trkpt lat="42.26759" lon="1.95632">
        <ele>1191.78</ele>
        <time>2021-07-31T13:09:35Z</time>
      </trkpt>
      <trkpt lat="42.26779" lon="1.95595">
        <ele>1195.47</ele>
        <time>2021-07-31T13:09:41Z</time>
      </trkpt>
      <trkpt lat="42.268" lon="1.95584">
        <ele>1196.73</ele>
        <time>2021-07-31T13:09:44Z</time>
      </trkpt>
      <trkpt lat="42.26857" lon="1.9556">
        <ele>1200.42</ele>
        <time>2021-07-31T13:09:51Z</time>
      </trkpt>
      <trkpt lat="42.26872" lon="1.95555">
        <ele>1201.79</ele>
        <time>2021-07-31T13:09:53Z</time>
      </trkpt>
      <trkpt lat="42.26901" lon="1.95538">
        <ele>1205.63</ele>
        <time>2021-07-31T13:09:58Z</time>
      </trkpt>
      <trkpt lat="42.26909" lon="1.95535">
        <ele>1206.32</ele>
        <time>2021-07-31T13:09:59Z</time>
      </trkpt>
      <trkpt lat="42.26947" lon="1.95518">
        <ele>1210.24</ele>
        <time>2021-07-31T13:10:04Z</time>
      </trkpt>
      <trkpt lat="42.26969" lon="1.95511">
        <ele>1212.53</ele>
        <time>2021-07-31T13:10:07Z</time>
      </trkpt>
      <trkpt lat="42.26997" lon="1.95511">
        <ele>1217.31</ele>
        <time>2021-07-31T13:10:12Z</time>
      </trkpt>
      <trkpt lat="42.27001" lon="1.95511">
        <ele>1218.25</ele>
        <time>2021-07-31T13:10:13Z</time>
      </trkpt>
      <trkpt lat="42.27021" lon="1.95525">
        <ele>1221.43</ele>
        <time>2021-07-31T13:10:17Z</time>
      </trkpt>
      <trkpt lat="42.2706" lon="1.95533">
        <ele>1225.5</ele>
        <time>2021-07-31T13:10:22Z</time>
      </trkpt>
      <trkpt lat="42.27076" lon="1.95532">
        <ele>1227.13</ele>
        <time>2021-07-31T13:10:24Z</time>
      </trkpt>
      <trkpt lat="42.271" lon="1.95531">
        <ele>1231.11</ele>
        <time>2021-07-31T13:10:29Z</time>
      </trkpt>
      <trkpt lat="42.27096" lon="1.95489">
        <ele>1233.69</ele>
        <time>2021-07-31T13:10:33Z</time>
      </trkpt>
      <trkpt lat="42.27093" lon="1.95476">
        <ele>1234.31</ele>
        <time>2021-07-31T13:10:34Z</time>
      </trkpt>
      <trkpt lat="42.27079" lon="1.95426">
        <ele>1236.62</ele>
        <time>2021-07-31T13:10:38Z</time>
      </trkpt>
      <trkpt lat="42.27092" lon="1.9538">
        <ele>1240.87</ele>
        <time>2021-07-31T13:10:43Z</time>
      </trkpt>
      <trkpt lat="42.27121" lon="1.95371">
        <ele>1244.65</ele>
        <time>2021-07-31T13:10:47Z</time>
      </trkpt>
      <trkpt lat="42.27127" lon="1.95371">
        <ele>1245.7</ele>
        <time>2021-07-31T13:10:48Z</time>
      </trkpt>
      <trkpt lat="42.2714" lon="1.95371">
        <ele>1247.66</ele>
        <time>2021-07-31T13:10:50Z</time>
      </trkpt>
      <trkpt lat="42.27161" lon="1.95388">
        <ele>1252.74</ele>
        <time>2021-07-31T13:10:55Z</time>
      </trkpt>
      <trkpt lat="42.2714" lon="1.95429">
        <ele>1256.51</ele>
        <time>2021-07-31T13:11:00Z</time>
      </trkpt>
      <trkpt lat="42.27145" lon="1.9545">
        <ele>1258.3</ele>
        <time>2021-07-31T13:11:02Z</time>
      </trkpt>
      <trkpt lat="42.27154" lon="1.95479">
        <ele>1260.66</ele>
        <time>2021-07-31T13:11:05Z</time>
      </trkpt>
      <trkpt lat="42.27185" lon="1.95497">
        <ele>1264.67</ele>
        <time>2021-07-31T13:11:10Z</time>
      </trkpt>
      <trkpt lat="42.27195" lon="1.95494">
        <ele>1266.04</ele>
        <time>2021-07-31T13:11:12Z</time>
      </trkpt>
      <trkpt lat="42.27209" lon="1.95493">
        <ele>1268.48</ele>
        <time>2021-07-31T13:11:16Z</time>
      </trkpt>
      <trkpt lat="42.27232" lon="1.95449">
        <ele>1271.7</ele>
        <time>2021-07-31T13:11:25Z</time>
      </trkpt>
      <trkpt lat="42.27231" lon="1.95437">
        <ele>1272.26</ele>
        <time>2021-07-31T13:11:27Z</time>
      </trkpt>
      <trkpt lat="42.27229" lon="1.95386">
        <ele>1275.4</ele>
        <time>2021-07-31T13:11:38Z</time>
      </trkpt>
      <trkpt lat="42.27252" lon="1.95377">
        <ele>1278.62</ele>
        <time>2021-07-31T13:11:47Z</time>
      </trkpt>
      <trkpt lat="42.27285" lon="1.95408">
        <ele>1281.72</ele>
        <time>2021-07-31T13:11:54Z</time>
      </trkpt>
      <trkpt lat="42.27307" lon="1.95434">
        <ele>1284.21</ele>
        <time>2021-07-31T13:11:58Z</time>
      </trkpt>
      <trkpt lat="42.27335" lon="1.95458">
        <ele>1287.67</ele>
        <time>2021-07-31T13:12:03Z</time>
      </trkpt>
      <trkpt lat="42.2737" lon="1.95468">
        <ele>1291.66</ele>
        <time>2021-07-31T13:12:09Z</time>
      </trkpt>
      <trkpt lat="42.27362" lon="1.95448">
        <ele>1295.13</ele>
        <time>2021-07-31T13:12:14Z</time>
      </trkpt>
      <trkpt lat="42.27349" lon="1.95409">
        <ele>1299.44</ele>
        <time>2021-07-31T13:12:21Z</time>
      </trkpt>
      <trkpt lat="42.27373" lon="1.95404">
        <ele>1302.75</ele>
        <time>2021-07-31T13:12:25Z</time>
      </trkpt>
      <trkpt lat="42.27401" lon="1.95409">
        <ele>1306.83</ele>
        <time>2021-07-31T13:12:29Z</time>
      </trkpt>
      <trkpt lat="42.27422" lon="1.95405">
        <ele>1311.34</ele>
        <time>2021-07-31T13:12:33Z</time>
      </trkpt>
      <trkpt lat="42.27427" lon="1.954">
        <ele>1315.44</ele>
        <time>2021-07-31T13:12:36Z</time>
      </trkpt>
      <trkpt lat="42.27433" lon="1.95384">
        <ele>1319.16</ele>
        <time>2021-07-31T13:12:40Z</time>
      </trkpt>
      <trkpt lat="42.27437" lon="1.95373">
        <ele>1321.34</ele>
        <time>2021-07-31T13:12:43Z</time>
      </trkpt>
      <trkpt lat="42.27451" lon="1.9538">
        <ele>1325.57</ele>
        <time>2021-07-31T13:12:49Z</time>
      </trkpt>
      <trkpt lat="42.27466" lon="1.95384">
        <ele>1329.14</ele>
        <time>2021-07-31T13:12:55Z</time>
      </trkpt>
      <trkpt lat="42.27465" lon="1.95352">
        <ele>1331.71</ele>
        <time>2021-07-31T13:12:59Z</time>
      </trkpt>
      <trkpt lat="42.27471" lon="1.95314">
        <ele>1336.22</ele>
        <time>2021-07-31T13:13:05Z</time>
      </trkpt>
      <trkpt lat="42.27472" lon="1.953">
        <ele>1338.25</ele>
        <time>2021-07-31T13:13:08Z</time>
      </trkpt>
      <trkpt lat="42.27468" lon="1.95274">
        <ele>1340.76</ele>
        <time>2021-07-31T13:13:12Z</time>
      </trkpt>
      <trkpt lat="42.27482" lon="1.95252">
        <ele>1344.82</ele>
        <time>2021-07-31T13:13:19Z</time>
      </trkpt>
      <trkpt lat="42.27505" lon="1.9527">
        <ele>1347.9</ele>
        <time>2021-07-31T13:13:23Z</time>
      </trkpt>
      <trkpt lat="42.27519" lon="1.95274">
        <ele>1349.54</ele>
        <time>2021-07-31T13:13:25Z</time>
      </trkpt>
      <trkpt lat="42.27527" lon="1.9526">
        <ele>1354.42</ele>
        <time>2021-07-31T13:13:31Z</time>
      </trkpt>
      <trkpt lat="42.27515" lon="1.95218">
        <ele>1357.92</ele>
        <time>2021-07-31T13:13:36Z</time>
      </trkpt>
      <trkpt lat="42.27512" lon="1.95184">
        <ele>1360.08</ele>
        <time>2021-07-31T13:13:39Z</time>
      </trkpt>
      <trkpt lat="42.27521" lon="1.95143">
        <ele>1364.28</ele>
        <time>2021-07-31T13:13:45Z</time>
      </trkpt>
      <trkpt lat="42.27535" lon="1.9516">
        <ele>1365.81</ele>
        <time>2021-07-31T13:13:47Z</time>
      </trkpt>
      <trkpt lat="42.27558" lon="1.9519">
        <ele>1370.04</ele>
        <time>2021-07-31T13:13:52Z</time>
      </trkpt>
      <trkpt lat="42.27571" lon="1.95176">
        <ele>1373.87</ele>
        <time>2021-07-31T13:13:57Z</time>
      </trkpt>
      <trkpt lat="42.2757" lon="1.95144">
        <ele>1376.73</ele>
        <time>2021-07-31T13:14:01Z</time>
      </trkpt>
      <trkpt lat="42.27578" lon="1.95099">
        <ele>1380.51</ele>
        <time>2021-07-31T13:14:06Z</time>
      </trkpt>
      <trkpt lat="42.27588" lon="1.95084">
        <ele>1383.87</ele>
        <time>2021-07-31T13:14:10Z</time>
      </trkpt>
      <trkpt lat="42.27594" lon="1.95074">
        <ele>1386.29</ele>
        <time>2021-07-31T13:14:13Z</time>
      </trkpt>
      <trkpt lat="42.27607" lon="1.95046">
        <ele>1389.64</ele>
        <time>2021-07-31T13:14:18Z</time>
      </trkpt>
      <trkpt lat="42.27613" lon="1.95019">
        <ele>1390.78</ele>
        <time>2021-07-31T13:14:22Z</time>
      </trkpt>
      <trkpt lat="42.27635" lon="1.94945">
        <ele>1393</ele>
        <time>2021-07-31T13:14:35Z</time>
      </trkpt>
      <trkpt lat="42.27666" lon="1.94883">
        <ele>1394.33</ele>
        <time>2021-07-31T13:14:47Z</time>
      </trkpt>
      <trkpt lat="42.27673" lon="1.94874">
        <ele>1394.4</ele>
        <time>2021-07-31T13:14:55Z</time>
      </trkpt>
      <trkpt lat="42.27679" lon="1.94867">
        <ele>1394.44</ele>
        <time>2021-07-31T13:15:05Z</time>
      </trkpt>
      <trkpt lat="42.27693" lon="1.94853">
        <ele>1394.37</ele>
        <time>2021-07-31T13:15:26Z</time>
      </trkpt>
      <trkpt lat="42.27697" lon="1.94848">
        <ele>1394.38</ele>
        <time>2021-07-31T13:15:27Z</time>
      </trkpt>
      <trkpt lat="42.27723" lon="1.94815">
        <ele>1394.75</ele>
        <time>2021-07-31T13:15:36Z</time>
      </trkpt>
      <trkpt lat="42.27726" lon="1.94785">
        <ele>1394.19</ele>
        <time>2021-07-31T13:15:42Z</time>
      </trkpt>
      <trkpt lat="42.27717" lon="1.94762">
        <ele>1391.14</ele>
        <time>2021-07-31T13:15:54Z</time>
      </trkpt>
      <trkpt lat="42.27702" lon="1.94758">
        <ele>1389.78</ele>
        <time>2021-07-31T13:15:59Z</time>
      </trkpt>
      <trkpt lat="42.27682" lon="1.94738">
        <ele>1386.4</ele>
        <time>2021-07-31T13:16:09Z</time>
      </trkpt>
      <trkpt lat="42.27674" lon="1.94717">
        <ele>1383.72</ele>
        <time>2021-07-31T13:16:19Z</time>
      </trkpt>
      <trkpt lat="42.27674" lon="1.9472">
        <ele>1382.56</ele>
        <time>2021-07-31T13:16:56Z</time>
      </trkpt>
      <trkpt lat="42.27695" lon="1.94724">
        <ele>1383.41</ele>
        <time>2021-07-31T13:24:29Z</time>
      </trkpt>
      <trkpt lat="42.27683" lon="1.94734">
        <ele>1383.41</ele>
        <time>2021-07-31T13:24:30Z</time>
      </trkpt>
      <trkpt lat="42.27682" lon="1.94736">
        <ele>1383.08</ele>
        <time>2021-07-31T13:24:35Z</time>
      </trkpt>
      <trkpt lat="42.27683" lon="1.9474">
        <ele>1382.07</ele>
        <time>2021-07-31T13:24:39Z</time>
      </trkpt>
      <trkpt lat="42.27685" lon="1.94728">
        <ele>1381.46</ele>
        <time>2021-07-31T13:24:51Z</time>
      </trkpt>
      <trkpt lat="42.27678" lon="1.94731">
        <ele>1381.67</ele>
        <time>2021-07-31T13:25:12Z</time>
      </trkpt>
      <trkpt lat="42.27675" lon="1.94724">
        <ele>1383.16</ele>
        <time>2021-07-31T13:25:39Z</time>
      </trkpt>
      <trkpt lat="42.27675" lon="1.94724">
        <ele>1383.38</ele>
        <time>2021-07-31T13:25:49Z</time>
      </trkpt>
      <trkpt lat="42.27676" lon="1.9472">
        <ele>1384.73</ele>
        <time>2021-07-31T13:27:39Z</time>
      </trkpt>
      <trkpt lat="42.27676" lon="1.94721">
        <ele>1384.73</ele>
        <time>2021-07-31T13:27:40Z</time>
      </trkpt>
      <trkpt lat="42.27676" lon="1.94726">
        <ele>1384.73</ele>
        <time>2021-07-31T13:28:47Z</time>
      </trkpt>
      <trkpt lat="42.27676" lon="1.94726">
        <ele>1384.73</ele>
        <time>2021-07-31T13:32:43Z</time>
      </trkpt>
      <trkpt lat="42.27677" lon="1.94727">
        <ele>1384.73</ele>
        <time>2021-07-31T13:37:10Z</time>
      </trkpt>
      <trkpt lat="42.27677" lon="1.94726">
        <ele>1384.73</ele>
        <time>2021-07-31T13:39:42Z</time>
      </trkpt>
      <trkpt lat="42.27677" lon="1.94725">
        <ele>1384.73</ele>
        <time>2021-07-31T13:42:28Z</time>
      </trkpt>
      <trkpt lat="42.27676" lon="1.94722">
        <ele>1384.73</ele>
        <time>2021-07-31T13:44:40Z</time>
      </trkpt>
      <trkpt lat="42.27676" lon="1.94723">
        <ele>1384.73</ele>
        <time>2021-07-31T13:46:43Z</time>
      </trkpt>
      <trkpt lat="42.27676" lon="1.94724">
        <ele>1384.73</ele>
        <time>2021-07-31T13:50:14Z</time>
      </trkpt>
      <trkpt lat="42.27676" lon="1.94726">
        <ele>1384.73</ele>
        <time>2021-07-31T13:53:29Z</time>
      </trkpt>
      <trkpt lat="42.27677" lon="1.94724">
        <ele>1384.73</ele>
        <time>2021-07-31T13:56:54Z</time>
      </trkpt>
      <trkpt lat="42.27676" lon="1.94723">
        <ele>1384.73</ele>
        <time>2021-07-31T14:00:54Z</time>
      </trkpt>
      <trkpt lat="42.27676" lon="1.94723">
        <ele>1384.73</ele>
        <time>2021-07-31T14:01:59Z</time>
      </trkpt>
      <trkpt lat="42.27676" lon="1.94724">
        <ele>1384.73</ele>
        <time>2021-07-31T14:05:11Z</time>
      </trkpt>
      <trkpt lat="42.27677" lon="1.94724">
        <ele>1384.73</ele>
        <time>2021-07-31T14:09:28Z</time>
      </trkpt>
      <trkpt lat="42.27678" lon="1.94724">
        <ele>1384.73</ele>
        <time>2021-07-31T14:11:25Z</time>
      </trkpt>
      <trkpt lat="42.27678" lon="1.94724">
        <ele>1384.73</ele>
        <time>2021-07-31T14:11:29Z</time>
      </trkpt>
      <trkpt lat="42.27689" lon="1.94742">
        <ele>1386.25</ele>
        <time>2021-07-31T14:11:45Z</time>
      </trkpt>
      <trkpt lat="42.27703" lon="1.94759">
        <ele>1387.08</ele>
        <time>2021-07-31T14:11:56Z</time>
      </trkpt>
      <trkpt lat="42.27711" lon="1.94761">
        <ele>1389.45</ele>
        <time>2021-07-31T14:12:06Z</time>
      </trkpt>
      <trkpt lat="42.27703" lon="1.94759">
        <ele>1389.91</ele>
        <time>2021-07-31T14:12:28Z</time>
      </trkpt>
      <trkpt lat="42.2769" lon="1.9474">
        <ele>1388</ele>
        <time>2021-07-31T14:12:41Z</time>
      </trkpt>
      <trkpt lat="42.27686" lon="1.94732">
        <ele>1386.55</ele>
        <time>2021-07-31T14:12:53Z</time>
      </trkpt>
      <trkpt lat="42.27678" lon="1.94727">
        <ele>1386.5</ele>
        <time>2021-07-31T14:12:58Z</time>
      </trkpt>
      <trkpt lat="42.27677" lon="1.94725">
        <ele>1386.44</ele>
        <time>2021-07-31T14:13:00Z</time>
      </trkpt>
      <trkpt lat="42.27695" lon="1.94751">
        <ele>1387.14</ele>
        <time>2021-07-31T14:13:15Z</time>
      </trkpt>
      <trkpt lat="42.27715" lon="1.94764">
        <ele>1389.9</ele>
        <time>2021-07-31T14:13:31Z</time>
      </trkpt>
      <trkpt lat="42.27716" lon="1.94765">
        <ele>1390.83</ele>
        <time>2021-07-31T14:13:36Z</time>
      </trkpt>
      <trkpt lat="42.27727" lon="1.94768">
        <ele>1393.18</ele>
        <time>2021-07-31T14:14:01Z</time>
      </trkpt>
      <trkpt lat="42.27726" lon="1.94768">
        <ele>1393.24</ele>
        <time>2021-07-31T14:14:03Z</time>
      </trkpt>
      <trkpt lat="42.2771" lon="1.94737">
        <ele>1392.9</ele>
        <time>2021-07-31T14:14:11Z</time>
      </trkpt>
      <trkpt lat="42.27713" lon="1.94723">
        <ele>1392.47</ele>
        <time>2021-07-31T14:14:13Z</time>
      </trkpt>
      <trkpt lat="42.27736" lon="1.94691">
        <ele>1389.26</ele>
        <time>2021-07-31T14:14:23Z</time>
      </trkpt>
      <trkpt lat="42.27764" lon="1.94707">
        <ele>1386.1</ele>
        <time>2021-07-31T14:14:33Z</time>
      </trkpt>
      <trkpt lat="42.27792" lon="1.94679">
        <ele>1383.27</ele>
        <time>2021-07-31T14:14:43Z</time>
      </trkpt>
      <trkpt lat="42.27784" lon="1.94615">
        <ele>1379.54</ele>
        <time>2021-07-31T14:14:53Z</time>
      </trkpt>
      <trkpt lat="42.27775" lon="1.94579">
        <ele>1376.49</ele>
        <time>2021-07-31T14:14:58Z</time>
      </trkpt>
      <trkpt lat="42.27768" lon="1.94555">
        <ele>1372.74</ele>
        <time>2021-07-31T14:15:03Z</time>
      </trkpt>
      <trkpt lat="42.27762" lon="1.94513">
        <ele>1369.08</ele>
        <time>2021-07-31T14:15:09Z</time>
      </trkpt>
      <trkpt lat="42.27761" lon="1.94505">
        <ele>1368.37</ele>
        <time>2021-07-31T14:15:10Z</time>
      </trkpt>
      <trkpt lat="42.27751" lon="1.94459">
        <ele>1363.82</ele>
        <time>2021-07-31T14:15:16Z</time>
      </trkpt>
      <trkpt lat="42.27743" lon="1.94431">
        <ele>1360.64</ele>
        <time>2021-07-31T14:15:20Z</time>
      </trkpt>
      <trkpt lat="42.27737" lon="1.94401">
        <ele>1357.38</ele>
        <time>2021-07-31T14:15:24Z</time>
      </trkpt>
      <trkpt lat="42.27736" lon="1.94377">
        <ele>1355.25</ele>
        <time>2021-07-31T14:15:27Z</time>
      </trkpt>
      <trkpt lat="42.27754" lon="1.94334">
        <ele>1351</ele>
        <time>2021-07-31T14:15:33Z</time>
      </trkpt>
      <trkpt lat="42.2777" lon="1.94305">
        <ele>1346.93</ele>
        <time>2021-07-31T14:15:38Z</time>
      </trkpt>
      <trkpt lat="42.27778" lon="1.94271">
        <ele>1342.86</ele>
        <time>2021-07-31T14:15:44Z</time>
      </trkpt>
      <trkpt lat="42.27781" lon="1.94261">
        <ele>1339.74</ele>
        <time>2021-07-31T14:15:50Z</time>
      </trkpt>
      <trkpt lat="42.27781" lon="1.94257">
        <ele>1338.89</ele>
        <time>2021-07-31T14:15:52Z</time>
      </trkpt>
      <trkpt lat="42.27774" lon="1.94247">
        <ele>1337.84</ele>
        <time>2021-07-31T14:15:56Z</time>
      </trkpt>
      <trkpt lat="42.27745" lon="1.94209">
        <ele>1335.94</ele>
        <time>2021-07-31T14:16:06Z</time>
      </trkpt>
      <trkpt lat="42.27741" lon="1.94194">
        <ele>1334.64</ele>
        <time>2021-07-31T14:16:22Z</time>
      </trkpt>
      <trkpt lat="42.27738" lon="1.94191">
        <ele>1334.56</ele>
        <time>2021-07-31T14:16:23Z</time>
      </trkpt>
      <trkpt lat="42.27735" lon="1.94189">
        <ele>1334.52</ele>
        <time>2021-07-31T14:16:24Z</time>
      </trkpt>
      <trkpt lat="42.27731" lon="1.94185">
        <ele>1334.45</ele>
        <time>2021-07-31T14:16:25Z</time>
      </trkpt>
      <trkpt lat="42.27727" lon="1.94181">
        <ele>1334.32</ele>
        <time>2021-07-31T14:16:26Z</time>
      </trkpt>
      <trkpt lat="42.27723" lon="1.94176">
        <ele>1334.15</ele>
        <time>2021-07-31T14:16:27Z</time>
      </trkpt>
      <trkpt lat="42.27703" lon="1.94152">
        <ele>1331.62</ele>
        <time>2021-07-31T14:16:32Z</time>
      </trkpt>
      <trkpt lat="42.2768" lon="1.94126">
        <ele>1327.9</ele>
        <time>2021-07-31T14:16:37Z</time>
      </trkpt>
      <trkpt lat="42.27665" lon="1.9411">
        <ele>1324.51</ele>
        <time>2021-07-31T14:16:41Z</time>
      </trkpt>
      <trkpt lat="42.27657" lon="1.94083">
        <ele>1320.36</ele>
        <time>2021-07-31T14:16:46Z</time>
      </trkpt>
      <trkpt lat="42.27658" lon="1.94077">
        <ele>1319.63</ele>
        <time>2021-07-31T14:16:47Z</time>
      </trkpt>
      <trkpt lat="42.2766" lon="1.94042">
        <ele>1317.69</ele>
        <time>2021-07-31T14:16:51Z</time>
      </trkpt>
      <trkpt lat="42.27679" lon="1.93994">
        <ele>1314.79</ele>
        <time>2021-07-31T14:16:57Z</time>
      </trkpt>
      <trkpt lat="42.27683" lon="1.93941">
        <ele>1311.01</ele>
        <time>2021-07-31T14:17:02Z</time>
      </trkpt>
      <trkpt lat="42.27685" lon="1.93931">
        <ele>1310.06</ele>
        <time>2021-07-31T14:17:03Z</time>
      </trkpt>
      <trkpt lat="42.27692" lon="1.93902">
        <ele>1307.63</ele>
        <time>2021-07-31T14:17:06Z</time>
      </trkpt>
      <trkpt lat="42.27683" lon="1.93831">
        <ele>1303.52</ele>
        <time>2021-07-31T14:17:12Z</time>
      </trkpt>
      <trkpt lat="42.27678" lon="1.93823">
        <ele>1302.9</ele>
        <time>2021-07-31T14:17:13Z</time>
      </trkpt>
      <trkpt lat="42.27673" lon="1.93765">
        <ele>1297.98</ele>
        <time>2021-07-31T14:17:20Z</time>
      </trkpt>
      <trkpt lat="42.27688" lon="1.93746">
        <ele>1295.92</ele>
        <time>2021-07-31T14:17:23Z</time>
      </trkpt>
      <trkpt lat="42.27713" lon="1.93722">
        <ele>1292.48</ele>
        <time>2021-07-31T14:17:29Z</time>
      </trkpt>
      <trkpt lat="42.27724" lon="1.93711">
        <ele>1291.37</ele>
        <time>2021-07-31T14:17:32Z</time>
      </trkpt>
      <trkpt lat="42.27736" lon="1.93701">
        <ele>1290.08</ele>
        <time>2021-07-31T14:17:35Z</time>
      </trkpt>
      <trkpt lat="42.27757" lon="1.93667">
        <ele>1286.3</ele>
        <time>2021-07-31T14:17:41Z</time>
      </trkpt>
      <trkpt lat="42.27776" lon="1.93635">
        <ele>1282.62</ele>
        <time>2021-07-31T14:17:46Z</time>
      </trkpt>
      <trkpt lat="42.27791" lon="1.93576">
        <ele>1278.08</ele>
        <time>2021-07-31T14:17:54Z</time>
      </trkpt>
      <trkpt lat="42.27791" lon="1.93541">
        <ele>1273.81</ele>
        <time>2021-07-31T14:18:01Z</time>
      </trkpt>
      <trkpt lat="42.27795" lon="1.93511">
        <ele>1270.7</ele>
        <time>2021-07-31T14:18:08Z</time>
      </trkpt>
      <trkpt lat="42.27799" lon="1.93494">
        <ele>1269.23</ele>
        <time>2021-07-31T14:18:12Z</time>
      </trkpt>
      <trkpt lat="42.27772" lon="1.93476">
        <ele>1266.38</ele>
        <time>2021-07-31T14:18:19Z</time>
      </trkpt>
      <trkpt lat="42.27757" lon="1.93471">
        <ele>1265.84</ele>
        <time>2021-07-31T14:18:22Z</time>
      </trkpt>
      <trkpt lat="42.27701" lon="1.93429">
        <ele>1266.65</ele>
        <time>2021-07-31T14:18:33Z</time>
      </trkpt>
      <trkpt lat="42.2767" lon="1.93408">
        <ele>1264.65</ele>
        <time>2021-07-31T14:18:42Z</time>
      </trkpt>
      <trkpt lat="42.2766" lon="1.93396">
        <ele>1263.09</ele>
        <time>2021-07-31T14:18:45Z</time>
      </trkpt>
      <trkpt lat="42.27629" lon="1.93374">
        <ele>1259.18</ele>
        <time>2021-07-31T14:18:51Z</time>
      </trkpt>
      <trkpt lat="42.27607" lon="1.93355">
        <ele>1256.15</ele>
        <time>2021-07-31T14:18:55Z</time>
      </trkpt>
      <trkpt lat="42.27591" lon="1.93337">
        <ele>1252.63</ele>
        <time>2021-07-31T14:18:59Z</time>
      </trkpt>
      <trkpt lat="42.27577" lon="1.93316">
        <ele>1249.03</ele>
        <time>2021-07-31T14:19:03Z</time>
      </trkpt>
      <trkpt lat="42.27567" lon="1.93288">
        <ele>1245.74</ele>
        <time>2021-07-31T14:19:07Z</time>
      </trkpt>
      <trkpt lat="42.27565" lon="1.93281">
        <ele>1244.91</ele>
        <time>2021-07-31T14:19:08Z</time>
      </trkpt>
      <trkpt lat="42.27544" lon="1.93253">
        <ele>1240.89</ele>
        <time>2021-07-31T14:19:14Z</time>
      </trkpt>
      <trkpt lat="42.27524" lon="1.93222">
        <ele>1237.89</ele>
        <time>2021-07-31T14:19:19Z</time>
      </trkpt>
      <trkpt lat="42.27516" lon="1.9321">
        <ele>1236.75</ele>
        <time>2021-07-31T14:19:21Z</time>
      </trkpt>
      <trkpt lat="42.27512" lon="1.93203">
        <ele>1236.14</ele>
        <time>2021-07-31T14:19:22Z</time>
      </trkpt>
      <trkpt lat="42.27509" lon="1.93197">
        <ele>1235.5</ele>
        <time>2021-07-31T14:19:23Z</time>
      </trkpt>
      <trkpt lat="42.27507" lon="1.93189">
        <ele>1234.97</ele>
        <time>2021-07-31T14:19:24Z</time>
      </trkpt>
      <trkpt lat="42.27505" lon="1.93182">
        <ele>1234.5</ele>
        <time>2021-07-31T14:19:25Z</time>
      </trkpt>
      <trkpt lat="42.27504" lon="1.93174">
        <ele>1234.13</ele>
        <time>2021-07-31T14:19:26Z</time>
      </trkpt>
      <trkpt lat="42.27503" lon="1.93166">
        <ele>1233.9</ele>
        <time>2021-07-31T14:19:27Z</time>
      </trkpt>
      <trkpt lat="42.27502" lon="1.93158">
        <ele>1233.77</ele>
        <time>2021-07-31T14:19:28Z</time>
      </trkpt>
      <trkpt lat="42.275" lon="1.93125">
        <ele>1233.9</ele>
        <time>2021-07-31T14:19:32Z</time>
      </trkpt>
      <trkpt lat="42.27511" lon="1.93042">
        <ele>1237.36</ele>
        <time>2021-07-31T14:19:42Z</time>
      </trkpt>
      <trkpt lat="42.27514" lon="1.93022">
        <ele>1237.71</ele>
        <time>2021-07-31T14:19:45Z</time>
      </trkpt>
      <trkpt lat="42.27538" lon="1.92963">
        <ele>1238.29</ele>
        <time>2021-07-31T14:19:55Z</time>
      </trkpt>
      <trkpt lat="42.27543" lon="1.92944">
        <ele>1238.82</ele>
        <time>2021-07-31T14:19:58Z</time>
      </trkpt>
      <trkpt lat="42.27544" lon="1.92907">
        <ele>1239.75</ele>
        <time>2021-07-31T14:20:02Z</time>
      </trkpt>
      <trkpt lat="42.27546" lon="1.9287">
        <ele>1241.21</ele>
        <time>2021-07-31T14:20:06Z</time>
      </trkpt>
      <trkpt lat="42.27518" lon="1.92806">
        <ele>1242.96</ele>
        <time>2021-07-31T14:20:14Z</time>
      </trkpt>
      <trkpt lat="42.27509" lon="1.92759">
        <ele>1241.48</ele>
        <time>2021-07-31T14:20:21Z</time>
      </trkpt>
      <trkpt lat="42.27534" lon="1.92731">
        <ele>1238.11</ele>
        <time>2021-07-31T14:20:28Z</time>
      </trkpt>
      <trkpt lat="42.27544" lon="1.92719">
        <ele>1236.46</ele>
        <time>2021-07-31T14:20:31Z</time>
      </trkpt>
      <trkpt lat="42.27549" lon="1.9271">
        <ele>1235.15</ele>
        <time>2021-07-31T14:20:33Z</time>
      </trkpt>
      <trkpt lat="42.27552" lon="1.92686">
        <ele>1232.22</ele>
        <time>2021-07-31T14:20:37Z</time>
      </trkpt>
      <trkpt lat="42.27552" lon="1.92673">
        <ele>1230.78</ele>
        <time>2021-07-31T14:20:39Z</time>
      </trkpt>
      <trkpt lat="42.27558" lon="1.9264">
        <ele>1227.05</ele>
        <time>2021-07-31T14:20:44Z</time>
      </trkpt>
      <trkpt lat="42.27566" lon="1.92612">
        <ele>1223.59</ele>
        <time>2021-07-31T14:20:48Z</time>
      </trkpt>
      <trkpt lat="42.27568" lon="1.92604">
        <ele>1222.74</ele>
        <time>2021-07-31T14:20:49Z</time>
      </trkpt>
      <trkpt lat="42.2757" lon="1.92564">
        <ele>1218.66</ele>
        <time>2021-07-31T14:20:54Z</time>
      </trkpt>
      <trkpt lat="42.27571" lon="1.92532">
        <ele>1214.94</ele>
        <time>2021-07-31T14:20:58Z</time>
      </trkpt>
      <trkpt lat="42.27571" lon="1.92506">
        <ele>1212.18</ele>
        <time>2021-07-31T14:21:01Z</time>
      </trkpt>
      <trkpt lat="42.27579" lon="1.92474">
        <ele>1208.38</ele>
        <time>2021-07-31T14:21:05Z</time>
      </trkpt>
      <trkpt lat="42.27591" lon="1.9244">
        <ele>1204.23</ele>
        <time>2021-07-31T14:21:09Z</time>
      </trkpt>
      <trkpt lat="42.27598" lon="1.92421">
        <ele>1200.81</ele>
        <time>2021-07-31T14:21:12Z</time>
      </trkpt>
      <trkpt lat="42.276" lon="1.92415">
        <ele>1199.64</ele>
        <time>2021-07-31T14:21:13Z</time>
      </trkpt>
      <trkpt lat="42.27604" lon="1.924">
        <ele>1197.23</ele>
        <time>2021-07-31T14:21:15Z</time>
      </trkpt>
      <trkpt lat="42.27608" lon="1.92367">
        <ele>1192.67</ele>
        <time>2021-07-31T14:21:19Z</time>
      </trkpt>
      <trkpt lat="42.27609" lon="1.92359">
        <ele>1191.6</ele>
        <time>2021-07-31T14:21:20Z</time>
      </trkpt>
      <trkpt lat="42.2761" lon="1.92323">
        <ele>1185.86</ele>
        <time>2021-07-31T14:21:24Z</time>
      </trkpt>
      <trkpt lat="42.27611" lon="1.92314">
        <ele>1185.86</ele>
        <time>2021-07-31T14:21:25Z</time>
      </trkpt>
      <trkpt lat="42.27613" lon="1.92304">
        <ele>1184.65</ele>
        <time>2021-07-31T14:21:26Z</time>
      </trkpt>
      <trkpt lat="42.27616" lon="1.9229">
        <ele>1181.17</ele>
        <time>2021-07-31T14:21:28Z</time>
      </trkpt>
      <trkpt lat="42.2762" lon="1.92264">
        <ele>1176.87</ele>
        <time>2021-07-31T14:21:32Z</time>
      </trkpt>
      <trkpt lat="42.2763" lon="1.92233">
        <ele>1172.42</ele>
        <time>2021-07-31T14:21:37Z</time>
      </trkpt>
      <trkpt lat="42.27627" lon="1.92221">
        <ele>1169.29</ele>
        <time>2021-07-31T14:21:41Z</time>
      </trkpt>
      <trkpt lat="42.27614" lon="1.92237">
        <ele>1165.76</ele>
        <time>2021-07-31T14:21:47Z</time>
      </trkpt>
      <trkpt lat="42.27609" lon="1.92247">
        <ele>1164.71</ele>
        <time>2021-07-31T14:21:49Z</time>
      </trkpt>
      <trkpt lat="42.27589" lon="1.92274">
        <ele>1160.59</ele>
        <time>2021-07-31T14:21:55Z</time>
      </trkpt>
      <trkpt lat="42.27569" lon="1.92295">
        <ele>1157.11</ele>
        <time>2021-07-31T14:22:00Z</time>
      </trkpt>
      <trkpt lat="42.27546" lon="1.92308">
        <ele>1153.49</ele>
        <time>2021-07-31T14:22:04Z</time>
      </trkpt>
      <trkpt lat="42.2753" lon="1.92318">
        <ele>1150.54</ele>
        <time>2021-07-31T14:22:07Z</time>
      </trkpt>
      <trkpt lat="42.27505" lon="1.92343">
        <ele>1145.77</ele>
        <time>2021-07-31T14:22:12Z</time>
      </trkpt>
      <trkpt lat="42.27483" lon="1.92375">
        <ele>1142.43</ele>
        <time>2021-07-31T14:22:16Z</time>
      </trkpt>
      <trkpt lat="42.27479" lon="1.92382">
        <ele>1141.38</ele>
        <time>2021-07-31T14:22:17Z</time>
      </trkpt>
      <trkpt lat="42.27458" lon="1.92398">
        <ele>1136.68</ele>
        <time>2021-07-31T14:22:22Z</time>
      </trkpt>
      <trkpt lat="42.27444" lon="1.92416">
        <ele>1133.15</ele>
        <time>2021-07-31T14:22:26Z</time>
      </trkpt>
      <trkpt lat="42.27427" lon="1.92407">
        <ele>1129.75</ele>
        <time>2021-07-31T14:22:30Z</time>
      </trkpt>
      <trkpt lat="42.27414" lon="1.924">
        <ele>1128.22</ele>
        <time>2021-07-31T14:22:32Z</time>
      </trkpt>
      <trkpt lat="42.27375" lon="1.92383">
        <ele>1123.75</ele>
        <time>2021-07-31T14:22:37Z</time>
      </trkpt>
      <trkpt lat="42.27363" lon="1.92376">
        <ele>1121.63</ele>
        <time>2021-07-31T14:22:39Z</time>
      </trkpt>
      <trkpt lat="42.27338" lon="1.9237">
        <ele>1117.98</ele>
        <time>2021-07-31T14:22:43Z</time>
      </trkpt>
      <trkpt lat="42.27312" lon="1.9235">
        <ele>1113.78</ele>
        <time>2021-07-31T14:22:48Z</time>
      </trkpt>
      <trkpt lat="42.27305" lon="1.92341">
        <ele>1112.08</ele>
        <time>2021-07-31T14:22:50Z</time>
      </trkpt>
      <trkpt lat="42.27289" lon="1.92313">
        <ele>1108.83</ele>
        <time>2021-07-31T14:22:54Z</time>
      </trkpt>
      <trkpt lat="42.27271" lon="1.92287">
        <ele>1105.27</ele>
        <time>2021-07-31T14:22:58Z</time>
      </trkpt>
      <trkpt lat="42.27246" lon="1.92264">
        <ele>1101.21</ele>
        <time>2021-07-31T14:23:02Z</time>
      </trkpt>
      <trkpt lat="42.2724" lon="1.92259">
        <ele>1100.29</ele>
        <time>2021-07-31T14:23:03Z</time>
      </trkpt>
      <trkpt lat="42.27213" lon="1.9225">
        <ele>1095.02</ele>
        <time>2021-07-31T14:23:07Z</time>
      </trkpt>
      <trkpt lat="42.27198" lon="1.92255">
        <ele>1091.55</ele>
        <time>2021-07-31T14:23:10Z</time>
      </trkpt>
      <trkpt lat="42.27183" lon="1.92257">
        <ele>1088.43</ele>
        <time>2021-07-31T14:23:13Z</time>
      </trkpt>
      <trkpt lat="42.27161" lon="1.92256">
        <ele>1084.89</ele>
        <time>2021-07-31T14:23:17Z</time>
      </trkpt>
      <trkpt lat="42.27124" lon="1.92268">
        <ele>1080.69</ele>
        <time>2021-07-31T14:23:22Z</time>
      </trkpt>
      <trkpt lat="42.27096" lon="1.92275">
        <ele>1077.45</ele>
        <time>2021-07-31T14:23:25Z</time>
      </trkpt>
      <trkpt lat="42.27069" lon="1.9228">
        <ele>1074.04</ele>
        <time>2021-07-31T14:23:28Z</time>
      </trkpt>
      <trkpt lat="42.27044" lon="1.92286">
        <ele>1070.08</ele>
        <time>2021-07-31T14:23:31Z</time>
      </trkpt>
      <trkpt lat="42.27029" lon="1.92287">
        <ele>1067.06</ele>
        <time>2021-07-31T14:23:33Z</time>
      </trkpt>
      <trkpt lat="42.27016" lon="1.92287">
        <ele>1064.02</ele>
        <time>2021-07-31T14:23:35Z</time>
      </trkpt>
      <trkpt lat="42.26995" lon="1.92285">
        <ele>1060.17</ele>
        <time>2021-07-31T14:23:38Z</time>
      </trkpt>
      <trkpt lat="42.26988" lon="1.92284">
        <ele>1059.09</ele>
        <time>2021-07-31T14:23:39Z</time>
      </trkpt>
      <trkpt lat="42.26959" lon="1.923">
        <ele>1055.02</ele>
        <time>2021-07-31T14:23:43Z</time>
      </trkpt>
      <trkpt lat="42.26936" lon="1.92319">
        <ele>1051.78</ele>
        <time>2021-07-31T14:23:46Z</time>
      </trkpt>
      <trkpt lat="42.24666" lon="1.92297">
        <ele>840.24</ele>
        <time>2021-07-31T14:29:46Z</time>
      </trkpt>
      <trkpt lat="42.24662" lon="1.92299">
        <ele>840.22</ele>
        <time>2021-07-31T14:29:47Z</time>
      </trkpt>
      <trkpt lat="42.24626" lon="1.92298">
        <ele>837.11</ele>
        <time>2021-07-31T14:29:53Z</time>
      </trkpt>
      <trkpt lat="42.246" lon="1.92301">
        <ele>834.09</ele>
        <time>2021-07-31T14:29:58Z</time>
      </trkpt>
      <trkpt lat="42.24569" lon="1.92284">
        <ele>832.15</ele>
        <time>2021-07-31T14:30:02Z</time>
      </trkpt>
      <trkpt lat="42.24484" lon="1.92221">
        <ele>828.42</ele>
        <time>2021-07-31T14:30:10Z</time>
      </trkpt>
      <trkpt lat="42.2441" lon="1.92176">
        <ele>825.05</ele>
        <time>2021-07-31T14:30:16Z</time>
      </trkpt>
      <trkpt lat="42.24362" lon="1.9215">
        <ele>821.8</ele>
        <time>2021-07-31T14:30:21Z</time>
      </trkpt>
      <trkpt lat="42.24321" lon="1.9215">
        <ele>818.55</ele>
        <time>2021-07-31T14:30:26Z</time>
      </trkpt>
      <trkpt lat="42.24275" lon="1.92165">
        <ele>816.87</ele>
        <time>2021-07-31T14:30:30Z</time>
      </trkpt>
      <trkpt lat="42.24207" lon="1.92172">
        <ele>814.62</ele>
        <time>2021-07-31T14:30:36Z</time>
      </trkpt>
      <trkpt lat="42.24148" lon="1.92123">
        <ele>812.29</ele>
        <time>2021-07-31T14:30:43Z</time>
      </trkpt>
      <trkpt lat="42.24128" lon="1.921">
        <ele>811.46</ele>
        <time>2021-07-31T14:30:46Z</time>
      </trkpt>
      <trkpt lat="42.24075" lon="1.92081">
        <ele>809.54</ele>
        <time>2021-07-31T14:30:52Z</time>
      </trkpt>
      <trkpt lat="42.24031" lon="1.92081">
        <ele>807.47</ele>
        <time>2021-07-31T14:30:56Z</time>
      </trkpt>
      <trkpt lat="42.23994" lon="1.92057">
        <ele>805.4</ele>
        <time>2021-07-31T14:31:00Z</time>
      </trkpt>
      <trkpt lat="42.23977" lon="1.9204">
        <ele>804.45</ele>
        <time>2021-07-31T14:31:02Z</time>
      </trkpt>
      <trkpt lat="42.2396" lon="1.92021">
        <ele>803.49</ele>
        <time>2021-07-31T14:31:04Z</time>
      </trkpt>
      <trkpt lat="42.23936" lon="1.91972">
        <ele>801.21</ele>
        <time>2021-07-31T14:31:08Z</time>
      </trkpt>
      <trkpt lat="42.23901" lon="1.91928">
        <ele>799.49</ele>
        <time>2021-07-31T14:31:12Z</time>
      </trkpt>
      <trkpt lat="42.23863" lon="1.91906">
        <ele>796.4</ele>
        <time>2021-07-31T14:31:19Z</time>
      </trkpt>
      <trkpt lat="42.23857" lon="1.91904">
        <ele>795.59</ele>
        <time>2021-07-31T14:31:21Z</time>
      </trkpt>
      <trkpt lat="42.23847" lon="1.91875">
        <ele>794.52</ele>
        <time>2021-07-31T14:31:25Z</time>
      </trkpt>
      <trkpt lat="42.23842" lon="1.91742">
        <ele>794.02</ele>
        <time>2021-07-31T14:31:32Z</time>
      </trkpt>
      <trkpt lat="42.23852" lon="1.91539">
        <ele>793.86</ele>
        <time>2021-07-31T14:31:39Z</time>
      </trkpt>
      <trkpt lat="42.23869" lon="1.91218">
        <ele>791.31</ele>
        <time>2021-07-31T14:31:49Z</time>
      </trkpt>
      <trkpt lat="42.23871" lon="1.91162">
        <ele>790.36</ele>
        <time>2021-07-31T14:31:51Z</time>
      </trkpt>
      <trkpt lat="42.23836" lon="1.90973">
        <ele>786.43</ele>
        <time>2021-07-31T14:31:58Z</time>
      </trkpt>
      <trkpt lat="42.23814" lon="1.9079">
        <ele>783.05</ele>
        <time>2021-07-31T14:32:04Z</time>
      </trkpt>
      <trkpt lat="42.23828" lon="1.90546">
        <ele>779.99</ele>
        <time>2021-07-31T14:32:11Z</time>
      </trkpt>
      <trkpt lat="42.23844" lon="1.90308">
        <ele>776.8</ele>
        <time>2021-07-31T14:32:18Z</time>
      </trkpt>
      <trkpt lat="42.23854" lon="1.90173">
        <ele>773.57</ele>
        <time>2021-07-31T14:32:23Z</time>
      </trkpt>
      <trkpt lat="42.23824" lon="1.9005">
        <ele>770.77</ele>
        <time>2021-07-31T14:32:28Z</time>
      </trkpt>
      <trkpt lat="42.2381" lon="1.90027">
        <ele>770.33</ele>
        <time>2021-07-31T14:32:29Z</time>
      </trkpt>
      <trkpt lat="42.23768" lon="1.89958">
        <ele>769.04</ele>
        <time>2021-07-31T14:32:32Z</time>
      </trkpt>
      <trkpt lat="42.2373" lon="1.898">
        <ele>767.32</ele>
        <time>2021-07-31T14:32:38Z</time>
      </trkpt>
      <trkpt lat="42.23693" lon="1.89557">
        <ele>764.25</ele>
        <time>2021-07-31T14:32:47Z</time>
      </trkpt>
      <trkpt lat="42.23686" lon="1.89518">
        <ele>763.37</ele>
        <time>2021-07-31T14:32:49Z</time>
      </trkpt>
      <trkpt lat="42.23628" lon="1.89433">
        <ele>760.97</ele>
        <time>2021-07-31T14:32:55Z</time>
      </trkpt>
      <trkpt lat="42.23612" lon="1.89427">
        <ele>760.64</ele>
        <time>2021-07-31T14:32:56Z</time>
      </trkpt>
      <trkpt lat="42.23532" lon="1.8939">
        <ele>759.59</ele>
        <time>2021-07-31T14:33:01Z</time>
      </trkpt>
      <trkpt lat="42.23466" lon="1.89279">
        <ele>757.82</ele>
        <time>2021-07-31T14:33:07Z</time>
      </trkpt>
      <trkpt lat="42.23461" lon="1.89227">
        <ele>757.31</ele>
        <time>2021-07-31T14:33:09Z</time>
      </trkpt>
      <trkpt lat="42.2346" lon="1.89175">
        <ele>756.89</ele>
        <time>2021-07-31T14:33:11Z</time>
      </trkpt>
      <trkpt lat="42.23424" lon="1.89062">
        <ele>756.04</ele>
        <time>2021-07-31T14:33:16Z</time>
      </trkpt>
      <trkpt lat="42.2341" lon="1.89042">
        <ele>755.87</ele>
        <time>2021-07-31T14:33:17Z</time>
      </trkpt>
      <trkpt lat="42.23395" lon="1.89023">
        <ele>755.73</ele>
        <time>2021-07-31T14:33:18Z</time>
      </trkpt>
      <trkpt lat="42.23368" lon="1.88979">
        <ele>755.43</ele>
        <time>2021-07-31T14:33:20Z</time>
      </trkpt>
      <trkpt lat="42.23299" lon="1.88778">
        <ele>753.96</ele>
        <time>2021-07-31T14:33:28Z</time>
      </trkpt>
      <trkpt lat="42.23239" lon="1.88611">
        <ele>751.48</ele>
        <time>2021-07-31T14:33:36Z</time>
      </trkpt>
      <trkpt lat="42.23234" lon="1.88596">
        <ele>750.99</ele>
        <time>2021-07-31T14:33:37Z</time>
      </trkpt>
      <trkpt lat="42.23244" lon="1.88539">
        <ele>747.49</ele>
        <time>2021-07-31T14:33:43Z</time>
      </trkpt>
      <trkpt lat="42.23227" lon="1.88524">
        <ele>746.39</ele>
        <time>2021-07-31T14:33:46Z</time>
      </trkpt>
      <trkpt lat="42.23186" lon="1.88463">
        <ele>745.13</ele>
        <time>2021-07-31T14:33:52Z</time>
      </trkpt>
      <trkpt lat="42.23104" lon="1.88354">
        <ele>744.81</ele>
        <time>2021-07-31T14:34:00Z</time>
      </trkpt>
      <trkpt lat="42.2307" lon="1.88307">
        <ele>744.22</ele>
        <time>2021-07-31T14:34:04Z</time>
      </trkpt>
      <trkpt lat="42.23074" lon="1.88266">
        <ele>742.48</ele>
        <time>2021-07-31T14:34:10Z</time>
      </trkpt>
      <trkpt lat="42.23077" lon="1.88231">
        <ele>741.95</ele>
        <time>2021-07-31T14:34:14Z</time>
      </trkpt>
      <trkpt lat="42.23129" lon="1.88086">
        <ele>741.98</ele>
        <time>2021-07-31T14:34:23Z</time>
      </trkpt>
      <trkpt lat="42.23136" lon="1.88073">
        <ele>741.98</ele>
        <time>2021-07-31T14:34:24Z</time>
      </trkpt>
      <trkpt lat="42.23142" lon="1.88063">
        <ele>741.96</ele>
        <time>2021-07-31T14:34:25Z</time>
      </trkpt>
      <trkpt lat="42.23168" lon="1.88043">
        <ele>741.5</ele>
        <time>2021-07-31T14:34:29Z</time>
      </trkpt>
      <trkpt lat="42.23245" lon="1.88012">
        <ele>739.92</ele>
        <time>2021-07-31T14:34:40Z</time>
      </trkpt>
      <trkpt lat="42.23278" lon="1.87994">
        <ele>739.72</ele>
        <time>2021-07-31T14:34:45Z</time>
      </trkpt>
      <trkpt lat="42.23295" lon="1.87971">
        <ele>739.59</ele>
        <time>2021-07-31T14:34:49Z</time>
      </trkpt>
      <trkpt lat="42.23317" lon="1.87947">
        <ele>739.09</ele>
        <time>2021-07-31T14:34:54Z</time>
      </trkpt>
      <trkpt lat="42.23332" lon="1.87944">
        <ele>739.04</ele>
        <time>2021-07-31T14:34:56Z</time>
      </trkpt>
      <trkpt lat="42.23385" lon="1.87889">
        <ele>740.22</ele>
        <time>2021-07-31T14:35:04Z</time>
      </trkpt>
      <trkpt lat="42.23388" lon="1.87875">
        <ele>740.41</ele>
        <time>2021-07-31T14:35:06Z</time>
      </trkpt>
      <trkpt lat="42.23405" lon="1.87789">
        <ele>741.35</ele>
        <time>2021-07-31T14:35:15Z</time>
      </trkpt>
      <trkpt lat="42.23414" lon="1.87752">
        <ele>742.1</ele>
        <time>2021-07-31T14:35:21Z</time>
      </trkpt>
      <trkpt lat="42.23456" lon="1.87683">
        <ele>744.17</ele>
        <time>2021-07-31T14:35:34Z</time>
      </trkpt>
      <trkpt lat="42.2355" lon="1.876">
        <ele>747.22</ele>
        <time>2021-07-31T14:35:46Z</time>
      </trkpt>
      <trkpt lat="42.23612" lon="1.87551">
        <ele>748.12</ele>
        <time>2021-07-31T14:35:54Z</time>
      </trkpt>
      <trkpt lat="42.23669" lon="1.8756">
        <ele>747.92</ele>
        <time>2021-07-31T14:36:01Z</time>
      </trkpt>
      <trkpt lat="42.23713" lon="1.87596">
        <ele>747.83</ele>
        <time>2021-07-31T14:36:07Z</time>
      </trkpt>
      <trkpt lat="42.23735" lon="1.87588">
        <ele>747.81</ele>
        <time>2021-07-31T14:36:11Z</time>
      </trkpt>
      <trkpt lat="42.23824" lon="1.87515">
        <ele>751.17</ele>
        <time>2021-07-31T14:36:20Z</time>
      </trkpt>
      <trkpt lat="42.23878" lon="1.87475">
        <ele>754.37</ele>
        <time>2021-07-31T14:36:24Z</time>
      </trkpt>
      <trkpt lat="42.23945" lon="1.87418">
        <ele>757.85</ele>
        <time>2021-07-31T14:36:29Z</time>
      </trkpt>
      <trkpt lat="42.23972" lon="1.87396">
        <ele>758.84</ele>
        <time>2021-07-31T14:36:31Z</time>
      </trkpt>
      <trkpt lat="42.24034" lon="1.87377">
        <ele>760.57</ele>
        <time>2021-07-31T14:36:35Z</time>
      </trkpt>
      <trkpt lat="42.2413" lon="1.87369">
        <ele>763.15</ele>
        <time>2021-07-31T14:36:41Z</time>
      </trkpt>
      <trkpt lat="42.24201" lon="1.87316">
        <ele>765.29</ele>
        <time>2021-07-31T14:36:46Z</time>
      </trkpt>
      <trkpt lat="42.24323" lon="1.87173">
        <ele>769.04</ele>
        <time>2021-07-31T14:36:55Z</time>
      </trkpt>
      <trkpt lat="42.24448" lon="1.87057">
        <ele>772.14</ele>
        <time>2021-07-31T14:37:04Z</time>
      </trkpt>
      <trkpt lat="42.24578" lon="1.86941">
        <ele>775.43</ele>
        <time>2021-07-31T14:37:14Z</time>
      </trkpt>
      <trkpt lat="42.24635" lon="1.86913">
        <ele>777.03</ele>
        <time>2021-07-31T14:37:20Z</time>
      </trkpt>
      <trkpt lat="42.24641" lon="1.86909">
        <ele>777.34</ele>
        <time>2021-07-31T14:37:21Z</time>
      </trkpt>
      <trkpt lat="42.24646" lon="1.86902">
        <ele>777.7</ele>
        <time>2021-07-31T14:37:22Z</time>
      </trkpt>
      <trkpt lat="42.24649" lon="1.86894">
        <ele>778.01</ele>
        <time>2021-07-31T14:37:23Z</time>
      </trkpt>
      <trkpt lat="42.24656" lon="1.86877">
        <ele>778.78</ele>
        <time>2021-07-31T14:37:26Z</time>
      </trkpt>
      <trkpt lat="42.24659" lon="1.86873">
        <ele>779.03</ele>
        <time>2021-07-31T14:37:27Z</time>
      </trkpt>
      <trkpt lat="42.24663" lon="1.86869">
        <ele>779.26</ele>
        <time>2021-07-31T14:37:28Z</time>
      </trkpt>
      <trkpt lat="42.24668" lon="1.86866">
        <ele>779.43</ele>
        <time>2021-07-31T14:37:29Z</time>
      </trkpt>
      <trkpt lat="42.24674" lon="1.86866">
        <ele>779.58</ele>
        <time>2021-07-31T14:37:30Z</time>
      </trkpt>
      <trkpt lat="42.24681" lon="1.86865">
        <ele>779.71</ele>
        <time>2021-07-31T14:37:31Z</time>
      </trkpt>
      <trkpt lat="42.24687" lon="1.86862">
        <ele>779.85</ele>
        <time>2021-07-31T14:37:32Z</time>
      </trkpt>
      <trkpt lat="42.24693" lon="1.86856">
        <ele>780.03</ele>
        <time>2021-07-31T14:37:33Z</time>
      </trkpt>
      <trkpt lat="42.24724" lon="1.86817">
        <ele>780.53</ele>
        <time>2021-07-31T14:37:38Z</time>
      </trkpt>
      <trkpt lat="42.24849" lon="1.86704">
        <ele>780.93</ele>
        <time>2021-07-31T14:37:53Z</time>
      </trkpt>
      <trkpt lat="42.24965" lon="1.86593">
        <ele>783.2</ele>
        <time>2021-07-31T14:38:08Z</time>
      </trkpt>
      <trkpt lat="42.25015" lon="1.86545">
        <ele>785.22</ele>
        <time>2021-07-31T14:38:17Z</time>
      </trkpt>
      <trkpt lat="42.25056" lon="1.86504">
        <ele>787.46</ele>
        <time>2021-07-31T14:38:27Z</time>
      </trkpt>
      <trkpt lat="42.25101" lon="1.86461">
        <ele>790.09</ele>
        <time>2021-07-31T14:38:35Z</time>
      </trkpt>
      <trkpt lat="42.25122" lon="1.86463">
        <ele>791.23</ele>
        <time>2021-07-31T14:38:39Z</time>
      </trkpt>
      <trkpt lat="42.25136" lon="1.86473">
        <ele>791.89</ele>
        <time>2021-07-31T14:38:41Z</time>
      </trkpt>
      <trkpt lat="42.25192" lon="1.8651">
        <ele>795.6</ele>
        <time>2021-07-31T14:38:48Z</time>
      </trkpt>
      <trkpt lat="42.25199" lon="1.86515">
        <ele>796.29</ele>
        <time>2021-07-31T14:38:49Z</time>
      </trkpt>
      <trkpt lat="42.2521" lon="1.86546">
        <ele>798.82</ele>
        <time>2021-07-31T14:38:53Z</time>
      </trkpt>
      <trkpt lat="42.25227" lon="1.8657">
        <ele>802.46</ele>
        <time>2021-07-31T14:39:00Z</time>
      </trkpt>
      <trkpt lat="42.25227" lon="1.86539">
        <ele>803.59</ele>
        <time>2021-07-31T14:39:03Z</time>
      </trkpt>
      <trkpt lat="42.25229" lon="1.865">
        <ele>804.09</ele>
        <time>2021-07-31T14:39:08Z</time>
      </trkpt>
      <trkpt lat="42.25248" lon="1.86413">
        <ele>806.16</ele>
        <time>2021-07-31T14:39:17Z</time>
      </trkpt>
      <trkpt lat="42.25252" lon="1.86398">
        <ele>806.83</ele>
        <time>2021-07-31T14:39:19Z</time>
      </trkpt>
      <trkpt lat="42.25279" lon="1.86375">
        <ele>808.19</ele>
        <time>2021-07-31T14:39:24Z</time>
      </trkpt>
      <trkpt lat="42.25347" lon="1.86343">
        <ele>810.27</ele>
        <time>2021-07-31T14:39:34Z</time>
      </trkpt>
      <trkpt lat="42.25371" lon="1.86332">
        <ele>810.25</ele>
        <time>2021-07-31T14:39:37Z</time>
      </trkpt>
      <trkpt lat="42.25403" lon="1.86294">
        <ele>809.06</ele>
        <time>2021-07-31T14:39:43Z</time>
      </trkpt>
      <trkpt lat="42.2542" lon="1.86258">
        <ele>806.86</ele>
        <time>2021-07-31T14:39:49Z</time>
      </trkpt>
      <trkpt lat="42.25429" lon="1.86244">
        <ele>806.42</ele>
        <time>2021-07-31T14:39:53Z</time>
      </trkpt>
      <trkpt lat="42.2548" lon="1.86261">
        <ele>808.36</ele>
        <time>2021-07-31T14:40:01Z</time>
      </trkpt>
      <trkpt lat="42.25538" lon="1.86278">
        <ele>811.96</ele>
        <time>2021-07-31T14:40:07Z</time>
      </trkpt>
      <trkpt lat="42.25564" lon="1.86288">
        <ele>813.79</ele>
        <time>2021-07-31T14:40:10Z</time>
      </trkpt>
      <trkpt lat="42.25573" lon="1.86286">
        <ele>814.44</ele>
        <time>2021-07-31T14:40:11Z</time>
      </trkpt>
      <trkpt lat="42.2558" lon="1.86281">
        <ele>815.15</ele>
        <time>2021-07-31T14:40:12Z</time>
      </trkpt>
      <trkpt lat="42.2559" lon="1.86235">
        <ele>818.26</ele>
        <time>2021-07-31T14:40:17Z</time>
      </trkpt>
      <trkpt lat="42.25553" lon="1.86209">
        <ele>820.73</ele>
        <time>2021-07-31T14:40:21Z</time>
      </trkpt>
      <trkpt lat="42.25501" lon="1.86195">
        <ele>822.26</ele>
        <time>2021-07-31T14:40:26Z</time>
      </trkpt>
      <trkpt lat="42.25423" lon="1.86151">
        <ele>823.16</ele>
        <time>2021-07-31T14:40:35Z</time>
      </trkpt>
      <trkpt lat="42.25407" lon="1.86118">
        <ele>824.04</ele>
        <time>2021-07-31T14:40:39Z</time>
      </trkpt>
      <trkpt lat="42.25378" lon="1.85975">
        <ele>826.39</ele>
        <time>2021-07-31T14:40:52Z</time>
      </trkpt>
      <trkpt lat="42.25364" lon="1.85897">
        <ele>823.25</ele>
        <time>2021-07-31T14:40:58Z</time>
      </trkpt>
      <trkpt lat="42.25356" lon="1.85865">
        <ele>819.67</ele>
        <time>2021-07-31T14:41:01Z</time>
      </trkpt>
      <trkpt lat="42.25349" lon="1.85835">
        <ele>816.65</ele>
        <time>2021-07-31T14:41:04Z</time>
      </trkpt>
      <trkpt lat="42.25345" lon="1.85807">
        <ele>813.4</ele>
        <time>2021-07-31T14:41:07Z</time>
      </trkpt>
      <trkpt lat="42.25352" lon="1.85772">
        <ele>810.78</ele>
        <time>2021-07-31T14:41:10Z</time>
      </trkpt>
      <trkpt lat="42.25359" lon="1.85747">
        <ele>809.72</ele>
        <time>2021-07-31T14:41:12Z</time>
      </trkpt>
      <trkpt lat="42.25416" lon="1.85614">
        <ele>810.4</ele>
        <time>2021-07-31T14:41:21Z</time>
      </trkpt>
      <trkpt lat="42.25461" lon="1.85477">
        <ele>813.73</ele>
        <time>2021-07-31T14:41:29Z</time>
      </trkpt>
      <trkpt lat="42.25498" lon="1.85372">
        <ele>815.87</ele>
        <time>2021-07-31T14:41:36Z</time>
      </trkpt>
      <trkpt lat="42.25511" lon="1.85341">
        <ele>816.25</ele>
        <time>2021-07-31T14:41:38Z</time>
      </trkpt>
      <trkpt lat="42.25535" lon="1.85256">
        <ele>817.32</ele>
        <time>2021-07-31T14:41:43Z</time>
      </trkpt>
      <trkpt lat="42.25564" lon="1.85202">
        <ele>818.43</ele>
        <time>2021-07-31T14:41:47Z</time>
      </trkpt>
      <trkpt lat="42.2559" lon="1.851">
        <ele>821.23</ele>
        <time>2021-07-31T14:41:53Z</time>
      </trkpt>
      <trkpt lat="42.25593" lon="1.85047">
        <ele>822.9</ele>
        <time>2021-07-31T14:41:56Z</time>
      </trkpt>
      <trkpt lat="42.2561" lon="1.84977">
        <ele>824.73</ele>
        <time>2021-07-31T14:42:00Z</time>
      </trkpt>
      <trkpt lat="42.2567" lon="1.84824">
        <ele>827.94</ele>
        <time>2021-07-31T14:42:09Z</time>
      </trkpt>
      <trkpt lat="42.25727" lon="1.84749">
        <ele>825.76</ele>
        <time>2021-07-31T14:42:16Z</time>
      </trkpt>
      <trkpt lat="42.25724" lon="1.84752">
        <ele>822.69</ele>
        <time>2021-07-31T14:42:22Z</time>
      </trkpt>
      <trkpt lat="42.25743" lon="1.84735">
        <ele>821.6</ele>
        <time>2021-07-31T14:42:28Z</time>
      </trkpt>
      <trkpt lat="42.2582" lon="1.84698">
        <ele>823.52</ele>
        <time>2021-07-31T14:42:37Z</time>
      </trkpt>
      <trkpt lat="42.25852" lon="1.84677">
        <ele>825.39</ele>
        <time>2021-07-31T14:42:41Z</time>
      </trkpt>
      <trkpt lat="42.2586" lon="1.8467">
        <ele>825.68</ele>
        <time>2021-07-31T14:42:42Z</time>
      </trkpt>
      <trkpt lat="42.25889" lon="1.84628">
        <ele>827.16</ele>
        <time>2021-07-31T14:42:50Z</time>
      </trkpt>
      <trkpt lat="42.25895" lon="1.84617">
        <ele>827.5</ele>
        <time>2021-07-31T14:43:00Z</time>
      </trkpt>
      <trkpt lat="42.25916" lon="1.84585">
        <ele>827.89</ele>
        <time>2021-07-31T14:43:09Z</time>
      </trkpt>
      <trkpt lat="42.25967" lon="1.8453">
        <ele>829.52</ele>
        <time>2021-07-31T14:43:18Z</time>
      </trkpt>
      <trkpt lat="42.25991" lon="1.84513">
        <ele>830.59</ele>
        <time>2021-07-31T14:43:21Z</time>
      </trkpt>
      <trkpt lat="42.26029" lon="1.84435">
        <ele>834.09</ele>
        <time>2021-07-31T14:43:28Z</time>
      </trkpt>
      <trkpt lat="42.26031" lon="1.84423">
        <ele>834.58</ele>
        <time>2021-07-31T14:43:29Z</time>
      </trkpt>
      <trkpt lat="42.2608" lon="1.84322">
        <ele>836.3</ele>
        <time>2021-07-31T14:43:37Z</time>
      </trkpt>
      <trkpt lat="42.26107" lon="1.84281">
        <ele>837.28</ele>
        <time>2021-07-31T14:43:40Z</time>
      </trkpt>
      <trkpt lat="42.26127" lon="1.84199">
        <ele>839.67</ele>
        <time>2021-07-31T14:43:45Z</time>
      </trkpt>
      <trkpt lat="42.26147" lon="1.84083">
        <ele>842.91</ele>
        <time>2021-07-31T14:43:52Z</time>
      </trkpt>
      <trkpt lat="42.26201" lon="1.83997">
        <ele>845.86</ele>
        <time>2021-07-31T14:43:59Z</time>
      </trkpt>
      <trkpt lat="42.26282" lon="1.83922">
        <ele>849.63</ele>
        <time>2021-07-31T14:44:06Z</time>
      </trkpt>
      <trkpt lat="42.26329" lon="1.83868">
        <ele>851.92</ele>
        <time>2021-07-31T14:44:11Z</time>
      </trkpt>
      <trkpt lat="42.26337" lon="1.83835">
        <ele>852.64</ele>
        <time>2021-07-31T14:44:16Z</time>
      </trkpt>
      <trkpt lat="42.26319" lon="1.83762">
        <ele>853.32</ele>
        <time>2021-07-31T14:44:24Z</time>
      </trkpt>
      <trkpt lat="42.26314" lon="1.83742">
        <ele>853.33</ele>
        <time>2021-07-31T14:44:26Z</time>
      </trkpt>
      <trkpt lat="42.26294" lon="1.8372">
        <ele>853.11</ele>
        <time>2021-07-31T14:44:31Z</time>
      </trkpt>
      <trkpt lat="42.26268" lon="1.83726">
        <ele>852.51</ele>
        <time>2021-07-31T14:44:39Z</time>
      </trkpt>
      <trkpt lat="42.26259" lon="1.83744">
        <ele>853.78</ele>
        <time>2021-07-31T14:44:48Z</time>
      </trkpt>
      <trkpt lat="42.26256" lon="1.83758">
        <ele>854.68</ele>
        <time>2021-07-31T14:45:29Z</time>
      </trkpt>
      <trkpt lat="42.26256" lon="1.83812">
        <ele>855.75</ele>
        <time>2021-07-31T14:45:35Z</time>
      </trkpt>
      <trkpt lat="42.26211" lon="1.83851">
        <ele>859.09</ele>
        <time>2021-07-31T14:45:41Z</time>
      </trkpt>
      <trkpt lat="42.2619" lon="1.8385">
        <ele>860.76</ele>
        <time>2021-07-31T14:45:43Z</time>
      </trkpt>
      <trkpt lat="42.26148" lon="1.8384">
        <ele>864.16</ele>
        <time>2021-07-31T14:45:47Z</time>
      </trkpt>
      <trkpt lat="42.26137" lon="1.83812">
        <ele>868.11</ele>
        <time>2021-07-31T14:45:52Z</time>
      </trkpt>
      <trkpt lat="42.26164" lon="1.83804">
        <ele>870.74</ele>
        <time>2021-07-31T14:45:56Z</time>
      </trkpt>
      <trkpt lat="42.26185" lon="1.83801">
        <ele>872.86</ele>
        <time>2021-07-31T14:45:58Z</time>
      </trkpt>
      <trkpt lat="42.26204" lon="1.83752">
        <ele>876.95</ele>
        <time>2021-07-31T14:46:03Z</time>
      </trkpt>
      <trkpt lat="42.26203" lon="1.83737">
        <ele>877.84</ele>
        <time>2021-07-31T14:46:04Z</time>
      </trkpt>
      <trkpt lat="42.262" lon="1.83657">
        <ele>882.33</ele>
        <time>2021-07-31T14:46:09Z</time>
      </trkpt>
      <trkpt lat="42.26198" lon="1.83599">
        <ele>885.9</ele>
        <time>2021-07-31T14:46:12Z</time>
      </trkpt>
      <trkpt lat="42.26199" lon="1.83579">
        <ele>887.06</ele>
        <time>2021-07-31T14:46:13Z</time>
      </trkpt>
      <trkpt lat="42.26185" lon="1.83498">
        <ele>891.96</ele>
        <time>2021-07-31T14:46:17Z</time>
      </trkpt>
      <trkpt lat="42.26194" lon="1.83426">
        <ele>897.09</ele>
        <time>2021-07-31T14:46:21Z</time>
      </trkpt>
      <trkpt lat="42.26212" lon="1.83371">
        <ele>901.15</ele>
        <time>2021-07-31T14:46:24Z</time>
      </trkpt>
      <trkpt lat="42.26224" lon="1.83293">
        <ele>906.56</ele>
        <time>2021-07-31T14:46:28Z</time>
      </trkpt>
      <trkpt lat="42.26243" lon="1.83253">
        <ele>911.19</ele>
        <time>2021-07-31T14:46:32Z</time>
      </trkpt>
      <trkpt lat="42.26256" lon="1.83256">
        <ele>914.9</ele>
        <time>2021-07-31T14:46:36Z</time>
      </trkpt>
      <trkpt lat="42.26255" lon="1.83257">
        <ele>917.97</ele>
        <time>2021-07-31T14:46:42Z</time>
      </trkpt>
      <trkpt lat="42.26283" lon="1.83257">
        <ele>919.48</ele>
        <time>2021-07-31T14:46:49Z</time>
      </trkpt>
      <trkpt lat="42.26298" lon="1.83209">
        <ele>921.19</ele>
        <time>2021-07-31T14:46:54Z</time>
      </trkpt>
      <trkpt lat="42.26316" lon="1.83162">
        <ele>922.51</ele>
        <time>2021-07-31T14:46:58Z</time>
      </trkpt>
      <trkpt lat="42.26308" lon="1.83083">
        <ele>925.11</ele>
        <time>2021-07-31T14:47:03Z</time>
      </trkpt>
      <trkpt lat="42.26298" lon="1.83043">
        <ele>926.36</ele>
        <time>2021-07-31T14:47:05Z</time>
      </trkpt>
      <trkpt lat="42.26304" lon="1.82938">
        <ele>930.12</ele>
        <time>2021-07-31T14:47:10Z</time>
      </trkpt>
      <trkpt lat="42.26307" lon="1.82901">
        <ele>931.84</ele>
        <time>2021-07-31T14:47:12Z</time>
      </trkpt>
      <trkpt lat="42.26284" lon="1.82845">
        <ele>935.33</ele>
        <time>2021-07-31T14:47:17Z</time>
      </trkpt>
      <trkpt lat="42.26217" lon="1.82795">
        <ele>938.23</ele>
        <time>2021-07-31T14:47:23Z</time>
      </trkpt>
      <trkpt lat="42.2619" lon="1.82781">
        <ele>939.47</ele>
        <time>2021-07-31T14:47:25Z</time>
      </trkpt>
      <trkpt lat="42.26172" lon="1.8272">
        <ele>942.25</ele>
        <time>2021-07-31T14:47:30Z</time>
      </trkpt>
      <trkpt lat="42.2619" lon="1.82657">
        <ele>944.55</ele>
        <time>2021-07-31T14:47:34Z</time>
      </trkpt>
      <trkpt lat="42.26173" lon="1.8258">
        <ele>948.67</ele>
        <time>2021-07-31T14:47:39Z</time>
      </trkpt>
      <trkpt lat="42.26196" lon="1.82538">
        <ele>950.52</ele>
        <time>2021-07-31T14:47:43Z</time>
      </trkpt>
      <trkpt lat="42.26206" lon="1.82532">
        <ele>951.03</ele>
        <time>2021-07-31T14:47:44Z</time>
      </trkpt>
      <trkpt lat="42.26246" lon="1.82511">
        <ele>953.01</ele>
        <time>2021-07-31T14:47:47Z</time>
      </trkpt>
      <trkpt lat="42.26299" lon="1.82501">
        <ele>955.53</ele>
        <time>2021-07-31T14:47:51Z</time>
      </trkpt>
      <trkpt lat="42.2631" lon="1.8245">
        <ele>958.35</ele>
        <time>2021-07-31T14:47:56Z</time>
      </trkpt>
      <trkpt lat="42.26308" lon="1.82434">
        <ele>958.83</ele>
        <time>2021-07-31T14:47:57Z</time>
      </trkpt>
      <trkpt lat="42.26291" lon="1.82341">
        <ele>961.35</ele>
        <time>2021-07-31T14:48:02Z</time>
      </trkpt>
      <trkpt lat="42.26317" lon="1.82267">
        <ele>963.29</ele>
        <time>2021-07-31T14:48:07Z</time>
      </trkpt>
      <trkpt lat="42.26327" lon="1.82222">
        <ele>964.3</ele>
        <time>2021-07-31T14:48:10Z</time>
      </trkpt>
      <trkpt lat="42.26327" lon="1.82129">
        <ele>965.79</ele>
        <time>2021-07-31T14:48:15Z</time>
      </trkpt>
      <trkpt lat="42.2635" lon="1.82079">
        <ele>966.51</ele>
        <time>2021-07-31T14:48:20Z</time>
      </trkpt>
      <trkpt lat="42.2636" lon="1.82073">
        <ele>966.78</ele>
        <time>2021-07-31T14:48:22Z</time>
      </trkpt>
      <trkpt lat="42.26364" lon="1.8203">
        <ele>967.34</ele>
        <time>2021-07-31T14:48:27Z</time>
      </trkpt>
      <trkpt lat="42.26348" lon="1.81976">
        <ele>967.96</ele>
        <time>2021-07-31T14:48:31Z</time>
      </trkpt>
      <trkpt lat="42.26355" lon="1.81925">
        <ele>969.14</ele>
        <time>2021-07-31T14:48:35Z</time>
      </trkpt>
      <trkpt lat="42.26357" lon="1.81878">
        <ele>970.59</ele>
        <time>2021-07-31T14:48:39Z</time>
      </trkpt>
      <trkpt lat="42.26354" lon="1.81851">
        <ele>971.81</ele>
        <time>2021-07-31T14:48:42Z</time>
      </trkpt>
      <trkpt lat="42.26355" lon="1.8184">
        <ele>972.99</ele>
        <time>2021-07-31T14:48:45Z</time>
      </trkpt>
      <trkpt lat="42.2638" lon="1.81807">
        <ele>975.57</ele>
        <time>2021-07-31T14:48:55Z</time>
      </trkpt>
      <trkpt lat="42.26398" lon="1.81764">
        <ele>976.69</ele>
        <time>2021-07-31T14:49:02Z</time>
      </trkpt>
      <trkpt lat="42.26389" lon="1.81723">
        <ele>977.84</ele>
        <time>2021-07-31T14:49:07Z</time>
      </trkpt>
      <trkpt lat="42.26368" lon="1.81693">
        <ele>979.24</ele>
        <time>2021-07-31T14:49:11Z</time>
      </trkpt>
      <trkpt lat="42.26345" lon="1.81596">
        <ele>982.53</ele>
        <time>2021-07-31T14:49:20Z</time>
      </trkpt>
      <trkpt lat="42.26344" lon="1.81583">
        <ele>982.94</ele>
        <time>2021-07-31T14:49:21Z</time>
      </trkpt>
      <trkpt lat="42.26323" lon="1.81503">
        <ele>984.92</ele>
        <time>2021-07-31T14:49:27Z</time>
      </trkpt>
      <trkpt lat="42.26338" lon="1.81382">
        <ele>985.24</ele>
        <time>2021-07-31T14:49:36Z</time>
      </trkpt>
      <trkpt lat="42.26372" lon="1.81339">
        <ele>984.56</ele>
        <time>2021-07-31T14:49:42Z</time>
      </trkpt>
      <trkpt lat="42.26394" lon="1.8132">
        <ele>984.07</ele>
        <time>2021-07-31T14:49:45Z</time>
      </trkpt>
      <trkpt lat="42.26398" lon="1.81266">
        <ele>983.64</ele>
        <time>2021-07-31T14:49:52Z</time>
      </trkpt>
      <trkpt lat="42.26378" lon="1.81239">
        <ele>983.09</ele>
        <time>2021-07-31T14:49:56Z</time>
      </trkpt>
      <trkpt lat="42.26381" lon="1.81194">
        <ele>981.86</ele>
        <time>2021-07-31T14:50:01Z</time>
      </trkpt>
      <trkpt lat="42.26382" lon="1.81093">
        <ele>981.48</ele>
        <time>2021-07-31T14:50:10Z</time>
      </trkpt>
      <trkpt lat="42.26383" lon="1.81082">
        <ele>981.29</ele>
        <time>2021-07-31T14:50:11Z</time>
      </trkpt>
      <trkpt lat="42.26383" lon="1.81059">
        <ele>980.85</ele>
        <time>2021-07-31T14:50:13Z</time>
      </trkpt>
      <trkpt lat="42.2638" lon="1.81027">
        <ele>980.04</ele>
        <time>2021-07-31T14:50:16Z</time>
      </trkpt>
      <trkpt lat="42.26392" lon="1.8091">
        <ele>977.08</ele>
        <time>2021-07-31T14:50:26Z</time>
      </trkpt>
      <trkpt lat="42.26391" lon="1.80815">
        <ele>976.5</ele>
        <time>2021-07-31T14:50:33Z</time>
      </trkpt>
      <trkpt lat="42.26374" lon="1.80766">
        <ele>976.38</ele>
        <time>2021-07-31T14:50:37Z</time>
      </trkpt>
      <trkpt lat="42.26347" lon="1.80712">
        <ele>977.12</ele>
        <time>2021-07-31T14:50:42Z</time>
      </trkpt>
      <trkpt lat="42.26333" lon="1.80676">
        <ele>978.4</ele>
        <time>2021-07-31T14:50:45Z</time>
      </trkpt>
      <trkpt lat="42.26327" lon="1.8064">
        <ele>980.27</ele>
        <time>2021-07-31T14:50:49Z</time>
      </trkpt>
      <trkpt lat="42.2635" lon="1.80653">
        <ele>980.57</ele>
        <time>2021-07-31T14:50:54Z</time>
      </trkpt>
      <trkpt lat="42.26393" lon="1.80686">
        <ele>981.57</ele>
        <time>2021-07-31T14:50:59Z</time>
      </trkpt>
      <trkpt lat="42.26441" lon="1.80722">
        <ele>984.15</ele>
        <time>2021-07-31T14:51:07Z</time>
      </trkpt>
      <trkpt lat="42.26452" lon="1.80695">
        <ele>984.6</ele>
        <time>2021-07-31T14:51:12Z</time>
      </trkpt>
      <trkpt lat="42.26434" lon="1.80543">
        <ele>985.48</ele>
        <time>2021-07-31T14:51:23Z</time>
      </trkpt>
      <trkpt lat="42.26422" lon="1.80455">
        <ele>988.77</ele>
        <time>2021-07-31T14:51:30Z</time>
      </trkpt>
      <trkpt lat="42.2642" lon="1.80419">
        <ele>990.22</ele>
        <time>2021-07-31T14:51:33Z</time>
      </trkpt>
      <trkpt lat="42.26411" lon="1.80384">
        <ele>992.08</ele>
        <time>2021-07-31T14:51:37Z</time>
      </trkpt>
      <trkpt lat="42.26406" lon="1.80358">
        <ele>994.92</ele>
        <time>2021-07-31T14:51:43Z</time>
      </trkpt>
      <trkpt lat="42.26384" lon="1.80303">
        <ele>998.88</ele>
        <time>2021-07-31T14:51:50Z</time>
      </trkpt>
      <trkpt lat="42.26375" lon="1.80284">
        <ele>1000.53</ele>
        <time>2021-07-31T14:51:52Z</time>
      </trkpt>
      <trkpt lat="42.26356" lon="1.80231">
        <ele>1004.68</ele>
        <time>2021-07-31T14:51:57Z</time>
      </trkpt>
      <trkpt lat="42.26349" lon="1.80202">
        <ele>1007.81</ele>
        <time>2021-07-31T14:52:00Z</time>
      </trkpt>
      <trkpt lat="42.26343" lon="1.80168">
        <ele>1011.46</ele>
        <time>2021-07-31T14:52:04Z</time>
      </trkpt>
      <trkpt lat="42.26333" lon="1.80129">
        <ele>1014.51</ele>
        <time>2021-07-31T14:52:08Z</time>
      </trkpt>
      <trkpt lat="42.26331" lon="1.80119">
        <ele>1015.24</ele>
        <time>2021-07-31T14:52:09Z</time>
      </trkpt>
      <trkpt lat="42.26337" lon="1.80063">
        <ele>1018.86</ele>
        <time>2021-07-31T14:52:14Z</time>
      </trkpt>
      <trkpt lat="42.26346" lon="1.80019">
        <ele>1021.73</ele>
        <time>2021-07-31T14:52:18Z</time>
      </trkpt>
      <trkpt lat="42.2638" lon="1.80016">
        <ele>1025.29</ele>
        <time>2021-07-31T14:52:24Z</time>
      </trkpt>
      <trkpt lat="42.26396" lon="1.80051">
        <ele>1026.91</ele>
        <time>2021-07-31T14:52:27Z</time>
      </trkpt>
      <trkpt lat="42.26402" lon="1.80071">
        <ele>1028.13</ele>
        <time>2021-07-31T14:52:29Z</time>
      </trkpt>
      <trkpt lat="42.26418" lon="1.8008">
        <ele>1032.17</ele>
        <time>2021-07-31T14:52:34Z</time>
      </trkpt>
      <trkpt lat="42.26415" lon="1.80068">
        <ele>1033.59</ele>
        <time>2021-07-31T14:52:36Z</time>
      </trkpt>
      <trkpt lat="42.2641" lon="1.80031">
        <ele>1037.97</ele>
        <time>2021-07-31T14:52:42Z</time>
      </trkpt>
      <trkpt lat="42.26405" lon="1.80011">
        <ele>1039.56</ele>
        <time>2021-07-31T14:52:44Z</time>
      </trkpt>
      <trkpt lat="42.26406" lon="1.79979">
        <ele>1043.46</ele>
        <time>2021-07-31T14:52:49Z</time>
      </trkpt>
      <trkpt lat="42.26418" lon="1.79941">
        <ele>1047.11</ele>
        <time>2021-07-31T14:52:54Z</time>
      </trkpt>
      <trkpt lat="42.26408" lon="1.79916">
        <ele>1050.41</ele>
        <time>2021-07-31T14:52:59Z</time>
      </trkpt>
      <trkpt lat="42.26397" lon="1.79884">
        <ele>1053.53</ele>
        <time>2021-07-31T14:53:05Z</time>
      </trkpt>
      <trkpt lat="42.2641" lon="1.79813">
        <ele>1057.3</ele>
        <time>2021-07-31T14:53:12Z</time>
      </trkpt>
      <trkpt lat="42.26412" lon="1.79802">
        <ele>1057.95</ele>
        <time>2021-07-31T14:53:13Z</time>
      </trkpt>
      <trkpt lat="42.26414" lon="1.79749">
        <ele>1061.93</ele>
        <time>2021-07-31T14:53:18Z</time>
      </trkpt>
      <trkpt lat="42.26418" lon="1.79702">
        <ele>1064.87</ele>
        <time>2021-07-31T14:53:22Z</time>
      </trkpt>
      <trkpt lat="42.26405" lon="1.79646">
        <ele>1069</ele>
        <time>2021-07-31T14:53:27Z</time>
      </trkpt>
      <trkpt lat="42.26371" lon="1.79615">
        <ele>1072.62</ele>
        <time>2021-07-31T14:53:31Z</time>
      </trkpt>
      <trkpt lat="42.26334" lon="1.79588">
        <ele>1077.1</ele>
        <time>2021-07-31T14:53:36Z</time>
      </trkpt>
      <trkpt lat="42.26329" lon="1.79556">
        <ele>1081.66</ele>
        <time>2021-07-31T14:53:41Z</time>
      </trkpt>
      <trkpt lat="42.26356" lon="1.79544">
        <ele>1084.78</ele>
        <time>2021-07-31T14:53:45Z</time>
      </trkpt>
      <trkpt lat="42.26369" lon="1.79547">
        <ele>1086.12</ele>
        <time>2021-07-31T14:53:47Z</time>
      </trkpt>
      <trkpt lat="42.26391" lon="1.79554">
        <ele>1087.77</ele>
        <time>2021-07-31T14:53:50Z</time>
      </trkpt>
      <trkpt lat="42.2641" lon="1.79564">
        <ele>1089.58</ele>
        <time>2021-07-31T14:53:53Z</time>
      </trkpt>
      <trkpt lat="42.26431" lon="1.79557">
        <ele>1093.61</ele>
        <time>2021-07-31T14:53:59Z</time>
      </trkpt>
      <trkpt lat="42.26412" lon="1.79539">
        <ele>1097.11</ele>
        <time>2021-07-31T14:54:05Z</time>
      </trkpt>
      <trkpt lat="42.26402" lon="1.79529">
        <ele>1098.5</ele>
        <time>2021-07-31T14:54:07Z</time>
      </trkpt>
      <trkpt lat="42.26385" lon="1.79494">
        <ele>1103</ele>
        <time>2021-07-31T14:54:13Z</time>
      </trkpt>
      <trkpt lat="42.2636" lon="1.79442">
        <ele>1107.89</ele>
        <time>2021-07-31T14:54:19Z</time>
      </trkpt>
      <trkpt lat="42.26336" lon="1.79416">
        <ele>1110.25</ele>
        <time>2021-07-31T14:54:22Z</time>
      </trkpt>
      <trkpt lat="42.26299" lon="1.79392">
        <ele>1115.08</ele>
        <time>2021-07-31T14:54:27Z</time>
      </trkpt>
      <trkpt lat="42.26278" lon="1.79371">
        <ele>1117.86</ele>
        <time>2021-07-31T14:54:30Z</time>
      </trkpt>
      <trkpt lat="42.26262" lon="1.79343">
        <ele>1121.82</ele>
        <time>2021-07-31T14:54:35Z</time>
      </trkpt>
      <trkpt lat="42.26259" lon="1.79339">
        <ele>1124.99</ele>
        <time>2021-07-31T14:54:42Z</time>
      </trkpt>
      <trkpt lat="42.26251" lon="1.79325">
        <ele>1126.04</ele>
        <time>2021-07-31T14:54:51Z</time>
      </trkpt>
      <trkpt lat="42.26245" lon="1.79287">
        <ele>1126.3</ele>
        <time>2021-07-31T14:54:56Z</time>
      </trkpt>
      <trkpt lat="42.26264" lon="1.79202">
        <ele>1128.08</ele>
        <time>2021-07-31T14:55:04Z</time>
      </trkpt>
      <trkpt lat="42.26271" lon="1.79144">
        <ele>1131.74</ele>
        <time>2021-07-31T14:55:10Z</time>
      </trkpt>
      <trkpt lat="42.26271" lon="1.79134">
        <ele>1132.62</ele>
        <time>2021-07-31T14:55:11Z</time>
      </trkpt>
      <trkpt lat="42.26247" lon="1.79068">
        <ele>1136.6</ele>
        <time>2021-07-31T14:55:17Z</time>
      </trkpt>
      <trkpt lat="42.26236" lon="1.79045">
        <ele>1137.01</ele>
        <time>2021-07-31T14:55:19Z</time>
      </trkpt>
      <trkpt lat="42.26228" lon="1.79008">
        <ele>1137.08</ele>
        <time>2021-07-31T14:55:22Z</time>
      </trkpt>
      <trkpt lat="42.2621" lon="1.78959">
        <ele>1136.32</ele>
        <time>2021-07-31T14:55:29Z</time>
      </trkpt>
      <trkpt lat="42.26214" lon="1.78929">
        <ele>1136.17</ele>
        <time>2021-07-31T14:55:35Z</time>
      </trkpt>
      <trkpt lat="42.26243" lon="1.78921">
        <ele>1136.12</ele>
        <time>2021-07-31T14:55:39Z</time>
      </trkpt>
      <trkpt lat="42.26289" lon="1.78872">
        <ele>1136.39</ele>
        <time>2021-07-31T14:55:48Z</time>
      </trkpt>
      <trkpt lat="42.26277" lon="1.78847">
        <ele>1136.17</ele>
        <time>2021-07-31T14:55:51Z</time>
      </trkpt>
      <trkpt lat="42.26246" lon="1.78803">
        <ele>1134.53</ele>
        <time>2021-07-31T14:55:58Z</time>
      </trkpt>
      <trkpt lat="42.26247" lon="1.78784">
        <ele>1133.1</ele>
        <time>2021-07-31T14:56:02Z</time>
      </trkpt>
      <trkpt lat="42.26273" lon="1.7875">
        <ele>1132.65</ele>
        <time>2021-07-31T14:56:06Z</time>
      </trkpt>
      <trkpt lat="42.26307" lon="1.7873">
        <ele>1132.81</ele>
        <time>2021-07-31T14:56:10Z</time>
      </trkpt>
      <trkpt lat="42.26343" lon="1.78685">
        <ele>1134.01</ele>
        <time>2021-07-31T14:56:16Z</time>
      </trkpt>
      <trkpt lat="42.26367" lon="1.78652">
        <ele>1136.04</ele>
        <time>2021-07-31T14:56:21Z</time>
      </trkpt>
      <trkpt lat="42.26377" lon="1.78582">
        <ele>1139.34</ele>
        <time>2021-07-31T14:56:29Z</time>
      </trkpt>
      <trkpt lat="42.26372" lon="1.78568">
        <ele>1139.35</ele>
        <time>2021-07-31T14:56:31Z</time>
      </trkpt>
      <trkpt lat="42.26361" lon="1.78504">
        <ele>1139.06</ele>
        <time>2021-07-31T14:56:36Z</time>
      </trkpt>
      <trkpt lat="42.26355" lon="1.78442">
        <ele>1139.5</ele>
        <time>2021-07-31T14:56:41Z</time>
      </trkpt>
      <trkpt lat="42.26364" lon="1.78394">
        <ele>1142.2</ele>
        <time>2021-07-31T14:56:48Z</time>
      </trkpt>
      <trkpt lat="42.26381" lon="1.78399">
        <ele>1143.38</ele>
        <time>2021-07-31T14:56:50Z</time>
      </trkpt>
      <trkpt lat="42.26422" lon="1.78412">
        <ele>1146.37</ele>
        <time>2021-07-31T14:56:55Z</time>
      </trkpt>
      <trkpt lat="42.26451" lon="1.7839">
        <ele>1150.76</ele>
        <time>2021-07-31T14:57:01Z</time>
      </trkpt>
      <trkpt lat="42.26449" lon="1.78341">
        <ele>1154.41</ele>
        <time>2021-07-31T14:57:06Z</time>
      </trkpt>
      <trkpt lat="42.26443" lon="1.78303">
        <ele>1158.97</ele>
        <time>2021-07-31T14:57:12Z</time>
      </trkpt>
      <trkpt lat="42.26457" lon="1.78285">
        <ele>1162.04</ele>
        <time>2021-07-31T14:57:16Z</time>
      </trkpt>
      <trkpt lat="42.26471" lon="1.78259">
        <ele>1164.01</ele>
        <time>2021-07-31T14:57:19Z</time>
      </trkpt>
      <trkpt lat="42.26505" lon="1.7826">
        <ele>1168.26</ele>
        <time>2021-07-31T14:57:24Z</time>
      </trkpt>
      <trkpt lat="42.26513" lon="1.78267">
        <ele>1169.09</ele>
        <time>2021-07-31T14:57:25Z</time>
      </trkpt>
      <trkpt lat="42.26533" lon="1.78283">
        <ele>1170.99</ele>
        <time>2021-07-31T14:57:28Z</time>
      </trkpt>
      <trkpt lat="42.26547" lon="1.78287">
        <ele>1171.68</ele>
        <time>2021-07-31T14:57:30Z</time>
      </trkpt>
      <trkpt lat="42.26562" lon="1.78256">
        <ele>1171.98</ele>
        <time>2021-07-31T14:57:35Z</time>
      </trkpt>
      <trkpt lat="42.26554" lon="1.78199">
        <ele>1172.01</ele>
        <time>2021-07-31T14:57:40Z</time>
      </trkpt>
      <trkpt lat="42.26533" lon="1.78145">
        <ele>1173.39</ele>
        <time>2021-07-31T14:57:46Z</time>
      </trkpt>
      <trkpt lat="42.26541" lon="1.78115">
        <ele>1173.89</ele>
        <time>2021-07-31T14:57:51Z</time>
      </trkpt>
      <trkpt lat="42.26563" lon="1.781">
        <ele>1174.13</ele>
        <time>2021-07-31T14:57:54Z</time>
      </trkpt>
      <trkpt lat="42.26582" lon="1.7809">
        <ele>1174.81</ele>
        <time>2021-07-31T14:57:57Z</time>
      </trkpt>
      <trkpt lat="42.266" lon="1.78051">
        <ele>1178.55</ele>
        <time>2021-07-31T14:58:03Z</time>
      </trkpt>
      <trkpt lat="42.266" lon="1.78029">
        <ele>1180.02</ele>
        <time>2021-07-31T14:58:05Z</time>
      </trkpt>
      <trkpt lat="42.26595" lon="1.77985">
        <ele>1184.15</ele>
        <time>2021-07-31T14:58:10Z</time>
      </trkpt>
      <trkpt lat="42.26586" lon="1.77939">
        <ele>1187.28</ele>
        <time>2021-07-31T14:58:14Z</time>
      </trkpt>
      <trkpt lat="42.26578" lon="1.77914">
        <ele>1189.67</ele>
        <time>2021-07-31T14:58:17Z</time>
      </trkpt>
      <trkpt lat="42.26556" lon="1.77878">
        <ele>1193.67</ele>
        <time>2021-07-31T14:58:22Z</time>
      </trkpt>
      <trkpt lat="42.26551" lon="1.77871">
        <ele>1194.64</ele>
        <time>2021-07-31T14:58:23Z</time>
      </trkpt>
      <trkpt lat="42.26539" lon="1.77847">
        <ele>1196.97</ele>
        <time>2021-07-31T14:58:26Z</time>
      </trkpt>
      <trkpt lat="42.26545" lon="1.77794">
        <ele>1200.58</ele>
        <time>2021-07-31T14:58:31Z</time>
      </trkpt>
      <trkpt lat="42.26554" lon="1.77737">
        <ele>1205.8</ele>
        <time>2021-07-31T14:58:37Z</time>
      </trkpt>
      <trkpt lat="42.26552" lon="1.77688">
        <ele>1209.4</ele>
        <time>2021-07-31T14:58:41Z</time>
      </trkpt>
      <trkpt lat="42.26549" lon="1.77669">
        <ele>1211.33</ele>
        <time>2021-07-31T14:58:43Z</time>
      </trkpt>
      <trkpt lat="42.26525" lon="1.77646">
        <ele>1215.44</ele>
        <time>2021-07-31T14:58:48Z</time>
      </trkpt>
      <trkpt lat="42.26517" lon="1.77644">
        <ele>1215.83</ele>
        <time>2021-07-31T14:58:49Z</time>
      </trkpt>
      <trkpt lat="42.26505" lon="1.77638">
        <ele>1216.19</ele>
        <time>2021-07-31T14:58:51Z</time>
      </trkpt>
      <trkpt lat="42.26471" lon="1.77583">
        <ele>1215.82</ele>
        <time>2021-07-31T14:58:58Z</time>
      </trkpt>
      <trkpt lat="42.26469" lon="1.7754">
        <ele>1214.57</ele>
        <time>2021-07-31T14:59:03Z</time>
      </trkpt>
      <trkpt lat="42.26476" lon="1.77523">
        <ele>1214.43</ele>
        <time>2021-07-31T14:59:05Z</time>
      </trkpt>
      <trkpt lat="42.26485" lon="1.77479">
        <ele>1217.72</ele>
        <time>2021-07-31T14:59:12Z</time>
      </trkpt>
      <trkpt lat="42.26486" lon="1.77468">
        <ele>1219.28</ele>
        <time>2021-07-31T14:59:14Z</time>
      </trkpt>
      <trkpt lat="42.26501" lon="1.77429">
        <ele>1223.86</ele>
        <time>2021-07-31T14:59:20Z</time>
      </trkpt>
      <trkpt lat="42.26509" lon="1.77399">
        <ele>1227.51</ele>
        <time>2021-07-31T14:59:24Z</time>
      </trkpt>
      <trkpt lat="42.26503" lon="1.77371">
        <ele>1230</ele>
        <time>2021-07-31T14:59:27Z</time>
      </trkpt>
      <trkpt lat="42.26499" lon="1.77306">
        <ele>1235.18</ele>
        <time>2021-07-31T14:59:34Z</time>
      </trkpt>
      <trkpt lat="42.26502" lon="1.77294">
        <ele>1236.37</ele>
        <time>2021-07-31T14:59:36Z</time>
      </trkpt>
      <trkpt lat="42.26501" lon="1.77238">
        <ele>1240.5</ele>
        <time>2021-07-31T14:59:42Z</time>
      </trkpt>
      <trkpt lat="42.26496" lon="1.77197">
        <ele>1243.81</ele>
        <time>2021-07-31T14:59:46Z</time>
      </trkpt>
      <trkpt lat="42.26491" lon="1.77148">
        <ele>1246.83</ele>
        <time>2021-07-31T14:59:50Z</time>
      </trkpt>
      <trkpt lat="42.26487" lon="1.7711">
        <ele>1249.12</ele>
        <time>2021-07-31T14:59:54Z</time>
      </trkpt>
      <trkpt lat="42.26494" lon="1.77062">
        <ele>1252.56</ele>
        <time>2021-07-31T15:00:02Z</time>
      </trkpt>
      <trkpt lat="42.26489" lon="1.77061">
        <ele>1253.13</ele>
        <time>2021-07-31T15:00:03Z</time>
      </trkpt>
      <trkpt lat="42.26485" lon="1.77064">
        <ele>1253.71</ele>
        <time>2021-07-31T15:00:04Z</time>
      </trkpt>
      <trkpt lat="42.26482" lon="1.77068">
        <ele>1254.23</ele>
        <time>2021-07-31T15:00:05Z</time>
      </trkpt>
      <trkpt lat="42.26471" lon="1.7708">
        <ele>1255.93</ele>
        <time>2021-07-31T15:00:08Z</time>
      </trkpt>
      <trkpt lat="42.26461" lon="1.77088">
        <ele>1257.14</ele>
        <time>2021-07-31T15:00:10Z</time>
      </trkpt>
      <trkpt lat="42.26455" lon="1.77125">
        <ele>1259.2</ele>
        <time>2021-07-31T15:00:14Z</time>
      </trkpt>
      <trkpt lat="42.26456" lon="1.77183">
        <ele>1262.74</ele>
        <time>2021-07-31T15:00:20Z</time>
      </trkpt>
      <trkpt lat="42.26457" lon="1.77203">
        <ele>1264.07</ele>
        <time>2021-07-31T15:00:22Z</time>
      </trkpt>
      <trkpt lat="42.26456" lon="1.77235">
        <ele>1265.8</ele>
        <time>2021-07-31T15:00:25Z</time>
      </trkpt>
      <trkpt lat="42.26418" lon="1.77297">
        <ele>1269.83</ele>
        <time>2021-07-31T15:00:33Z</time>
      </trkpt>
      <trkpt lat="42.26398" lon="1.77342">
        <ele>1272.38</ele>
        <time>2021-07-31T15:00:39Z</time>
      </trkpt>
      <trkpt lat="42.26387" lon="1.77386">
        <ele>1274.74</ele>
        <time>2021-07-31T15:00:44Z</time>
      </trkpt>
      <trkpt lat="42.2636" lon="1.77436">
        <ele>1278.23</ele>
        <time>2021-07-31T15:00:50Z</time>
      </trkpt>
      <trkpt lat="42.26329" lon="1.7746">
        <ele>1280.79</ele>
        <time>2021-07-31T15:00:55Z</time>
      </trkpt>
      <trkpt lat="42.26314" lon="1.77486">
        <ele>1282.37</ele>
        <time>2021-07-31T15:00:58Z</time>
      </trkpt>
      <trkpt lat="42.26296" lon="1.77507">
        <ele>1284.22</ele>
        <time>2021-07-31T15:01:01Z</time>
      </trkpt>
      <trkpt lat="42.26262" lon="1.77551">
        <ele>1287.89</ele>
        <time>2021-07-31T15:01:08Z</time>
      </trkpt>
      <trkpt lat="42.2626" lon="1.77594">
        <ele>1290.3</ele>
        <time>2021-07-31T15:01:14Z</time>
      </trkpt>
      <trkpt lat="42.26263" lon="1.77602">
        <ele>1290.6</ele>
        <time>2021-07-31T15:01:15Z</time>
      </trkpt>
      <trkpt lat="42.26274" lon="1.77633">
        <ele>1292.11</ele>
        <time>2021-07-31T15:01:19Z</time>
      </trkpt>
      <trkpt lat="42.26277" lon="1.77677">
        <ele>1293.91</ele>
        <time>2021-07-31T15:01:23Z</time>
      </trkpt>
      <trkpt lat="42.26276" lon="1.7771">
        <ele>1295.44</ele>
        <time>2021-07-31T15:01:26Z</time>
      </trkpt>
      <trkpt lat="42.26241" lon="1.77748">
        <ele>1299.29</ele>
        <time>2021-07-31T15:01:34Z</time>
      </trkpt>
      <trkpt lat="42.26187" lon="1.77762">
        <ele>1302.62</ele>
        <time>2021-07-31T15:01:40Z</time>
      </trkpt>
      <trkpt lat="42.26148" lon="1.77781">
        <ele>1304.85</ele>
        <time>2021-07-31T15:01:44Z</time>
      </trkpt>
      <trkpt lat="42.26131" lon="1.77791">
        <ele>1306.13</ele>
        <time>2021-07-31T15:01:46Z</time>
      </trkpt>
      <trkpt lat="42.26111" lon="1.77864">
        <ele>1309.99</ele>
        <time>2021-07-31T15:01:52Z</time>
      </trkpt>
      <trkpt lat="42.26113" lon="1.77892">
        <ele>1311.52</ele>
        <time>2021-07-31T15:01:54Z</time>
      </trkpt>
      <trkpt lat="42.26085" lon="1.77947">
        <ele>1315.87</ele>
        <time>2021-07-31T15:02:00Z</time>
      </trkpt>
      <trkpt lat="42.26076" lon="1.77952">
        <ele>1316.57</ele>
        <time>2021-07-31T15:02:01Z</time>
      </trkpt>
      <trkpt lat="42.26048" lon="1.78025">
        <ele>1320.2</ele>
        <time>2021-07-31T15:02:08Z</time>
      </trkpt>
      <trkpt lat="42.25995" lon="1.7818">
        <ele>1322.42</ele>
        <time>2021-07-31T15:02:18Z</time>
      </trkpt>
      <trkpt lat="42.25981" lon="1.78212">
        <ele>1322.54</ele>
        <time>2021-07-31T15:02:21Z</time>
      </trkpt>
      <trkpt lat="42.25975" lon="1.78217">
        <ele>1322.55</ele>
        <time>2021-07-31T15:02:22Z</time>
      </trkpt>
      <trkpt lat="42.2597" lon="1.7822">
        <ele>1322.56</ele>
        <time>2021-07-31T15:02:23Z</time>
      </trkpt>
      <trkpt lat="42.25969" lon="1.78215">
        <ele>1322.56</ele>
        <time>2021-07-31T15:02:24Z</time>
      </trkpt>
      <trkpt lat="42.2598" lon="1.78183">
        <ele>1322.89</ele>
        <time>2021-07-31T15:02:27Z</time>
      </trkpt>
      <trkpt lat="42.25983" lon="1.7817">
        <ele>1323.31</ele>
        <time>2021-07-31T15:02:28Z</time>
      </trkpt>
      <trkpt lat="42.2601" lon="1.78095">
        <ele>1326.91</ele>
        <time>2021-07-31T15:02:34Z</time>
      </trkpt>
      <trkpt lat="42.26023" lon="1.7804">
        <ele>1329.87</ele>
        <time>2021-07-31T15:02:38Z</time>
      </trkpt>
      <trkpt lat="42.26033" lon="1.77973">
        <ele>1333.73</ele>
        <time>2021-07-31T15:02:43Z</time>
      </trkpt>
      <trkpt lat="42.26034" lon="1.77947">
        <ele>1335.58</ele>
        <time>2021-07-31T15:02:45Z</time>
      </trkpt>
      <trkpt lat="42.26061" lon="1.77911">
        <ele>1339.64</ele>
        <time>2021-07-31T15:02:50Z</time>
      </trkpt>
      <trkpt lat="42.26071" lon="1.77866">
        <ele>1343.14</ele>
        <time>2021-07-31T15:02:55Z</time>
      </trkpt>
      <trkpt lat="42.26072" lon="1.77791">
        <ele>1347.28</ele>
        <time>2021-07-31T15:03:01Z</time>
      </trkpt>
      <trkpt lat="42.26074" lon="1.77777">
        <ele>1348.07</ele>
        <time>2021-07-31T15:03:02Z</time>
      </trkpt>
      <trkpt lat="42.26082" lon="1.7775">
        <ele>1349.58</ele>
        <time>2021-07-31T15:03:04Z</time>
      </trkpt>
      <trkpt lat="42.26124" lon="1.77689">
        <ele>1353.85</ele>
        <time>2021-07-31T15:03:10Z</time>
      </trkpt>
      <trkpt lat="42.26129" lon="1.77681">
        <ele>1354.5</ele>
        <time>2021-07-31T15:03:11Z</time>
      </trkpt>
      <trkpt lat="42.26147" lon="1.77652">
        <ele>1356.81</ele>
        <time>2021-07-31T15:03:15Z</time>
      </trkpt>
      <trkpt lat="42.26147" lon="1.77605">
        <ele>1358.57</ele>
        <time>2021-07-31T15:03:19Z</time>
      </trkpt>
      <trkpt lat="42.26132" lon="1.77528">
        <ele>1361.79</ele>
        <time>2021-07-31T15:03:25Z</time>
      </trkpt>
      <trkpt lat="42.26147" lon="1.77498">
        <ele>1363.95</ele>
        <time>2021-07-31T15:03:29Z</time>
      </trkpt>
      <trkpt lat="42.26161" lon="1.77483">
        <ele>1365.13</ele>
        <time>2021-07-31T15:03:31Z</time>
      </trkpt>
      <trkpt lat="42.26195" lon="1.7743">
        <ele>1368.83</ele>
        <time>2021-07-31T15:03:36Z</time>
      </trkpt>
      <trkpt lat="42.26201" lon="1.7742">
        <ele>1369.31</ele>
        <time>2021-07-31T15:03:37Z</time>
      </trkpt>
      <trkpt lat="42.26216" lon="1.77376">
        <ele>1371.36</ele>
        <time>2021-07-31T15:03:41Z</time>
      </trkpt>
      <trkpt lat="42.26224" lon="1.77353">
        <ele>1372.43</ele>
        <time>2021-07-31T15:03:43Z</time>
      </trkpt>
      <trkpt lat="42.26235" lon="1.77266">
        <ele>1376.35</ele>
        <time>2021-07-31T15:03:50Z</time>
      </trkpt>
      <trkpt lat="42.26233" lon="1.77225">
        <ele>1378.29</ele>
        <time>2021-07-31T15:03:53Z</time>
      </trkpt>
      <trkpt lat="42.2621" lon="1.77163">
        <ele>1381.27</ele>
        <time>2021-07-31T15:03:58Z</time>
      </trkpt>
      <trkpt lat="42.26194" lon="1.77127">
        <ele>1383.08</ele>
        <time>2021-07-31T15:04:01Z</time>
      </trkpt>
      <trkpt lat="42.262" lon="1.77056">
        <ele>1387.72</ele>
        <time>2021-07-31T15:04:07Z</time>
      </trkpt>
      <trkpt lat="42.26205" lon="1.76992">
        <ele>1391.27</ele>
        <time>2021-07-31T15:04:12Z</time>
      </trkpt>
      <trkpt lat="42.26191" lon="1.7692">
        <ele>1394.66</ele>
        <time>2021-07-31T15:04:17Z</time>
      </trkpt>
      <trkpt lat="42.26174" lon="1.76819">
        <ele>1397.81</ele>
        <time>2021-07-31T15:04:24Z</time>
      </trkpt>
      <trkpt lat="42.26158" lon="1.76756">
        <ele>1400.46</ele>
        <time>2021-07-31T15:04:29Z</time>
      </trkpt>
      <trkpt lat="42.26121" lon="1.76687">
        <ele>1404.45</ele>
        <time>2021-07-31T15:04:35Z</time>
      </trkpt>
      <trkpt lat="42.26102" lon="1.76662">
        <ele>1406.41</ele>
        <time>2021-07-31T15:04:38Z</time>
      </trkpt>
      <trkpt lat="42.26067" lon="1.7664">
        <ele>1409.09</ele>
        <time>2021-07-31T15:04:43Z</time>
      </trkpt>
      <trkpt lat="42.26057" lon="1.76626">
        <ele>1410.43</ele>
        <time>2021-07-31T15:04:46Z</time>
      </trkpt>
      <trkpt lat="42.26028" lon="1.76604">
        <ele>1413.65</ele>
        <time>2021-07-31T15:04:57Z</time>
      </trkpt>
      <trkpt lat="42.2603" lon="1.76605">
        <ele>1415.74</ele>
        <time>2021-07-31T15:05:08Z</time>
      </trkpt>
      <trkpt lat="42.26025" lon="1.76594">
        <ele>1415.82</ele>
        <time>2021-07-31T15:05:20Z</time>
      </trkpt>
      <trkpt lat="42.26043" lon="1.76571">
        <ele>1416.17</ele>
        <time>2021-07-31T15:05:24Z</time>
      </trkpt>
      <trkpt lat="42.26082" lon="1.76508">
        <ele>1417.78</ele>
        <time>2021-07-31T15:05:30Z</time>
      </trkpt>
      <trkpt lat="42.26108" lon="1.76476">
        <ele>1419.94</ele>
        <time>2021-07-31T15:05:34Z</time>
      </trkpt>
      <trkpt lat="42.26133" lon="1.76423">
        <ele>1424.16</ele>
        <time>2021-07-31T15:05:39Z</time>
      </trkpt>
      <trkpt lat="42.26141" lon="1.76403">
        <ele>1425.97</ele>
        <time>2021-07-31T15:05:41Z</time>
      </trkpt>
      <trkpt lat="42.26162" lon="1.76367">
        <ele>1429.97</ele>
        <time>2021-07-31T15:05:45Z</time>
      </trkpt>
      <trkpt lat="42.26183" lon="1.76308">
        <ele>1434.79</ele>
        <time>2021-07-31T15:05:50Z</time>
      </trkpt>
      <trkpt lat="42.26206" lon="1.76245">
        <ele>1437.95</ele>
        <time>2021-07-31T15:05:55Z</time>
      </trkpt>
      <trkpt lat="42.26225" lon="1.76213">
        <ele>1439.69</ele>
        <time>2021-07-31T15:05:58Z</time>
      </trkpt>
      <trkpt lat="42.2626" lon="1.76164">
        <ele>1443.4</ele>
        <time>2021-07-31T15:06:04Z</time>
      </trkpt>
      <trkpt lat="42.26291" lon="1.76115">
        <ele>1446.56</ele>
        <time>2021-07-31T15:06:09Z</time>
      </trkpt>
      <trkpt lat="42.26305" lon="1.76097">
        <ele>1448.25</ele>
        <time>2021-07-31T15:06:11Z</time>
      </trkpt>
      <trkpt lat="42.26345" lon="1.76063">
        <ele>1452.96</ele>
        <time>2021-07-31T15:06:17Z</time>
      </trkpt>
      <trkpt lat="42.26365" lon="1.76024">
        <ele>1456.89</ele>
        <time>2021-07-31T15:06:22Z</time>
      </trkpt>
      <trkpt lat="42.26384" lon="1.75986">
        <ele>1460</ele>
        <time>2021-07-31T15:06:26Z</time>
      </trkpt>
      <trkpt lat="42.26402" lon="1.75946">
        <ele>1463.22</ele>
        <time>2021-07-31T15:06:30Z</time>
      </trkpt>
      <trkpt lat="42.26413" lon="1.75918">
        <ele>1465.59</ele>
        <time>2021-07-31T15:06:33Z</time>
      </trkpt>
      <trkpt lat="42.26421" lon="1.75865">
        <ele>1469.78</ele>
        <time>2021-07-31T15:06:38Z</time>
      </trkpt>
      <trkpt lat="42.26425" lon="1.75843">
        <ele>1471.69</ele>
        <time>2021-07-31T15:06:40Z</time>
      </trkpt>
      <trkpt lat="42.26442" lon="1.75807">
        <ele>1475.96</ele>
        <time>2021-07-31T15:06:44Z</time>
      </trkpt>
      <trkpt lat="42.26459" lon="1.75783">
        <ele>1479.06</ele>
        <time>2021-07-31T15:06:47Z</time>
      </trkpt>
      <trkpt lat="42.26471" lon="1.75739">
        <ele>1483.73</ele>
        <time>2021-07-31T15:06:51Z</time>
      </trkpt>
      <trkpt lat="42.26472" lon="1.75726">
        <ele>1484.75</ele>
        <time>2021-07-31T15:06:52Z</time>
      </trkpt>
      <trkpt lat="42.26461" lon="1.75643">
        <ele>1489.93</ele>
        <time>2021-07-31T15:06:58Z</time>
      </trkpt>
      <trkpt lat="42.26456" lon="1.7562">
        <ele>1492.34</ele>
        <time>2021-07-31T15:07:01Z</time>
      </trkpt>
      <trkpt lat="42.26458" lon="1.756">
        <ele>1494.73</ele>
        <time>2021-07-31T15:07:04Z</time>
      </trkpt>
      <trkpt lat="42.26464" lon="1.75557">
        <ele>1498.98</ele>
        <time>2021-07-31T15:07:09Z</time>
      </trkpt>
      <trkpt lat="42.26449" lon="1.75516">
        <ele>1503.79</ele>
        <time>2021-07-31T15:07:14Z</time>
      </trkpt>
      <trkpt lat="42.26438" lon="1.7546">
        <ele>1509.58</ele>
        <time>2021-07-31T15:07:20Z</time>
      </trkpt>
      <trkpt lat="42.26442" lon="1.7545">
        <ele>1511.46</ele>
        <time>2021-07-31T15:07:22Z</time>
      </trkpt>
      <trkpt lat="42.26444" lon="1.75435">
        <ele>1515.44</ele>
        <time>2021-07-31T15:07:26Z</time>
      </trkpt>
      <trkpt lat="42.26444" lon="1.75429">
        <ele>1516.13</ele>
        <time>2021-07-31T15:07:27Z</time>
      </trkpt>
      <trkpt lat="42.26476" lon="1.75396">
        <ele>1519.78</ele>
        <time>2021-07-31T15:07:33Z</time>
      </trkpt>
      <trkpt lat="42.26501" lon="1.7541">
        <ele>1522.55</ele>
        <time>2021-07-31T15:07:38Z</time>
      </trkpt>
      <trkpt lat="42.26533" lon="1.75434">
        <ele>1525.93</ele>
        <time>2021-07-31T15:07:46Z</time>
      </trkpt>
      <trkpt lat="42.26538" lon="1.75429">
        <ele>1526.19</ele>
        <time>2021-07-31T15:08:05Z</time>
      </trkpt>
      <trkpt lat="42.26557" lon="1.75378">
        <ele>1526.18</ele>
        <time>2021-07-31T15:08:12Z</time>
      </trkpt>
      <trkpt lat="42.26572" lon="1.7527">
        <ele>1524.34</ele>
        <time>2021-07-31T15:08:21Z</time>
      </trkpt>
      <trkpt lat="42.26577" lon="1.75218">
        <ele>1522.75</ele>
        <time>2021-07-31T15:08:26Z</time>
      </trkpt>
      <trkpt lat="42.26575" lon="1.75117">
        <ele>1518.78</ele>
        <time>2021-07-31T15:08:34Z</time>
      </trkpt>
      <trkpt lat="42.26572" lon="1.75085">
        <ele>1516.85</ele>
        <time>2021-07-31T15:08:37Z</time>
      </trkpt>
      <trkpt lat="42.26554" lon="1.75011">
        <ele>1512.94</ele>
        <time>2021-07-31T15:08:43Z</time>
      </trkpt>
      <trkpt lat="42.26544" lon="1.74943">
        <ele>1510.93</ele>
        <time>2021-07-31T15:08:47Z</time>
      </trkpt>
      <trkpt lat="42.26557" lon="1.74765">
        <ele>1508.09</ele>
        <time>2021-07-31T15:08:56Z</time>
      </trkpt>
      <trkpt lat="42.26557" lon="1.74748">
        <ele>1508</ele>
        <time>2021-07-31T15:08:57Z</time>
      </trkpt>
      <trkpt lat="42.26534" lon="1.74588">
        <ele>1508.92</ele>
        <time>2021-07-31T15:09:05Z</time>
      </trkpt>
      <trkpt lat="42.26508" lon="1.74474">
        <ele>1512.15</ele>
        <time>2021-07-31T15:09:13Z</time>
      </trkpt>
      <trkpt lat="42.26505" lon="1.74463">
        <ele>1512.73</ele>
        <time>2021-07-31T15:09:14Z</time>
      </trkpt>
      <trkpt lat="42.26492" lon="1.74434">
        <ele>1514.82</ele>
        <time>2021-07-31T15:09:17Z</time>
      </trkpt>
      <trkpt lat="42.26459" lon="1.74388">
        <ele>1518.85</ele>
        <time>2021-07-31T15:09:22Z</time>
      </trkpt>
      <trkpt lat="42.26431" lon="1.74344">
        <ele>1522.18</ele>
        <time>2021-07-31T15:09:26Z</time>
      </trkpt>
      <trkpt lat="42.26426" lon="1.7429">
        <ele>1526.86</ele>
        <time>2021-07-31T15:09:31Z</time>
      </trkpt>
      <trkpt lat="42.26425" lon="1.74278">
        <ele>1527.76</ele>
        <time>2021-07-31T15:09:32Z</time>
      </trkpt>
      <trkpt lat="42.26425" lon="1.74251">
        <ele>1529.7</ele>
        <time>2021-07-31T15:09:34Z</time>
      </trkpt>
      <trkpt lat="42.26438" lon="1.74184">
        <ele>1534.36</ele>
        <time>2021-07-31T15:09:39Z</time>
      </trkpt>
      <trkpt lat="42.26441" lon="1.7417">
        <ele>1535.43</ele>
        <time>2021-07-31T15:09:40Z</time>
      </trkpt>
      <trkpt lat="42.26453" lon="1.74138">
        <ele>1538.42</ele>
        <time>2021-07-31T15:09:43Z</time>
      </trkpt>
      <trkpt lat="42.26485" lon="1.74125">
        <ele>1542.55</ele>
        <time>2021-07-31T15:09:48Z</time>
      </trkpt>
      <trkpt lat="42.26523" lon="1.74153">
        <ele>1545.74</ele>
        <time>2021-07-31T15:09:52Z</time>
      </trkpt>
      <trkpt lat="42.26539" lon="1.74173">
        <ele>1547.56</ele>
        <time>2021-07-31T15:09:54Z</time>
      </trkpt>
      <trkpt lat="42.26573" lon="1.74218">
        <ele>1552.18</ele>
        <time>2021-07-31T15:09:59Z</time>
      </trkpt>
      <trkpt lat="42.26585" lon="1.7423">
        <ele>1554.09</ele>
        <time>2021-07-31T15:10:01Z</time>
      </trkpt>
      <trkpt lat="42.26617" lon="1.74245">
        <ele>1557.32</ele>
        <time>2021-07-31T15:10:05Z</time>
      </trkpt>
      <trkpt lat="42.26651" lon="1.74286">
        <ele>1561.38</ele>
        <time>2021-07-31T15:10:10Z</time>
      </trkpt>
      <trkpt lat="42.26655" lon="1.74297">
        <ele>1562.16</ele>
        <time>2021-07-31T15:10:11Z</time>
      </trkpt>
      <trkpt lat="42.26663" lon="1.74318">
        <ele>1564</ele>
        <time>2021-07-31T15:10:13Z</time>
      </trkpt>
      <trkpt lat="42.26693" lon="1.74343">
        <ele>1568.57</ele>
        <time>2021-07-31T15:10:18Z</time>
      </trkpt>
      <trkpt lat="42.26705" lon="1.74346">
        <ele>1570.52</ele>
        <time>2021-07-31T15:10:20Z</time>
      </trkpt>
      <trkpt lat="42.26721" lon="1.74368">
        <ele>1573.35</ele>
        <time>2021-07-31T15:10:24Z</time>
      </trkpt>
      <trkpt lat="42.26754" lon="1.74398">
        <ele>1577.41</ele>
        <time>2021-07-31T15:10:30Z</time>
      </trkpt>
      <trkpt lat="42.26779" lon="1.74403">
        <ele>1580.51</ele>
        <time>2021-07-31T15:10:35Z</time>
      </trkpt>
      <trkpt lat="42.26768" lon="1.74385">
        <ele>1581.99</ele>
        <time>2021-07-31T15:10:38Z</time>
      </trkpt>
      <trkpt lat="42.26756" lon="1.74367">
        <ele>1583.38</ele>
        <time>2021-07-31T15:10:40Z</time>
      </trkpt>
      <trkpt lat="42.26728" lon="1.74303">
        <ele>1586.83</ele>
        <time>2021-07-31T15:10:45Z</time>
      </trkpt>
      <trkpt lat="42.26721" lon="1.74292">
        <ele>1587.62</ele>
        <time>2021-07-31T15:10:46Z</time>
      </trkpt>
      <trkpt lat="42.26707" lon="1.74267">
        <ele>1589.1</ele>
        <time>2021-07-31T15:10:48Z</time>
      </trkpt>
      <trkpt lat="42.26684" lon="1.74188">
        <ele>1593.08</ele>
        <time>2021-07-31T15:10:53Z</time>
      </trkpt>
      <trkpt lat="42.26677" lon="1.74151">
        <ele>1594.74</ele>
        <time>2021-07-31T15:10:55Z</time>
      </trkpt>
      <trkpt lat="42.26642" lon="1.74076">
        <ele>1599.45</ele>
        <time>2021-07-31T15:11:00Z</time>
      </trkpt>
      <trkpt lat="42.26616" lon="1.74012">
        <ele>1603.05</ele>
        <time>2021-07-31T15:11:04Z</time>
      </trkpt>
      <trkpt lat="42.26614" lon="1.73945">
        <ele>1607</ele>
        <time>2021-07-31T15:11:08Z</time>
      </trkpt>
      <trkpt lat="42.2663" lon="1.73871">
        <ele>1611.19</ele>
        <time>2021-07-31T15:11:12Z</time>
      </trkpt>
      <trkpt lat="42.26643" lon="1.73808">
        <ele>1614.47</ele>
        <time>2021-07-31T15:11:15Z</time>
      </trkpt>
      <trkpt lat="42.26658" lon="1.73751">
        <ele>1617.87</ele>
        <time>2021-07-31T15:11:18Z</time>
      </trkpt>
      <trkpt lat="42.26669" lon="1.73722">
        <ele>1621.38</ele>
        <time>2021-07-31T15:11:21Z</time>
      </trkpt>
      <trkpt lat="42.2667" lon="1.73714">
        <ele>1624.45</ele>
        <time>2021-07-31T15:11:25Z</time>
      </trkpt>
      <trkpt lat="42.26671" lon="1.73715">
        <ele>1627.55</ele>
        <time>2021-07-31T15:11:33Z</time>
      </trkpt>
      <trkpt lat="42.26673" lon="1.73713">
        <ele>1628.73</ele>
        <time>2021-07-31T15:11:47Z</time>
      </trkpt>
      <trkpt lat="42.26673" lon="1.73714">
        <ele>1629.36</ele>
        <time>2021-07-31T15:13:38Z</time>
      </trkpt>
      <trkpt lat="42.26672" lon="1.73714">
        <ele>1629.36</ele>
        <time>2021-07-31T15:15:28Z</time>
      </trkpt>
      <trkpt lat="42.26671" lon="1.73717">
        <ele>1629.36</ele>
        <time>2021-07-31T15:15:57Z</time>
      </trkpt>
      <trkpt lat="42.26672" lon="1.73718">
        <ele>1629.36</ele>
        <time>2021-07-31T15:15:58Z</time>
      </trkpt>
      <trkpt lat="42.26703" lon="1.73719">
        <ele>1630.98</ele>
        <time>2021-07-31T15:16:10Z</time>
      </trkpt>
      <trkpt lat="42.26736" lon="1.73734">
        <ele>1632.58</ele>
        <time>2021-07-31T15:16:18Z</time>
      </trkpt>
      <trkpt lat="42.26774" lon="1.73743">
        <ele>1634.19</ele>
        <time>2021-07-31T15:16:23Z</time>
      </trkpt>
      <trkpt lat="42.26838" lon="1.73753">
        <ele>1637.88</ele>
        <time>2021-07-31T15:16:30Z</time>
      </trkpt>
      <trkpt lat="42.26868" lon="1.73764">
        <ele>1640.1</ele>
        <time>2021-07-31T15:16:33Z</time>
      </trkpt>
      <trkpt lat="42.26894" lon="1.73742">
        <ele>1644.2</ele>
        <time>2021-07-31T15:16:38Z</time>
      </trkpt>
      <trkpt lat="42.26885" lon="1.73706">
        <ele>1646.22</ele>
        <time>2021-07-31T15:16:41Z</time>
      </trkpt>
      <trkpt lat="42.26877" lon="1.73669">
        <ele>1648.32</ele>
        <time>2021-07-31T15:16:44Z</time>
      </trkpt>
      <trkpt lat="42.26875" lon="1.73637">
        <ele>1650.73</ele>
        <time>2021-07-31T15:16:47Z</time>
      </trkpt>
      <trkpt lat="42.2686" lon="1.73595">
        <ele>1653.55</ele>
        <time>2021-07-31T15:16:51Z</time>
      </trkpt>
      <trkpt lat="42.2684" lon="1.73524">
        <ele>1658.39</ele>
        <time>2021-07-31T15:16:58Z</time>
      </trkpt>
      <trkpt lat="42.26846" lon="1.73483">
        <ele>1661.41</ele>
        <time>2021-07-31T15:17:02Z</time>
      </trkpt>
      <trkpt lat="42.26849" lon="1.73473">
        <ele>1662.17</ele>
        <time>2021-07-31T15:17:03Z</time>
      </trkpt>
      <trkpt lat="42.26853" lon="1.73413">
        <ele>1666</ele>
        <time>2021-07-31T15:17:08Z</time>
      </trkpt>
      <trkpt lat="42.2686" lon="1.73358">
        <ele>1669.01</ele>
        <time>2021-07-31T15:17:12Z</time>
      </trkpt>
      <trkpt lat="42.26862" lon="1.733">
        <ele>1673.91</ele>
        <time>2021-07-31T15:17:17Z</time>
      </trkpt>
      <trkpt lat="42.26859" lon="1.73285">
        <ele>1675.95</ele>
        <time>2021-07-31T15:17:19Z</time>
      </trkpt>
      <trkpt lat="42.26854" lon="1.73259">
        <ele>1680.12</ele>
        <time>2021-07-31T15:17:23Z</time>
      </trkpt>
      <trkpt lat="42.2684" lon="1.73234">
        <ele>1682.9</ele>
        <time>2021-07-31T15:17:27Z</time>
      </trkpt>
      <trkpt lat="42.26835" lon="1.73225">
        <ele>1684.21</ele>
        <time>2021-07-31T15:17:29Z</time>
      </trkpt>
      <trkpt lat="42.2682" lon="1.73164">
        <ele>1689.24</ele>
        <time>2021-07-31T15:17:45Z</time>
      </trkpt>
      <trkpt lat="42.26814" lon="1.73148">
        <ele>1692.79</ele>
        <time>2021-07-31T15:17:49Z</time>
      </trkpt>
      <trkpt lat="42.26811" lon="1.73137">
        <ele>1692.14</ele>
        <time>2021-07-31T15:17:51Z</time>
      </trkpt>
      <trkpt lat="42.26816" lon="1.73087">
        <ele>1695.53</ele>
        <time>2021-07-31T15:17:58Z</time>
      </trkpt>
      <trkpt lat="42.26823" lon="1.73032">
        <ele>1698.92</ele>
        <time>2021-07-31T15:18:06Z</time>
      </trkpt>
      <trkpt lat="42.2684" lon="1.72988">
        <ele>1702.51</ele>
        <time>2021-07-31T15:18:14Z</time>
      </trkpt>
      <trkpt lat="42.26854" lon="1.72944">
        <ele>1704.28</ele>
        <time>2021-07-31T15:18:19Z</time>
      </trkpt>
      <trkpt lat="42.26878" lon="1.72867">
        <ele>1708.13</ele>
        <time>2021-07-31T15:18:27Z</time>
      </trkpt>
      <trkpt lat="42.26889" lon="1.72821">
        <ele>1711.17</ele>
        <time>2021-07-31T15:18:31Z</time>
      </trkpt>
      <trkpt lat="42.26903" lon="1.7278">
        <ele>1714.43</ele>
        <time>2021-07-31T15:18:35Z</time>
      </trkpt>
      <trkpt lat="42.26907" lon="1.72769">
        <ele>1715.27</ele>
        <time>2021-07-31T15:18:36Z</time>
      </trkpt>
      <trkpt lat="42.26912" lon="1.72727">
        <ele>1718.34</ele>
        <time>2021-07-31T15:18:40Z</time>
      </trkpt>
      <trkpt lat="42.26926" lon="1.72657">
        <ele>1723.62</ele>
        <time>2021-07-31T15:18:47Z</time>
      </trkpt>
      <trkpt lat="42.26928" lon="1.72648">
        <ele>1724.3</ele>
        <time>2021-07-31T15:18:48Z</time>
      </trkpt>
      <trkpt lat="42.2695" lon="1.72585">
        <ele>1728.96</ele>
        <time>2021-07-31T15:18:55Z</time>
      </trkpt>
      <trkpt lat="42.26951" lon="1.72577">
        <ele>1729.61</ele>
        <time>2021-07-31T15:18:56Z</time>
      </trkpt>
      <trkpt lat="42.2696" lon="1.72505">
        <ele>1733.5</ele>
        <time>2021-07-31T15:19:03Z</time>
      </trkpt>
      <trkpt lat="42.26962" lon="1.72486">
        <ele>1734.77</ele>
        <time>2021-07-31T15:19:05Z</time>
      </trkpt>
      <trkpt lat="42.26965" lon="1.7247">
        <ele>1736.44</ele>
        <time>2021-07-31T15:19:07Z</time>
      </trkpt>
      <trkpt lat="42.2697" lon="1.72435">
        <ele>1738.93</ele>
        <time>2021-07-31T15:19:11Z</time>
      </trkpt>
      <trkpt lat="42.26987" lon="1.72408">
        <ele>1741.19</ele>
        <time>2021-07-31T15:19:15Z</time>
      </trkpt>
      <trkpt lat="42.27008" lon="1.72341">
        <ele>1745.11</ele>
        <time>2021-07-31T15:19:23Z</time>
      </trkpt>
      <trkpt lat="42.26995" lon="1.72321">
        <ele>1746.92</ele>
        <time>2021-07-31T15:19:26Z</time>
      </trkpt>
      <trkpt lat="42.26977" lon="1.72273">
        <ele>1749.71</ele>
        <time>2021-07-31T15:19:32Z</time>
      </trkpt>
      <trkpt lat="42.26976" lon="1.72188">
        <ele>1753.42</ele>
        <time>2021-07-31T15:19:39Z</time>
      </trkpt>
      <trkpt lat="42.26961" lon="1.72139">
        <ele>1756.16</ele>
        <time>2021-07-31T15:19:45Z</time>
      </trkpt>
      <trkpt lat="42.26951" lon="1.72127">
        <ele>1756.8</ele>
        <time>2021-07-31T15:19:47Z</time>
      </trkpt>
      <trkpt lat="42.26929" lon="1.72105">
        <ele>1758.41</ele>
        <time>2021-07-31T15:19:51Z</time>
      </trkpt>
      <trkpt lat="42.2692" lon="1.7206">
        <ele>1760.4</ele>
        <time>2021-07-31T15:19:56Z</time>
      </trkpt>
      <trkpt lat="42.26925" lon="1.72037">
        <ele>1761.46</ele>
        <time>2021-07-31T15:19:58Z</time>
      </trkpt>
      <trkpt lat="42.26917" lon="1.71987">
        <ele>1763.94</ele>
        <time>2021-07-31T15:20:03Z</time>
      </trkpt>
      <trkpt lat="42.26879" lon="1.71937">
        <ele>1767.89</ele>
        <time>2021-07-31T15:20:11Z</time>
      </trkpt>
      <trkpt lat="42.26844" lon="1.71963">
        <ele>1771.35</ele>
        <time>2021-07-31T15:20:16Z</time>
      </trkpt>
      <trkpt lat="42.26831" lon="1.71986">
        <ele>1772.65</ele>
        <time>2021-07-31T15:20:18Z</time>
      </trkpt>
      <trkpt lat="42.26823" lon="1.72006">
        <ele>1773.96</ele>
        <time>2021-07-31T15:20:20Z</time>
      </trkpt>
      <trkpt lat="42.26814" lon="1.71997">
        <ele>1776.72</ele>
        <time>2021-07-31T15:20:25Z</time>
      </trkpt>
      <trkpt lat="42.2683" lon="1.71924">
        <ele>1781.18</ele>
        <time>2021-07-31T15:20:32Z</time>
      </trkpt>
      <trkpt lat="42.26841" lon="1.71863">
        <ele>1784.38</ele>
        <time>2021-07-31T15:20:36Z</time>
      </trkpt>
      <trkpt lat="42.26861" lon="1.71798">
        <ele>1788.34</ele>
        <time>2021-07-31T15:20:40Z</time>
      </trkpt>
      <trkpt lat="42.26869" lon="1.71771">
        <ele>1790.51</ele>
        <time>2021-07-31T15:20:42Z</time>
      </trkpt>
      <trkpt lat="42.26883" lon="1.71751">
        <ele>1796.24</ele>
        <time>2021-07-31T15:20:46Z</time>
      </trkpt>
      <trkpt lat="42.26904" lon="1.71754">
        <ele>1799.62</ele>
        <time>2021-07-31T15:20:50Z</time>
      </trkpt>
      <trkpt lat="42.26923" lon="1.71773">
        <ele>1802.68</ele>
        <time>2021-07-31T15:20:55Z</time>
      </trkpt>
      <trkpt lat="42.26921" lon="1.71753">
        <ele>1805.07</ele>
        <time>2021-07-31T15:21:00Z</time>
      </trkpt>
      <trkpt lat="42.26887" lon="1.71706">
        <ele>1808.78</ele>
        <time>2021-07-31T15:21:08Z</time>
      </trkpt>
      <trkpt lat="42.26857" lon="1.71663">
        <ele>1812.1</ele>
        <time>2021-07-31T15:21:14Z</time>
      </trkpt>
      <trkpt lat="42.26855" lon="1.71655">
        <ele>1812.75</ele>
        <time>2021-07-31T15:21:15Z</time>
      </trkpt>
      <trkpt lat="42.26852" lon="1.71648">
        <ele>1813.39</ele>
        <time>2021-07-31T15:21:16Z</time>
      </trkpt>
      <trkpt lat="42.26849" lon="1.71633">
        <ele>1814.53</ele>
        <time>2021-07-31T15:21:18Z</time>
      </trkpt>
      <trkpt lat="42.26856" lon="1.71578">
        <ele>1818.24</ele>
        <time>2021-07-31T15:21:25Z</time>
      </trkpt>
      <trkpt lat="42.26857" lon="1.71573">
        <ele>1819.97</ele>
        <time>2021-07-31T15:21:36Z</time>
      </trkpt>
      <trkpt lat="42.26864" lon="1.71546">
        <ele>1820.41</ele>
        <time>2021-07-31T15:21:52Z</time>
      </trkpt>
      <trkpt lat="42.26873" lon="1.71514">
        <ele>1821.29</ele>
        <time>2021-07-31T15:21:58Z</time>
      </trkpt>
      <trkpt lat="42.26888" lon="1.71466">
        <ele>1823.96</ele>
        <time>2021-07-31T15:22:09Z</time>
      </trkpt>
      <trkpt lat="42.26888" lon="1.71464">
        <ele>1826.64</ele>
        <time>2021-07-31T15:22:26Z</time>
      </trkpt>
      <trkpt lat="42.2689" lon="1.71444">
        <ele>1827.85</ele>
        <time>2021-07-31T15:22:41Z</time>
      </trkpt>
      <trkpt lat="42.26897" lon="1.71408">
        <ele>1829.26</ele>
        <time>2021-07-31T15:22:57Z</time>
      </trkpt>
      <trkpt lat="42.269" lon="1.71384">
        <ele>1830.03</ele>
        <time>2021-07-31T15:23:05Z</time>
      </trkpt>
      <trkpt lat="42.26914" lon="1.71352">
        <ele>1830.69</ele>
        <time>2021-07-31T15:23:11Z</time>
      </trkpt>
      <trkpt lat="42.26919" lon="1.7134">
        <ele>1830.97</ele>
        <time>2021-07-31T15:23:13Z</time>
      </trkpt>
      <trkpt lat="42.26937" lon="1.71324">
        <ele>1831.54</ele>
        <time>2021-07-31T15:23:17Z</time>
      </trkpt>
      <trkpt lat="42.26946" lon="1.71322">
        <ele>1832.08</ele>
        <time>2021-07-31T15:23:19Z</time>
      </trkpt>
      <trkpt lat="42.26952" lon="1.7129">
        <ele>1833.24</ele>
        <time>2021-07-31T15:23:26Z</time>
      </trkpt>
      <trkpt lat="42.26943" lon="1.71275">
        <ele>1833.71</ele>
        <time>2021-07-31T15:23:29Z</time>
      </trkpt>
      <trkpt lat="42.2694" lon="1.7125">
        <ele>1834.77</ele>
        <time>2021-07-31T15:23:33Z</time>
      </trkpt>
      <trkpt lat="42.26946" lon="1.71223">
        <ele>1835.84</ele>
        <time>2021-07-31T15:23:37Z</time>
      </trkpt>
      <trkpt lat="42.26979" lon="1.71193">
        <ele>1837.41</ele>
        <time>2021-07-31T15:23:45Z</time>
      </trkpt>
      <trkpt lat="42.26983" lon="1.71173">
        <ele>1837.76</ele>
        <time>2021-07-31T15:23:48Z</time>
      </trkpt>
      <trkpt lat="42.26985" lon="1.71117">
        <ele>1839.21</ele>
        <time>2021-07-31T15:23:55Z</time>
      </trkpt>
      <trkpt lat="42.26972" lon="1.71093">
        <ele>1841.16</ele>
        <time>2021-07-31T15:24:00Z</time>
      </trkpt>
      <trkpt lat="42.26962" lon="1.71084">
        <ele>1841.39</ele>
        <time>2021-07-31T15:24:02Z</time>
      </trkpt>
      <trkpt lat="42.26944" lon="1.71039">
        <ele>1843.6</ele>
        <time>2021-07-31T15:24:08Z</time>
      </trkpt>
      <trkpt lat="42.26936" lon="1.70943">
        <ele>1847.26</ele>
        <time>2021-07-31T15:24:19Z</time>
      </trkpt>
      <trkpt lat="42.26936" lon="1.70896">
        <ele>1849.42</ele>
        <time>2021-07-31T15:24:28Z</time>
      </trkpt>
      <trkpt lat="42.26953" lon="1.70851">
        <ele>1851.01</ele>
        <time>2021-07-31T15:24:39Z</time>
      </trkpt>
      <trkpt lat="42.26969" lon="1.70806">
        <ele>1853.21</ele>
        <time>2021-07-31T15:24:51Z</time>
      </trkpt>
      <trkpt lat="42.26972" lon="1.70793">
        <ele>1853.48</ele>
        <time>2021-07-31T15:24:53Z</time>
      </trkpt>
      <trkpt lat="42.26984" lon="1.70767">
        <ele>1854.68</ele>
        <time>2021-07-31T15:24:58Z</time>
      </trkpt>
      <trkpt lat="42.26989" lon="1.70723">
        <ele>1856.39</ele>
        <time>2021-07-31T15:25:05Z</time>
      </trkpt>
      <trkpt lat="42.26984" lon="1.70713">
        <ele>1858.11</ele>
        <time>2021-07-31T15:25:16Z</time>
      </trkpt>
      <trkpt lat="42.26983" lon="1.70713">
        <ele>1858.21</ele>
        <time>2021-07-31T15:25:17Z</time>
      </trkpt>
      <trkpt lat="42.26968" lon="1.70711">
        <ele>1858.77</ele>
        <time>2021-07-31T15:25:22Z</time>
      </trkpt>
      <trkpt lat="42.26949" lon="1.70702">
        <ele>1859.6</ele>
        <time>2021-07-31T15:25:26Z</time>
      </trkpt>
      <trkpt lat="42.26941" lon="1.70695">
        <ele>1860.17</ele>
        <time>2021-07-31T15:25:28Z</time>
      </trkpt>
      <trkpt lat="42.26926" lon="1.70692">
        <ele>1861.07</ele>
        <time>2021-07-31T15:25:31Z</time>
      </trkpt>
      <trkpt lat="42.26891" lon="1.70657">
        <ele>1863.74</ele>
        <time>2021-07-31T15:25:38Z</time>
      </trkpt>
      <trkpt lat="42.26881" lon="1.70657">
        <ele>1864.74</ele>
        <time>2021-07-31T15:25:41Z</time>
      </trkpt>
      <trkpt lat="42.26873" lon="1.70659">
        <ele>1866.11</ele>
        <time>2021-07-31T15:25:56Z</time>
      </trkpt>
      <trkpt lat="42.26856" lon="1.70643">
        <ele>1866.88</ele>
        <time>2021-07-31T15:26:02Z</time>
      </trkpt>
      <trkpt lat="42.26847" lon="1.70624">
        <ele>1867.64</ele>
        <time>2021-07-31T15:26:05Z</time>
      </trkpt>
      <trkpt lat="42.26841" lon="1.70589">
        <ele>1869.15</ele>
        <time>2021-07-31T15:26:09Z</time>
      </trkpt>
      <trkpt lat="42.26827" lon="1.70517">
        <ele>1871.54</ele>
        <time>2021-07-31T15:26:20Z</time>
      </trkpt>
      <trkpt lat="42.26825" lon="1.70509">
        <ele>1872.66</ele>
        <time>2021-07-31T15:26:31Z</time>
      </trkpt>
      <trkpt lat="42.26822" lon="1.70486">
        <ele>1873.31</ele>
        <time>2021-07-31T15:26:53Z</time>
      </trkpt>
      <trkpt lat="42.26817" lon="1.70476">
        <ele>1873.88</ele>
        <time>2021-07-31T15:27:07Z</time>
      </trkpt>
      <trkpt lat="42.26809" lon="1.70462">
        <ele>1873.99</ele>
        <time>2021-07-31T15:27:10Z</time>
      </trkpt>
      <trkpt lat="42.26801" lon="1.70443">
        <ele>1874.32</ele>
        <time>2021-07-31T15:27:13Z</time>
      </trkpt>
      <trkpt lat="42.26799" lon="1.70391">
        <ele>1876.3</ele>
        <time>2021-07-31T15:27:19Z</time>
      </trkpt>
      <trkpt lat="42.26805" lon="1.70358">
        <ele>1877.63</ele>
        <time>2021-07-31T15:27:22Z</time>
      </trkpt>
      <trkpt lat="42.26808" lon="1.70336">
        <ele>1877.76</ele>
        <time>2021-07-31T15:27:24Z</time>
      </trkpt>
      <trkpt lat="42.26809" lon="1.70298">
        <ele>1877.12</ele>
        <time>2021-07-31T15:27:28Z</time>
      </trkpt>
      <trkpt lat="42.26825" lon="1.70213">
        <ele>1875.69</ele>
        <time>2021-07-31T15:27:36Z</time>
      </trkpt>
      <trkpt lat="42.26831" lon="1.70205">
        <ele>1875.47</ele>
        <time>2021-07-31T15:27:37Z</time>
      </trkpt>
      <trkpt lat="42.26849" lon="1.70153">
        <ele>1873.36</ele>
        <time>2021-07-31T15:27:42Z</time>
      </trkpt>
      <trkpt lat="42.26851" lon="1.70128">
        <ele>1872.52</ele>
        <time>2021-07-31T15:27:44Z</time>
      </trkpt>
      <trkpt lat="42.26844" lon="1.70072">
        <ele>1871.41</ele>
        <time>2021-07-31T15:27:48Z</time>
      </trkpt>
      <trkpt lat="42.26842" lon="1.7003">
        <ele>1870.36</ele>
        <time>2021-07-31T15:27:51Z</time>
      </trkpt>
      <trkpt lat="42.26838" lon="1.69992">
        <ele>1869.31</ele>
        <time>2021-07-31T15:27:54Z</time>
      </trkpt>
      <trkpt lat="42.2684" lon="1.69956">
        <ele>1867.69</ele>
        <time>2021-07-31T15:27:57Z</time>
      </trkpt>
      <trkpt lat="42.26825" lon="1.69896">
        <ele>1865</ele>
        <time>2021-07-31T15:28:02Z</time>
      </trkpt>
      <trkpt lat="42.268" lon="1.698">
        <ele>1860.52</ele>
        <time>2021-07-31T15:28:10Z</time>
      </trkpt>
      <trkpt lat="42.26794" lon="1.69766">
        <ele>1859.17</ele>
        <time>2021-07-31T15:28:13Z</time>
      </trkpt>
      <trkpt lat="42.26764" lon="1.69692">
        <ele>1855.52</ele>
        <time>2021-07-31T15:28:21Z</time>
      </trkpt>
      <trkpt lat="42.26753" lon="1.69673">
        <ele>1854.76</ele>
        <time>2021-07-31T15:28:23Z</time>
      </trkpt>
      <trkpt lat="42.26735" lon="1.69651">
        <ele>1853.45</ele>
        <time>2021-07-31T15:28:26Z</time>
      </trkpt>
      <trkpt lat="42.26714" lon="1.69615">
        <ele>1852.01</ele>
        <time>2021-07-31T15:28:30Z</time>
      </trkpt>
      <trkpt lat="42.26673" lon="1.69493">
        <ele>1848.55</ele>
        <time>2021-07-31T15:28:40Z</time>
      </trkpt>
      <trkpt lat="42.26666" lon="1.69465">
        <ele>1847.82</ele>
        <time>2021-07-31T15:28:42Z</time>
      </trkpt>
      <trkpt lat="42.26654" lon="1.69411">
        <ele>1846.34</ele>
        <time>2021-07-31T15:28:46Z</time>
      </trkpt>
      <trkpt lat="42.26622" lon="1.69309">
        <ele>1842.89</ele>
        <time>2021-07-31T15:28:54Z</time>
      </trkpt>
      <trkpt lat="42.26619" lon="1.69299">
        <ele>1842.46</ele>
        <time>2021-07-31T15:28:55Z</time>
      </trkpt>
      <trkpt lat="42.26595" lon="1.69289">
        <ele>1839.55</ele>
        <time>2021-07-31T15:29:01Z</time>
      </trkpt>
      <trkpt lat="42.26592" lon="1.69297">
        <ele>1839.3</ele>
        <time>2021-07-31T15:29:02Z</time>
      </trkpt>
      <trkpt lat="42.26541" lon="1.69363">
        <ele>1838.23</ele>
        <time>2021-07-31T15:29:11Z</time>
      </trkpt>
      <trkpt lat="42.26536" lon="1.69368">
        <ele>1838.2</ele>
        <time>2021-07-31T15:29:12Z</time>
      </trkpt>
      <trkpt lat="42.26514" lon="1.69373">
        <ele>1838.02</ele>
        <time>2021-07-31T15:29:16Z</time>
      </trkpt>
      <trkpt lat="42.26498" lon="1.69371">
        <ele>1837.82</ele>
        <time>2021-07-31T15:29:19Z</time>
      </trkpt>
      <trkpt lat="42.26473" lon="1.69332">
        <ele>1837.44</ele>
        <time>2021-07-31T15:29:26Z</time>
      </trkpt>
      <trkpt lat="42.26462" lon="1.69301">
        <ele>1837.03</ele>
        <time>2021-07-31T15:29:31Z</time>
      </trkpt>
      <trkpt lat="42.26427" lon="1.69255">
        <ele>1836.03</ele>
        <time>2021-07-31T15:29:44Z</time>
      </trkpt>
      <trkpt lat="42.26426" lon="1.69254">
        <ele>1835.66</ele>
        <time>2021-07-31T15:34:52Z</time>
      </trkpt>
      <trkpt lat="42.26411" lon="1.69232">
        <ele>1835.78</ele>
        <time>2021-07-31T15:35:10Z</time>
      </trkpt>
      <trkpt lat="42.26372" lon="1.6916">
        <ele>1837.45</ele>
        <time>2021-07-31T15:35:19Z</time>
      </trkpt>
      <trkpt lat="42.26328" lon="1.69078">
        <ele>1837.12</ele>
        <time>2021-07-31T15:35:30Z</time>
      </trkpt>
      <trkpt lat="42.26323" lon="1.6907">
        <ele>1837.03</ele>
        <time>2021-07-31T15:35:31Z</time>
      </trkpt>
      <trkpt lat="42.26301" lon="1.68979">
        <ele>1836.06</ele>
        <time>2021-07-31T15:35:42Z</time>
      </trkpt>
      <trkpt lat="42.26266" lon="1.68896">
        <ele>1832.79</ele>
        <time>2021-07-31T15:35:53Z</time>
      </trkpt>
      <trkpt lat="42.26232" lon="1.68829">
        <ele>1829.39</ele>
        <time>2021-07-31T15:36:01Z</time>
      </trkpt>
      <trkpt lat="42.26195" lon="1.6875">
        <ele>1826.33</ele>
        <time>2021-07-31T15:36:08Z</time>
      </trkpt>
      <trkpt lat="42.26151" lon="1.68676">
        <ele>1822.88</ele>
        <time>2021-07-31T15:36:15Z</time>
      </trkpt>
      <trkpt lat="42.26113" lon="1.68625">
        <ele>1819.57</ele>
        <time>2021-07-31T15:36:21Z</time>
      </trkpt>
      <trkpt lat="42.26091" lon="1.68604">
        <ele>1817.77</ele>
        <time>2021-07-31T15:36:24Z</time>
      </trkpt>
      <trkpt lat="42.26068" lon="1.68575">
        <ele>1813.7</ele>
        <time>2021-07-31T15:36:31Z</time>
      </trkpt>
      <trkpt lat="42.26056" lon="1.68565">
        <ele>1810.46</ele>
        <time>2021-07-31T15:36:39Z</time>
      </trkpt>
      <trkpt lat="42.26044" lon="1.68561">
        <ele>1808.47</ele>
        <time>2021-07-31T15:36:53Z</time>
      </trkpt>
      <trkpt lat="42.26019" lon="1.6855">
        <ele>1808.3</ele>
        <time>2021-07-31T15:37:00Z</time>
      </trkpt>
      <trkpt lat="42.2599" lon="1.6857">
        <ele>1807.32</ele>
        <time>2021-07-31T15:37:06Z</time>
      </trkpt>
      <trkpt lat="42.25951" lon="1.68593">
        <ele>1803.29</ele>
        <time>2021-07-31T15:37:13Z</time>
      </trkpt>
      <trkpt lat="42.25945" lon="1.68593">
        <ele>1803.29</ele>
        <time>2021-07-31T15:37:14Z</time>
      </trkpt>
      <trkpt lat="42.25936" lon="1.68609">
        <ele>1800.99</ele>
        <time>2021-07-31T15:37:17Z</time>
      </trkpt>
      <trkpt lat="42.25889" lon="1.68661">
        <ele>1797.24</ele>
        <time>2021-07-31T15:37:26Z</time>
      </trkpt>
      <trkpt lat="42.25882" lon="1.68661">
        <ele>1797.02</ele>
        <time>2021-07-31T15:37:27Z</time>
      </trkpt>
      <trkpt lat="42.25859" lon="1.68684">
        <ele>1795.68</ele>
        <time>2021-07-31T15:37:33Z</time>
      </trkpt>
      <trkpt lat="42.25852" lon="1.68706">
        <ele>1794.56</ele>
        <time>2021-07-31T15:37:36Z</time>
      </trkpt>
      <trkpt lat="42.25835" lon="1.68724">
        <ele>1792.86</ele>
        <time>2021-07-31T15:37:40Z</time>
      </trkpt>
      <trkpt lat="42.25814" lon="1.68729">
        <ele>1789.15</ele>
        <time>2021-07-31T15:37:48Z</time>
      </trkpt>
      <trkpt lat="42.25806" lon="1.68727">
        <ele>1786.02</ele>
        <time>2021-07-31T15:38:02Z</time>
      </trkpt>
      <trkpt lat="42.2579" lon="1.68722">
        <ele>1785.06</ele>
        <time>2021-07-31T15:38:08Z</time>
      </trkpt>
      <trkpt lat="42.25779" lon="1.6874">
        <ele>1783.8</ele>
        <time>2021-07-31T15:38:13Z</time>
      </trkpt>
      <trkpt lat="42.25774" lon="1.68763">
        <ele>1783.16</ele>
        <time>2021-07-31T15:38:16Z</time>
      </trkpt>
      <trkpt lat="42.25772" lon="1.68796">
        <ele>1782.47</ele>
        <time>2021-07-31T15:38:21Z</time>
      </trkpt>
      <trkpt lat="42.25775" lon="1.68806">
        <ele>1782.27</ele>
        <time>2021-07-31T15:38:29Z</time>
      </trkpt>
      <trkpt lat="42.25745" lon="1.68868">
        <ele>1782.08</ele>
        <time>2021-07-31T15:38:37Z</time>
      </trkpt>
      <trkpt lat="42.25713" lon="1.6892">
        <ele>1780.68</ele>
        <time>2021-07-31T15:38:43Z</time>
      </trkpt>
      <trkpt lat="42.25696" lon="1.68941">
        <ele>1779.46</ele>
        <time>2021-07-31T15:38:46Z</time>
      </trkpt>
      <trkpt lat="42.25686" lon="1.68958">
        <ele>1778.68</ele>
        <time>2021-07-31T15:38:48Z</time>
      </trkpt>
      <trkpt lat="42.25675" lon="1.68973">
        <ele>1777.97</ele>
        <time>2021-07-31T15:38:50Z</time>
      </trkpt>
      <trkpt lat="42.25659" lon="1.69009">
        <ele>1776.11</ele>
        <time>2021-07-31T15:38:54Z</time>
      </trkpt>
      <trkpt lat="42.25654" lon="1.69018">
        <ele>1775.78</ele>
        <time>2021-07-31T15:38:55Z</time>
      </trkpt>
      <trkpt lat="42.25626" lon="1.69041">
        <ele>1774.24</ele>
        <time>2021-07-31T15:38:59Z</time>
      </trkpt>
      <trkpt lat="42.25589" lon="1.69088">
        <ele>1773.04</ele>
        <time>2021-07-31T15:39:06Z</time>
      </trkpt>
      <trkpt lat="42.25556" lon="1.69127">
        <ele>1772.29</ele>
        <time>2021-07-31T15:39:12Z</time>
      </trkpt>
      <trkpt lat="42.25533" lon="1.69188">
        <ele>1771</ele>
        <time>2021-07-31T15:39:19Z</time>
      </trkpt>
      <trkpt lat="42.25533" lon="1.69265">
        <ele>1767.88</ele>
        <time>2021-07-31T15:39:26Z</time>
      </trkpt>
      <trkpt lat="42.25516" lon="1.69341">
        <ele>1764.15</ele>
        <time>2021-07-31T15:39:33Z</time>
      </trkpt>
      <trkpt lat="42.25488" lon="1.69403">
        <ele>1760.92</ele>
        <time>2021-07-31T15:39:39Z</time>
      </trkpt>
      <trkpt lat="42.25477" lon="1.69422">
        <ele>1759.85</ele>
        <time>2021-07-31T15:39:41Z</time>
      </trkpt>
      <trkpt lat="42.25458" lon="1.69463">
        <ele>1757.74</ele>
        <time>2021-07-31T15:39:46Z</time>
      </trkpt>
      <trkpt lat="42.25423" lon="1.6948">
        <ele>1755.47</ele>
        <time>2021-07-31T15:39:51Z</time>
      </trkpt>
      <trkpt lat="42.25411" lon="1.69491">
        <ele>1754.44</ele>
        <time>2021-07-31T15:39:53Z</time>
      </trkpt>
      <trkpt lat="42.25401" lon="1.69553">
        <ele>1750.6</ele>
        <time>2021-07-31T15:39:59Z</time>
      </trkpt>
      <trkpt lat="42.25408" lon="1.69619">
        <ele>1747.7</ele>
        <time>2021-07-31T15:40:06Z</time>
      </trkpt>
      <trkpt lat="42.25403" lon="1.69661">
        <ele>1746.88</ele>
        <time>2021-07-31T15:40:10Z</time>
      </trkpt>
      <trkpt lat="42.25385" lon="1.69702">
        <ele>1745.38</ele>
        <time>2021-07-31T15:40:14Z</time>
      </trkpt>
      <trkpt lat="42.25362" lon="1.69736">
        <ele>1744.03</ele>
        <time>2021-07-31T15:40:18Z</time>
      </trkpt>
      <trkpt lat="42.25322" lon="1.69778">
        <ele>1743.28</ele>
        <time>2021-07-31T15:40:25Z</time>
      </trkpt>
      <trkpt lat="42.25315" lon="1.69791">
        <ele>1743.22</ele>
        <time>2021-07-31T15:40:27Z</time>
      </trkpt>
      <trkpt lat="42.25309" lon="1.69806">
        <ele>1743.15</ele>
        <time>2021-07-31T15:40:29Z</time>
      </trkpt>
      <trkpt lat="42.25284" lon="1.69815">
        <ele>1741.96</ele>
        <time>2021-07-31T15:40:34Z</time>
      </trkpt>
      <trkpt lat="42.25252" lon="1.69798">
        <ele>1739.16</ele>
        <time>2021-07-31T15:40:39Z</time>
      </trkpt>
      <trkpt lat="42.2523" lon="1.69802">
        <ele>1735.39</ele>
        <time>2021-07-31T15:40:44Z</time>
      </trkpt>
      <trkpt lat="42.25226" lon="1.69802">
        <ele>1734.52</ele>
        <time>2021-07-31T15:40:45Z</time>
      </trkpt>
      <trkpt lat="42.25208" lon="1.69803">
        <ele>1731.8</ele>
        <time>2021-07-31T15:40:49Z</time>
      </trkpt>
      <trkpt lat="42.25173" lon="1.69819">
        <ele>1727.96</ele>
        <time>2021-07-31T15:40:56Z</time>
      </trkpt>
      <trkpt lat="42.25157" lon="1.69825">
        <ele>1726.4</ele>
        <time>2021-07-31T15:40:59Z</time>
      </trkpt>
      <trkpt lat="42.25163" lon="1.69864">
        <ele>1723.2</ele>
        <time>2021-07-31T15:41:06Z</time>
      </trkpt>
      <trkpt lat="42.25174" lon="1.69927">
        <ele>1720.08</ele>
        <time>2021-07-31T15:41:13Z</time>
      </trkpt>
      <trkpt lat="42.25165" lon="1.69979">
        <ele>1717.15</ele>
        <time>2021-07-31T15:41:24Z</time>
      </trkpt>
      <trkpt lat="42.25168" lon="1.69991">
        <ele>1716.97</ele>
        <time>2021-07-31T15:41:27Z</time>
      </trkpt>
      <trkpt lat="42.25173" lon="1.7">
        <ele>1716.92</ele>
        <time>2021-07-31T15:41:29Z</time>
      </trkpt>
      <trkpt lat="42.25185" lon="1.70031">
        <ele>1717.2</ele>
        <time>2021-07-31T15:41:33Z</time>
      </trkpt>
      <trkpt lat="42.25209" lon="1.70073">
        <ele>1718.84</ele>
        <time>2021-07-31T15:41:39Z</time>
      </trkpt>
      <trkpt lat="42.25211" lon="1.70122">
        <ele>1721.05</ele>
        <time>2021-07-31T15:41:44Z</time>
      </trkpt>
      <trkpt lat="42.25205" lon="1.70161">
        <ele>1722.52</ele>
        <time>2021-07-31T15:41:47Z</time>
      </trkpt>
      <trkpt lat="42.25226" lon="1.70219">
        <ele>1724.69</ele>
        <time>2021-07-31T15:41:52Z</time>
      </trkpt>
      <trkpt lat="42.25238" lon="1.70233">
        <ele>1725.59</ele>
        <time>2021-07-31T15:41:54Z</time>
      </trkpt>
      <trkpt lat="42.25246" lon="1.70249">
        <ele>1726.54</ele>
        <time>2021-07-31T15:41:56Z</time>
      </trkpt>
      <trkpt lat="42.25255" lon="1.70263">
        <ele>1727.62</ele>
        <time>2021-07-31T15:41:58Z</time>
      </trkpt>
      <trkpt lat="42.25266" lon="1.70328">
        <ele>1731.4</ele>
        <time>2021-07-31T15:42:04Z</time>
      </trkpt>
      <trkpt lat="42.25264" lon="1.7034">
        <ele>1731.99</ele>
        <time>2021-07-31T15:42:05Z</time>
      </trkpt>
      <trkpt lat="42.25258" lon="1.70372">
        <ele>1733.97</ele>
        <time>2021-07-31T15:42:08Z</time>
      </trkpt>
      <trkpt lat="42.25222" lon="1.70405">
        <ele>1736.78</ele>
        <time>2021-07-31T15:42:14Z</time>
      </trkpt>
      <trkpt lat="42.2517" lon="1.70417">
        <ele>1736.69</ele>
        <time>2021-07-31T15:42:19Z</time>
      </trkpt>
      <trkpt lat="42.2513" lon="1.70443">
        <ele>1734.25</ele>
        <time>2021-07-31T15:42:25Z</time>
      </trkpt>
      <trkpt lat="42.251" lon="1.70456">
        <ele>1732.13</ele>
        <time>2021-07-31T15:42:29Z</time>
      </trkpt>
      <trkpt lat="42.25059" lon="1.7047">
        <ele>1728.21</ele>
        <time>2021-07-31T15:42:35Z</time>
      </trkpt>
      <trkpt lat="42.25028" lon="1.70466">
        <ele>1725.17</ele>
        <time>2021-07-31T15:42:39Z</time>
      </trkpt>
      <trkpt lat="42.25005" lon="1.70475">
        <ele>1722.83</ele>
        <time>2021-07-31T15:42:42Z</time>
      </trkpt>
      <trkpt lat="42.24964" lon="1.70504">
        <ele>1718.73</ele>
        <time>2021-07-31T15:42:47Z</time>
      </trkpt>
      <trkpt lat="42.24956" lon="1.70509">
        <ele>1717.91</ele>
        <time>2021-07-31T15:42:48Z</time>
      </trkpt>
      <trkpt lat="42.24923" lon="1.70523">
        <ele>1714.54</ele>
        <time>2021-07-31T15:42:52Z</time>
      </trkpt>
      <trkpt lat="42.24898" lon="1.70539">
        <ele>1710.5</ele>
        <time>2021-07-31T15:42:57Z</time>
      </trkpt>
      <trkpt lat="42.24887" lon="1.70582">
        <ele>1706.45</ele>
        <time>2021-07-31T15:43:03Z</time>
      </trkpt>
      <trkpt lat="42.24869" lon="1.70657">
        <ele>1701.77</ele>
        <time>2021-07-31T15:43:11Z</time>
      </trkpt>
      <trkpt lat="42.24865" lon="1.70678">
        <ele>1700.49</ele>
        <time>2021-07-31T15:43:13Z</time>
      </trkpt>
      <trkpt lat="42.2486" lon="1.70709">
        <ele>1698.62</ele>
        <time>2021-07-31T15:43:16Z</time>
      </trkpt>
      <trkpt lat="42.24839" lon="1.70746">
        <ele>1694.49</ele>
        <time>2021-07-31T15:43:21Z</time>
      </trkpt>
      <trkpt lat="42.24823" lon="1.70754">
        <ele>1692.99</ele>
        <time>2021-07-31T15:43:23Z</time>
      </trkpt>
      <trkpt lat="42.24782" lon="1.70768">
        <ele>1688.74</ele>
        <time>2021-07-31T15:43:28Z</time>
      </trkpt>
      <trkpt lat="42.24758" lon="1.70774">
        <ele>1685.2</ele>
        <time>2021-07-31T15:43:32Z</time>
      </trkpt>
      <trkpt lat="42.24746" lon="1.70779">
        <ele>1683.49</ele>
        <time>2021-07-31T15:43:34Z</time>
      </trkpt>
      <trkpt lat="42.24723" lon="1.708">
        <ele>1678.89</ele>
        <time>2021-07-31T15:43:40Z</time>
      </trkpt>
      <trkpt lat="42.24713" lon="1.70818">
        <ele>1677.06</ele>
        <time>2021-07-31T15:43:43Z</time>
      </trkpt>
      <trkpt lat="42.24687" lon="1.70845">
        <ele>1673.5</ele>
        <time>2021-07-31T15:43:49Z</time>
      </trkpt>
      <trkpt lat="42.24677" lon="1.70846">
        <ele>1672.2</ele>
        <time>2021-07-31T15:43:51Z</time>
      </trkpt>
      <trkpt lat="42.24666" lon="1.70846">
        <ele>1670.69</ele>
        <time>2021-07-31T15:43:53Z</time>
      </trkpt>
      <trkpt lat="42.24645" lon="1.70856">
        <ele>1667.13</ele>
        <time>2021-07-31T15:43:57Z</time>
      </trkpt>
      <trkpt lat="42.24627" lon="1.70868">
        <ele>1663.2</ele>
        <time>2021-07-31T15:44:03Z</time>
      </trkpt>
      <trkpt lat="42.24597" lon="1.70864">
        <ele>1659.83</ele>
        <time>2021-07-31T15:44:10Z</time>
      </trkpt>
      <trkpt lat="42.24568" lon="1.70852">
        <ele>1658.03</ele>
        <time>2021-07-31T15:44:14Z</time>
      </trkpt>
      <trkpt lat="42.2455" lon="1.70864">
        <ele>1655.27</ele>
        <time>2021-07-31T15:44:19Z</time>
      </trkpt>
      <trkpt lat="42.24545" lon="1.70894">
        <ele>1653.79</ele>
        <time>2021-07-31T15:44:22Z</time>
      </trkpt>
      <trkpt lat="42.24522" lon="1.70941">
        <ele>1649.47</ele>
        <time>2021-07-31T15:44:28Z</time>
      </trkpt>
      <trkpt lat="42.24512" lon="1.70985">
        <ele>1645.85</ele>
        <time>2021-07-31T15:44:33Z</time>
      </trkpt>
      <trkpt lat="42.24511" lon="1.7102">
        <ele>1643.76</ele>
        <time>2021-07-31T15:44:36Z</time>
      </trkpt>
      <trkpt lat="42.24509" lon="1.71044">
        <ele>1642.66</ele>
        <time>2021-07-31T15:44:38Z</time>
      </trkpt>
      <trkpt lat="42.24518" lon="1.71083">
        <ele>1640.44</ele>
        <time>2021-07-31T15:44:42Z</time>
      </trkpt>
      <trkpt lat="42.245" lon="1.71129">
        <ele>1636.8</ele>
        <time>2021-07-31T15:44:48Z</time>
      </trkpt>
      <trkpt lat="42.24502" lon="1.71167">
        <ele>1634.41</ele>
        <time>2021-07-31T15:44:52Z</time>
      </trkpt>
      <trkpt lat="42.24508" lon="1.71216">
        <ele>1631.21</ele>
        <time>2021-07-31T15:44:57Z</time>
      </trkpt>
      <trkpt lat="42.24521" lon="1.71257">
        <ele>1627.27</ele>
        <time>2021-07-31T15:45:04Z</time>
      </trkpt>
      <trkpt lat="42.24528" lon="1.71283">
        <ele>1625.88</ele>
        <time>2021-07-31T15:45:07Z</time>
      </trkpt>
      <trkpt lat="42.2454" lon="1.71316">
        <ele>1623.88</ele>
        <time>2021-07-31T15:45:11Z</time>
      </trkpt>
      <trkpt lat="42.24543" lon="1.71375">
        <ele>1619.82</ele>
        <time>2021-07-31T15:45:18Z</time>
      </trkpt>
      <trkpt lat="42.24547" lon="1.71383">
        <ele>1619.3</ele>
        <time>2021-07-31T15:45:19Z</time>
      </trkpt>
      <trkpt lat="42.24554" lon="1.71428">
        <ele>1616.02</ele>
        <time>2021-07-31T15:45:24Z</time>
      </trkpt>
      <trkpt lat="42.2455" lon="1.71465">
        <ele>1611.54</ele>
        <time>2021-07-31T15:45:30Z</time>
      </trkpt>
      <trkpt lat="42.24551" lon="1.71483">
        <ele>1608.16</ele>
        <time>2021-07-31T15:45:34Z</time>
      </trkpt>
      <trkpt lat="42.2455" lon="1.71498">
        <ele>1606.46</ele>
        <time>2021-07-31T15:45:37Z</time>
      </trkpt>
      <trkpt lat="42.24564" lon="1.71524">
        <ele>1604.78</ele>
        <time>2021-07-31T15:45:41Z</time>
      </trkpt>
      <trkpt lat="42.24614" lon="1.71572">
        <ele>1600.89</ele>
        <time>2021-07-31T15:45:48Z</time>
      </trkpt>
      <trkpt lat="42.24629" lon="1.71586">
        <ele>1599.38</ele>
        <time>2021-07-31T15:45:50Z</time>
      </trkpt>
      <trkpt lat="42.24648" lon="1.71633">
        <ele>1594.72</ele>
        <time>2021-07-31T15:45:55Z</time>
      </trkpt>
      <trkpt lat="42.24644" lon="1.71664">
        <ele>1592.02</ele>
        <time>2021-07-31T15:45:58Z</time>
      </trkpt>
      <trkpt lat="42.2464" lon="1.71725">
        <ele>1587.25</ele>
        <time>2021-07-31T15:46:03Z</time>
      </trkpt>
      <trkpt lat="42.2464" lon="1.71747">
        <ele>1583.98</ele>
        <time>2021-07-31T15:46:06Z</time>
      </trkpt>
      <trkpt lat="42.24644" lon="1.71798">
        <ele>1579.23</ele>
        <time>2021-07-31T15:46:11Z</time>
      </trkpt>
      <trkpt lat="42.24646" lon="1.7184">
        <ele>1575.8</ele>
        <time>2021-07-31T15:46:15Z</time>
      </trkpt>
      <trkpt lat="42.24647" lon="1.71852">
        <ele>1574.87</ele>
        <time>2021-07-31T15:46:16Z</time>
      </trkpt>
      <trkpt lat="42.24684" lon="1.71893">
        <ele>1570.44</ele>
        <time>2021-07-31T15:46:22Z</time>
      </trkpt>
      <trkpt lat="42.24752" lon="1.71894">
        <ele>1566.62</ele>
        <time>2021-07-31T15:46:29Z</time>
      </trkpt>
      <trkpt lat="42.24781" lon="1.71935">
        <ele>1565.18</ele>
        <time>2021-07-31T15:46:35Z</time>
      </trkpt>
      <trkpt lat="42.2478" lon="1.71947">
        <ele>1565.02</ele>
        <time>2021-07-31T15:46:36Z</time>
      </trkpt>
      <trkpt lat="42.24781" lon="1.71991">
        <ele>1564.29</ele>
        <time>2021-07-31T15:46:40Z</time>
      </trkpt>
      <trkpt lat="42.24745" lon="1.72038">
        <ele>1562.32</ele>
        <time>2021-07-31T15:46:46Z</time>
      </trkpt>
      <trkpt lat="42.24728" lon="1.72094">
        <ele>1560.58</ele>
        <time>2021-07-31T15:46:50Z</time>
      </trkpt>
      <trkpt lat="42.24721" lon="1.72144">
        <ele>1559.13</ele>
        <time>2021-07-31T15:46:53Z</time>
      </trkpt>
      <trkpt lat="42.24738" lon="1.72209">
        <ele>1556.26</ele>
        <time>2021-07-31T15:46:59Z</time>
      </trkpt>
      <trkpt lat="42.24741" lon="1.72229">
        <ele>1554.96</ele>
        <time>2021-07-31T15:47:02Z</time>
      </trkpt>
      <trkpt lat="42.24741" lon="1.72245">
        <ele>1554.26</ele>
        <time>2021-07-31T15:47:04Z</time>
      </trkpt>
      <trkpt lat="42.24719" lon="1.7227">
        <ele>1552.96</ele>
        <time>2021-07-31T15:47:10Z</time>
      </trkpt>
      <trkpt lat="42.24702" lon="1.72273">
        <ele>1550.95</ele>
        <time>2021-07-31T15:47:19Z</time>
      </trkpt>
      <trkpt lat="42.24703" lon="1.72273">
        <ele>1550.02</ele>
        <time>2021-07-31T15:47:50Z</time>
      </trkpt>
      <trkpt lat="42.24709" lon="1.72269">
        <ele>1550.88</ele>
        <time>2021-07-31T15:50:26Z</time>
      </trkpt>
      <trkpt lat="42.24707" lon="1.72269">
        <ele>1550.88</ele>
        <time>2021-07-31T15:50:48Z</time>
      </trkpt>
      <trkpt lat="42.2471" lon="1.72266">
        <ele>1550.88</ele>
        <time>2021-07-31T15:50:52Z</time>
      </trkpt>
      <trkpt lat="42.24697" lon="1.72257">
        <ele>1548.97</ele>
        <time>2021-07-31T15:50:56Z</time>
      </trkpt>
      <trkpt lat="42.24642" lon="1.72196">
        <ele>1547.66</ele>
        <time>2021-07-31T15:51:04Z</time>
      </trkpt>
      <trkpt lat="42.24579" lon="1.72164">
        <ele>1544.06</ele>
        <time>2021-07-31T15:51:12Z</time>
      </trkpt>
      <trkpt lat="42.24561" lon="1.72119">
        <ele>1542.19</ele>
        <time>2021-07-31T15:51:16Z</time>
      </trkpt>
      <trkpt lat="42.24515" lon="1.72018">
        <ele>1538.58</ele>
        <time>2021-07-31T15:51:24Z</time>
      </trkpt>
      <trkpt lat="42.2445" lon="1.71983">
        <ele>1534.71</ele>
        <time>2021-07-31T15:51:31Z</time>
      </trkpt>
      <trkpt lat="42.24384" lon="1.72018">
        <ele>1531.75</ele>
        <time>2021-07-31T15:51:36Z</time>
      </trkpt>
      <trkpt lat="42.2432" lon="1.72059">
        <ele>1527.8</ele>
        <time>2021-07-31T15:51:42Z</time>
      </trkpt>
      <trkpt lat="42.24288" lon="1.72109">
        <ele>1525.24</ele>
        <time>2021-07-31T15:51:46Z</time>
      </trkpt>
      <trkpt lat="42.24265" lon="1.72142">
        <ele>1523.21</ele>
        <time>2021-07-31T15:51:49Z</time>
      </trkpt>
      <trkpt lat="42.24212" lon="1.72188">
        <ele>1519.39</ele>
        <time>2021-07-31T15:51:55Z</time>
      </trkpt>
      <trkpt lat="42.24174" lon="1.7222">
        <ele>1516.45</ele>
        <time>2021-07-31T15:51:59Z</time>
      </trkpt>
      <trkpt lat="42.24118" lon="1.72238">
        <ele>1512.45</ele>
        <time>2021-07-31T15:52:04Z</time>
      </trkpt>
      <trkpt lat="42.24069" lon="1.72243">
        <ele>1509.55</ele>
        <time>2021-07-31T15:52:08Z</time>
      </trkpt>
      <trkpt lat="42.2401" lon="1.72271">
        <ele>1505.83</ele>
        <time>2021-07-31T15:52:13Z</time>
      </trkpt>
      <trkpt lat="42.23988" lon="1.72282">
        <ele>1503.98</ele>
        <time>2021-07-31T15:52:15Z</time>
      </trkpt>
      <trkpt lat="42.2394" lon="1.72344">
        <ele>1499.62</ele>
        <time>2021-07-31T15:52:20Z</time>
      </trkpt>
      <trkpt lat="42.23935" lon="1.72362">
        <ele>1498.63</ele>
        <time>2021-07-31T15:52:21Z</time>
      </trkpt>
      <trkpt lat="42.23911" lon="1.72411">
        <ele>1494.88</ele>
        <time>2021-07-31T15:52:25Z</time>
      </trkpt>
      <trkpt lat="42.23879" lon="1.72416">
        <ele>1490.33</ele>
        <time>2021-07-31T15:52:30Z</time>
      </trkpt>
      <trkpt lat="42.23815" lon="1.7238">
        <ele>1486.35</ele>
        <time>2021-07-31T15:52:36Z</time>
      </trkpt>
      <trkpt lat="42.23752" lon="1.72409">
        <ele>1482.58</ele>
        <time>2021-07-31T15:52:41Z</time>
      </trkpt>
      <trkpt lat="42.23741" lon="1.72422">
        <ele>1480.75</ele>
        <time>2021-07-31T15:52:42Z</time>
      </trkpt>
      <trkpt lat="42.2368" lon="1.72489">
        <ele>1476.49</ele>
        <time>2021-07-31T15:52:47Z</time>
      </trkpt>
      <trkpt lat="42.23639" lon="1.72555">
        <ele>1472.82</ele>
        <time>2021-07-31T15:52:51Z</time>
      </trkpt>
      <trkpt lat="42.2359" lon="1.72615">
        <ele>1468.47</ele>
        <time>2021-07-31T15:52:55Z</time>
      </trkpt>
      <trkpt lat="42.23547" lon="1.7266">
        <ele>1465.33</ele>
        <time>2021-07-31T15:52:58Z</time>
      </trkpt>
      <trkpt lat="42.23508" lon="1.72706">
        <ele>1461.71</ele>
        <time>2021-07-31T15:53:01Z</time>
      </trkpt>
      <trkpt lat="42.23486" lon="1.72739">
        <ele>1459.21</ele>
        <time>2021-07-31T15:53:03Z</time>
      </trkpt>
      <trkpt lat="42.23457" lon="1.72823">
        <ele>1453.56</ele>
        <time>2021-07-31T15:53:07Z</time>
      </trkpt>
      <trkpt lat="42.23444" lon="1.72885">
        <ele>1449.23</ele>
        <time>2021-07-31T15:53:10Z</time>
      </trkpt>
      <trkpt lat="42.23438" lon="1.72913">
        <ele>1446.01</ele>
        <time>2021-07-31T15:53:12Z</time>
      </trkpt>
      <trkpt lat="42.23425" lon="1.72937">
        <ele>1440.95</ele>
        <time>2021-07-31T15:53:15Z</time>
      </trkpt>
      <trkpt lat="42.2341" lon="1.72942">
        <ele>1437.88</ele>
        <time>2021-07-31T15:53:17Z</time>
      </trkpt>
      <trkpt lat="42.2337" lon="1.72935">
        <ele>1434.24</ele>
        <time>2021-07-31T15:53:20Z</time>
      </trkpt>
      <trkpt lat="42.23356" lon="1.72937">
        <ele>1433.18</ele>
        <time>2021-07-31T15:53:21Z</time>
      </trkpt>
      <trkpt lat="42.23289" lon="1.7296">
        <ele>1428.32</ele>
        <time>2021-07-31T15:53:26Z</time>
      </trkpt>
      <trkpt lat="42.23267" lon="1.7297">
        <ele>1426.01</ele>
        <time>2021-07-31T15:53:28Z</time>
      </trkpt>
      <trkpt lat="42.23221" lon="1.72974">
        <ele>1421.68</ele>
        <time>2021-07-31T15:53:32Z</time>
      </trkpt>
      <trkpt lat="42.23192" lon="1.72948">
        <ele>1418.47</ele>
        <time>2021-07-31T15:53:35Z</time>
      </trkpt>
      <trkpt lat="42.23168" lon="1.72884">
        <ele>1414.52</ele>
        <time>2021-07-31T15:53:39Z</time>
      </trkpt>
      <trkpt lat="42.23136" lon="1.72827">
        <ele>1410.41</ele>
        <time>2021-07-31T15:53:43Z</time>
      </trkpt>
      <trkpt lat="42.23123" lon="1.72798">
        <ele>1408.15</ele>
        <time>2021-07-31T15:53:45Z</time>
      </trkpt>
      <trkpt lat="42.23104" lon="1.72723">
        <ele>1403.16</ele>
        <time>2021-07-31T15:53:49Z</time>
      </trkpt>
      <trkpt lat="42.23086" lon="1.72649">
        <ele>1398.08</ele>
        <time>2021-07-31T15:53:53Z</time>
      </trkpt>
      <trkpt lat="42.23048" lon="1.72585">
        <ele>1393.24</ele>
        <time>2021-07-31T15:53:57Z</time>
      </trkpt>
      <trkpt lat="42.23038" lon="1.72571">
        <ele>1392.04</ele>
        <time>2021-07-31T15:53:58Z</time>
      </trkpt>
      <trkpt lat="42.22993" lon="1.72525">
        <ele>1387.02</ele>
        <time>2021-07-31T15:54:02Z</time>
      </trkpt>
      <trkpt lat="42.22953" lon="1.72462">
        <ele>1381.49</ele>
        <time>2021-07-31T15:54:06Z</time>
      </trkpt>
      <trkpt lat="42.22944" lon="1.72448">
        <ele>1380.35</ele>
        <time>2021-07-31T15:54:07Z</time>
      </trkpt>
      <trkpt lat="42.22903" lon="1.72425">
        <ele>1375.14</ele>
        <time>2021-07-31T15:54:11Z</time>
      </trkpt>
      <trkpt lat="42.22891" lon="1.72422">
        <ele>1373.81</ele>
        <time>2021-07-31T15:54:12Z</time>
      </trkpt>
      <trkpt lat="42.22841" lon="1.72389">
        <ele>1368.61</ele>
        <time>2021-07-31T15:54:16Z</time>
      </trkpt>
      <trkpt lat="42.22828" lon="1.72379">
        <ele>1367.36</ele>
        <time>2021-07-31T15:54:17Z</time>
      </trkpt>
      <trkpt lat="42.22775" lon="1.72359">
        <ele>1362.63</ele>
        <time>2021-07-31T15:54:21Z</time>
      </trkpt>
      <trkpt lat="42.22749" lon="1.7236">
        <ele>1358.74</ele>
        <time>2021-07-31T15:54:23Z</time>
      </trkpt>
      <trkpt lat="42.22723" lon="1.72368">
        <ele>1356.2</ele>
        <time>2021-07-31T15:54:25Z</time>
      </trkpt>
      <trkpt lat="42.22701" lon="1.72376">
        <ele>1353.56</ele>
        <time>2021-07-31T15:54:27Z</time>
      </trkpt>
      <trkpt lat="42.22656" lon="1.72365">
        <ele>1348.67</ele>
        <time>2021-07-31T15:54:31Z</time>
      </trkpt>
      <trkpt lat="42.22611" lon="1.72338">
        <ele>1344.23</ele>
        <time>2021-07-31T15:54:35Z</time>
      </trkpt>
      <trkpt lat="42.22593" lon="1.72329">
        <ele>1342</ele>
        <time>2021-07-31T15:54:37Z</time>
      </trkpt>
      <trkpt lat="42.22566" lon="1.72335">
        <ele>1337.4</ele>
        <time>2021-07-31T15:54:41Z</time>
      </trkpt>
      <trkpt lat="42.22596" lon="1.72379">
        <ele>1333.47</ele>
        <time>2021-07-31T15:54:45Z</time>
      </trkpt>
      <trkpt lat="42.22606" lon="1.72392">
        <ele>1332.51</ele>
        <time>2021-07-31T15:54:46Z</time>
      </trkpt>
      <trkpt lat="42.22652" lon="1.7248">
        <ele>1328.3</ele>
        <time>2021-07-31T15:54:51Z</time>
      </trkpt>
      <trkpt lat="42.22703" lon="1.72569">
        <ele>1324.58</ele>
        <time>2021-07-31T15:54:56Z</time>
      </trkpt>
      <trkpt lat="42.2273" lon="1.72614">
        <ele>1321.83</ele>
        <time>2021-07-31T15:54:59Z</time>
      </trkpt>
      <trkpt lat="42.2278" lon="1.72652">
        <ele>1318.46</ele>
        <time>2021-07-31T15:55:03Z</time>
      </trkpt>
      <trkpt lat="42.22817" lon="1.72716">
        <ele>1313.97</ele>
        <time>2021-07-31T15:55:08Z</time>
      </trkpt>
      <trkpt lat="42.22816" lon="1.72787">
        <ele>1310.34</ele>
        <time>2021-07-31T15:55:12Z</time>
      </trkpt>
      <trkpt lat="42.22835" lon="1.72827">
        <ele>1307.73</ele>
        <time>2021-07-31T15:55:15Z</time>
      </trkpt>
      <trkpt lat="42.22856" lon="1.72866">
        <ele>1302.85</ele>
        <time>2021-07-31T15:55:20Z</time>
      </trkpt>
      <trkpt lat="42.22824" lon="1.72857">
        <ele>1300.22</ele>
        <time>2021-07-31T15:55:23Z</time>
      </trkpt>
      <trkpt lat="42.2276" lon="1.728">
        <ele>1297.15</ele>
        <time>2021-07-31T15:55:28Z</time>
      </trkpt>
      <trkpt lat="42.22709" lon="1.72798">
        <ele>1293</ele>
        <time>2021-07-31T15:55:33Z</time>
      </trkpt>
      <trkpt lat="42.2266" lon="1.72814">
        <ele>1288.54</ele>
        <time>2021-07-31T15:55:38Z</time>
      </trkpt>
      <trkpt lat="42.22626" lon="1.72806">
        <ele>1285.82</ele>
        <time>2021-07-31T15:55:41Z</time>
      </trkpt>
      <trkpt lat="42.22579" lon="1.72762">
        <ele>1281.77</ele>
        <time>2021-07-31T15:55:46Z</time>
      </trkpt>
      <trkpt lat="42.22553" lon="1.72718">
        <ele>1279.46</ele>
        <time>2021-07-31T15:55:49Z</time>
      </trkpt>
      <trkpt lat="42.22507" lon="1.727">
        <ele>1275.05</ele>
        <time>2021-07-31T15:55:54Z</time>
      </trkpt>
      <trkpt lat="42.22476" lon="1.72688">
        <ele>1270.66</ele>
        <time>2021-07-31T15:55:59Z</time>
      </trkpt>
      <trkpt lat="42.22454" lon="1.72658">
        <ele>1268.2</ele>
        <time>2021-07-31T15:56:02Z</time>
      </trkpt>
      <trkpt lat="42.22391" lon="1.72618">
        <ele>1264.43</ele>
        <time>2021-07-31T15:56:08Z</time>
      </trkpt>
      <trkpt lat="42.22372" lon="1.72604">
        <ele>1262.77</ele>
        <time>2021-07-31T15:56:10Z</time>
      </trkpt>
      <trkpt lat="42.22339" lon="1.72579">
        <ele>1258.38</ele>
        <time>2021-07-31T15:56:15Z</time>
      </trkpt>
      <trkpt lat="42.22325" lon="1.72522">
        <ele>1254.81</ele>
        <time>2021-07-31T15:56:20Z</time>
      </trkpt>
      <trkpt lat="42.22311" lon="1.72477">
        <ele>1251.2</ele>
        <time>2021-07-31T15:56:24Z</time>
      </trkpt>
      <trkpt lat="42.22312" lon="1.72464">
        <ele>1250.2</ele>
        <time>2021-07-31T15:56:25Z</time>
      </trkpt>
      <trkpt lat="42.22309" lon="1.7243">
        <ele>1245.25</ele>
        <time>2021-07-31T15:56:30Z</time>
      </trkpt>
      <trkpt lat="42.22307" lon="1.72431">
        <ele>1240.95</ele>
        <time>2021-07-31T15:56:36Z</time>
      </trkpt>
      <trkpt lat="42.22306" lon="1.7243">
        <ele>1240.25</ele>
        <time>2021-07-31T15:56:38Z</time>
      </trkpt>
      <trkpt lat="42.223" lon="1.72423">
        <ele>1239.5</ele>
        <time>2021-07-31T15:56:41Z</time>
      </trkpt>
      <trkpt lat="42.22303" lon="1.72359">
        <ele>1239</ele>
        <time>2021-07-31T15:56:48Z</time>
      </trkpt>
      <trkpt lat="42.22269" lon="1.72249">
        <ele>1241.92</ele>
        <time>2021-07-31T15:56:55Z</time>
      </trkpt>
      <trkpt lat="42.22246" lon="1.72226">
        <ele>1243.05</ele>
        <time>2021-07-31T15:56:57Z</time>
      </trkpt>
      <trkpt lat="42.22182" lon="1.72184">
        <ele>1246.2</ele>
        <time>2021-07-31T15:57:02Z</time>
      </trkpt>
      <trkpt lat="42.22128" lon="1.72106">
        <ele>1250.27</ele>
        <time>2021-07-31T15:57:08Z</time>
      </trkpt>
      <trkpt lat="42.22128" lon="1.7203">
        <ele>1253.84</ele>
        <time>2021-07-31T15:57:12Z</time>
      </trkpt>
      <trkpt lat="42.22131" lon="1.71918">
        <ele>1259.5</ele>
        <time>2021-07-31T15:57:17Z</time>
      </trkpt>
      <trkpt lat="42.22134" lon="1.71848">
        <ele>1263.21</ele>
        <time>2021-07-31T15:57:20Z</time>
      </trkpt>
      <trkpt lat="42.2211" lon="1.71767">
        <ele>1268.8</ele>
        <time>2021-07-31T15:57:24Z</time>
      </trkpt>
      <trkpt lat="42.22058" lon="1.71747">
        <ele>1273.12</ele>
        <time>2021-07-31T15:57:27Z</time>
      </trkpt>
      <trkpt lat="42.22011" lon="1.71781">
        <ele>1277.34</ele>
        <time>2021-07-31T15:57:30Z</time>
      </trkpt>
      <trkpt lat="42.21958" lon="1.71853">
        <ele>1282.98</ele>
        <time>2021-07-31T15:57:34Z</time>
      </trkpt>
      <trkpt lat="42.21916" lon="1.71908">
        <ele>1287.35</ele>
        <time>2021-07-31T15:57:37Z</time>
      </trkpt>
      <trkpt lat="42.21891" lon="1.71943">
        <ele>1291.94</ele>
        <time>2021-07-31T15:57:39Z</time>
      </trkpt>
      <trkpt lat="42.21879" lon="1.71959">
        <ele>1293.47</ele>
        <time>2021-07-31T15:57:40Z</time>
      </trkpt>
      <trkpt lat="42.2182" lon="1.71991">
        <ele>1299.27</ele>
        <time>2021-07-31T15:57:44Z</time>
      </trkpt>
      <trkpt lat="42.21788" lon="1.71977">
        <ele>1302.17</ele>
        <time>2021-07-31T15:57:46Z</time>
      </trkpt>
      <trkpt lat="42.21724" lon="1.71935">
        <ele>1307.36</ele>
        <time>2021-07-31T15:57:50Z</time>
      </trkpt>
      <trkpt lat="42.21681" lon="1.71905">
        <ele>1310.12</ele>
        <time>2021-07-31T15:57:53Z</time>
      </trkpt>
      <trkpt lat="42.21644" lon="1.71836">
        <ele>1311.86</ele>
        <time>2021-07-31T15:57:57Z</time>
      </trkpt>
      <trkpt lat="42.21589" lon="1.71657">
        <ele>1310.68</ele>
        <time>2021-07-31T15:58:06Z</time>
      </trkpt>
      <trkpt lat="42.21551" lon="1.71579">
        <ele>1307.05</ele>
        <time>2021-07-31T15:58:11Z</time>
      </trkpt>
      <trkpt lat="42.21529" lon="1.71507">
        <ele>1303.51</ele>
        <time>2021-07-31T15:58:15Z</time>
      </trkpt>
      <trkpt lat="42.2151" lon="1.71431">
        <ele>1300.22</ele>
        <time>2021-07-31T15:58:19Z</time>
      </trkpt>
      <trkpt lat="42.21479" lon="1.7134">
        <ele>1297.2</ele>
        <time>2021-07-31T15:58:24Z</time>
      </trkpt>
      <trkpt lat="42.21467" lon="1.71304">
        <ele>1296.68</ele>
        <time>2021-07-31T15:58:26Z</time>
      </trkpt>
      <trkpt lat="42.21418" lon="1.71107">
        <ele>1294.61</ele>
        <time>2021-07-31T15:58:36Z</time>
      </trkpt>
      <trkpt lat="42.21413" lon="1.71086">
        <ele>1294.02</ele>
        <time>2021-07-31T15:58:37Z</time>
      </trkpt>
      <trkpt lat="42.21403" lon="1.70978">
        <ele>1290.28</ele>
        <time>2021-07-31T15:58:42Z</time>
      </trkpt>
      <trkpt lat="42.21403" lon="1.70914">
        <ele>1288.04</ele>
        <time>2021-07-31T15:58:45Z</time>
      </trkpt>
      <trkpt lat="42.21425" lon="1.70813">
        <ele>1285.28</ele>
        <time>2021-07-31T15:58:50Z</time>
      </trkpt>
      <trkpt lat="42.21437" lon="1.7066">
        <ele>1286.74</ele>
        <time>2021-07-31T15:58:57Z</time>
      </trkpt>
      <trkpt lat="42.21437" lon="1.70577">
        <ele>1289.84</ele>
        <time>2021-07-31T15:59:01Z</time>
      </trkpt>
      <trkpt lat="42.21432" lon="1.70497">
        <ele>1293.48</ele>
        <time>2021-07-31T15:59:05Z</time>
      </trkpt>
      <trkpt lat="42.21433" lon="1.70435">
        <ele>1296.42</ele>
        <time>2021-07-31T15:59:08Z</time>
      </trkpt>
      <trkpt lat="42.21426" lon="1.70354">
        <ele>1300.8</ele>
        <time>2021-07-31T15:59:12Z</time>
      </trkpt>
      <trkpt lat="42.21412" lon="1.70295">
        <ele>1304.11</ele>
        <time>2021-07-31T15:59:15Z</time>
      </trkpt>
      <trkpt lat="42.21401" lon="1.70239">
        <ele>1307.6</ele>
        <time>2021-07-31T15:59:18Z</time>
      </trkpt>
      <trkpt lat="42.21405" lon="1.70165">
        <ele>1313.16</ele>
        <time>2021-07-31T15:59:22Z</time>
      </trkpt>
      <trkpt lat="42.21411" lon="1.70113">
        <ele>1316.34</ele>
        <time>2021-07-31T15:59:25Z</time>
      </trkpt>
      <trkpt lat="42.21422" lon="1.70046">
        <ele>1319.98</ele>
        <time>2021-07-31T15:59:29Z</time>
      </trkpt>
      <trkpt lat="42.21475" lon="1.69969">
        <ele>1322.97</ele>
        <time>2021-07-31T15:59:35Z</time>
      </trkpt>
      <trkpt lat="42.21534" lon="1.69974">
        <ele>1324.07</ele>
        <time>2021-07-31T15:59:39Z</time>
      </trkpt>
      <trkpt lat="42.21574" lon="1.70009">
        <ele>1324.83</ele>
        <time>2021-07-31T15:59:42Z</time>
      </trkpt>
      <trkpt lat="42.21643" lon="1.70083">
        <ele>1326.95</ele>
        <time>2021-07-31T15:59:48Z</time>
      </trkpt>
      <trkpt lat="42.21719" lon="1.70101">
        <ele>1327.36</ele>
        <time>2021-07-31T15:59:54Z</time>
      </trkpt>
      <trkpt lat="42.21756" lon="1.70051">
        <ele>1327.28</ele>
        <time>2021-07-31T15:59:58Z</time>
      </trkpt>
      <trkpt lat="42.21793" lon="1.69934">
        <ele>1326.99</ele>
        <time>2021-07-31T16:00:05Z</time>
      </trkpt>
      <trkpt lat="42.21795" lon="1.69916">
        <ele>1326.67</ele>
        <time>2021-07-31T16:00:06Z</time>
      </trkpt>
      <trkpt lat="42.21795" lon="1.69897">
        <ele>1326.26</ele>
        <time>2021-07-31T16:00:07Z</time>
      </trkpt>
      <trkpt lat="42.21795" lon="1.69877">
        <ele>1325.87</ele>
        <time>2021-07-31T16:00:08Z</time>
      </trkpt>
      <trkpt lat="42.21794" lon="1.69857">
        <ele>1325.45</ele>
        <time>2021-07-31T16:00:09Z</time>
      </trkpt>
      <trkpt lat="42.21782" lon="1.69756">
        <ele>1322.41</ele>
        <time>2021-07-31T16:00:14Z</time>
      </trkpt>
      <trkpt lat="42.21782" lon="1.69738">
        <ele>1321.7</ele>
        <time>2021-07-31T16:00:15Z</time>
      </trkpt>
      <trkpt lat="42.21811" lon="1.69664">
        <ele>1319.13</ele>
        <time>2021-07-31T16:00:20Z</time>
      </trkpt>
      <trkpt lat="42.21823" lon="1.69654">
        <ele>1318.98</ele>
        <time>2021-07-31T16:00:21Z</time>
      </trkpt>
      <trkpt lat="42.21847" lon="1.69635">
        <ele>1318.88</ele>
        <time>2021-07-31T16:00:23Z</time>
      </trkpt>
      <trkpt lat="42.21883" lon="1.69544">
        <ele>1321.31</ele>
        <time>2021-07-31T16:00:29Z</time>
      </trkpt>
      <trkpt lat="42.21873" lon="1.69491">
        <ele>1323.67</ele>
        <time>2021-07-31T16:00:32Z</time>
      </trkpt>
      <trkpt lat="42.21865" lon="1.69456">
        <ele>1325.49</ele>
        <time>2021-07-31T16:00:34Z</time>
      </trkpt>
      <trkpt lat="42.21869" lon="1.69389">
        <ele>1329.47</ele>
        <time>2021-07-31T16:00:38Z</time>
      </trkpt>
      <trkpt lat="42.21874" lon="1.69373">
        <ele>1330.45</ele>
        <time>2021-07-31T16:00:39Z</time>
      </trkpt>
      <trkpt lat="42.21885" lon="1.69342">
        <ele>1332.34</ele>
        <time>2021-07-31T16:00:41Z</time>
      </trkpt>
      <trkpt lat="42.21918" lon="1.69292">
        <ele>1336.02</ele>
        <time>2021-07-31T16:00:45Z</time>
      </trkpt>
      <trkpt lat="42.2195" lon="1.69261">
        <ele>1338.26</ele>
        <time>2021-07-31T16:00:48Z</time>
      </trkpt>
      <trkpt lat="42.21981" lon="1.69167">
        <ele>1340.08</ele>
        <time>2021-07-31T16:00:54Z</time>
      </trkpt>
      <trkpt lat="42.21974" lon="1.69131">
        <ele>1339.7</ele>
        <time>2021-07-31T16:00:56Z</time>
      </trkpt>
      <trkpt lat="42.21947" lon="1.6904">
        <ele>1338.45</ele>
        <time>2021-07-31T16:01:01Z</time>
      </trkpt>
      <trkpt lat="42.21957" lon="1.68956">
        <ele>1338.81</ele>
        <time>2021-07-31T16:01:06Z</time>
      </trkpt>
      <trkpt lat="42.21977" lon="1.68932">
        <ele>1339.65</ele>
        <time>2021-07-31T16:01:08Z</time>
      </trkpt>
      <trkpt lat="42.22009" lon="1.68899">
        <ele>1341.42</ele>
        <time>2021-07-31T16:01:11Z</time>
      </trkpt>
      <trkpt lat="42.22042" lon="1.68801">
        <ele>1345.59</ele>
        <time>2021-07-31T16:01:17Z</time>
      </trkpt>
      <trkpt lat="42.22045" lon="1.68744">
        <ele>1347.79</ele>
        <time>2021-07-31T16:01:20Z</time>
      </trkpt>
      <trkpt lat="42.22086" lon="1.68652">
        <ele>1352.31</ele>
        <time>2021-07-31T16:01:26Z</time>
      </trkpt>
      <trkpt lat="42.22107" lon="1.6863">
        <ele>1354.15</ele>
        <time>2021-07-31T16:01:28Z</time>
      </trkpt>
      <trkpt lat="42.22135" lon="1.68574">
        <ele>1357.76</ele>
        <time>2021-07-31T16:01:32Z</time>
      </trkpt>
      <trkpt lat="42.22149" lon="1.68527">
        <ele>1360.27</ele>
        <time>2021-07-31T16:01:35Z</time>
      </trkpt>
      <trkpt lat="42.22224" lon="1.68397">
        <ele>1363.99</ele>
        <time>2021-07-31T16:01:44Z</time>
      </trkpt>
      <trkpt lat="42.22241" lon="1.68367">
        <ele>1364.16</ele>
        <time>2021-07-31T16:01:46Z</time>
      </trkpt>
      <trkpt lat="42.22249" lon="1.68285">
        <ele>1365.23</ele>
        <time>2021-07-31T16:01:51Z</time>
      </trkpt>
      <trkpt lat="42.22245" lon="1.68251">
        <ele>1366.08</ele>
        <time>2021-07-31T16:01:53Z</time>
      </trkpt>
      <trkpt lat="42.22247" lon="1.68219">
        <ele>1367.03</ele>
        <time>2021-07-31T16:01:55Z</time>
      </trkpt>
      <trkpt lat="42.22251" lon="1.68204">
        <ele>1367.58</ele>
        <time>2021-07-31T16:01:56Z</time>
      </trkpt>
      <trkpt lat="42.22258" lon="1.6819">
        <ele>1368.12</ele>
        <time>2021-07-31T16:01:57Z</time>
      </trkpt>
      <trkpt lat="42.22267" lon="1.68176">
        <ele>1368.74</ele>
        <time>2021-07-31T16:01:58Z</time>
      </trkpt>
      <trkpt lat="42.22291" lon="1.68155">
        <ele>1370.11</ele>
        <time>2021-07-31T16:02:00Z</time>
      </trkpt>
      <trkpt lat="42.22368" lon="1.68094">
        <ele>1374.35</ele>
        <time>2021-07-31T16:02:07Z</time>
      </trkpt>
      <trkpt lat="42.2242" lon="1.68052">
        <ele>1377.53</ele>
        <time>2021-07-31T16:02:12Z</time>
      </trkpt>
      <trkpt lat="42.22462" lon="1.6802">
        <ele>1380.6</ele>
        <time>2021-07-31T16:02:16Z</time>
      </trkpt>
      <trkpt lat="42.22503" lon="1.67987">
        <ele>1383.77</ele>
        <time>2021-07-31T16:02:20Z</time>
      </trkpt>
      <trkpt lat="42.22523" lon="1.67971">
        <ele>1385.42</ele>
        <time>2021-07-31T16:02:22Z</time>
      </trkpt>
      <trkpt lat="42.22582" lon="1.6796">
        <ele>1389.27</ele>
        <time>2021-07-31T16:02:27Z</time>
      </trkpt>
      <trkpt lat="42.22595" lon="1.67965">
        <ele>1389.98</ele>
        <time>2021-07-31T16:02:28Z</time>
      </trkpt>
      <trkpt lat="42.2262" lon="1.67974">
        <ele>1391.41</ele>
        <time>2021-07-31T16:02:30Z</time>
      </trkpt>
      <trkpt lat="42.22664" lon="1.67967">
        <ele>1395.19</ele>
        <time>2021-07-31T16:02:34Z</time>
      </trkpt>
      <trkpt lat="42.22704" lon="1.67903">
        <ele>1398.59</ele>
        <time>2021-07-31T16:02:39Z</time>
      </trkpt>
      <trkpt lat="42.22706" lon="1.67885">
        <ele>1399.29</ele>
        <time>2021-07-31T16:02:40Z</time>
      </trkpt>
      <trkpt lat="42.22716" lon="1.67772">
        <ele>1403.31</ele>
        <time>2021-07-31T16:02:46Z</time>
      </trkpt>
      <trkpt lat="42.22725" lon="1.67701">
        <ele>1406.15</ele>
        <time>2021-07-31T16:02:50Z</time>
      </trkpt>
      <trkpt lat="42.22746" lon="1.67634">
        <ele>1409</ele>
        <time>2021-07-31T16:02:54Z</time>
      </trkpt>
      <trkpt lat="42.22809" lon="1.67536">
        <ele>1413.4</ele>
        <time>2021-07-31T16:03:00Z</time>
      </trkpt>
      <trkpt lat="42.22869" lon="1.67453">
        <ele>1416.71</ele>
        <time>2021-07-31T16:03:05Z</time>
      </trkpt>
      <trkpt lat="42.22927" lon="1.67306">
        <ele>1420.52</ele>
        <time>2021-07-31T16:03:12Z</time>
      </trkpt>
      <trkpt lat="42.22995" lon="1.6714">
        <ele>1423.26</ele>
        <time>2021-07-31T16:03:21Z</time>
      </trkpt>
      <trkpt lat="42.23097" lon="1.66944">
        <ele>1422.96</ele>
        <time>2021-07-31T16:03:31Z</time>
      </trkpt>
      <trkpt lat="42.23158" lon="1.6685">
        <ele>1420.36</ele>
        <time>2021-07-31T16:03:38Z</time>
      </trkpt>
      <trkpt lat="42.23222" lon="1.6676">
        <ele>1417.21</ele>
        <time>2021-07-31T16:03:47Z</time>
      </trkpt>
      <trkpt lat="42.23302" lon="1.66635">
        <ele>1414.18</ele>
        <time>2021-07-31T16:03:58Z</time>
      </trkpt>
      <trkpt lat="42.23371" lon="1.66506">
        <ele>1411.13</ele>
        <time>2021-07-31T16:04:08Z</time>
      </trkpt>
      <trkpt lat="42.23415" lon="1.66415">
        <ele>1407.92</ele>
        <time>2021-07-31T16:04:14Z</time>
      </trkpt>
      <trkpt lat="42.23437" lon="1.66367">
        <ele>1404.09</ele>
        <time>2021-07-31T16:04:18Z</time>
      </trkpt>
      <trkpt lat="42.23473" lon="1.66323">
        <ele>1400.12</ele>
        <time>2021-07-31T16:04:25Z</time>
      </trkpt>
      <trkpt lat="42.23474" lon="1.66316">
        <ele>1399.74</ele>
        <time>2021-07-31T16:04:26Z</time>
      </trkpt>
      <trkpt lat="42.23481" lon="1.66286">
        <ele>1398.96</ele>
        <time>2021-07-31T16:04:31Z</time>
      </trkpt>
      <trkpt lat="42.23536" lon="1.66212">
        <ele>1400.12</ele>
        <time>2021-07-31T16:04:41Z</time>
      </trkpt>
      <trkpt lat="42.23592" lon="1.66146">
        <ele>1403.03</ele>
        <time>2021-07-31T16:04:51Z</time>
      </trkpt>
      <trkpt lat="42.2365" lon="1.66089">
        <ele>1404.56</ele>
        <time>2021-07-31T16:05:01Z</time>
      </trkpt>
      <trkpt lat="42.23684" lon="1.66036">
        <ele>1407.05</ele>
        <time>2021-07-31T16:05:11Z</time>
      </trkpt>
      <trkpt lat="42.23699" lon="1.66031">
        <ele>1408.71</ele>
        <time>2021-07-31T16:05:21Z</time>
      </trkpt>
      <trkpt lat="42.23723" lon="1.66009">
        <ele>1408.64</ele>
        <time>2021-07-31T16:05:31Z</time>
      </trkpt>
      <trkpt lat="42.23779" lon="1.65972">
        <ele>1408.55</ele>
        <time>2021-07-31T16:05:46Z</time>
      </trkpt>
      <trkpt lat="42.23843" lon="1.65933">
        <ele>1408.01</ele>
        <time>2021-07-31T16:05:53Z</time>
      </trkpt>
      <trkpt lat="42.23972" lon="1.65875">
        <ele>1410.97</ele>
        <time>2021-07-31T16:06:05Z</time>
      </trkpt>
      <trkpt lat="42.24019" lon="1.6585">
        <ele>1414.35</ele>
        <time>2021-07-31T16:06:09Z</time>
      </trkpt>
      <trkpt lat="42.24066" lon="1.65828">
        <ele>1417.87</ele>
        <time>2021-07-31T16:06:13Z</time>
      </trkpt>
      <trkpt lat="42.24115" lon="1.65808">
        <ele>1421.78</ele>
        <time>2021-07-31T16:06:17Z</time>
      </trkpt>
      <trkpt lat="42.24167" lon="1.65786">
        <ele>1425.75</ele>
        <time>2021-07-31T16:06:21Z</time>
      </trkpt>
      <trkpt lat="42.24207" lon="1.65772">
        <ele>1428.83</ele>
        <time>2021-07-31T16:06:24Z</time>
      </trkpt>
      <trkpt lat="42.24262" lon="1.65774">
        <ele>1432.9</ele>
        <time>2021-07-31T16:06:28Z</time>
      </trkpt>
      <trkpt lat="42.24297" lon="1.65798">
        <ele>1435.95</ele>
        <time>2021-07-31T16:06:31Z</time>
      </trkpt>
      <trkpt lat="42.24312" lon="1.65826">
        <ele>1438.04</ele>
        <time>2021-07-31T16:06:33Z</time>
      </trkpt>
      <trkpt lat="42.2435" lon="1.65893">
        <ele>1443.37</ele>
        <time>2021-07-31T16:06:38Z</time>
      </trkpt>
      <trkpt lat="42.24385" lon="1.6593">
        <ele>1446.46</ele>
        <time>2021-07-31T16:06:41Z</time>
      </trkpt>
      <trkpt lat="42.24428" lon="1.65962">
        <ele>1449.87</ele>
        <time>2021-07-31T16:06:44Z</time>
      </trkpt>
      <trkpt lat="42.2447" lon="1.6599">
        <ele>1453.75</ele>
        <time>2021-07-31T16:06:47Z</time>
      </trkpt>
      <trkpt lat="42.24505" lon="1.66006">
        <ele>1457.78</ele>
        <time>2021-07-31T16:06:50Z</time>
      </trkpt>
      <trkpt lat="42.24518" lon="1.66022">
        <ele>1461.05</ele>
        <time>2021-07-31T16:06:53Z</time>
      </trkpt>
      <trkpt lat="42.24513" lon="1.66023">
        <ele>1462.05</ele>
        <time>2021-07-31T16:06:54Z</time>
      </trkpt>
      <trkpt lat="42.24494" lon="1.66021">
        <ele>1463.75</ele>
        <time>2021-07-31T16:06:56Z</time>
      </trkpt>
      <trkpt lat="42.24471" lon="1.66013">
        <ele>1465.5</ele>
        <time>2021-07-31T16:06:58Z</time>
      </trkpt>
      <trkpt lat="42.24403" lon="1.66005">
        <ele>1469.54</ele>
        <time>2021-07-31T16:07:03Z</time>
      </trkpt>
      <trkpt lat="42.24346" lon="1.65984">
        <ele>1472.7</ele>
        <time>2021-07-31T16:07:07Z</time>
      </trkpt>
      <trkpt lat="42.24311" lon="1.65962">
        <ele>1474.67</ele>
        <time>2021-07-31T16:07:10Z</time>
      </trkpt>
      <trkpt lat="42.24287" lon="1.6597">
        <ele>1476.95</ele>
        <time>2021-07-31T16:07:15Z</time>
      </trkpt>
      <trkpt lat="42.24299" lon="1.65982">
        <ele>1477.53</ele>
        <time>2021-07-31T16:07:17Z</time>
      </trkpt>
      <trkpt lat="42.2438" lon="1.66042">
        <ele>1480.94</ele>
        <time>2021-07-31T16:07:25Z</time>
      </trkpt>
      <trkpt lat="42.24436" lon="1.66075">
        <ele>1484.22</ele>
        <time>2021-07-31T16:07:29Z</time>
      </trkpt>
      <trkpt lat="42.24484" lon="1.66106">
        <ele>1487.33</ele>
        <time>2021-07-31T16:07:32Z</time>
      </trkpt>
      <trkpt lat="42.24527" lon="1.66149">
        <ele>1492.16</ele>
        <time>2021-07-31T16:07:35Z</time>
      </trkpt>
      <trkpt lat="42.24553" lon="1.6618">
        <ele>1494.74</ele>
        <time>2021-07-31T16:07:37Z</time>
      </trkpt>
      <trkpt lat="42.24569" lon="1.66234">
        <ele>1498.44</ele>
        <time>2021-07-31T16:07:40Z</time>
      </trkpt>
      <trkpt lat="42.24588" lon="1.66266">
        <ele>1501.94</ele>
        <time>2021-07-31T16:07:43Z</time>
      </trkpt>
      <trkpt lat="42.24625" lon="1.66212">
        <ele>1506.7</ele>
        <time>2021-07-31T16:07:48Z</time>
      </trkpt>
      <trkpt lat="42.24646" lon="1.6613">
        <ele>1510.07</ele>
        <time>2021-07-31T16:07:52Z</time>
      </trkpt>
      <trkpt lat="42.24651" lon="1.66091">
        <ele>1512.07</ele>
        <time>2021-07-31T16:07:54Z</time>
      </trkpt>
      <trkpt lat="42.24676" lon="1.66016">
        <ele>1516.24</ele>
        <time>2021-07-31T16:07:58Z</time>
      </trkpt>
      <trkpt lat="42.24707" lon="1.65965">
        <ele>1519.52</ele>
        <time>2021-07-31T16:08:01Z</time>
      </trkpt>
      <trkpt lat="42.24752" lon="1.65931">
        <ele>1523.03</ele>
        <time>2021-07-31T16:08:04Z</time>
      </trkpt>
      <trkpt lat="42.24769" lon="1.65924">
        <ele>1524.22</ele>
        <time>2021-07-31T16:08:05Z</time>
      </trkpt>
      <trkpt lat="42.24837" lon="1.65899">
        <ele>1529.44</ele>
        <time>2021-07-31T16:08:09Z</time>
      </trkpt>
      <trkpt lat="42.24871" lon="1.65886">
        <ele>1532.13</ele>
        <time>2021-07-31T16:08:11Z</time>
      </trkpt>
      <trkpt lat="42.24917" lon="1.65849">
        <ele>1536.53</ele>
        <time>2021-07-31T16:08:14Z</time>
      </trkpt>
      <trkpt lat="42.24939" lon="1.65812">
        <ele>1539.42</ele>
        <time>2021-07-31T16:08:16Z</time>
      </trkpt>
      <trkpt lat="42.2499" lon="1.65747">
        <ele>1545.78</ele>
        <time>2021-07-31T16:08:21Z</time>
      </trkpt>
      <trkpt lat="42.25002" lon="1.65742">
        <ele>1546.99</ele>
        <time>2021-07-31T16:08:22Z</time>
      </trkpt>
      <trkpt lat="42.25028" lon="1.65734">
        <ele>1549.36</ele>
        <time>2021-07-31T16:08:24Z</time>
      </trkpt>
      <trkpt lat="42.25054" lon="1.65697">
        <ele>1553.73</ele>
        <time>2021-07-31T16:08:28Z</time>
      </trkpt>
      <trkpt lat="42.25039" lon="1.6566">
        <ele>1556.48</ele>
        <time>2021-07-31T16:08:31Z</time>
      </trkpt>
      <trkpt lat="42.25002" lon="1.65589">
        <ele>1560.26</ele>
        <time>2021-07-31T16:08:36Z</time>
      </trkpt>
      <trkpt lat="42.24982" lon="1.65549">
        <ele>1562.61</ele>
        <time>2021-07-31T16:08:39Z</time>
      </trkpt>
      <trkpt lat="42.24975" lon="1.65495">
        <ele>1565.35</ele>
        <time>2021-07-31T16:08:43Z</time>
      </trkpt>
      <trkpt lat="42.24976" lon="1.65458">
        <ele>1567.6</ele>
        <time>2021-07-31T16:08:46Z</time>
      </trkpt>
      <trkpt lat="42.24968" lon="1.65408">
        <ele>1571.77</ele>
        <time>2021-07-31T16:08:51Z</time>
      </trkpt>
      <trkpt lat="42.24967" lon="1.65399">
        <ele>1572.54</ele>
        <time>2021-07-31T16:08:52Z</time>
      </trkpt>
      <trkpt lat="42.24969" lon="1.65356">
        <ele>1576.88</ele>
        <time>2021-07-31T16:08:58Z</time>
      </trkpt>
      <trkpt lat="42.24967" lon="1.65302">
        <ele>1580.23</ele>
        <time>2021-07-31T16:09:04Z</time>
      </trkpt>
      <trkpt lat="42.24972" lon="1.65246">
        <ele>1583.53</ele>
        <time>2021-07-31T16:09:09Z</time>
      </trkpt>
      <trkpt lat="42.24977" lon="1.65206">
        <ele>1586</ele>
        <time>2021-07-31T16:09:12Z</time>
      </trkpt>
      <trkpt lat="42.24976" lon="1.65162">
        <ele>1590.41</ele>
        <time>2021-07-31T16:09:16Z</time>
      </trkpt>
      <trkpt lat="42.24992" lon="1.651">
        <ele>1594.83</ele>
        <time>2021-07-31T16:09:21Z</time>
      </trkpt>
      <trkpt lat="42.25018" lon="1.65074">
        <ele>1597.99</ele>
        <time>2021-07-31T16:09:24Z</time>
      </trkpt>
      <trkpt lat="42.25041" lon="1.65063">
        <ele>1600.32</ele>
        <time>2021-07-31T16:09:26Z</time>
      </trkpt>
      <trkpt lat="42.25092" lon="1.65048">
        <ele>1604.25</ele>
        <time>2021-07-31T16:09:30Z</time>
      </trkpt>
      <trkpt lat="42.25113" lon="1.65037">
        <ele>1605.12</ele>
        <time>2021-07-31T16:09:32Z</time>
      </trkpt>
      <trkpt lat="42.25138" lon="1.64998">
        <ele>1605.16</ele>
        <time>2021-07-31T16:09:35Z</time>
      </trkpt>
      <trkpt lat="42.25152" lon="1.64964">
        <ele>1604.82</ele>
        <time>2021-07-31T16:09:37Z</time>
      </trkpt>
      <trkpt lat="42.25164" lon="1.64912">
        <ele>1603.49</ele>
        <time>2021-07-31T16:09:40Z</time>
      </trkpt>
      <trkpt lat="42.25195" lon="1.64864">
        <ele>1599.49</ele>
        <time>2021-07-31T16:09:44Z</time>
      </trkpt>
      <trkpt lat="42.25215" lon="1.64837">
        <ele>1597.6</ele>
        <time>2021-07-31T16:09:46Z</time>
      </trkpt>
      <trkpt lat="42.25262" lon="1.64739">
        <ele>1592.96</ele>
        <time>2021-07-31T16:09:51Z</time>
      </trkpt>
      <trkpt lat="42.25314" lon="1.64664">
        <ele>1589</ele>
        <time>2021-07-31T16:09:55Z</time>
      </trkpt>
      <trkpt lat="42.25347" lon="1.64618">
        <ele>1585.48</ele>
        <time>2021-07-31T16:09:58Z</time>
      </trkpt>
      <trkpt lat="42.25353" lon="1.64564">
        <ele>1580.14</ele>
        <time>2021-07-31T16:10:02Z</time>
      </trkpt>
      <trkpt lat="42.25381" lon="1.64523">
        <ele>1573.63</ele>
        <time>2021-07-31T16:10:07Z</time>
      </trkpt>
      <trkpt lat="42.25392" lon="1.64524">
        <ele>1572.55</ele>
        <time>2021-07-31T16:10:08Z</time>
      </trkpt>
      <trkpt lat="42.25431" lon="1.64527">
        <ele>1569.9</ele>
        <time>2021-07-31T16:10:11Z</time>
      </trkpt>
      <trkpt lat="42.25502" lon="1.64493">
        <ele>1565.67</ele>
        <time>2021-07-31T16:10:16Z</time>
      </trkpt>
      <trkpt lat="42.25569" lon="1.64452">
        <ele>1562.57</ele>
        <time>2021-07-31T16:10:20Z</time>
      </trkpt>
      <trkpt lat="42.25611" lon="1.64415">
        <ele>1559.96</ele>
        <time>2021-07-31T16:10:23Z</time>
      </trkpt>
      <trkpt lat="42.25654" lon="1.64323">
        <ele>1555.93</ele>
        <time>2021-07-31T16:10:27Z</time>
      </trkpt>
      <trkpt lat="42.25693" lon="1.64222">
        <ele>1551.94</ele>
        <time>2021-07-31T16:10:31Z</time>
      </trkpt>
      <trkpt lat="42.25701" lon="1.64197">
        <ele>1550.77</ele>
        <time>2021-07-31T16:10:32Z</time>
      </trkpt>
      <trkpt lat="42.25746" lon="1.64119">
        <ele>1545.4</ele>
        <time>2021-07-31T16:10:36Z</time>
      </trkpt>
      <trkpt lat="42.25764" lon="1.64076">
        <ele>1542.27</ele>
        <time>2021-07-31T16:10:38Z</time>
      </trkpt>
      <trkpt lat="42.25791" lon="1.63978">
        <ele>1536.37</ele>
        <time>2021-07-31T16:10:42Z</time>
      </trkpt>
      <trkpt lat="42.25795" lon="1.63951">
        <ele>1535.01</ele>
        <time>2021-07-31T16:10:43Z</time>
      </trkpt>
      <trkpt lat="42.25802" lon="1.63849">
        <ele>1529.66</ele>
        <time>2021-07-31T16:10:47Z</time>
      </trkpt>
      <trkpt lat="42.25803" lon="1.63801">
        <ele>1526.8</ele>
        <time>2021-07-31T16:10:49Z</time>
      </trkpt>
      <trkpt lat="42.25798" lon="1.63737">
        <ele>1520.24</ele>
        <time>2021-07-31T16:10:52Z</time>
      </trkpt>
      <trkpt lat="42.25794" lon="1.63721">
        <ele>1520.24</ele>
        <time>2021-07-31T16:10:53Z</time>
      </trkpt>
      <trkpt lat="42.25799" lon="1.63698">
        <ele>1512.85</ele>
        <time>2021-07-31T16:10:56Z</time>
      </trkpt>
      <trkpt lat="42.25807" lon="1.63709">
        <ele>1509.02</ele>
        <time>2021-07-31T16:10:58Z</time>
      </trkpt>
      <trkpt lat="42.25816" lon="1.63736">
        <ele>1505.71</ele>
        <time>2021-07-31T16:11:00Z</time>
      </trkpt>
      <trkpt lat="42.25823" lon="1.63752">
        <ele>1504.37</ele>
        <time>2021-07-31T16:11:01Z</time>
      </trkpt>
      <trkpt lat="42.25856" lon="1.63836">
        <ele>1499.87</ele>
        <time>2021-07-31T16:11:05Z</time>
      </trkpt>
      <trkpt lat="42.25869" lon="1.63932">
        <ele>1495.43</ele>
        <time>2021-07-31T16:11:09Z</time>
      </trkpt>
      <trkpt lat="42.25864" lon="1.6398">
        <ele>1491.53</ele>
        <time>2021-07-31T16:11:12Z</time>
      </trkpt>
      <trkpt lat="42.25872" lon="1.64">
        <ele>1487.5</ele>
        <time>2021-07-31T16:11:15Z</time>
      </trkpt>
      <trkpt lat="42.25876" lon="1.63986">
        <ele>1483.86</ele>
        <time>2021-07-31T16:11:18Z</time>
      </trkpt>
      <trkpt lat="42.25898" lon="1.63924">
        <ele>1480.79</ele>
        <time>2021-07-31T16:11:21Z</time>
      </trkpt>
      <trkpt lat="42.2591" lon="1.639">
        <ele>1479.9</ele>
        <time>2021-07-31T16:11:22Z</time>
      </trkpt>
      <trkpt lat="42.25925" lon="1.6384">
        <ele>1477.33</ele>
        <time>2021-07-31T16:11:25Z</time>
      </trkpt>
      <trkpt lat="42.25916" lon="1.6375">
        <ele>1473.35</ele>
        <time>2021-07-31T16:11:29Z</time>
      </trkpt>
      <trkpt lat="42.25913" lon="1.63714">
        <ele>1471.01</ele>
        <time>2021-07-31T16:11:31Z</time>
      </trkpt>
      <trkpt lat="42.25931" lon="1.63689">
        <ele>1465.2</ele>
        <time>2021-07-31T16:11:35Z</time>
      </trkpt>
      <trkpt lat="42.25941" lon="1.63715">
        <ele>1462.14</ele>
        <time>2021-07-31T16:11:37Z</time>
      </trkpt>
      <trkpt lat="42.25963" lon="1.63797">
        <ele>1457.37</ele>
        <time>2021-07-31T16:11:41Z</time>
      </trkpt>
      <trkpt lat="42.25987" lon="1.63901">
        <ele>1453.41</ele>
        <time>2021-07-31T16:11:45Z</time>
      </trkpt>
      <trkpt lat="42.25999" lon="1.63985">
        <ele>1450.18</ele>
        <time>2021-07-31T16:11:48Z</time>
      </trkpt>
      <trkpt lat="42.26015" lon="1.64055">
        <ele>1446.14</ele>
        <time>2021-07-31T16:11:51Z</time>
      </trkpt>
      <trkpt lat="42.26015" lon="1.64106">
        <ele>1441.48</ele>
        <time>2021-07-31T16:11:54Z</time>
      </trkpt>
      <trkpt lat="42.25998" lon="1.64131">
        <ele>1438.33</ele>
        <time>2021-07-31T16:11:56Z</time>
      </trkpt>
      <trkpt lat="42.2598" lon="1.64171">
        <ele>1434.23</ele>
        <time>2021-07-31T16:11:59Z</time>
      </trkpt>
      <trkpt lat="42.25988" lon="1.64197">
        <ele>1432.02</ele>
        <time>2021-07-31T16:12:01Z</time>
      </trkpt>
      <trkpt lat="42.25998" lon="1.64208">
        <ele>1430.99</ele>
        <time>2021-07-31T16:12:02Z</time>
      </trkpt>
      <trkpt lat="42.2601" lon="1.64213">
        <ele>1430.07</ele>
        <time>2021-07-31T16:12:03Z</time>
      </trkpt>
      <trkpt lat="42.26055" lon="1.64185">
        <ele>1426.92</ele>
        <time>2021-07-31T16:12:07Z</time>
      </trkpt>
      <trkpt lat="42.26067" lon="1.6417">
        <ele>1426.24</ele>
        <time>2021-07-31T16:12:08Z</time>
      </trkpt>
      <trkpt lat="42.26102" lon="1.64082">
        <ele>1423.87</ele>
        <time>2021-07-31T16:12:13Z</time>
      </trkpt>
      <trkpt lat="42.26103" lon="1.6404">
        <ele>1422.97</ele>
        <time>2021-07-31T16:12:15Z</time>
      </trkpt>
      <trkpt lat="42.26129" lon="1.63957">
        <ele>1421.43</ele>
        <time>2021-07-31T16:12:19Z</time>
      </trkpt>
      <trkpt lat="42.26141" lon="1.63868">
        <ele>1420.07</ele>
        <time>2021-07-31T16:12:23Z</time>
      </trkpt>
      <trkpt lat="42.26141" lon="1.63709">
        <ele>1416.61</ele>
        <time>2021-07-31T16:12:30Z</time>
      </trkpt>
      <trkpt lat="42.26146" lon="1.63604">
        <ele>1413.53</ele>
        <time>2021-07-31T16:12:35Z</time>
      </trkpt>
      <trkpt lat="42.26155" lon="1.63516">
        <ele>1411.9</ele>
        <time>2021-07-31T16:12:39Z</time>
      </trkpt>
      <trkpt lat="42.26149" lon="1.6343">
        <ele>1410.9</ele>
        <time>2021-07-31T16:12:43Z</time>
      </trkpt>
      <trkpt lat="42.26151" lon="1.63388">
        <ele>1410.41</ele>
        <time>2021-07-31T16:12:45Z</time>
      </trkpt>
      <trkpt lat="42.26139" lon="1.63304">
        <ele>1409.43</ele>
        <time>2021-07-31T16:12:49Z</time>
      </trkpt>
      <trkpt lat="42.26099" lon="1.63165">
        <ele>1405.75</ele>
        <time>2021-07-31T16:12:56Z</time>
      </trkpt>
      <trkpt lat="42.26097" lon="1.63147">
        <ele>1405.12</ele>
        <time>2021-07-31T16:12:57Z</time>
      </trkpt>
      <trkpt lat="42.26111" lon="1.63087">
        <ele>1402.14</ele>
        <time>2021-07-31T16:13:01Z</time>
      </trkpt>
      <trkpt lat="42.26103" lon="1.63011">
        <ele>1399.42</ele>
        <time>2021-07-31T16:13:06Z</time>
      </trkpt>
      <trkpt lat="42.26097" lon="1.62941">
        <ele>1397.3</ele>
        <time>2021-07-31T16:13:10Z</time>
      </trkpt>
      <trkpt lat="42.26103" lon="1.62905">
        <ele>1396.26</ele>
        <time>2021-07-31T16:13:12Z</time>
      </trkpt>
      <trkpt lat="42.26125" lon="1.62834">
        <ele>1394.05</ele>
        <time>2021-07-31T16:13:16Z</time>
      </trkpt>
      <trkpt lat="42.26128" lon="1.62816">
        <ele>1393.5</ele>
        <time>2021-07-31T16:13:17Z</time>
      </trkpt>
      <trkpt lat="42.26129" lon="1.62797">
        <ele>1392.83</ele>
        <time>2021-07-31T16:13:18Z</time>
      </trkpt>
      <trkpt lat="42.26128" lon="1.6278">
        <ele>1392.12</ele>
        <time>2021-07-31T16:13:19Z</time>
      </trkpt>
      <trkpt lat="42.26094" lon="1.62729">
        <ele>1389.13</ele>
        <time>2021-07-31T16:13:23Z</time>
      </trkpt>
      <trkpt lat="42.26065" lon="1.62673">
        <ele>1385.74</ele>
        <time>2021-07-31T16:13:27Z</time>
      </trkpt>
      <trkpt lat="42.26062" lon="1.62626">
        <ele>1383.55</ele>
        <time>2021-07-31T16:13:30Z</time>
      </trkpt>
      <trkpt lat="42.26072" lon="1.6255">
        <ele>1381.25</ele>
        <time>2021-07-31T16:13:35Z</time>
      </trkpt>
      <trkpt lat="42.26051" lon="1.62477">
        <ele>1379.29</ele>
        <time>2021-07-31T16:13:40Z</time>
      </trkpt>
      <trkpt lat="42.26034" lon="1.62446">
        <ele>1378.32</ele>
        <time>2021-07-31T16:13:42Z</time>
      </trkpt>
      <trkpt lat="42.26003" lon="1.62303">
        <ele>1374.7</ele>
        <time>2021-07-31T16:13:50Z</time>
      </trkpt>
      <trkpt lat="42.26032" lon="1.6223">
        <ele>1373.1</ele>
        <time>2021-07-31T16:13:55Z</time>
      </trkpt>
      <trkpt lat="42.26079" lon="1.62171">
        <ele>1371.67</ele>
        <time>2021-07-31T16:14:00Z</time>
      </trkpt>
      <trkpt lat="42.26075" lon="1.62109">
        <ele>1369.71</ele>
        <time>2021-07-31T16:14:05Z</time>
      </trkpt>
      <trkpt lat="42.26024" lon="1.62093">
        <ele>1368.37</ele>
        <time>2021-07-31T16:14:09Z</time>
      </trkpt>
      <trkpt lat="42.25998" lon="1.621">
        <ele>1367.88</ele>
        <time>2021-07-31T16:14:11Z</time>
      </trkpt>
      <trkpt lat="42.25937" lon="1.62076">
        <ele>1368.04</ele>
        <time>2021-07-31T16:14:18Z</time>
      </trkpt>
      <trkpt lat="42.25952" lon="1.62021">
        <ele>1369.41</ele>
        <time>2021-07-31T16:14:22Z</time>
      </trkpt>
      <trkpt lat="42.25979" lon="1.61893">
        <ele>1373.46</ele>
        <time>2021-07-31T16:14:29Z</time>
      </trkpt>
      <trkpt lat="42.25978" lon="1.61875">
        <ele>1374.08</ele>
        <time>2021-07-31T16:14:30Z</time>
      </trkpt>
      <trkpt lat="42.25974" lon="1.61811">
        <ele>1376.51</ele>
        <time>2021-07-31T16:14:34Z</time>
      </trkpt>
      <trkpt lat="42.25998" lon="1.6173">
        <ele>1378.74</ele>
        <time>2021-07-31T16:14:41Z</time>
      </trkpt>
      <trkpt lat="42.25973" lon="1.61696">
        <ele>1378.87</ele>
        <time>2021-07-31T16:14:46Z</time>
      </trkpt>
      <trkpt lat="42.25928" lon="1.61688">
        <ele>1379</ele>
        <time>2021-07-31T16:14:50Z</time>
      </trkpt>
      <trkpt lat="42.25888" lon="1.61701">
        <ele>1379.42</ele>
        <time>2021-07-31T16:14:55Z</time>
      </trkpt>
      <trkpt lat="42.25846" lon="1.61744">
        <ele>1380.27</ele>
        <time>2021-07-31T16:15:06Z</time>
      </trkpt>
      <trkpt lat="42.25833" lon="1.61745">
        <ele>1380.79</ele>
        <time>2021-07-31T16:15:13Z</time>
      </trkpt>
      <trkpt lat="42.25821" lon="1.61757">
        <ele>1381.15</ele>
        <time>2021-07-31T16:15:18Z</time>
      </trkpt>
      <trkpt lat="42.25822" lon="1.61759">
        <ele>1381.18</ele>
        <time>2021-07-31T16:15:19Z</time>
      </trkpt>
      <trkpt lat="42.25824" lon="1.61761">
        <ele>1381.23</ele>
        <time>2021-07-31T16:15:20Z</time>
      </trkpt>
      <trkpt lat="42.25825" lon="1.61762">
        <ele>1381.28</ele>
        <time>2021-07-31T16:15:21Z</time>
      </trkpt>
      <trkpt lat="42.25827" lon="1.61762">
        <ele>1381.85</ele>
        <time>2021-07-31T16:15:39Z</time>
      </trkpt>
      <trkpt lat="42.25829" lon="1.61761">
        <ele>1381.87</ele>
        <time>2021-07-31T16:15:46Z</time>
      </trkpt>
      <trkpt lat="42.25858" lon="1.61718">
        <ele>1382.14</ele>
        <time>2021-07-31T16:15:54Z</time>
      </trkpt>
      <trkpt lat="42.25885" lon="1.61678">
        <ele>1383.26</ele>
        <time>2021-07-31T16:16:00Z</time>
      </trkpt>
      <trkpt lat="42.25895" lon="1.6163">
        <ele>1384.72</ele>
        <time>2021-07-31T16:16:06Z</time>
      </trkpt>
      <trkpt lat="42.25885" lon="1.616">
        <ele>1387.1</ele>
        <time>2021-07-31T16:16:11Z</time>
      </trkpt>
      <trkpt lat="42.25849" lon="1.61584">
        <ele>1389.93</ele>
        <time>2021-07-31T16:16:18Z</time>
      </trkpt>
      <trkpt lat="42.25841" lon="1.61564">
        <ele>1392.34</ele>
        <time>2021-07-31T16:16:24Z</time>
      </trkpt>
      <trkpt lat="42.25837" lon="1.61552">
        <ele>1394.37</ele>
        <time>2021-07-31T16:19:27Z</time>
      </trkpt>
      <trkpt lat="42.25833" lon="1.61542">
        <ele>1394.62</ele>
        <time>2021-07-31T16:19:29Z</time>
      </trkpt>
      <trkpt lat="42.2579" lon="1.61486">
        <ele>1397.1</ele>
        <time>2021-07-31T16:19:37Z</time>
      </trkpt>
      <trkpt lat="42.25772" lon="1.61463">
        <ele>1398.26</ele>
        <time>2021-07-31T16:19:40Z</time>
      </trkpt>
      <trkpt lat="42.25748" lon="1.61414">
        <ele>1399.14</ele>
        <time>2021-07-31T16:19:45Z</time>
      </trkpt>
      <trkpt lat="42.25731" lon="1.61286">
        <ele>1401.46</ele>
        <time>2021-07-31T16:19:55Z</time>
      </trkpt>
      <trkpt lat="42.25727" lon="1.6125">
        <ele>1401.89</ele>
        <time>2021-07-31T16:19:58Z</time>
      </trkpt>
      <trkpt lat="42.25705" lon="1.61232">
        <ele>1403.09</ele>
        <time>2021-07-31T16:20:02Z</time>
      </trkpt>
      <trkpt lat="42.25679" lon="1.61233">
        <ele>1404.64</ele>
        <time>2021-07-31T16:20:06Z</time>
      </trkpt>
      <trkpt lat="42.25632" lon="1.61258">
        <ele>1407.59</ele>
        <time>2021-07-31T16:20:13Z</time>
      </trkpt>
      <trkpt lat="42.25592" lon="1.61287">
        <ele>1410.88</ele>
        <time>2021-07-31T16:20:19Z</time>
      </trkpt>
      <trkpt lat="42.25581" lon="1.61296">
        <ele>1412.11</ele>
        <time>2021-07-31T16:20:21Z</time>
      </trkpt>
      <trkpt lat="42.2553" lon="1.61287">
        <ele>1415.96</ele>
        <time>2021-07-31T16:20:28Z</time>
      </trkpt>
      <trkpt lat="42.25477" lon="1.61238">
        <ele>1419.9</ele>
        <time>2021-07-31T16:20:35Z</time>
      </trkpt>
      <trkpt lat="42.25434" lon="1.61191">
        <ele>1423.41</ele>
        <time>2021-07-31T16:20:41Z</time>
      </trkpt>
      <trkpt lat="42.25407" lon="1.61181">
        <ele>1425.64</ele>
        <time>2021-07-31T16:20:45Z</time>
      </trkpt>
      <trkpt lat="42.2539" lon="1.61157">
        <ele>1428.15</ele>
        <time>2021-07-31T16:20:50Z</time>
      </trkpt>
      <trkpt lat="42.25371" lon="1.61077">
        <ele>1431.85</ele>
        <time>2021-07-31T16:20:58Z</time>
      </trkpt>
      <trkpt lat="42.25367" lon="1.61058">
        <ele>1432.77</ele>
        <time>2021-07-31T16:21:00Z</time>
      </trkpt>
      <trkpt lat="42.25377" lon="1.61026">
        <ele>1434.22</ele>
        <time>2021-07-31T16:21:05Z</time>
      </trkpt>
      <trkpt lat="42.25448" lon="1.6099">
        <ele>1435.51</ele>
        <time>2021-07-31T16:21:13Z</time>
      </trkpt>
      <trkpt lat="42.2549" lon="1.60943">
        <ele>1436.13</ele>
        <time>2021-07-31T16:21:20Z</time>
      </trkpt>
      <trkpt lat="42.25514" lon="1.6086">
        <ele>1438.64</ele>
        <time>2021-07-31T16:21:29Z</time>
      </trkpt>
      <trkpt lat="42.25517" lon="1.60844">
        <ele>1439.36</ele>
        <time>2021-07-31T16:21:31Z</time>
      </trkpt>
      <trkpt lat="42.25517" lon="1.60808">
        <ele>1441.16</ele>
        <time>2021-07-31T16:21:35Z</time>
      </trkpt>
      <trkpt lat="42.2549" lon="1.60747">
        <ele>1444.64</ele>
        <time>2021-07-31T16:21:41Z</time>
      </trkpt>
      <trkpt lat="42.25475" lon="1.6073">
        <ele>1445.93</ele>
        <time>2021-07-31T16:21:43Z</time>
      </trkpt>
      <trkpt lat="42.25435" lon="1.60697">
        <ele>1449.32</ele>
        <time>2021-07-31T16:21:48Z</time>
      </trkpt>
      <trkpt lat="42.25419" lon="1.6068">
        <ele>1452.22</ele>
        <time>2021-07-31T16:21:53Z</time>
      </trkpt>
      <trkpt lat="42.25438" lon="1.60691">
        <ele>1454.61</ele>
        <time>2021-07-31T16:21:57Z</time>
      </trkpt>
      <trkpt lat="42.25501" lon="1.60719">
        <ele>1458.5</ele>
        <time>2021-07-31T16:22:04Z</time>
      </trkpt>
      <trkpt lat="42.25535" lon="1.60759">
        <ele>1462.25</ele>
        <time>2021-07-31T16:22:11Z</time>
      </trkpt>
      <trkpt lat="42.25542" lon="1.60765">
        <ele>1462.8</ele>
        <time>2021-07-31T16:22:12Z</time>
      </trkpt>
      <trkpt lat="42.25558" lon="1.60779">
        <ele>1464.22</ele>
        <time>2021-07-31T16:22:15Z</time>
      </trkpt>
      <trkpt lat="42.25577" lon="1.60826">
        <ele>1466.94</ele>
        <time>2021-07-31T16:22:20Z</time>
      </trkpt>
      <trkpt lat="42.25581" lon="1.60863">
        <ele>1468.33</ele>
        <time>2021-07-31T16:22:23Z</time>
      </trkpt>
      <trkpt lat="42.25577" lon="1.60913">
        <ele>1471.42</ele>
        <time>2021-07-31T16:22:28Z</time>
      </trkpt>
      <trkpt lat="42.25559" lon="1.60971">
        <ele>1475.3</ele>
        <time>2021-07-31T16:22:35Z</time>
      </trkpt>
      <trkpt lat="42.25555" lon="1.6099">
        <ele>1476.31</ele>
        <time>2021-07-31T16:22:37Z</time>
      </trkpt>
      <trkpt lat="42.25543" lon="1.61021">
        <ele>1478.04</ele>
        <time>2021-07-31T16:22:41Z</time>
      </trkpt>
      <trkpt lat="42.25561" lon="1.61047">
        <ele>1480.62</ele>
        <time>2021-07-31T16:22:48Z</time>
      </trkpt>
      <trkpt lat="42.25579" lon="1.61037">
        <ele>1481.77</ele>
        <time>2021-07-31T16:22:50Z</time>
      </trkpt>
      <trkpt lat="42.25598" lon="1.60981">
        <ele>1484.95</ele>
        <time>2021-07-31T16:22:56Z</time>
      </trkpt>
      <trkpt lat="42.25594" lon="1.60957">
        <ele>1486</ele>
        <time>2021-07-31T16:22:58Z</time>
      </trkpt>
      <trkpt lat="42.25619" lon="1.6091">
        <ele>1488.77</ele>
        <time>2021-07-31T16:23:05Z</time>
      </trkpt>
      <trkpt lat="42.25625" lon="1.60912">
        <ele>1489.08</ele>
        <time>2021-07-31T16:23:06Z</time>
      </trkpt>
      <trkpt lat="42.25672" lon="1.60926">
        <ele>1491.8</ele>
        <time>2021-07-31T16:23:14Z</time>
      </trkpt>
      <trkpt lat="42.25693" lon="1.60928">
        <ele>1493.41</ele>
        <time>2021-07-31T16:23:18Z</time>
      </trkpt>
      <trkpt lat="42.25714" lon="1.60929">
        <ele>1495.14</ele>
        <time>2021-07-31T16:23:22Z</time>
      </trkpt>
      <trkpt lat="42.25762" lon="1.60938">
        <ele>1499.06</ele>
        <time>2021-07-31T16:23:30Z</time>
      </trkpt>
      <trkpt lat="42.25799" lon="1.60939">
        <ele>1502.53</ele>
        <time>2021-07-31T16:23:37Z</time>
      </trkpt>
      <trkpt lat="42.258" lon="1.60911">
        <ele>1505.04</ele>
        <time>2021-07-31T16:23:43Z</time>
      </trkpt>
      <trkpt lat="42.25757" lon="1.60874">
        <ele>1508.95</ele>
        <time>2021-07-31T16:23:50Z</time>
      </trkpt>
      <trkpt lat="42.25729" lon="1.60861">
        <ele>1511.14</ele>
        <time>2021-07-31T16:23:55Z</time>
      </trkpt>
      <trkpt lat="42.25705" lon="1.60816">
        <ele>1514.36</ele>
        <time>2021-07-31T16:24:03Z</time>
      </trkpt>
      <trkpt lat="42.25705" lon="1.60808">
        <ele>1514.72</ele>
        <time>2021-07-31T16:24:04Z</time>
      </trkpt>
      <trkpt lat="42.25703" lon="1.60784">
        <ele>1516.44</ele>
        <time>2021-07-31T16:24:07Z</time>
      </trkpt>
      <trkpt lat="42.25706" lon="1.60743">
        <ele>1519.85</ele>
        <time>2021-07-31T16:24:14Z</time>
      </trkpt>
      <trkpt lat="42.25716" lon="1.60752">
        <ele>1520.91</ele>
        <time>2021-07-31T16:24:16Z</time>
      </trkpt>
      <trkpt lat="42.25724" lon="1.60766">
        <ele>1522.27</ele>
        <time>2021-07-31T16:24:18Z</time>
      </trkpt>
      <trkpt lat="42.25753" lon="1.60789">
        <ele>1525.19</ele>
        <time>2021-07-31T16:24:23Z</time>
      </trkpt>
      <trkpt lat="42.25795" lon="1.60785">
        <ele>1529.02</ele>
        <time>2021-07-31T16:24:30Z</time>
      </trkpt>
      <trkpt lat="42.25784" lon="1.60766">
        <ele>1531.1</ele>
        <time>2021-07-31T16:24:34Z</time>
      </trkpt>
      <trkpt lat="42.25755" lon="1.60734">
        <ele>1533.96</ele>
        <time>2021-07-31T16:24:39Z</time>
      </trkpt>
      <trkpt lat="42.25723" lon="1.60685">
        <ele>1538.09</ele>
        <time>2021-07-31T16:24:46Z</time>
      </trkpt>
      <trkpt lat="42.25693" lon="1.60632">
        <ele>1541.25</ele>
        <time>2021-07-31T16:24:52Z</time>
      </trkpt>
      <trkpt lat="42.25688" lon="1.60624">
        <ele>1541.69</ele>
        <time>2021-07-31T16:24:53Z</time>
      </trkpt>
      <trkpt lat="42.25675" lon="1.60608">
        <ele>1542.85</ele>
        <time>2021-07-31T16:24:56Z</time>
      </trkpt>
      <trkpt lat="42.25681" lon="1.60591">
        <ele>1544.64</ele>
        <time>2021-07-31T16:25:01Z</time>
      </trkpt>
      <trkpt lat="42.25689" lon="1.60602">
        <ele>1545.49</ele>
        <time>2021-07-31T16:25:03Z</time>
      </trkpt>
      <trkpt lat="42.25715" lon="1.6063">
        <ele>1547.78</ele>
        <time>2021-07-31T16:25:08Z</time>
      </trkpt>
      <trkpt lat="42.25728" lon="1.60642">
        <ele>1548.85</ele>
        <time>2021-07-31T16:25:11Z</time>
      </trkpt>
      <trkpt lat="42.25759" lon="1.60648">
        <ele>1551.19</ele>
        <time>2021-07-31T16:25:16Z</time>
      </trkpt>
      <trkpt lat="42.25799" lon="1.60644">
        <ele>1554.94</ele>
        <time>2021-07-31T16:25:22Z</time>
      </trkpt>
      <trkpt lat="42.25827" lon="1.60641">
        <ele>1557.53</ele>
        <time>2021-07-31T16:25:26Z</time>
      </trkpt>
      <trkpt lat="42.25851" lon="1.60659">
        <ele>1560.04</ele>
        <time>2021-07-31T16:25:30Z</time>
      </trkpt>
      <trkpt lat="42.25883" lon="1.60702">
        <ele>1563.98</ele>
        <time>2021-07-31T16:25:37Z</time>
      </trkpt>
      <trkpt lat="42.25917" lon="1.60728">
        <ele>1567.06</ele>
        <time>2021-07-31T16:25:42Z</time>
      </trkpt>
      <trkpt lat="42.25933" lon="1.60737">
        <ele>1568.46</ele>
        <time>2021-07-31T16:25:44Z</time>
      </trkpt>
      <trkpt lat="42.25956" lon="1.60751">
        <ele>1571.26</ele>
        <time>2021-07-31T16:25:47Z</time>
      </trkpt>
      <trkpt lat="42.25986" lon="1.60762">
        <ele>1574.01</ele>
        <time>2021-07-31T16:25:51Z</time>
      </trkpt>
      <trkpt lat="42.2601" lon="1.608">
        <ele>1577.96</ele>
        <time>2021-07-31T16:25:57Z</time>
      </trkpt>
      <trkpt lat="42.26015" lon="1.60823">
        <ele>1579.52</ele>
        <time>2021-07-31T16:26:00Z</time>
      </trkpt>
      <trkpt lat="42.26023" lon="1.60839">
        <ele>1582.33</ele>
        <time>2021-07-31T16:26:07Z</time>
      </trkpt>
      <trkpt lat="42.26021" lon="1.60839">
        <ele>1584.07</ele>
        <time>2021-07-31T16:31:22Z</time>
      </trkpt>
      <trkpt lat="42.26027" lon="1.60846">
        <ele>1584.07</ele>
        <time>2021-07-31T16:31:45Z</time>
      </trkpt>
      <trkpt lat="42.26061" lon="1.60861">
        <ele>1585.46</ele>
        <time>2021-07-31T16:31:53Z</time>
      </trkpt>
      <trkpt lat="42.26064" lon="1.60867">
        <ele>1586.07</ele>
        <time>2021-07-31T16:31:55Z</time>
      </trkpt>
      <trkpt lat="42.26055" lon="1.6093">
        <ele>1588.7</ele>
        <time>2021-07-31T16:32:03Z</time>
      </trkpt>
      <trkpt lat="42.2604" lon="1.60989">
        <ele>1592.3</ele>
        <time>2021-07-31T16:32:11Z</time>
      </trkpt>
      <trkpt lat="42.26046" lon="1.61008">
        <ele>1593.37</ele>
        <time>2021-07-31T16:32:14Z</time>
      </trkpt>
      <trkpt lat="42.26059" lon="1.61071">
        <ele>1596.92</ele>
        <time>2021-07-31T16:32:21Z</time>
      </trkpt>
      <trkpt lat="42.26088" lon="1.61086">
        <ele>1599.34</ele>
        <time>2021-07-31T16:32:29Z</time>
      </trkpt>
      <trkpt lat="42.26098" lon="1.61082">
        <ele>1599.94</ele>
        <time>2021-07-31T16:32:31Z</time>
      </trkpt>
      <trkpt lat="42.26131" lon="1.61059">
        <ele>1602.5</ele>
        <time>2021-07-31T16:32:38Z</time>
      </trkpt>
      <trkpt lat="42.26173" lon="1.61049">
        <ele>1605.12</ele>
        <time>2021-07-31T16:32:45Z</time>
      </trkpt>
      <trkpt lat="42.26197" lon="1.61034">
        <ele>1606.65</ele>
        <time>2021-07-31T16:32:49Z</time>
      </trkpt>
      <trkpt lat="42.2624" lon="1.60997">
        <ele>1610.06</ele>
        <time>2021-07-31T16:32:56Z</time>
      </trkpt>
      <trkpt lat="42.26274" lon="1.60968">
        <ele>1613</ele>
        <time>2021-07-31T16:33:01Z</time>
      </trkpt>
      <trkpt lat="42.26327" lon="1.60946">
        <ele>1616.58</ele>
        <time>2021-07-31T16:33:07Z</time>
      </trkpt>
      <trkpt lat="42.26368" lon="1.60939">
        <ele>1620.09</ele>
        <time>2021-07-31T16:33:12Z</time>
      </trkpt>
      <trkpt lat="42.26407" lon="1.60932">
        <ele>1623.63</ele>
        <time>2021-07-31T16:33:17Z</time>
      </trkpt>
      <trkpt lat="42.26447" lon="1.60921">
        <ele>1626.9</ele>
        <time>2021-07-31T16:33:22Z</time>
      </trkpt>
      <trkpt lat="42.26479" lon="1.60908">
        <ele>1629.63</ele>
        <time>2021-07-31T16:33:26Z</time>
      </trkpt>
      <trkpt lat="42.26516" lon="1.60869">
        <ele>1633.52</ele>
        <time>2021-07-31T16:33:32Z</time>
      </trkpt>
      <trkpt lat="42.26543" lon="1.60828">
        <ele>1636.94</ele>
        <time>2021-07-31T16:33:37Z</time>
      </trkpt>
      <trkpt lat="42.26552" lon="1.60802">
        <ele>1638.73</ele>
        <time>2021-07-31T16:33:40Z</time>
      </trkpt>
      <trkpt lat="42.26573" lon="1.60778">
        <ele>1641.1</ele>
        <time>2021-07-31T16:33:44Z</time>
      </trkpt>
      <trkpt lat="42.26613" lon="1.60742">
        <ele>1645.15</ele>
        <time>2021-07-31T16:33:51Z</time>
      </trkpt>
      <trkpt lat="42.26625" lon="1.60731">
        <ele>1646.18</ele>
        <time>2021-07-31T16:33:53Z</time>
      </trkpt>
      <trkpt lat="42.26651" lon="1.60699">
        <ele>1649.74</ele>
        <time>2021-07-31T16:33:58Z</time>
      </trkpt>
      <trkpt lat="42.26678" lon="1.60651">
        <ele>1652.91</ele>
        <time>2021-07-31T16:34:03Z</time>
      </trkpt>
      <trkpt lat="42.26693" lon="1.606">
        <ele>1656.02</ele>
        <time>2021-07-31T16:34:07Z</time>
      </trkpt>
      <trkpt lat="42.26708" lon="1.60548">
        <ele>1659.41</ele>
        <time>2021-07-31T16:34:11Z</time>
      </trkpt>
      <trkpt lat="42.26728" lon="1.60496">
        <ele>1663.04</ele>
        <time>2021-07-31T16:34:15Z</time>
      </trkpt>
      <trkpt lat="42.2675" lon="1.60443">
        <ele>1666.36</ele>
        <time>2021-07-31T16:34:19Z</time>
      </trkpt>
      <trkpt lat="42.26805" lon="1.60409">
        <ele>1670.96</ele>
        <time>2021-07-31T16:34:25Z</time>
      </trkpt>
      <trkpt lat="42.26863" lon="1.60375">
        <ele>1674.84</ele>
        <time>2021-07-31T16:34:32Z</time>
      </trkpt>
      <trkpt lat="42.269" lon="1.60326">
        <ele>1678.64</ele>
        <time>2021-07-31T16:34:39Z</time>
      </trkpt>
      <trkpt lat="42.26913" lon="1.603">
        <ele>1679.9</ele>
        <time>2021-07-31T16:34:42Z</time>
      </trkpt>
      <trkpt lat="42.26952" lon="1.60249">
        <ele>1683.49</ele>
        <time>2021-07-31T16:34:49Z</time>
      </trkpt>
      <trkpt lat="42.26977" lon="1.60209">
        <ele>1686.76</ele>
        <time>2021-07-31T16:34:54Z</time>
      </trkpt>
      <trkpt lat="42.26995" lon="1.60157">
        <ele>1690.57</ele>
        <time>2021-07-31T16:34:59Z</time>
      </trkpt>
      <trkpt lat="42.27003" lon="1.60138">
        <ele>1691.97</ele>
        <time>2021-07-31T16:35:01Z</time>
      </trkpt>
      <trkpt lat="42.27006" lon="1.60094">
        <ele>1694.58</ele>
        <time>2021-07-31T16:35:05Z</time>
      </trkpt>
      <trkpt lat="42.27033" lon="1.60088">
        <ele>1696.93</ele>
        <time>2021-07-31T16:35:09Z</time>
      </trkpt>
      <trkpt lat="42.27053" lon="1.60064">
        <ele>1700.19</ele>
        <time>2021-07-31T16:35:14Z</time>
      </trkpt>
      <trkpt lat="42.27082" lon="1.60073">
        <ele>1703.31</ele>
        <time>2021-07-31T16:35:20Z</time>
      </trkpt>
      <trkpt lat="42.27086" lon="1.60081">
        <ele>1703.9</ele>
        <time>2021-07-31T16:35:21Z</time>
      </trkpt>
      <trkpt lat="42.27106" lon="1.60114">
        <ele>1705.82</ele>
        <time>2021-07-31T16:35:25Z</time>
      </trkpt>
      <trkpt lat="42.27115" lon="1.60102">
        <ele>1708.68</ele>
        <time>2021-07-31T16:35:31Z</time>
      </trkpt>
      <trkpt lat="42.27103" lon="1.60078">
        <ele>1709.98</ele>
        <time>2021-07-31T16:35:34Z</time>
      </trkpt>
      <trkpt lat="42.27087" lon="1.60027">
        <ele>1712.88</ele>
        <time>2021-07-31T16:35:39Z</time>
      </trkpt>
      <trkpt lat="42.2706" lon="1.59994">
        <ele>1717.37</ele>
        <time>2021-07-31T16:35:45Z</time>
      </trkpt>
      <trkpt lat="42.27053" lon="1.59998">
        <ele>1718.04</ele>
        <time>2021-07-31T16:35:46Z</time>
      </trkpt>
      <trkpt lat="42.27029" lon="1.59988">
        <ele>1721.58</ele>
        <time>2021-07-31T16:35:52Z</time>
      </trkpt>
      <trkpt lat="42.27047" lon="1.59966">
        <ele>1723.78</ele>
        <time>2021-07-31T16:35:56Z</time>
      </trkpt>
      <trkpt lat="42.27064" lon="1.59941">
        <ele>1725.69</ele>
        <time>2021-07-31T16:35:59Z</time>
      </trkpt>
      <trkpt lat="42.27113" lon="1.59948">
        <ele>1729.31</ele>
        <time>2021-07-31T16:36:04Z</time>
      </trkpt>
      <trkpt lat="42.27125" lon="1.59974">
        <ele>1731</ele>
        <time>2021-07-31T16:36:06Z</time>
      </trkpt>
      <trkpt lat="42.27145" lon="1.60021">
        <ele>1734.41</ele>
        <time>2021-07-31T16:36:10Z</time>
      </trkpt>
      <trkpt lat="42.27163" lon="1.60024">
        <ele>1737.79</ele>
        <time>2021-07-31T16:36:15Z</time>
      </trkpt>
      <trkpt lat="42.2716" lon="1.60014">
        <ele>1739.05</ele>
        <time>2021-07-31T16:36:17Z</time>
      </trkpt>
      <trkpt lat="42.27154" lon="1.59939">
        <ele>1743.44</ele>
        <time>2021-07-31T16:36:24Z</time>
      </trkpt>
      <trkpt lat="42.27142" lon="1.59881">
        <ele>1747.06</ele>
        <time>2021-07-31T16:36:29Z</time>
      </trkpt>
      <trkpt lat="42.27115" lon="1.59844">
        <ele>1749.83</ele>
        <time>2021-07-31T16:36:33Z</time>
      </trkpt>
      <trkpt lat="42.27084" lon="1.59804">
        <ele>1753.51</ele>
        <time>2021-07-31T16:36:38Z</time>
      </trkpt>
      <trkpt lat="42.27075" lon="1.59779">
        <ele>1757.18</ele>
        <time>2021-07-31T16:36:45Z</time>
      </trkpt>
      <trkpt lat="42.27077" lon="1.59755">
        <ele>1760.25</ele>
        <time>2021-07-31T16:36:58Z</time>
      </trkpt>
      <trkpt lat="42.27078" lon="1.59754">
        <ele>1761.16</ele>
        <time>2021-07-31T16:37:19Z</time>
      </trkpt>
      <trkpt lat="42.27078" lon="1.5975">
        <ele>1761.44</ele>
        <time>2021-07-31T16:37:36Z</time>
      </trkpt>
      <trkpt lat="42.27077" lon="1.59739">
        <ele>1761.7</ele>
        <time>2021-07-31T16:37:59Z</time>
      </trkpt>
      <trkpt lat="42.27073" lon="1.59709">
        <ele>1760.81</ele>
        <time>2021-07-31T16:38:14Z</time>
      </trkpt>
      <trkpt lat="42.27063" lon="1.59669">
        <ele>1759.55</ele>
        <time>2021-07-31T16:38:26Z</time>
      </trkpt>
      <trkpt lat="42.27057" lon="1.59652">
        <ele>1759.06</ele>
        <time>2021-07-31T16:38:29Z</time>
      </trkpt>
      <trkpt lat="42.27033" lon="1.59541">
        <ele>1756.59</ele>
        <time>2021-07-31T16:38:40Z</time>
      </trkpt>
      <trkpt lat="42.27031" lon="1.59469">
        <ele>1753.24</ele>
        <time>2021-07-31T16:38:47Z</time>
      </trkpt>
      <trkpt lat="42.27031" lon="1.5946">
        <ele>1752.54</ele>
        <time>2021-07-31T16:38:48Z</time>
      </trkpt>
      <trkpt lat="42.27024" lon="1.59432">
        <ele>1750.2</ele>
        <time>2021-07-31T16:38:52Z</time>
      </trkpt>
      <trkpt lat="42.2702" lon="1.59407">
        <ele>1748.41</ele>
        <time>2021-07-31T16:38:55Z</time>
      </trkpt>
      <trkpt lat="42.27026" lon="1.59337">
        <ele>1744.6</ele>
        <time>2021-07-31T16:39:02Z</time>
      </trkpt>
      <trkpt lat="42.27025" lon="1.59255">
        <ele>1741.22</ele>
        <time>2021-07-31T16:39:09Z</time>
      </trkpt>
      <trkpt lat="42.27017" lon="1.59205">
        <ele>1737.9</ele>
        <time>2021-07-31T16:39:14Z</time>
      </trkpt>
      <trkpt lat="42.27005" lon="1.59156">
        <ele>1734.65</ele>
        <time>2021-07-31T16:39:19Z</time>
      </trkpt>
      <trkpt lat="42.26997" lon="1.5912">
        <ele>1731.93</ele>
        <time>2021-07-31T16:39:23Z</time>
      </trkpt>
      <trkpt lat="42.26996" lon="1.59088">
        <ele>1729.36</ele>
        <time>2021-07-31T16:39:27Z</time>
      </trkpt>
      <trkpt lat="42.27006" lon="1.5902">
        <ele>1725.71</ele>
        <time>2021-07-31T16:39:34Z</time>
      </trkpt>
      <trkpt lat="42.2701" lon="1.58981">
        <ele>1723.5</ele>
        <time>2021-07-31T16:39:38Z</time>
      </trkpt>
      <trkpt lat="42.27001" lon="1.58946">
        <ele>1721.54</ele>
        <time>2021-07-31T16:39:42Z</time>
      </trkpt>
      <trkpt lat="42.26984" lon="1.58879">
        <ele>1717.78</ele>
        <time>2021-07-31T16:39:49Z</time>
      </trkpt>
      <trkpt lat="42.26963" lon="1.58799">
        <ele>1714.2</ele>
        <time>2021-07-31T16:39:56Z</time>
      </trkpt>
      <trkpt lat="42.26945" lon="1.58716">
        <ele>1711.05</ele>
        <time>2021-07-31T16:40:02Z</time>
      </trkpt>
      <trkpt lat="42.26924" lon="1.58651">
        <ele>1707.19</ele>
        <time>2021-07-31T16:40:08Z</time>
      </trkpt>
      <trkpt lat="42.26911" lon="1.58618">
        <ele>1706.02</ele>
        <time>2021-07-31T16:40:11Z</time>
      </trkpt>
      <trkpt lat="42.26876" lon="1.58624">
        <ele>1703.2</ele>
        <time>2021-07-31T16:40:16Z</time>
      </trkpt>
      <trkpt lat="42.26857" lon="1.58624">
        <ele>1702.03</ele>
        <time>2021-07-31T16:40:18Z</time>
      </trkpt>
      <trkpt lat="42.26825" lon="1.58614">
        <ele>1699.47</ele>
        <time>2021-07-31T16:40:23Z</time>
      </trkpt>
      <trkpt lat="42.26802" lon="1.58615">
        <ele>1697.86</ele>
        <time>2021-07-31T16:40:26Z</time>
      </trkpt>
      <trkpt lat="42.26752" lon="1.58612">
        <ele>1694.07</ele>
        <time>2021-07-31T16:40:32Z</time>
      </trkpt>
      <trkpt lat="42.26738" lon="1.58613">
        <ele>1692.64</ele>
        <time>2021-07-31T16:40:34Z</time>
      </trkpt>
      <trkpt lat="42.26708" lon="1.58627">
        <ele>1688.58</ele>
        <time>2021-07-31T16:40:39Z</time>
      </trkpt>
      <trkpt lat="42.26693" lon="1.58636">
        <ele>1687.27</ele>
        <time>2021-07-31T16:40:41Z</time>
      </trkpt>
      <trkpt lat="42.26666" lon="1.58665">
        <ele>1684.05</ele>
        <time>2021-07-31T16:40:46Z</time>
      </trkpt>
      <trkpt lat="42.26627" lon="1.58674">
        <ele>1680.18</ele>
        <time>2021-07-31T16:40:52Z</time>
      </trkpt>
      <trkpt lat="42.26621" lon="1.58669">
        <ele>1679.61</ele>
        <time>2021-07-31T16:40:53Z</time>
      </trkpt>
      <trkpt lat="42.26608" lon="1.58662">
        <ele>1678.53</ele>
        <time>2021-07-31T16:40:55Z</time>
      </trkpt>
      <trkpt lat="42.26591" lon="1.58621">
        <ele>1675.32</ele>
        <time>2021-07-31T16:41:01Z</time>
      </trkpt>
      <trkpt lat="42.26574" lon="1.58559">
        <ele>1672.54</ele>
        <time>2021-07-31T16:41:07Z</time>
      </trkpt>
      <trkpt lat="42.26564" lon="1.5851">
        <ele>1670.38</ele>
        <time>2021-07-31T16:41:11Z</time>
      </trkpt>
      <trkpt lat="42.26559" lon="1.58457">
        <ele>1666.67</ele>
        <time>2021-07-31T16:41:16Z</time>
      </trkpt>
      <trkpt lat="42.26549" lon="1.58413">
        <ele>1663.66</ele>
        <time>2021-07-31T16:41:20Z</time>
      </trkpt>
      <trkpt lat="42.26528" lon="1.58361">
        <ele>1659.14</ele>
        <time>2021-07-31T16:41:26Z</time>
      </trkpt>
      <trkpt lat="42.26509" lon="1.58326">
        <ele>1656.28</ele>
        <time>2021-07-31T16:41:30Z</time>
      </trkpt>
      <trkpt lat="42.26482" lon="1.5831">
        <ele>1653.6</ele>
        <time>2021-07-31T16:41:34Z</time>
      </trkpt>
      <trkpt lat="42.26472" lon="1.58308">
        <ele>1652.33</ele>
        <time>2021-07-31T16:41:36Z</time>
      </trkpt>
      <trkpt lat="42.2644" lon="1.58314">
        <ele>1648.62</ele>
        <time>2021-07-31T16:41:42Z</time>
      </trkpt>
      <trkpt lat="42.26433" lon="1.58317">
        <ele>1648.1</ele>
        <time>2021-07-31T16:41:43Z</time>
      </trkpt>
      <trkpt lat="42.26391" lon="1.58284">
        <ele>1644.07</ele>
        <time>2021-07-31T16:41:50Z</time>
      </trkpt>
      <trkpt lat="42.26388" lon="1.58261">
        <ele>1642.6</ele>
        <time>2021-07-31T16:41:52Z</time>
      </trkpt>
      <trkpt lat="42.26386" lon="1.58207">
        <ele>1638.71</ele>
        <time>2021-07-31T16:41:58Z</time>
      </trkpt>
      <trkpt lat="42.26383" lon="1.5819">
        <ele>1637.44</ele>
        <time>2021-07-31T16:42:00Z</time>
      </trkpt>
      <trkpt lat="42.26354" lon="1.58146">
        <ele>1633.74</ele>
        <time>2021-07-31T16:42:06Z</time>
      </trkpt>
      <trkpt lat="42.26326" lon="1.58135">
        <ele>1630.69</ele>
        <time>2021-07-31T16:42:11Z</time>
      </trkpt>
      <trkpt lat="42.26304" lon="1.58133">
        <ele>1626.48</ele>
        <time>2021-07-31T16:42:16Z</time>
      </trkpt>
      <trkpt lat="42.26292" lon="1.58129">
        <ele>1625.35</ele>
        <time>2021-07-31T16:42:18Z</time>
      </trkpt>
      <trkpt lat="42.26268" lon="1.58102">
        <ele>1623.53</ele>
        <time>2021-07-31T16:42:22Z</time>
      </trkpt>
      <trkpt lat="42.26235" lon="1.58044">
        <ele>1619.53</ele>
        <time>2021-07-31T16:42:29Z</time>
      </trkpt>
      <trkpt lat="42.26207" lon="1.58004">
        <ele>1616.1</ele>
        <time>2021-07-31T16:42:34Z</time>
      </trkpt>
      <trkpt lat="42.26194" lon="1.57983">
        <ele>1613.87</ele>
        <time>2021-07-31T16:42:37Z</time>
      </trkpt>
      <trkpt lat="42.26163" lon="1.57971">
        <ele>1609.93</ele>
        <time>2021-07-31T16:42:43Z</time>
      </trkpt>
      <trkpt lat="42.26126" lon="1.57982">
        <ele>1605.94</ele>
        <time>2021-07-31T16:42:51Z</time>
      </trkpt>
      <trkpt lat="42.26124" lon="1.57983">
        <ele>1603.05</ele>
        <time>2021-07-31T16:43:00Z</time>
      </trkpt>
      <trkpt lat="42.26115" lon="1.57981">
        <ele>1601.2</ele>
        <time>2021-07-31T16:43:37Z</time>
      </trkpt>
      <trkpt lat="42.26118" lon="1.5798">
        <ele>1600.94</ele>
        <time>2021-07-31T16:43:43Z</time>
      </trkpt>
      <trkpt lat="42.2613" lon="1.57971">
        <ele>1600.82</ele>
        <time>2021-07-31T16:43:47Z</time>
      </trkpt>
      <trkpt lat="42.26181" lon="1.57943">
        <ele>1599.58</ele>
        <time>2021-07-31T16:43:55Z</time>
      </trkpt>
      <trkpt lat="42.26211" lon="1.57955">
        <ele>1596.72</ele>
        <time>2021-07-31T16:44:00Z</time>
      </trkpt>
      <trkpt lat="42.2623" lon="1.57965">
        <ele>1594.35</ele>
        <time>2021-07-31T16:44:04Z</time>
      </trkpt>
      <trkpt lat="42.26253" lon="1.5797">
        <ele>1592.19</ele>
        <time>2021-07-31T16:44:08Z</time>
      </trkpt>
      <trkpt lat="42.2628" lon="1.57998">
        <ele>1589.33</ele>
        <time>2021-07-31T16:44:14Z</time>
      </trkpt>
      <trkpt lat="42.26287" lon="1.5801">
        <ele>1588.53</ele>
        <time>2021-07-31T16:44:16Z</time>
      </trkpt>
      <trkpt lat="42.26294" lon="1.58022">
        <ele>1587.82</ele>
        <time>2021-07-31T16:44:18Z</time>
      </trkpt>
      <trkpt lat="42.26337" lon="1.58017">
        <ele>1585.19</ele>
        <time>2021-07-31T16:44:25Z</time>
      </trkpt>
      <trkpt lat="42.26364" lon="1.58001">
        <ele>1583.77</ele>
        <time>2021-07-31T16:44:29Z</time>
      </trkpt>
      <trkpt lat="42.26392" lon="1.58009">
        <ele>1581.56</ele>
        <time>2021-07-31T16:44:34Z</time>
      </trkpt>
      <trkpt lat="42.26401" lon="1.58023">
        <ele>1580.63</ele>
        <time>2021-07-31T16:44:36Z</time>
      </trkpt>
      <trkpt lat="42.26442" lon="1.58067">
        <ele>1576.77</ele>
        <time>2021-07-31T16:44:44Z</time>
      </trkpt>
      <trkpt lat="42.26456" lon="1.58079">
        <ele>1575.17</ele>
        <time>2021-07-31T16:44:47Z</time>
      </trkpt>
      <trkpt lat="42.26472" lon="1.58107">
        <ele>1573.14</ele>
        <time>2021-07-31T16:44:51Z</time>
      </trkpt>
      <trkpt lat="42.26514" lon="1.58127">
        <ele>1568.78</ele>
        <time>2021-07-31T16:45:00Z</time>
      </trkpt>
      <trkpt lat="42.26519" lon="1.58123">
        <ele>1568.31</ele>
        <time>2021-07-31T16:45:01Z</time>
      </trkpt>
      <trkpt lat="42.26551" lon="1.58108">
        <ele>1565.83</ele>
        <time>2021-07-31T16:45:07Z</time>
      </trkpt>
      <trkpt lat="42.26568" lon="1.58109">
        <ele>1564.51</ele>
        <time>2021-07-31T16:45:10Z</time>
      </trkpt>
      <trkpt lat="42.26559" lon="1.58095">
        <ele>1561.64</ele>
        <time>2021-07-31T16:45:17Z</time>
      </trkpt>
      <trkpt lat="42.26536" lon="1.58094">
        <ele>1560.52</ele>
        <time>2021-07-31T16:45:20Z</time>
      </trkpt>
      <trkpt lat="42.26523" lon="1.58094">
        <ele>1560</ele>
        <time>2021-07-31T16:45:22Z</time>
      </trkpt>
      <trkpt lat="42.26488" lon="1.58061">
        <ele>1558.19</ele>
        <time>2021-07-31T16:45:28Z</time>
      </trkpt>
      <trkpt lat="42.26445" lon="1.58005">
        <ele>1554.29</ele>
        <time>2021-07-31T16:45:36Z</time>
      </trkpt>
      <trkpt lat="42.26433" lon="1.57987">
        <ele>1553.38</ele>
        <time>2021-07-31T16:45:38Z</time>
      </trkpt>
      <trkpt lat="42.26421" lon="1.57947">
        <ele>1551.62</ele>
        <time>2021-07-31T16:45:42Z</time>
      </trkpt>
      <trkpt lat="42.26408" lon="1.57874">
        <ele>1547.96</ele>
        <time>2021-07-31T16:45:49Z</time>
      </trkpt>
      <trkpt lat="42.26406" lon="1.57858">
        <ele>1546.99</ele>
        <time>2021-07-31T16:45:51Z</time>
      </trkpt>
      <trkpt lat="42.26378" lon="1.57862">
        <ele>1543.67</ele>
        <time>2021-07-31T16:45:56Z</time>
      </trkpt>
      <trkpt lat="42.26362" lon="1.57873">
        <ele>1541.7</ele>
        <time>2021-07-31T16:45:59Z</time>
      </trkpt>
      <trkpt lat="42.26338" lon="1.57857">
        <ele>1539.15</ele>
        <time>2021-07-31T16:46:04Z</time>
      </trkpt>
      <trkpt lat="42.26328" lon="1.57833">
        <ele>1537.71</ele>
        <time>2021-07-31T16:46:07Z</time>
      </trkpt>
      <trkpt lat="42.26298" lon="1.57827">
        <ele>1535.48</ele>
        <time>2021-07-31T16:46:12Z</time>
      </trkpt>
      <trkpt lat="42.26266" lon="1.57802">
        <ele>1532.52</ele>
        <time>2021-07-31T16:46:19Z</time>
      </trkpt>
      <trkpt lat="42.26282" lon="1.57728">
        <ele>1530.84</ele>
        <time>2021-07-31T16:46:26Z</time>
      </trkpt>
      <trkpt lat="42.26304" lon="1.5762">
        <ele>1529.57</ele>
        <time>2021-07-31T16:46:36Z</time>
      </trkpt>
      <trkpt lat="42.26303" lon="1.57562">
        <ele>1527.88</ele>
        <time>2021-07-31T16:46:41Z</time>
      </trkpt>
      <trkpt lat="42.26308" lon="1.57495">
        <ele>1525.82</ele>
        <time>2021-07-31T16:46:47Z</time>
      </trkpt>
      <trkpt lat="42.26303" lon="1.57452">
        <ele>1524.26</ele>
        <time>2021-07-31T16:46:51Z</time>
      </trkpt>
      <trkpt lat="42.26305" lon="1.57407">
        <ele>1523.14</ele>
        <time>2021-07-31T16:46:55Z</time>
      </trkpt>
      <trkpt lat="42.26328" lon="1.57308">
        <ele>1519.73</ele>
        <time>2021-07-31T16:47:05Z</time>
      </trkpt>
      <trkpt lat="42.26328" lon="1.57253">
        <ele>1517</ele>
        <time>2021-07-31T16:47:10Z</time>
      </trkpt>
      <trkpt lat="42.26306" lon="1.57216">
        <ele>1513.27</ele>
        <time>2021-07-31T16:47:15Z</time>
      </trkpt>
      <trkpt lat="42.26301" lon="1.57212">
        <ele>1512.64</ele>
        <time>2021-07-31T16:47:16Z</time>
      </trkpt>
      <trkpt lat="42.26261" lon="1.57178">
        <ele>1508.84</ele>
        <time>2021-07-31T16:47:22Z</time>
      </trkpt>
      <trkpt lat="42.26246" lon="1.57161">
        <ele>1507.86</ele>
        <time>2021-07-31T16:47:24Z</time>
      </trkpt>
      <trkpt lat="42.26247" lon="1.57094">
        <ele>1504.83</ele>
        <time>2021-07-31T16:47:30Z</time>
      </trkpt>
      <trkpt lat="42.26252" lon="1.57085">
        <ele>1504.3</ele>
        <time>2021-07-31T16:47:31Z</time>
      </trkpt>
      <trkpt lat="42.26256" lon="1.57011">
        <ele>1500.64</ele>
        <time>2021-07-31T16:47:38Z</time>
      </trkpt>
      <trkpt lat="42.26246" lon="1.56978">
        <ele>1499.01</ele>
        <time>2021-07-31T16:47:41Z</time>
      </trkpt>
      <trkpt lat="42.26238" lon="1.56961">
        <ele>1498.05</ele>
        <time>2021-07-31T16:47:43Z</time>
      </trkpt>
      <trkpt lat="42.26236" lon="1.5693">
        <ele>1495.98</ele>
        <time>2021-07-31T16:47:47Z</time>
      </trkpt>
      <trkpt lat="42.26241" lon="1.56873">
        <ele>1493.41</ele>
        <time>2021-07-31T16:47:53Z</time>
      </trkpt>
      <trkpt lat="42.26222" lon="1.56843">
        <ele>1489.78</ele>
        <time>2021-07-31T16:47:58Z</time>
      </trkpt>
      <trkpt lat="42.26207" lon="1.56834">
        <ele>1488.7</ele>
        <time>2021-07-31T16:48:00Z</time>
      </trkpt>
      <trkpt lat="42.26179" lon="1.56817">
        <ele>1485.95</ele>
        <time>2021-07-31T16:48:04Z</time>
      </trkpt>
      <trkpt lat="42.26177" lon="1.56769">
        <ele>1481.97</ele>
        <time>2021-07-31T16:48:10Z</time>
      </trkpt>
      <trkpt lat="42.26192" lon="1.56743">
        <ele>1480.07</ele>
        <time>2021-07-31T16:48:13Z</time>
      </trkpt>
      <trkpt lat="42.26209" lon="1.56703">
        <ele>1477.3</ele>
        <time>2021-07-31T16:48:17Z</time>
      </trkpt>
      <trkpt lat="42.2622" lon="1.56639">
        <ele>1473.17</ele>
        <time>2021-07-31T16:48:23Z</time>
      </trkpt>
      <trkpt lat="42.26217" lon="1.5659">
        <ele>1469.25</ele>
        <time>2021-07-31T16:48:28Z</time>
      </trkpt>
      <trkpt lat="42.26198" lon="1.56529">
        <ele>1464.89</ele>
        <time>2021-07-31T16:48:34Z</time>
      </trkpt>
      <trkpt lat="42.26182" lon="1.56475">
        <ele>1461.74</ele>
        <time>2021-07-31T16:48:39Z</time>
      </trkpt>
      <trkpt lat="42.2618" lon="1.56426">
        <ele>1458.04</ele>
        <time>2021-07-31T16:48:44Z</time>
      </trkpt>
      <trkpt lat="42.26175" lon="1.56405">
        <ele>1456.53</ele>
        <time>2021-07-31T16:48:46Z</time>
      </trkpt>
      <trkpt lat="42.26176" lon="1.56351">
        <ele>1452.3</ele>
        <time>2021-07-31T16:48:51Z</time>
      </trkpt>
      <trkpt lat="42.26187" lon="1.56312">
        <ele>1449.52</ele>
        <time>2021-07-31T16:48:55Z</time>
      </trkpt>
      <trkpt lat="42.26202" lon="1.56263">
        <ele>1445.36</ele>
        <time>2021-07-31T16:49:01Z</time>
      </trkpt>
      <trkpt lat="42.2621" lon="1.56246">
        <ele>1443.87</ele>
        <time>2021-07-31T16:49:03Z</time>
      </trkpt>
      <trkpt lat="42.26206" lon="1.56197">
        <ele>1441.47</ele>
        <time>2021-07-31T16:49:07Z</time>
      </trkpt>
      <trkpt lat="42.26204" lon="1.56146">
        <ele>1437.72</ele>
        <time>2021-07-31T16:49:12Z</time>
      </trkpt>
      <trkpt lat="42.26204" lon="1.56137">
        <ele>1436.84</ele>
        <time>2021-07-31T16:49:13Z</time>
      </trkpt>
      <trkpt lat="42.26191" lon="1.56104">
        <ele>1432.76</ele>
        <time>2021-07-31T16:49:18Z</time>
      </trkpt>
      <trkpt lat="42.26168" lon="1.56092">
        <ele>1430.36</ele>
        <time>2021-07-31T16:49:21Z</time>
      </trkpt>
      <trkpt lat="42.26144" lon="1.56064">
        <ele>1427.7</ele>
        <time>2021-07-31T16:49:25Z</time>
      </trkpt>
      <trkpt lat="42.26133" lon="1.55996">
        <ele>1423.58</ele>
        <time>2021-07-31T16:49:31Z</time>
      </trkpt>
      <trkpt lat="42.26136" lon="1.55983">
        <ele>1422.84</ele>
        <time>2021-07-31T16:49:32Z</time>
      </trkpt>
      <trkpt lat="42.26151" lon="1.55935">
        <ele>1418.76</ele>
        <time>2021-07-31T16:49:37Z</time>
      </trkpt>
      <trkpt lat="42.26156" lon="1.55928">
        <ele>1417.82</ele>
        <time>2021-07-31T16:49:38Z</time>
      </trkpt>
      <trkpt lat="42.2617" lon="1.55941">
        <ele>1413.09</ele>
        <time>2021-07-31T16:49:43Z</time>
      </trkpt>
      <trkpt lat="42.26165" lon="1.55948">
        <ele>1412.27</ele>
        <time>2021-07-31T16:49:44Z</time>
      </trkpt>
      <trkpt lat="42.2616" lon="1.55966">
        <ele>1410.8</ele>
        <time>2021-07-31T16:49:46Z</time>
      </trkpt>
      <trkpt lat="42.26174" lon="1.56027">
        <ele>1406.92</ele>
        <time>2021-07-31T16:49:52Z</time>
      </trkpt>
      <trkpt lat="42.26197" lon="1.56034">
        <ele>1402.24</ele>
        <time>2021-07-31T16:49:58Z</time>
      </trkpt>
      <trkpt lat="42.26194" lon="1.56029">
        <ele>1401.52</ele>
        <time>2021-07-31T16:49:59Z</time>
      </trkpt>
      <trkpt lat="42.26193" lon="1.55985">
        <ele>1398.2</ele>
        <time>2021-07-31T16:50:04Z</time>
      </trkpt>
      <trkpt lat="42.26217" lon="1.55938">
        <ele>1394.51</ele>
        <time>2021-07-31T16:50:10Z</time>
      </trkpt>
      <trkpt lat="42.26207" lon="1.55874">
        <ele>1390.33</ele>
        <time>2021-07-31T16:50:16Z</time>
      </trkpt>
      <trkpt lat="42.26196" lon="1.55845">
        <ele>1388.07</ele>
        <time>2021-07-31T16:50:19Z</time>
      </trkpt>
      <trkpt lat="42.26187" lon="1.55826">
        <ele>1386.44</ele>
        <time>2021-07-31T16:50:21Z</time>
      </trkpt>
      <trkpt lat="42.26173" lon="1.55802">
        <ele>1383.98</ele>
        <time>2021-07-31T16:50:24Z</time>
      </trkpt>
      <trkpt lat="42.2617" lon="1.55759">
        <ele>1380.93</ele>
        <time>2021-07-31T16:50:28Z</time>
      </trkpt>
      <trkpt lat="42.26159" lon="1.55705">
        <ele>1376.51</ele>
        <time>2021-07-31T16:50:33Z</time>
      </trkpt>
      <trkpt lat="42.26149" lon="1.5569">
        <ele>1374.8</ele>
        <time>2021-07-31T16:50:35Z</time>
      </trkpt>
      <trkpt lat="42.2613" lon="1.55657">
        <ele>1371.44</ele>
        <time>2021-07-31T16:50:39Z</time>
      </trkpt>
      <trkpt lat="42.26124" lon="1.5563">
        <ele>1368.99</ele>
        <time>2021-07-31T16:50:42Z</time>
      </trkpt>
      <trkpt lat="42.26105" lon="1.55585">
        <ele>1364.61</ele>
        <time>2021-07-31T16:50:47Z</time>
      </trkpt>
      <trkpt lat="42.26083" lon="1.55547">
        <ele>1360.86</ele>
        <time>2021-07-31T16:50:52Z</time>
      </trkpt>
      <trkpt lat="42.26073" lon="1.55532">
        <ele>1359.33</ele>
        <time>2021-07-31T16:50:54Z</time>
      </trkpt>
      <trkpt lat="42.26071" lon="1.55481">
        <ele>1355.03</ele>
        <time>2021-07-31T16:51:00Z</time>
      </trkpt>
      <trkpt lat="42.26071" lon="1.55451">
        <ele>1352.81</ele>
        <time>2021-07-31T16:51:03Z</time>
      </trkpt>
      <trkpt lat="42.2607" lon="1.55385">
        <ele>1348.47</ele>
        <time>2021-07-31T16:51:09Z</time>
      </trkpt>
      <trkpt lat="42.26079" lon="1.55346">
        <ele>1345.23</ele>
        <time>2021-07-31T16:51:13Z</time>
      </trkpt>
      <trkpt lat="42.26073" lon="1.55293">
        <ele>1341.33</ele>
        <time>2021-07-31T16:51:18Z</time>
      </trkpt>
      <trkpt lat="42.26068" lon="1.55283">
        <ele>1340.56</ele>
        <time>2021-07-31T16:51:19Z</time>
      </trkpt>
      <trkpt lat="42.26046" lon="1.55236">
        <ele>1336.77</ele>
        <time>2021-07-31T16:51:24Z</time>
      </trkpt>
      <trkpt lat="42.26055" lon="1.55217">
        <ele>1332.46</ele>
        <time>2021-07-31T16:51:29Z</time>
      </trkpt>
      <trkpt lat="42.26058" lon="1.55225">
        <ele>1331.64</ele>
        <time>2021-07-31T16:51:30Z</time>
      </trkpt>
      <trkpt lat="42.26064" lon="1.55242">
        <ele>1330.28</ele>
        <time>2021-07-31T16:51:32Z</time>
      </trkpt>
      <trkpt lat="42.26103" lon="1.5529">
        <ele>1327.67</ele>
        <time>2021-07-31T16:51:38Z</time>
      </trkpt>
      <trkpt lat="42.26125" lon="1.55362">
        <ele>1324.22</ele>
        <time>2021-07-31T16:51:45Z</time>
      </trkpt>
      <trkpt lat="42.26135" lon="1.55417">
        <ele>1320.91</ele>
        <time>2021-07-31T16:51:50Z</time>
      </trkpt>
      <trkpt lat="42.26139" lon="1.55439">
        <ele>1318.47</ele>
        <time>2021-07-31T16:51:53Z</time>
      </trkpt>
      <trkpt lat="42.26156" lon="1.55455">
        <ele>1314.38</ele>
        <time>2021-07-31T16:51:58Z</time>
      </trkpt>
      <trkpt lat="42.26172" lon="1.55434">
        <ele>1311.37</ele>
        <time>2021-07-31T16:52:03Z</time>
      </trkpt>
      <trkpt lat="42.26175" lon="1.5541">
        <ele>1310.16</ele>
        <time>2021-07-31T16:52:06Z</time>
      </trkpt>
      <trkpt lat="42.26187" lon="1.55359">
        <ele>1310.28</ele>
        <time>2021-07-31T16:52:10Z</time>
      </trkpt>
      <trkpt lat="42.26192" lon="1.55318">
        <ele>1311.52</ele>
        <time>2021-07-31T16:52:13Z</time>
      </trkpt>
      <trkpt lat="42.26194" lon="1.55267">
        <ele>1314.11</ele>
        <time>2021-07-31T16:52:17Z</time>
      </trkpt>
      <trkpt lat="42.26182" lon="1.5521">
        <ele>1318.03</ele>
        <time>2021-07-31T16:52:23Z</time>
      </trkpt>
      <trkpt lat="42.26174" lon="1.55171">
        <ele>1320.8</ele>
        <time>2021-07-31T16:52:27Z</time>
      </trkpt>
      <trkpt lat="42.26175" lon="1.55106">
        <ele>1324.65</ele>
        <time>2021-07-31T16:52:33Z</time>
      </trkpt>
      <trkpt lat="42.26168" lon="1.5504">
        <ele>1328.1</ele>
        <time>2021-07-31T16:52:38Z</time>
      </trkpt>
      <trkpt lat="42.26168" lon="1.55028">
        <ele>1328.74</ele>
        <time>2021-07-31T16:52:39Z</time>
      </trkpt>
      <trkpt lat="42.2618" lon="1.54966">
        <ele>1332.05</ele>
        <time>2021-07-31T16:52:44Z</time>
      </trkpt>
      <trkpt lat="42.26195" lon="1.54934">
        <ele>1333.73</ele>
        <time>2021-07-31T16:52:47Z</time>
      </trkpt>
      <trkpt lat="42.26189" lon="1.5485">
        <ele>1337.47</ele>
        <time>2021-07-31T16:52:54Z</time>
      </trkpt>
      <trkpt lat="42.26177" lon="1.54801">
        <ele>1338.88</ele>
        <time>2021-07-31T16:52:58Z</time>
      </trkpt>
      <trkpt lat="42.26135" lon="1.54712">
        <ele>1342.65</ele>
        <time>2021-07-31T16:53:07Z</time>
      </trkpt>
      <trkpt lat="42.26112" lon="1.54671">
        <ele>1344.55</ele>
        <time>2021-07-31T16:53:12Z</time>
      </trkpt>
      <trkpt lat="42.26081" lon="1.5464">
        <ele>1346.47</ele>
        <time>2021-07-31T16:53:17Z</time>
      </trkpt>
      <trkpt lat="42.26029" lon="1.5459">
        <ele>1349.64</ele>
        <time>2021-07-31T16:53:25Z</time>
      </trkpt>
      <trkpt lat="42.26" lon="1.54543">
        <ele>1351.9</ele>
        <time>2021-07-31T16:53:31Z</time>
      </trkpt>
      <trkpt lat="42.26001" lon="1.54534">
        <ele>1352.13</ele>
        <time>2021-07-31T16:53:32Z</time>
      </trkpt>
      <trkpt lat="42.26003" lon="1.54511">
        <ele>1352.83</ele>
        <time>2021-07-31T16:53:35Z</time>
      </trkpt>
      <trkpt lat="42.26023" lon="1.54455">
        <ele>1354.41</ele>
        <time>2021-07-31T16:53:45Z</time>
      </trkpt>
      <trkpt lat="42.26056" lon="1.54378">
        <ele>1355.48</ele>
        <time>2021-07-31T16:53:54Z</time>
      </trkpt>
      <trkpt lat="42.26056" lon="1.5428">
        <ele>1355.76</ele>
        <time>2021-07-31T16:54:03Z</time>
      </trkpt>
      <trkpt lat="42.26056" lon="1.54269">
        <ele>1355.76</ele>
        <time>2021-07-31T16:54:04Z</time>
      </trkpt>
      <trkpt lat="42.26062" lon="1.54169">
        <ele>1355.22</ele>
        <time>2021-07-31T16:54:13Z</time>
      </trkpt>
      <trkpt lat="42.26056" lon="1.54108">
        <ele>1353.37</ele>
        <time>2021-07-31T16:54:19Z</time>
      </trkpt>
      <trkpt lat="42.2604" lon="1.54087">
        <ele>1350.72</ele>
        <time>2021-07-31T16:54:25Z</time>
      </trkpt>
      <trkpt lat="42.26016" lon="1.54135">
        <ele>1347.69</ele>
        <time>2021-07-31T16:54:31Z</time>
      </trkpt>
      <trkpt lat="42.25986" lon="1.54145">
        <ele>1345.62</ele>
        <time>2021-07-31T16:54:35Z</time>
      </trkpt>
      <trkpt lat="42.25945" lon="1.54161">
        <ele>1341.16</ele>
        <time>2021-07-31T16:54:42Z</time>
      </trkpt>
      <trkpt lat="42.25944" lon="1.54137">
        <ele>1338.72</ele>
        <time>2021-07-31T16:54:46Z</time>
      </trkpt>
      <trkpt lat="42.2595" lon="1.54131">
        <ele>1338.14</ele>
        <time>2021-07-31T16:54:47Z</time>
      </trkpt>
      <trkpt lat="42.2598" lon="1.54064">
        <ele>1334.52</ele>
        <time>2021-07-31T16:54:54Z</time>
      </trkpt>
      <trkpt lat="42.2598" lon="1.54052">
        <ele>1334</ele>
        <time>2021-07-31T16:54:55Z</time>
      </trkpt>
      <trkpt lat="42.2598" lon="1.5404">
        <ele>1333.43</ele>
        <time>2021-07-31T16:54:56Z</time>
      </trkpt>
      <trkpt lat="42.25981" lon="1.54028">
        <ele>1332.76</ele>
        <time>2021-07-31T16:54:57Z</time>
      </trkpt>
      <trkpt lat="42.25981" lon="1.54017">
        <ele>1332.16</ele>
        <time>2021-07-31T16:54:58Z</time>
      </trkpt>
      <trkpt lat="42.25982" lon="1.54008">
        <ele>1331.59</ele>
        <time>2021-07-31T16:54:59Z</time>
      </trkpt>
      <trkpt lat="42.25982" lon="1.54001">
        <ele>1330.92</ele>
        <time>2021-07-31T16:55:00Z</time>
      </trkpt>
      <trkpt lat="42.2598" lon="1.53996">
        <ele>1330.17</ele>
        <time>2021-07-31T16:55:01Z</time>
      </trkpt>
      <trkpt lat="42.25979" lon="1.53993">
        <ele>1329.43</ele>
        <time>2021-07-31T16:55:02Z</time>
      </trkpt>
      <trkpt lat="42.25977" lon="1.53991">
        <ele>1328.66</ele>
        <time>2021-07-31T16:55:03Z</time>
      </trkpt>
      <trkpt lat="42.25966" lon="1.53996">
        <ele>1325.2</ele>
        <time>2021-07-31T16:55:08Z</time>
      </trkpt>
      <trkpt lat="42.25963" lon="1.54007">
        <ele>1324.17</ele>
        <time>2021-07-31T16:55:10Z</time>
      </trkpt>
      <trkpt lat="42.25947" lon="1.54052">
        <ele>1322.32</ele>
        <time>2021-07-31T16:55:15Z</time>
      </trkpt>
      <trkpt lat="42.25904" lon="1.54099">
        <ele>1320.43</ele>
        <time>2021-07-31T16:55:22Z</time>
      </trkpt>
      <trkpt lat="42.25884" lon="1.54094">
        <ele>1316.57</ele>
        <time>2021-07-31T16:55:29Z</time>
      </trkpt>
      <trkpt lat="42.25874" lon="1.54102">
        <ele>1315.35</ele>
        <time>2021-07-31T16:55:32Z</time>
      </trkpt>
      <trkpt lat="42.25865" lon="1.54115">
        <ele>1314.89</ele>
        <time>2021-07-31T16:55:34Z</time>
      </trkpt>
      <trkpt lat="42.25831" lon="1.54179">
        <ele>1314.55</ele>
        <time>2021-07-31T16:55:41Z</time>
      </trkpt>
      <trkpt lat="42.25834" lon="1.54249">
        <ele>1314.05</ele>
        <time>2021-07-31T16:55:45Z</time>
      </trkpt>
      <trkpt lat="42.25863" lon="1.54329">
        <ele>1312.94</ele>
        <time>2021-07-31T16:55:50Z</time>
      </trkpt>
      <trkpt lat="42.25853" lon="1.5437">
        <ele>1309.55</ele>
        <time>2021-07-31T16:55:55Z</time>
      </trkpt>
      <trkpt lat="42.25837" lon="1.54343">
        <ele>1307.44</ele>
        <time>2021-07-31T16:55:58Z</time>
      </trkpt>
      <trkpt lat="42.2582" lon="1.54299">
        <ele>1306.27</ele>
        <time>2021-07-31T16:56:00Z</time>
      </trkpt>
      <trkpt lat="42.25768" lon="1.54214">
        <ele>1303.89</ele>
        <time>2021-07-31T16:56:05Z</time>
      </trkpt>
      <trkpt lat="42.25753" lon="1.54143">
        <ele>1301.38</ele>
        <time>2021-07-31T16:56:09Z</time>
      </trkpt>
      <trkpt lat="42.25738" lon="1.54031">
        <ele>1296.78</ele>
        <time>2021-07-31T16:56:15Z</time>
      </trkpt>
      <trkpt lat="42.25712" lon="1.53977">
        <ele>1294.68</ele>
        <time>2021-07-31T16:56:18Z</time>
      </trkpt>
      <trkpt lat="42.2571" lon="1.53895">
        <ele>1290.27</ele>
        <time>2021-07-31T16:56:23Z</time>
      </trkpt>
      <trkpt lat="42.25756" lon="1.53822">
        <ele>1285.23</ele>
        <time>2021-07-31T16:56:28Z</time>
      </trkpt>
      <trkpt lat="42.25765" lon="1.53808">
        <ele>1284.15</ele>
        <time>2021-07-31T16:56:29Z</time>
      </trkpt>
      <trkpt lat="42.25786" lon="1.53741">
        <ele>1279.74</ele>
        <time>2021-07-31T16:56:33Z</time>
      </trkpt>
      <trkpt lat="42.25788" lon="1.53703">
        <ele>1277.71</ele>
        <time>2021-07-31T16:56:35Z</time>
      </trkpt>
      <trkpt lat="42.25823" lon="1.53624">
        <ele>1273.7</ele>
        <time>2021-07-31T16:56:40Z</time>
      </trkpt>
      <trkpt lat="42.25896" lon="1.53595">
        <ele>1270.04</ele>
        <time>2021-07-31T16:56:45Z</time>
      </trkpt>
      <trkpt lat="42.2591" lon="1.53582">
        <ele>1269.27</ele>
        <time>2021-07-31T16:56:46Z</time>
      </trkpt>
      <trkpt lat="42.25966" lon="1.53524">
        <ele>1266.26</ele>
        <time>2021-07-31T16:56:50Z</time>
      </trkpt>
      <trkpt lat="42.26009" lon="1.53446">
        <ele>1262.13</ele>
        <time>2021-07-31T16:56:55Z</time>
      </trkpt>
      <trkpt lat="42.25996" lon="1.53397">
        <ele>1257.37</ele>
        <time>2021-07-31T16:56:59Z</time>
      </trkpt>
      <trkpt lat="42.25984" lon="1.5339">
        <ele>1256.19</ele>
        <time>2021-07-31T16:57:00Z</time>
      </trkpt>
      <trkpt lat="42.25947" lon="1.53366">
        <ele>1253.32</ele>
        <time>2021-07-31T16:57:03Z</time>
      </trkpt>
      <trkpt lat="42.25913" lon="1.53368">
        <ele>1248.9</ele>
        <time>2021-07-31T16:57:07Z</time>
      </trkpt>
      <trkpt lat="42.25915" lon="1.53398">
        <ele>1245.74</ele>
        <time>2021-07-31T16:57:10Z</time>
      </trkpt>
      <trkpt lat="42.25935" lon="1.53449">
        <ele>1242.68</ele>
        <time>2021-07-31T16:57:14Z</time>
      </trkpt>
      <trkpt lat="42.25909" lon="1.53485">
        <ele>1240.37</ele>
        <time>2021-07-31T16:57:18Z</time>
      </trkpt>
      <trkpt lat="42.25887" lon="1.53498">
        <ele>1239.54</ele>
        <time>2021-07-31T16:57:20Z</time>
      </trkpt>
      <trkpt lat="42.2581" lon="1.53485">
        <ele>1237.07</ele>
        <time>2021-07-31T16:57:26Z</time>
      </trkpt>
      <trkpt lat="42.25784" lon="1.53482">
        <ele>1236.21</ele>
        <time>2021-07-31T16:57:28Z</time>
      </trkpt>
      <trkpt lat="42.257" lon="1.53495">
        <ele>1232.97</ele>
        <time>2021-07-31T16:57:34Z</time>
      </trkpt>
      <trkpt lat="42.25601" lon="1.53487">
        <ele>1228.66</ele>
        <time>2021-07-31T16:57:41Z</time>
      </trkpt>
      <trkpt lat="42.25588" lon="1.53483">
        <ele>1228.03</ele>
        <time>2021-07-31T16:57:42Z</time>
      </trkpt>
      <trkpt lat="42.25537" lon="1.53512">
        <ele>1223.45</ele>
        <time>2021-07-31T16:57:47Z</time>
      </trkpt>
      <trkpt lat="42.25515" lon="1.53595">
        <ele>1220.47</ele>
        <time>2021-07-31T16:57:51Z</time>
      </trkpt>
      <trkpt lat="42.25483" lon="1.5374">
        <ele>1217.44</ele>
        <time>2021-07-31T16:57:57Z</time>
      </trkpt>
      <trkpt lat="42.25488" lon="1.53824">
        <ele>1214.1</ele>
        <time>2021-07-31T16:58:01Z</time>
      </trkpt>
      <trkpt lat="42.25495" lon="1.53942">
        <ele>1209.09</ele>
        <time>2021-07-31T16:58:06Z</time>
      </trkpt>
      <trkpt lat="42.25498" lon="1.53985">
        <ele>1207.25</ele>
        <time>2021-07-31T16:58:08Z</time>
      </trkpt>
      <trkpt lat="42.25485" lon="1.54061">
        <ele>1202.81</ele>
        <time>2021-07-31T16:58:12Z</time>
      </trkpt>
      <trkpt lat="42.25484" lon="1.5408">
        <ele>1201.8</ele>
        <time>2021-07-31T16:58:13Z</time>
      </trkpt>
      <trkpt lat="42.25482" lon="1.54115">
        <ele>1199.65</ele>
        <time>2021-07-31T16:58:15Z</time>
      </trkpt>
      <trkpt lat="42.25465" lon="1.54147">
        <ele>1194.78</ele>
        <time>2021-07-31T16:58:19Z</time>
      </trkpt>
      <trkpt lat="42.25447" lon="1.54118">
        <ele>1191.32</ele>
        <time>2021-07-31T16:58:22Z</time>
      </trkpt>
      <trkpt lat="42.25438" lon="1.54044">
        <ele>1188.19</ele>
        <time>2021-07-31T16:58:26Z</time>
      </trkpt>
      <trkpt lat="42.25381" lon="1.5394">
        <ele>1183.68</ele>
        <time>2021-07-31T16:58:33Z</time>
      </trkpt>
      <trkpt lat="42.2535" lon="1.53921">
        <ele>1182.8</ele>
        <time>2021-07-31T16:58:35Z</time>
      </trkpt>
      <trkpt lat="42.25295" lon="1.53858">
        <ele>1181.38</ele>
        <time>2021-07-31T16:58:39Z</time>
      </trkpt>
      <trkpt lat="42.25262" lon="1.53802">
        <ele>1179.94</ele>
        <time>2021-07-31T16:58:42Z</time>
      </trkpt>
      <trkpt lat="42.25214" lon="1.53735">
        <ele>1177.14</ele>
        <time>2021-07-31T16:58:46Z</time>
      </trkpt>
      <trkpt lat="42.25198" lon="1.53692">
        <ele>1175.37</ele>
        <time>2021-07-31T16:58:48Z</time>
      </trkpt>
      <trkpt lat="42.25186" lon="1.53575">
        <ele>1169.91</ele>
        <time>2021-07-31T16:58:53Z</time>
      </trkpt>
      <trkpt lat="42.25183" lon="1.53553">
        <ele>1169.23</ele>
        <time>2021-07-31T16:58:54Z</time>
      </trkpt>
      <trkpt lat="42.25198" lon="1.53456">
        <ele>1165.32</ele>
        <time>2021-07-31T16:58:59Z</time>
      </trkpt>
      <trkpt lat="42.25222" lon="1.53364">
        <ele>1162.24</ele>
        <time>2021-07-31T16:59:04Z</time>
      </trkpt>
      <trkpt lat="42.25231" lon="1.53334">
        <ele>1161.04</ele>
        <time>2021-07-31T16:59:06Z</time>
      </trkpt>
      <trkpt lat="42.25219" lon="1.53267">
        <ele>1157.67</ele>
        <time>2021-07-31T16:59:11Z</time>
      </trkpt>
      <trkpt lat="42.25131" lon="1.53139">
        <ele>1154.96</ele>
        <time>2021-07-31T16:59:19Z</time>
      </trkpt>
      <trkpt lat="42.25094" lon="1.53061">
        <ele>1153.69</ele>
        <time>2021-07-31T16:59:23Z</time>
      </trkpt>
      <trkpt lat="42.25039" lon="1.53026">
        <ele>1151.29</ele>
        <time>2021-07-31T16:59:27Z</time>
      </trkpt>
      <trkpt lat="42.25009" lon="1.53018">
        <ele>1149.66</ele>
        <time>2021-07-31T16:59:29Z</time>
      </trkpt>
      <trkpt lat="42.24939" lon="1.52949">
        <ele>1144.99</ele>
        <time>2021-07-31T16:59:34Z</time>
      </trkpt>
      <trkpt lat="42.24929" lon="1.52932">
        <ele>1144.19</ele>
        <time>2021-07-31T16:59:35Z</time>
      </trkpt>
      <trkpt lat="42.24906" lon="1.52882">
        <ele>1141.34</ele>
        <time>2021-07-31T16:59:38Z</time>
      </trkpt>
      <trkpt lat="42.24859" lon="1.52862">
        <ele>1136.61</ele>
        <time>2021-07-31T16:59:42Z</time>
      </trkpt>
      <trkpt lat="42.24816" lon="1.52866">
        <ele>1133.32</ele>
        <time>2021-07-31T16:59:45Z</time>
      </trkpt>
      <trkpt lat="42.24789" lon="1.52851">
        <ele>1131.33</ele>
        <time>2021-07-31T16:59:47Z</time>
      </trkpt>
      <trkpt lat="42.24749" lon="1.52823">
        <ele>1129.06</ele>
        <time>2021-07-31T16:59:50Z</time>
      </trkpt>
      <trkpt lat="42.24674" lon="1.52822">
        <ele>1125.34</ele>
        <time>2021-07-31T16:59:55Z</time>
      </trkpt>
      <trkpt lat="42.24643" lon="1.52835">
        <ele>1123.87</ele>
        <time>2021-07-31T16:59:57Z</time>
      </trkpt>
      <trkpt lat="42.24586" lon="1.52827">
        <ele>1120.75</ele>
        <time>2021-07-31T17:00:01Z</time>
      </trkpt>
      <trkpt lat="42.24552" lon="1.52794">
        <ele>1118.26</ele>
        <time>2021-07-31T17:00:04Z</time>
      </trkpt>
      <trkpt lat="42.24498" lon="1.52806">
        <ele>1113.41</ele>
        <time>2021-07-31T17:00:09Z</time>
      </trkpt>
      <trkpt lat="42.24487" lon="1.5282">
        <ele>1112.47</ele>
        <time>2021-07-31T17:00:10Z</time>
      </trkpt>
      <trkpt lat="42.24405" lon="1.52895">
        <ele>1108.46</ele>
        <time>2021-07-31T17:00:16Z</time>
      </trkpt>
      <trkpt lat="42.24303" lon="1.53035">
        <ele>1104.33</ele>
        <time>2021-07-31T17:00:24Z</time>
      </trkpt>
      <trkpt lat="42.2429" lon="1.53048">
        <ele>1103.55</ele>
        <time>2021-07-31T17:00:25Z</time>
      </trkpt>
      <trkpt lat="42.24247" lon="1.53075">
        <ele>1099.5</ele>
        <time>2021-07-31T17:00:28Z</time>
      </trkpt>
      <trkpt lat="42.24202" lon="1.53127">
        <ele>1095.25</ele>
        <time>2021-07-31T17:00:32Z</time>
      </trkpt>
      <trkpt lat="42.24176" lon="1.53179">
        <ele>1092.23</ele>
        <time>2021-07-31T17:00:35Z</time>
      </trkpt>
      <trkpt lat="42.24163" lon="1.53216">
        <ele>1090.26</ele>
        <time>2021-07-31T17:00:37Z</time>
      </trkpt>
      <trkpt lat="42.24121" lon="1.53266">
        <ele>1086.04</ele>
        <time>2021-07-31T17:00:41Z</time>
      </trkpt>
      <trkpt lat="42.24085" lon="1.53305">
        <ele>1083.61</ele>
        <time>2021-07-31T17:00:44Z</time>
      </trkpt>
      <trkpt lat="42.24051" lon="1.53401">
        <ele>1079.24</ele>
        <time>2021-07-31T17:00:50Z</time>
      </trkpt>
      <trkpt lat="42.24074" lon="1.5348">
        <ele>1076.38</ele>
        <time>2021-07-31T17:00:54Z</time>
      </trkpt>
      <trkpt lat="42.24106" lon="1.53592">
        <ele>1072.04</ele>
        <time>2021-07-31T17:01:00Z</time>
      </trkpt>
      <trkpt lat="42.24091" lon="1.53644">
        <ele>1067.22</ele>
        <time>2021-07-31T17:01:04Z</time>
      </trkpt>
      <trkpt lat="42.24056" lon="1.53643">
        <ele>1063.93</ele>
        <time>2021-07-31T17:01:07Z</time>
      </trkpt>
      <trkpt lat="42.24012" lon="1.53668">
        <ele>1059.87</ele>
        <time>2021-07-31T17:01:11Z</time>
      </trkpt>
      <trkpt lat="42.23998" lon="1.53698">
        <ele>1058.03</ele>
        <time>2021-07-31T17:01:13Z</time>
      </trkpt>
      <trkpt lat="42.23982" lon="1.53749">
        <ele>1052.53</ele>
        <time>2021-07-31T17:01:19Z</time>
      </trkpt>
      <trkpt lat="42.23977" lon="1.53735">
        <ele>1049.46</ele>
        <time>2021-07-31T17:01:22Z</time>
      </trkpt>
      <trkpt lat="42.23979" lon="1.53727">
        <ele>1048.58</ele>
        <time>2021-07-31T17:01:23Z</time>
      </trkpt>
      <trkpt lat="42.24002" lon="1.53606">
        <ele>1045.24</ele>
        <time>2021-07-31T17:01:30Z</time>
      </trkpt>
      <trkpt lat="42.24009" lon="1.53558">
        <ele>1044.89</ele>
        <time>2021-07-31T17:01:32Z</time>
      </trkpt>
      <trkpt lat="42.24" lon="1.53455">
        <ele>1043.9</ele>
        <time>2021-07-31T17:01:36Z</time>
      </trkpt>
      <trkpt lat="42.24" lon="1.53307">
        <ele>1040.43</ele>
        <time>2021-07-31T17:01:42Z</time>
      </trkpt>
      <trkpt lat="42.24008" lon="1.53284">
        <ele>1039.72</ele>
        <time>2021-07-31T17:01:43Z</time>
      </trkpt>
      <trkpt lat="42.24065" lon="1.53148">
        <ele>1035.52</ele>
        <time>2021-07-31T17:01:50Z</time>
      </trkpt>
      <trkpt lat="42.24103" lon="1.53101">
        <ele>1032.41</ele>
        <time>2021-07-31T17:01:54Z</time>
      </trkpt>
      <trkpt lat="42.24156" lon="1.53014">
        <ele>1029.8</ele>
        <time>2021-07-31T17:02:00Z</time>
      </trkpt>
      <trkpt lat="42.24198" lon="1.52941">
        <ele>1028.47</ele>
        <time>2021-07-31T17:02:05Z</time>
      </trkpt>
      <trkpt lat="42.2428" lon="1.52833">
        <ele>1027.83</ele>
        <time>2021-07-31T17:02:12Z</time>
      </trkpt>
      <trkpt lat="42.24347" lon="1.52674">
        <ele>1026.86</ele>
        <time>2021-07-31T17:02:20Z</time>
      </trkpt>
      <trkpt lat="42.24356" lon="1.52658">
        <ele>1026.45</ele>
        <time>2021-07-31T17:02:21Z</time>
      </trkpt>
      <trkpt lat="42.24372" lon="1.5256">
        <ele>1021.95</ele>
        <time>2021-07-31T17:02:27Z</time>
      </trkpt>
      <trkpt lat="42.24375" lon="1.52535">
        <ele>1019.88</ele>
        <time>2021-07-31T17:02:29Z</time>
      </trkpt>
      <trkpt lat="42.24379" lon="1.52514">
        <ele>1015.12</ele>
        <time>2021-07-31T17:02:33Z</time>
      </trkpt>
      <trkpt lat="42.2438" lon="1.52509">
        <ele>1012.1</ele>
        <time>2021-07-31T17:02:36Z</time>
      </trkpt>
      <trkpt lat="42.24389" lon="1.52492">
        <ele>1008.96</ele>
        <time>2021-07-31T17:02:41Z</time>
      </trkpt>
      <trkpt lat="42.24391" lon="1.52487">
        <ele>1008.63</ele>
        <time>2021-07-31T17:02:42Z</time>
      </trkpt>
      <trkpt lat="42.24375" lon="1.52482">
        <ele>1007.06</ele>
        <time>2021-07-31T17:02:48Z</time>
      </trkpt>
      <trkpt lat="42.24347" lon="1.52499">
        <ele>1005.86</ele>
        <time>2021-07-31T17:02:56Z</time>
      </trkpt>
      <trkpt lat="42.24315" lon="1.52531">
        <ele>1004.68</ele>
        <time>2021-07-31T17:03:04Z</time>
      </trkpt>
      <trkpt lat="42.24298" lon="1.5259">
        <ele>1004.97</ele>
        <time>2021-07-31T17:03:12Z</time>
      </trkpt>
      <trkpt lat="42.24282" lon="1.52608">
        <ele>1006.31</ele>
        <time>2021-07-31T17:03:15Z</time>
      </trkpt>
      <trkpt lat="42.2425" lon="1.52622">
        <ele>1010.48</ele>
        <time>2021-07-31T17:03:23Z</time>
      </trkpt>
      <trkpt lat="42.24226" lon="1.52613">
        <ele>1013.54</ele>
        <time>2021-07-31T17:03:28Z</time>
      </trkpt>
      <trkpt lat="42.24196" lon="1.52598">
        <ele>1017.29</ele>
        <time>2021-07-31T17:03:33Z</time>
      </trkpt>
      <trkpt lat="42.24173" lon="1.52584">
        <ele>1020.86</ele>
        <time>2021-07-31T17:03:37Z</time>
      </trkpt>
      <trkpt lat="42.2416" lon="1.52574">
        <ele>1022.32</ele>
        <time>2021-07-31T17:03:39Z</time>
      </trkpt>
      <trkpt lat="42.24114" lon="1.5256">
        <ele>1026.55</ele>
        <time>2021-07-31T17:03:45Z</time>
      </trkpt>
      <trkpt lat="42.24109" lon="1.52596">
        <ele>1030.5</ele>
        <time>2021-07-31T17:03:51Z</time>
      </trkpt>
      <trkpt lat="42.24131" lon="1.52651">
        <ele>1033.97</ele>
        <time>2021-07-31T17:03:58Z</time>
      </trkpt>
      <trkpt lat="42.24137" lon="1.52665">
        <ele>1035.07</ele>
        <time>2021-07-31T17:04:00Z</time>
      </trkpt>
      <trkpt lat="42.24124" lon="1.52719">
        <ele>1038.81</ele>
        <time>2021-07-31T17:04:06Z</time>
      </trkpt>
      <trkpt lat="42.2411" lon="1.52755">
        <ele>1041.91</ele>
        <time>2021-07-31T17:04:11Z</time>
      </trkpt>
      <trkpt lat="42.24097" lon="1.52749">
        <ele>1044.88</ele>
        <time>2021-07-31T17:04:17Z</time>
      </trkpt>
      <trkpt lat="42.24098" lon="1.52742">
        <ele>1045.36</ele>
        <time>2021-07-31T17:04:18Z</time>
      </trkpt>
      <trkpt lat="42.24109" lon="1.52681">
        <ele>1048.58</ele>
        <time>2021-07-31T17:04:25Z</time>
      </trkpt>
      <trkpt lat="42.24104" lon="1.52664">
        <ele>1049.57</ele>
        <time>2021-07-31T17:04:27Z</time>
      </trkpt>
      <trkpt lat="42.24071" lon="1.52626">
        <ele>1053.31</ele>
        <time>2021-07-31T17:04:32Z</time>
      </trkpt>
      <trkpt lat="42.2404" lon="1.52597">
        <ele>1056.87</ele>
        <time>2021-07-31T17:04:36Z</time>
      </trkpt>
      <trkpt lat="42.24019" lon="1.52557">
        <ele>1060.09</ele>
        <time>2021-07-31T17:04:40Z</time>
      </trkpt>
      <trkpt lat="42.23992" lon="1.52529">
        <ele>1063.28</ele>
        <time>2021-07-31T17:04:44Z</time>
      </trkpt>
      <trkpt lat="42.23927" lon="1.52504">
        <ele>1067.86</ele>
        <time>2021-07-31T17:04:50Z</time>
      </trkpt>
      <trkpt lat="42.2389" lon="1.52488">
        <ele>1071.58</ele>
        <time>2021-07-31T17:04:54Z</time>
      </trkpt>
      <trkpt lat="42.23893" lon="1.52485">
        <ele>1072.48</ele>
        <time>2021-07-31T17:04:55Z</time>
      </trkpt>
      <trkpt lat="42.23859" lon="1.5249">
        <ele>1076.6</ele>
        <time>2021-07-31T17:05:00Z</time>
      </trkpt>
      <trkpt lat="42.23811" lon="1.52483">
        <ele>1081.81</ele>
        <time>2021-07-31T17:05:07Z</time>
      </trkpt>
      <trkpt lat="42.2379" lon="1.52495">
        <ele>1083.81</ele>
        <time>2021-07-31T17:05:10Z</time>
      </trkpt>
      <trkpt lat="42.23753" lon="1.5252">
        <ele>1086.78</ele>
        <time>2021-07-31T17:05:15Z</time>
      </trkpt>
      <trkpt lat="42.2373" lon="1.52477">
        <ele>1090.17</ele>
        <time>2021-07-31T17:05:22Z</time>
      </trkpt>
      <trkpt lat="42.23738" lon="1.52436">
        <ele>1091.58</ele>
        <time>2021-07-31T17:05:25Z</time>
      </trkpt>
      <trkpt lat="42.23801" lon="1.52392">
        <ele>1095.57</ele>
        <time>2021-07-31T17:05:30Z</time>
      </trkpt>
      <trkpt lat="42.23823" lon="1.52382">
        <ele>1096.86</ele>
        <time>2021-07-31T17:05:32Z</time>
      </trkpt>
      <trkpt lat="42.23876" lon="1.52359">
        <ele>1100.78</ele>
        <time>2021-07-31T17:05:38Z</time>
      </trkpt>
      <trkpt lat="42.23888" lon="1.52352">
        <ele>1102.2</ele>
        <time>2021-07-31T17:05:40Z</time>
      </trkpt>
      <trkpt lat="42.23925" lon="1.52329">
        <ele>1106.3</ele>
        <time>2021-07-31T17:05:46Z</time>
      </trkpt>
      <trkpt lat="42.23946" lon="1.52312">
        <ele>1108.19</ele>
        <time>2021-07-31T17:05:49Z</time>
      </trkpt>
      <trkpt lat="42.23978" lon="1.52283">
        <ele>1111.42</ele>
        <time>2021-07-31T17:05:54Z</time>
      </trkpt>
      <trkpt lat="42.23996" lon="1.52277">
        <ele>1113.8</ele>
        <time>2021-07-31T17:05:58Z</time>
      </trkpt>
      <trkpt lat="42.23988" lon="1.52257">
        <ele>1116.82</ele>
        <time>2021-07-31T17:06:04Z</time>
      </trkpt>
      <trkpt lat="42.23976" lon="1.52263">
        <ele>1118.25</ele>
        <time>2021-07-31T17:06:06Z</time>
      </trkpt>
      <trkpt lat="42.23928" lon="1.52282">
        <ele>1122.52</ele>
        <time>2021-07-31T17:06:12Z</time>
      </trkpt>
      <trkpt lat="42.23896" lon="1.52297">
        <ele>1125.91</ele>
        <time>2021-07-31T17:06:16Z</time>
      </trkpt>
      <trkpt lat="42.23861" lon="1.52306">
        <ele>1129.08</ele>
        <time>2021-07-31T17:06:20Z</time>
      </trkpt>
      <trkpt lat="42.23829" lon="1.52306">
        <ele>1132.32</ele>
        <time>2021-07-31T17:06:24Z</time>
      </trkpt>
      <trkpt lat="42.2379" lon="1.52299">
        <ele>1135.9</ele>
        <time>2021-07-31T17:06:29Z</time>
      </trkpt>
      <trkpt lat="42.23783" lon="1.52297">
        <ele>1136.65</ele>
        <time>2021-07-31T17:06:30Z</time>
      </trkpt>
      <trkpt lat="42.23747" lon="1.52311">
        <ele>1140.53</ele>
        <time>2021-07-31T17:06:36Z</time>
      </trkpt>
      <trkpt lat="42.23712" lon="1.52347">
        <ele>1144.46</ele>
        <time>2021-07-31T17:06:41Z</time>
      </trkpt>
      <trkpt lat="42.23685" lon="1.52382">
        <ele>1148</ele>
        <time>2021-07-31T17:06:45Z</time>
      </trkpt>
      <trkpt lat="42.23657" lon="1.52414">
        <ele>1151.05</ele>
        <time>2021-07-31T17:06:49Z</time>
      </trkpt>
      <trkpt lat="42.2363" lon="1.52437">
        <ele>1154.32</ele>
        <time>2021-07-31T17:06:53Z</time>
      </trkpt>
      <trkpt lat="42.23615" lon="1.52451">
        <ele>1155.47</ele>
        <time>2021-07-31T17:06:55Z</time>
      </trkpt>
      <trkpt lat="42.2357" lon="1.52476">
        <ele>1159.75</ele>
        <time>2021-07-31T17:07:02Z</time>
      </trkpt>
      <trkpt lat="42.23549" lon="1.52462">
        <ele>1162.23</ele>
        <time>2021-07-31T17:07:05Z</time>
      </trkpt>
      <trkpt lat="42.23536" lon="1.52455">
        <ele>1163.8</ele>
        <time>2021-07-31T17:07:07Z</time>
      </trkpt>
      <trkpt lat="42.23506" lon="1.52457">
        <ele>1167.24</ele>
        <time>2021-07-31T17:07:11Z</time>
      </trkpt>
      <trkpt lat="42.23487" lon="1.52463">
        <ele>1169.1</ele>
        <time>2021-07-31T17:07:14Z</time>
      </trkpt>
      <trkpt lat="42.23458" lon="1.52435">
        <ele>1172.39</ele>
        <time>2021-07-31T17:07:19Z</time>
      </trkpt>
      <trkpt lat="42.23436" lon="1.5241">
        <ele>1175.68</ele>
        <time>2021-07-31T17:07:23Z</time>
      </trkpt>
      <trkpt lat="42.23424" lon="1.52444">
        <ele>1178.97</ele>
        <time>2021-07-31T17:07:29Z</time>
      </trkpt>
      <trkpt lat="42.23416" lon="1.5247">
        <ele>1180.12</ele>
        <time>2021-07-31T17:07:31Z</time>
      </trkpt>
      <trkpt lat="42.23383" lon="1.52508">
        <ele>1183.09</ele>
        <time>2021-07-31T17:07:35Z</time>
      </trkpt>
      <trkpt lat="42.23331" lon="1.52539">
        <ele>1188.61</ele>
        <time>2021-07-31T17:07:41Z</time>
      </trkpt>
      <trkpt lat="42.23326" lon="1.52545">
        <ele>1189.52</ele>
        <time>2021-07-31T17:07:42Z</time>
      </trkpt>
      <trkpt lat="42.23298" lon="1.5258">
        <ele>1193.3</ele>
        <time>2021-07-31T17:07:48Z</time>
      </trkpt>
      <trkpt lat="42.23266" lon="1.52617">
        <ele>1196.36</ele>
        <time>2021-07-31T17:07:53Z</time>
      </trkpt>
      <trkpt lat="42.23254" lon="1.52631">
        <ele>1197.93</ele>
        <time>2021-07-31T17:07:55Z</time>
      </trkpt>
      <trkpt lat="42.23228" lon="1.5268">
        <ele>1201.86</ele>
        <time>2021-07-31T17:08:00Z</time>
      </trkpt>
      <trkpt lat="42.23192" lon="1.52708">
        <ele>1205.19</ele>
        <time>2021-07-31T17:08:05Z</time>
      </trkpt>
      <trkpt lat="42.23183" lon="1.52707">
        <ele>1206.04</ele>
        <time>2021-07-31T17:08:06Z</time>
      </trkpt>
      <trkpt lat="42.23147" lon="1.52709">
        <ele>1208.36</ele>
        <time>2021-07-31T17:08:09Z</time>
      </trkpt>
      <trkpt lat="42.23085" lon="1.52678">
        <ele>1211.36</ele>
        <time>2021-07-31T17:08:14Z</time>
      </trkpt>
      <trkpt lat="42.2302" lon="1.52671">
        <ele>1214.91</ele>
        <time>2021-07-31T17:08:19Z</time>
      </trkpt>
      <trkpt lat="42.23003" lon="1.52673">
        <ele>1216.78</ele>
        <time>2021-07-31T17:08:21Z</time>
      </trkpt>
      <trkpt lat="42.22993" lon="1.5268">
        <ele>1218.42</ele>
        <time>2021-07-31T17:08:23Z</time>
      </trkpt>
      <trkpt lat="42.23011" lon="1.52737">
        <ele>1221.58</ele>
        <time>2021-07-31T17:08:28Z</time>
      </trkpt>
      <trkpt lat="42.23044" lon="1.52773">
        <ele>1224.64</ele>
        <time>2021-07-31T17:08:32Z</time>
      </trkpt>
      <trkpt lat="42.23064" lon="1.52805">
        <ele>1226.78</ele>
        <time>2021-07-31T17:08:35Z</time>
      </trkpt>
      <trkpt lat="42.23098" lon="1.52831">
        <ele>1230.51</ele>
        <time>2021-07-31T17:08:39Z</time>
      </trkpt>
      <trkpt lat="42.23148" lon="1.52846">
        <ele>1235</ele>
        <time>2021-07-31T17:08:44Z</time>
      </trkpt>
      <trkpt lat="42.23169" lon="1.52852">
        <ele>1238.08</ele>
        <time>2021-07-31T17:08:46Z</time>
      </trkpt>
      <trkpt lat="42.23186" lon="1.5286">
        <ele>1239.89</ele>
        <time>2021-07-31T17:08:48Z</time>
      </trkpt>
      <trkpt lat="42.23216" lon="1.52892">
        <ele>1244.19</ele>
        <time>2021-07-31T17:08:53Z</time>
      </trkpt>
      <trkpt lat="42.23225" lon="1.52895">
        <ele>1245.06</ele>
        <time>2021-07-31T17:08:54Z</time>
      </trkpt>
      <trkpt lat="42.2324" lon="1.52901">
        <ele>1246.71</ele>
        <time>2021-07-31T17:08:56Z</time>
      </trkpt>
      <trkpt lat="42.23256" lon="1.52935">
        <ele>1249.77</ele>
        <time>2021-07-31T17:09:00Z</time>
      </trkpt>
      <trkpt lat="42.23259" lon="1.52969">
        <ele>1252.27</ele>
        <time>2021-07-31T17:09:03Z</time>
      </trkpt>
      <trkpt lat="42.23265" lon="1.5299">
        <ele>1254.02</ele>
        <time>2021-07-31T17:09:05Z</time>
      </trkpt>
      <trkpt lat="42.23295" lon="1.53023">
        <ele>1258.5</ele>
        <time>2021-07-31T17:09:10Z</time>
      </trkpt>
      <trkpt lat="42.23317" lon="1.53023">
        <ele>1260.1</ele>
        <time>2021-07-31T17:09:12Z</time>
      </trkpt>
      <trkpt lat="42.23335" lon="1.53026">
        <ele>1261.99</ele>
        <time>2021-07-31T17:09:14Z</time>
      </trkpt>
      <trkpt lat="42.23382" lon="1.53008">
        <ele>1266.26</ele>
        <time>2021-07-31T17:09:19Z</time>
      </trkpt>
      <trkpt lat="42.23398" lon="1.53002">
        <ele>1267.84</ele>
        <time>2021-07-31T17:09:21Z</time>
      </trkpt>
      <trkpt lat="42.23414" lon="1.53017">
        <ele>1271.61</ele>
        <time>2021-07-31T17:09:27Z</time>
      </trkpt>
      <trkpt lat="42.23376" lon="1.53016">
        <ele>1274</ele>
        <time>2021-07-31T17:09:31Z</time>
      </trkpt>
      <trkpt lat="42.23357" lon="1.53023">
        <ele>1275.12</ele>
        <time>2021-07-31T17:09:33Z</time>
      </trkpt>
      <trkpt lat="42.23305" lon="1.53032">
        <ele>1276.83</ele>
        <time>2021-07-31T17:09:38Z</time>
      </trkpt>
      <trkpt lat="42.23262" lon="1.53026">
        <ele>1278.27</ele>
        <time>2021-07-31T17:09:42Z</time>
      </trkpt>
      <trkpt lat="42.23229" lon="1.5299">
        <ele>1279.49</ele>
        <time>2021-07-31T17:09:46Z</time>
      </trkpt>
      <trkpt lat="42.23173" lon="1.52947">
        <ele>1280.44</ele>
        <time>2021-07-31T17:09:53Z</time>
      </trkpt>
      <trkpt lat="42.23147" lon="1.52933">
        <ele>1281.27</ele>
        <time>2021-07-31T17:09:56Z</time>
      </trkpt>
      <trkpt lat="42.23113" lon="1.52932">
        <ele>1283.21</ele>
        <time>2021-07-31T17:10:00Z</time>
      </trkpt>
      <trkpt lat="42.23056" lon="1.5295">
        <ele>1286.97</ele>
        <time>2021-07-31T17:10:07Z</time>
      </trkpt>
      <trkpt lat="42.23018" lon="1.52962">
        <ele>1290.12</ele>
        <time>2021-07-31T17:10:11Z</time>
      </trkpt>
      <trkpt lat="42.23002" lon="1.5297">
        <ele>1291.89</ele>
        <time>2021-07-31T17:10:13Z</time>
      </trkpt>
      <trkpt lat="42.22956" lon="1.5298">
        <ele>1296.19</ele>
        <time>2021-07-31T17:10:18Z</time>
      </trkpt>
      <trkpt lat="42.22948" lon="1.5298">
        <ele>1296.97</ele>
        <time>2021-07-31T17:10:19Z</time>
      </trkpt>
      <trkpt lat="42.22932" lon="1.52975">
        <ele>1298.41</ele>
        <time>2021-07-31T17:10:21Z</time>
      </trkpt>
      <trkpt lat="42.22903" lon="1.52992">
        <ele>1302.51</ele>
        <time>2021-07-31T17:10:26Z</time>
      </trkpt>
      <trkpt lat="42.22871" lon="1.53043">
        <ele>1306.53</ele>
        <time>2021-07-31T17:10:33Z</time>
      </trkpt>
      <trkpt lat="42.22826" lon="1.53099">
        <ele>1310.87</ele>
        <time>2021-07-31T17:10:40Z</time>
      </trkpt>
      <trkpt lat="42.22804" lon="1.53144">
        <ele>1314.9</ele>
        <time>2021-07-31T17:10:46Z</time>
      </trkpt>
      <trkpt lat="42.22801" lon="1.53146">
        <ele>1315.35</ele>
        <time>2021-07-31T17:10:47Z</time>
      </trkpt>
      <trkpt lat="42.22784" lon="1.53106">
        <ele>1318.81</ele>
        <time>2021-07-31T17:10:54Z</time>
      </trkpt>
      <trkpt lat="42.2275" lon="1.53099">
        <ele>1321.63</ele>
        <time>2021-07-31T17:10:59Z</time>
      </trkpt>
      <trkpt lat="42.22733" lon="1.53063">
        <ele>1323.79</ele>
        <time>2021-07-31T17:11:03Z</time>
      </trkpt>
      <trkpt lat="42.22721" lon="1.52997">
        <ele>1327.5</ele>
        <time>2021-07-31T17:11:08Z</time>
      </trkpt>
      <trkpt lat="42.22718" lon="1.52975">
        <ele>1329.1</ele>
        <time>2021-07-31T17:11:10Z</time>
      </trkpt>
      <trkpt lat="42.22731" lon="1.52932">
        <ele>1332.06</ele>
        <time>2021-07-31T17:11:14Z</time>
      </trkpt>
      <trkpt lat="42.22734" lon="1.52864">
        <ele>1337.1</ele>
        <time>2021-07-31T17:11:21Z</time>
      </trkpt>
      <trkpt lat="42.22732" lon="1.5284">
        <ele>1338.62</ele>
        <time>2021-07-31T17:11:23Z</time>
      </trkpt>
      <trkpt lat="42.22721" lon="1.52773">
        <ele>1343</ele>
        <time>2021-07-31T17:11:28Z</time>
      </trkpt>
      <trkpt lat="42.22718" lon="1.52745">
        <ele>1344.73</ele>
        <time>2021-07-31T17:11:30Z</time>
      </trkpt>
      <trkpt lat="42.22724" lon="1.52695">
        <ele>1348.9</ele>
        <time>2021-07-31T17:11:34Z</time>
      </trkpt>
      <trkpt lat="42.22726" lon="1.52684">
        <ele>1349.89</ele>
        <time>2021-07-31T17:11:35Z</time>
      </trkpt>
      <trkpt lat="42.22707" lon="1.52665">
        <ele>1354.32</ele>
        <time>2021-07-31T17:11:40Z</time>
      </trkpt>
      <trkpt lat="42.22674" lon="1.52634">
        <ele>1357.52</ele>
        <time>2021-07-31T17:11:45Z</time>
      </trkpt>
      <trkpt lat="42.2266" lon="1.52615">
        <ele>1358.86</ele>
        <time>2021-07-31T17:11:47Z</time>
      </trkpt>
      <trkpt lat="42.22655" lon="1.5256">
        <ele>1362.11</ele>
        <time>2021-07-31T17:11:52Z</time>
      </trkpt>
      <trkpt lat="42.22654" lon="1.52486">
        <ele>1365.79</ele>
        <time>2021-07-31T17:11:57Z</time>
      </trkpt>
      <trkpt lat="42.2265" lon="1.52442">
        <ele>1368.43</ele>
        <time>2021-07-31T17:12:00Z</time>
      </trkpt>
      <trkpt lat="42.22637" lon="1.52387">
        <ele>1372.46</ele>
        <time>2021-07-31T17:12:05Z</time>
      </trkpt>
      <trkpt lat="42.22652" lon="1.52348">
        <ele>1375.39</ele>
        <time>2021-07-31T17:12:08Z</time>
      </trkpt>
      <trkpt lat="42.22656" lon="1.52295">
        <ele>1379.34</ele>
        <time>2021-07-31T17:12:13Z</time>
      </trkpt>
      <trkpt lat="42.22647" lon="1.52256">
        <ele>1381.76</ele>
        <time>2021-07-31T17:12:16Z</time>
      </trkpt>
      <trkpt lat="42.22621" lon="1.52202">
        <ele>1386.19</ele>
        <time>2021-07-31T17:12:21Z</time>
      </trkpt>
      <trkpt lat="42.22617" lon="1.52156">
        <ele>1389.54</ele>
        <time>2021-07-31T17:12:25Z</time>
      </trkpt>
      <trkpt lat="42.22656" lon="1.52131">
        <ele>1393.14</ele>
        <time>2021-07-31T17:12:29Z</time>
      </trkpt>
      <trkpt lat="42.22673" lon="1.52065">
        <ele>1398.52</ele>
        <time>2021-07-31T17:12:36Z</time>
      </trkpt>
      <trkpt lat="42.22657" lon="1.52028">
        <ele>1401.77</ele>
        <time>2021-07-31T17:12:40Z</time>
      </trkpt>
      <trkpt lat="42.22666" lon="1.51997">
        <ele>1404.68</ele>
        <time>2021-07-31T17:12:44Z</time>
      </trkpt>
      <trkpt lat="42.22685" lon="1.51937">
        <ele>1409.45</ele>
        <time>2021-07-31T17:12:52Z</time>
      </trkpt>
      <trkpt lat="42.22692" lon="1.51926">
        <ele>1410.81</ele>
        <time>2021-07-31T17:12:54Z</time>
      </trkpt>
      <trkpt lat="42.227" lon="1.51915">
        <ele>1412.5</ele>
        <time>2021-07-31T17:12:57Z</time>
      </trkpt>
      <trkpt lat="42.22687" lon="1.51876">
        <ele>1415.78</ele>
        <time>2021-07-31T17:13:05Z</time>
      </trkpt>
      <trkpt lat="42.2265" lon="1.5189">
        <ele>1417.68</ele>
        <time>2021-07-31T17:13:11Z</time>
      </trkpt>
      <trkpt lat="42.22611" lon="1.51877">
        <ele>1420.4</ele>
        <time>2021-07-31T17:13:19Z</time>
      </trkpt>
      <trkpt lat="42.22594" lon="1.51899">
        <ele>1422.51</ele>
        <time>2021-07-31T17:13:24Z</time>
      </trkpt>
      <trkpt lat="42.22581" lon="1.51938">
        <ele>1424.47</ele>
        <time>2021-07-31T17:13:28Z</time>
      </trkpt>
      <trkpt lat="42.22541" lon="1.51977">
        <ele>1428.47</ele>
        <time>2021-07-31T17:13:34Z</time>
      </trkpt>
      <trkpt lat="42.2251" lon="1.51958">
        <ele>1431.65</ele>
        <time>2021-07-31T17:13:38Z</time>
      </trkpt>
      <trkpt lat="42.22474" lon="1.51914">
        <ele>1435.48</ele>
        <time>2021-07-31T17:13:43Z</time>
      </trkpt>
      <trkpt lat="42.22445" lon="1.5189">
        <ele>1439.52</ele>
        <time>2021-07-31T17:13:47Z</time>
      </trkpt>
      <trkpt lat="42.22412" lon="1.51872">
        <ele>1442.58</ele>
        <time>2021-07-31T17:13:51Z</time>
      </trkpt>
      <trkpt lat="42.22404" lon="1.51868">
        <ele>1443.41</ele>
        <time>2021-07-31T17:13:52Z</time>
      </trkpt>
      <trkpt lat="42.22371" lon="1.5184">
        <ele>1446.74</ele>
        <time>2021-07-31T17:13:56Z</time>
      </trkpt>
      <trkpt lat="42.2235" lon="1.51796">
        <ele>1449.99</ele>
        <time>2021-07-31T17:14:00Z</time>
      </trkpt>
      <trkpt lat="42.22323" lon="1.5174">
        <ele>1453.8</ele>
        <time>2021-07-31T17:14:05Z</time>
      </trkpt>
      <trkpt lat="42.22291" lon="1.51705">
        <ele>1457.06</ele>
        <time>2021-07-31T17:14:09Z</time>
      </trkpt>
      <trkpt lat="42.22283" lon="1.51697">
        <ele>1457.9</ele>
        <time>2021-07-31T17:14:10Z</time>
      </trkpt>
      <trkpt lat="42.2226" lon="1.51643">
        <ele>1462.11</ele>
        <time>2021-07-31T17:14:15Z</time>
      </trkpt>
      <trkpt lat="42.22258" lon="1.51635">
        <ele>1462.88</ele>
        <time>2021-07-31T17:14:16Z</time>
      </trkpt>
      <trkpt lat="42.22228" lon="1.51626">
        <ele>1466.61</ele>
        <time>2021-07-31T17:14:22Z</time>
      </trkpt>
      <trkpt lat="42.22217" lon="1.51644">
        <ele>1468.46</ele>
        <time>2021-07-31T17:14:25Z</time>
      </trkpt>
      <trkpt lat="42.22206" lon="1.5166">
        <ele>1469.62</ele>
        <time>2021-07-31T17:14:27Z</time>
      </trkpt>
      <trkpt lat="42.22195" lon="1.51708">
        <ele>1472.31</ele>
        <time>2021-07-31T17:14:31Z</time>
      </trkpt>
      <trkpt lat="42.22181" lon="1.51786">
        <ele>1477.2</ele>
        <time>2021-07-31T17:14:37Z</time>
      </trkpt>
      <trkpt lat="42.22177" lon="1.51797">
        <ele>1478.1</ele>
        <time>2021-07-31T17:14:38Z</time>
      </trkpt>
      <trkpt lat="42.22157" lon="1.51843">
        <ele>1481.63</ele>
        <time>2021-07-31T17:14:42Z</time>
      </trkpt>
      <trkpt lat="42.22121" lon="1.51853">
        <ele>1486.08</ele>
        <time>2021-07-31T17:14:47Z</time>
      </trkpt>
      <trkpt lat="42.22112" lon="1.51835">
        <ele>1487.45</ele>
        <time>2021-07-31T17:14:49Z</time>
      </trkpt>
      <trkpt lat="42.22101" lon="1.51815">
        <ele>1488.85</ele>
        <time>2021-07-31T17:14:51Z</time>
      </trkpt>
      <trkpt lat="42.22072" lon="1.51789">
        <ele>1491.8</ele>
        <time>2021-07-31T17:14:55Z</time>
      </trkpt>
      <trkpt lat="42.22036" lon="1.51754">
        <ele>1496.02</ele>
        <time>2021-07-31T17:15:00Z</time>
      </trkpt>
      <trkpt lat="42.22012" lon="1.51711">
        <ele>1499.7</ele>
        <time>2021-07-31T17:15:04Z</time>
      </trkpt>
      <trkpt lat="42.21988" lon="1.51668">
        <ele>1503.17</ele>
        <time>2021-07-31T17:15:08Z</time>
      </trkpt>
      <trkpt lat="42.21981" lon="1.51648">
        <ele>1504.75</ele>
        <time>2021-07-31T17:15:10Z</time>
      </trkpt>
      <trkpt lat="42.21961" lon="1.51607">
        <ele>1508.55</ele>
        <time>2021-07-31T17:15:15Z</time>
      </trkpt>
      <trkpt lat="42.21956" lon="1.516">
        <ele>1509.24</ele>
        <time>2021-07-31T17:15:16Z</time>
      </trkpt>
      <trkpt lat="42.2194" lon="1.51575">
        <ele>1510.92</ele>
        <time>2021-07-31T17:15:19Z</time>
      </trkpt>
      <trkpt lat="42.21916" lon="1.51527">
        <ele>1513.12</ele>
        <time>2021-07-31T17:15:24Z</time>
      </trkpt>
      <trkpt lat="42.21891" lon="1.51499">
        <ele>1515.1</ele>
        <time>2021-07-31T17:15:28Z</time>
      </trkpt>
      <trkpt lat="42.21883" lon="1.51493">
        <ele>1515.31</ele>
        <time>2021-07-31T17:15:29Z</time>
      </trkpt>
      <trkpt lat="42.21867" lon="1.51481">
        <ele>1515.76</ele>
        <time>2021-07-31T17:15:31Z</time>
      </trkpt>
      <trkpt lat="42.21845" lon="1.5146">
        <ele>1516.03</ele>
        <time>2021-07-31T17:15:34Z</time>
      </trkpt>
      <trkpt lat="42.2182" lon="1.51391">
        <ele>1514.35</ele>
        <time>2021-07-31T17:15:41Z</time>
      </trkpt>
      <trkpt lat="42.21823" lon="1.51351">
        <ele>1510.9</ele>
        <time>2021-07-31T17:15:46Z</time>
      </trkpt>
      <trkpt lat="42.21798" lon="1.51279">
        <ele>1507.3</ele>
        <time>2021-07-31T17:15:55Z</time>
      </trkpt>
      <trkpt lat="42.21771" lon="1.51238">
        <ele>1504.95</ele>
        <time>2021-07-31T17:15:59Z</time>
      </trkpt>
      <trkpt lat="42.21748" lon="1.51186">
        <ele>1500.63</ele>
        <time>2021-07-31T17:16:04Z</time>
      </trkpt>
      <trkpt lat="42.21744" lon="1.51177">
        <ele>1499.61</ele>
        <time>2021-07-31T17:16:05Z</time>
      </trkpt>
      <trkpt lat="42.21721" lon="1.51165">
        <ele>1495.06</ele>
        <time>2021-07-31T17:16:09Z</time>
      </trkpt>
      <trkpt lat="42.21696" lon="1.51165">
        <ele>1491.9</ele>
        <time>2021-07-31T17:16:12Z</time>
      </trkpt>
      <trkpt lat="42.21674" lon="1.51176">
        <ele>1489.54</ele>
        <time>2021-07-31T17:16:15Z</time>
      </trkpt>
      <trkpt lat="42.21654" lon="1.51189">
        <ele>1487.6</ele>
        <time>2021-07-31T17:16:18Z</time>
      </trkpt>
      <trkpt lat="42.21641" lon="1.51151">
        <ele>1484.04</ele>
        <time>2021-07-31T17:16:25Z</time>
      </trkpt>
      <trkpt lat="42.21636" lon="1.51083">
        <ele>1484.22</ele>
        <time>2021-07-31T17:16:32Z</time>
      </trkpt>
      <trkpt lat="42.21623" lon="1.51016">
        <ele>1484.71</ele>
        <time>2021-07-31T17:16:37Z</time>
      </trkpt>
      <trkpt lat="42.21598" lon="1.50973">
        <ele>1483.85</ele>
        <time>2021-07-31T17:16:41Z</time>
      </trkpt>
      <trkpt lat="42.21535" lon="1.50896">
        <ele>1482.27</ele>
        <time>2021-07-31T17:16:50Z</time>
      </trkpt>
      <trkpt lat="42.21501" lon="1.50876">
        <ele>1482.76</ele>
        <time>2021-07-31T17:16:54Z</time>
      </trkpt>
      <trkpt lat="42.21452" lon="1.50871">
        <ele>1486.42</ele>
        <time>2021-07-31T17:17:03Z</time>
      </trkpt>
      <trkpt lat="42.21422" lon="1.50839">
        <ele>1490.11</ele>
        <time>2021-07-31T17:17:08Z</time>
      </trkpt>
      <trkpt lat="42.21393" lon="1.5083">
        <ele>1493.89</ele>
        <time>2021-07-31T17:17:12Z</time>
      </trkpt>
      <trkpt lat="42.2136" lon="1.50833">
        <ele>1498.4</ele>
        <time>2021-07-31T17:17:16Z</time>
      </trkpt>
      <trkpt lat="42.21334" lon="1.50832">
        <ele>1502.53</ele>
        <time>2021-07-31T17:17:19Z</time>
      </trkpt>
      <trkpt lat="42.21324" lon="1.5083">
        <ele>1504.06</ele>
        <time>2021-07-31T17:17:20Z</time>
      </trkpt>
      <trkpt lat="42.21291" lon="1.50814">
        <ele>1509.87</ele>
        <time>2021-07-31T17:17:24Z</time>
      </trkpt>
      <trkpt lat="42.21266" lon="1.50796">
        <ele>1514.01</ele>
        <time>2021-07-31T17:17:27Z</time>
      </trkpt>
      <trkpt lat="42.21249" lon="1.50784">
        <ele>1517.11</ele>
        <time>2021-07-31T17:17:29Z</time>
      </trkpt>
      <trkpt lat="42.21227" lon="1.50767">
        <ele>1521.53</ele>
        <time>2021-07-31T17:17:32Z</time>
      </trkpt>
      <trkpt lat="42.21207" lon="1.50754">
        <ele>1525.86</ele>
        <time>2021-07-31T17:17:35Z</time>
      </trkpt>
      <trkpt lat="42.21183" lon="1.50717">
        <ele>1531.45</ele>
        <time>2021-07-31T17:17:39Z</time>
      </trkpt>
      <trkpt lat="42.21175" lon="1.50687">
        <ele>1535.44</ele>
        <time>2021-07-31T17:17:42Z</time>
      </trkpt>
      <trkpt lat="42.21166" lon="1.50681">
        <ele>1538.72</ele>
        <time>2021-07-31T17:17:45Z</time>
      </trkpt>
      <trkpt lat="42.21123" lon="1.50653">
        <ele>1543.84</ele>
        <time>2021-07-31T17:17:51Z</time>
      </trkpt>
      <trkpt lat="42.21085" lon="1.5063">
        <ele>1547.5</ele>
        <time>2021-07-31T17:17:55Z</time>
      </trkpt>
      <trkpt lat="42.21049" lon="1.50608">
        <ele>1551.24</ele>
        <time>2021-07-31T17:17:59Z</time>
      </trkpt>
      <trkpt lat="42.21012" lon="1.50588">
        <ele>1554.88</ele>
        <time>2021-07-31T17:18:04Z</time>
      </trkpt>
      <trkpt lat="42.20972" lon="1.5057">
        <ele>1558.42</ele>
        <time>2021-07-31T17:18:08Z</time>
      </trkpt>
      <trkpt lat="42.20932" lon="1.50552">
        <ele>1562.33</ele>
        <time>2021-07-31T17:18:12Z</time>
      </trkpt>
      <trkpt lat="42.20894" lon="1.5053">
        <ele>1566.21</ele>
        <time>2021-07-31T17:18:16Z</time>
      </trkpt>
      <trkpt lat="42.20858" lon="1.50513">
        <ele>1570.07</ele>
        <time>2021-07-31T17:18:20Z</time>
      </trkpt>
      <trkpt lat="42.20835" lon="1.50514">
        <ele>1572.7</ele>
        <time>2021-07-31T17:18:23Z</time>
      </trkpt>
      <trkpt lat="42.20798" lon="1.50511">
        <ele>1575.99</ele>
        <time>2021-07-31T17:18:27Z</time>
      </trkpt>
      <trkpt lat="42.20766" lon="1.50482">
        <ele>1579.82</ele>
        <time>2021-07-31T17:18:31Z</time>
      </trkpt>
      <trkpt lat="42.20725" lon="1.50462">
        <ele>1584.4</ele>
        <time>2021-07-31T17:18:36Z</time>
      </trkpt>
      <trkpt lat="42.20688" lon="1.50433">
        <ele>1588.06</ele>
        <time>2021-07-31T17:18:40Z</time>
      </trkpt>
      <trkpt lat="42.20661" lon="1.50408">
        <ele>1591.44</ele>
        <time>2021-07-31T17:18:43Z</time>
      </trkpt>
      <trkpt lat="42.20633" lon="1.50378">
        <ele>1595.87</ele>
        <time>2021-07-31T17:18:46Z</time>
      </trkpt>
      <trkpt lat="42.20606" lon="1.50354">
        <ele>1599.29</ele>
        <time>2021-07-31T17:18:49Z</time>
      </trkpt>
      <trkpt lat="42.20581" lon="1.50341">
        <ele>1602.71</ele>
        <time>2021-07-31T17:18:52Z</time>
      </trkpt>
      <trkpt lat="42.20554" lon="1.50329">
        <ele>1605.81</ele>
        <time>2021-07-31T17:18:55Z</time>
      </trkpt>
      <trkpt lat="42.20535" lon="1.50322">
        <ele>1607.78</ele>
        <time>2021-07-31T17:18:57Z</time>
      </trkpt>
      <trkpt lat="42.20493" lon="1.50292">
        <ele>1612.57</ele>
        <time>2021-07-31T17:19:02Z</time>
      </trkpt>
      <trkpt lat="42.20462" lon="1.50277">
        <ele>1616.38</ele>
        <time>2021-07-31T17:19:06Z</time>
      </trkpt>
      <trkpt lat="42.20429" lon="1.50258">
        <ele>1620.14</ele>
        <time>2021-07-31T17:19:10Z</time>
      </trkpt>
      <trkpt lat="42.20411" lon="1.50251">
        <ele>1621.94</ele>
        <time>2021-07-31T17:19:12Z</time>
      </trkpt>
      <trkpt lat="42.20387" lon="1.50229">
        <ele>1624.89</ele>
        <time>2021-07-31T17:19:15Z</time>
      </trkpt>
      <trkpt lat="42.20355" lon="1.50219">
        <ele>1628.54</ele>
        <time>2021-07-31T17:19:19Z</time>
      </trkpt>
      <trkpt lat="42.20313" lon="1.50185">
        <ele>1633.53</ele>
        <time>2021-07-31T17:19:25Z</time>
      </trkpt>
      <trkpt lat="42.20286" lon="1.50165">
        <ele>1636.87</ele>
        <time>2021-07-31T17:19:29Z</time>
      </trkpt>
      <trkpt lat="42.20274" lon="1.50166">
        <ele>1638.29</ele>
        <time>2021-07-31T17:19:31Z</time>
      </trkpt>
      <trkpt lat="42.20262" lon="1.50169">
        <ele>1639.62</ele>
        <time>2021-07-31T17:19:33Z</time>
      </trkpt>
      <trkpt lat="42.20245" lon="1.50152">
        <ele>1641.53</ele>
        <time>2021-07-31T17:19:37Z</time>
      </trkpt>
      <trkpt lat="42.20229" lon="1.50114">
        <ele>1642.8</ele>
        <time>2021-07-31T17:19:44Z</time>
      </trkpt>
      <trkpt lat="42.20217" lon="1.501">
        <ele>1642.89</ele>
        <time>2021-07-31T17:19:46Z</time>
      </trkpt>
      <trkpt lat="42.20182" lon="1.50068">
        <ele>1643.4</ele>
        <time>2021-07-31T17:19:50Z</time>
      </trkpt>
      <trkpt lat="42.20101" lon="1.49999">
        <ele>1644.29</ele>
        <time>2021-07-31T17:20:00Z</time>
      </trkpt>
      <trkpt lat="42.20079" lon="1.49979">
        <ele>1644.96</ele>
        <time>2021-07-31T17:20:03Z</time>
      </trkpt>
      <trkpt lat="42.20041" lon="1.49965">
        <ele>1646.26</ele>
        <time>2021-07-31T17:20:09Z</time>
      </trkpt>
      <trkpt lat="42.20035" lon="1.49941">
        <ele>1647.05</ele>
        <time>2021-07-31T17:20:14Z</time>
      </trkpt>
      <trkpt lat="42.20026" lon="1.49902">
        <ele>1647.74</ele>
        <time>2021-07-31T17:20:19Z</time>
      </trkpt>
      <trkpt lat="42.20008" lon="1.49867">
        <ele>1648.51</ele>
        <time>2021-07-31T17:20:23Z</time>
      </trkpt>
      <trkpt lat="42.20019" lon="1.49815">
        <ele>1646.46</ele>
        <time>2021-07-31T17:20:31Z</time>
      </trkpt>
      <trkpt lat="42.20032" lon="1.49815">
        <ele>1645.63</ele>
        <time>2021-07-31T17:20:33Z</time>
      </trkpt>
      <trkpt lat="42.20061" lon="1.49817">
        <ele>1643.77</ele>
        <time>2021-07-31T17:20:37Z</time>
      </trkpt>
      <trkpt lat="42.2009" lon="1.49831">
        <ele>1641.16</ele>
        <time>2021-07-31T17:20:41Z</time>
      </trkpt>
      <trkpt lat="42.20111" lon="1.49806">
        <ele>1637.25</ele>
        <time>2021-07-31T17:20:47Z</time>
      </trkpt>
      <trkpt lat="42.20113" lon="1.49786">
        <ele>1636.52</ele>
        <time>2021-07-31T17:20:49Z</time>
      </trkpt>
      <trkpt lat="42.20155" lon="1.49736">
        <ele>1636.77</ele>
        <time>2021-07-31T17:20:56Z</time>
      </trkpt>
      <trkpt lat="42.20166" lon="1.49699">
        <ele>1635.78</ele>
        <time>2021-07-31T17:21:02Z</time>
      </trkpt>
      <trkpt lat="42.20163" lon="1.4969">
        <ele>1635.53</ele>
        <time>2021-07-31T17:21:03Z</time>
      </trkpt>
      <trkpt lat="42.20123" lon="1.49631">
        <ele>1634.43</ele>
        <time>2021-07-31T17:21:09Z</time>
      </trkpt>
      <trkpt lat="42.20059" lon="1.49535">
        <ele>1631.24</ele>
        <time>2021-07-31T17:21:20Z</time>
      </trkpt>
      <trkpt lat="42.20008" lon="1.49432">
        <ele>1628.56</ele>
        <time>2021-07-31T17:21:30Z</time>
      </trkpt>
      <trkpt lat="42.19975" lon="1.4935">
        <ele>1627.08</ele>
        <time>2021-07-31T17:21:37Z</time>
      </trkpt>
      <trkpt lat="42.19945" lon="1.49317">
        <ele>1626.27</ele>
        <time>2021-07-31T17:21:42Z</time>
      </trkpt>
      <trkpt lat="42.19918" lon="1.493">
        <ele>1625.73</ele>
        <time>2021-07-31T17:21:46Z</time>
      </trkpt>
      <trkpt lat="42.19896" lon="1.49297">
        <ele>1625.37</ele>
        <time>2021-07-31T17:21:49Z</time>
      </trkpt>
      <trkpt lat="42.19869" lon="1.49276">
        <ele>1625.05</ele>
        <time>2021-07-31T17:21:54Z</time>
      </trkpt>
      <trkpt lat="42.19851" lon="1.49264">
        <ele>1624.83</ele>
        <time>2021-07-31T17:21:57Z</time>
      </trkpt>
      <trkpt lat="42.19848" lon="1.4922">
        <ele>1624.55</ele>
        <time>2021-07-31T17:22:02Z</time>
      </trkpt>
      <trkpt lat="42.19851" lon="1.49193">
        <ele>1623.44</ele>
        <time>2021-07-31T17:22:05Z</time>
      </trkpt>
      <trkpt lat="42.19832" lon="1.49127">
        <ele>1619.8</ele>
        <time>2021-07-31T17:22:12Z</time>
      </trkpt>
      <trkpt lat="42.19812" lon="1.49078">
        <ele>1616.66</ele>
        <time>2021-07-31T17:22:17Z</time>
      </trkpt>
      <trkpt lat="42.1978" lon="1.49027">
        <ele>1613.04</ele>
        <time>2021-07-31T17:22:23Z</time>
      </trkpt>
      <trkpt lat="42.19742" lon="1.48957">
        <ele>1609.92</ele>
        <time>2021-07-31T17:22:30Z</time>
      </trkpt>
      <trkpt lat="42.19738" lon="1.48945">
        <ele>1609.6</ele>
        <time>2021-07-31T17:22:31Z</time>
      </trkpt>
      <trkpt lat="42.1974" lon="1.48876">
        <ele>1607.31</ele>
        <time>2021-07-31T17:22:38Z</time>
      </trkpt>
      <trkpt lat="42.19745" lon="1.48855">
        <ele>1606.81</ele>
        <time>2021-07-31T17:22:40Z</time>
      </trkpt>
      <trkpt lat="42.19754" lon="1.48801">
        <ele>1605.56</ele>
        <time>2021-07-31T17:22:45Z</time>
      </trkpt>
      <trkpt lat="42.19749" lon="1.48764">
        <ele>1604.4</ele>
        <time>2021-07-31T17:22:49Z</time>
      </trkpt>
      <trkpt lat="42.19757" lon="1.48714">
        <ele>1602.31</ele>
        <time>2021-07-31T17:22:55Z</time>
      </trkpt>
      <trkpt lat="42.19789" lon="1.48689">
        <ele>1600.27</ele>
        <time>2021-07-31T17:23:00Z</time>
      </trkpt>
      <trkpt lat="42.19809" lon="1.48688">
        <ele>1598.4</ele>
        <time>2021-07-31T17:23:03Z</time>
      </trkpt>
      <trkpt lat="42.19828" lon="1.48676">
        <ele>1596.23</ele>
        <time>2021-07-31T17:23:07Z</time>
      </trkpt>
      <trkpt lat="42.19861" lon="1.48675">
        <ele>1593.14</ele>
        <time>2021-07-31T17:23:14Z</time>
      </trkpt>
      <trkpt lat="42.19879" lon="1.48678">
        <ele>1591.48</ele>
        <time>2021-07-31T17:23:18Z</time>
      </trkpt>
      <trkpt lat="42.19895" lon="1.48673">
        <ele>1590.3</ele>
        <time>2021-07-31T17:23:21Z</time>
      </trkpt>
      <trkpt lat="42.19911" lon="1.48673">
        <ele>1588.52</ele>
        <time>2021-07-31T17:23:25Z</time>
      </trkpt>
      <trkpt lat="42.19924" lon="1.48677">
        <ele>1586.95</ele>
        <time>2021-07-31T17:23:28Z</time>
      </trkpt>
      <trkpt lat="42.19963" lon="1.48681">
        <ele>1583.71</ele>
        <time>2021-07-31T17:23:35Z</time>
      </trkpt>
      <trkpt lat="42.19988" lon="1.48665">
        <ele>1580.64</ele>
        <time>2021-07-31T17:23:40Z</time>
      </trkpt>
      <trkpt lat="42.20034" lon="1.48639">
        <ele>1576.7</ele>
        <time>2021-07-31T17:23:47Z</time>
      </trkpt>
      <trkpt lat="42.20067" lon="1.48628">
        <ele>1573.11</ele>
        <time>2021-07-31T17:23:51Z</time>
      </trkpt>
      <trkpt lat="42.20097" lon="1.48615">
        <ele>1569.43</ele>
        <time>2021-07-31T17:23:55Z</time>
      </trkpt>
      <trkpt lat="42.20128" lon="1.48601">
        <ele>1565.97</ele>
        <time>2021-07-31T17:23:59Z</time>
      </trkpt>
      <trkpt lat="42.20165" lon="1.48589">
        <ele>1562.67</ele>
        <time>2021-07-31T17:24:03Z</time>
      </trkpt>
      <trkpt lat="42.20202" lon="1.48587">
        <ele>1559.32</ele>
        <time>2021-07-31T17:24:07Z</time>
      </trkpt>
      <trkpt lat="42.20226" lon="1.48586">
        <ele>1555.53</ele>
        <time>2021-07-31T17:24:11Z</time>
      </trkpt>
      <trkpt lat="42.20236" lon="1.48588">
        <ele>1553.46</ele>
        <time>2021-07-31T17:24:13Z</time>
      </trkpt>
      <trkpt lat="42.20254" lon="1.48595">
        <ele>1549.09</ele>
        <time>2021-07-31T17:24:19Z</time>
      </trkpt>
      <trkpt lat="42.20268" lon="1.48592">
        <ele>1546.75</ele>
        <time>2021-07-31T17:24:23Z</time>
      </trkpt>
      <trkpt lat="42.20336" lon="1.48602">
        <ele>1542.46</ele>
        <time>2021-07-31T17:24:32Z</time>
      </trkpt>
      <trkpt lat="42.20376" lon="1.48612">
        <ele>1539.28</ele>
        <time>2021-07-31T17:24:37Z</time>
      </trkpt>
      <trkpt lat="42.20382" lon="1.48613">
        <ele>1538.54</ele>
        <time>2021-07-31T17:24:38Z</time>
      </trkpt>
      <trkpt lat="42.20416" lon="1.48591">
        <ele>1534.39</ele>
        <time>2021-07-31T17:24:44Z</time>
      </trkpt>
      <trkpt lat="42.20422" lon="1.48543">
        <ele>1531</ele>
        <time>2021-07-31T17:24:49Z</time>
      </trkpt>
      <trkpt lat="42.20418" lon="1.48518">
        <ele>1529.63</ele>
        <time>2021-07-31T17:24:51Z</time>
      </trkpt>
      <trkpt lat="42.2041" lon="1.48467">
        <ele>1525.45</ele>
        <time>2021-07-31T17:24:57Z</time>
      </trkpt>
      <trkpt lat="42.20404" lon="1.48429">
        <ele>1521.94</ele>
        <time>2021-07-31T17:25:02Z</time>
      </trkpt>
      <trkpt lat="42.20396" lon="1.48389">
        <ele>1518.66</ele>
        <time>2021-07-31T17:25:07Z</time>
      </trkpt>
      <trkpt lat="42.20385" lon="1.48329">
        <ele>1515.45</ele>
        <time>2021-07-31T17:25:13Z</time>
      </trkpt>
      <trkpt lat="42.20379" lon="1.48261">
        <ele>1511.81</ele>
        <time>2021-07-31T17:25:19Z</time>
      </trkpt>
      <trkpt lat="42.20375" lon="1.48213">
        <ele>1508.81</ele>
        <time>2021-07-31T17:25:23Z</time>
      </trkpt>
      <trkpt lat="42.20373" lon="1.48167">
        <ele>1505.56</ele>
        <time>2021-07-31T17:25:27Z</time>
      </trkpt>
      <trkpt lat="42.20372" lon="1.48134">
        <ele>1502.76</ele>
        <time>2021-07-31T17:25:31Z</time>
      </trkpt>
      <trkpt lat="42.20373" lon="1.48122">
        <ele>1501.33</ele>
        <time>2021-07-31T17:25:33Z</time>
      </trkpt>
      <trkpt lat="42.2039" lon="1.48134">
        <ele>1497.8</ele>
        <time>2021-07-31T17:25:40Z</time>
      </trkpt>
      <trkpt lat="42.20413" lon="1.4822">
        <ele>1493.97</ele>
        <time>2021-07-31T17:25:48Z</time>
      </trkpt>
      <trkpt lat="42.20428" lon="1.48272">
        <ele>1490.4</ele>
        <time>2021-07-31T17:25:53Z</time>
      </trkpt>
      <trkpt lat="42.20457" lon="1.48322">
        <ele>1487.2</ele>
        <time>2021-07-31T17:25:58Z</time>
      </trkpt>
      <trkpt lat="42.20486" lon="1.48369">
        <ele>1484.14</ele>
        <time>2021-07-31T17:26:03Z</time>
      </trkpt>
      <trkpt lat="42.20527" lon="1.48414">
        <ele>1480.36</ele>
        <time>2021-07-31T17:26:08Z</time>
      </trkpt>
      <trkpt lat="42.20558" lon="1.4844">
        <ele>1477.29</ele>
        <time>2021-07-31T17:26:12Z</time>
      </trkpt>
      <trkpt lat="42.20587" lon="1.48472">
        <ele>1473.68</ele>
        <time>2021-07-31T17:26:16Z</time>
      </trkpt>
      <trkpt lat="42.20605" lon="1.48505">
        <ele>1470.31</ele>
        <time>2021-07-31T17:26:20Z</time>
      </trkpt>
      <trkpt lat="42.20616" lon="1.4854">
        <ele>1466.72</ele>
        <time>2021-07-31T17:26:24Z</time>
      </trkpt>
      <trkpt lat="42.20623" lon="1.48598">
        <ele>1462.08</ele>
        <time>2021-07-31T17:26:30Z</time>
      </trkpt>
      <trkpt lat="42.20638" lon="1.4866">
        <ele>1458.42</ele>
        <time>2021-07-31T17:26:35Z</time>
      </trkpt>
      <trkpt lat="42.20651" lon="1.48696">
        <ele>1455.47</ele>
        <time>2021-07-31T17:26:38Z</time>
      </trkpt>
      <trkpt lat="42.20684" lon="1.48744">
        <ele>1451.45</ele>
        <time>2021-07-31T17:26:43Z</time>
      </trkpt>
      <trkpt lat="42.20722" lon="1.4877">
        <ele>1447.22</ele>
        <time>2021-07-31T17:26:48Z</time>
      </trkpt>
      <trkpt lat="42.20739" lon="1.4877">
        <ele>1445.54</ele>
        <time>2021-07-31T17:26:50Z</time>
      </trkpt>
      <trkpt lat="42.20755" lon="1.4877">
        <ele>1444.1</ele>
        <time>2021-07-31T17:26:52Z</time>
      </trkpt>
      <trkpt lat="42.20786" lon="1.4873">
        <ele>1440.07</ele>
        <time>2021-07-31T17:26:58Z</time>
      </trkpt>
      <trkpt lat="42.20771" lon="1.48687">
        <ele>1438.06</ele>
        <time>2021-07-31T17:27:02Z</time>
      </trkpt>
      <trkpt lat="42.20761" lon="1.48669">
        <ele>1436.43</ele>
        <time>2021-07-31T17:27:04Z</time>
      </trkpt>
      <trkpt lat="42.20756" lon="1.48645">
        <ele>1435.06</ele>
        <time>2021-07-31T17:27:07Z</time>
      </trkpt>
      <trkpt lat="42.2076" lon="1.48615">
        <ele>1433.3</ele>
        <time>2021-07-31T17:27:11Z</time>
      </trkpt>
      <trkpt lat="42.20776" lon="1.48547">
        <ele>1429.52</ele>
        <time>2021-07-31T17:27:18Z</time>
      </trkpt>
      <trkpt lat="42.20786" lon="1.48501">
        <ele>1426.91</ele>
        <time>2021-07-31T17:27:23Z</time>
      </trkpt>
      <trkpt lat="42.20777" lon="1.48453">
        <ele>1423.21</ele>
        <time>2021-07-31T17:27:29Z</time>
      </trkpt>
      <trkpt lat="42.20751" lon="1.48425">
        <ele>1419.99</ele>
        <time>2021-07-31T17:27:35Z</time>
      </trkpt>
      <trkpt lat="42.20765" lon="1.48388">
        <ele>1417.51</ele>
        <time>2021-07-31T17:27:40Z</time>
      </trkpt>
      <trkpt lat="42.20772" lon="1.48375">
        <ele>1416.43</ele>
        <time>2021-07-31T17:27:42Z</time>
      </trkpt>
      <trkpt lat="42.2077" lon="1.48333">
        <ele>1413.34</ele>
        <time>2021-07-31T17:27:48Z</time>
      </trkpt>
      <trkpt lat="42.20752" lon="1.48273">
        <ele>1409.67</ele>
        <time>2021-07-31T17:27:55Z</time>
      </trkpt>
      <trkpt lat="42.20726" lon="1.48227">
        <ele>1406.53</ele>
        <time>2021-07-31T17:28:01Z</time>
      </trkpt>
      <trkpt lat="42.20688" lon="1.48171">
        <ele>1403.26</ele>
        <time>2021-07-31T17:28:07Z</time>
      </trkpt>
      <trkpt lat="42.20667" lon="1.48117">
        <ele>1400.04</ele>
        <time>2021-07-31T17:28:12Z</time>
      </trkpt>
      <trkpt lat="42.20643" lon="1.48065">
        <ele>1396.62</ele>
        <time>2021-07-31T17:28:17Z</time>
      </trkpt>
      <trkpt lat="42.20617" lon="1.48011">
        <ele>1393.24</ele>
        <time>2021-07-31T17:28:22Z</time>
      </trkpt>
      <trkpt lat="42.20609" lon="1.48002">
        <ele>1392.58</ele>
        <time>2021-07-31T17:28:23Z</time>
      </trkpt>
      <trkpt lat="42.20567" lon="1.47957">
        <ele>1388.36</ele>
        <time>2021-07-31T17:28:29Z</time>
      </trkpt>
      <trkpt lat="42.20535" lon="1.47917">
        <ele>1385.01</ele>
        <time>2021-07-31T17:28:34Z</time>
      </trkpt>
      <trkpt lat="42.20502" lon="1.47877">
        <ele>1381.92</ele>
        <time>2021-07-31T17:28:39Z</time>
      </trkpt>
      <trkpt lat="42.20478" lon="1.47846">
        <ele>1378.6</ele>
        <time>2021-07-31T17:28:43Z</time>
      </trkpt>
      <trkpt lat="42.20472" lon="1.47839">
        <ele>1378.6</ele>
        <time>2021-07-31T17:28:44Z</time>
      </trkpt>
      <trkpt lat="42.20441" lon="1.47803">
        <ele>1375.43</ele>
        <time>2021-07-31T17:28:48Z</time>
      </trkpt>
      <trkpt lat="42.20397" lon="1.47747">
        <ele>1371.93</ele>
        <time>2021-07-31T17:28:53Z</time>
      </trkpt>
      <trkpt lat="42.20347" lon="1.47686">
        <ele>1368.57</ele>
        <time>2021-07-31T17:28:58Z</time>
      </trkpt>
      <trkpt lat="42.20317" lon="1.47646">
        <ele>1366.1</ele>
        <time>2021-07-31T17:29:02Z</time>
      </trkpt>
      <trkpt lat="42.20322" lon="1.47603">
        <ele>1362.86</ele>
        <time>2021-07-31T17:29:08Z</time>
      </trkpt>
      <trkpt lat="42.20348" lon="1.4763">
        <ele>1360.9</ele>
        <time>2021-07-31T17:29:13Z</time>
      </trkpt>
      <trkpt lat="42.20355" lon="1.4765">
        <ele>1359.91</ele>
        <time>2021-07-31T17:29:15Z</time>
      </trkpt>
      <trkpt lat="42.20376" lon="1.47686">
        <ele>1357.8</ele>
        <time>2021-07-31T17:29:19Z</time>
      </trkpt>
      <trkpt lat="42.20436" lon="1.47736">
        <ele>1353.59</ele>
        <time>2021-07-31T17:29:26Z</time>
      </trkpt>
      <trkpt lat="42.2048" lon="1.47772">
        <ele>1350.53</ele>
        <time>2021-07-31T17:29:31Z</time>
      </trkpt>
      <trkpt lat="42.20533" lon="1.47809">
        <ele>1347.46</ele>
        <time>2021-07-31T17:29:37Z</time>
      </trkpt>
      <trkpt lat="42.20581" lon="1.47842">
        <ele>1344.2</ele>
        <time>2021-07-31T17:29:42Z</time>
      </trkpt>
      <trkpt lat="42.20627" lon="1.47871">
        <ele>1340.72</ele>
        <time>2021-07-31T17:29:47Z</time>
      </trkpt>
      <trkpt lat="42.20635" lon="1.47875">
        <ele>1340.06</ele>
        <time>2021-07-31T17:29:48Z</time>
      </trkpt>
      <trkpt lat="42.20679" lon="1.47903">
        <ele>1336.46</ele>
        <time>2021-07-31T17:29:53Z</time>
      </trkpt>
      <trkpt lat="42.20695" lon="1.4791">
        <ele>1335.24</ele>
        <time>2021-07-31T17:29:55Z</time>
      </trkpt>
      <trkpt lat="42.20742" lon="1.47949">
        <ele>1330.87</ele>
        <time>2021-07-31T17:30:01Z</time>
      </trkpt>
      <trkpt lat="42.20787" lon="1.47986">
        <ele>1327.53</ele>
        <time>2021-07-31T17:30:06Z</time>
      </trkpt>
      <trkpt lat="42.20804" lon="1.48">
        <ele>1326.16</ele>
        <time>2021-07-31T17:30:08Z</time>
      </trkpt>
      <trkpt lat="42.2082" lon="1.48017">
        <ele>1324.83</ele>
        <time>2021-07-31T17:30:10Z</time>
      </trkpt>
      <trkpt lat="42.20878" lon="1.4805">
        <ele>1320.69</ele>
        <time>2021-07-31T17:30:16Z</time>
      </trkpt>
      <trkpt lat="42.20904" lon="1.48066">
        <ele>1318.8</ele>
        <time>2021-07-31T17:30:19Z</time>
      </trkpt>
      <trkpt lat="42.2094" lon="1.48073">
        <ele>1315.99</ele>
        <time>2021-07-31T17:30:23Z</time>
      </trkpt>
      <trkpt lat="42.20977" lon="1.4809">
        <ele>1312.4</ele>
        <time>2021-07-31T17:30:27Z</time>
      </trkpt>
      <trkpt lat="42.21031" lon="1.48133">
        <ele>1308.16</ele>
        <time>2021-07-31T17:30:33Z</time>
      </trkpt>
      <trkpt lat="42.21044" lon="1.48146">
        <ele>1306.89</ele>
        <time>2021-07-31T17:30:35Z</time>
      </trkpt>
      <trkpt lat="42.21043" lon="1.482">
        <ele>1302.81</ele>
        <time>2021-07-31T17:30:41Z</time>
      </trkpt>
      <trkpt lat="42.2104" lon="1.48236">
        <ele>1300.77</ele>
        <time>2021-07-31T17:30:47Z</time>
      </trkpt>
      <trkpt lat="42.21053" lon="1.48242">
        <ele>1300.36</ele>
        <time>2021-07-31T17:30:49Z</time>
      </trkpt>
      <trkpt lat="42.21085" lon="1.48262">
        <ele>1299.43</ele>
        <time>2021-07-31T17:30:53Z</time>
      </trkpt>
      <trkpt lat="42.21157" lon="1.48343">
        <ele>1296.45</ele>
        <time>2021-07-31T17:31:01Z</time>
      </trkpt>
      <trkpt lat="42.21207" lon="1.48395">
        <ele>1293.05</ele>
        <time>2021-07-31T17:31:06Z</time>
      </trkpt>
      <trkpt lat="42.21247" lon="1.48419">
        <ele>1290.05</ele>
        <time>2021-07-31T17:31:10Z</time>
      </trkpt>
      <trkpt lat="42.21304" lon="1.48405">
        <ele>1286.5</ele>
        <time>2021-07-31T17:31:15Z</time>
      </trkpt>
      <trkpt lat="42.21357" lon="1.48375">
        <ele>1282.83</ele>
        <time>2021-07-31T17:31:20Z</time>
      </trkpt>
      <trkpt lat="42.21425" lon="1.4839">
        <ele>1278.9</ele>
        <time>2021-07-31T17:31:26Z</time>
      </trkpt>
      <trkpt lat="42.21451" lon="1.48408">
        <ele>1277.18</ele>
        <time>2021-07-31T17:31:29Z</time>
      </trkpt>
      <trkpt lat="42.21466" lon="1.48414">
        <ele>1276.23</ele>
        <time>2021-07-31T17:31:31Z</time>
      </trkpt>
      <trkpt lat="42.21494" lon="1.48429">
        <ele>1274.53</ele>
        <time>2021-07-31T17:31:35Z</time>
      </trkpt>
      <trkpt lat="42.21546" lon="1.48449">
        <ele>1270.99</ele>
        <time>2021-07-31T17:31:43Z</time>
      </trkpt>
      <trkpt lat="42.21556" lon="1.48455">
        <ele>1267.96</ele>
        <time>2021-07-31T17:31:48Z</time>
      </trkpt>
      <trkpt lat="42.21574" lon="1.48464">
        <ele>1265.82</ele>
        <time>2021-07-31T17:31:55Z</time>
      </trkpt>
      <trkpt lat="42.21639" lon="1.48477">
        <ele>1263.15</ele>
        <time>2021-07-31T17:32:04Z</time>
      </trkpt>
      <trkpt lat="42.21678" lon="1.48456">
        <ele>1259.55</ele>
        <time>2021-07-31T17:32:11Z</time>
      </trkpt>
      <trkpt lat="42.21686" lon="1.48446">
        <ele>1258.49</ele>
        <time>2021-07-31T17:32:13Z</time>
      </trkpt>
      <trkpt lat="42.217" lon="1.48388">
        <ele>1254.62</ele>
        <time>2021-07-31T17:32:20Z</time>
      </trkpt>
      <trkpt lat="42.21716" lon="1.48346">
        <ele>1251.47</ele>
        <time>2021-07-31T17:32:25Z</time>
      </trkpt>
      <trkpt lat="42.21722" lon="1.48267">
        <ele>1248.06</ele>
        <time>2021-07-31T17:32:32Z</time>
      </trkpt>
      <trkpt lat="42.2174" lon="1.48242">
        <ele>1245.19</ele>
        <time>2021-07-31T17:32:38Z</time>
      </trkpt>
      <trkpt lat="42.21752" lon="1.48156">
        <ele>1244.68</ele>
        <time>2021-07-31T17:32:44Z</time>
      </trkpt>
      <trkpt lat="42.21747" lon="1.481">
        <ele>1245.71</ele>
        <time>2021-07-31T17:32:47Z</time>
      </trkpt>
      <trkpt lat="42.21782" lon="1.48007">
        <ele>1249.22</ele>
        <time>2021-07-31T17:32:53Z</time>
      </trkpt>
      <trkpt lat="42.21826" lon="1.47997">
        <ele>1251.97</ele>
        <time>2021-07-31T17:32:56Z</time>
      </trkpt>
      <trkpt lat="42.21838" lon="1.47994">
        <ele>1252.92</ele>
        <time>2021-07-31T17:32:57Z</time>
      </trkpt>
      <trkpt lat="42.21848" lon="1.47992">
        <ele>1253.83</ele>
        <time>2021-07-31T17:32:58Z</time>
      </trkpt>
      <trkpt lat="42.21854" lon="1.47986">
        <ele>1254.65</ele>
        <time>2021-07-31T17:32:59Z</time>
      </trkpt>
      <trkpt lat="42.21852" lon="1.47929">
        <ele>1257.32</ele>
        <time>2021-07-31T17:33:04Z</time>
      </trkpt>
      <trkpt lat="42.21802" lon="1.47911">
        <ele>1258.3</ele>
        <time>2021-07-31T17:33:08Z</time>
      </trkpt>
      <trkpt lat="42.21763" lon="1.47851">
        <ele>1258.29</ele>
        <time>2021-07-31T17:33:12Z</time>
      </trkpt>
      <trkpt lat="42.21711" lon="1.47822">
        <ele>1254.25</ele>
        <time>2021-07-31T17:33:19Z</time>
      </trkpt>
      <trkpt lat="42.21676" lon="1.47871">
        <ele>1251.87</ele>
        <time>2021-07-31T17:33:22Z</time>
      </trkpt>
      <trkpt lat="42.21644" lon="1.47912">
        <ele>1250.33</ele>
        <time>2021-07-31T17:33:25Z</time>
      </trkpt>
      <trkpt lat="42.21621" lon="1.47913">
        <ele>1246.9</ele>
        <time>2021-07-31T17:33:30Z</time>
      </trkpt>
      <trkpt lat="42.21642" lon="1.47895">
        <ele>1243.93</ele>
        <time>2021-07-31T17:33:33Z</time>
      </trkpt>
      <trkpt lat="42.21701" lon="1.47806">
        <ele>1239.85</ele>
        <time>2021-07-31T17:33:39Z</time>
      </trkpt>
      <trkpt lat="42.21745" lon="1.47758">
        <ele>1235.36</ele>
        <time>2021-07-31T17:33:44Z</time>
      </trkpt>
      <trkpt lat="42.21748" lon="1.47723">
        <ele>1232.29</ele>
        <time>2021-07-31T17:33:47Z</time>
      </trkpt>
      <trkpt lat="42.21776" lon="1.47728">
        <ele>1229.04</ele>
        <time>2021-07-31T17:33:50Z</time>
      </trkpt>
      <trkpt lat="42.21811" lon="1.47749">
        <ele>1226.92</ele>
        <time>2021-07-31T17:33:53Z</time>
      </trkpt>
      <trkpt lat="42.21868" lon="1.47734">
        <ele>1223.91</ele>
        <time>2021-07-31T17:33:58Z</time>
      </trkpt>
      <trkpt lat="42.21888" lon="1.47698">
        <ele>1221.83</ele>
        <time>2021-07-31T17:34:01Z</time>
      </trkpt>
      <trkpt lat="42.21921" lon="1.4767">
        <ele>1216.48</ele>
        <time>2021-07-31T17:34:06Z</time>
      </trkpt>
      <trkpt lat="42.21947" lon="1.47678">
        <ele>1214.66</ele>
        <time>2021-07-31T17:34:08Z</time>
      </trkpt>
      <trkpt lat="42.21991" lon="1.47668">
        <ele>1209.64</ele>
        <time>2021-07-31T17:34:15Z</time>
      </trkpt>
      <trkpt lat="42.2195" lon="1.4765">
        <ele>1207.19</ele>
        <time>2021-07-31T17:34:18Z</time>
      </trkpt>
      <trkpt lat="42.21877" lon="1.4764">
        <ele>1204.52</ele>
        <time>2021-07-31T17:34:23Z</time>
      </trkpt>
      <trkpt lat="42.2183" lon="1.47649">
        <ele>1202.96</ele>
        <time>2021-07-31T17:34:26Z</time>
      </trkpt>
      <trkpt lat="42.21764" lon="1.47631">
        <ele>1198.73</ele>
        <time>2021-07-31T17:34:31Z</time>
      </trkpt>
      <trkpt lat="42.21753" lon="1.47586">
        <ele>1195.17</ele>
        <time>2021-07-31T17:34:34Z</time>
      </trkpt>
      <trkpt lat="42.21765" lon="1.47519">
        <ele>1192.24</ele>
        <time>2021-07-31T17:34:38Z</time>
      </trkpt>
      <trkpt lat="42.21785" lon="1.47393">
        <ele>1193.79</ele>
        <time>2021-07-31T17:34:46Z</time>
      </trkpt>
      <trkpt lat="42.21785" lon="1.47355">
        <ele>1195.26</ele>
        <time>2021-07-31T17:34:49Z</time>
      </trkpt>
      <trkpt lat="42.21779" lon="1.47314">
        <ele>1196.93</ele>
        <time>2021-07-31T17:34:52Z</time>
      </trkpt>
      <trkpt lat="42.21777" lon="1.47238">
        <ele>1201.15</ele>
        <time>2021-07-31T17:34:58Z</time>
      </trkpt>
      <trkpt lat="42.21811" lon="1.47231">
        <ele>1202.72</ele>
        <time>2021-07-31T17:35:01Z</time>
      </trkpt>
      <trkpt lat="42.21838" lon="1.47228">
        <ele>1204</ele>
        <time>2021-07-31T17:35:03Z</time>
      </trkpt>
      <trkpt lat="42.21893" lon="1.47237">
        <ele>1207.52</ele>
        <time>2021-07-31T17:35:07Z</time>
      </trkpt>
      <trkpt lat="42.21918" lon="1.47223">
        <ele>1212</ele>
        <time>2021-07-31T17:35:13Z</time>
      </trkpt>
      <trkpt lat="42.21913" lon="1.47219">
        <ele>1212.42</ele>
        <time>2021-07-31T17:35:14Z</time>
      </trkpt>
      <trkpt lat="42.21865" lon="1.47194">
        <ele>1216.88</ele>
        <time>2021-07-31T17:35:21Z</time>
      </trkpt>
      <trkpt lat="42.21849" lon="1.47186">
        <ele>1218.39</ele>
        <time>2021-07-31T17:35:24Z</time>
      </trkpt>
      <trkpt lat="42.2183" lon="1.47181">
        <ele>1220.04</ele>
        <time>2021-07-31T17:35:28Z</time>
      </trkpt>
      <trkpt lat="42.21826" lon="1.47178">
        <ele>1220.5</ele>
        <time>2021-07-31T17:35:29Z</time>
      </trkpt>
      <trkpt lat="42.21822" lon="1.47175">
        <ele>1220.94</ele>
        <time>2021-07-31T17:35:30Z</time>
      </trkpt>
      <trkpt lat="42.21813" lon="1.47161">
        <ele>1222.68</ele>
        <time>2021-07-31T17:35:34Z</time>
      </trkpt>
      <trkpt lat="42.2181" lon="1.47133">
        <ele>1224.04</ele>
        <time>2021-07-31T17:35:43Z</time>
      </trkpt>
      <trkpt lat="42.21792" lon="1.47111">
        <ele>1223.86</ele>
        <time>2021-07-31T17:35:48Z</time>
      </trkpt>
      <trkpt lat="42.21783" lon="1.47105">
        <ele>1223.33</ele>
        <time>2021-07-31T17:35:50Z</time>
      </trkpt>
      <trkpt lat="42.21762" lon="1.47106">
        <ele>1221.91</ele>
        <time>2021-07-31T17:35:55Z</time>
      </trkpt>
      <trkpt lat="42.21727" lon="1.47108">
        <ele>1220.95</ele>
        <time>2021-07-31T17:36:05Z</time>
      </trkpt>
      <trkpt lat="42.21717" lon="1.47102">
        <ele>1221.11</ele>
        <time>2021-07-31T17:36:07Z</time>
      </trkpt>
      <trkpt lat="42.21702" lon="1.47087">
        <ele>1221.54</ele>
        <time>2021-07-31T17:36:11Z</time>
      </trkpt>
      <trkpt lat="42.21691" lon="1.47065">
        <ele>1221.85</ele>
        <time>2021-07-31T17:36:15Z</time>
      </trkpt>
      <trkpt lat="42.21684" lon="1.47018">
        <ele>1223.16</ele>
        <time>2021-07-31T17:36:24Z</time>
      </trkpt>
      <trkpt lat="42.2166" lon="1.46943">
        <ele>1225.69</ele>
        <time>2021-07-31T17:36:32Z</time>
      </trkpt>
      <trkpt lat="42.21624" lon="1.46878">
        <ele>1226.9</ele>
        <time>2021-07-31T17:36:42Z</time>
      </trkpt>
      <trkpt lat="42.21598" lon="1.46865">
        <ele>1227.1</ele>
        <time>2021-07-31T17:36:47Z</time>
      </trkpt>
      <trkpt lat="42.21588" lon="1.46863">
        <ele>1227.2</ele>
        <time>2021-07-31T17:36:49Z</time>
      </trkpt>
      <trkpt lat="42.21552" lon="1.46816">
        <ele>1228.82</ele>
        <time>2021-07-31T17:36:59Z</time>
      </trkpt>
      <trkpt lat="42.21546" lon="1.46806">
        <ele>1229.45</ele>
        <time>2021-07-31T17:37:01Z</time>
      </trkpt>
      <trkpt lat="42.21524" lon="1.46786">
        <ele>1230.95</ele>
        <time>2021-07-31T17:37:06Z</time>
      </trkpt>
      <trkpt lat="42.21467" lon="1.46748">
        <ele>1234.6</ele>
        <time>2021-07-31T17:37:16Z</time>
      </trkpt>
      <trkpt lat="42.21456" lon="1.46737">
        <ele>1235.49</ele>
        <time>2021-07-31T17:37:18Z</time>
      </trkpt>
      <trkpt lat="42.21462" lon="1.46702">
        <ele>1236.99</ele>
        <time>2021-07-31T17:37:24Z</time>
      </trkpt>
      <trkpt lat="42.21474" lon="1.46705">
        <ele>1237.21</ele>
        <time>2021-07-31T17:37:26Z</time>
      </trkpt>
      <trkpt lat="42.21516" lon="1.46703">
        <ele>1237.98</ele>
        <time>2021-07-31T17:37:33Z</time>
      </trkpt>
      <trkpt lat="42.21529" lon="1.46699">
        <ele>1238.58</ele>
        <time>2021-07-31T17:37:35Z</time>
      </trkpt>
      <trkpt lat="42.21566" lon="1.46701">
        <ele>1240.2</ele>
        <time>2021-07-31T17:37:40Z</time>
      </trkpt>
      <trkpt lat="42.21596" lon="1.46684">
        <ele>1242.18</ele>
        <time>2021-07-31T17:37:45Z</time>
      </trkpt>
      <trkpt lat="42.21605" lon="1.46674">
        <ele>1243.25</ele>
        <time>2021-07-31T17:37:47Z</time>
      </trkpt>
      <trkpt lat="42.21632" lon="1.46661">
        <ele>1246.88</ele>
        <time>2021-07-31T17:37:54Z</time>
      </trkpt>
      <trkpt lat="42.21659" lon="1.46649">
        <ele>1249.93</ele>
        <time>2021-07-31T17:38:01Z</time>
      </trkpt>
      <trkpt lat="42.21683" lon="1.46634">
        <ele>1251.71</ele>
        <time>2021-07-31T17:38:06Z</time>
      </trkpt>
      <trkpt lat="42.21724" lon="1.46636">
        <ele>1255.31</ele>
        <time>2021-07-31T17:38:14Z</time>
      </trkpt>
      <trkpt lat="42.21764" lon="1.46645">
        <ele>1258.99</ele>
        <time>2021-07-31T17:38:22Z</time>
      </trkpt>
      <trkpt lat="42.218" lon="1.4665">
        <ele>1262.15</ele>
        <time>2021-07-31T17:38:28Z</time>
      </trkpt>
      <trkpt lat="42.21806" lon="1.4665">
        <ele>1262.69</ele>
        <time>2021-07-31T17:38:29Z</time>
      </trkpt>
      <trkpt lat="42.21831" lon="1.46658">
        <ele>1264.69</ele>
        <time>2021-07-31T17:38:33Z</time>
      </trkpt>
      <trkpt lat="42.21859" lon="1.46648">
        <ele>1267.98</ele>
        <time>2021-07-31T17:38:39Z</time>
      </trkpt>
      <trkpt lat="42.21887" lon="1.4664">
        <ele>1272.54</ele>
        <time>2021-07-31T17:38:46Z</time>
      </trkpt>
      <trkpt lat="42.21911" lon="1.46631">
        <ele>1275.71</ele>
        <time>2021-07-31T17:38:52Z</time>
      </trkpt>
      <trkpt lat="42.21944" lon="1.46612">
        <ele>1279.22</ele>
        <time>2021-07-31T17:39:00Z</time>
      </trkpt>
      <trkpt lat="42.21969" lon="1.46597">
        <ele>1281.9</ele>
        <time>2021-07-31T17:39:05Z</time>
      </trkpt>
      <trkpt lat="42.22005" lon="1.46589">
        <ele>1284.78</ele>
        <time>2021-07-31T17:39:10Z</time>
      </trkpt>
      <trkpt lat="42.22046" lon="1.4659">
        <ele>1288.77</ele>
        <time>2021-07-31T17:39:18Z</time>
      </trkpt>
      <trkpt lat="42.2207" lon="1.46591">
        <ele>1290.63</ele>
        <time>2021-07-31T17:39:22Z</time>
      </trkpt>
      <trkpt lat="42.2209" lon="1.46585">
        <ele>1292.45</ele>
        <time>2021-07-31T17:39:26Z</time>
      </trkpt>
      <trkpt lat="42.22125" lon="1.46592">
        <ele>1294.67</ele>
        <time>2021-07-31T17:39:31Z</time>
      </trkpt>
      <trkpt lat="42.22175" lon="1.46613">
        <ele>1298.03</ele>
        <time>2021-07-31T17:39:39Z</time>
      </trkpt>
      <trkpt lat="42.22208" lon="1.4662">
        <ele>1300.46</ele>
        <time>2021-07-31T17:39:44Z</time>
      </trkpt>
      <trkpt lat="42.22218" lon="1.46594">
        <ele>1303.17</ele>
        <time>2021-07-31T17:39:50Z</time>
      </trkpt>
      <trkpt lat="42.22212" lon="1.46578">
        <ele>1304.59</ele>
        <time>2021-07-31T17:39:53Z</time>
      </trkpt>
      <trkpt lat="42.22186" lon="1.46536">
        <ele>1307.38</ele>
        <time>2021-07-31T17:39:59Z</time>
      </trkpt>
      <trkpt lat="42.22142" lon="1.46502">
        <ele>1311.4</ele>
        <time>2021-07-31T17:40:05Z</time>
      </trkpt>
      <trkpt lat="42.22122" lon="1.4649">
        <ele>1313.59</ele>
        <time>2021-07-31T17:40:09Z</time>
      </trkpt>
      <trkpt lat="42.22104" lon="1.46425">
        <ele>1315.85</ele>
        <time>2021-07-31T17:40:16Z</time>
      </trkpt>
      <trkpt lat="42.22111" lon="1.46405">
        <ele>1316.88</ele>
        <time>2021-07-31T17:40:18Z</time>
      </trkpt>
      <trkpt lat="42.2212" lon="1.46322">
        <ele>1321.02</ele>
        <time>2021-07-31T17:40:26Z</time>
      </trkpt>
      <trkpt lat="42.22103" lon="1.46265">
        <ele>1324.14</ele>
        <time>2021-07-31T17:40:32Z</time>
      </trkpt>
      <trkpt lat="42.22089" lon="1.46234">
        <ele>1325.77</ele>
        <time>2021-07-31T17:40:35Z</time>
      </trkpt>
      <trkpt lat="42.22069" lon="1.46206">
        <ele>1327.39</ele>
        <time>2021-07-31T17:40:38Z</time>
      </trkpt>
      <trkpt lat="42.22059" lon="1.46186">
        <ele>1328.52</ele>
        <time>2021-07-31T17:40:40Z</time>
      </trkpt>
      <trkpt lat="42.22047" lon="1.46121">
        <ele>1331.9</ele>
        <time>2021-07-31T17:40:46Z</time>
      </trkpt>
      <trkpt lat="42.22024" lon="1.46091">
        <ele>1335.29</ele>
        <time>2021-07-31T17:40:54Z</time>
      </trkpt>
      <trkpt lat="42.22031" lon="1.46111">
        <ele>1336.29</ele>
        <time>2021-07-31T17:40:57Z</time>
      </trkpt>
      <trkpt lat="42.22044" lon="1.46135">
        <ele>1337.14</ele>
        <time>2021-07-31T17:41:00Z</time>
      </trkpt>
      <trkpt lat="42.22045" lon="1.46174">
        <ele>1339.08</ele>
        <time>2021-07-31T17:41:04Z</time>
      </trkpt>
      <trkpt lat="42.22041" lon="1.46203">
        <ele>1340.66</ele>
        <time>2021-07-31T17:41:07Z</time>
      </trkpt>
      <trkpt lat="42.22035" lon="1.46243">
        <ele>1342.76</ele>
        <time>2021-07-31T17:41:11Z</time>
      </trkpt>
      <trkpt lat="42.22018" lon="1.46291">
        <ele>1346.07</ele>
        <time>2021-07-31T17:41:16Z</time>
      </trkpt>
      <trkpt lat="42.22004" lon="1.46312">
        <ele>1348.04</ele>
        <time>2021-07-31T17:41:19Z</time>
      </trkpt>
      <trkpt lat="42.21991" lon="1.46328">
        <ele>1350.16</ele>
        <time>2021-07-31T17:41:22Z</time>
      </trkpt>
      <trkpt lat="42.21967" lon="1.46345">
        <ele>1352.41</ele>
        <time>2021-07-31T17:41:26Z</time>
      </trkpt>
      <trkpt lat="42.21947" lon="1.46377">
        <ele>1355.05</ele>
        <time>2021-07-31T17:41:30Z</time>
      </trkpt>
      <trkpt lat="42.21921" lon="1.46428">
        <ele>1359.38</ele>
        <time>2021-07-31T17:41:36Z</time>
      </trkpt>
      <trkpt lat="42.21912" lon="1.46445">
        <ele>1361.24</ele>
        <time>2021-07-31T17:41:39Z</time>
      </trkpt>
      <trkpt lat="42.21897" lon="1.4643">
        <ele>1364.44</ele>
        <time>2021-07-31T17:41:45Z</time>
      </trkpt>
      <trkpt lat="42.21904" lon="1.46418">
        <ele>1365.58</ele>
        <time>2021-07-31T17:41:47Z</time>
      </trkpt>
      <trkpt lat="42.21917" lon="1.46375">
        <ele>1370.03</ele>
        <time>2021-07-31T17:41:57Z</time>
      </trkpt>
      <trkpt lat="42.21932" lon="1.46333">
        <ele>1371.68</ele>
        <time>2021-07-31T17:42:13Z</time>
      </trkpt>
      <trkpt lat="42.21953" lon="1.46273">
        <ele>1373.73</ele>
        <time>2021-07-31T17:42:20Z</time>
      </trkpt>
      <trkpt lat="42.21956" lon="1.46233">
        <ele>1375.92</ele>
        <time>2021-07-31T17:42:24Z</time>
      </trkpt>
      <trkpt lat="42.2195" lon="1.46202">
        <ele>1377.68</ele>
        <time>2021-07-31T17:42:28Z</time>
      </trkpt>
      <trkpt lat="42.21944" lon="1.46185">
        <ele>1378.51</ele>
        <time>2021-07-31T17:42:30Z</time>
      </trkpt>
      <trkpt lat="42.21914" lon="1.46128">
        <ele>1382.02</ele>
        <time>2021-07-31T17:42:37Z</time>
      </trkpt>
      <trkpt lat="42.21887" lon="1.46088">
        <ele>1385.43</ele>
        <time>2021-07-31T17:42:42Z</time>
      </trkpt>
      <trkpt lat="42.21868" lon="1.46063">
        <ele>1388.53</ele>
        <time>2021-07-31T17:42:46Z</time>
      </trkpt>
      <trkpt lat="42.21841" lon="1.46036">
        <ele>1392.14</ele>
        <time>2021-07-31T17:42:52Z</time>
      </trkpt>
      <trkpt lat="42.21825" lon="1.46017">
        <ele>1395.12</ele>
        <time>2021-07-31T17:42:56Z</time>
      </trkpt>
      <trkpt lat="42.21793" lon="1.4598">
        <ele>1399.34</ele>
        <time>2021-07-31T17:43:02Z</time>
      </trkpt>
      <trkpt lat="42.21776" lon="1.45967">
        <ele>1401.93</ele>
        <time>2021-07-31T17:43:05Z</time>
      </trkpt>
      <trkpt lat="42.21742" lon="1.45952">
        <ele>1405.46</ele>
        <time>2021-07-31T17:43:10Z</time>
      </trkpt>
      <trkpt lat="42.21699" lon="1.45943">
        <ele>1409.78</ele>
        <time>2021-07-31T17:43:16Z</time>
      </trkpt>
      <trkpt lat="42.21684" lon="1.45937">
        <ele>1411.4</ele>
        <time>2021-07-31T17:43:18Z</time>
      </trkpt>
      <trkpt lat="42.21656" lon="1.45918">
        <ele>1414.01</ele>
        <time>2021-07-31T17:43:22Z</time>
      </trkpt>
      <trkpt lat="42.21623" lon="1.45917">
        <ele>1416.85</ele>
        <time>2021-07-31T17:43:26Z</time>
      </trkpt>
      <trkpt lat="42.21596" lon="1.45924">
        <ele>1418.84</ele>
        <time>2021-07-31T17:43:29Z</time>
      </trkpt>
      <trkpt lat="42.21598" lon="1.45945">
        <ele>1421.29</ele>
        <time>2021-07-31T17:43:33Z</time>
      </trkpt>
      <trkpt lat="42.21604" lon="1.45946">
        <ele>1421.87</ele>
        <time>2021-07-31T17:43:34Z</time>
      </trkpt>
      <trkpt lat="42.21668" lon="1.45985">
        <ele>1426.08</ele>
        <time>2021-07-31T17:43:42Z</time>
      </trkpt>
      <trkpt lat="42.21696" lon="1.46014">
        <ele>1428.45</ele>
        <time>2021-07-31T17:43:48Z</time>
      </trkpt>
      <trkpt lat="42.21676" lon="1.46014">
        <ele>1429.41</ele>
        <time>2021-07-31T17:43:52Z</time>
      </trkpt>
      <trkpt lat="42.21654" lon="1.46009">
        <ele>1430.88</ele>
        <time>2021-07-31T17:43:55Z</time>
      </trkpt>
      <trkpt lat="42.21605" lon="1.46023">
        <ele>1434.52</ele>
        <time>2021-07-31T17:44:00Z</time>
      </trkpt>
      <trkpt lat="42.21583" lon="1.46045">
        <ele>1436.93</ele>
        <time>2021-07-31T17:44:03Z</time>
      </trkpt>
      <trkpt lat="42.2156" lon="1.46091">
        <ele>1439.54</ele>
        <time>2021-07-31T17:44:07Z</time>
      </trkpt>
      <trkpt lat="42.21515" lon="1.46123">
        <ele>1443.45</ele>
        <time>2021-07-31T17:44:14Z</time>
      </trkpt>
      <trkpt lat="42.21503" lon="1.46108">
        <ele>1444.29</ele>
        <time>2021-07-31T17:44:16Z</time>
      </trkpt>
      <trkpt lat="42.2149" lon="1.46092">
        <ele>1445.44</ele>
        <time>2021-07-31T17:44:18Z</time>
      </trkpt>
      <trkpt lat="42.21479" lon="1.46073">
        <ele>1447</ele>
        <time>2021-07-31T17:44:20Z</time>
      </trkpt>
      <trkpt lat="42.21455" lon="1.46085">
        <ele>1450.91</ele>
        <time>2021-07-31T17:44:26Z</time>
      </trkpt>
      <trkpt lat="42.21447" lon="1.461">
        <ele>1451.58</ele>
        <time>2021-07-31T17:44:28Z</time>
      </trkpt>
      <trkpt lat="42.21424" lon="1.46109">
        <ele>1452.74</ele>
        <time>2021-07-31T17:44:31Z</time>
      </trkpt>
      <trkpt lat="42.21401" lon="1.46117">
        <ele>1454.63</ele>
        <time>2021-07-31T17:44:34Z</time>
      </trkpt>
      <trkpt lat="42.21382" lon="1.46133">
        <ele>1456.74</ele>
        <time>2021-07-31T17:44:37Z</time>
      </trkpt>
      <trkpt lat="42.21362" lon="1.4612">
        <ele>1460.83</ele>
        <time>2021-07-31T17:44:43Z</time>
      </trkpt>
      <trkpt lat="42.21364" lon="1.46086">
        <ele>1464.26</ele>
        <time>2021-07-31T17:44:47Z</time>
      </trkpt>
      <trkpt lat="42.21357" lon="1.46068">
        <ele>1466.2</ele>
        <time>2021-07-31T17:44:49Z</time>
      </trkpt>
      <trkpt lat="42.21342" lon="1.46034">
        <ele>1469.55</ele>
        <time>2021-07-31T17:44:53Z</time>
      </trkpt>
      <trkpt lat="42.21307" lon="1.46004">
        <ele>1474.02</ele>
        <time>2021-07-31T17:44:58Z</time>
      </trkpt>
      <trkpt lat="42.2129" lon="1.46004">
        <ele>1476.13</ele>
        <time>2021-07-31T17:45:00Z</time>
      </trkpt>
      <trkpt lat="42.21242" lon="1.46009">
        <ele>1480.42</ele>
        <time>2021-07-31T17:45:05Z</time>
      </trkpt>
      <trkpt lat="42.21223" lon="1.46011">
        <ele>1482.25</ele>
        <time>2021-07-31T17:45:07Z</time>
      </trkpt>
      <trkpt lat="42.21173" lon="1.45988">
        <ele>1486.84</ele>
        <time>2021-07-31T17:45:13Z</time>
      </trkpt>
      <trkpt lat="42.21149" lon="1.4596">
        <ele>1490.88</ele>
        <time>2021-07-31T17:45:17Z</time>
      </trkpt>
      <trkpt lat="42.21144" lon="1.45952">
        <ele>1491.66</ele>
        <time>2021-07-31T17:45:18Z</time>
      </trkpt>
      <trkpt lat="42.21115" lon="1.45913">
        <ele>1496.16</ele>
        <time>2021-07-31T17:45:23Z</time>
      </trkpt>
      <trkpt lat="42.21076" lon="1.45892">
        <ele>1500.34</ele>
        <time>2021-07-31T17:45:28Z</time>
      </trkpt>
      <trkpt lat="42.21063" lon="1.45883">
        <ele>1502.12</ele>
        <time>2021-07-31T17:45:30Z</time>
      </trkpt>
      <trkpt lat="42.21053" lon="1.45871">
        <ele>1503.78</ele>
        <time>2021-07-31T17:45:32Z</time>
      </trkpt>
      <trkpt lat="42.21039" lon="1.45882">
        <ele>1507.61</ele>
        <time>2021-07-31T17:45:37Z</time>
      </trkpt>
      <trkpt lat="42.21035" lon="1.45909">
        <ele>1509.69</ele>
        <time>2021-07-31T17:45:41Z</time>
      </trkpt>
      <trkpt lat="42.21015" lon="1.45908">
        <ele>1510.72</ele>
        <time>2021-07-31T17:45:44Z</time>
      </trkpt>
      <trkpt lat="42.20973" lon="1.45897">
        <ele>1515.02</ele>
        <time>2021-07-31T17:45:50Z</time>
      </trkpt>
      <trkpt lat="42.20934" lon="1.45881">
        <ele>1518.13</ele>
        <time>2021-07-31T17:45:55Z</time>
      </trkpt>
      <trkpt lat="42.20893" lon="1.45873">
        <ele>1521.21</ele>
        <time>2021-07-31T17:45:59Z</time>
      </trkpt>
      <trkpt lat="42.20843" lon="1.45868">
        <ele>1524.6</ele>
        <time>2021-07-31T17:46:04Z</time>
      </trkpt>
      <trkpt lat="42.20798" lon="1.45857">
        <ele>1527.92</ele>
        <time>2021-07-31T17:46:09Z</time>
      </trkpt>
      <trkpt lat="42.20757" lon="1.45851">
        <ele>1531.08</ele>
        <time>2021-07-31T17:46:14Z</time>
      </trkpt>
      <trkpt lat="42.20717" lon="1.45846">
        <ele>1534.71</ele>
        <time>2021-07-31T17:46:19Z</time>
      </trkpt>
      <trkpt lat="42.20713" lon="1.45877">
        <ele>1538.29</ele>
        <time>2021-07-31T17:46:24Z</time>
      </trkpt>
      <trkpt lat="42.20717" lon="1.45885">
        <ele>1538.83</ele>
        <time>2021-07-31T17:46:25Z</time>
      </trkpt>
      <trkpt lat="42.20734" lon="1.45921">
        <ele>1540.77</ele>
        <time>2021-07-31T17:46:29Z</time>
      </trkpt>
      <trkpt lat="42.20749" lon="1.46003">
        <ele>1544.73</ele>
        <time>2021-07-31T17:46:37Z</time>
      </trkpt>
      <trkpt lat="42.2075" lon="1.46012">
        <ele>1545.33</ele>
        <time>2021-07-31T17:46:38Z</time>
      </trkpt>
      <trkpt lat="42.20753" lon="1.46068">
        <ele>1549.22</ele>
        <time>2021-07-31T17:46:44Z</time>
      </trkpt>
      <trkpt lat="42.20746" lon="1.46094">
        <ele>1553.14</ele>
        <time>2021-07-31T17:46:51Z</time>
      </trkpt>
      <trkpt lat="42.20745" lon="1.46087">
        <ele>1553.51</ele>
        <time>2021-07-31T17:46:52Z</time>
      </trkpt>
      <trkpt lat="42.20736" lon="1.46056">
        <ele>1556.11</ele>
        <time>2021-07-31T17:46:56Z</time>
      </trkpt>
      <trkpt lat="42.20722" lon="1.45989">
        <ele>1560.59</ele>
        <time>2021-07-31T17:47:02Z</time>
      </trkpt>
      <trkpt lat="42.20719" lon="1.45977">
        <ele>1561.45</ele>
        <time>2021-07-31T17:47:03Z</time>
      </trkpt>
      <trkpt lat="42.20694" lon="1.45923">
        <ele>1565.89</ele>
        <time>2021-07-31T17:47:08Z</time>
      </trkpt>
      <trkpt lat="42.20683" lon="1.45905">
        <ele>1567.42</ele>
        <time>2021-07-31T17:47:10Z</time>
      </trkpt>
      <trkpt lat="42.20677" lon="1.45887">
        <ele>1568.69</ele>
        <time>2021-07-31T17:47:12Z</time>
      </trkpt>
      <trkpt lat="42.20666" lon="1.45893">
        <ele>1572.76</ele>
        <time>2021-07-31T17:47:18Z</time>
      </trkpt>
      <trkpt lat="42.20672" lon="1.45913">
        <ele>1574.25</ele>
        <time>2021-07-31T17:47:20Z</time>
      </trkpt>
      <trkpt lat="42.20682" lon="1.45982">
        <ele>1578.25</ele>
        <time>2021-07-31T17:47:26Z</time>
      </trkpt>
      <trkpt lat="42.20681" lon="1.46044">
        <ele>1581.52</ele>
        <time>2021-07-31T17:47:31Z</time>
      </trkpt>
      <trkpt lat="42.20669" lon="1.46042">
        <ele>1584.28</ele>
        <time>2021-07-31T17:47:37Z</time>
      </trkpt>
      <trkpt lat="42.20668" lon="1.46038">
        <ele>1584.58</ele>
        <time>2021-07-31T17:47:38Z</time>
      </trkpt>
      <trkpt lat="42.20664" lon="1.46011">
        <ele>1586.25</ele>
        <time>2021-07-31T17:47:42Z</time>
      </trkpt>
      <trkpt lat="42.20642" lon="1.45944">
        <ele>1590.08</ele>
        <time>2021-07-31T17:47:49Z</time>
      </trkpt>
      <trkpt lat="42.20629" lon="1.45903">
        <ele>1593.01</ele>
        <time>2021-07-31T17:47:53Z</time>
      </trkpt>
      <trkpt lat="42.20615" lon="1.45864">
        <ele>1596.89</ele>
        <time>2021-07-31T17:47:58Z</time>
      </trkpt>
      <trkpt lat="42.20613" lon="1.45846">
        <ele>1598.26</ele>
        <time>2021-07-31T17:48:00Z</time>
      </trkpt>
      <trkpt lat="42.20599" lon="1.45779">
        <ele>1602.84</ele>
        <time>2021-07-31T17:48:06Z</time>
      </trkpt>
      <trkpt lat="42.20589" lon="1.45739">
        <ele>1606.37</ele>
        <time>2021-07-31T17:48:10Z</time>
      </trkpt>
      <trkpt lat="42.20578" lon="1.45697">
        <ele>1609.64</ele>
        <time>2021-07-31T17:48:14Z</time>
      </trkpt>
      <trkpt lat="42.20568" lon="1.45666">
        <ele>1612.41</ele>
        <time>2021-07-31T17:48:17Z</time>
      </trkpt>
      <trkpt lat="42.2054" lon="1.45621">
        <ele>1616.44</ele>
        <time>2021-07-31T17:48:22Z</time>
      </trkpt>
      <trkpt lat="42.20508" lon="1.45575">
        <ele>1620.62</ele>
        <time>2021-07-31T17:48:27Z</time>
      </trkpt>
      <trkpt lat="42.20478" lon="1.45534">
        <ele>1624.28</ele>
        <time>2021-07-31T17:48:31Z</time>
      </trkpt>
      <trkpt lat="42.20459" lon="1.45497">
        <ele>1627.29</ele>
        <time>2021-07-31T17:48:34Z</time>
      </trkpt>
      <trkpt lat="42.20447" lon="1.4546">
        <ele>1630.86</ele>
        <time>2021-07-31T17:48:37Z</time>
      </trkpt>
      <trkpt lat="42.20438" lon="1.45439">
        <ele>1632.89</ele>
        <time>2021-07-31T17:48:39Z</time>
      </trkpt>
      <trkpt lat="42.20394" lon="1.45404">
        <ele>1637.11</ele>
        <time>2021-07-31T17:48:45Z</time>
      </trkpt>
      <trkpt lat="42.20381" lon="1.45395">
        <ele>1637.41</ele>
        <time>2021-07-31T17:48:47Z</time>
      </trkpt>
      <trkpt lat="42.20335" lon="1.45371">
        <ele>1633.92</ele>
        <time>2021-07-31T17:48:56Z</time>
      </trkpt>
      <trkpt lat="42.20318" lon="1.45368">
        <ele>1630.53</ele>
        <time>2021-07-31T17:49:02Z</time>
      </trkpt>
      <trkpt lat="42.20297" lon="1.45393">
        <ele>1627.15</ele>
        <time>2021-07-31T17:49:10Z</time>
      </trkpt>
      <trkpt lat="42.20282" lon="1.45423">
        <ele>1623.75</ele>
        <time>2021-07-31T17:49:17Z</time>
      </trkpt>
      <trkpt lat="42.20262" lon="1.45454">
        <ele>1620.48</ele>
        <time>2021-07-31T17:49:24Z</time>
      </trkpt>
      <trkpt lat="42.2024" lon="1.45486">
        <ele>1617.41</ele>
        <time>2021-07-31T17:49:30Z</time>
      </trkpt>
      <trkpt lat="42.20223" lon="1.45512">
        <ele>1614.08</ele>
        <time>2021-07-31T17:49:36Z</time>
      </trkpt>
      <trkpt lat="42.202" lon="1.45542">
        <ele>1610.84</ele>
        <time>2021-07-31T17:49:43Z</time>
      </trkpt>
      <trkpt lat="42.20187" lon="1.45558">
        <ele>1609.37</ele>
        <time>2021-07-31T17:49:46Z</time>
      </trkpt>
      <trkpt lat="42.20161" lon="1.45575">
        <ele>1606.66</ele>
        <time>2021-07-31T17:49:52Z</time>
      </trkpt>
      <trkpt lat="42.20163" lon="1.45565">
        <ele>1603.67</ele>
        <time>2021-07-31T17:49:58Z</time>
      </trkpt>
      <trkpt lat="42.20176" lon="1.45536">
        <ele>1601.77</ele>
        <time>2021-07-31T17:50:04Z</time>
      </trkpt>
      <trkpt lat="42.20184" lon="1.45508">
        <ele>1601.34</ele>
        <time>2021-07-31T17:50:07Z</time>
      </trkpt>
      <trkpt lat="42.2021" lon="1.45438">
        <ele>1598.09</ele>
        <time>2021-07-31T17:50:15Z</time>
      </trkpt>
      <trkpt lat="42.20213" lon="1.45431">
        <ele>1597.46</ele>
        <time>2021-07-31T17:50:16Z</time>
      </trkpt>
      <trkpt lat="42.20239" lon="1.4537">
        <ele>1593.44</ele>
        <time>2021-07-31T17:50:25Z</time>
      </trkpt>
      <trkpt lat="42.20241" lon="1.45362">
        <ele>1592.73</ele>
        <time>2021-07-31T17:50:27Z</time>
      </trkpt>
      <trkpt lat="42.20254" lon="1.4533">
        <ele>1591.35</ele>
        <time>2021-07-31T17:50:34Z</time>
      </trkpt>
      <trkpt lat="42.20268" lon="1.45298">
        <ele>1590.36</ele>
        <time>2021-07-31T17:50:41Z</time>
      </trkpt>
      <trkpt lat="42.20265" lon="1.4528">
        <ele>1589.86</ele>
        <time>2021-07-31T17:50:45Z</time>
      </trkpt>
      <trkpt lat="42.20255" lon="1.45248">
        <ele>1589.57</ele>
        <time>2021-07-31T17:50:52Z</time>
      </trkpt>
      <trkpt lat="42.20219" lon="1.45172">
        <ele>1586.76</ele>
        <time>2021-07-31T17:51:05Z</time>
      </trkpt>
      <trkpt lat="42.20204" lon="1.45158">
        <ele>1583.68</ele>
        <time>2021-07-31T17:51:11Z</time>
      </trkpt>
      <trkpt lat="42.20185" lon="1.45129">
        <ele>1580.31</ele>
        <time>2021-07-31T17:51:19Z</time>
      </trkpt>
      <trkpt lat="42.2017" lon="1.45099">
        <ele>1577.07</ele>
        <time>2021-07-31T17:51:27Z</time>
      </trkpt>
      <trkpt lat="42.20155" lon="1.45067">
        <ele>1573.66</ele>
        <time>2021-07-31T17:51:35Z</time>
      </trkpt>
      <trkpt lat="42.20135" lon="1.45029">
        <ele>1570.66</ele>
        <time>2021-07-31T17:51:44Z</time>
      </trkpt>
      <trkpt lat="42.2013" lon="1.45017">
        <ele>1570.15</ele>
        <time>2021-07-31T17:51:46Z</time>
      </trkpt>
      <trkpt lat="42.20102" lon="1.44976">
        <ele>1569.53</ele>
        <time>2021-07-31T17:51:55Z</time>
      </trkpt>
      <trkpt lat="42.20079" lon="1.44921">
        <ele>1571.27</ele>
        <time>2021-07-31T17:52:06Z</time>
      </trkpt>
      <trkpt lat="42.20061" lon="1.44867">
        <ele>1572.04</ele>
        <time>2021-07-31T17:52:18Z</time>
      </trkpt>
      <trkpt lat="42.2005" lon="1.44825">
        <ele>1571.12</ele>
        <time>2021-07-31T17:52:29Z</time>
      </trkpt>
      <trkpt lat="42.20057" lon="1.44761">
        <ele>1567.98</ele>
        <time>2021-07-31T17:52:40Z</time>
      </trkpt>
      <trkpt lat="42.20067" lon="1.44703">
        <ele>1564.58</ele>
        <time>2021-07-31T17:52:46Z</time>
      </trkpt>
      <trkpt lat="42.20076" lon="1.44664">
        <ele>1560.97</ele>
        <time>2021-07-31T17:52:50Z</time>
      </trkpt>
      <trkpt lat="42.20085" lon="1.44626">
        <ele>1557.47</ele>
        <time>2021-07-31T17:52:54Z</time>
      </trkpt>
      <trkpt lat="42.20091" lon="1.44576">
        <ele>1553.98</ele>
        <time>2021-07-31T17:52:59Z</time>
      </trkpt>
      <trkpt lat="42.20089" lon="1.44512">
        <ele>1550.83</ele>
        <time>2021-07-31T17:53:05Z</time>
      </trkpt>
      <trkpt lat="42.20084" lon="1.44461">
        <ele>1547.73</ele>
        <time>2021-07-31T17:53:10Z</time>
      </trkpt>
      <trkpt lat="42.2008" lon="1.44409">
        <ele>1544.45</ele>
        <time>2021-07-31T17:53:15Z</time>
      </trkpt>
      <trkpt lat="42.20078" lon="1.44359">
        <ele>1541.22</ele>
        <time>2021-07-31T17:53:20Z</time>
      </trkpt>
      <trkpt lat="42.20077" lon="1.44339">
        <ele>1539.85</ele>
        <time>2021-07-31T17:53:22Z</time>
      </trkpt>
      <trkpt lat="42.20066" lon="1.443">
        <ele>1537.61</ele>
        <time>2021-07-31T17:53:26Z</time>
      </trkpt>
      <trkpt lat="42.20055" lon="1.44238">
        <ele>1533.83</ele>
        <time>2021-07-31T17:53:32Z</time>
      </trkpt>
      <trkpt lat="42.20044" lon="1.44185">
        <ele>1530.6</ele>
        <time>2021-07-31T17:53:37Z</time>
      </trkpt>
      <trkpt lat="42.2003" lon="1.44118">
        <ele>1527.78</ele>
        <time>2021-07-31T17:53:43Z</time>
      </trkpt>
      <trkpt lat="42.20014" lon="1.44081">
        <ele>1525.91</ele>
        <time>2021-07-31T17:53:47Z</time>
      </trkpt>
      <trkpt lat="42.1999" lon="1.44012">
        <ele>1521.98</ele>
        <time>2021-07-31T17:53:54Z</time>
      </trkpt>
      <trkpt lat="42.19964" lon="1.43965">
        <ele>1518.47</ele>
        <time>2021-07-31T17:53:59Z</time>
      </trkpt>
      <trkpt lat="42.19934" lon="1.43929">
        <ele>1514.84</ele>
        <time>2021-07-31T17:54:04Z</time>
      </trkpt>
      <trkpt lat="42.19917" lon="1.43907">
        <ele>1512.06</ele>
        <time>2021-07-31T17:54:08Z</time>
      </trkpt>
      <trkpt lat="42.19907" lon="1.43888">
        <ele>1509.72</ele>
        <time>2021-07-31T17:54:12Z</time>
      </trkpt>
      <trkpt lat="42.19887" lon="1.43902">
        <ele>1505.7</ele>
        <time>2021-07-31T17:54:19Z</time>
      </trkpt>
      <trkpt lat="42.19889" lon="1.43967">
        <ele>1502.37</ele>
        <time>2021-07-31T17:54:26Z</time>
      </trkpt>
      <trkpt lat="42.19891" lon="1.43998">
        <ele>1500.97</ele>
        <time>2021-07-31T17:54:30Z</time>
      </trkpt>
      <trkpt lat="42.19898" lon="1.44023">
        <ele>1499.94</ele>
        <time>2021-07-31T17:54:34Z</time>
      </trkpt>
      <trkpt lat="42.199" lon="1.44047">
        <ele>1499.23</ele>
        <time>2021-07-31T17:54:37Z</time>
      </trkpt>
      <trkpt lat="42.19907" lon="1.44126">
        <ele>1495.16</ele>
        <time>2021-07-31T17:54:45Z</time>
      </trkpt>
      <trkpt lat="42.19909" lon="1.44168">
        <ele>1491.87</ele>
        <time>2021-07-31T17:54:49Z</time>
      </trkpt>
      <trkpt lat="42.19911" lon="1.44187">
        <ele>1490.24</ele>
        <time>2021-07-31T17:54:51Z</time>
      </trkpt>
      <trkpt lat="42.19911" lon="1.44232">
        <ele>1486</ele>
        <time>2021-07-31T17:54:56Z</time>
      </trkpt>
      <trkpt lat="42.19913" lon="1.44275">
        <ele>1482.2</ele>
        <time>2021-07-31T17:55:00Z</time>
      </trkpt>
      <trkpt lat="42.19916" lon="1.44318">
        <ele>1478.89</ele>
        <time>2021-07-31T17:55:04Z</time>
      </trkpt>
      <trkpt lat="42.19914" lon="1.44361">
        <ele>1475.69</ele>
        <time>2021-07-31T17:55:08Z</time>
      </trkpt>
      <trkpt lat="42.19909" lon="1.44401">
        <ele>1471.64</ele>
        <time>2021-07-31T17:55:12Z</time>
      </trkpt>
      <trkpt lat="42.19907" lon="1.44411">
        <ele>1470.86</ele>
        <time>2021-07-31T17:55:13Z</time>
      </trkpt>
      <trkpt lat="42.19897" lon="1.44459">
        <ele>1466.93</ele>
        <time>2021-07-31T17:55:18Z</time>
      </trkpt>
      <trkpt lat="42.19891" lon="1.44484">
        <ele>1462.97</ele>
        <time>2021-07-31T17:55:22Z</time>
      </trkpt>
      <trkpt lat="42.19886" lon="1.44496">
        <ele>1461</ele>
        <time>2021-07-31T17:55:24Z</time>
      </trkpt>
      <trkpt lat="42.19858" lon="1.44516">
        <ele>1456.6</ele>
        <time>2021-07-31T17:55:29Z</time>
      </trkpt>
      <trkpt lat="42.1983" lon="1.44522">
        <ele>1452.35</ele>
        <time>2021-07-31T17:55:34Z</time>
      </trkpt>
      <trkpt lat="42.19824" lon="1.44527">
        <ele>1449.14</ele>
        <time>2021-07-31T17:55:38Z</time>
      </trkpt>
      <trkpt lat="42.19825" lon="1.44526">
        <ele>1446.02</ele>
        <time>2021-07-31T17:55:43Z</time>
      </trkpt>
      <trkpt lat="42.19823" lon="1.44528">
        <ele>1443.66</ele>
        <time>2021-07-31T17:55:59Z</time>
      </trkpt>
      <trkpt lat="42.1982" lon="1.44527">
        <ele>1442.47</ele>
        <time>2021-07-31T17:56:11Z</time>
      </trkpt>
      <trkpt lat="42.19821" lon="1.44522">
        <ele>1442.38</ele>
        <time>2021-07-31T17:56:15Z</time>
      </trkpt>
      <trkpt lat="42.19829" lon="1.44512">
        <ele>1442.38</ele>
        <time>2021-07-31T17:56:19Z</time>
      </trkpt>
      <trkpt lat="42.19847" lon="1.44496">
        <ele>1442.38</ele>
        <time>2021-07-31T17:56:22Z</time>
      </trkpt>
      <trkpt lat="42.19863" lon="1.44436">
        <ele>1441.43</ele>
        <time>2021-07-31T17:56:28Z</time>
      </trkpt>
      <trkpt lat="42.19862" lon="1.44414">
        <ele>1440.92</ele>
        <time>2021-07-31T17:56:30Z</time>
      </trkpt>
      <trkpt lat="42.19865" lon="1.44369">
        <ele>1440.32</ele>
        <time>2021-07-31T17:56:34Z</time>
      </trkpt>
      <trkpt lat="42.19859" lon="1.44326">
        <ele>1439.82</ele>
        <time>2021-07-31T17:56:38Z</time>
      </trkpt>
      <trkpt lat="42.19818" lon="1.44242">
        <ele>1438.09</ele>
        <time>2021-07-31T17:56:48Z</time>
      </trkpt>
      <trkpt lat="42.19814" lon="1.44234">
        <ele>1437.9</ele>
        <time>2021-07-31T17:56:49Z</time>
      </trkpt>
      <trkpt lat="42.19779" lon="1.4413">
        <ele>1437.94</ele>
        <time>2021-07-31T17:57:00Z</time>
      </trkpt>
      <trkpt lat="42.19745" lon="1.44014">
        <ele>1438.41</ele>
        <time>2021-07-31T17:57:13Z</time>
      </trkpt>
      <trkpt lat="42.19727" lon="1.4393">
        <ele>1437.32</ele>
        <time>2021-07-31T17:57:23Z</time>
      </trkpt>
      <trkpt lat="42.19726" lon="1.43861">
        <ele>1433.66</ele>
        <time>2021-07-31T17:57:30Z</time>
      </trkpt>
      <trkpt lat="42.19737" lon="1.43815">
        <ele>1430.21</ele>
        <time>2021-07-31T17:57:35Z</time>
      </trkpt>
      <trkpt lat="42.19743" lon="1.43759">
        <ele>1425.86</ele>
        <time>2021-07-31T17:57:41Z</time>
      </trkpt>
      <trkpt lat="42.19742" lon="1.43733">
        <ele>1423.73</ele>
        <time>2021-07-31T17:57:44Z</time>
      </trkpt>
      <trkpt lat="42.19745" lon="1.43702">
        <ele>1420.46</ele>
        <time>2021-07-31T17:57:48Z</time>
      </trkpt>
      <trkpt lat="42.19744" lon="1.43664">
        <ele>1417.8</ele>
        <time>2021-07-31T17:57:52Z</time>
      </trkpt>
      <trkpt lat="42.19737" lon="1.43634">
        <ele>1413.73</ele>
        <time>2021-07-31T17:57:57Z</time>
      </trkpt>
      <trkpt lat="42.19732" lon="1.43598">
        <ele>1410.14</ele>
        <time>2021-07-31T17:58:02Z</time>
      </trkpt>
      <trkpt lat="42.19726" lon="1.43557">
        <ele>1406.59</ele>
        <time>2021-07-31T17:58:07Z</time>
      </trkpt>
      <trkpt lat="42.1972" lon="1.43527">
        <ele>1403.51</ele>
        <time>2021-07-31T17:58:11Z</time>
      </trkpt>
      <trkpt lat="42.19711" lon="1.4349">
        <ele>1400.36</ele>
        <time>2021-07-31T17:58:15Z</time>
      </trkpt>
      <trkpt lat="42.19709" lon="1.4348">
        <ele>1399.57</ele>
        <time>2021-07-31T17:58:16Z</time>
      </trkpt>
      <trkpt lat="42.19686" lon="1.43435">
        <ele>1395.5</ele>
        <time>2021-07-31T17:58:21Z</time>
      </trkpt>
      <trkpt lat="42.19645" lon="1.434">
        <ele>1391.23</ele>
        <time>2021-07-31T17:58:28Z</time>
      </trkpt>
      <trkpt lat="42.1957" lon="1.43345">
        <ele>1389.28</ele>
        <time>2021-07-31T17:58:40Z</time>
      </trkpt>
      <trkpt lat="42.19525" lon="1.43323">
        <ele>1388.15</ele>
        <time>2021-07-31T17:58:46Z</time>
      </trkpt>
      <trkpt lat="42.19474" lon="1.43334">
        <ele>1385</ele>
        <time>2021-07-31T17:58:56Z</time>
      </trkpt>
      <trkpt lat="42.19468" lon="1.43315">
        <ele>1384.18</ele>
        <time>2021-07-31T17:58:59Z</time>
      </trkpt>
      <trkpt lat="42.19465" lon="1.43236">
        <ele>1380.49</ele>
        <time>2021-07-31T17:59:07Z</time>
      </trkpt>
      <trkpt lat="42.19463" lon="1.43198">
        <ele>1377.81</ele>
        <time>2021-07-31T17:59:11Z</time>
      </trkpt>
      <trkpt lat="42.19461" lon="1.43185">
        <ele>1376.14</ele>
        <time>2021-07-31T17:59:13Z</time>
      </trkpt>
      <trkpt lat="42.19463" lon="1.43156">
        <ele>1372.95</ele>
        <time>2021-07-31T17:59:17Z</time>
      </trkpt>
      <trkpt lat="42.19466" lon="1.43098">
        <ele>1368.09</ele>
        <time>2021-07-31T17:59:24Z</time>
      </trkpt>
      <trkpt lat="42.19455" lon="1.4305">
        <ele>1363.61</ele>
        <time>2021-07-31T17:59:30Z</time>
      </trkpt>
      <trkpt lat="42.19451" lon="1.43036">
        <ele>1362.04</ele>
        <time>2021-07-31T17:59:32Z</time>
      </trkpt>
      <trkpt lat="42.19448" lon="1.42984">
        <ele>1357.99</ele>
        <time>2021-07-31T17:59:38Z</time>
      </trkpt>
      <trkpt lat="42.19443" lon="1.42935">
        <ele>1354.62</ele>
        <time>2021-07-31T17:59:43Z</time>
      </trkpt>
      <trkpt lat="42.19443" lon="1.42832">
        <ele>1351.77</ele>
        <time>2021-07-31T17:59:54Z</time>
      </trkpt>
      <trkpt lat="42.19417" lon="1.42735">
        <ele>1353.34</ele>
        <time>2021-07-31T18:00:03Z</time>
      </trkpt>
      <trkpt lat="42.19411" lon="1.42723">
        <ele>1354.18</ele>
        <time>2021-07-31T18:00:05Z</time>
      </trkpt>
      <trkpt lat="42.19395" lon="1.42701">
        <ele>1357.34</ele>
        <time>2021-07-31T18:00:09Z</time>
      </trkpt>
      <trkpt lat="42.19379" lon="1.42684">
        <ele>1360.12</ele>
        <time>2021-07-31T18:00:13Z</time>
      </trkpt>
      <trkpt lat="42.19371" lon="1.42652">
        <ele>1364.05</ele>
        <time>2021-07-31T18:00:18Z</time>
      </trkpt>
      <trkpt lat="42.19375" lon="1.42621">
        <ele>1367.16</ele>
        <time>2021-07-31T18:00:22Z</time>
      </trkpt>
      <trkpt lat="42.19377" lon="1.42614">
        <ele>1367.81</ele>
        <time>2021-07-31T18:00:23Z</time>
      </trkpt>
      <trkpt lat="42.19393" lon="1.42577">
        <ele>1370.82</ele>
        <time>2021-07-31T18:00:29Z</time>
      </trkpt>
      <trkpt lat="42.19396" lon="1.42571">
        <ele>1371.07</ele>
        <time>2021-07-31T18:00:30Z</time>
      </trkpt>
      <trkpt lat="42.19408" lon="1.42556">
        <ele>1371.28</ele>
        <time>2021-07-31T18:00:34Z</time>
      </trkpt>
      <trkpt lat="42.19423" lon="1.42544">
        <ele>1369.24</ele>
        <time>2021-07-31T18:00:49Z</time>
      </trkpt>
      <trkpt lat="42.19445" lon="1.42522">
        <ele>1369.27</ele>
        <time>2021-07-31T18:02:51Z</time>
      </trkpt>
      <trkpt lat="42.19468" lon="1.42489">
        <ele>1369.25</ele>
        <time>2021-07-31T18:02:57Z</time>
      </trkpt>
      <trkpt lat="42.19513" lon="1.42447">
        <ele>1368.22</ele>
        <time>2021-07-31T18:03:04Z</time>
      </trkpt>
      <trkpt lat="42.19537" lon="1.42408">
        <ele>1367.17</ele>
        <time>2021-07-31T18:03:08Z</time>
      </trkpt>
      <trkpt lat="42.19574" lon="1.42322">
        <ele>1363.71</ele>
        <time>2021-07-31T18:03:16Z</time>
      </trkpt>
      <trkpt lat="42.19599" lon="1.42248">
        <ele>1360.48</ele>
        <time>2021-07-31T18:03:24Z</time>
      </trkpt>
      <trkpt lat="42.19607" lon="1.42232">
        <ele>1359.15</ele>
        <time>2021-07-31T18:03:26Z</time>
      </trkpt>
      <trkpt lat="42.19628" lon="1.42207">
        <ele>1357.54</ele>
        <time>2021-07-31T18:03:30Z</time>
      </trkpt>
      <trkpt lat="42.19651" lon="1.42185">
        <ele>1355.62</ele>
        <time>2021-07-31T18:03:34Z</time>
      </trkpt>
      <trkpt lat="42.19677" lon="1.42127">
        <ele>1351.98</ele>
        <time>2021-07-31T18:03:41Z</time>
      </trkpt>
      <trkpt lat="42.19696" lon="1.42067">
        <ele>1350.3</ele>
        <time>2021-07-31T18:03:49Z</time>
      </trkpt>
      <trkpt lat="42.19699" lon="1.42053">
        <ele>1350.36</ele>
        <time>2021-07-31T18:03:51Z</time>
      </trkpt>
      <trkpt lat="42.19701" lon="1.42046">
        <ele>1350.56</ele>
        <time>2021-07-31T18:03:52Z</time>
      </trkpt>
      <trkpt lat="42.19704" lon="1.4204">
        <ele>1350.92</ele>
        <time>2021-07-31T18:03:53Z</time>
      </trkpt>
      <trkpt lat="42.19708" lon="1.42035">
        <ele>1351.3</ele>
        <time>2021-07-31T18:03:54Z</time>
      </trkpt>
      <trkpt lat="42.19711" lon="1.42029">
        <ele>1351.67</ele>
        <time>2021-07-31T18:03:55Z</time>
      </trkpt>
      <trkpt lat="42.19724" lon="1.42001">
        <ele>1353.61</ele>
        <time>2021-07-31T18:03:59Z</time>
      </trkpt>
      <trkpt lat="42.19738" lon="1.41982">
        <ele>1355.22</ele>
        <time>2021-07-31T18:04:04Z</time>
      </trkpt>
      <trkpt lat="42.19738" lon="1.41983">
        <ele>1356.96</ele>
        <time>2021-07-31T18:04:23Z</time>
      </trkpt>
      <trkpt lat="42.19756" lon="1.41959">
        <ele>1357.31</ele>
        <time>2021-07-31T18:05:29Z</time>
      </trkpt>
      <trkpt lat="42.1981" lon="1.41905">
        <ele>1358.23</ele>
        <time>2021-07-31T18:05:37Z</time>
      </trkpt>
      <trkpt lat="42.19841" lon="1.41844">
        <ele>1359.28</ele>
        <time>2021-07-31T18:05:45Z</time>
      </trkpt>
      <trkpt lat="42.19872" lon="1.41791">
        <ele>1362.32</ele>
        <time>2021-07-31T18:05:54Z</time>
      </trkpt>
      <trkpt lat="42.19904" lon="1.41721">
        <ele>1366.01</ele>
        <time>2021-07-31T18:06:03Z</time>
      </trkpt>
      <trkpt lat="42.19926" lon="1.41651">
        <ele>1369.59</ele>
        <time>2021-07-31T18:06:11Z</time>
      </trkpt>
      <trkpt lat="42.19939" lon="1.41608">
        <ele>1372.86</ele>
        <time>2021-07-31T18:06:16Z</time>
      </trkpt>
      <trkpt lat="42.19953" lon="1.41566">
        <ele>1375.94</ele>
        <time>2021-07-31T18:06:21Z</time>
      </trkpt>
      <trkpt lat="42.19965" lon="1.41529">
        <ele>1379.3</ele>
        <time>2021-07-31T18:06:26Z</time>
      </trkpt>
      <trkpt lat="42.1998" lon="1.41487">
        <ele>1382.35</ele>
        <time>2021-07-31T18:06:31Z</time>
      </trkpt>
      <trkpt lat="42.19998" lon="1.41436">
        <ele>1385.92</ele>
        <time>2021-07-31T18:06:36Z</time>
      </trkpt>
      <trkpt lat="42.20013" lon="1.41399">
        <ele>1389</ele>
        <time>2021-07-31T18:06:40Z</time>
      </trkpt>
      <trkpt lat="42.20025" lon="1.41364">
        <ele>1392.29</ele>
        <time>2021-07-31T18:06:44Z</time>
      </trkpt>
      <trkpt lat="42.20035" lon="1.41336">
        <ele>1396.11</ele>
        <time>2021-07-31T18:06:47Z</time>
      </trkpt>
      <trkpt lat="42.20046" lon="1.41295">
        <ele>1399.36</ele>
        <time>2021-07-31T18:06:51Z</time>
      </trkpt>
      <trkpt lat="42.20054" lon="1.41256">
        <ele>1402.92</ele>
        <time>2021-07-31T18:06:55Z</time>
      </trkpt>
      <trkpt lat="42.20059" lon="1.41221">
        <ele>1406.61</ele>
        <time>2021-07-31T18:06:59Z</time>
      </trkpt>
      <trkpt lat="42.20066" lon="1.41191">
        <ele>1410.07</ele>
        <time>2021-07-31T18:07:03Z</time>
      </trkpt>
      <trkpt lat="42.20072" lon="1.4116">
        <ele>1413.72</ele>
        <time>2021-07-31T18:07:07Z</time>
      </trkpt>
      <trkpt lat="42.20077" lon="1.4113">
        <ele>1417.68</ele>
        <time>2021-07-31T18:07:11Z</time>
      </trkpt>
      <trkpt lat="42.20081" lon="1.41109">
        <ele>1420.84</ele>
        <time>2021-07-31T18:07:14Z</time>
      </trkpt>
      <trkpt lat="42.20086" lon="1.41067">
        <ele>1425.03</ele>
        <time>2021-07-31T18:07:19Z</time>
      </trkpt>
      <trkpt lat="42.20088" lon="1.41056">
        <ele>1425.86</ele>
        <time>2021-07-31T18:07:20Z</time>
      </trkpt>
      <trkpt lat="42.20104" lon="1.40995">
        <ele>1430.04</ele>
        <time>2021-07-31T18:07:25Z</time>
      </trkpt>
      <trkpt lat="42.2011" lon="1.40971">
        <ele>1431.36</ele>
        <time>2021-07-31T18:07:27Z</time>
      </trkpt>
      <trkpt lat="42.20125" lon="1.40939">
        <ele>1433.79</ele>
        <time>2021-07-31T18:07:31Z</time>
      </trkpt>
      <trkpt lat="42.20144" lon="1.40913">
        <ele>1436.4</ele>
        <time>2021-07-31T18:07:35Z</time>
      </trkpt>
      <trkpt lat="42.20151" lon="1.40899">
        <ele>1437.75</ele>
        <time>2021-07-31T18:07:37Z</time>
      </trkpt>
      <trkpt lat="42.20155" lon="1.40869">
        <ele>1441.69</ele>
        <time>2021-07-31T18:07:42Z</time>
      </trkpt>
      <trkpt lat="42.20153" lon="1.40862">
        <ele>1442.46</ele>
        <time>2021-07-31T18:07:43Z</time>
      </trkpt>
      <trkpt lat="42.20127" lon="1.40792">
        <ele>1446.39</ele>
        <time>2021-07-31T18:07:50Z</time>
      </trkpt>
      <trkpt lat="42.20114" lon="1.40743">
        <ele>1447.2</ele>
        <time>2021-07-31T18:07:55Z</time>
      </trkpt>
      <trkpt lat="42.20107" lon="1.40626">
        <ele>1446.02</ele>
        <time>2021-07-31T18:08:04Z</time>
      </trkpt>
      <trkpt lat="42.20073" lon="1.40498">
        <ele>1442.62</ele>
        <time>2021-07-31T18:08:17Z</time>
      </trkpt>
      <trkpt lat="42.20064" lon="1.40478">
        <ele>1441.91</ele>
        <time>2021-07-31T18:08:20Z</time>
      </trkpt>
      <trkpt lat="42.20058" lon="1.40447">
        <ele>1440.5</ele>
        <time>2021-07-31T18:08:24Z</time>
      </trkpt>
      <trkpt lat="42.20058" lon="1.40411">
        <ele>1440.13</ele>
        <time>2021-07-31T18:08:27Z</time>
      </trkpt>
      <trkpt lat="42.20043" lon="1.40289">
        <ele>1443.56</ele>
        <time>2021-07-31T18:08:36Z</time>
      </trkpt>
      <trkpt lat="42.20044" lon="1.40209">
        <ele>1445.81</ele>
        <time>2021-07-31T18:08:41Z</time>
      </trkpt>
      <trkpt lat="42.20027" lon="1.4012">
        <ele>1449.66</ele>
        <time>2021-07-31T18:08:48Z</time>
      </trkpt>
      <trkpt lat="42.20029" lon="1.4005">
        <ele>1453.1</ele>
        <time>2021-07-31T18:08:53Z</time>
      </trkpt>
      <trkpt lat="42.20054" lon="1.39996">
        <ele>1456.49</ele>
        <time>2021-07-31T18:08:58Z</time>
      </trkpt>
      <trkpt lat="42.20062" lon="1.39988">
        <ele>1457.15</ele>
        <time>2021-07-31T18:08:59Z</time>
      </trkpt>
      <trkpt lat="42.2007" lon="1.39981">
        <ele>1457.77</ele>
        <time>2021-07-31T18:09:00Z</time>
      </trkpt>
      <trkpt lat="42.20095" lon="1.39964">
        <ele>1459.59</ele>
        <time>2021-07-31T18:09:03Z</time>
      </trkpt>
      <trkpt lat="42.20104" lon="1.39964">
        <ele>1460.24</ele>
        <time>2021-07-31T18:09:04Z</time>
      </trkpt>
      <trkpt lat="42.20113" lon="1.39965">
        <ele>1460.81</ele>
        <time>2021-07-31T18:09:05Z</time>
      </trkpt>
      <trkpt lat="42.20131" lon="1.39973">
        <ele>1461.92</ele>
        <time>2021-07-31T18:09:07Z</time>
      </trkpt>
      <trkpt lat="42.2016" lon="1.39982">
        <ele>1463.41</ele>
        <time>2021-07-31T18:09:10Z</time>
      </trkpt>
      <trkpt lat="42.20227" lon="1.3998">
        <ele>1466.3</ele>
        <time>2021-07-31T18:09:17Z</time>
      </trkpt>
      <trkpt lat="42.20257" lon="1.39938">
        <ele>1467.1</ele>
        <time>2021-07-31T18:09:24Z</time>
      </trkpt>
      <trkpt lat="42.20237" lon="1.39878">
        <ele>1467.6</ele>
        <time>2021-07-31T18:09:30Z</time>
      </trkpt>
      <trkpt lat="42.20188" lon="1.39784">
        <ele>1464.29</ele>
        <time>2021-07-31T18:09:40Z</time>
      </trkpt>
      <trkpt lat="42.20162" lon="1.39736">
        <ele>1460.95</ele>
        <time>2021-07-31T18:09:45Z</time>
      </trkpt>
      <trkpt lat="42.20135" lon="1.39696">
        <ele>1457.69</ele>
        <time>2021-07-31T18:09:50Z</time>
      </trkpt>
      <trkpt lat="42.20125" lon="1.39679">
        <ele>1456.53</ele>
        <time>2021-07-31T18:09:52Z</time>
      </trkpt>
      <trkpt lat="42.20105" lon="1.39609">
        <ele>1452.81</ele>
        <time>2021-07-31T18:09:58Z</time>
      </trkpt>
      <trkpt lat="42.20098" lon="1.3957">
        <ele>1449.64</ele>
        <time>2021-07-31T18:10:01Z</time>
      </trkpt>
      <trkpt lat="42.20091" lon="1.39517">
        <ele>1446.21</ele>
        <time>2021-07-31T18:10:05Z</time>
      </trkpt>
      <trkpt lat="42.20091" lon="1.3946">
        <ele>1442.91</ele>
        <time>2021-07-31T18:10:10Z</time>
      </trkpt>
      <trkpt lat="42.20091" lon="1.39414">
        <ele>1439.52</ele>
        <time>2021-07-31T18:10:15Z</time>
      </trkpt>
      <trkpt lat="42.20092" lon="1.39378">
        <ele>1436.22</ele>
        <time>2021-07-31T18:10:19Z</time>
      </trkpt>
      <trkpt lat="42.20092" lon="1.39349">
        <ele>1433.21</ele>
        <time>2021-07-31T18:10:22Z</time>
      </trkpt>
      <trkpt lat="42.20093" lon="1.39312">
        <ele>1429.48</ele>
        <time>2021-07-31T18:10:26Z</time>
      </trkpt>
      <trkpt lat="42.20097" lon="1.39294">
        <ele>1427.52</ele>
        <time>2021-07-31T18:10:28Z</time>
      </trkpt>
      <trkpt lat="42.20119" lon="1.3925">
        <ele>1423.2</ele>
        <time>2021-07-31T18:10:33Z</time>
      </trkpt>
      <trkpt lat="42.20154" lon="1.39221">
        <ele>1420.35</ele>
        <time>2021-07-31T18:10:37Z</time>
      </trkpt>
      <trkpt lat="42.20217" lon="1.39196">
        <ele>1416.42</ele>
        <time>2021-07-31T18:10:44Z</time>
      </trkpt>
      <trkpt lat="42.20233" lon="1.39194">
        <ele>1415.74</ele>
        <time>2021-07-31T18:10:46Z</time>
      </trkpt>
      <trkpt lat="42.20279" lon="1.39161">
        <ele>1413.29</ele>
        <time>2021-07-31T18:10:53Z</time>
      </trkpt>
      <trkpt lat="42.2029" lon="1.39145">
        <ele>1412.5</ele>
        <time>2021-07-31T18:10:55Z</time>
      </trkpt>
      <trkpt lat="42.20317" lon="1.39091">
        <ele>1408.62</ele>
        <time>2021-07-31T18:11:02Z</time>
      </trkpt>
      <trkpt lat="42.20329" lon="1.39073">
        <ele>1406.34</ele>
        <time>2021-07-31T18:11:05Z</time>
      </trkpt>
      <trkpt lat="42.20336" lon="1.3906">
        <ele>1405.18</ele>
        <time>2021-07-31T18:11:07Z</time>
      </trkpt>
      <trkpt lat="42.20356" lon="1.39037">
        <ele>1402.64</ele>
        <time>2021-07-31T18:11:11Z</time>
      </trkpt>
      <trkpt lat="42.20398" lon="1.39004">
        <ele>1398.58</ele>
        <time>2021-07-31T18:11:18Z</time>
      </trkpt>
      <trkpt lat="42.20416" lon="1.38988">
        <ele>1396.38</ele>
        <time>2021-07-31T18:11:21Z</time>
      </trkpt>
      <trkpt lat="42.20458" lon="1.3898">
        <ele>1392.58</ele>
        <time>2021-07-31T18:11:27Z</time>
      </trkpt>
      <trkpt lat="42.20497" lon="1.38978">
        <ele>1389.06</ele>
        <time>2021-07-31T18:11:33Z</time>
      </trkpt>
      <trkpt lat="42.20523" lon="1.38968">
        <ele>1386.81</ele>
        <time>2021-07-31T18:11:37Z</time>
      </trkpt>
      <trkpt lat="42.20567" lon="1.38999">
        <ele>1383.18</ele>
        <time>2021-07-31T18:11:45Z</time>
      </trkpt>
      <trkpt lat="42.20568" lon="1.39008">
        <ele>1382.78</ele>
        <time>2021-07-31T18:11:46Z</time>
      </trkpt>
      <trkpt lat="42.20581" lon="1.39066">
        <ele>1380.89</ele>
        <time>2021-07-31T18:11:52Z</time>
      </trkpt>
      <trkpt lat="42.20597" lon="1.39097">
        <ele>1380.32</ele>
        <time>2021-07-31T18:11:56Z</time>
      </trkpt>
      <trkpt lat="42.20643" lon="1.39119">
        <ele>1379.03</ele>
        <time>2021-07-31T18:12:03Z</time>
      </trkpt>
      <trkpt lat="42.20685" lon="1.39113">
        <ele>1376.04</ele>
        <time>2021-07-31T18:12:09Z</time>
      </trkpt>
      <trkpt lat="42.20709" lon="1.39114">
        <ele>1373.72</ele>
        <time>2021-07-31T18:12:12Z</time>
      </trkpt>
      <trkpt lat="42.20739" lon="1.39133">
        <ele>1370.65</ele>
        <time>2021-07-31T18:12:16Z</time>
      </trkpt>
      <trkpt lat="42.20775" lon="1.3918">
        <ele>1366.84</ele>
        <time>2021-07-31T18:12:22Z</time>
      </trkpt>
      <trkpt lat="42.20785" lon="1.39192">
        <ele>1365.91</ele>
        <time>2021-07-31T18:12:24Z</time>
      </trkpt>
      <trkpt lat="42.20821" lon="1.39193">
        <ele>1361.92</ele>
        <time>2021-07-31T18:12:31Z</time>
      </trkpt>
      <trkpt lat="42.20824" lon="1.3917">
        <ele>1360.59</ele>
        <time>2021-07-31T18:12:34Z</time>
      </trkpt>
      <trkpt lat="42.20814" lon="1.39105">
        <ele>1357.03</ele>
        <time>2021-07-31T18:12:42Z</time>
      </trkpt>
      <trkpt lat="42.20814" lon="1.39058">
        <ele>1354.85</ele>
        <time>2021-07-31T18:12:47Z</time>
      </trkpt>
      <trkpt lat="42.20826" lon="1.39026">
        <ele>1353.72</ele>
        <time>2021-07-31T18:12:51Z</time>
      </trkpt>
      <trkpt lat="42.2083" lon="1.38971">
        <ele>1350.98</ele>
        <time>2021-07-31T18:12:59Z</time>
      </trkpt>
      <trkpt lat="42.20825" lon="1.38966">
        <ele>1350.59</ele>
        <time>2021-07-31T18:13:00Z</time>
      </trkpt>
      <trkpt lat="42.2081" lon="1.38943">
        <ele>1349.14</ele>
        <time>2021-07-31T18:13:04Z</time>
      </trkpt>
      <trkpt lat="42.2079" lon="1.38923">
        <ele>1347.22</ele>
        <time>2021-07-31T18:13:08Z</time>
      </trkpt>
      <trkpt lat="42.2077" lon="1.38904">
        <ele>1345.06</ele>
        <time>2021-07-31T18:13:12Z</time>
      </trkpt>
      <trkpt lat="42.20758" lon="1.38872">
        <ele>1342.45</ele>
        <time>2021-07-31T18:13:16Z</time>
      </trkpt>
      <trkpt lat="42.2075" lon="1.38843">
        <ele>1340.93</ele>
        <time>2021-07-31T18:13:19Z</time>
      </trkpt>
      <trkpt lat="42.20748" lon="1.38807">
        <ele>1339.07</ele>
        <time>2021-07-31T18:13:23Z</time>
      </trkpt>
      <trkpt lat="42.20749" lon="1.38798">
        <ele>1338.83</ele>
        <time>2021-07-31T18:13:24Z</time>
      </trkpt>
      <trkpt lat="42.20768" lon="1.38762">
        <ele>1336.97</ele>
        <time>2021-07-31T18:13:29Z</time>
      </trkpt>
      <trkpt lat="42.20776" lon="1.38747">
        <ele>1336.14</ele>
        <time>2021-07-31T18:13:31Z</time>
      </trkpt>
      <trkpt lat="42.20808" lon="1.38712">
        <ele>1332.98</ele>
        <time>2021-07-31T18:13:37Z</time>
      </trkpt>
      <trkpt lat="42.20822" lon="1.38704">
        <ele>1331.09</ele>
        <time>2021-07-31T18:13:40Z</time>
      </trkpt>
      <trkpt lat="42.20838" lon="1.38688">
        <ele>1328.98</ele>
        <time>2021-07-31T18:13:44Z</time>
      </trkpt>
      <trkpt lat="42.20897" lon="1.38664">
        <ele>1327.62</ele>
        <time>2021-07-31T18:13:53Z</time>
      </trkpt>
      <trkpt lat="42.20914" lon="1.38672">
        <ele>1327.51</ele>
        <time>2021-07-31T18:13:56Z</time>
      </trkpt>
      <trkpt lat="42.20953" lon="1.38662">
        <ele>1327.3</ele>
        <time>2021-07-31T18:14:04Z</time>
      </trkpt>
      <trkpt lat="42.20998" lon="1.38608">
        <ele>1325.35</ele>
        <time>2021-07-31T18:14:14Z</time>
      </trkpt>
      <trkpt lat="42.21039" lon="1.38535">
        <ele>1322.5</ele>
        <time>2021-07-31T18:14:25Z</time>
      </trkpt>
      <trkpt lat="42.21084" lon="1.38463">
        <ele>1323.4</ele>
        <time>2021-07-31T18:14:33Z</time>
      </trkpt>
      <trkpt lat="42.21124" lon="1.38339">
        <ele>1322.22</ele>
        <time>2021-07-31T18:14:45Z</time>
      </trkpt>
      <trkpt lat="42.21159" lon="1.38255">
        <ele>1323.13</ele>
        <time>2021-07-31T18:14:53Z</time>
      </trkpt>
      <trkpt lat="42.21235" lon="1.38196">
        <ele>1323.49</ele>
        <time>2021-07-31T18:15:03Z</time>
      </trkpt>
      <trkpt lat="42.21267" lon="1.38178">
        <ele>1323.3</ele>
        <time>2021-07-31T18:15:07Z</time>
      </trkpt>
      <trkpt lat="42.21318" lon="1.38151">
        <ele>1320.93</ele>
        <time>2021-07-31T18:15:15Z</time>
      </trkpt>
      <trkpt lat="42.21306" lon="1.38112">
        <ele>1319.03</ele>
        <time>2021-07-31T18:15:20Z</time>
      </trkpt>
      <trkpt lat="42.21286" lon="1.38089">
        <ele>1316.93</ele>
        <time>2021-07-31T18:15:24Z</time>
      </trkpt>
      <trkpt lat="42.21274" lon="1.38073">
        <ele>1315.3</ele>
        <time>2021-07-31T18:15:27Z</time>
      </trkpt>
      <trkpt lat="42.21286" lon="1.38035">
        <ele>1311.49</ele>
        <time>2021-07-31T18:15:33Z</time>
      </trkpt>
      <trkpt lat="42.21314" lon="1.37998">
        <ele>1309.35</ele>
        <time>2021-07-31T18:15:40Z</time>
      </trkpt>
      <trkpt lat="42.2134" lon="1.37966">
        <ele>1307.84</ele>
        <time>2021-07-31T18:15:47Z</time>
      </trkpt>
      <trkpt lat="42.2137" lon="1.37958">
        <ele>1307.48</ele>
        <time>2021-07-31T18:15:52Z</time>
      </trkpt>
      <trkpt lat="42.21433" lon="1.37885">
        <ele>1309.64</ele>
        <time>2021-07-31T18:16:02Z</time>
      </trkpt>
      <trkpt lat="42.2147" lon="1.37843">
        <ele>1310.29</ele>
        <time>2021-07-31T18:16:07Z</time>
      </trkpt>
      <trkpt lat="42.21486" lon="1.37831">
        <ele>1310.2</ele>
        <time>2021-07-31T18:16:09Z</time>
      </trkpt>
      <trkpt lat="42.2153" lon="1.3778">
        <ele>1307.83</ele>
        <time>2021-07-31T18:16:15Z</time>
      </trkpt>
      <trkpt lat="42.21561" lon="1.37765">
        <ele>1306.3</ele>
        <time>2021-07-31T18:16:19Z</time>
      </trkpt>
      <trkpt lat="42.21584" lon="1.37739">
        <ele>1305.81</ele>
        <time>2021-07-31T18:16:23Z</time>
      </trkpt>
      <trkpt lat="42.21593" lon="1.37722">
        <ele>1305.66</ele>
        <time>2021-07-31T18:16:25Z</time>
      </trkpt>
      <trkpt lat="42.21602" lon="1.37681">
        <ele>1305.13</ele>
        <time>2021-07-31T18:16:29Z</time>
      </trkpt>
      <trkpt lat="42.21632" lon="1.37665">
        <ele>1302.49</ele>
        <time>2021-07-31T18:16:34Z</time>
      </trkpt>
      <trkpt lat="42.2166" lon="1.37675">
        <ele>1300.68</ele>
        <time>2021-07-31T18:16:37Z</time>
      </trkpt>
      <trkpt lat="42.21687" lon="1.3768">
        <ele>1299.73</ele>
        <time>2021-07-31T18:16:40Z</time>
      </trkpt>
      <trkpt lat="42.2173" lon="1.37711">
        <ele>1296.91</ele>
        <time>2021-07-31T18:16:47Z</time>
      </trkpt>
      <trkpt lat="42.21737" lon="1.3771">
        <ele>1296.29</ele>
        <time>2021-07-31T18:16:48Z</time>
      </trkpt>
      <trkpt lat="42.21757" lon="1.37707">
        <ele>1294.34</ele>
        <time>2021-07-31T18:16:51Z</time>
      </trkpt>
      <trkpt lat="42.21789" lon="1.37693">
        <ele>1290.65</ele>
        <time>2021-07-31T18:16:56Z</time>
      </trkpt>
      <trkpt lat="42.21805" lon="1.37681">
        <ele>1287.1</ele>
        <time>2021-07-31T18:17:00Z</time>
      </trkpt>
      <trkpt lat="42.21814" lon="1.37674">
        <ele>1285.4</ele>
        <time>2021-07-31T18:17:02Z</time>
      </trkpt>
      <trkpt lat="42.21835" lon="1.37681">
        <ele>1281.11</ele>
        <time>2021-07-31T18:17:07Z</time>
      </trkpt>
      <trkpt lat="42.21846" lon="1.37694">
        <ele>1279.54</ele>
        <time>2021-07-31T18:17:09Z</time>
      </trkpt>
      <trkpt lat="42.21861" lon="1.37691">
        <ele>1276.2</ele>
        <time>2021-07-31T18:17:13Z</time>
      </trkpt>
      <trkpt lat="42.21861" lon="1.37659">
        <ele>1273.73</ele>
        <time>2021-07-31T18:17:16Z</time>
      </trkpt>
      <trkpt lat="42.21867" lon="1.37586">
        <ele>1269.91</ele>
        <time>2021-07-31T18:17:23Z</time>
      </trkpt>
      <trkpt lat="42.21868" lon="1.37574">
        <ele>1269.48</ele>
        <time>2021-07-31T18:17:24Z</time>
      </trkpt>
      <trkpt lat="42.2189" lon="1.37522">
        <ele>1267.87</ele>
        <time>2021-07-31T18:17:28Z</time>
      </trkpt>
      <trkpt lat="42.21916" lon="1.37482">
        <ele>1266.5</ele>
        <time>2021-07-31T18:17:32Z</time>
      </trkpt>
      <trkpt lat="42.21949" lon="1.3745">
        <ele>1265.43</ele>
        <time>2021-07-31T18:17:36Z</time>
      </trkpt>
      <trkpt lat="42.21982" lon="1.37407">
        <ele>1264.85</ele>
        <time>2021-07-31T18:17:40Z</time>
      </trkpt>
      <trkpt lat="42.22024" lon="1.37349">
        <ele>1261.86</ele>
        <time>2021-07-31T18:17:48Z</time>
      </trkpt>
      <trkpt lat="42.22027" lon="1.37347">
        <ele>1261.31</ele>
        <time>2021-07-31T18:17:49Z</time>
      </trkpt>
      <trkpt lat="42.22055" lon="1.37359">
        <ele>1257.8</ele>
        <time>2021-07-31T18:17:58Z</time>
      </trkpt>
      <trkpt lat="42.22075" lon="1.37376">
        <ele>1256.49</ele>
        <time>2021-07-31T18:18:07Z</time>
      </trkpt>
      <trkpt lat="42.22086" lon="1.37385">
        <ele>1255.78</ele>
        <time>2021-07-31T18:18:10Z</time>
      </trkpt>
      <trkpt lat="42.22126" lon="1.37398">
        <ele>1253.53</ele>
        <time>2021-07-31T18:18:16Z</time>
      </trkpt>
      <trkpt lat="42.2214" lon="1.37385">
        <ele>1249.63</ele>
        <time>2021-07-31T18:18:21Z</time>
      </trkpt>
      <trkpt lat="42.2213" lon="1.37372">
        <ele>1248.02</ele>
        <time>2021-07-31T18:18:23Z</time>
      </trkpt>
      <trkpt lat="42.22117" lon="1.3736">
        <ele>1246.45</ele>
        <time>2021-07-31T18:18:25Z</time>
      </trkpt>
      <trkpt lat="42.22076" lon="1.37332">
        <ele>1241.98</ele>
        <time>2021-07-31T18:18:31Z</time>
      </trkpt>
      <trkpt lat="42.22059" lon="1.37316">
        <ele>1238.93</ele>
        <time>2021-07-31T18:18:34Z</time>
      </trkpt>
      <trkpt lat="42.22041" lon="1.37296">
        <ele>1235.9</ele>
        <time>2021-07-31T18:18:37Z</time>
      </trkpt>
      <trkpt lat="42.22023" lon="1.37284">
        <ele>1232.9</ele>
        <time>2021-07-31T18:18:40Z</time>
      </trkpt>
      <trkpt lat="42.22011" lon="1.37282">
        <ele>1230.88</ele>
        <time>2021-07-31T18:18:42Z</time>
      </trkpt>
      <trkpt lat="42.21985" lon="1.37282">
        <ele>1226.98</ele>
        <time>2021-07-31T18:18:46Z</time>
      </trkpt>
      <trkpt lat="42.21968" lon="1.3726">
        <ele>1222.82</ele>
        <time>2021-07-31T18:18:50Z</time>
      </trkpt>
      <trkpt lat="42.21966" lon="1.37251">
        <ele>1221.86</ele>
        <time>2021-07-31T18:18:51Z</time>
      </trkpt>
      <trkpt lat="42.21961" lon="1.37188">
        <ele>1217.17</ele>
        <time>2021-07-31T18:18:58Z</time>
      </trkpt>
      <trkpt lat="42.21962" lon="1.37136">
        <ele>1213.84</ele>
        <time>2021-07-31T18:19:03Z</time>
      </trkpt>
      <trkpt lat="42.21969" lon="1.37092">
        <ele>1210.7</ele>
        <time>2021-07-31T18:19:07Z</time>
      </trkpt>
      <trkpt lat="42.21981" lon="1.37044">
        <ele>1207.52</ele>
        <time>2021-07-31T18:19:11Z</time>
      </trkpt>
      <trkpt lat="42.21984" lon="1.37033">
        <ele>1206.71</ele>
        <time>2021-07-31T18:19:12Z</time>
      </trkpt>
      <trkpt lat="42.2201" lon="1.36984">
        <ele>1202.43</ele>
        <time>2021-07-31T18:19:17Z</time>
      </trkpt>
      <trkpt lat="42.22028" lon="1.36949">
        <ele>1199.35</ele>
        <time>2021-07-31T18:19:20Z</time>
      </trkpt>
      <trkpt lat="42.22041" lon="1.36917">
        <ele>1196.34</ele>
        <time>2021-07-31T18:19:23Z</time>
      </trkpt>
      <trkpt lat="42.22066" lon="1.36889">
        <ele>1191.99</ele>
        <time>2021-07-31T18:19:27Z</time>
      </trkpt>
      <trkpt lat="42.22072" lon="1.36884">
        <ele>1191.18</ele>
        <time>2021-07-31T18:19:28Z</time>
      </trkpt>
      <trkpt lat="42.22097" lon="1.36837">
        <ele>1186.8</ele>
        <time>2021-07-31T18:19:33Z</time>
      </trkpt>
      <trkpt lat="42.2212" lon="1.36789">
        <ele>1183.65</ele>
        <time>2021-07-31T18:19:37Z</time>
      </trkpt>
      <trkpt lat="42.22122" lon="1.36777">
        <ele>1182.89</ele>
        <time>2021-07-31T18:19:38Z</time>
      </trkpt>
      <trkpt lat="42.22141" lon="1.36727">
        <ele>1179.06</ele>
        <time>2021-07-31T18:19:43Z</time>
      </trkpt>
      <trkpt lat="42.22154" lon="1.36667">
        <ele>1175.01</ele>
        <time>2021-07-31T18:19:48Z</time>
      </trkpt>
      <trkpt lat="42.22158" lon="1.36646">
        <ele>1172.98</ele>
        <time>2021-07-31T18:19:50Z</time>
      </trkpt>
      <trkpt lat="42.22158" lon="1.366">
        <ele>1168.92</ele>
        <time>2021-07-31T18:19:54Z</time>
      </trkpt>
      <trkpt lat="42.22158" lon="1.36575">
        <ele>1166.43</ele>
        <time>2021-07-31T18:19:57Z</time>
      </trkpt>
      <trkpt lat="42.22151" lon="1.36546">
        <ele>1162.55</ele>
        <time>2021-07-31T18:20:01Z</time>
      </trkpt>
      <trkpt lat="42.22146" lon="1.36506">
        <ele>1159.27</ele>
        <time>2021-07-31T18:20:05Z</time>
      </trkpt>
      <trkpt lat="42.22142" lon="1.36437">
        <ele>1154.96</ele>
        <time>2021-07-31T18:20:11Z</time>
      </trkpt>
      <trkpt lat="42.22128" lon="1.36391">
        <ele>1151.38</ele>
        <time>2021-07-31T18:20:15Z</time>
      </trkpt>
      <trkpt lat="42.22125" lon="1.3638">
        <ele>1150.58</ele>
        <time>2021-07-31T18:20:16Z</time>
      </trkpt>
      <trkpt lat="42.22121" lon="1.36361">
        <ele>1149.04</ele>
        <time>2021-07-31T18:20:18Z</time>
      </trkpt>
      <trkpt lat="42.22102" lon="1.36335">
        <ele>1145.89</ele>
        <time>2021-07-31T18:20:22Z</time>
      </trkpt>
      <trkpt lat="42.22059" lon="1.36295">
        <ele>1141.88</ele>
        <time>2021-07-31T18:20:29Z</time>
      </trkpt>
      <trkpt lat="42.22037" lon="1.3627">
        <ele>1140.63</ele>
        <time>2021-07-31T18:20:32Z</time>
      </trkpt>
      <trkpt lat="42.21988" lon="1.36175">
        <ele>1137.03</ele>
        <time>2021-07-31T18:20:43Z</time>
      </trkpt>
      <trkpt lat="42.21971" lon="1.36159">
        <ele>1135.75</ele>
        <time>2021-07-31T18:20:52Z</time>
      </trkpt>
      <trkpt lat="42.21961" lon="1.3615">
        <ele>1134.81</ele>
        <time>2021-07-31T18:20:57Z</time>
      </trkpt>
      <trkpt lat="42.21948" lon="1.36136">
        <ele>1133.9</ele>
        <time>2021-07-31T18:21:00Z</time>
      </trkpt>
      <trkpt lat="42.21896" lon="1.36115">
        <ele>1130.53</ele>
        <time>2021-07-31T18:21:07Z</time>
      </trkpt>
      <trkpt lat="42.21887" lon="1.36111">
        <ele>1129.65</ele>
        <time>2021-07-31T18:21:08Z</time>
      </trkpt>
      <trkpt lat="42.21856" lon="1.36068">
        <ele>1125</ele>
        <time>2021-07-31T18:21:13Z</time>
      </trkpt>
      <trkpt lat="42.21853" lon="1.36045">
        <ele>1123.47</ele>
        <time>2021-07-31T18:21:15Z</time>
      </trkpt>
      <trkpt lat="42.21836" lon="1.35967">
        <ele>1119.01</ele>
        <time>2021-07-31T18:21:21Z</time>
      </trkpt>
      <trkpt lat="42.21834" lon="1.35916">
        <ele>1116.49</ele>
        <time>2021-07-31T18:21:25Z</time>
      </trkpt>
      <trkpt lat="42.21846" lon="1.35846">
        <ele>1112.27</ele>
        <time>2021-07-31T18:21:31Z</time>
      </trkpt>
      <trkpt lat="42.21849" lon="1.35805">
        <ele>1107.41</ele>
        <time>2021-07-31T18:21:36Z</time>
      </trkpt>
      <trkpt lat="42.21857" lon="1.35805">
        <ele>1103.88</ele>
        <time>2021-07-31T18:21:38Z</time>
      </trkpt>
      <trkpt lat="42.21865" lon="1.35817">
        <ele>1101.52</ele>
        <time>2021-07-31T18:21:40Z</time>
      </trkpt>
      <trkpt lat="42.21884" lon="1.35844">
        <ele>1097.21</ele>
        <time>2021-07-31T18:21:44Z</time>
      </trkpt>
      <trkpt lat="42.21891" lon="1.35854">
        <ele>1095.24</ele>
        <time>2021-07-31T18:21:46Z</time>
      </trkpt>
      <trkpt lat="42.21899" lon="1.35863">
        <ele>1093.26</ele>
        <time>2021-07-31T18:21:48Z</time>
      </trkpt>
      <trkpt lat="42.21916" lon="1.35856">
        <ele>1088.59</ele>
        <time>2021-07-31T18:21:53Z</time>
      </trkpt>
      <trkpt lat="42.21916" lon="1.35849">
        <ele>1087.79</ele>
        <time>2021-07-31T18:21:54Z</time>
      </trkpt>
      <trkpt lat="42.21913" lon="1.35819">
        <ele>1082.9</ele>
        <time>2021-07-31T18:21:59Z</time>
      </trkpt>
      <trkpt lat="42.21911" lon="1.35809">
        <ele>1080.91</ele>
        <time>2021-07-31T18:22:01Z</time>
      </trkpt>
      <trkpt lat="42.21903" lon="1.35785">
        <ele>1077.49</ele>
        <time>2021-07-31T18:22:05Z</time>
      </trkpt>
      <trkpt lat="42.21894" lon="1.35743">
        <ele>1073.63</ele>
        <time>2021-07-31T18:22:10Z</time>
      </trkpt>
      <trkpt lat="42.21891" lon="1.35736">
        <ele>1072.74</ele>
        <time>2021-07-31T18:22:11Z</time>
      </trkpt>
      <trkpt lat="42.21873" lon="1.35677">
        <ele>1068.02</ele>
        <time>2021-07-31T18:22:17Z</time>
      </trkpt>
      <trkpt lat="42.21863" lon="1.3564">
        <ele>1064.87</ele>
        <time>2021-07-31T18:22:20Z</time>
      </trkpt>
      <trkpt lat="42.21855" lon="1.35592">
        <ele>1061.18</ele>
        <time>2021-07-31T18:22:24Z</time>
      </trkpt>
      <trkpt lat="42.21853" lon="1.35566">
        <ele>1058.49</ele>
        <time>2021-07-31T18:22:27Z</time>
      </trkpt>
      <trkpt lat="42.21844" lon="1.3553">
        <ele>1055.9</ele>
        <time>2021-07-31T18:22:31Z</time>
      </trkpt>
      <trkpt lat="42.21815" lon="1.35451">
        <ele>1051.85</ele>
        <time>2021-07-31T18:22:38Z</time>
      </trkpt>
      <trkpt lat="42.21802" lon="1.35407">
        <ele>1048.18</ele>
        <time>2021-07-31T18:22:42Z</time>
      </trkpt>
      <trkpt lat="42.21791" lon="1.35367">
        <ele>1044.1</ele>
        <time>2021-07-31T18:22:46Z</time>
      </trkpt>
      <trkpt lat="42.21781" lon="1.35338">
        <ele>1040.75</ele>
        <time>2021-07-31T18:22:49Z</time>
      </trkpt>
      <trkpt lat="42.2177" lon="1.35308">
        <ele>1037.4</ele>
        <time>2021-07-31T18:22:52Z</time>
      </trkpt>
      <trkpt lat="42.21757" lon="1.35282">
        <ele>1034.17</ele>
        <time>2021-07-31T18:22:55Z</time>
      </trkpt>
      <trkpt lat="42.21748" lon="1.35264">
        <ele>1030.84</ele>
        <time>2021-07-31T18:22:58Z</time>
      </trkpt>
      <trkpt lat="42.21742" lon="1.35251">
        <ele>1028.6</ele>
        <time>2021-07-31T18:23:00Z</time>
      </trkpt>
      <trkpt lat="42.21737" lon="1.35236">
        <ele>1026.5</ele>
        <time>2021-07-31T18:23:02Z</time>
      </trkpt>
      <trkpt lat="42.21723" lon="1.35213">
        <ele>1022.53</ele>
        <time>2021-07-31T18:23:06Z</time>
      </trkpt>
      <trkpt lat="42.21706" lon="1.35194">
        <ele>1018.8</ele>
        <time>2021-07-31T18:23:11Z</time>
      </trkpt>
      <trkpt lat="42.2168" lon="1.35183">
        <ele>1015.1</ele>
        <time>2021-07-31T18:23:16Z</time>
      </trkpt>
      <trkpt lat="42.21662" lon="1.35175">
        <ele>1011.13</ele>
        <time>2021-07-31T18:23:20Z</time>
      </trkpt>
      <trkpt lat="42.21652" lon="1.3517">
        <ele>1009.47</ele>
        <time>2021-07-31T18:23:22Z</time>
      </trkpt>
      <trkpt lat="42.21637" lon="1.35158">
        <ele>1006.79</ele>
        <time>2021-07-31T18:23:25Z</time>
      </trkpt>
      <trkpt lat="42.21614" lon="1.35128">
        <ele>1002.48</ele>
        <time>2021-07-31T18:23:30Z</time>
      </trkpt>
      <trkpt lat="42.216" lon="1.35105">
        <ele>999.41</ele>
        <time>2021-07-31T18:23:33Z</time>
      </trkpt>
      <trkpt lat="42.21587" lon="1.35071">
        <ele>994.98</ele>
        <time>2021-07-31T18:23:37Z</time>
      </trkpt>
      <trkpt lat="42.21576" lon="1.3503">
        <ele>990.35</ele>
        <time>2021-07-31T18:23:42Z</time>
      </trkpt>
      <trkpt lat="42.21565" lon="1.35002">
        <ele>986.76</ele>
        <time>2021-07-31T18:23:46Z</time>
      </trkpt>
      <trkpt lat="42.21563" lon="1.34997">
        <ele>985.9</ele>
        <time>2021-07-31T18:23:47Z</time>
      </trkpt>
      <trkpt lat="42.21548" lon="1.34981">
        <ele>981.26</ele>
        <time>2021-07-31T18:23:52Z</time>
      </trkpt>
      <trkpt lat="42.21536" lon="1.34969">
        <ele>979.06</ele>
        <time>2021-07-31T18:23:55Z</time>
      </trkpt>
      <trkpt lat="42.2151" lon="1.34955">
        <ele>974.91</ele>
        <time>2021-07-31T18:24:00Z</time>
      </trkpt>
      <trkpt lat="42.21477" lon="1.34939">
        <ele>971.41</ele>
        <time>2021-07-31T18:24:05Z</time>
      </trkpt>
      <trkpt lat="42.2145" lon="1.34931">
        <ele>968.21</ele>
        <time>2021-07-31T18:24:09Z</time>
      </trkpt>
      <trkpt lat="42.21425" lon="1.34927">
        <ele>965.1</ele>
        <time>2021-07-31T18:24:13Z</time>
      </trkpt>
      <trkpt lat="42.21398" lon="1.3494">
        <ele>961.13</ele>
        <time>2021-07-31T18:24:18Z</time>
      </trkpt>
      <trkpt lat="42.21384" lon="1.34954">
        <ele>959</ele>
        <time>2021-07-31T18:24:21Z</time>
      </trkpt>
      <trkpt lat="42.21356" lon="1.34972">
        <ele>955.24</ele>
        <time>2021-07-31T18:24:26Z</time>
      </trkpt>
      <trkpt lat="42.21336" lon="1.34983">
        <ele>952.13</ele>
        <time>2021-07-31T18:24:30Z</time>
      </trkpt>
      <trkpt lat="42.21328" lon="1.34989">
        <ele>950.26</ele>
        <time>2021-07-31T18:24:33Z</time>
      </trkpt>
      <trkpt lat="42.21328" lon="1.34968">
        <ele>947.23</ele>
        <time>2021-07-31T18:24:38Z</time>
      </trkpt>
      <trkpt lat="42.21359" lon="1.34915">
        <ele>943.32</ele>
        <time>2021-07-31T18:24:45Z</time>
      </trkpt>
      <trkpt lat="42.21362" lon="1.34907">
        <ele>942.7</ele>
        <time>2021-07-31T18:24:46Z</time>
      </trkpt>
      <trkpt lat="42.21372" lon="1.34879">
        <ele>940.35</ele>
        <time>2021-07-31T18:24:50Z</time>
      </trkpt>
      <trkpt lat="42.21381" lon="1.34861">
        <ele>938.75</ele>
        <time>2021-07-31T18:24:53Z</time>
      </trkpt>
      <trkpt lat="42.21372" lon="1.34841">
        <ele>935.36</ele>
        <time>2021-07-31T18:25:00Z</time>
      </trkpt>
      <trkpt lat="42.21339" lon="1.3485">
        <ele>931.86</ele>
        <time>2021-07-31T18:25:06Z</time>
      </trkpt>
      <trkpt lat="42.2133" lon="1.34842">
        <ele>930.13</ele>
        <time>2021-07-31T18:25:08Z</time>
      </trkpt>
      <trkpt lat="42.21323" lon="1.34832">
        <ele>927.55</ele>
        <time>2021-07-31T18:25:11Z</time>
      </trkpt>
      <trkpt lat="42.21321" lon="1.34803">
        <ele>924.8</ele>
        <time>2021-07-31T18:25:15Z</time>
      </trkpt>
      <trkpt lat="42.21315" lon="1.34754">
        <ele>921.24</ele>
        <time>2021-07-31T18:25:21Z</time>
      </trkpt>
      <trkpt lat="42.21309" lon="1.34734">
        <ele>919.2</ele>
        <time>2021-07-31T18:25:24Z</time>
      </trkpt>
      <trkpt lat="42.21298" lon="1.3467">
        <ele>915.08</ele>
        <time>2021-07-31T18:25:31Z</time>
      </trkpt>
      <trkpt lat="42.21289" lon="1.34623">
        <ele>911.67</ele>
        <time>2021-07-31T18:25:37Z</time>
      </trkpt>
      <trkpt lat="42.21285" lon="1.34577">
        <ele>908.26</ele>
        <time>2021-07-31T18:25:42Z</time>
      </trkpt>
      <trkpt lat="42.21285" lon="1.3456">
        <ele>906.07</ele>
        <time>2021-07-31T18:25:45Z</time>
      </trkpt>
      <trkpt lat="42.21303" lon="1.34545">
        <ele>902.67</ele>
        <time>2021-07-31T18:25:50Z</time>
      </trkpt>
      <trkpt lat="42.21319" lon="1.34549">
        <ele>901.25</ele>
        <time>2021-07-31T18:25:52Z</time>
      </trkpt>
      <trkpt lat="42.21342" lon="1.34565">
        <ele>898.43</ele>
        <time>2021-07-31T18:25:56Z</time>
      </trkpt>
      <trkpt lat="42.2136" lon="1.34555">
        <ele>894.54</ele>
        <time>2021-07-31T18:26:02Z</time>
      </trkpt>
      <trkpt lat="42.21347" lon="1.34518">
        <ele>891.51</ele>
        <time>2021-07-31T18:26:07Z</time>
      </trkpt>
      <trkpt lat="42.21338" lon="1.34503">
        <ele>890.42</ele>
        <time>2021-07-31T18:26:09Z</time>
      </trkpt>
      <trkpt lat="42.21321" lon="1.34458">
        <ele>886.77</ele>
        <time>2021-07-31T18:26:16Z</time>
      </trkpt>
      <trkpt lat="42.21313" lon="1.34443">
        <ele>883.58</ele>
        <time>2021-07-31T18:26:22Z</time>
      </trkpt>
      <trkpt lat="42.21312" lon="1.3444">
        <ele>880.5</ele>
        <time>2021-07-31T18:26:35Z</time>
      </trkpt>
      <trkpt lat="42.21311" lon="1.3444">
        <ele>879.35</ele>
        <time>2021-07-31T18:30:00Z</time>
      </trkpt>
      <trkpt lat="42.21294" lon="1.34451">
        <ele>879.34</ele>
        <time>2021-07-31T18:30:06Z</time>
      </trkpt>
      <trkpt lat="42.2126" lon="1.34468">
        <ele>877.11</ele>
        <time>2021-07-31T18:30:13Z</time>
      </trkpt>
      <trkpt lat="42.21241" lon="1.34472">
        <ele>874.51</ele>
        <time>2021-07-31T18:30:17Z</time>
      </trkpt>
      <trkpt lat="42.21217" lon="1.34474">
        <ele>871.36</ele>
        <time>2021-07-31T18:30:22Z</time>
      </trkpt>
      <trkpt lat="42.21186" lon="1.34475">
        <ele>867.59</ele>
        <time>2021-07-31T18:30:27Z</time>
      </trkpt>
      <trkpt lat="42.2116" lon="1.34481">
        <ele>864.5</ele>
        <time>2021-07-31T18:30:31Z</time>
      </trkpt>
      <trkpt lat="42.21141" lon="1.34486">
        <ele>861.93</ele>
        <time>2021-07-31T18:30:34Z</time>
      </trkpt>
      <trkpt lat="42.21113" lon="1.345">
        <ele>857.37</ele>
        <time>2021-07-31T18:30:39Z</time>
      </trkpt>
      <trkpt lat="42.21085" lon="1.34508">
        <ele>853.74</ele>
        <time>2021-07-31T18:30:44Z</time>
      </trkpt>
      <trkpt lat="42.21061" lon="1.34516">
        <ele>850.22</ele>
        <time>2021-07-31T18:30:49Z</time>
      </trkpt>
      <trkpt lat="42.2104" lon="1.34526">
        <ele>847.17</ele>
        <time>2021-07-31T18:30:54Z</time>
      </trkpt>
      <trkpt lat="42.21014" lon="1.34537">
        <ele>844.02</ele>
        <time>2021-07-31T18:30:59Z</time>
      </trkpt>
      <trkpt lat="42.20996" lon="1.34543">
        <ele>842.49</ele>
        <time>2021-07-31T18:31:02Z</time>
      </trkpt>
      <trkpt lat="42.20984" lon="1.3455">
        <ele>841.09</ele>
        <time>2021-07-31T18:31:04Z</time>
      </trkpt>
      <trkpt lat="42.20956" lon="1.3455">
        <ele>837.32</ele>
        <time>2021-07-31T18:31:10Z</time>
      </trkpt>
      <trkpt lat="42.20943" lon="1.3455">
        <ele>834.56</ele>
        <time>2021-07-31T18:31:15Z</time>
      </trkpt>
      <trkpt lat="42.20892" lon="1.34543">
        <ele>830.85</ele>
        <time>2021-07-31T18:31:24Z</time>
      </trkpt>
      <trkpt lat="42.20856" lon="1.34545">
        <ele>827.53</ele>
        <time>2021-07-31T18:31:32Z</time>
      </trkpt>
      <trkpt lat="42.20832" lon="1.34545">
        <ele>824.38</ele>
        <time>2021-07-31T18:31:39Z</time>
      </trkpt>
      <trkpt lat="42.20786" lon="1.34542">
        <ele>821.26</ele>
        <time>2021-07-31T18:31:46Z</time>
      </trkpt>
      <trkpt lat="42.20778" lon="1.34542">
        <ele>820.71</ele>
        <time>2021-07-31T18:31:47Z</time>
      </trkpt>
      <trkpt lat="42.2075" lon="1.34547">
        <ele>818.18</ele>
        <time>2021-07-31T18:31:51Z</time>
      </trkpt>
      <trkpt lat="42.20741" lon="1.34522">
        <ele>813.8</ele>
        <time>2021-07-31T18:31:57Z</time>
      </trkpt>
      <trkpt lat="42.20749" lon="1.3451">
        <ele>812.44</ele>
        <time>2021-07-31T18:31:59Z</time>
      </trkpt>
      <trkpt lat="42.20758" lon="1.34497">
        <ele>811.19</ele>
        <time>2021-07-31T18:32:01Z</time>
      </trkpt>
      <trkpt lat="42.20767" lon="1.34474">
        <ele>809.2</ele>
        <time>2021-07-31T18:32:04Z</time>
      </trkpt>
      <trkpt lat="42.2077" lon="1.34462">
        <ele>807.71</ele>
        <time>2021-07-31T18:32:06Z</time>
      </trkpt>
      <trkpt lat="42.20779" lon="1.34439">
        <ele>805.85</ele>
        <time>2021-07-31T18:32:09Z</time>
      </trkpt>
      <trkpt lat="42.20785" lon="1.34414">
        <ele>803.81</ele>
        <time>2021-07-31T18:32:12Z</time>
      </trkpt>
      <trkpt lat="42.20809" lon="1.34374">
        <ele>799.59</ele>
        <time>2021-07-31T18:32:18Z</time>
      </trkpt>
      <trkpt lat="42.2082" lon="1.34365">
        <ele>797.98</ele>
        <time>2021-07-31T18:32:20Z</time>
      </trkpt>
      <trkpt lat="42.20855" lon="1.34354">
        <ele>794.1</ele>
        <time>2021-07-31T18:32:25Z</time>
      </trkpt>
      <trkpt lat="42.20884" lon="1.34348">
        <ele>790.7</ele>
        <time>2021-07-31T18:32:29Z</time>
      </trkpt>
      <trkpt lat="42.20897" lon="1.34344">
        <ele>789.32</ele>
        <time>2021-07-31T18:32:31Z</time>
      </trkpt>
      <trkpt lat="42.20926" lon="1.34321">
        <ele>785.59</ele>
        <time>2021-07-31T18:32:36Z</time>
      </trkpt>
      <trkpt lat="42.20932" lon="1.34306">
        <ele>782.41</ele>
        <time>2021-07-31T18:32:40Z</time>
      </trkpt>
      <trkpt lat="42.20922" lon="1.34289">
        <ele>779.73</ele>
        <time>2021-07-31T18:32:44Z</time>
      </trkpt>
      <trkpt lat="42.20871" lon="1.34232">
        <ele>775.69</ele>
        <time>2021-07-31T18:32:51Z</time>
      </trkpt>
      <trkpt lat="42.20836" lon="1.34191">
        <ele>771.25</ele>
        <time>2021-07-31T18:32:57Z</time>
      </trkpt>
      <trkpt lat="42.20803" lon="1.34185">
        <ele>766.37</ele>
        <time>2021-07-31T18:33:03Z</time>
      </trkpt>
      <trkpt lat="42.20795" lon="1.34194">
        <ele>765.53</ele>
        <time>2021-07-31T18:33:04Z</time>
      </trkpt>
      <trkpt lat="42.20781" lon="1.3421">
        <ele>764.05</ele>
        <time>2021-07-31T18:33:06Z</time>
      </trkpt>
      <trkpt lat="42.20734" lon="1.3422">
        <ele>759.91</ele>
        <time>2021-07-31T18:33:11Z</time>
      </trkpt>
      <trkpt lat="42.20703" lon="1.34195">
        <ele>756.51</ele>
        <time>2021-07-31T18:33:15Z</time>
      </trkpt>
      <trkpt lat="42.20693" lon="1.34175">
        <ele>754.79</ele>
        <time>2021-07-31T18:33:17Z</time>
      </trkpt>
      <trkpt lat="42.20684" lon="1.34162">
        <ele>752.51</ele>
        <time>2021-07-31T18:33:19Z</time>
      </trkpt>
      <trkpt lat="42.20678" lon="1.34158">
        <ele>751.61</ele>
        <time>2021-07-31T18:33:20Z</time>
      </trkpt>
      <trkpt lat="42.20671" lon="1.3416">
        <ele>750.73</ele>
        <time>2021-07-31T18:33:21Z</time>
      </trkpt>
      <trkpt lat="42.20663" lon="1.34166">
        <ele>749.94</ele>
        <time>2021-07-31T18:33:22Z</time>
      </trkpt>
      <trkpt lat="42.20654" lon="1.34176">
        <ele>749.11</ele>
        <time>2021-07-31T18:33:23Z</time>
      </trkpt>
      <trkpt lat="42.20638" lon="1.34202">
        <ele>747.48</ele>
        <time>2021-07-31T18:33:25Z</time>
      </trkpt>
      <trkpt lat="42.20605" lon="1.3425">
        <ele>743.6</ele>
        <time>2021-07-31T18:33:29Z</time>
      </trkpt>
      <trkpt lat="42.2059" lon="1.34267">
        <ele>740.9</ele>
        <time>2021-07-31T18:33:31Z</time>
      </trkpt>
      <trkpt lat="42.20582" lon="1.34272">
        <ele>739.5</ele>
        <time>2021-07-31T18:33:32Z</time>
      </trkpt>
      <trkpt lat="42.20561" lon="1.34276">
        <ele>736.74</ele>
        <time>2021-07-31T18:33:34Z</time>
      </trkpt>
      <trkpt lat="42.20508" lon="1.34275">
        <ele>730.86</ele>
        <time>2021-07-31T18:33:38Z</time>
      </trkpt>
      <trkpt lat="42.20484" lon="1.34273">
        <ele>727.72</ele>
        <time>2021-07-31T18:33:40Z</time>
      </trkpt>
      <trkpt lat="42.20472" lon="1.34271">
        <ele>726.11</ele>
        <time>2021-07-31T18:33:41Z</time>
      </trkpt>
      <trkpt lat="42.20452" lon="1.34264">
        <ele>722.7</ele>
        <time>2021-07-31T18:33:43Z</time>
      </trkpt>
      <trkpt lat="42.20432" lon="1.34264">
        <ele>717.61</ele>
        <time>2021-07-31T18:33:46Z</time>
      </trkpt>
      <trkpt lat="42.20422" lon="1.34264">
        <ele>714.35</ele>
        <time>2021-07-31T18:33:48Z</time>
      </trkpt>
      <trkpt lat="42.20417" lon="1.34241">
        <ele>710.12</ele>
        <time>2021-07-31T18:33:51Z</time>
      </trkpt>
      <trkpt lat="42.20426" lon="1.34211">
        <ele>706.79</ele>
        <time>2021-07-31T18:33:54Z</time>
      </trkpt>
      <trkpt lat="42.2043" lon="1.34203">
        <ele>705.69</ele>
        <time>2021-07-31T18:33:55Z</time>
      </trkpt>
      <trkpt lat="42.20432" lon="1.34197">
        <ele>704.65</ele>
        <time>2021-07-31T18:33:56Z</time>
      </trkpt>
      <trkpt lat="42.20431" lon="1.34191">
        <ele>703.62</ele>
        <time>2021-07-31T18:33:57Z</time>
      </trkpt>
      <trkpt lat="42.20423" lon="1.34187">
        <ele>701.6</ele>
        <time>2021-07-31T18:33:59Z</time>
      </trkpt>
      <trkpt lat="42.20417" lon="1.34188">
        <ele>700.66</ele>
        <time>2021-07-31T18:34:00Z</time>
      </trkpt>
      <trkpt lat="42.20411" lon="1.34191">
        <ele>699.79</ele>
        <time>2021-07-31T18:34:01Z</time>
      </trkpt>
      <trkpt lat="42.20405" lon="1.34196">
        <ele>698.99</ele>
        <time>2021-07-31T18:34:02Z</time>
      </trkpt>
      <trkpt lat="42.20395" lon="1.34213">
        <ele>697.38</ele>
        <time>2021-07-31T18:34:04Z</time>
      </trkpt>
      <trkpt lat="42.20385" lon="1.34232">
        <ele>695.5</ele>
        <time>2021-07-31T18:34:06Z</time>
      </trkpt>
      <trkpt lat="42.20358" lon="1.34258">
        <ele>691.46</ele>
        <time>2021-07-31T18:34:10Z</time>
      </trkpt>
      <trkpt lat="42.20345" lon="1.3427">
        <ele>689.67</ele>
        <time>2021-07-31T18:34:12Z</time>
      </trkpt>
      <trkpt lat="42.20315" lon="1.34279">
        <ele>686.12</ele>
        <time>2021-07-31T18:34:16Z</time>
      </trkpt>
      <trkpt lat="42.20293" lon="1.34297">
        <ele>681.15</ele>
        <time>2021-07-31T18:34:21Z</time>
      </trkpt>
      <trkpt lat="42.20286" lon="1.34307">
        <ele>678</ele>
        <time>2021-07-31T18:34:24Z</time>
      </trkpt>
      <trkpt lat="42.2028" lon="1.3431">
        <ele>675.06</ele>
        <time>2021-07-31T18:34:27Z</time>
      </trkpt>
      <trkpt lat="42.20272" lon="1.34268">
        <ele>670.6</ele>
        <time>2021-07-31T18:34:33Z</time>
      </trkpt>
      <trkpt lat="42.20292" lon="1.34231">
        <ele>667.56</ele>
        <time>2021-07-31T18:34:37Z</time>
      </trkpt>
      <trkpt lat="42.20307" lon="1.34211">
        <ele>665.67</ele>
        <time>2021-07-31T18:34:39Z</time>
      </trkpt>
      <trkpt lat="42.20317" lon="1.34167">
        <ele>660.99</ele>
        <time>2021-07-31T18:34:43Z</time>
      </trkpt>
      <trkpt lat="42.20317" lon="1.34149">
        <ele>658.25</ele>
        <time>2021-07-31T18:34:45Z</time>
      </trkpt>
      <trkpt lat="42.20311" lon="1.34118">
        <ele>651.66</ele>
        <time>2021-07-31T18:34:50Z</time>
      </trkpt>
      <trkpt lat="42.20305" lon="1.34103">
        <ele>648.53</ele>
        <time>2021-07-31T18:34:53Z</time>
      </trkpt>
      <trkpt lat="42.20298" lon="1.34097">
        <ele>644.77</ele>
        <time>2021-07-31T18:34:57Z</time>
      </trkpt>
      <trkpt lat="42.20293" lon="1.34085">
        <ele>641.6</ele>
        <time>2021-07-31T18:35:01Z</time>
      </trkpt>
      <trkpt lat="42.20292" lon="1.34075">
        <ele>640.63</ele>
        <time>2021-07-31T18:35:03Z</time>
      </trkpt>
      <trkpt lat="42.20297" lon="1.34063">
        <ele>639.35</ele>
        <time>2021-07-31T18:35:06Z</time>
      </trkpt>
      <trkpt lat="42.20311" lon="1.34039">
        <ele>638.35</ele>
        <time>2021-07-31T18:35:11Z</time>
      </trkpt>
      <trkpt lat="42.20316" lon="1.33995">
        <ele>636.03</ele>
        <time>2021-07-31T18:35:17Z</time>
      </trkpt>
      <trkpt lat="42.20342" lon="1.33945">
        <ele>632.86</ele>
        <time>2021-07-31T18:35:22Z</time>
      </trkpt>
      <trkpt lat="42.20382" lon="1.3391">
        <ele>628.73</ele>
        <time>2021-07-31T18:35:27Z</time>
      </trkpt>
      <trkpt lat="42.20396" lon="1.33899">
        <ele>627.28</ele>
        <time>2021-07-31T18:35:29Z</time>
      </trkpt>
      <trkpt lat="42.20404" lon="1.33882">
        <ele>623.37</ele>
        <time>2021-07-31T18:35:34Z</time>
      </trkpt>
      <trkpt lat="42.20404" lon="1.33872">
        <ele>621.61</ele>
        <time>2021-07-31T18:35:37Z</time>
      </trkpt>
      <trkpt lat="42.20427" lon="1.33805">
        <ele>619.72</ele>
        <time>2021-07-31T18:35:44Z</time>
      </trkpt>
      <trkpt lat="42.20438" lon="1.33748">
        <ele>619.11</ele>
        <time>2021-07-31T18:35:48Z</time>
      </trkpt>
      <trkpt lat="42.20437" lon="1.33627">
        <ele>616.81</ele>
        <time>2021-07-31T18:35:55Z</time>
      </trkpt>
      <trkpt lat="42.20473" lon="1.33506">
        <ele>612.85</ele>
        <time>2021-07-31T18:36:02Z</time>
      </trkpt>
      <trkpt lat="42.2048" lon="1.33492">
        <ele>612.14</ele>
        <time>2021-07-31T18:36:03Z</time>
      </trkpt>
      <trkpt lat="42.20489" lon="1.33479">
        <ele>611.44</ele>
        <time>2021-07-31T18:36:04Z</time>
      </trkpt>
      <trkpt lat="42.20522" lon="1.33433">
        <ele>608.09</ele>
        <time>2021-07-31T18:36:08Z</time>
      </trkpt>
      <trkpt lat="42.20553" lon="1.33402">
        <ele>605.58</ele>
        <time>2021-07-31T18:36:11Z</time>
      </trkpt>
      <trkpt lat="42.20616" lon="1.33373">
        <ele>601.19</ele>
        <time>2021-07-31T18:36:16Z</time>
      </trkpt>
      <trkpt lat="42.20668" lon="1.3335">
        <ele>597.63</ele>
        <time>2021-07-31T18:36:20Z</time>
      </trkpt>
      <trkpt lat="42.20712" lon="1.3334">
        <ele>594.59</ele>
        <time>2021-07-31T18:36:23Z</time>
      </trkpt>
      <trkpt lat="42.20776" lon="1.33358">
        <ele>589.53</ele>
        <time>2021-07-31T18:36:28Z</time>
      </trkpt>
      <trkpt lat="42.20826" lon="1.33369">
        <ele>584.3</ele>
        <time>2021-07-31T18:36:33Z</time>
      </trkpt>
      <trkpt lat="42.20874" lon="1.33355">
        <ele>580.54</ele>
        <time>2021-07-31T18:36:37Z</time>
      </trkpt>
      <trkpt lat="42.20923" lon="1.33367">
        <ele>575.74</ele>
        <time>2021-07-31T18:36:41Z</time>
      </trkpt>
      <trkpt lat="42.20933" lon="1.33374">
        <ele>574.75</ele>
        <time>2021-07-31T18:36:42Z</time>
      </trkpt>
      <trkpt lat="42.20997" lon="1.33377">
        <ele>569.25</ele>
        <time>2021-07-31T18:36:48Z</time>
      </trkpt>
      <trkpt lat="42.21046" lon="1.33388">
        <ele>565.7</ele>
        <time>2021-07-31T18:36:52Z</time>
      </trkpt>
      <trkpt lat="42.21083" lon="1.33415">
        <ele>562.78</ele>
        <time>2021-07-31T18:36:56Z</time>
      </trkpt>
      <trkpt lat="42.21109" lon="1.33399">
        <ele>559.42</ele>
        <time>2021-07-31T18:37:02Z</time>
      </trkpt>
      <trkpt lat="42.21144" lon="1.33278">
        <ele>557.12</ele>
        <time>2021-07-31T18:37:14Z</time>
      </trkpt>
      <trkpt lat="42.21169" lon="1.33159">
        <ele>554.46</ele>
        <time>2021-07-31T18:37:24Z</time>
      </trkpt>
      <trkpt lat="42.2119" lon="1.33112">
        <ele>554.46</ele>
        <time>2021-07-31T18:37:29Z</time>
      </trkpt>
      <trkpt lat="42.21199" lon="1.33036">
        <ele>556.9</ele>
        <time>2021-07-31T18:37:36Z</time>
      </trkpt>
      <trkpt lat="42.21186" lon="1.3301">
        <ele>558.24</ele>
        <time>2021-07-31T18:37:38Z</time>
      </trkpt>
      <trkpt lat="42.21155" lon="1.32957">
        <ele>562.16</ele>
        <time>2021-07-31T18:37:43Z</time>
      </trkpt>
      <trkpt lat="42.21133" lon="1.32925">
        <ele>565.33</ele>
        <time>2021-07-31T18:37:47Z</time>
      </trkpt>
      <trkpt lat="42.21128" lon="1.32917">
        <ele>565.98</ele>
        <time>2021-07-31T18:37:48Z</time>
      </trkpt>
      <trkpt lat="42.21103" lon="1.32896">
        <ele>568.39</ele>
        <time>2021-07-31T18:37:54Z</time>
      </trkpt>
      <trkpt lat="42.21108" lon="1.32889">
        <ele>570.49</ele>
        <time>2021-07-31T18:38:00Z</time>
      </trkpt>
      <trkpt lat="42.21144" lon="1.32899">
        <ele>574.02</ele>
        <time>2021-07-31T18:38:10Z</time>
      </trkpt>
      <trkpt lat="42.21141" lon="1.32915">
        <ele>575.28</ele>
        <time>2021-07-31T18:38:14Z</time>
      </trkpt>
      <trkpt lat="42.21144" lon="1.32892">
        <ele>576.29</ele>
        <time>2021-07-31T18:38:19Z</time>
      </trkpt>
      <trkpt lat="42.21151" lon="1.32827">
        <ele>578</ele>
        <time>2021-07-31T18:38:28Z</time>
      </trkpt>
      <trkpt lat="42.2115" lon="1.32819">
        <ele>578.26</ele>
        <time>2021-07-31T18:38:29Z</time>
      </trkpt>
      <trkpt lat="42.21147" lon="1.32811">
        <ele>578.55</ele>
        <time>2021-07-31T18:38:30Z</time>
      </trkpt>
      <trkpt lat="42.21144" lon="1.32803">
        <ele>578.81</ele>
        <time>2021-07-31T18:38:31Z</time>
      </trkpt>
      <trkpt lat="42.2113" lon="1.32787">
        <ele>579.32</ele>
        <time>2021-07-31T18:38:34Z</time>
      </trkpt>
      <trkpt lat="42.21063" lon="1.32725">
        <ele>579.5</ele>
        <time>2021-07-31T18:38:45Z</time>
      </trkpt>
      <trkpt lat="42.20999" lon="1.32637">
        <ele>578.1</ele>
        <time>2021-07-31T18:38:55Z</time>
      </trkpt>
      <trkpt lat="42.2093" lon="1.32612">
        <ele>577.83</ele>
        <time>2021-07-31T18:39:01Z</time>
      </trkpt>
      <trkpt lat="42.20905" lon="1.32624">
        <ele>577.99</ele>
        <time>2021-07-31T18:39:03Z</time>
      </trkpt>
      <trkpt lat="42.20814" lon="1.32684">
        <ele>578.44</ele>
        <time>2021-07-31T18:39:10Z</time>
      </trkpt>
      <trkpt lat="42.20731" lon="1.32691">
        <ele>576.68</ele>
        <time>2021-07-31T18:39:16Z</time>
      </trkpt>
      <trkpt lat="42.20678" lon="1.32716">
        <ele>574.96</ele>
        <time>2021-07-31T18:39:20Z</time>
      </trkpt>
      <trkpt lat="42.2064" lon="1.32753">
        <ele>573.54</ele>
        <time>2021-07-31T18:39:23Z</time>
      </trkpt>
      <trkpt lat="42.20546" lon="1.32784">
        <ele>570.03</ele>
        <time>2021-07-31T18:39:29Z</time>
      </trkpt>
      <trkpt lat="42.20401" lon="1.32763">
        <ele>566.18</ele>
        <time>2021-07-31T18:39:37Z</time>
      </trkpt>
      <trkpt lat="42.2023" lon="1.32741">
        <ele>563.1</ele>
        <time>2021-07-31T18:39:46Z</time>
      </trkpt>
      <trkpt lat="42.20028" lon="1.32724">
        <ele>559.88</ele>
        <time>2021-07-31T18:39:56Z</time>
      </trkpt>
      <trkpt lat="42.19902" lon="1.32728">
        <ele>557.55</ele>
        <time>2021-07-31T18:40:02Z</time>
      </trkpt>
      <trkpt lat="42.19696" lon="1.32791">
        <ele>554.49</ele>
        <time>2021-07-31T18:40:12Z</time>
      </trkpt>
      <trkpt lat="42.19493" lon="1.3292">
        <ele>554.14</ele>
        <time>2021-07-31T18:40:23Z</time>
      </trkpt>
      <trkpt lat="42.1933" lon="1.33029">
        <ele>556.4</ele>
        <time>2021-07-31T18:40:33Z</time>
      </trkpt>
      <trkpt lat="42.19284" lon="1.33056">
        <ele>557.45</ele>
        <time>2021-07-31T18:40:36Z</time>
      </trkpt>
      <trkpt lat="42.19189" lon="1.3305">
        <ele>558.81</ele>
        <time>2021-07-31T18:40:42Z</time>
      </trkpt>
      <trkpt lat="42.19157" lon="1.33028">
        <ele>559.23</ele>
        <time>2021-07-31T18:40:44Z</time>
      </trkpt>
      <trkpt lat="42.19112" lon="1.32996">
        <ele>560.27</ele>
        <time>2021-07-31T18:40:47Z</time>
      </trkpt>
      <trkpt lat="42.19023" lon="1.32994">
        <ele>562.12</ele>
        <time>2021-07-31T18:40:53Z</time>
      </trkpt>
      <trkpt lat="42.18982" lon="1.33028">
        <ele>562.41</ele>
        <time>2021-07-31T18:40:56Z</time>
      </trkpt>
      <trkpt lat="42.18919" lon="1.33102">
        <ele>561.81</ele>
        <time>2021-07-31T18:41:01Z</time>
      </trkpt>
      <trkpt lat="42.18827" lon="1.33133">
        <ele>558.91</ele>
        <time>2021-07-31T18:41:07Z</time>
      </trkpt>
      <trkpt lat="42.18796" lon="1.33125">
        <ele>557.91</ele>
        <time>2021-07-31T18:41:09Z</time>
      </trkpt>
      <trkpt lat="42.18686" lon="1.3308">
        <ele>555.97</ele>
        <time>2021-07-31T18:41:17Z</time>
      </trkpt>
      <trkpt lat="42.18568" lon="1.32982">
        <ele>555.14</ele>
        <time>2021-07-31T18:41:26Z</time>
      </trkpt>
      <trkpt lat="42.18438" lon="1.32833">
        <ele>554.54</ele>
        <time>2021-07-31T18:41:35Z</time>
      </trkpt>
      <trkpt lat="42.18281" lon="1.32692">
        <ele>554.66</ele>
        <time>2021-07-31T18:41:45Z</time>
      </trkpt>
      <trkpt lat="42.18206" lon="1.32614">
        <ele>554.4</ele>
        <time>2021-07-31T18:41:50Z</time>
      </trkpt>
      <trkpt lat="42.18115" lon="1.32421">
        <ele>553.51</ele>
        <time>2021-07-31T18:41:59Z</time>
      </trkpt>
      <trkpt lat="42.1807" lon="1.32218">
        <ele>552.98</ele>
        <time>2021-07-31T18:42:07Z</time>
      </trkpt>
      <trkpt lat="42.17987" lon="1.31932">
        <ele>553.21</ele>
        <time>2021-07-31T18:42:19Z</time>
      </trkpt>
      <trkpt lat="42.17896" lon="1.31703">
        <ele>552.29</ele>
        <time>2021-07-31T18:42:30Z</time>
      </trkpt>
      <trkpt lat="42.17811" lon="1.31651">
        <ele>550.74</ele>
        <time>2021-07-31T18:42:36Z</time>
      </trkpt>
      <trkpt lat="42.17748" lon="1.31666">
        <ele>550.44</ele>
        <time>2021-07-31T18:42:40Z</time>
      </trkpt>
      <trkpt lat="42.17601" lon="1.3175">
        <ele>550.85</ele>
        <time>2021-07-31T18:42:51Z</time>
      </trkpt>
      <trkpt lat="42.1759" lon="1.3176">
        <ele>550.85</ele>
        <time>2021-07-31T18:42:52Z</time>
      </trkpt>
      <trkpt lat="42.1756" lon="1.31818">
        <ele>550.77</ele>
        <time>2021-07-31T18:42:56Z</time>
      </trkpt>
      <trkpt lat="42.17544" lon="1.31938">
        <ele>550.65</ele>
        <time>2021-07-31T18:43:03Z</time>
      </trkpt>
      <trkpt lat="42.17493" lon="1.32029">
        <ele>549.91</ele>
        <time>2021-07-31T18:43:11Z</time>
      </trkpt>
      <trkpt lat="42.17469" lon="1.32039">
        <ele>549.87</ele>
        <time>2021-07-31T18:43:13Z</time>
      </trkpt>
      <trkpt lat="42.17332" lon="1.32067">
        <ele>551.05</ele>
        <time>2021-07-31T18:43:25Z</time>
      </trkpt>
      <trkpt lat="42.17314" lon="1.32069">
        <ele>551.17</ele>
        <time>2021-07-31T18:43:27Z</time>
      </trkpt>
      <trkpt lat="42.17288" lon="1.32063">
        <ele>551.42</ele>
        <time>2021-07-31T18:43:35Z</time>
      </trkpt>
      <trkpt lat="42.17286" lon="1.32062">
        <ele>551.49</ele>
        <time>2021-07-31T18:43:37Z</time>
      </trkpt>
      <trkpt lat="42.17257" lon="1.32052">
        <ele>552.34</ele>
        <time>2021-07-31T18:43:56Z</time>
      </trkpt>
      <trkpt lat="42.17248" lon="1.32047">
        <ele>552.29</ele>
        <time>2021-07-31T18:44:13Z</time>
      </trkpt>
      <trkpt lat="42.1724" lon="1.32038">
        <ele>552.36</ele>
        <time>2021-07-31T18:44:17Z</time>
      </trkpt>
      <trkpt lat="42.17239" lon="1.32006">
        <ele>552.9</ele>
        <time>2021-07-31T18:44:24Z</time>
      </trkpt>
      <trkpt lat="42.17278" lon="1.31938">
        <ele>555.32</ele>
        <time>2021-07-31T18:44:34Z</time>
      </trkpt>
      <trkpt lat="42.17309" lon="1.31888">
        <ele>558.53</ele>
        <time>2021-07-31T18:44:42Z</time>
      </trkpt>
      <trkpt lat="42.17312" lon="1.31885">
        <ele>558.89</ele>
        <time>2021-07-31T18:44:43Z</time>
      </trkpt>
      <trkpt lat="42.17312" lon="1.31878">
        <ele>560.03</ele>
        <time>2021-07-31T18:44:46Z</time>
      </trkpt>
      <trkpt lat="42.17311" lon="1.31888">
        <ele>561.37</ele>
        <time>2021-07-31T18:44:52Z</time>
      </trkpt>
      <trkpt lat="42.17292" lon="1.31909">
        <ele>561.82</ele>
        <time>2021-07-31T18:44:56Z</time>
      </trkpt>
      <trkpt lat="42.17231" lon="1.32011">
        <ele>558.69</ele>
        <time>2021-07-31T18:45:07Z</time>
      </trkpt>
      <trkpt lat="42.17227" lon="1.32018">
        <ele>555.82</ele>
        <time>2021-07-31T18:45:12Z</time>
      </trkpt>
      <trkpt lat="42.17227" lon="1.32019">
        <ele>552.77</ele>
        <time>2021-07-31T18:45:27Z</time>
      </trkpt>
      <trkpt lat="42.17228" lon="1.32022">
        <ele>552.67</ele>
        <time>2021-07-31T18:45:30Z</time>
      </trkpt>
      <trkpt lat="42.17231" lon="1.32025">
        <ele>552.62</ele>
        <time>2021-07-31T18:45:31Z</time>
      </trkpt>
      <trkpt lat="42.17242" lon="1.32036">
        <ele>552.52</ele>
        <time>2021-07-31T18:45:34Z</time>
      </trkpt>
      <trkpt lat="42.17272" lon="1.32058">
        <ele>552.15</ele>
        <time>2021-07-31T18:45:40Z</time>
      </trkpt>
      <trkpt lat="42.17289" lon="1.3205">
        <ele>551.45</ele>
        <time>2021-07-31T18:45:46Z</time>
      </trkpt>
      <trkpt lat="42.17269" lon="1.32047">
        <ele>551.42</ele>
        <time>2021-07-31T18:45:55Z</time>
      </trkpt>
      <trkpt lat="42.17243" lon="1.32042">
        <ele>551.48</ele>
        <time>2021-07-31T18:46:07Z</time>
      </trkpt>
      <trkpt lat="42.1724" lon="1.32039">
        <ele>551.49</ele>
        <time>2021-07-31T18:46:13Z</time>
      </trkpt>
      <trkpt lat="42.17224" lon="1.3202">
        <ele>551.61</ele>
        <time>2021-07-31T18:46:24Z</time>
      </trkpt>
      <trkpt lat="42.17222" lon="1.3202">
        <ele>551.63</ele>
        <time>2021-07-31T18:46:35Z</time>
      </trkpt>
      <trkpt lat="42.17225" lon="1.32028">
        <ele>551.49</ele>
        <time>2021-07-31T18:46:38Z</time>
      </trkpt>
      <trkpt lat="42.17242" lon="1.32038">
        <ele>551.25</ele>
        <time>2021-07-31T18:46:43Z</time>
      </trkpt>
      <trkpt lat="42.17242" lon="1.32038">
        <ele>551.13</ele>
        <time>2021-07-31T18:46:59Z</time>
      </trkpt>
      <trkpt lat="42.17242" lon="1.32038">
        <ele>551.09</ele>
        <time>2021-07-31T18:47:01Z</time>
      </trkpt>
    </trkseg>
  </trk>
  <trk>
    <name><![CDATA[J3]]></name>
    <extensions>
      <line xmlns="http://www.topografix.com/GPX/gpx_style/0/2">
        <color>0000FF</color>
        <width>4</width>
      </line>
    </extensions>
    <trkseg>
      <trkpt lat="42.17243" lon="1.32037">
        <ele>494.56</ele>
        <time>2021-08-01T06:53:25Z</time>
      </trkpt>
      <trkpt lat="42.17243" lon="1.32037">
        <ele>494.26</ele>
        <time>2021-08-01T06:53:26Z</time>
      </trkpt>
      <trkpt lat="42.17243" lon="1.32037">
        <ele>494.07</ele>
        <time>2021-08-01T06:53:27Z</time>
      </trkpt>
      <trkpt lat="42.17243" lon="1.32037">
        <ele>493.79</ele>
        <time>2021-08-01T06:53:28Z</time>
      </trkpt>
      <trkpt lat="42.17243" lon="1.32037">
        <ele>493.53</ele>
        <time>2021-08-01T06:53:29Z</time>
      </trkpt>
      <trkpt lat="42.17243" lon="1.32037">
        <ele>493.49</ele>
        <time>2021-08-01T06:53:30Z</time>
      </trkpt>
      <trkpt lat="42.17243" lon="1.32037">
        <ele>493.52</ele>
        <time>2021-08-01T06:53:31Z</time>
      </trkpt>
      <trkpt lat="42.17262" lon="1.31978">
        <ele>489.37</ele>
        <time>2021-08-01T08:56:44Z</time>
      </trkpt>
      <trkpt lat="42.1725" lon="1.32022">
        <ele>489.37</ele>
        <time>2021-08-01T08:57:32Z</time>
      </trkpt>
      <trkpt lat="42.17249" lon="1.32022">
        <ele>489.37</ele>
        <time>2021-08-01T08:58:13Z</time>
      </trkpt>
      <trkpt lat="42.17243" lon="1.32029">
        <ele>489.22</ele>
        <time>2021-08-01T08:58:27Z</time>
      </trkpt>
      <trkpt lat="42.17239" lon="1.31994">
        <ele>488.19</ele>
        <time>2021-08-01T08:58:34Z</time>
      </trkpt>
      <trkpt lat="42.17242" lon="1.31989">
        <ele>488.25</ele>
        <time>2021-08-01T08:58:35Z</time>
      </trkpt>
      <trkpt lat="42.17291" lon="1.31899">
        <ele>491.9</ele>
        <time>2021-08-01T08:58:45Z</time>
      </trkpt>
      <trkpt lat="42.17319" lon="1.31852">
        <ele>494.98</ele>
        <time>2021-08-01T08:58:50Z</time>
      </trkpt>
      <trkpt lat="42.17332" lon="1.31829">
        <ele>496.71</ele>
        <time>2021-08-01T08:58:53Z</time>
      </trkpt>
      <trkpt lat="42.17341" lon="1.31776">
        <ele>499.97</ele>
        <time>2021-08-01T08:58:59Z</time>
      </trkpt>
      <trkpt lat="42.1733" lon="1.31712">
        <ele>503.63</ele>
        <time>2021-08-01T08:59:06Z</time>
      </trkpt>
      <trkpt lat="42.17323" lon="1.31659">
        <ele>507.03</ele>
        <time>2021-08-01T08:59:13Z</time>
      </trkpt>
      <trkpt lat="42.1732" lon="1.31645">
        <ele>507.86</ele>
        <time>2021-08-01T08:59:15Z</time>
      </trkpt>
      <trkpt lat="42.17279" lon="1.31554">
        <ele>509.86</ele>
        <time>2021-08-01T08:59:27Z</time>
      </trkpt>
      <trkpt lat="42.17237" lon="1.31439">
        <ele>508.87</ele>
        <time>2021-08-01T08:59:39Z</time>
      </trkpt>
      <trkpt lat="42.17197" lon="1.31348">
        <ele>509.32</ele>
        <time>2021-08-01T08:59:49Z</time>
      </trkpt>
      <trkpt lat="42.17193" lon="1.3134">
        <ele>509.72</ele>
        <time>2021-08-01T08:59:54Z</time>
      </trkpt>
      <trkpt lat="42.17192" lon="1.31337">
        <ele>509.77</ele>
        <time>2021-08-01T08:59:56Z</time>
      </trkpt>
      <trkpt lat="42.1721" lon="1.31319">
        <ele>510.24</ele>
        <time>2021-08-01T09:00:02Z</time>
      </trkpt>
      <trkpt lat="42.1727" lon="1.31302">
        <ele>514</ele>
        <time>2021-08-01T09:00:11Z</time>
      </trkpt>
      <trkpt lat="42.17303" lon="1.31296">
        <ele>517.81</ele>
        <time>2021-08-01T09:00:16Z</time>
      </trkpt>
      <trkpt lat="42.17308" lon="1.31296">
        <ele>517.81</ele>
        <time>2021-08-01T09:00:17Z</time>
      </trkpt>
      <trkpt lat="42.17332" lon="1.31296">
        <ele>521.39</ele>
        <time>2021-08-01T09:00:21Z</time>
      </trkpt>
      <trkpt lat="42.17337" lon="1.31296">
        <ele>522.02</ele>
        <time>2021-08-01T09:00:22Z</time>
      </trkpt>
      <trkpt lat="42.1736" lon="1.31285">
        <ele>525.61</ele>
        <time>2021-08-01T09:00:28Z</time>
      </trkpt>
      <trkpt lat="42.17372" lon="1.31267">
        <ele>528.18</ele>
        <time>2021-08-01T09:00:32Z</time>
      </trkpt>
      <trkpt lat="42.17377" lon="1.31266">
        <ele>528.8</ele>
        <time>2021-08-01T09:00:33Z</time>
      </trkpt>
      <trkpt lat="42.17398" lon="1.31268">
        <ele>532.93</ele>
        <time>2021-08-01T09:00:39Z</time>
      </trkpt>
      <trkpt lat="42.174" lon="1.31273">
        <ele>533.63</ele>
        <time>2021-08-01T09:00:40Z</time>
      </trkpt>
      <trkpt lat="42.17403" lon="1.31279">
        <ele>534.32</ele>
        <time>2021-08-01T09:00:41Z</time>
      </trkpt>
      <trkpt lat="42.17406" lon="1.31285">
        <ele>534.96</ele>
        <time>2021-08-01T09:00:42Z</time>
      </trkpt>
      <trkpt lat="42.17409" lon="1.31291">
        <ele>535.49</ele>
        <time>2021-08-01T09:00:43Z</time>
      </trkpt>
      <trkpt lat="42.17439" lon="1.31336">
        <ele>539.02</ele>
        <time>2021-08-01T09:00:51Z</time>
      </trkpt>
      <trkpt lat="42.17469" lon="1.31373">
        <ele>541.74</ele>
        <time>2021-08-01T09:00:58Z</time>
      </trkpt>
      <trkpt lat="42.17523" lon="1.31418">
        <ele>545.38</ele>
        <time>2021-08-01T09:01:08Z</time>
      </trkpt>
      <trkpt lat="42.17556" lon="1.31451">
        <ele>548.9</ele>
        <time>2021-08-01T09:01:14Z</time>
      </trkpt>
      <trkpt lat="42.1758" lon="1.31468">
        <ele>551.62</ele>
        <time>2021-08-01T09:01:18Z</time>
      </trkpt>
      <trkpt lat="42.17585" lon="1.3147">
        <ele>552.37</ele>
        <time>2021-08-01T09:01:19Z</time>
      </trkpt>
      <trkpt lat="42.17603" lon="1.3146">
        <ele>555.45</ele>
        <time>2021-08-01T09:01:23Z</time>
      </trkpt>
      <trkpt lat="42.17602" lon="1.31454">
        <ele>556.18</ele>
        <time>2021-08-01T09:01:24Z</time>
      </trkpt>
      <trkpt lat="42.17599" lon="1.31449">
        <ele>557.01</ele>
        <time>2021-08-01T09:01:25Z</time>
      </trkpt>
      <trkpt lat="42.17578" lon="1.31423">
        <ele>562.1</ele>
        <time>2021-08-01T09:01:31Z</time>
      </trkpt>
      <trkpt lat="42.17555" lon="1.31398">
        <ele>565.73</ele>
        <time>2021-08-01T09:01:41Z</time>
      </trkpt>
      <trkpt lat="42.1755" lon="1.31389">
        <ele>566.64</ele>
        <time>2021-08-01T09:01:50Z</time>
      </trkpt>
      <trkpt lat="42.17541" lon="1.31377">
        <ele>566.66</ele>
        <time>2021-08-01T09:02:04Z</time>
      </trkpt>
      <trkpt lat="42.17538" lon="1.31367">
        <ele>566.61</ele>
        <time>2021-08-01T09:02:09Z</time>
      </trkpt>
      <trkpt lat="42.17503" lon="1.31293">
        <ele>566.74</ele>
        <time>2021-08-01T09:02:21Z</time>
      </trkpt>
      <trkpt lat="42.17495" lon="1.31233">
        <ele>567.93</ele>
        <time>2021-08-01T09:02:29Z</time>
      </trkpt>
      <trkpt lat="42.17501" lon="1.31207">
        <ele>569.05</ele>
        <time>2021-08-01T09:02:32Z</time>
      </trkpt>
      <trkpt lat="42.1751" lon="1.31149">
        <ele>573</ele>
        <time>2021-08-01T09:02:38Z</time>
      </trkpt>
      <trkpt lat="42.1751" lon="1.31109">
        <ele>576.88</ele>
        <time>2021-08-01T09:02:42Z</time>
      </trkpt>
      <trkpt lat="42.17505" lon="1.31085">
        <ele>579.53</ele>
        <time>2021-08-01T09:02:45Z</time>
      </trkpt>
      <trkpt lat="42.17513" lon="1.3104">
        <ele>583.61</ele>
        <time>2021-08-01T09:02:51Z</time>
      </trkpt>
      <trkpt lat="42.17529" lon="1.30996">
        <ele>587.39</ele>
        <time>2021-08-01T09:02:58Z</time>
      </trkpt>
      <trkpt lat="42.17542" lon="1.30946">
        <ele>590.63</ele>
        <time>2021-08-01T09:03:08Z</time>
      </trkpt>
      <trkpt lat="42.17553" lon="1.30882">
        <ele>593.53</ele>
        <time>2021-08-01T09:03:20Z</time>
      </trkpt>
      <trkpt lat="42.17566" lon="1.30813">
        <ele>596.61</ele>
        <time>2021-08-01T09:03:32Z</time>
      </trkpt>
      <trkpt lat="42.17573" lon="1.30774">
        <ele>599.23</ele>
        <time>2021-08-01T09:03:38Z</time>
      </trkpt>
      <trkpt lat="42.17583" lon="1.3075">
        <ele>600.97</ele>
        <time>2021-08-01T09:03:44Z</time>
      </trkpt>
      <trkpt lat="42.17591" lon="1.30742">
        <ele>601.22</ele>
        <time>2021-08-01T09:03:46Z</time>
      </trkpt>
      <trkpt lat="42.17634" lon="1.30669">
        <ele>600.4</ele>
        <time>2021-08-01T09:04:00Z</time>
      </trkpt>
      <trkpt lat="42.17673" lon="1.30612">
        <ele>602.95</ele>
        <time>2021-08-01T09:04:14Z</time>
      </trkpt>
      <trkpt lat="42.17691" lon="1.30586">
        <ele>606.06</ele>
        <time>2021-08-01T09:04:21Z</time>
      </trkpt>
      <trkpt lat="42.17705" lon="1.30572">
        <ele>609.37</ele>
        <time>2021-08-01T09:04:28Z</time>
      </trkpt>
      <trkpt lat="42.17723" lon="1.30552">
        <ele>611.56</ele>
        <time>2021-08-01T09:04:38Z</time>
      </trkpt>
      <trkpt lat="42.17725" lon="1.30544">
        <ele>612.78</ele>
        <time>2021-08-01T09:04:47Z</time>
      </trkpt>
      <trkpt lat="42.17725" lon="1.30544">
        <ele>615.79</ele>
        <time>2021-08-01T09:06:04Z</time>
      </trkpt>
      <trkpt lat="42.1773" lon="1.30512">
        <ele>616.62</ele>
        <time>2021-08-01T09:06:23Z</time>
      </trkpt>
      <trkpt lat="42.17731" lon="1.30496">
        <ele>616.76</ele>
        <time>2021-08-01T09:06:26Z</time>
      </trkpt>
      <trkpt lat="42.17733" lon="1.3049">
        <ele>616.8</ele>
        <time>2021-08-01T09:06:27Z</time>
      </trkpt>
      <trkpt lat="42.17749" lon="1.30436">
        <ele>618.27</ele>
        <time>2021-08-01T09:06:37Z</time>
      </trkpt>
      <trkpt lat="42.17765" lon="1.30413">
        <ele>619.04</ele>
        <time>2021-08-01T09:06:42Z</time>
      </trkpt>
      <trkpt lat="42.17792" lon="1.30345">
        <ele>619.31</ele>
        <time>2021-08-01T09:06:53Z</time>
      </trkpt>
      <trkpt lat="42.1781" lon="1.30314">
        <ele>619.17</ele>
        <time>2021-08-01T09:07:00Z</time>
      </trkpt>
      <trkpt lat="42.17832" lon="1.30287">
        <ele>619.01</ele>
        <time>2021-08-01T09:07:08Z</time>
      </trkpt>
      <trkpt lat="42.17854" lon="1.30247">
        <ele>620.22</ele>
        <time>2021-08-01T09:07:17Z</time>
      </trkpt>
      <trkpt lat="42.17859" lon="1.30209">
        <ele>621.91</ele>
        <time>2021-08-01T09:07:23Z</time>
      </trkpt>
      <trkpt lat="42.17855" lon="1.30178">
        <ele>624.06</ele>
        <time>2021-08-01T09:07:27Z</time>
      </trkpt>
      <trkpt lat="42.17857" lon="1.30136">
        <ele>628.05</ele>
        <time>2021-08-01T09:07:32Z</time>
      </trkpt>
      <trkpt lat="42.17862" lon="1.30101">
        <ele>631.55</ele>
        <time>2021-08-01T09:07:36Z</time>
      </trkpt>
      <trkpt lat="42.17869" lon="1.30078">
        <ele>634.02</ele>
        <time>2021-08-01T09:07:39Z</time>
      </trkpt>
      <trkpt lat="42.17875" lon="1.30037">
        <ele>638.52</ele>
        <time>2021-08-01T09:07:44Z</time>
      </trkpt>
      <trkpt lat="42.17877" lon="1.30011">
        <ele>641.42</ele>
        <time>2021-08-01T09:07:47Z</time>
      </trkpt>
      <trkpt lat="42.17893" lon="1.29979">
        <ele>645.43</ele>
        <time>2021-08-01T09:07:52Z</time>
      </trkpt>
      <trkpt lat="42.1788" lon="1.29942">
        <ele>649.07</ele>
        <time>2021-08-01T09:07:57Z</time>
      </trkpt>
      <trkpt lat="42.17876" lon="1.29917">
        <ele>651.1</ele>
        <time>2021-08-01T09:08:00Z</time>
      </trkpt>
      <trkpt lat="42.17875" lon="1.29878">
        <ele>654.18</ele>
        <time>2021-08-01T09:08:05Z</time>
      </trkpt>
      <trkpt lat="42.17858" lon="1.29829">
        <ele>657.99</ele>
        <time>2021-08-01T09:08:12Z</time>
      </trkpt>
      <trkpt lat="42.17851" lon="1.29809">
        <ele>659.74</ele>
        <time>2021-08-01T09:08:15Z</time>
      </trkpt>
      <trkpt lat="42.17849" lon="1.29774">
        <ele>663.47</ele>
        <time>2021-08-01T09:08:21Z</time>
      </trkpt>
      <trkpt lat="42.17845" lon="1.29754">
        <ele>665.3</ele>
        <time>2021-08-01T09:08:24Z</time>
      </trkpt>
      <trkpt lat="42.17847" lon="1.2971">
        <ele>669.82</ele>
        <time>2021-08-01T09:08:30Z</time>
      </trkpt>
      <trkpt lat="42.17853" lon="1.29683">
        <ele>673.07</ele>
        <time>2021-08-01T09:08:34Z</time>
      </trkpt>
      <trkpt lat="42.17853" lon="1.29676">
        <ele>674.76</ele>
        <time>2021-08-01T09:08:35Z</time>
      </trkpt>
      <trkpt lat="42.17854" lon="1.2966">
        <ele>676.33</ele>
        <time>2021-08-01T09:08:37Z</time>
      </trkpt>
      <trkpt lat="42.1787" lon="1.29638">
        <ele>680.32</ele>
        <time>2021-08-01T09:08:42Z</time>
      </trkpt>
      <trkpt lat="42.17879" lon="1.29611">
        <ele>684.26</ele>
        <time>2021-08-01T09:08:48Z</time>
      </trkpt>
      <trkpt lat="42.17873" lon="1.29599">
        <ele>685.56</ele>
        <time>2021-08-01T09:08:50Z</time>
      </trkpt>
      <trkpt lat="42.1786" lon="1.29573">
        <ele>689.62</ele>
        <time>2021-08-01T09:08:56Z</time>
      </trkpt>
      <trkpt lat="42.17884" lon="1.29582">
        <ele>693</ele>
        <time>2021-08-01T09:09:02Z</time>
      </trkpt>
      <trkpt lat="42.17907" lon="1.29594">
        <ele>696.08</ele>
        <time>2021-08-01T09:09:07Z</time>
      </trkpt>
      <trkpt lat="42.17916" lon="1.29591">
        <ele>697.15</ele>
        <time>2021-08-01T09:09:09Z</time>
      </trkpt>
      <trkpt lat="42.17927" lon="1.29585">
        <ele>698.43</ele>
        <time>2021-08-01T09:09:11Z</time>
      </trkpt>
      <trkpt lat="42.17958" lon="1.29582">
        <ele>701.98</ele>
        <time>2021-08-01T09:09:16Z</time>
      </trkpt>
      <trkpt lat="42.17978" lon="1.29582">
        <ele>705.92</ele>
        <time>2021-08-01T09:09:22Z</time>
      </trkpt>
      <trkpt lat="42.17966" lon="1.29568">
        <ele>708.96</ele>
        <time>2021-08-01T09:09:27Z</time>
      </trkpt>
      <trkpt lat="42.17924" lon="1.29558">
        <ele>713.49</ele>
        <time>2021-08-01T09:09:35Z</time>
      </trkpt>
      <trkpt lat="42.17919" lon="1.29557">
        <ele>714.02</ele>
        <time>2021-08-01T09:09:36Z</time>
      </trkpt>
      <trkpt lat="42.17895" lon="1.2952">
        <ele>717.84</ele>
        <time>2021-08-01T09:09:43Z</time>
      </trkpt>
      <trkpt lat="42.17891" lon="1.29505">
        <ele>719.04</ele>
        <time>2021-08-01T09:09:45Z</time>
      </trkpt>
      <trkpt lat="42.17888" lon="1.29473">
        <ele>722.87</ele>
        <time>2021-08-01T09:09:51Z</time>
      </trkpt>
      <trkpt lat="42.17873" lon="1.29424">
        <ele>727.59</ele>
        <time>2021-08-01T09:09:59Z</time>
      </trkpt>
      <trkpt lat="42.1786" lon="1.29409">
        <ele>729.39</ele>
        <time>2021-08-01T09:10:02Z</time>
      </trkpt>
      <trkpt lat="42.17832" lon="1.29376">
        <ele>733.14</ele>
        <time>2021-08-01T09:10:08Z</time>
      </trkpt>
      <trkpt lat="42.17821" lon="1.29345">
        <ele>737.18</ele>
        <time>2021-08-01T09:10:13Z</time>
      </trkpt>
      <trkpt lat="42.17821" lon="1.29334">
        <ele>738.49</ele>
        <time>2021-08-01T09:10:15Z</time>
      </trkpt>
      <trkpt lat="42.1782" lon="1.2932">
        <ele>740.64</ele>
        <time>2021-08-01T09:10:18Z</time>
      </trkpt>
      <trkpt lat="42.17829" lon="1.29284">
        <ele>743.73</ele>
        <time>2021-08-01T09:10:24Z</time>
      </trkpt>
      <trkpt lat="42.1785" lon="1.29265">
        <ele>745.62</ele>
        <time>2021-08-01T09:10:29Z</time>
      </trkpt>
      <trkpt lat="42.17873" lon="1.29253">
        <ele>747</ele>
        <time>2021-08-01T09:10:34Z</time>
      </trkpt>
      <trkpt lat="42.1788" lon="1.29222">
        <ele>748.23</ele>
        <time>2021-08-01T09:10:39Z</time>
      </trkpt>
      <trkpt lat="42.17876" lon="1.29206">
        <ele>748.48</ele>
        <time>2021-08-01T09:10:41Z</time>
      </trkpt>
      <trkpt lat="42.17878" lon="1.29182">
        <ele>749.26</ele>
        <time>2021-08-01T09:10:45Z</time>
      </trkpt>
      <trkpt lat="42.17884" lon="1.29152">
        <ele>750.76</ele>
        <time>2021-08-01T09:10:50Z</time>
      </trkpt>
      <trkpt lat="42.17902" lon="1.2912">
        <ele>752.81</ele>
        <time>2021-08-01T09:10:56Z</time>
      </trkpt>
      <trkpt lat="42.17916" lon="1.291">
        <ele>754.42</ele>
        <time>2021-08-01T09:11:00Z</time>
      </trkpt>
      <trkpt lat="42.17949" lon="1.29062">
        <ele>757.31</ele>
        <time>2021-08-01T09:11:10Z</time>
      </trkpt>
      <trkpt lat="42.17959" lon="1.29035">
        <ele>758.96</ele>
        <time>2021-08-01T09:11:15Z</time>
      </trkpt>
      <trkpt lat="42.17969" lon="1.29022">
        <ele>760.26</ele>
        <time>2021-08-01T09:11:18Z</time>
      </trkpt>
      <trkpt lat="42.17983" lon="1.2898">
        <ele>763.23</ele>
        <time>2021-08-01T09:11:26Z</time>
      </trkpt>
      <trkpt lat="42.17991" lon="1.28899">
        <ele>766.75</ele>
        <time>2021-08-01T09:11:38Z</time>
      </trkpt>
      <trkpt lat="42.17992" lon="1.2887">
        <ele>768.38</ele>
        <time>2021-08-01T09:11:47Z</time>
      </trkpt>
      <trkpt lat="42.18008" lon="1.2885">
        <ele>769.86</ele>
        <time>2021-08-01T09:11:58Z</time>
      </trkpt>
      <trkpt lat="42.18039" lon="1.28841">
        <ele>771.68</ele>
        <time>2021-08-01T09:12:07Z</time>
      </trkpt>
      <trkpt lat="42.18078" lon="1.28815">
        <ele>775.07</ele>
        <time>2021-08-01T09:12:17Z</time>
      </trkpt>
      <trkpt lat="42.18093" lon="1.28787">
        <ele>777.69</ele>
        <time>2021-08-01T09:12:24Z</time>
      </trkpt>
      <trkpt lat="42.18099" lon="1.28774">
        <ele>778.56</ele>
        <time>2021-08-01T09:12:26Z</time>
      </trkpt>
      <trkpt lat="42.18103" lon="1.28701">
        <ele>782.4</ele>
        <time>2021-08-01T09:12:34Z</time>
      </trkpt>
      <trkpt lat="42.18108" lon="1.28668">
        <ele>784.55</ele>
        <time>2021-08-01T09:12:38Z</time>
      </trkpt>
      <trkpt lat="42.18123" lon="1.28626">
        <ele>788.48</ele>
        <time>2021-08-01T09:12:45Z</time>
      </trkpt>
      <trkpt lat="42.18144" lon="1.28592">
        <ele>792.12</ele>
        <time>2021-08-01T09:12:53Z</time>
      </trkpt>
      <trkpt lat="42.1816" lon="1.28561">
        <ele>795.17</ele>
        <time>2021-08-01T09:12:59Z</time>
      </trkpt>
      <trkpt lat="42.18174" lon="1.2854">
        <ele>798.21</ele>
        <time>2021-08-01T09:13:06Z</time>
      </trkpt>
      <trkpt lat="42.18179" lon="1.28534">
        <ele>798.95</ele>
        <time>2021-08-01T09:13:08Z</time>
      </trkpt>
      <trkpt lat="42.18207" lon="1.28509">
        <ele>802.4</ele>
        <time>2021-08-01T09:13:19Z</time>
      </trkpt>
      <trkpt lat="42.18234" lon="1.28483">
        <ele>805.45</ele>
        <time>2021-08-01T09:13:31Z</time>
      </trkpt>
      <trkpt lat="42.1824" lon="1.28476">
        <ele>806.2</ele>
        <time>2021-08-01T09:13:33Z</time>
      </trkpt>
      <trkpt lat="42.18268" lon="1.28455">
        <ele>809.88</ele>
        <time>2021-08-01T09:13:43Z</time>
      </trkpt>
      <trkpt lat="42.18294" lon="1.28435">
        <ele>812.89</ele>
        <time>2021-08-01T09:13:52Z</time>
      </trkpt>
      <trkpt lat="42.18329" lon="1.28417">
        <ele>816.17</ele>
        <time>2021-08-01T09:14:01Z</time>
      </trkpt>
      <trkpt lat="42.1835" lon="1.28404">
        <ele>819.34</ele>
        <time>2021-08-01T09:14:07Z</time>
      </trkpt>
      <trkpt lat="42.18372" lon="1.28385">
        <ele>822.35</ele>
        <time>2021-08-01T09:14:13Z</time>
      </trkpt>
      <trkpt lat="42.18396" lon="1.28369">
        <ele>824.88</ele>
        <time>2021-08-01T09:14:18Z</time>
      </trkpt>
      <trkpt lat="42.18428" lon="1.28361">
        <ele>828.67</ele>
        <time>2021-08-01T09:14:24Z</time>
      </trkpt>
      <trkpt lat="42.18432" lon="1.2836">
        <ele>829.34</ele>
        <time>2021-08-01T09:14:25Z</time>
      </trkpt>
      <trkpt lat="42.18448" lon="1.28339">
        <ele>833.46</ele>
        <time>2021-08-01T09:14:31Z</time>
      </trkpt>
      <trkpt lat="42.18447" lon="1.28333">
        <ele>833.99</ele>
        <time>2021-08-01T09:14:32Z</time>
      </trkpt>
      <trkpt lat="42.18462" lon="1.28312">
        <ele>838.1</ele>
        <time>2021-08-01T09:14:39Z</time>
      </trkpt>
      <trkpt lat="42.18467" lon="1.28322">
        <ele>839.31</ele>
        <time>2021-08-01T09:14:41Z</time>
      </trkpt>
      <trkpt lat="42.18477" lon="1.28355">
        <ele>843.39</ele>
        <time>2021-08-01T09:14:48Z</time>
      </trkpt>
      <trkpt lat="42.18493" lon="1.28374">
        <ele>846.14</ele>
        <time>2021-08-01T09:14:54Z</time>
      </trkpt>
      <trkpt lat="42.18497" lon="1.28357">
        <ele>848.03</ele>
        <time>2021-08-01T09:14:58Z</time>
      </trkpt>
      <trkpt lat="42.18488" lon="1.28325">
        <ele>851.58</ele>
        <time>2021-08-01T09:15:05Z</time>
      </trkpt>
      <trkpt lat="42.18486" lon="1.28325">
        <ele>854.7</ele>
        <time>2021-08-01T09:15:14Z</time>
      </trkpt>
      <trkpt lat="42.18486" lon="1.28318">
        <ele>855.98</ele>
        <time>2021-08-01T09:16:13Z</time>
      </trkpt>
      <trkpt lat="42.18483" lon="1.28274">
        <ele>857.78</ele>
        <time>2021-08-01T09:16:21Z</time>
      </trkpt>
      <trkpt lat="42.18499" lon="1.28301">
        <ele>861.15</ele>
        <time>2021-08-01T09:16:26Z</time>
      </trkpt>
      <trkpt lat="42.18523" lon="1.28352">
        <ele>865.06</ele>
        <time>2021-08-01T09:16:33Z</time>
      </trkpt>
      <trkpt lat="42.18546" lon="1.28385">
        <ele>868.14</ele>
        <time>2021-08-01T09:16:39Z</time>
      </trkpt>
      <trkpt lat="42.18569" lon="1.28411">
        <ele>871.37</ele>
        <time>2021-08-01T09:16:45Z</time>
      </trkpt>
      <trkpt lat="42.18602" lon="1.28438">
        <ele>874.81</ele>
        <time>2021-08-01T09:16:51Z</time>
      </trkpt>
      <trkpt lat="42.18617" lon="1.28463">
        <ele>878.09</ele>
        <time>2021-08-01T09:16:57Z</time>
      </trkpt>
      <trkpt lat="42.18648" lon="1.28484">
        <ele>881.66</ele>
        <time>2021-08-01T09:17:03Z</time>
      </trkpt>
      <trkpt lat="42.18682" lon="1.28479">
        <ele>885.42</ele>
        <time>2021-08-01T09:17:08Z</time>
      </trkpt>
      <trkpt lat="42.18702" lon="1.28465">
        <ele>888</ele>
        <time>2021-08-01T09:17:11Z</time>
      </trkpt>
      <trkpt lat="42.18728" lon="1.28453">
        <ele>891.83</ele>
        <time>2021-08-01T09:17:16Z</time>
      </trkpt>
      <trkpt lat="42.18746" lon="1.28425">
        <ele>895.6</ele>
        <time>2021-08-01T09:17:21Z</time>
      </trkpt>
      <trkpt lat="42.18726" lon="1.28409">
        <ele>899.09</ele>
        <time>2021-08-01T09:17:26Z</time>
      </trkpt>
      <trkpt lat="42.1871" lon="1.28396">
        <ele>902.2</ele>
        <time>2021-08-01T09:17:30Z</time>
      </trkpt>
      <trkpt lat="42.18722" lon="1.28383">
        <ele>905.19</ele>
        <time>2021-08-01T09:17:34Z</time>
      </trkpt>
      <trkpt lat="42.18748" lon="1.28368">
        <ele>908.15</ele>
        <time>2021-08-01T09:17:39Z</time>
      </trkpt>
      <trkpt lat="42.18767" lon="1.2835">
        <ele>910</ele>
        <time>2021-08-01T09:17:42Z</time>
      </trkpt>
      <trkpt lat="42.18795" lon="1.28336">
        <ele>913.72</ele>
        <time>2021-08-01T09:17:47Z</time>
      </trkpt>
      <trkpt lat="42.18819" lon="1.28329">
        <ele>917.34</ele>
        <time>2021-08-01T09:17:52Z</time>
      </trkpt>
      <trkpt lat="42.18834" lon="1.28331">
        <ele>919.54</ele>
        <time>2021-08-01T09:17:55Z</time>
      </trkpt>
      <trkpt lat="42.18851" lon="1.28302">
        <ele>923.43</ele>
        <time>2021-08-01T09:18:01Z</time>
      </trkpt>
      <trkpt lat="42.18865" lon="1.28286">
        <ele>927.04</ele>
        <time>2021-08-01T09:18:06Z</time>
      </trkpt>
      <trkpt lat="42.18875" lon="1.28285">
        <ele>928.38</ele>
        <time>2021-08-01T09:18:08Z</time>
      </trkpt>
      <trkpt lat="42.18932" lon="1.28266">
        <ele>932.98</ele>
        <time>2021-08-01T09:18:16Z</time>
      </trkpt>
      <trkpt lat="42.18959" lon="1.28257">
        <ele>936.45</ele>
        <time>2021-08-01T09:18:21Z</time>
      </trkpt>
      <trkpt lat="42.18986" lon="1.28248">
        <ele>939.71</ele>
        <time>2021-08-01T09:18:29Z</time>
      </trkpt>
      <trkpt lat="42.19029" lon="1.28226">
        <ele>942.96</ele>
        <time>2021-08-01T09:18:36Z</time>
      </trkpt>
      <trkpt lat="42.19035" lon="1.28221">
        <ele>943.56</ele>
        <time>2021-08-01T09:18:37Z</time>
      </trkpt>
      <trkpt lat="42.19062" lon="1.28209">
        <ele>945.97</ele>
        <time>2021-08-01T09:18:41Z</time>
      </trkpt>
      <trkpt lat="42.19103" lon="1.28186">
        <ele>949.54</ele>
        <time>2021-08-01T09:18:47Z</time>
      </trkpt>
      <trkpt lat="42.19142" lon="1.28182">
        <ele>953.42</ele>
        <time>2021-08-01T09:18:53Z</time>
      </trkpt>
      <trkpt lat="42.19178" lon="1.2818">
        <ele>956.85</ele>
        <time>2021-08-01T09:18:59Z</time>
      </trkpt>
      <trkpt lat="42.19213" lon="1.28182">
        <ele>960.01</ele>
        <time>2021-08-01T09:19:05Z</time>
      </trkpt>
      <trkpt lat="42.1924" lon="1.28184">
        <ele>962.3</ele>
        <time>2021-08-01T09:19:10Z</time>
      </trkpt>
      <trkpt lat="42.19258" lon="1.28193">
        <ele>964.09</ele>
        <time>2021-08-01T09:19:14Z</time>
      </trkpt>
      <trkpt lat="42.19292" lon="1.28161">
        <ele>967.66</ele>
        <time>2021-08-01T09:19:22Z</time>
      </trkpt>
      <trkpt lat="42.19295" lon="1.28147">
        <ele>968.71</ele>
        <time>2021-08-01T09:19:24Z</time>
      </trkpt>
      <trkpt lat="42.19298" lon="1.28117">
        <ele>970.8</ele>
        <time>2021-08-01T09:19:28Z</time>
      </trkpt>
      <trkpt lat="42.1931" lon="1.28083">
        <ele>973.59</ele>
        <time>2021-08-01T09:19:34Z</time>
      </trkpt>
      <trkpt lat="42.19314" lon="1.28056">
        <ele>975.23</ele>
        <time>2021-08-01T09:19:38Z</time>
      </trkpt>
      <trkpt lat="42.19311" lon="1.27974">
        <ele>978.72</ele>
        <time>2021-08-01T09:19:49Z</time>
      </trkpt>
      <trkpt lat="42.19306" lon="1.27915">
        <ele>981.72</ele>
        <time>2021-08-01T09:19:58Z</time>
      </trkpt>
      <trkpt lat="42.19314" lon="1.27881">
        <ele>985.15</ele>
        <time>2021-08-01T09:20:06Z</time>
      </trkpt>
      <trkpt lat="42.19316" lon="1.27875">
        <ele>986.13</ele>
        <time>2021-08-01T09:20:08Z</time>
      </trkpt>
      <trkpt lat="42.19317" lon="1.27864">
        <ele>986.88</ele>
        <time>2021-08-01T09:20:10Z</time>
      </trkpt>
      <trkpt lat="42.19313" lon="1.27838">
        <ele>988.19</ele>
        <time>2021-08-01T09:20:14Z</time>
      </trkpt>
      <trkpt lat="42.19297" lon="1.27751">
        <ele>989.93</ele>
        <time>2021-08-01T09:20:28Z</time>
      </trkpt>
      <trkpt lat="42.19296" lon="1.27733">
        <ele>990.45</ele>
        <time>2021-08-01T09:20:30Z</time>
      </trkpt>
      <trkpt lat="42.19277" lon="1.27642">
        <ele>992.65</ele>
        <time>2021-08-01T09:20:42Z</time>
      </trkpt>
      <trkpt lat="42.1928" lon="1.27614">
        <ele>993.72</ele>
        <time>2021-08-01T09:20:46Z</time>
      </trkpt>
      <trkpt lat="42.19277" lon="1.27521">
        <ele>996.63</ele>
        <time>2021-08-01T09:20:58Z</time>
      </trkpt>
      <trkpt lat="42.19277" lon="1.27515">
        <ele>996.87</ele>
        <time>2021-08-01T09:20:59Z</time>
      </trkpt>
      <trkpt lat="42.19282" lon="1.2748">
        <ele>997.98</ele>
        <time>2021-08-01T09:21:04Z</time>
      </trkpt>
      <trkpt lat="42.19282" lon="1.27445">
        <ele>999.28</ele>
        <time>2021-08-01T09:21:09Z</time>
      </trkpt>
      <trkpt lat="42.19275" lon="1.27392">
        <ele>1001.34</ele>
        <time>2021-08-01T09:21:16Z</time>
      </trkpt>
      <trkpt lat="42.19266" lon="1.2737">
        <ele>1002.09</ele>
        <time>2021-08-01T09:21:19Z</time>
      </trkpt>
      <trkpt lat="42.19261" lon="1.2729">
        <ele>1004.29</ele>
        <time>2021-08-01T09:21:28Z</time>
      </trkpt>
      <trkpt lat="42.19266" lon="1.27234">
        <ele>1005.77</ele>
        <time>2021-08-01T09:21:34Z</time>
      </trkpt>
      <trkpt lat="42.19284" lon="1.27169">
        <ele>1008.88</ele>
        <time>2021-08-01T09:21:47Z</time>
      </trkpt>
      <trkpt lat="42.19274" lon="1.27125">
        <ele>1010.59</ele>
        <time>2021-08-01T09:21:57Z</time>
      </trkpt>
      <trkpt lat="42.19269" lon="1.27112">
        <ele>1010.72</ele>
        <time>2021-08-01T09:21:59Z</time>
      </trkpt>
      <trkpt lat="42.19266" lon="1.27074">
        <ele>1010.33</ele>
        <time>2021-08-01T09:22:04Z</time>
      </trkpt>
      <trkpt lat="42.19266" lon="1.2699">
        <ele>1007.13</ele>
        <time>2021-08-01T09:22:13Z</time>
      </trkpt>
      <trkpt lat="42.1927" lon="1.26945">
        <ele>1004.82</ele>
        <time>2021-08-01T09:22:18Z</time>
      </trkpt>
      <trkpt lat="42.1926" lon="1.26895">
        <ele>1000.94</ele>
        <time>2021-08-01T09:22:24Z</time>
      </trkpt>
      <trkpt lat="42.1925" lon="1.26867">
        <ele>998.51</ele>
        <time>2021-08-01T09:22:28Z</time>
      </trkpt>
      <trkpt lat="42.19253" lon="1.26823">
        <ele>996.05</ele>
        <time>2021-08-01T09:22:33Z</time>
      </trkpt>
      <trkpt lat="42.19279" lon="1.26767">
        <ele>992.78</ele>
        <time>2021-08-01T09:22:44Z</time>
      </trkpt>
      <trkpt lat="42.19284" lon="1.26761">
        <ele>992.54</ele>
        <time>2021-08-01T09:22:46Z</time>
      </trkpt>
      <trkpt lat="42.1929" lon="1.26734">
        <ele>991.66</ele>
        <time>2021-08-01T09:22:51Z</time>
      </trkpt>
      <trkpt lat="42.1929" lon="1.26654">
        <ele>988.31</ele>
        <time>2021-08-01T09:23:03Z</time>
      </trkpt>
      <trkpt lat="42.19292" lon="1.26587">
        <ele>985.13</ele>
        <time>2021-08-01T09:23:12Z</time>
      </trkpt>
      <trkpt lat="42.193" lon="1.26521">
        <ele>981.92</ele>
        <time>2021-08-01T09:23:21Z</time>
      </trkpt>
      <trkpt lat="42.19307" lon="1.26465">
        <ele>978.52</ele>
        <time>2021-08-01T09:23:28Z</time>
      </trkpt>
      <trkpt lat="42.19314" lon="1.26406">
        <ele>975.18</ele>
        <time>2021-08-01T09:23:35Z</time>
      </trkpt>
      <trkpt lat="42.19327" lon="1.26343">
        <ele>971.4</ele>
        <time>2021-08-01T09:23:42Z</time>
      </trkpt>
      <trkpt lat="42.19332" lon="1.26326">
        <ele>970.48</ele>
        <time>2021-08-01T09:23:44Z</time>
      </trkpt>
      <trkpt lat="42.19332" lon="1.26249">
        <ele>967.87</ele>
        <time>2021-08-01T09:23:54Z</time>
      </trkpt>
      <trkpt lat="42.19333" lon="1.26242">
        <ele>967.77</ele>
        <time>2021-08-01T09:23:55Z</time>
      </trkpt>
      <trkpt lat="42.19347" lon="1.26208">
        <ele>967.39</ele>
        <time>2021-08-01T09:24:00Z</time>
      </trkpt>
      <trkpt lat="42.19391" lon="1.26147">
        <ele>965.5</ele>
        <time>2021-08-01T09:24:10Z</time>
      </trkpt>
      <trkpt lat="42.19398" lon="1.26068">
        <ele>962.47</ele>
        <time>2021-08-01T09:24:19Z</time>
      </trkpt>
      <trkpt lat="42.19391" lon="1.26052">
        <ele>961.97</ele>
        <time>2021-08-01T09:24:21Z</time>
      </trkpt>
      <trkpt lat="42.1938" lon="1.26026">
        <ele>961.07</ele>
        <time>2021-08-01T09:24:25Z</time>
      </trkpt>
      <trkpt lat="42.19377" lon="1.25995">
        <ele>961.02</ele>
        <time>2021-08-01T09:24:29Z</time>
      </trkpt>
      <trkpt lat="42.1937" lon="1.25949">
        <ele>962.05</ele>
        <time>2021-08-01T09:24:35Z</time>
      </trkpt>
      <trkpt lat="42.19368" lon="1.25923">
        <ele>962.67</ele>
        <time>2021-08-01T09:24:38Z</time>
      </trkpt>
      <trkpt lat="42.19352" lon="1.25859">
        <ele>965.75</ele>
        <time>2021-08-01T09:24:48Z</time>
      </trkpt>
      <trkpt lat="42.19336" lon="1.25801">
        <ele>968.67</ele>
        <time>2021-08-01T09:25:00Z</time>
      </trkpt>
      <trkpt lat="42.19331" lon="1.25766">
        <ele>970.92</ele>
        <time>2021-08-01T09:25:06Z</time>
      </trkpt>
      <trkpt lat="42.19322" lon="1.25746">
        <ele>972.64</ele>
        <time>2021-08-01T09:25:10Z</time>
      </trkpt>
      <trkpt lat="42.19312" lon="1.25719">
        <ele>974.38</ele>
        <time>2021-08-01T09:25:15Z</time>
      </trkpt>
      <trkpt lat="42.19313" lon="1.25657">
        <ele>977.68</ele>
        <time>2021-08-01T09:25:24Z</time>
      </trkpt>
      <trkpt lat="42.1931" lon="1.25622">
        <ele>979.45</ele>
        <time>2021-08-01T09:25:30Z</time>
      </trkpt>
      <trkpt lat="42.1932" lon="1.2559">
        <ele>980.76</ele>
        <time>2021-08-01T09:25:36Z</time>
      </trkpt>
      <trkpt lat="42.19333" lon="1.25535">
        <ele>984.02</ele>
        <time>2021-08-01T09:25:47Z</time>
      </trkpt>
      <trkpt lat="42.19332" lon="1.25509">
        <ele>985.23</ele>
        <time>2021-08-01T09:25:51Z</time>
      </trkpt>
      <trkpt lat="42.19323" lon="1.25483">
        <ele>986.59</ele>
        <time>2021-08-01T09:25:56Z</time>
      </trkpt>
      <trkpt lat="42.19328" lon="1.25448">
        <ele>988.98</ele>
        <time>2021-08-01T09:26:04Z</time>
      </trkpt>
      <trkpt lat="42.1934" lon="1.25443">
        <ele>992.29</ele>
        <time>2021-08-01T09:26:16Z</time>
      </trkpt>
      <trkpt lat="42.19362" lon="1.25434">
        <ele>995.01</ele>
        <time>2021-08-01T09:28:26Z</time>
      </trkpt>
      <trkpt lat="42.19389" lon="1.25422">
        <ele>998.16</ele>
        <time>2021-08-01T09:28:38Z</time>
      </trkpt>
      <trkpt lat="42.19428" lon="1.25408">
        <ele>1001.12</ele>
        <time>2021-08-01T09:28:49Z</time>
      </trkpt>
      <trkpt lat="42.19442" lon="1.25407">
        <ele>1001.98</ele>
        <time>2021-08-01T09:28:52Z</time>
      </trkpt>
      <trkpt lat="42.19464" lon="1.25396">
        <ele>1003.12</ele>
        <time>2021-08-01T09:28:57Z</time>
      </trkpt>
      <trkpt lat="42.19474" lon="1.25387">
        <ele>1003.81</ele>
        <time>2021-08-01T09:28:59Z</time>
      </trkpt>
      <trkpt lat="42.1949" lon="1.2538">
        <ele>1004.68</ele>
        <time>2021-08-01T09:29:02Z</time>
      </trkpt>
      <trkpt lat="42.19504" lon="1.25369">
        <ele>1005.42</ele>
        <time>2021-08-01T09:29:05Z</time>
      </trkpt>
      <trkpt lat="42.19521" lon="1.2536">
        <ele>1006.63</ele>
        <time>2021-08-01T09:29:09Z</time>
      </trkpt>
      <trkpt lat="42.19554" lon="1.25344">
        <ele>1010.08</ele>
        <time>2021-08-01T09:29:17Z</time>
      </trkpt>
      <trkpt lat="42.19572" lon="1.25338">
        <ele>1012.99</ele>
        <time>2021-08-01T09:29:24Z</time>
      </trkpt>
      <trkpt lat="42.19572" lon="1.25365">
        <ele>1015.35</ele>
        <time>2021-08-01T09:29:29Z</time>
      </trkpt>
      <trkpt lat="42.19553" lon="1.25391">
        <ele>1019.31</ele>
        <time>2021-08-01T09:29:36Z</time>
      </trkpt>
      <trkpt lat="42.19549" lon="1.25395">
        <ele>1022.16</ele>
        <time>2021-08-01T09:29:50Z</time>
      </trkpt>
      <trkpt lat="42.19532" lon="1.25414">
        <ele>1023.83</ele>
        <time>2021-08-01T09:30:24Z</time>
      </trkpt>
      <trkpt lat="42.19512" lon="1.25455">
        <ele>1026.84</ele>
        <time>2021-08-01T09:30:37Z</time>
      </trkpt>
      <trkpt lat="42.19513" lon="1.25457">
        <ele>1027.04</ele>
        <time>2021-08-01T09:30:38Z</time>
      </trkpt>
      <trkpt lat="42.19535" lon="1.25439">
        <ele>1029.35</ele>
        <time>2021-08-01T09:30:46Z</time>
      </trkpt>
      <trkpt lat="42.19554" lon="1.25434">
        <ele>1030.31</ele>
        <time>2021-08-01T09:30:49Z</time>
      </trkpt>
      <trkpt lat="42.19575" lon="1.2543">
        <ele>1031.56</ele>
        <time>2021-08-01T09:30:52Z</time>
      </trkpt>
      <trkpt lat="42.19609" lon="1.25413">
        <ele>1035.44</ele>
        <time>2021-08-01T09:30:59Z</time>
      </trkpt>
      <trkpt lat="42.19633" lon="1.254">
        <ele>1039.74</ele>
        <time>2021-08-01T09:31:07Z</time>
      </trkpt>
      <trkpt lat="42.19631" lon="1.25401">
        <ele>1042.77</ele>
        <time>2021-08-01T09:31:26Z</time>
      </trkpt>
      <trkpt lat="42.19654" lon="1.25386">
        <ele>1043.64</ele>
        <time>2021-08-01T09:31:51Z</time>
      </trkpt>
      <trkpt lat="42.19686" lon="1.25376">
        <ele>1046.66</ele>
        <time>2021-08-01T09:32:00Z</time>
      </trkpt>
      <trkpt lat="42.19716" lon="1.25381">
        <ele>1049.84</ele>
        <time>2021-08-01T09:32:09Z</time>
      </trkpt>
      <trkpt lat="42.19731" lon="1.25379">
        <ele>1051.08</ele>
        <time>2021-08-01T09:32:13Z</time>
      </trkpt>
      <trkpt lat="42.19759" lon="1.25353">
        <ele>1054.36</ele>
        <time>2021-08-01T09:32:22Z</time>
      </trkpt>
      <trkpt lat="42.19783" lon="1.25343">
        <ele>1057.46</ele>
        <time>2021-08-01T09:32:29Z</time>
      </trkpt>
      <trkpt lat="42.19818" lon="1.25322">
        <ele>1060.7</ele>
        <time>2021-08-01T09:32:38Z</time>
      </trkpt>
      <trkpt lat="42.19822" lon="1.25319">
        <ele>1060.99</ele>
        <time>2021-08-01T09:32:39Z</time>
      </trkpt>
      <trkpt lat="42.19838" lon="1.25312">
        <ele>1061.57</ele>
        <time>2021-08-01T09:32:42Z</time>
      </trkpt>
      <trkpt lat="42.19858" lon="1.25291">
        <ele>1061.87</ele>
        <time>2021-08-01T09:32:46Z</time>
      </trkpt>
      <trkpt lat="42.19869" lon="1.25279">
        <ele>1061.89</ele>
        <time>2021-08-01T09:32:49Z</time>
      </trkpt>
      <trkpt lat="42.19907" lon="1.25257">
        <ele>1062.61</ele>
        <time>2021-08-01T09:33:00Z</time>
      </trkpt>
      <trkpt lat="42.19927" lon="1.25247">
        <ele>1063.17</ele>
        <time>2021-08-01T09:33:06Z</time>
      </trkpt>
      <trkpt lat="42.19933" lon="1.25246">
        <ele>1063.21</ele>
        <time>2021-08-01T09:33:07Z</time>
      </trkpt>
      <trkpt lat="42.19956" lon="1.25256">
        <ele>1063.64</ele>
        <time>2021-08-01T09:33:11Z</time>
      </trkpt>
      <trkpt lat="42.19978" lon="1.25267">
        <ele>1066.31</ele>
        <time>2021-08-01T09:33:21Z</time>
      </trkpt>
      <trkpt lat="42.20003" lon="1.25248">
        <ele>1069.51</ele>
        <time>2021-08-01T09:33:31Z</time>
      </trkpt>
      <trkpt lat="42.20037" lon="1.25253">
        <ele>1072.54</ele>
        <time>2021-08-01T09:33:39Z</time>
      </trkpt>
      <trkpt lat="42.20059" lon="1.25253">
        <ele>1074.27</ele>
        <time>2021-08-01T09:33:43Z</time>
      </trkpt>
      <trkpt lat="42.20081" lon="1.25257">
        <ele>1075.7</ele>
        <time>2021-08-01T09:33:46Z</time>
      </trkpt>
      <trkpt lat="42.20096" lon="1.25258">
        <ele>1076.96</ele>
        <time>2021-08-01T09:33:48Z</time>
      </trkpt>
      <trkpt lat="42.20109" lon="1.2526">
        <ele>1078.43</ele>
        <time>2021-08-01T09:33:50Z</time>
      </trkpt>
      <trkpt lat="42.20115" lon="1.25263">
        <ele>1079.14</ele>
        <time>2021-08-01T09:33:51Z</time>
      </trkpt>
      <trkpt lat="42.20139" lon="1.25278">
        <ele>1082.55</ele>
        <time>2021-08-01T09:33:56Z</time>
      </trkpt>
      <trkpt lat="42.2016" lon="1.25293">
        <ele>1085.17</ele>
        <time>2021-08-01T09:34:00Z</time>
      </trkpt>
      <trkpt lat="42.2018" lon="1.2531">
        <ele>1088.11</ele>
        <time>2021-08-01T09:34:04Z</time>
      </trkpt>
      <trkpt lat="42.20186" lon="1.25313">
        <ele>1088.71</ele>
        <time>2021-08-01T09:34:05Z</time>
      </trkpt>
      <trkpt lat="42.20191" lon="1.25315">
        <ele>1089.29</ele>
        <time>2021-08-01T09:34:06Z</time>
      </trkpt>
      <trkpt lat="42.20196" lon="1.25316">
        <ele>1089.85</ele>
        <time>2021-08-01T09:34:07Z</time>
      </trkpt>
      <trkpt lat="42.202" lon="1.25317">
        <ele>1090.35</ele>
        <time>2021-08-01T09:34:08Z</time>
      </trkpt>
      <trkpt lat="42.20204" lon="1.25318">
        <ele>1090.89</ele>
        <time>2021-08-01T09:34:09Z</time>
      </trkpt>
      <trkpt lat="42.20225" lon="1.25326">
        <ele>1094.36</ele>
        <time>2021-08-01T09:34:16Z</time>
      </trkpt>
      <trkpt lat="42.20258" lon="1.25337">
        <ele>1097.44</ele>
        <time>2021-08-01T09:34:23Z</time>
      </trkpt>
      <trkpt lat="42.20277" lon="1.25339">
        <ele>1098.91</ele>
        <time>2021-08-01T09:34:26Z</time>
      </trkpt>
      <trkpt lat="42.20318" lon="1.25325">
        <ele>1102.91</ele>
        <time>2021-08-01T09:34:33Z</time>
      </trkpt>
      <trkpt lat="42.20347" lon="1.25319">
        <ele>1106.24</ele>
        <time>2021-08-01T09:34:38Z</time>
      </trkpt>
      <trkpt lat="42.20377" lon="1.25319">
        <ele>1109.56</ele>
        <time>2021-08-01T09:34:44Z</time>
      </trkpt>
      <trkpt lat="42.20393" lon="1.25329">
        <ele>1111.86</ele>
        <time>2021-08-01T09:34:48Z</time>
      </trkpt>
      <trkpt lat="42.20414" lon="1.25334">
        <ele>1114.36</ele>
        <time>2021-08-01T09:34:53Z</time>
      </trkpt>
      <trkpt lat="42.20449" lon="1.25335">
        <ele>1118.51</ele>
        <time>2021-08-01T09:35:00Z</time>
      </trkpt>
      <trkpt lat="42.20475" lon="1.25341">
        <ele>1121.72</ele>
        <time>2021-08-01T09:35:06Z</time>
      </trkpt>
      <trkpt lat="42.20496" lon="1.25343">
        <ele>1124.25</ele>
        <time>2021-08-01T09:35:11Z</time>
      </trkpt>
      <trkpt lat="42.2053" lon="1.25359">
        <ele>1127.94</ele>
        <time>2021-08-01T09:35:18Z</time>
      </trkpt>
      <trkpt lat="42.20552" lon="1.25363">
        <ele>1130.97</ele>
        <time>2021-08-01T09:35:24Z</time>
      </trkpt>
      <trkpt lat="42.20572" lon="1.25361">
        <ele>1133.92</ele>
        <time>2021-08-01T09:35:33Z</time>
      </trkpt>
      <trkpt lat="42.20575" lon="1.25394">
        <ele>1135.55</ele>
        <time>2021-08-01T09:35:39Z</time>
      </trkpt>
      <trkpt lat="42.20556" lon="1.2547">
        <ele>1139.13</ele>
        <time>2021-08-01T09:35:48Z</time>
      </trkpt>
      <trkpt lat="42.20549" lon="1.2551">
        <ele>1142.6</ele>
        <time>2021-08-01T09:35:54Z</time>
      </trkpt>
      <trkpt lat="42.20543" lon="1.25546">
        <ele>1146.19</ele>
        <time>2021-08-01T09:36:00Z</time>
      </trkpt>
      <trkpt lat="42.20543" lon="1.25575">
        <ele>1149.27</ele>
        <time>2021-08-01T09:36:06Z</time>
      </trkpt>
      <trkpt lat="42.20546" lon="1.25629">
        <ele>1152.35</ele>
        <time>2021-08-01T09:36:13Z</time>
      </trkpt>
      <trkpt lat="42.20542" lon="1.25671">
        <ele>1155.64</ele>
        <time>2021-08-01T09:36:18Z</time>
      </trkpt>
      <trkpt lat="42.20536" lon="1.25712">
        <ele>1158.89</ele>
        <time>2021-08-01T09:36:23Z</time>
      </trkpt>
      <trkpt lat="42.20533" lon="1.25741">
        <ele>1161.98</ele>
        <time>2021-08-01T09:36:28Z</time>
      </trkpt>
      <trkpt lat="42.20532" lon="1.25753">
        <ele>1165.06</ele>
        <time>2021-08-01T09:36:34Z</time>
      </trkpt>
      <trkpt lat="42.20532" lon="1.25754">
        <ele>1165.83</ele>
        <time>2021-08-01T09:36:36Z</time>
      </trkpt>
      <trkpt lat="42.20549" lon="1.25758">
        <ele>1168.63</ele>
        <time>2021-08-01T09:36:45Z</time>
      </trkpt>
      <trkpt lat="42.20548" lon="1.25757">
        <ele>1170.59</ele>
        <time>2021-08-01T09:36:56Z</time>
      </trkpt>
      <trkpt lat="42.20549" lon="1.25755">
        <ele>1171.57</ele>
        <time>2021-08-01T09:37:39Z</time>
      </trkpt>
      <trkpt lat="42.20547" lon="1.25738">
        <ele>1172.56</ele>
        <time>2021-08-01T09:37:57Z</time>
      </trkpt>
      <trkpt lat="42.20551" lon="1.25708">
        <ele>1173.55</ele>
        <time>2021-08-01T09:38:15Z</time>
      </trkpt>
      <trkpt lat="42.20563" lon="1.2568">
        <ele>1175.81</ele>
        <time>2021-08-01T09:38:27Z</time>
      </trkpt>
      <trkpt lat="42.20574" lon="1.25645">
        <ele>1177.37</ele>
        <time>2021-08-01T09:38:55Z</time>
      </trkpt>
      <trkpt lat="42.20585" lon="1.256">
        <ele>1180.58</ele>
        <time>2021-08-01T09:39:03Z</time>
      </trkpt>
      <trkpt lat="42.20594" lon="1.25572">
        <ele>1183.83</ele>
        <time>2021-08-01T09:39:11Z</time>
      </trkpt>
      <trkpt lat="42.20597" lon="1.25548">
        <ele>1185.37</ele>
        <time>2021-08-01T09:39:16Z</time>
      </trkpt>
      <trkpt lat="42.20615" lon="1.25506">
        <ele>1188.87</ele>
        <time>2021-08-01T09:39:25Z</time>
      </trkpt>
      <trkpt lat="42.20631" lon="1.25471">
        <ele>1192.08</ele>
        <time>2021-08-01T09:39:33Z</time>
      </trkpt>
      <trkpt lat="42.20646" lon="1.25434">
        <ele>1195.34</ele>
        <time>2021-08-01T09:39:41Z</time>
      </trkpt>
      <trkpt lat="42.20652" lon="1.25396">
        <ele>1198.78</ele>
        <time>2021-08-01T09:39:49Z</time>
      </trkpt>
      <trkpt lat="42.20652" lon="1.25358">
        <ele>1202.67</ele>
        <time>2021-08-01T09:39:57Z</time>
      </trkpt>
      <trkpt lat="42.20654" lon="1.25316">
        <ele>1205.91</ele>
        <time>2021-08-01T09:40:05Z</time>
      </trkpt>
      <trkpt lat="42.20654" lon="1.25289">
        <ele>1208.95</ele>
        <time>2021-08-01T09:40:14Z</time>
      </trkpt>
      <trkpt lat="42.20654" lon="1.25274">
        <ele>1211.97</ele>
        <time>2021-08-01T09:40:54Z</time>
      </trkpt>
      <trkpt lat="42.2067" lon="1.25217">
        <ele>1214.1</ele>
        <time>2021-08-01T09:41:07Z</time>
      </trkpt>
      <trkpt lat="42.20675" lon="1.25194">
        <ele>1216.51</ele>
        <time>2021-08-01T09:41:19Z</time>
      </trkpt>
      <trkpt lat="42.20669" lon="1.2518">
        <ele>1217.23</ele>
        <time>2021-08-01T09:41:26Z</time>
      </trkpt>
      <trkpt lat="42.20656" lon="1.25169">
        <ele>1218.78</ele>
        <time>2021-08-01T09:41:36Z</time>
      </trkpt>
      <trkpt lat="42.20656" lon="1.25167">
        <ele>1219.96</ele>
        <time>2021-08-01T09:41:54Z</time>
      </trkpt>
      <trkpt lat="42.20654" lon="1.25168">
        <ele>1220.3</ele>
        <time>2021-08-01T09:42:24Z</time>
      </trkpt>
      <trkpt lat="42.2063" lon="1.2519">
        <ele>1221.1</ele>
        <time>2021-08-01T09:42:46Z</time>
      </trkpt>
      <trkpt lat="42.20598" lon="1.25215">
        <ele>1221.4</ele>
        <time>2021-08-01T09:42:53Z</time>
      </trkpt>
      <trkpt lat="42.20568" lon="1.25228">
        <ele>1221.97</ele>
        <time>2021-08-01T09:42:59Z</time>
      </trkpt>
      <trkpt lat="42.20557" lon="1.2521">
        <ele>1223.16</ele>
        <time>2021-08-01T09:43:05Z</time>
      </trkpt>
      <trkpt lat="42.20568" lon="1.25207">
        <ele>1223.53</ele>
        <time>2021-08-01T09:43:07Z</time>
      </trkpt>
      <trkpt lat="42.2059" lon="1.25194">
        <ele>1227.51</ele>
        <time>2021-08-01T09:43:17Z</time>
      </trkpt>
      <trkpt lat="42.20611" lon="1.25168">
        <ele>1229.5</ele>
        <time>2021-08-01T09:43:26Z</time>
      </trkpt>
      <trkpt lat="42.20632" lon="1.25138">
        <ele>1232.66</ele>
        <time>2021-08-01T09:43:36Z</time>
      </trkpt>
      <trkpt lat="42.20648" lon="1.2511">
        <ele>1235.9</ele>
        <time>2021-08-01T09:43:46Z</time>
      </trkpt>
      <trkpt lat="42.20654" lon="1.25105">
        <ele>1237.63</ele>
        <time>2021-08-01T09:43:52Z</time>
      </trkpt>
      <trkpt lat="42.20668" lon="1.25118">
        <ele>1239.03</ele>
        <time>2021-08-01T09:44:00Z</time>
      </trkpt>
      <trkpt lat="42.20698" lon="1.25141">
        <ele>1242.41</ele>
        <time>2021-08-01T09:44:13Z</time>
      </trkpt>
      <trkpt lat="42.20708" lon="1.25145">
        <ele>1243.49</ele>
        <time>2021-08-01T09:44:16Z</time>
      </trkpt>
      <trkpt lat="42.20719" lon="1.25127">
        <ele>1245.94</ele>
        <time>2021-08-01T09:44:22Z</time>
      </trkpt>
      <trkpt lat="42.20735" lon="1.2509">
        <ele>1249.57</ele>
        <time>2021-08-01T09:44:32Z</time>
      </trkpt>
      <trkpt lat="42.20738" lon="1.25054">
        <ele>1252.68</ele>
        <time>2021-08-01T09:44:40Z</time>
      </trkpt>
      <trkpt lat="42.2074" lon="1.25007">
        <ele>1255.96</ele>
        <time>2021-08-01T09:44:48Z</time>
      </trkpt>
      <trkpt lat="42.20743" lon="1.24973">
        <ele>1258.21</ele>
        <time>2021-08-01T09:44:53Z</time>
      </trkpt>
      <trkpt lat="42.20743" lon="1.2495">
        <ele>1261.25</ele>
        <time>2021-08-01T09:44:58Z</time>
      </trkpt>
      <trkpt lat="42.20741" lon="1.24921">
        <ele>1264.32</ele>
        <time>2021-08-01T09:45:06Z</time>
      </trkpt>
      <trkpt lat="42.20738" lon="1.24889">
        <ele>1267.49</ele>
        <time>2021-08-01T09:45:17Z</time>
      </trkpt>
      <trkpt lat="42.20736" lon="1.24843">
        <ele>1270.67</ele>
        <time>2021-08-01T09:45:28Z</time>
      </trkpt>
      <trkpt lat="42.20741" lon="1.24803">
        <ele>1273.86</ele>
        <time>2021-08-01T09:45:39Z</time>
      </trkpt>
      <trkpt lat="42.20762" lon="1.24787">
        <ele>1275.9</ele>
        <time>2021-08-01T09:45:48Z</time>
      </trkpt>
      <trkpt lat="42.20765" lon="1.2479">
        <ele>1276.06</ele>
        <time>2021-08-01T09:45:49Z</time>
      </trkpt>
      <trkpt lat="42.20776" lon="1.2485">
        <ele>1279.34</ele>
        <time>2021-08-01T09:46:02Z</time>
      </trkpt>
      <trkpt lat="42.20786" lon="1.24912">
        <ele>1282.49</ele>
        <time>2021-08-01T09:46:14Z</time>
      </trkpt>
      <trkpt lat="42.208" lon="1.24953">
        <ele>1285.63</ele>
        <time>2021-08-01T09:46:25Z</time>
      </trkpt>
      <trkpt lat="42.20817" lon="1.24996">
        <ele>1288.68</ele>
        <time>2021-08-01T09:46:35Z</time>
      </trkpt>
      <trkpt lat="42.20836" lon="1.25023">
        <ele>1290.99</ele>
        <time>2021-08-01T09:46:42Z</time>
      </trkpt>
      <trkpt lat="42.20871" lon="1.25055">
        <ele>1294.52</ele>
        <time>2021-08-01T09:46:51Z</time>
      </trkpt>
      <trkpt lat="42.20878" lon="1.25056">
        <ele>1295.2</ele>
        <time>2021-08-01T09:46:53Z</time>
      </trkpt>
      <trkpt lat="42.20884" lon="1.25027">
        <ele>1297.19</ele>
        <time>2021-08-01T09:46:59Z</time>
      </trkpt>
      <trkpt lat="42.20883" lon="1.24999">
        <ele>1298.5</ele>
        <time>2021-08-01T09:47:03Z</time>
      </trkpt>
      <trkpt lat="42.20857" lon="1.24979">
        <ele>1300.85</ele>
        <time>2021-08-01T09:47:10Z</time>
      </trkpt>
      <trkpt lat="42.2084" lon="1.24956">
        <ele>1302.91</ele>
        <time>2021-08-01T09:47:16Z</time>
      </trkpt>
      <trkpt lat="42.20838" lon="1.24889">
        <ele>1306.97</ele>
        <time>2021-08-01T09:47:28Z</time>
      </trkpt>
      <trkpt lat="42.20846" lon="1.2484">
        <ele>1310.29</ele>
        <time>2021-08-01T09:47:36Z</time>
      </trkpt>
      <trkpt lat="42.2085" lon="1.24805">
        <ele>1313.68</ele>
        <time>2021-08-01T09:47:43Z</time>
      </trkpt>
      <trkpt lat="42.20849" lon="1.24799">
        <ele>1316.55</ele>
        <time>2021-08-01T09:47:59Z</time>
      </trkpt>
      <trkpt lat="42.20846" lon="1.24766">
        <ele>1317.67</ele>
        <time>2021-08-01T09:48:07Z</time>
      </trkpt>
      <trkpt lat="42.20856" lon="1.24717">
        <ele>1320.88</ele>
        <time>2021-08-01T09:48:18Z</time>
      </trkpt>
      <trkpt lat="42.20863" lon="1.2467">
        <ele>1323.92</ele>
        <time>2021-08-01T09:48:28Z</time>
      </trkpt>
      <trkpt lat="42.20862" lon="1.24649">
        <ele>1324.89</ele>
        <time>2021-08-01T09:48:31Z</time>
      </trkpt>
      <trkpt lat="42.20854" lon="1.24626">
        <ele>1326.23</ele>
        <time>2021-08-01T09:48:34Z</time>
      </trkpt>
      <trkpt lat="42.20829" lon="1.24576">
        <ele>1329.69</ele>
        <time>2021-08-01T09:48:42Z</time>
      </trkpt>
      <trkpt lat="42.20802" lon="1.24491">
        <ele>1332.67</ele>
        <time>2021-08-01T09:48:55Z</time>
      </trkpt>
      <trkpt lat="42.20786" lon="1.24423">
        <ele>1335.95</ele>
        <time>2021-08-01T09:49:07Z</time>
      </trkpt>
      <trkpt lat="42.20785" lon="1.2437">
        <ele>1339.47</ele>
        <time>2021-08-01T09:49:13Z</time>
      </trkpt>
      <trkpt lat="42.20774" lon="1.24326">
        <ele>1342.76</ele>
        <time>2021-08-01T09:49:18Z</time>
      </trkpt>
      <trkpt lat="42.20772" lon="1.2431">
        <ele>1344.24</ele>
        <time>2021-08-01T09:49:20Z</time>
      </trkpt>
      <trkpt lat="42.20774" lon="1.24269">
        <ele>1348.35</ele>
        <time>2021-08-01T09:49:26Z</time>
      </trkpt>
      <trkpt lat="42.20775" lon="1.24262">
        <ele>1348.96</ele>
        <time>2021-08-01T09:49:27Z</time>
      </trkpt>
      <trkpt lat="42.20784" lon="1.24234">
        <ele>1351.34</ele>
        <time>2021-08-01T09:49:31Z</time>
      </trkpt>
      <trkpt lat="42.20782" lon="1.24194">
        <ele>1355.13</ele>
        <time>2021-08-01T09:49:38Z</time>
      </trkpt>
      <trkpt lat="42.20765" lon="1.24141">
        <ele>1358.95</ele>
        <time>2021-08-01T09:49:45Z</time>
      </trkpt>
      <trkpt lat="42.20755" lon="1.24104">
        <ele>1362.03</ele>
        <time>2021-08-01T09:49:50Z</time>
      </trkpt>
      <trkpt lat="42.20752" lon="1.24072">
        <ele>1365.11</ele>
        <time>2021-08-01T09:49:54Z</time>
      </trkpt>
      <trkpt lat="42.2074" lon="1.24018">
        <ele>1369.31</ele>
        <time>2021-08-01T09:50:01Z</time>
      </trkpt>
      <trkpt lat="42.20741" lon="1.23962">
        <ele>1373.3</ele>
        <time>2021-08-01T09:50:07Z</time>
      </trkpt>
      <trkpt lat="42.20738" lon="1.23924">
        <ele>1376.32</ele>
        <time>2021-08-01T09:50:12Z</time>
      </trkpt>
      <trkpt lat="42.20727" lon="1.23881">
        <ele>1379.82</ele>
        <time>2021-08-01T09:50:18Z</time>
      </trkpt>
      <trkpt lat="42.20712" lon="1.2384">
        <ele>1383.06</ele>
        <time>2021-08-01T09:50:23Z</time>
      </trkpt>
      <trkpt lat="42.20697" lon="1.23802">
        <ele>1386.41</ele>
        <time>2021-08-01T09:50:28Z</time>
      </trkpt>
      <trkpt lat="42.20688" lon="1.23773">
        <ele>1389.48</ele>
        <time>2021-08-01T09:50:33Z</time>
      </trkpt>
      <trkpt lat="42.20671" lon="1.23731">
        <ele>1392.81</ele>
        <time>2021-08-01T09:50:38Z</time>
      </trkpt>
      <trkpt lat="42.2066" lon="1.23698">
        <ele>1396.03</ele>
        <time>2021-08-01T09:50:42Z</time>
      </trkpt>
      <trkpt lat="42.20658" lon="1.23679">
        <ele>1397.53</ele>
        <time>2021-08-01T09:50:44Z</time>
      </trkpt>
      <trkpt lat="42.20639" lon="1.23639">
        <ele>1400.77</ele>
        <time>2021-08-01T09:50:49Z</time>
      </trkpt>
      <trkpt lat="42.20633" lon="1.23626">
        <ele>1402.35</ele>
        <time>2021-08-01T09:50:51Z</time>
      </trkpt>
      <trkpt lat="42.2063" lon="1.23604">
        <ele>1405.12</ele>
        <time>2021-08-01T09:50:55Z</time>
      </trkpt>
      <trkpt lat="42.20627" lon="1.23601">
        <ele>1408.82</ele>
        <time>2021-08-01T09:51:05Z</time>
      </trkpt>
      <trkpt lat="42.20627" lon="1.23601">
        <ele>1410.57</ele>
        <time>2021-08-01T09:51:39Z</time>
      </trkpt>
      <trkpt lat="42.20637" lon="1.23577">
        <ele>1409.58</ele>
        <time>2021-08-01T10:12:57Z</time>
      </trkpt>
      <trkpt lat="42.20637" lon="1.23577">
        <ele>1409.58</ele>
        <time>2021-08-01T10:12:58Z</time>
      </trkpt>
      <trkpt lat="42.20645" lon="1.2358">
        <ele>1409.58</ele>
        <time>2021-08-01T10:13:29Z</time>
      </trkpt>
      <trkpt lat="42.20635" lon="1.23589">
        <ele>1411.59</ele>
        <time>2021-08-01T10:46:03Z</time>
      </trkpt>
      <trkpt lat="42.20632" lon="1.23588">
        <ele>1409.94</ele>
        <time>2021-08-01T10:46:09Z</time>
      </trkpt>
      <trkpt lat="42.20631" lon="1.23587">
        <ele>1409.79</ele>
        <time>2021-08-01T10:46:10Z</time>
      </trkpt>
      <trkpt lat="42.20624" lon="1.23553">
        <ele>1411.13</ele>
        <time>2021-08-01T10:46:19Z</time>
      </trkpt>
      <trkpt lat="42.20617" lon="1.23499">
        <ele>1414.41</ele>
        <time>2021-08-01T10:46:29Z</time>
      </trkpt>
      <trkpt lat="42.20616" lon="1.23492">
        <ele>1414.85</ele>
        <time>2021-08-01T10:46:30Z</time>
      </trkpt>
      <trkpt lat="42.20612" lon="1.23451">
        <ele>1418.52</ele>
        <time>2021-08-01T10:46:38Z</time>
      </trkpt>
      <trkpt lat="42.20613" lon="1.23405">
        <ele>1421.77</ele>
        <time>2021-08-01T10:46:45Z</time>
      </trkpt>
      <trkpt lat="42.20611" lon="1.23358">
        <ele>1424.89</ele>
        <time>2021-08-01T10:46:51Z</time>
      </trkpt>
      <trkpt lat="42.20609" lon="1.23326">
        <ele>1427.93</ele>
        <time>2021-08-01T10:46:56Z</time>
      </trkpt>
      <trkpt lat="42.20614" lon="1.23293">
        <ele>1431.36</ele>
        <time>2021-08-01T10:47:02Z</time>
      </trkpt>
      <trkpt lat="42.20616" lon="1.23287">
        <ele>1431.92</ele>
        <time>2021-08-01T10:47:03Z</time>
      </trkpt>
      <trkpt lat="42.20627" lon="1.23261">
        <ele>1434.09</ele>
        <time>2021-08-01T10:47:07Z</time>
      </trkpt>
      <trkpt lat="42.20642" lon="1.23217">
        <ele>1438.05</ele>
        <time>2021-08-01T10:47:14Z</time>
      </trkpt>
      <trkpt lat="42.20655" lon="1.23179">
        <ele>1441.35</ele>
        <time>2021-08-01T10:47:20Z</time>
      </trkpt>
      <trkpt lat="42.20659" lon="1.23153">
        <ele>1444.52</ele>
        <time>2021-08-01T10:47:26Z</time>
      </trkpt>
      <trkpt lat="42.20659" lon="1.23135">
        <ele>1445.8</ele>
        <time>2021-08-01T10:47:29Z</time>
      </trkpt>
      <trkpt lat="42.20642" lon="1.23041">
        <ele>1449.37</ele>
        <time>2021-08-01T10:47:41Z</time>
      </trkpt>
      <trkpt lat="42.20625" lon="1.22968">
        <ele>1452.81</ele>
        <time>2021-08-01T10:47:50Z</time>
      </trkpt>
      <trkpt lat="42.20623" lon="1.22961">
        <ele>1453.27</ele>
        <time>2021-08-01T10:47:51Z</time>
      </trkpt>
      <trkpt lat="42.20613" lon="1.22891">
        <ele>1457.04</ele>
        <time>2021-08-01T10:48:00Z</time>
      </trkpt>
      <trkpt lat="42.20607" lon="1.22844">
        <ele>1460.2</ele>
        <time>2021-08-01T10:48:06Z</time>
      </trkpt>
      <trkpt lat="42.20598" lon="1.22795">
        <ele>1462.81</ele>
        <time>2021-08-01T10:48:11Z</time>
      </trkpt>
      <trkpt lat="42.20588" lon="1.22729">
        <ele>1466.8</ele>
        <time>2021-08-01T10:48:18Z</time>
      </trkpt>
      <trkpt lat="42.2058" lon="1.22681">
        <ele>1469.87</ele>
        <time>2021-08-01T10:48:24Z</time>
      </trkpt>
      <trkpt lat="42.20577" lon="1.22631">
        <ele>1473.12</ele>
        <time>2021-08-01T10:48:30Z</time>
      </trkpt>
      <trkpt lat="42.20569" lon="1.22582">
        <ele>1476.37</ele>
        <time>2021-08-01T10:48:36Z</time>
      </trkpt>
      <trkpt lat="42.20563" lon="1.2254">
        <ele>1479.42</ele>
        <time>2021-08-01T10:48:41Z</time>
      </trkpt>
      <trkpt lat="42.20556" lon="1.22487">
        <ele>1482.51</ele>
        <time>2021-08-01T10:48:46Z</time>
      </trkpt>
      <trkpt lat="42.20552" lon="1.22456">
        <ele>1484.45</ele>
        <time>2021-08-01T10:48:49Z</time>
      </trkpt>
      <trkpt lat="42.20549" lon="1.22403">
        <ele>1488.8</ele>
        <time>2021-08-01T10:48:55Z</time>
      </trkpt>
      <trkpt lat="42.2055" lon="1.22394">
        <ele>1489.43</ele>
        <time>2021-08-01T10:48:56Z</time>
      </trkpt>
      <trkpt lat="42.20555" lon="1.22359">
        <ele>1493.1</ele>
        <time>2021-08-01T10:49:02Z</time>
      </trkpt>
      <trkpt lat="42.20546" lon="1.22333">
        <ele>1496.26</ele>
        <time>2021-08-01T10:49:08Z</time>
      </trkpt>
      <trkpt lat="42.20542" lon="1.22332">
        <ele>1496.85</ele>
        <time>2021-08-01T10:49:09Z</time>
      </trkpt>
      <trkpt lat="42.20529" lon="1.22325">
        <ele>1498.62</ele>
        <time>2021-08-01T10:49:12Z</time>
      </trkpt>
      <trkpt lat="42.20507" lon="1.22299">
        <ele>1502.22</ele>
        <time>2021-08-01T10:49:19Z</time>
      </trkpt>
      <trkpt lat="42.20504" lon="1.22284">
        <ele>1503.22</ele>
        <time>2021-08-01T10:49:21Z</time>
      </trkpt>
      <trkpt lat="42.20502" lon="1.22259">
        <ele>1504.68</ele>
        <time>2021-08-01T10:49:24Z</time>
      </trkpt>
      <trkpt lat="42.20502" lon="1.22251">
        <ele>1505.19</ele>
        <time>2021-08-01T10:49:25Z</time>
      </trkpt>
      <trkpt lat="42.20504" lon="1.22244">
        <ele>1505.6</ele>
        <time>2021-08-01T10:49:26Z</time>
      </trkpt>
      <trkpt lat="42.20505" lon="1.22237">
        <ele>1506.07</ele>
        <time>2021-08-01T10:49:27Z</time>
      </trkpt>
      <trkpt lat="42.20506" lon="1.22231">
        <ele>1506.64</ele>
        <time>2021-08-01T10:49:28Z</time>
      </trkpt>
      <trkpt lat="42.20517" lon="1.22199">
        <ele>1509.24</ele>
        <time>2021-08-01T10:49:33Z</time>
      </trkpt>
      <trkpt lat="42.20519" lon="1.22193">
        <ele>1509.66</ele>
        <time>2021-08-01T10:49:34Z</time>
      </trkpt>
      <trkpt lat="42.20519" lon="1.22186">
        <ele>1510.14</ele>
        <time>2021-08-01T10:49:35Z</time>
      </trkpt>
      <trkpt lat="42.20518" lon="1.2214">
        <ele>1513.47</ele>
        <time>2021-08-01T10:49:41Z</time>
      </trkpt>
      <trkpt lat="42.20516" lon="1.22106">
        <ele>1516.6</ele>
        <time>2021-08-01T10:49:47Z</time>
      </trkpt>
      <trkpt lat="42.20512" lon="1.22072">
        <ele>1519.73</ele>
        <time>2021-08-01T10:49:54Z</time>
      </trkpt>
      <trkpt lat="42.20509" lon="1.22024">
        <ele>1523.03</ele>
        <time>2021-08-01T10:50:01Z</time>
      </trkpt>
      <trkpt lat="42.20495" lon="1.21993">
        <ele>1526.37</ele>
        <time>2021-08-01T10:50:08Z</time>
      </trkpt>
      <trkpt lat="42.20474" lon="1.21979">
        <ele>1529.5</ele>
        <time>2021-08-01T10:50:15Z</time>
      </trkpt>
      <trkpt lat="42.20467" lon="1.21971">
        <ele>1530.61</ele>
        <time>2021-08-01T10:50:18Z</time>
      </trkpt>
      <trkpt lat="42.20459" lon="1.21924">
        <ele>1534.23</ele>
        <time>2021-08-01T10:50:28Z</time>
      </trkpt>
      <trkpt lat="42.20451" lon="1.21873">
        <ele>1537.65</ele>
        <time>2021-08-01T10:50:35Z</time>
      </trkpt>
      <trkpt lat="42.20448" lon="1.21861">
        <ele>1538.56</ele>
        <time>2021-08-01T10:50:37Z</time>
      </trkpt>
      <trkpt lat="42.20446" lon="1.21819">
        <ele>1542.22</ele>
        <time>2021-08-01T10:50:45Z</time>
      </trkpt>
      <trkpt lat="42.20439" lon="1.21795">
        <ele>1544.67</ele>
        <time>2021-08-01T10:50:51Z</time>
      </trkpt>
      <trkpt lat="42.20425" lon="1.21813">
        <ele>1546.67</ele>
        <time>2021-08-01T10:50:55Z</time>
      </trkpt>
      <trkpt lat="42.20402" lon="1.21876">
        <ele>1550.24</ele>
        <time>2021-08-01T10:51:03Z</time>
      </trkpt>
      <trkpt lat="42.20385" lon="1.21925">
        <ele>1553.49</ele>
        <time>2021-08-01T10:51:09Z</time>
      </trkpt>
      <trkpt lat="42.20368" lon="1.21969">
        <ele>1556.9</ele>
        <time>2021-08-01T10:51:16Z</time>
      </trkpt>
      <trkpt lat="42.20347" lon="1.22012">
        <ele>1559.52</ele>
        <time>2021-08-01T10:51:22Z</time>
      </trkpt>
      <trkpt lat="42.2034" lon="1.22024">
        <ele>1562.47</ele>
        <time>2021-08-01T10:51:30Z</time>
      </trkpt>
      <trkpt lat="42.20342" lon="1.22019">
        <ele>1562.77</ele>
        <time>2021-08-01T10:51:31Z</time>
      </trkpt>
      <trkpt lat="42.20348" lon="1.22005">
        <ele>1563.62</ele>
        <time>2021-08-01T10:51:33Z</time>
      </trkpt>
      <trkpt lat="42.20358" lon="1.21922">
        <ele>1567.2</ele>
        <time>2021-08-01T10:51:41Z</time>
      </trkpt>
      <trkpt lat="42.20358" lon="1.2187">
        <ele>1570.38</ele>
        <time>2021-08-01T10:51:47Z</time>
      </trkpt>
      <trkpt lat="42.20353" lon="1.21812">
        <ele>1573.71</ele>
        <time>2021-08-01T10:51:53Z</time>
      </trkpt>
      <trkpt lat="42.20343" lon="1.21755">
        <ele>1577.23</ele>
        <time>2021-08-01T10:51:59Z</time>
      </trkpt>
      <trkpt lat="42.20341" lon="1.21713">
        <ele>1579.63</ele>
        <time>2021-08-01T10:52:03Z</time>
      </trkpt>
      <trkpt lat="42.20353" lon="1.21651">
        <ele>1583.31</ele>
        <time>2021-08-01T10:52:09Z</time>
      </trkpt>
      <trkpt lat="42.20357" lon="1.21604">
        <ele>1586.82</ele>
        <time>2021-08-01T10:52:14Z</time>
      </trkpt>
      <trkpt lat="42.20355" lon="1.21577">
        <ele>1588.75</ele>
        <time>2021-08-01T10:52:17Z</time>
      </trkpt>
      <trkpt lat="42.20347" lon="1.2152">
        <ele>1592.89</ele>
        <time>2021-08-01T10:52:23Z</time>
      </trkpt>
      <trkpt lat="42.20343" lon="1.21493">
        <ele>1594.99</ele>
        <time>2021-08-01T10:52:26Z</time>
      </trkpt>
      <trkpt lat="42.20351" lon="1.21452">
        <ele>1598.14</ele>
        <time>2021-08-01T10:52:31Z</time>
      </trkpt>
      <trkpt lat="42.20358" lon="1.21416">
        <ele>1602</ele>
        <time>2021-08-01T10:52:38Z</time>
      </trkpt>
      <trkpt lat="42.20359" lon="1.21403">
        <ele>1602.88</ele>
        <time>2021-08-01T10:52:40Z</time>
      </trkpt>
      <trkpt lat="42.20353" lon="1.21337">
        <ele>1606.64</ele>
        <time>2021-08-01T10:52:48Z</time>
      </trkpt>
      <trkpt lat="42.20352" lon="1.21316">
        <ele>1608.05</ele>
        <time>2021-08-01T10:52:51Z</time>
      </trkpt>
      <trkpt lat="42.20347" lon="1.2129">
        <ele>1609.86</ele>
        <time>2021-08-01T10:52:55Z</time>
      </trkpt>
      <trkpt lat="42.20332" lon="1.21262">
        <ele>1612.13</ele>
        <time>2021-08-01T10:53:00Z</time>
      </trkpt>
      <trkpt lat="42.20331" lon="1.21223">
        <ele>1615.34</ele>
        <time>2021-08-01T10:53:06Z</time>
      </trkpt>
      <trkpt lat="42.20333" lon="1.21212">
        <ele>1616.31</ele>
        <time>2021-08-01T10:53:08Z</time>
      </trkpt>
      <trkpt lat="42.20297" lon="1.21173">
        <ele>1618.59</ele>
        <time>2021-08-01T10:53:15Z</time>
      </trkpt>
      <trkpt lat="42.20276" lon="1.21165">
        <ele>1618.91</ele>
        <time>2021-08-01T10:53:18Z</time>
      </trkpt>
      <trkpt lat="42.20235" lon="1.21164">
        <ele>1617.85</ele>
        <time>2021-08-01T10:53:24Z</time>
      </trkpt>
      <trkpt lat="42.20206" lon="1.21153">
        <ele>1615.64</ele>
        <time>2021-08-01T10:53:29Z</time>
      </trkpt>
      <trkpt lat="42.20201" lon="1.21095">
        <ele>1612.54</ele>
        <time>2021-08-01T10:53:36Z</time>
      </trkpt>
      <trkpt lat="42.20214" lon="1.21022">
        <ele>1608.89</ele>
        <time>2021-08-01T10:53:43Z</time>
      </trkpt>
      <trkpt lat="42.20223" lon="1.20957">
        <ele>1605.49</ele>
        <time>2021-08-01T10:53:49Z</time>
      </trkpt>
      <trkpt lat="42.20226" lon="1.20904">
        <ele>1602.47</ele>
        <time>2021-08-01T10:53:54Z</time>
      </trkpt>
      <trkpt lat="42.20229" lon="1.2086">
        <ele>1599.96</ele>
        <time>2021-08-01T10:53:58Z</time>
      </trkpt>
      <trkpt lat="42.20224" lon="1.20797">
        <ele>1596.31</ele>
        <time>2021-08-01T10:54:04Z</time>
      </trkpt>
      <trkpt lat="42.20222" lon="1.20787">
        <ele>1595.5</ele>
        <time>2021-08-01T10:54:05Z</time>
      </trkpt>
      <trkpt lat="42.20204" lon="1.20744">
        <ele>1590.94</ele>
        <time>2021-08-01T10:54:11Z</time>
      </trkpt>
      <trkpt lat="42.20189" lon="1.20718">
        <ele>1587.46</ele>
        <time>2021-08-01T10:54:15Z</time>
      </trkpt>
      <trkpt lat="42.20173" lon="1.20681">
        <ele>1584.36</ele>
        <time>2021-08-01T10:54:20Z</time>
      </trkpt>
      <trkpt lat="42.20168" lon="1.20663">
        <ele>1583.23</ele>
        <time>2021-08-01T10:54:22Z</time>
      </trkpt>
      <trkpt lat="42.20164" lon="1.20624">
        <ele>1581.33</ele>
        <time>2021-08-01T10:54:26Z</time>
      </trkpt>
      <trkpt lat="42.20168" lon="1.20565">
        <ele>1577.38</ele>
        <time>2021-08-01T10:54:33Z</time>
      </trkpt>
      <trkpt lat="42.20174" lon="1.20517">
        <ele>1573.82</ele>
        <time>2021-08-01T10:54:39Z</time>
      </trkpt>
      <trkpt lat="42.20175" lon="1.20456">
        <ele>1570.12</ele>
        <time>2021-08-01T10:54:46Z</time>
      </trkpt>
      <trkpt lat="42.20186" lon="1.20407">
        <ele>1566.22</ele>
        <time>2021-08-01T10:54:53Z</time>
      </trkpt>
      <trkpt lat="42.20187" lon="1.20384">
        <ele>1564.03</ele>
        <time>2021-08-01T10:54:57Z</time>
      </trkpt>
      <trkpt lat="42.20191" lon="1.20314">
        <ele>1559.93</ele>
        <time>2021-08-01T10:55:05Z</time>
      </trkpt>
      <trkpt lat="42.20195" lon="1.20294">
        <ele>1556.51</ele>
        <time>2021-08-01T10:55:11Z</time>
      </trkpt>
      <trkpt lat="42.20209" lon="1.20297">
        <ele>1553.1</ele>
        <time>2021-08-01T10:55:21Z</time>
      </trkpt>
      <trkpt lat="42.20209" lon="1.203">
        <ele>1552.86</ele>
        <time>2021-08-01T10:55:22Z</time>
      </trkpt>
      <trkpt lat="42.20212" lon="1.2033">
        <ele>1549.47</ele>
        <time>2021-08-01T10:55:35Z</time>
      </trkpt>
      <trkpt lat="42.20211" lon="1.20341">
        <ele>1547.2</ele>
        <time>2021-08-01T10:56:08Z</time>
      </trkpt>
      <trkpt lat="42.20221" lon="1.20403">
        <ele>1545.09</ele>
        <time>2021-08-01T10:56:19Z</time>
      </trkpt>
      <trkpt lat="42.20222" lon="1.2041">
        <ele>1544.76</ele>
        <time>2021-08-01T10:56:20Z</time>
      </trkpt>
      <trkpt lat="42.20253" lon="1.2046">
        <ele>1542.35</ele>
        <time>2021-08-01T10:56:27Z</time>
      </trkpt>
      <trkpt lat="42.20253" lon="1.20502">
        <ele>1540.18</ele>
        <time>2021-08-01T10:56:32Z</time>
      </trkpt>
      <trkpt lat="42.20257" lon="1.20554">
        <ele>1536.22</ele>
        <time>2021-08-01T10:56:40Z</time>
      </trkpt>
      <trkpt lat="42.20266" lon="1.20565">
        <ele>1534.47</ele>
        <time>2021-08-01T10:56:43Z</time>
      </trkpt>
      <trkpt lat="42.20313" lon="1.20579">
        <ele>1530.73</ele>
        <time>2021-08-01T10:56:52Z</time>
      </trkpt>
      <trkpt lat="42.20317" lon="1.20577">
        <ele>1530.41</ele>
        <time>2021-08-01T10:56:53Z</time>
      </trkpt>
      <trkpt lat="42.20321" lon="1.20553">
        <ele>1528.39</ele>
        <time>2021-08-01T10:56:58Z</time>
      </trkpt>
      <trkpt lat="42.20341" lon="1.20504">
        <ele>1524.87</ele>
        <time>2021-08-01T10:57:07Z</time>
      </trkpt>
      <trkpt lat="42.20353" lon="1.20475">
        <ele>1523.21</ele>
        <time>2021-08-01T10:57:12Z</time>
      </trkpt>
      <trkpt lat="42.20366" lon="1.2043">
        <ele>1519.65</ele>
        <time>2021-08-01T10:57:19Z</time>
      </trkpt>
      <trkpt lat="42.20367" lon="1.20419">
        <ele>1518.83</ele>
        <time>2021-08-01T10:57:21Z</time>
      </trkpt>
      <trkpt lat="42.20376" lon="1.20367">
        <ele>1515.8</ele>
        <time>2021-08-01T10:57:28Z</time>
      </trkpt>
      <trkpt lat="42.20381" lon="1.20323">
        <ele>1512.6</ele>
        <time>2021-08-01T10:57:34Z</time>
      </trkpt>
      <trkpt lat="42.20381" lon="1.2031">
        <ele>1511.54</ele>
        <time>2021-08-01T10:57:36Z</time>
      </trkpt>
      <trkpt lat="42.2039" lon="1.20315">
        <ele>1508.49</ele>
        <time>2021-08-01T10:57:43Z</time>
      </trkpt>
      <trkpt lat="42.20392" lon="1.20364">
        <ele>1505.55</ele>
        <time>2021-08-01T10:57:50Z</time>
      </trkpt>
      <trkpt lat="42.20397" lon="1.20387">
        <ele>1504.09</ele>
        <time>2021-08-01T10:57:53Z</time>
      </trkpt>
      <trkpt lat="42.20397" lon="1.20408">
        <ele>1502.77</ele>
        <time>2021-08-01T10:57:56Z</time>
      </trkpt>
      <trkpt lat="42.20403" lon="1.20433">
        <ele>1500.87</ele>
        <time>2021-08-01T10:58:00Z</time>
      </trkpt>
      <trkpt lat="42.2043" lon="1.20475">
        <ele>1496.9</ele>
        <time>2021-08-01T10:58:08Z</time>
      </trkpt>
      <trkpt lat="42.20462" lon="1.20497">
        <ele>1493.42</ele>
        <time>2021-08-01T10:58:16Z</time>
      </trkpt>
      <trkpt lat="42.20472" lon="1.20499">
        <ele>1492.11</ele>
        <time>2021-08-01T10:58:19Z</time>
      </trkpt>
      <trkpt lat="42.20514" lon="1.20473">
        <ele>1489.53</ele>
        <time>2021-08-01T10:58:28Z</time>
      </trkpt>
      <trkpt lat="42.20515" lon="1.20468">
        <ele>1489.25</ele>
        <time>2021-08-01T10:58:29Z</time>
      </trkpt>
      <trkpt lat="42.20527" lon="1.20421">
        <ele>1487.13</ele>
        <time>2021-08-01T10:58:36Z</time>
      </trkpt>
      <trkpt lat="42.20518" lon="1.20353">
        <ele>1483.83</ele>
        <time>2021-08-01T10:58:46Z</time>
      </trkpt>
      <trkpt lat="42.20516" lon="1.20319">
        <ele>1482.41</ele>
        <time>2021-08-01T10:58:50Z</time>
      </trkpt>
      <trkpt lat="42.20524" lon="1.20286">
        <ele>1480.76</ele>
        <time>2021-08-01T10:58:54Z</time>
      </trkpt>
      <trkpt lat="42.20533" lon="1.20245">
        <ele>1478.21</ele>
        <time>2021-08-01T10:59:00Z</time>
      </trkpt>
      <trkpt lat="42.20533" lon="1.20231">
        <ele>1477.12</ele>
        <time>2021-08-01T10:59:02Z</time>
      </trkpt>
      <trkpt lat="42.20524" lon="1.20181">
        <ele>1473.18</ele>
        <time>2021-08-01T10:59:09Z</time>
      </trkpt>
      <trkpt lat="42.20517" lon="1.20147">
        <ele>1471.17</ele>
        <time>2021-08-01T10:59:13Z</time>
      </trkpt>
      <trkpt lat="42.20517" lon="1.20112">
        <ele>1469.13</ele>
        <time>2021-08-01T10:59:17Z</time>
      </trkpt>
      <trkpt lat="42.20521" lon="1.20079">
        <ele>1466.93</ele>
        <time>2021-08-01T10:59:21Z</time>
      </trkpt>
      <trkpt lat="42.20525" lon="1.20067">
        <ele>1465.81</ele>
        <time>2021-08-01T10:59:23Z</time>
      </trkpt>
      <trkpt lat="42.20546" lon="1.20056">
        <ele>1462.3</ele>
        <time>2021-08-01T10:59:29Z</time>
      </trkpt>
      <trkpt lat="42.20568" lon="1.20057">
        <ele>1459.53</ele>
        <time>2021-08-01T10:59:35Z</time>
      </trkpt>
      <trkpt lat="42.20608" lon="1.20049">
        <ele>1455.46</ele>
        <time>2021-08-01T10:59:45Z</time>
      </trkpt>
      <trkpt lat="42.20617" lon="1.20047">
        <ele>1454.72</ele>
        <time>2021-08-01T10:59:47Z</time>
      </trkpt>
      <trkpt lat="42.20637" lon="1.20044">
        <ele>1453.28</ele>
        <time>2021-08-01T10:59:51Z</time>
      </trkpt>
      <trkpt lat="42.20656" lon="1.20046">
        <ele>1451.96</ele>
        <time>2021-08-01T10:59:55Z</time>
      </trkpt>
      <trkpt lat="42.20677" lon="1.20034">
        <ele>1450.57</ele>
        <time>2021-08-01T10:59:59Z</time>
      </trkpt>
      <trkpt lat="42.20708" lon="1.20004">
        <ele>1447.76</ele>
        <time>2021-08-01T11:00:06Z</time>
      </trkpt>
      <trkpt lat="42.2074" lon="1.19991">
        <ele>1444.31</ele>
        <time>2021-08-01T11:00:15Z</time>
      </trkpt>
      <trkpt lat="42.20742" lon="1.19988">
        <ele>1443.92</ele>
        <time>2021-08-01T11:00:16Z</time>
      </trkpt>
      <trkpt lat="42.20742" lon="1.19968">
        <ele>1442.32</ele>
        <time>2021-08-01T11:00:20Z</time>
      </trkpt>
      <trkpt lat="42.20748" lon="1.19871">
        <ele>1438.93</ele>
        <time>2021-08-01T11:00:32Z</time>
      </trkpt>
      <trkpt lat="42.20748" lon="1.19863">
        <ele>1438.55</ele>
        <time>2021-08-01T11:00:33Z</time>
      </trkpt>
      <trkpt lat="42.2075" lon="1.1983">
        <ele>1437.21</ele>
        <time>2021-08-01T11:00:37Z</time>
      </trkpt>
      <trkpt lat="42.20778" lon="1.19776">
        <ele>1434.68</ele>
        <time>2021-08-01T11:00:45Z</time>
      </trkpt>
      <trkpt lat="42.20793" lon="1.19736">
        <ele>1433</ele>
        <time>2021-08-01T11:00:50Z</time>
      </trkpt>
      <trkpt lat="42.20795" lon="1.19719">
        <ele>1432.41</ele>
        <time>2021-08-01T11:00:52Z</time>
      </trkpt>
      <trkpt lat="42.20813" lon="1.19655">
        <ele>1429.63</ele>
        <time>2021-08-01T11:01:02Z</time>
      </trkpt>
      <trkpt lat="42.20824" lon="1.19617">
        <ele>1428.09</ele>
        <time>2021-08-01T11:01:10Z</time>
      </trkpt>
      <trkpt lat="42.20827" lon="1.19609">
        <ele>1427.98</ele>
        <time>2021-08-01T11:01:11Z</time>
      </trkpt>
      <trkpt lat="42.20831" lon="1.19577">
        <ele>1427.79</ele>
        <time>2021-08-01T11:01:15Z</time>
      </trkpt>
      <trkpt lat="42.20843" lon="1.19522">
        <ele>1427.82</ele>
        <time>2021-08-01T11:01:22Z</time>
      </trkpt>
      <trkpt lat="42.20843" lon="1.19442">
        <ele>1427.12</ele>
        <time>2021-08-01T11:01:30Z</time>
      </trkpt>
      <trkpt lat="42.20846" lon="1.19394">
        <ele>1424.67</ele>
        <time>2021-08-01T11:01:38Z</time>
      </trkpt>
      <trkpt lat="42.20822" lon="1.19345">
        <ele>1423.48</ele>
        <time>2021-08-01T11:01:45Z</time>
      </trkpt>
      <trkpt lat="42.20822" lon="1.19299">
        <ele>1423.57</ele>
        <time>2021-08-01T11:01:51Z</time>
      </trkpt>
      <trkpt lat="42.20829" lon="1.19249">
        <ele>1423.33</ele>
        <time>2021-08-01T11:02:01Z</time>
      </trkpt>
      <trkpt lat="42.20826" lon="1.19212">
        <ele>1423</ele>
        <time>2021-08-01T11:02:04Z</time>
      </trkpt>
      <trkpt lat="42.20813" lon="1.19159">
        <ele>1422.58</ele>
        <time>2021-08-01T11:02:09Z</time>
      </trkpt>
      <trkpt lat="42.20829" lon="1.19083">
        <ele>1423.86</ele>
        <time>2021-08-01T11:02:18Z</time>
      </trkpt>
      <trkpt lat="42.20831" lon="1.19076">
        <ele>1424.19</ele>
        <time>2021-08-01T11:02:19Z</time>
      </trkpt>
      <trkpt lat="42.20835" lon="1.18985">
        <ele>1426.82</ele>
        <time>2021-08-01T11:02:32Z</time>
      </trkpt>
      <trkpt lat="42.20836" lon="1.18978">
        <ele>1426.95</ele>
        <time>2021-08-01T11:02:33Z</time>
      </trkpt>
      <trkpt lat="42.20851" lon="1.1889">
        <ele>1428.51</ele>
        <time>2021-08-01T11:02:44Z</time>
      </trkpt>
      <trkpt lat="42.20853" lon="1.1885">
        <ele>1429.15</ele>
        <time>2021-08-01T11:02:48Z</time>
      </trkpt>
      <trkpt lat="42.20865" lon="1.18825">
        <ele>1429.41</ele>
        <time>2021-08-01T11:02:53Z</time>
      </trkpt>
      <trkpt lat="42.2088" lon="1.18777">
        <ele>1428.4</ele>
        <time>2021-08-01T11:03:04Z</time>
      </trkpt>
      <trkpt lat="42.20874" lon="1.18756">
        <ele>1428.51</ele>
        <time>2021-08-01T11:03:07Z</time>
      </trkpt>
      <trkpt lat="42.20861" lon="1.18737">
        <ele>1428.69</ele>
        <time>2021-08-01T11:03:10Z</time>
      </trkpt>
      <trkpt lat="42.2083" lon="1.18665">
        <ele>1429.48</ele>
        <time>2021-08-01T11:03:18Z</time>
      </trkpt>
      <trkpt lat="42.20816" lon="1.18581">
        <ele>1428.59</ele>
        <time>2021-08-01T11:03:26Z</time>
      </trkpt>
      <trkpt lat="42.208" lon="1.18543">
        <ele>1427.57</ele>
        <time>2021-08-01T11:03:31Z</time>
      </trkpt>
      <trkpt lat="42.20792" lon="1.18508">
        <ele>1425.86</ele>
        <time>2021-08-01T11:03:35Z</time>
      </trkpt>
      <trkpt lat="42.20774" lon="1.18496">
        <ele>1422.77</ele>
        <time>2021-08-01T11:03:40Z</time>
      </trkpt>
      <trkpt lat="42.20742" lon="1.18476">
        <ele>1420.51</ele>
        <time>2021-08-01T11:03:47Z</time>
      </trkpt>
      <trkpt lat="42.20741" lon="1.18467">
        <ele>1420.36</ele>
        <time>2021-08-01T11:03:48Z</time>
      </trkpt>
      <trkpt lat="42.20742" lon="1.18441">
        <ele>1420.07</ele>
        <time>2021-08-01T11:03:51Z</time>
      </trkpt>
      <trkpt lat="42.2073" lon="1.18395">
        <ele>1420.34</ele>
        <time>2021-08-01T11:03:58Z</time>
      </trkpt>
      <trkpt lat="42.2073" lon="1.18365">
        <ele>1420.76</ele>
        <time>2021-08-01T11:04:01Z</time>
      </trkpt>
      <trkpt lat="42.20745" lon="1.18275">
        <ele>1422.3</ele>
        <time>2021-08-01T11:04:09Z</time>
      </trkpt>
      <trkpt lat="42.20731" lon="1.18231">
        <ele>1423.15</ele>
        <time>2021-08-01T11:04:15Z</time>
      </trkpt>
      <trkpt lat="42.20693" lon="1.18222">
        <ele>1424.35</ele>
        <time>2021-08-01T11:04:20Z</time>
      </trkpt>
      <trkpt lat="42.20674" lon="1.18205">
        <ele>1424.73</ele>
        <time>2021-08-01T11:04:23Z</time>
      </trkpt>
      <trkpt lat="42.20633" lon="1.18185">
        <ele>1423.47</ele>
        <time>2021-08-01T11:04:30Z</time>
      </trkpt>
      <trkpt lat="42.20627" lon="1.18192">
        <ele>1423.19</ele>
        <time>2021-08-01T11:04:31Z</time>
      </trkpt>
      <trkpt lat="42.20595" lon="1.18202">
        <ele>1422.73</ele>
        <time>2021-08-01T11:04:36Z</time>
      </trkpt>
      <trkpt lat="42.20528" lon="1.18187">
        <ele>1422.06</ele>
        <time>2021-08-01T11:04:44Z</time>
      </trkpt>
      <trkpt lat="42.20511" lon="1.18184">
        <ele>1421.51</ele>
        <time>2021-08-01T11:04:46Z</time>
      </trkpt>
      <trkpt lat="42.20442" lon="1.18177">
        <ele>1417.97</ele>
        <time>2021-08-01T11:04:54Z</time>
      </trkpt>
      <trkpt lat="42.20425" lon="1.18174">
        <ele>1417.49</ele>
        <time>2021-08-01T11:04:56Z</time>
      </trkpt>
      <trkpt lat="42.20397" lon="1.18175">
        <ele>1417.01</ele>
        <time>2021-08-01T11:04:59Z</time>
      </trkpt>
      <trkpt lat="42.20321" lon="1.18163">
        <ele>1415.16</ele>
        <time>2021-08-01T11:05:08Z</time>
      </trkpt>
      <trkpt lat="42.20306" lon="1.18157">
        <ele>1414.29</ele>
        <time>2021-08-01T11:05:10Z</time>
      </trkpt>
      <trkpt lat="42.20282" lon="1.18158">
        <ele>1413.09</ele>
        <time>2021-08-01T11:05:13Z</time>
      </trkpt>
      <trkpt lat="42.20234" lon="1.18124">
        <ele>1411.14</ele>
        <time>2021-08-01T11:05:19Z</time>
      </trkpt>
      <trkpt lat="42.20216" lon="1.18117">
        <ele>1411.02</ele>
        <time>2021-08-01T11:05:21Z</time>
      </trkpt>
      <trkpt lat="42.20181" lon="1.18102">
        <ele>1409.85</ele>
        <time>2021-08-01T11:05:25Z</time>
      </trkpt>
      <trkpt lat="42.20135" lon="1.18126">
        <ele>1407.04</ele>
        <time>2021-08-01T11:05:31Z</time>
      </trkpt>
      <trkpt lat="42.2011" lon="1.1817">
        <ele>1404.2</ele>
        <time>2021-08-01T11:05:36Z</time>
      </trkpt>
      <trkpt lat="42.20087" lon="1.18146">
        <ele>1401.01</ele>
        <time>2021-08-01T11:05:42Z</time>
      </trkpt>
      <trkpt lat="42.20071" lon="1.18116">
        <ele>1397.78</ele>
        <time>2021-08-01T11:05:46Z</time>
      </trkpt>
      <trkpt lat="42.20071" lon="1.18083">
        <ele>1395.69</ele>
        <time>2021-08-01T11:05:49Z</time>
      </trkpt>
      <trkpt lat="42.20076" lon="1.18039">
        <ele>1392.83</ele>
        <time>2021-08-01T11:05:53Z</time>
      </trkpt>
      <trkpt lat="42.2005" lon="1.17992">
        <ele>1388.51</ele>
        <time>2021-08-01T11:05:59Z</time>
      </trkpt>
      <trkpt lat="42.20032" lon="1.17988">
        <ele>1387.05</ele>
        <time>2021-08-01T11:06:01Z</time>
      </trkpt>
      <trkpt lat="42.20002" lon="1.17982">
        <ele>1384.51</ele>
        <time>2021-08-01T11:06:05Z</time>
      </trkpt>
      <trkpt lat="42.19979" lon="1.17952">
        <ele>1380.49</ele>
        <time>2021-08-01T11:06:11Z</time>
      </trkpt>
      <trkpt lat="42.19982" lon="1.17941">
        <ele>1379.22</ele>
        <time>2021-08-01T11:06:13Z</time>
      </trkpt>
      <trkpt lat="42.19986" lon="1.17918">
        <ele>1376.92</ele>
        <time>2021-08-01T11:06:16Z</time>
      </trkpt>
      <trkpt lat="42.1998" lon="1.17899">
        <ele>1374.8</ele>
        <time>2021-08-01T11:06:19Z</time>
      </trkpt>
      <trkpt lat="42.19976" lon="1.17895">
        <ele>1374.01</ele>
        <time>2021-08-01T11:06:20Z</time>
      </trkpt>
      <trkpt lat="42.19972" lon="1.17892">
        <ele>1373.26</ele>
        <time>2021-08-01T11:06:21Z</time>
      </trkpt>
      <trkpt lat="42.19967" lon="1.17886">
        <ele>1372.64</ele>
        <time>2021-08-01T11:06:22Z</time>
      </trkpt>
      <trkpt lat="42.19963" lon="1.17879">
        <ele>1372.19</ele>
        <time>2021-08-01T11:06:23Z</time>
      </trkpt>
      <trkpt lat="42.1996" lon="1.1787">
        <ele>1371.89</ele>
        <time>2021-08-01T11:06:24Z</time>
      </trkpt>
      <trkpt lat="42.19958" lon="1.1786">
        <ele>1371.68</ele>
        <time>2021-08-01T11:06:25Z</time>
      </trkpt>
      <trkpt lat="42.19957" lon="1.17848">
        <ele>1371.5</ele>
        <time>2021-08-01T11:06:26Z</time>
      </trkpt>
      <trkpt lat="42.19957" lon="1.17835">
        <ele>1371.36</ele>
        <time>2021-08-01T11:06:27Z</time>
      </trkpt>
      <trkpt lat="42.19956" lon="1.17822">
        <ele>1371.29</ele>
        <time>2021-08-01T11:06:28Z</time>
      </trkpt>
      <trkpt lat="42.19946" lon="1.1777">
        <ele>1371.6</ele>
        <time>2021-08-01T11:06:32Z</time>
      </trkpt>
      <trkpt lat="42.19934" lon="1.17741">
        <ele>1371.96</ele>
        <time>2021-08-01T11:06:35Z</time>
      </trkpt>
      <trkpt lat="42.19933" lon="1.17704">
        <ele>1372.3</ele>
        <time>2021-08-01T11:06:39Z</time>
      </trkpt>
      <trkpt lat="42.19951" lon="1.17655">
        <ele>1372.85</ele>
        <time>2021-08-01T11:06:44Z</time>
      </trkpt>
      <trkpt lat="42.19938" lon="1.17602">
        <ele>1370.45</ele>
        <time>2021-08-01T11:06:52Z</time>
      </trkpt>
      <trkpt lat="42.19934" lon="1.17554">
        <ele>1369.19</ele>
        <time>2021-08-01T11:06:58Z</time>
      </trkpt>
      <trkpt lat="42.19911" lon="1.17492">
        <ele>1369.55</ele>
        <time>2021-08-01T11:07:06Z</time>
      </trkpt>
      <trkpt lat="42.19924" lon="1.17411">
        <ele>1370.11</ele>
        <time>2021-08-01T11:07:15Z</time>
      </trkpt>
      <trkpt lat="42.19909" lon="1.17389">
        <ele>1368.68</ele>
        <time>2021-08-01T11:07:20Z</time>
      </trkpt>
      <trkpt lat="42.19857" lon="1.17392">
        <ele>1367.54</ele>
        <time>2021-08-01T11:07:28Z</time>
      </trkpt>
      <trkpt lat="42.19812" lon="1.1734">
        <ele>1368.41</ele>
        <time>2021-08-01T11:07:35Z</time>
      </trkpt>
      <trkpt lat="42.19807" lon="1.17315">
        <ele>1368.26</ele>
        <time>2021-08-01T11:07:37Z</time>
      </trkpt>
      <trkpt lat="42.19802" lon="1.17254">
        <ele>1367.39</ele>
        <time>2021-08-01T11:07:42Z</time>
      </trkpt>
      <trkpt lat="42.19818" lon="1.17238">
        <ele>1366.28</ele>
        <time>2021-08-01T11:07:46Z</time>
      </trkpt>
      <trkpt lat="42.19838" lon="1.17226">
        <ele>1366.13</ele>
        <time>2021-08-01T11:07:49Z</time>
      </trkpt>
      <trkpt lat="42.19857" lon="1.17202">
        <ele>1366.78</ele>
        <time>2021-08-01T11:07:53Z</time>
      </trkpt>
      <trkpt lat="42.19928" lon="1.1714">
        <ele>1370.25</ele>
        <time>2021-08-01T11:08:02Z</time>
      </trkpt>
      <trkpt lat="42.19946" lon="1.17118">
        <ele>1371.83</ele>
        <time>2021-08-01T11:08:05Z</time>
      </trkpt>
      <trkpt lat="42.19922" lon="1.1706">
        <ele>1373.77</ele>
        <time>2021-08-01T11:08:12Z</time>
      </trkpt>
      <trkpt lat="42.19902" lon="1.17058">
        <ele>1374.8</ele>
        <time>2021-08-01T11:08:15Z</time>
      </trkpt>
      <trkpt lat="42.19853" lon="1.17066">
        <ele>1378.85</ele>
        <time>2021-08-01T11:08:23Z</time>
      </trkpt>
      <trkpt lat="42.19847" lon="1.17043">
        <ele>1380.48</ele>
        <time>2021-08-01T11:08:26Z</time>
      </trkpt>
      <trkpt lat="42.19846" lon="1.16967">
        <ele>1384.25</ele>
        <time>2021-08-01T11:08:34Z</time>
      </trkpt>
      <trkpt lat="42.19843" lon="1.16897">
        <ele>1387.47</ele>
        <time>2021-08-01T11:08:41Z</time>
      </trkpt>
      <trkpt lat="42.19842" lon="1.16874">
        <ele>1388.75</ele>
        <time>2021-08-01T11:08:43Z</time>
      </trkpt>
      <trkpt lat="42.19843" lon="1.16863">
        <ele>1389.31</ele>
        <time>2021-08-01T11:08:44Z</time>
      </trkpt>
      <trkpt lat="42.19845" lon="1.16852">
        <ele>1389.89</ele>
        <time>2021-08-01T11:08:45Z</time>
      </trkpt>
      <trkpt lat="42.19848" lon="1.16841">
        <ele>1390.54</ele>
        <time>2021-08-01T11:08:46Z</time>
      </trkpt>
      <trkpt lat="42.19854" lon="1.16831">
        <ele>1391.15</ele>
        <time>2021-08-01T11:08:47Z</time>
      </trkpt>
      <trkpt lat="42.19859" lon="1.16822">
        <ele>1391.74</ele>
        <time>2021-08-01T11:08:48Z</time>
      </trkpt>
      <trkpt lat="42.19865" lon="1.16814">
        <ele>1392.38</ele>
        <time>2021-08-01T11:08:49Z</time>
      </trkpt>
      <trkpt lat="42.19871" lon="1.16807">
        <ele>1392.96</ele>
        <time>2021-08-01T11:08:50Z</time>
      </trkpt>
      <trkpt lat="42.19879" lon="1.16801">
        <ele>1393.5</ele>
        <time>2021-08-01T11:08:51Z</time>
      </trkpt>
      <trkpt lat="42.1993" lon="1.16746">
        <ele>1397.64</ele>
        <time>2021-08-01T11:08:59Z</time>
      </trkpt>
      <trkpt lat="42.19924" lon="1.16718">
        <ele>1399.26</ele>
        <time>2021-08-01T11:09:02Z</time>
      </trkpt>
      <trkpt lat="42.19923" lon="1.16675">
        <ele>1401.61</ele>
        <time>2021-08-01T11:09:06Z</time>
      </trkpt>
      <trkpt lat="42.19916" lon="1.16614">
        <ele>1404.81</ele>
        <time>2021-08-01T11:09:12Z</time>
      </trkpt>
      <trkpt lat="42.19891" lon="1.16574">
        <ele>1408.12</ele>
        <time>2021-08-01T11:09:18Z</time>
      </trkpt>
      <trkpt lat="42.19881" lon="1.16551">
        <ele>1409.75</ele>
        <time>2021-08-01T11:09:21Z</time>
      </trkpt>
      <trkpt lat="42.19857" lon="1.16515">
        <ele>1413.47</ele>
        <time>2021-08-01T11:09:27Z</time>
      </trkpt>
      <trkpt lat="42.1983" lon="1.16474">
        <ele>1418.27</ele>
        <time>2021-08-01T11:09:33Z</time>
      </trkpt>
      <trkpt lat="42.19813" lon="1.16461">
        <ele>1420.74</ele>
        <time>2021-08-01T11:09:36Z</time>
      </trkpt>
      <trkpt lat="42.19794" lon="1.16421">
        <ele>1423.69</ele>
        <time>2021-08-01T11:09:42Z</time>
      </trkpt>
      <trkpt lat="42.19791" lon="1.16404">
        <ele>1424.38</ele>
        <time>2021-08-01T11:09:44Z</time>
      </trkpt>
      <trkpt lat="42.19751" lon="1.16363">
        <ele>1424.51</ele>
        <time>2021-08-01T11:09:52Z</time>
      </trkpt>
      <trkpt lat="42.19727" lon="1.16324">
        <ele>1423.72</ele>
        <time>2021-08-01T11:09:57Z</time>
      </trkpt>
      <trkpt lat="42.19692" lon="1.16205">
        <ele>1420.53</ele>
        <time>2021-08-01T11:10:10Z</time>
      </trkpt>
      <trkpt lat="42.19689" lon="1.16187">
        <ele>1419.56</ele>
        <time>2021-08-01T11:10:12Z</time>
      </trkpt>
      <trkpt lat="42.19694" lon="1.16123">
        <ele>1417.06</ele>
        <time>2021-08-01T11:10:18Z</time>
      </trkpt>
      <trkpt lat="42.19709" lon="1.16088">
        <ele>1415.39</ele>
        <time>2021-08-01T11:10:22Z</time>
      </trkpt>
      <trkpt lat="42.1973" lon="1.16057">
        <ele>1413.89</ele>
        <time>2021-08-01T11:10:26Z</time>
      </trkpt>
      <trkpt lat="42.19751" lon="1.16005">
        <ele>1410.99</ele>
        <time>2021-08-01T11:10:32Z</time>
      </trkpt>
      <trkpt lat="42.19775" lon="1.15996">
        <ele>1408.38</ele>
        <time>2021-08-01T11:10:36Z</time>
      </trkpt>
      <trkpt lat="42.19813" lon="1.1598">
        <ele>1404.6</ele>
        <time>2021-08-01T11:10:42Z</time>
      </trkpt>
      <trkpt lat="42.19831" lon="1.15952">
        <ele>1400.72</ele>
        <time>2021-08-01T11:10:48Z</time>
      </trkpt>
      <trkpt lat="42.19831" lon="1.15917">
        <ele>1397.42</ele>
        <time>2021-08-01T11:10:54Z</time>
      </trkpt>
      <trkpt lat="42.19845" lon="1.15928">
        <ele>1395.71</ele>
        <time>2021-08-01T11:10:58Z</time>
      </trkpt>
      <trkpt lat="42.19836" lon="1.15982">
        <ele>1392.26</ele>
        <time>2021-08-01T11:11:05Z</time>
      </trkpt>
      <trkpt lat="42.19827" lon="1.16001">
        <ele>1391.15</ele>
        <time>2021-08-01T11:11:07Z</time>
      </trkpt>
      <trkpt lat="42.19816" lon="1.16041">
        <ele>1388.58</ele>
        <time>2021-08-01T11:11:11Z</time>
      </trkpt>
      <trkpt lat="42.19807" lon="1.16099">
        <ele>1384.37</ele>
        <time>2021-08-01T11:11:17Z</time>
      </trkpt>
      <trkpt lat="42.1981" lon="1.16108">
        <ele>1383.72</ele>
        <time>2021-08-01T11:11:18Z</time>
      </trkpt>
      <trkpt lat="42.19813" lon="1.16124">
        <ele>1381.64</ele>
        <time>2021-08-01T11:11:21Z</time>
      </trkpt>
      <trkpt lat="42.19838" lon="1.16116">
        <ele>1378.11</ele>
        <time>2021-08-01T11:11:26Z</time>
      </trkpt>
      <trkpt lat="42.19851" lon="1.16095">
        <ele>1375.79</ele>
        <time>2021-08-01T11:11:29Z</time>
      </trkpt>
      <trkpt lat="42.19863" lon="1.16073">
        <ele>1374.01</ele>
        <time>2021-08-01T11:11:32Z</time>
      </trkpt>
      <trkpt lat="42.19876" lon="1.16056">
        <ele>1372.42</ele>
        <time>2021-08-01T11:11:35Z</time>
      </trkpt>
      <trkpt lat="42.19885" lon="1.16035">
        <ele>1371.1</ele>
        <time>2021-08-01T11:11:38Z</time>
      </trkpt>
      <trkpt lat="42.1989" lon="1.15999">
        <ele>1369.12</ele>
        <time>2021-08-01T11:11:42Z</time>
      </trkpt>
      <trkpt lat="42.19909" lon="1.15938">
        <ele>1367.08</ele>
        <time>2021-08-01T11:11:48Z</time>
      </trkpt>
      <trkpt lat="42.19951" lon="1.15858">
        <ele>1363.26</ele>
        <time>2021-08-01T11:11:57Z</time>
      </trkpt>
      <trkpt lat="42.19972" lon="1.15825">
        <ele>1361.43</ele>
        <time>2021-08-01T11:12:00Z</time>
      </trkpt>
      <trkpt lat="42.19985" lon="1.15792">
        <ele>1359.24</ele>
        <time>2021-08-01T11:12:03Z</time>
      </trkpt>
      <trkpt lat="42.19984" lon="1.15727">
        <ele>1355.11</ele>
        <time>2021-08-01T11:12:08Z</time>
      </trkpt>
      <trkpt lat="42.19982" lon="1.15716">
        <ele>1354.36</ele>
        <time>2021-08-01T11:12:09Z</time>
      </trkpt>
      <trkpt lat="42.19974" lon="1.15657">
        <ele>1350.45</ele>
        <time>2021-08-01T11:12:14Z</time>
      </trkpt>
      <trkpt lat="42.19961" lon="1.15605">
        <ele>1347.18</ele>
        <time>2021-08-01T11:12:19Z</time>
      </trkpt>
      <trkpt lat="42.19959" lon="1.15578">
        <ele>1344.62</ele>
        <time>2021-08-01T11:12:23Z</time>
      </trkpt>
      <trkpt lat="42.19954" lon="1.15566">
        <ele>1342.9</ele>
        <time>2021-08-01T11:12:25Z</time>
      </trkpt>
      <trkpt lat="42.19953" lon="1.15532">
        <ele>1340.64</ele>
        <time>2021-08-01T11:12:29Z</time>
      </trkpt>
      <trkpt lat="42.1998" lon="1.15412">
        <ele>1337.41</ele>
        <time>2021-08-01T11:12:38Z</time>
      </trkpt>
      <trkpt lat="42.2" lon="1.15334">
        <ele>1333.97</ele>
        <time>2021-08-01T11:12:44Z</time>
      </trkpt>
      <trkpt lat="42.20009" lon="1.15293">
        <ele>1332.02</ele>
        <time>2021-08-01T11:12:47Z</time>
      </trkpt>
      <trkpt lat="42.2001" lon="1.15274">
        <ele>1330.52</ele>
        <time>2021-08-01T11:12:49Z</time>
      </trkpt>
      <trkpt lat="42.20017" lon="1.15263">
        <ele>1328.16</ele>
        <time>2021-08-01T11:12:52Z</time>
      </trkpt>
      <trkpt lat="42.20019" lon="1.15305">
        <ele>1324.01</ele>
        <time>2021-08-01T11:12:58Z</time>
      </trkpt>
      <trkpt lat="42.20017" lon="1.1532">
        <ele>1322.84</ele>
        <time>2021-08-01T11:13:00Z</time>
      </trkpt>
      <trkpt lat="42.20038" lon="1.15339">
        <ele>1319.05</ele>
        <time>2021-08-01T11:13:06Z</time>
      </trkpt>
      <trkpt lat="42.20041" lon="1.15313">
        <ele>1317.1</ele>
        <time>2021-08-01T11:13:09Z</time>
      </trkpt>
      <trkpt lat="42.20045" lon="1.15274">
        <ele>1314.98</ele>
        <time>2021-08-01T11:13:13Z</time>
      </trkpt>
      <trkpt lat="42.20069" lon="1.15226">
        <ele>1311.96</ele>
        <time>2021-08-01T11:13:19Z</time>
      </trkpt>
      <trkpt lat="42.20081" lon="1.15185">
        <ele>1308.63</ele>
        <time>2021-08-01T11:13:24Z</time>
      </trkpt>
      <trkpt lat="42.20085" lon="1.15163">
        <ele>1306.9</ele>
        <time>2021-08-01T11:13:27Z</time>
      </trkpt>
      <trkpt lat="42.20085" lon="1.15133">
        <ele>1304.82</ele>
        <time>2021-08-01T11:13:31Z</time>
      </trkpt>
      <trkpt lat="42.20111" lon="1.15068">
        <ele>1302.47</ele>
        <time>2021-08-01T11:13:38Z</time>
      </trkpt>
      <trkpt lat="42.20109" lon="1.15033">
        <ele>1300.86</ele>
        <time>2021-08-01T11:13:42Z</time>
      </trkpt>
      <trkpt lat="42.20107" lon="1.15013">
        <ele>1299.76</ele>
        <time>2021-08-01T11:13:44Z</time>
      </trkpt>
      <trkpt lat="42.20093" lon="1.14944">
        <ele>1295.96</ele>
        <time>2021-08-01T11:13:51Z</time>
      </trkpt>
      <trkpt lat="42.20091" lon="1.14935">
        <ele>1295.36</ele>
        <time>2021-08-01T11:13:52Z</time>
      </trkpt>
      <trkpt lat="42.20065" lon="1.14868">
        <ele>1290.99</ele>
        <time>2021-08-01T11:13:58Z</time>
      </trkpt>
      <trkpt lat="42.2005" lon="1.1482">
        <ele>1286.68</ele>
        <time>2021-08-01T11:14:02Z</time>
      </trkpt>
      <trkpt lat="42.2004" lon="1.14787">
        <ele>1284.15</ele>
        <time>2021-08-01T11:14:05Z</time>
      </trkpt>
      <trkpt lat="42.20025" lon="1.14757">
        <ele>1281.49</ele>
        <time>2021-08-01T11:14:08Z</time>
      </trkpt>
      <trkpt lat="42.19999" lon="1.14734">
        <ele>1278.09</ele>
        <time>2021-08-01T11:14:12Z</time>
      </trkpt>
      <trkpt lat="42.19981" lon="1.14696">
        <ele>1274.79</ele>
        <time>2021-08-01T11:14:17Z</time>
      </trkpt>
      <trkpt lat="42.19973" lon="1.14668">
        <ele>1273.49</ele>
        <time>2021-08-01T11:14:20Z</time>
      </trkpt>
      <trkpt lat="42.19936" lon="1.14582">
        <ele>1269.93</ele>
        <time>2021-08-01T11:14:29Z</time>
      </trkpt>
      <trkpt lat="42.19922" lon="1.14551">
        <ele>1268.56</ele>
        <time>2021-08-01T11:14:32Z</time>
      </trkpt>
      <trkpt lat="42.19914" lon="1.14506">
        <ele>1266.85</ele>
        <time>2021-08-01T11:14:36Z</time>
      </trkpt>
      <trkpt lat="42.19901" lon="1.14444">
        <ele>1263.92</ele>
        <time>2021-08-01T11:14:43Z</time>
      </trkpt>
      <trkpt lat="42.19916" lon="1.14446">
        <ele>1261.27</ele>
        <time>2021-08-01T11:14:48Z</time>
      </trkpt>
      <trkpt lat="42.19918" lon="1.14451">
        <ele>1260.75</ele>
        <time>2021-08-01T11:14:49Z</time>
      </trkpt>
      <trkpt lat="42.19926" lon="1.14472">
        <ele>1258.64</ele>
        <time>2021-08-01T11:14:53Z</time>
      </trkpt>
      <trkpt lat="42.19929" lon="1.1449">
        <ele>1256.84</ele>
        <time>2021-08-01T11:14:56Z</time>
      </trkpt>
      <trkpt lat="42.19945" lon="1.14515">
        <ele>1254.62</ele>
        <time>2021-08-01T11:15:00Z</time>
      </trkpt>
      <trkpt lat="42.19969" lon="1.14546">
        <ele>1251.97</ele>
        <time>2021-08-01T11:15:05Z</time>
      </trkpt>
      <trkpt lat="42.20009" lon="1.14551">
        <ele>1247.97</ele>
        <time>2021-08-01T11:15:12Z</time>
      </trkpt>
      <trkpt lat="42.19998" lon="1.14517">
        <ele>1245.27</ele>
        <time>2021-08-01T11:15:17Z</time>
      </trkpt>
      <trkpt lat="42.19983" lon="1.1446">
        <ele>1242.87</ele>
        <time>2021-08-01T11:15:24Z</time>
      </trkpt>
      <trkpt lat="42.19981" lon="1.14376">
        <ele>1239.04</ele>
        <time>2021-08-01T11:15:33Z</time>
      </trkpt>
      <trkpt lat="42.19992" lon="1.1432">
        <ele>1235.71</ele>
        <time>2021-08-01T11:15:39Z</time>
      </trkpt>
      <trkpt lat="42.19993" lon="1.1431">
        <ele>1235.14</ele>
        <time>2021-08-01T11:15:40Z</time>
      </trkpt>
      <trkpt lat="42.19992" lon="1.14279">
        <ele>1233.29</ele>
        <time>2021-08-01T11:15:43Z</time>
      </trkpt>
      <trkpt lat="42.19995" lon="1.14249">
        <ele>1231.97</ele>
        <time>2021-08-01T11:15:46Z</time>
      </trkpt>
      <trkpt lat="42.19994" lon="1.14212">
        <ele>1229.85</ele>
        <time>2021-08-01T11:15:50Z</time>
      </trkpt>
      <trkpt lat="42.20001" lon="1.14188">
        <ele>1225.81</ele>
        <time>2021-08-01T11:15:57Z</time>
      </trkpt>
      <trkpt lat="42.20006" lon="1.14183">
        <ele>1224.88</ele>
        <time>2021-08-01T11:15:59Z</time>
      </trkpt>
      <trkpt lat="42.20021" lon="1.14168">
        <ele>1221.47</ele>
        <time>2021-08-01T11:16:06Z</time>
      </trkpt>
      <trkpt lat="42.2002" lon="1.14165">
        <ele>1218.46</ele>
        <time>2021-08-01T11:16:22Z</time>
      </trkpt>
      <trkpt lat="42.20054" lon="1.1415">
        <ele>1217.15</ele>
        <time>2021-08-01T11:16:30Z</time>
      </trkpt>
      <trkpt lat="42.2006" lon="1.14145">
        <ele>1216.75</ele>
        <time>2021-08-01T11:16:31Z</time>
      </trkpt>
      <trkpt lat="42.2007" lon="1.14135">
        <ele>1215.82</ele>
        <time>2021-08-01T11:16:33Z</time>
      </trkpt>
      <trkpt lat="42.20086" lon="1.14108">
        <ele>1214.12</ele>
        <time>2021-08-01T11:16:37Z</time>
      </trkpt>
      <trkpt lat="42.201" lon="1.14064">
        <ele>1212.58</ele>
        <time>2021-08-01T11:16:41Z</time>
      </trkpt>
      <trkpt lat="42.20107" lon="1.14002">
        <ele>1208.69</ele>
        <time>2021-08-01T11:16:47Z</time>
      </trkpt>
      <trkpt lat="42.20109" lon="1.1396">
        <ele>1205.26</ele>
        <time>2021-08-01T11:16:52Z</time>
      </trkpt>
      <trkpt lat="42.20117" lon="1.13912">
        <ele>1202.08</ele>
        <time>2021-08-01T11:16:57Z</time>
      </trkpt>
      <trkpt lat="42.20132" lon="1.13865">
        <ele>1198.86</ele>
        <time>2021-08-01T11:17:02Z</time>
      </trkpt>
      <trkpt lat="42.20154" lon="1.13808">
        <ele>1195.35</ele>
        <time>2021-08-01T11:17:09Z</time>
      </trkpt>
      <trkpt lat="42.20163" lon="1.13786">
        <ele>1193.09</ele>
        <time>2021-08-01T11:17:12Z</time>
      </trkpt>
      <trkpt lat="42.20169" lon="1.13777">
        <ele>1191.89</ele>
        <time>2021-08-01T11:17:14Z</time>
      </trkpt>
      <trkpt lat="42.20182" lon="1.13753">
        <ele>1188.03</ele>
        <time>2021-08-01T11:17:20Z</time>
      </trkpt>
      <trkpt lat="42.20198" lon="1.13733">
        <ele>1184.79</ele>
        <time>2021-08-01T11:17:25Z</time>
      </trkpt>
      <trkpt lat="42.20214" lon="1.13675">
        <ele>1181.74</ele>
        <time>2021-08-01T11:17:32Z</time>
      </trkpt>
      <trkpt lat="42.20201" lon="1.13634">
        <ele>1177.85</ele>
        <time>2021-08-01T11:17:39Z</time>
      </trkpt>
      <trkpt lat="42.20191" lon="1.13647">
        <ele>1176.18</ele>
        <time>2021-08-01T11:17:42Z</time>
      </trkpt>
      <trkpt lat="42.20145" lon="1.13712">
        <ele>1171.87</ele>
        <time>2021-08-01T11:17:52Z</time>
      </trkpt>
      <trkpt lat="42.2011" lon="1.13756">
        <ele>1169.26</ele>
        <time>2021-08-01T11:18:00Z</time>
      </trkpt>
      <trkpt lat="42.20109" lon="1.13738">
        <ele>1166.89</ele>
        <time>2021-08-01T11:18:05Z</time>
      </trkpt>
      <trkpt lat="42.20112" lon="1.13733">
        <ele>1166.45</ele>
        <time>2021-08-01T11:18:06Z</time>
      </trkpt>
      <trkpt lat="42.20129" lon="1.13695">
        <ele>1164.9</ele>
        <time>2021-08-01T11:18:12Z</time>
      </trkpt>
      <trkpt lat="42.20142" lon="1.13669">
        <ele>1164.27</ele>
        <time>2021-08-01T11:18:16Z</time>
      </trkpt>
      <trkpt lat="42.20145" lon="1.13594">
        <ele>1163.13</ele>
        <time>2021-08-01T11:18:25Z</time>
      </trkpt>
      <trkpt lat="42.20163" lon="1.13563">
        <ele>1162.12</ele>
        <time>2021-08-01T11:18:30Z</time>
      </trkpt>
      <trkpt lat="42.20182" lon="1.13513">
        <ele>1160.04</ele>
        <time>2021-08-01T11:18:39Z</time>
      </trkpt>
      <trkpt lat="42.20173" lon="1.13489">
        <ele>1158.76</ele>
        <time>2021-08-01T11:18:44Z</time>
      </trkpt>
      <trkpt lat="42.20171" lon="1.13478">
        <ele>1158.18</ele>
        <time>2021-08-01T11:18:46Z</time>
      </trkpt>
      <trkpt lat="42.20171" lon="1.13465">
        <ele>1157.76</ele>
        <time>2021-08-01T11:18:48Z</time>
      </trkpt>
      <trkpt lat="42.20181" lon="1.13424">
        <ele>1156.11</ele>
        <time>2021-08-01T11:18:54Z</time>
      </trkpt>
      <trkpt lat="42.20193" lon="1.13392">
        <ele>1154.14</ele>
        <time>2021-08-01T11:18:59Z</time>
      </trkpt>
      <trkpt lat="42.20191" lon="1.13358">
        <ele>1152.01</ele>
        <time>2021-08-01T11:19:03Z</time>
      </trkpt>
      <trkpt lat="42.20192" lon="1.13259">
        <ele>1148.62</ele>
        <time>2021-08-01T11:19:14Z</time>
      </trkpt>
      <trkpt lat="42.20194" lon="1.13226">
        <ele>1146.86</ele>
        <time>2021-08-01T11:19:18Z</time>
      </trkpt>
      <trkpt lat="42.20183" lon="1.13192">
        <ele>1144.46</ele>
        <time>2021-08-01T11:19:22Z</time>
      </trkpt>
      <trkpt lat="42.20185" lon="1.13169">
        <ele>1141.85</ele>
        <time>2021-08-01T11:19:26Z</time>
      </trkpt>
      <trkpt lat="42.20188" lon="1.13156">
        <ele>1140.42</ele>
        <time>2021-08-01T11:19:28Z</time>
      </trkpt>
      <trkpt lat="42.20194" lon="1.1313">
        <ele>1137.33</ele>
        <time>2021-08-01T11:19:32Z</time>
      </trkpt>
      <trkpt lat="42.20212" lon="1.13084">
        <ele>1132.85</ele>
        <time>2021-08-01T11:19:38Z</time>
      </trkpt>
      <trkpt lat="42.20225" lon="1.13042">
        <ele>1129.78</ele>
        <time>2021-08-01T11:19:43Z</time>
      </trkpt>
      <trkpt lat="42.20234" lon="1.13017">
        <ele>1128.28</ele>
        <time>2021-08-01T11:19:46Z</time>
      </trkpt>
      <trkpt lat="42.20239" lon="1.13001">
        <ele>1127.02</ele>
        <time>2021-08-01T11:19:48Z</time>
      </trkpt>
      <trkpt lat="42.20238" lon="1.12962">
        <ele>1124.13</ele>
        <time>2021-08-01T11:19:53Z</time>
      </trkpt>
      <trkpt lat="42.20235" lon="1.12952">
        <ele>1123.09</ele>
        <time>2021-08-01T11:19:55Z</time>
      </trkpt>
      <trkpt lat="42.20246" lon="1.12902">
        <ele>1119.6</ele>
        <time>2021-08-01T11:20:03Z</time>
      </trkpt>
      <trkpt lat="42.20256" lon="1.12896">
        <ele>1118.68</ele>
        <time>2021-08-01T11:20:05Z</time>
      </trkpt>
      <trkpt lat="42.20265" lon="1.12889">
        <ele>1117.67</ele>
        <time>2021-08-01T11:20:07Z</time>
      </trkpt>
      <trkpt lat="42.20292" lon="1.12874">
        <ele>1115.6</ele>
        <time>2021-08-01T11:20:12Z</time>
      </trkpt>
      <trkpt lat="42.20308" lon="1.12871">
        <ele>1114.11</ele>
        <time>2021-08-01T11:20:15Z</time>
      </trkpt>
      <trkpt lat="42.20324" lon="1.12826">
        <ele>1110.58</ele>
        <time>2021-08-01T11:20:23Z</time>
      </trkpt>
      <trkpt lat="42.20324" lon="1.12724">
        <ele>1106.88</ele>
        <time>2021-08-01T11:20:34Z</time>
      </trkpt>
      <trkpt lat="42.20324" lon="1.12657">
        <ele>1103.75</ele>
        <time>2021-08-01T11:20:41Z</time>
      </trkpt>
      <trkpt lat="42.20305" lon="1.12614">
        <ele>1101.77</ele>
        <time>2021-08-01T11:20:46Z</time>
      </trkpt>
      <trkpt lat="42.20303" lon="1.12598">
        <ele>1101.14</ele>
        <time>2021-08-01T11:20:48Z</time>
      </trkpt>
      <trkpt lat="42.2031" lon="1.12566">
        <ele>1099.56</ele>
        <time>2021-08-01T11:20:52Z</time>
      </trkpt>
      <trkpt lat="42.20316" lon="1.12543">
        <ele>1098.5</ele>
        <time>2021-08-01T11:20:55Z</time>
      </trkpt>
      <trkpt lat="42.20328" lon="1.12504">
        <ele>1096.1</ele>
        <time>2021-08-01T11:21:01Z</time>
      </trkpt>
      <trkpt lat="42.20317" lon="1.12478">
        <ele>1094.5</ele>
        <time>2021-08-01T11:21:05Z</time>
      </trkpt>
      <trkpt lat="42.20319" lon="1.12415">
        <ele>1091.8</ele>
        <time>2021-08-01T11:21:13Z</time>
      </trkpt>
      <trkpt lat="42.20323" lon="1.12408">
        <ele>1091.43</ele>
        <time>2021-08-01T11:21:14Z</time>
      </trkpt>
      <trkpt lat="42.20357" lon="1.12363">
        <ele>1088.31</ele>
        <time>2021-08-01T11:21:21Z</time>
      </trkpt>
      <trkpt lat="42.20383" lon="1.12358">
        <ele>1086.4</ele>
        <time>2021-08-01T11:21:25Z</time>
      </trkpt>
      <trkpt lat="42.20426" lon="1.12367">
        <ele>1082.55</ele>
        <time>2021-08-01T11:21:33Z</time>
      </trkpt>
      <trkpt lat="42.20447" lon="1.12377">
        <ele>1079.85</ele>
        <time>2021-08-01T11:21:39Z</time>
      </trkpt>
      <trkpt lat="42.20452" lon="1.12351">
        <ele>1077.04</ele>
        <time>2021-08-01T11:21:46Z</time>
      </trkpt>
      <trkpt lat="42.20399" lon="1.12285">
        <ele>1074.28</ele>
        <time>2021-08-01T11:21:56Z</time>
      </trkpt>
      <trkpt lat="42.20391" lon="1.12273">
        <ele>1073.76</ele>
        <time>2021-08-01T11:21:58Z</time>
      </trkpt>
      <trkpt lat="42.20384" lon="1.12255">
        <ele>1072.89</ele>
        <time>2021-08-01T11:22:01Z</time>
      </trkpt>
      <trkpt lat="42.20375" lon="1.12213">
        <ele>1070.86</ele>
        <time>2021-08-01T11:22:07Z</time>
      </trkpt>
      <trkpt lat="42.20393" lon="1.12152">
        <ele>1068.27</ele>
        <time>2021-08-01T11:22:15Z</time>
      </trkpt>
      <trkpt lat="42.204" lon="1.12118">
        <ele>1065.23</ele>
        <time>2021-08-01T11:22:23Z</time>
      </trkpt>
      <trkpt lat="42.20333" lon="1.12096">
        <ele>1063.61</ele>
        <time>2021-08-01T11:22:31Z</time>
      </trkpt>
      <trkpt lat="42.20303" lon="1.12055">
        <ele>1061.79</ele>
        <time>2021-08-01T11:22:37Z</time>
      </trkpt>
      <trkpt lat="42.20296" lon="1.12036">
        <ele>1061.16</ele>
        <time>2021-08-01T11:22:39Z</time>
      </trkpt>
      <trkpt lat="42.20298" lon="1.11998">
        <ele>1059.84</ele>
        <time>2021-08-01T11:22:43Z</time>
      </trkpt>
      <trkpt lat="42.20333" lon="1.11887">
        <ele>1056.63</ele>
        <time>2021-08-01T11:22:55Z</time>
      </trkpt>
      <trkpt lat="42.2036" lon="1.1179">
        <ele>1053.99</ele>
        <time>2021-08-01T11:23:05Z</time>
      </trkpt>
      <trkpt lat="42.20386" lon="1.11727">
        <ele>1051.99</ele>
        <time>2021-08-01T11:23:12Z</time>
      </trkpt>
      <trkpt lat="42.20388" lon="1.11701">
        <ele>1050.9</ele>
        <time>2021-08-01T11:23:15Z</time>
      </trkpt>
      <trkpt lat="42.20411" lon="1.11674">
        <ele>1049.12</ele>
        <time>2021-08-01T11:23:21Z</time>
      </trkpt>
      <trkpt lat="42.20419" lon="1.11666">
        <ele>1048.57</ele>
        <time>2021-08-01T11:23:23Z</time>
      </trkpt>
      <trkpt lat="42.20408" lon="1.11633">
        <ele>1047.66</ele>
        <time>2021-08-01T11:23:28Z</time>
      </trkpt>
      <trkpt lat="42.20391" lon="1.11581">
        <ele>1046.8</ele>
        <time>2021-08-01T11:23:34Z</time>
      </trkpt>
      <trkpt lat="42.2041" lon="1.11521">
        <ele>1045.79</ele>
        <time>2021-08-01T11:23:42Z</time>
      </trkpt>
      <trkpt lat="42.20416" lon="1.11518">
        <ele>1045.48</ele>
        <time>2021-08-01T11:23:43Z</time>
      </trkpt>
      <trkpt lat="42.20425" lon="1.11513">
        <ele>1044.99</ele>
        <time>2021-08-01T11:23:45Z</time>
      </trkpt>
      <trkpt lat="42.20419" lon="1.1149">
        <ele>1043.53</ele>
        <time>2021-08-01T11:23:51Z</time>
      </trkpt>
      <trkpt lat="42.20406" lon="1.11478">
        <ele>1043.2</ele>
        <time>2021-08-01T11:23:53Z</time>
      </trkpt>
      <trkpt lat="42.20392" lon="1.11442">
        <ele>1042.25</ele>
        <time>2021-08-01T11:23:58Z</time>
      </trkpt>
      <trkpt lat="42.20366" lon="1.11387">
        <ele>1040.96</ele>
        <time>2021-08-01T11:24:08Z</time>
      </trkpt>
      <trkpt lat="42.20368" lon="1.11372">
        <ele>1040.63</ele>
        <time>2021-08-01T11:24:10Z</time>
      </trkpt>
      <trkpt lat="42.20373" lon="1.11347">
        <ele>1040.26</ele>
        <time>2021-08-01T11:24:13Z</time>
      </trkpt>
      <trkpt lat="42.20388" lon="1.11327">
        <ele>1039.47</ele>
        <time>2021-08-01T11:24:17Z</time>
      </trkpt>
      <trkpt lat="42.20399" lon="1.11318">
        <ele>1039.05</ele>
        <time>2021-08-01T11:24:19Z</time>
      </trkpt>
      <trkpt lat="42.20425" lon="1.11263">
        <ele>1037.99</ele>
        <time>2021-08-01T11:24:26Z</time>
      </trkpt>
      <trkpt lat="42.20426" lon="1.11246">
        <ele>1037.61</ele>
        <time>2021-08-01T11:24:28Z</time>
      </trkpt>
      <trkpt lat="42.20479" lon="1.11219">
        <ele>1036.33</ele>
        <time>2021-08-01T11:24:36Z</time>
      </trkpt>
      <trkpt lat="42.20487" lon="1.11219">
        <ele>1035.98</ele>
        <time>2021-08-01T11:24:37Z</time>
      </trkpt>
      <trkpt lat="42.20536" lon="1.11201">
        <ele>1033.47</ele>
        <time>2021-08-01T11:24:44Z</time>
      </trkpt>
      <trkpt lat="42.20547" lon="1.11185">
        <ele>1032.76</ele>
        <time>2021-08-01T11:24:46Z</time>
      </trkpt>
      <trkpt lat="42.20575" lon="1.11111">
        <ele>1029</ele>
        <time>2021-08-01T11:24:55Z</time>
      </trkpt>
      <trkpt lat="42.20575" lon="1.11102">
        <ele>1027.87</ele>
        <time>2021-08-01T11:24:57Z</time>
      </trkpt>
      <trkpt lat="42.2055" lon="1.11083">
        <ele>1025.49</ele>
        <time>2021-08-01T11:25:03Z</time>
      </trkpt>
      <trkpt lat="42.20529" lon="1.11049">
        <ele>1023.26</ele>
        <time>2021-08-01T11:25:11Z</time>
      </trkpt>
      <trkpt lat="42.20526" lon="1.11041">
        <ele>1023.06</ele>
        <time>2021-08-01T11:25:12Z</time>
      </trkpt>
      <trkpt lat="42.20514" lon="1.1097">
        <ele>1022.05</ele>
        <time>2021-08-01T11:25:19Z</time>
      </trkpt>
      <trkpt lat="42.20488" lon="1.10963">
        <ele>1021.17</ele>
        <time>2021-08-01T11:25:24Z</time>
      </trkpt>
      <trkpt lat="42.2044" lon="1.10954">
        <ele>1020.07</ele>
        <time>2021-08-01T11:25:32Z</time>
      </trkpt>
      <trkpt lat="42.20433" lon="1.10952">
        <ele>1020</ele>
        <time>2021-08-01T11:25:33Z</time>
      </trkpt>
      <trkpt lat="42.20402" lon="1.10908">
        <ele>1019.12</ele>
        <time>2021-08-01T11:25:41Z</time>
      </trkpt>
      <trkpt lat="42.204" lon="1.109">
        <ele>1018.93</ele>
        <time>2021-08-01T11:25:42Z</time>
      </trkpt>
      <trkpt lat="42.20384" lon="1.1086">
        <ele>1017.37</ele>
        <time>2021-08-01T11:25:48Z</time>
      </trkpt>
      <trkpt lat="42.20382" lon="1.10825">
        <ele>1015.95</ele>
        <time>2021-08-01T11:25:53Z</time>
      </trkpt>
      <trkpt lat="42.20398" lon="1.10779">
        <ele>1012.4</ele>
        <time>2021-08-01T11:26:00Z</time>
      </trkpt>
      <trkpt lat="42.204" lon="1.10763">
        <ele>1010.72</ele>
        <time>2021-08-01T11:26:03Z</time>
      </trkpt>
      <trkpt lat="42.20399" lon="1.10728">
        <ele>1008.08</ele>
        <time>2021-08-01T11:26:11Z</time>
      </trkpt>
      <trkpt lat="42.2039" lon="1.1069">
        <ele>1006.02</ele>
        <time>2021-08-01T11:26:16Z</time>
      </trkpt>
      <trkpt lat="42.20395" lon="1.10658">
        <ele>1003.62</ele>
        <time>2021-08-01T11:26:20Z</time>
      </trkpt>
      <trkpt lat="42.204" lon="1.10641">
        <ele>1001.5</ele>
        <time>2021-08-01T11:26:23Z</time>
      </trkpt>
      <trkpt lat="42.20385" lon="1.10619">
        <ele>998.94</ele>
        <time>2021-08-01T11:26:27Z</time>
      </trkpt>
      <trkpt lat="42.20373" lon="1.1058">
        <ele>996.33</ele>
        <time>2021-08-01T11:26:32Z</time>
      </trkpt>
      <trkpt lat="42.20371" lon="1.10564">
        <ele>995.07</ele>
        <time>2021-08-01T11:26:34Z</time>
      </trkpt>
      <trkpt lat="42.20379" lon="1.10516">
        <ele>991.35</ele>
        <time>2021-08-01T11:26:40Z</time>
      </trkpt>
      <trkpt lat="42.20394" lon="1.10471">
        <ele>987.59</ele>
        <time>2021-08-01T11:26:46Z</time>
      </trkpt>
      <trkpt lat="42.20398" lon="1.10455">
        <ele>986.29</ele>
        <time>2021-08-01T11:26:48Z</time>
      </trkpt>
      <trkpt lat="42.20419" lon="1.10404">
        <ele>982.12</ele>
        <time>2021-08-01T11:26:55Z</time>
      </trkpt>
      <trkpt lat="42.20423" lon="1.10393">
        <ele>981</ele>
        <time>2021-08-01T11:26:57Z</time>
      </trkpt>
      <trkpt lat="42.20412" lon="1.10375">
        <ele>978.67</ele>
        <time>2021-08-01T11:27:01Z</time>
      </trkpt>
      <trkpt lat="42.20409" lon="1.1035">
        <ele>976.75</ele>
        <time>2021-08-01T11:27:05Z</time>
      </trkpt>
      <trkpt lat="42.20401" lon="1.10322">
        <ele>974.76</ele>
        <time>2021-08-01T11:27:10Z</time>
      </trkpt>
      <trkpt lat="42.2037" lon="1.10284">
        <ele>971.29</ele>
        <time>2021-08-01T11:27:20Z</time>
      </trkpt>
      <trkpt lat="42.20368" lon="1.10208">
        <ele>968.62</ele>
        <time>2021-08-01T11:27:32Z</time>
      </trkpt>
      <trkpt lat="42.20362" lon="1.10171">
        <ele>967.57</ele>
        <time>2021-08-01T11:27:37Z</time>
      </trkpt>
      <trkpt lat="42.20345" lon="1.10151">
        <ele>966.44</ele>
        <time>2021-08-01T11:27:41Z</time>
      </trkpt>
      <trkpt lat="42.20338" lon="1.10107">
        <ele>964.63</ele>
        <time>2021-08-01T11:27:47Z</time>
      </trkpt>
      <trkpt lat="42.20342" lon="1.10084">
        <ele>963.27</ele>
        <time>2021-08-01T11:27:50Z</time>
      </trkpt>
      <trkpt lat="42.20325" lon="1.10045">
        <ele>958.98</ele>
        <time>2021-08-01T11:27:56Z</time>
      </trkpt>
      <trkpt lat="42.20321" lon="1.10032">
        <ele>957.73</ele>
        <time>2021-08-01T11:27:58Z</time>
      </trkpt>
      <trkpt lat="42.20316" lon="1.10016">
        <ele>955.75</ele>
        <time>2021-08-01T11:28:01Z</time>
      </trkpt>
      <trkpt lat="42.20299" lon="1.10037">
        <ele>951.84</ele>
        <time>2021-08-01T11:28:07Z</time>
      </trkpt>
      <trkpt lat="42.20298" lon="1.10044">
        <ele>951.25</ele>
        <time>2021-08-01T11:28:08Z</time>
      </trkpt>
      <trkpt lat="42.20284" lon="1.10065">
        <ele>948.16</ele>
        <time>2021-08-01T11:28:14Z</time>
      </trkpt>
      <trkpt lat="42.20259" lon="1.10097">
        <ele>944.53</ele>
        <time>2021-08-01T11:28:22Z</time>
      </trkpt>
      <trkpt lat="42.20259" lon="1.10103">
        <ele>944</ele>
        <time>2021-08-01T11:28:23Z</time>
      </trkpt>
      <trkpt lat="42.20255" lon="1.10137">
        <ele>941.58</ele>
        <time>2021-08-01T11:28:28Z</time>
      </trkpt>
      <trkpt lat="42.20277" lon="1.10161">
        <ele>938.59</ele>
        <time>2021-08-01T11:28:35Z</time>
      </trkpt>
      <trkpt lat="42.20289" lon="1.10179">
        <ele>937.66</ele>
        <time>2021-08-01T11:28:38Z</time>
      </trkpt>
      <trkpt lat="42.20296" lon="1.10193">
        <ele>937.05</ele>
        <time>2021-08-01T11:28:40Z</time>
      </trkpt>
      <trkpt lat="42.20298" lon="1.10237">
        <ele>935.39</ele>
        <time>2021-08-01T11:28:46Z</time>
      </trkpt>
      <trkpt lat="42.2029" lon="1.10261">
        <ele>933.67</ele>
        <time>2021-08-01T11:28:51Z</time>
      </trkpt>
      <trkpt lat="42.20274" lon="1.10244">
        <ele>930.84</ele>
        <time>2021-08-01T11:28:58Z</time>
      </trkpt>
      <trkpt lat="42.20272" lon="1.10229">
        <ele>930.05</ele>
        <time>2021-08-01T11:29:00Z</time>
      </trkpt>
      <trkpt lat="42.20244" lon="1.10191">
        <ele>926.87</ele>
        <time>2021-08-01T11:29:06Z</time>
      </trkpt>
      <trkpt lat="42.2022" lon="1.10154">
        <ele>923.35</ele>
        <time>2021-08-01T11:29:12Z</time>
      </trkpt>
      <trkpt lat="42.20196" lon="1.10038">
        <ele>919.63</ele>
        <time>2021-08-01T11:29:23Z</time>
      </trkpt>
      <trkpt lat="42.20185" lon="1.09966">
        <ele>916.71</ele>
        <time>2021-08-01T11:29:31Z</time>
      </trkpt>
      <trkpt lat="42.20202" lon="1.09914">
        <ele>915.03</ele>
        <time>2021-08-01T11:29:36Z</time>
      </trkpt>
      <trkpt lat="42.20216" lon="1.09885">
        <ele>914.09</ele>
        <time>2021-08-01T11:29:39Z</time>
      </trkpt>
      <trkpt lat="42.20222" lon="1.09847">
        <ele>912.57</ele>
        <time>2021-08-01T11:29:43Z</time>
      </trkpt>
      <trkpt lat="42.20229" lon="1.09789">
        <ele>910.65</ele>
        <time>2021-08-01T11:29:49Z</time>
      </trkpt>
      <trkpt lat="42.20244" lon="1.09745">
        <ele>909.02</ele>
        <time>2021-08-01T11:29:54Z</time>
      </trkpt>
      <trkpt lat="42.20269" lon="1.09677">
        <ele>905.62</ele>
        <time>2021-08-01T11:30:03Z</time>
      </trkpt>
      <trkpt lat="42.20271" lon="1.09636">
        <ele>903.54</ele>
        <time>2021-08-01T11:30:08Z</time>
      </trkpt>
      <trkpt lat="42.20264" lon="1.09592">
        <ele>901.97</ele>
        <time>2021-08-01T11:30:13Z</time>
      </trkpt>
      <trkpt lat="42.20268" lon="1.09564">
        <ele>900.42</ele>
        <time>2021-08-01T11:30:17Z</time>
      </trkpt>
      <trkpt lat="42.2026" lon="1.0952">
        <ele>897.19</ele>
        <time>2021-08-01T11:30:27Z</time>
      </trkpt>
      <trkpt lat="42.2025" lon="1.09493">
        <ele>896.13</ele>
        <time>2021-08-01T11:30:32Z</time>
      </trkpt>
      <trkpt lat="42.20231" lon="1.09427">
        <ele>894.09</ele>
        <time>2021-08-01T11:30:41Z</time>
      </trkpt>
      <trkpt lat="42.20232" lon="1.09418">
        <ele>893.81</ele>
        <time>2021-08-01T11:30:42Z</time>
      </trkpt>
      <trkpt lat="42.20213" lon="1.09292">
        <ele>890.51</ele>
        <time>2021-08-01T11:30:55Z</time>
      </trkpt>
      <trkpt lat="42.20207" lon="1.09262">
        <ele>889.45</ele>
        <time>2021-08-01T11:30:58Z</time>
      </trkpt>
      <trkpt lat="42.2021" lon="1.09163">
        <ele>886.17</ele>
        <time>2021-08-01T11:31:09Z</time>
      </trkpt>
      <trkpt lat="42.20185" lon="1.0912">
        <ele>884.36</ele>
        <time>2021-08-01T11:31:15Z</time>
      </trkpt>
      <trkpt lat="42.20157" lon="1.09098">
        <ele>883.53</ele>
        <time>2021-08-01T11:31:20Z</time>
      </trkpt>
      <trkpt lat="42.20148" lon="1.09088">
        <ele>883.56</ele>
        <time>2021-08-01T11:31:22Z</time>
      </trkpt>
      <trkpt lat="42.20131" lon="1.09055">
        <ele>883.71</ele>
        <time>2021-08-01T11:31:27Z</time>
      </trkpt>
      <trkpt lat="42.20127" lon="1.09016">
        <ele>883.78</ele>
        <time>2021-08-01T11:31:31Z</time>
      </trkpt>
      <trkpt lat="42.20147" lon="1.08965">
        <ele>882.87</ele>
        <time>2021-08-01T11:31:37Z</time>
      </trkpt>
      <trkpt lat="42.20157" lon="1.08951">
        <ele>881.89</ele>
        <time>2021-08-01T11:31:39Z</time>
      </trkpt>
      <trkpt lat="42.20163" lon="1.08905">
        <ele>879.41</ele>
        <time>2021-08-01T11:31:44Z</time>
      </trkpt>
      <trkpt lat="42.2018" lon="1.08852">
        <ele>875.92</ele>
        <time>2021-08-01T11:31:51Z</time>
      </trkpt>
      <trkpt lat="42.20204" lon="1.08824">
        <ele>874.22</ele>
        <time>2021-08-01T11:31:55Z</time>
      </trkpt>
      <trkpt lat="42.20202" lon="1.08777">
        <ele>870.52</ele>
        <time>2021-08-01T11:32:01Z</time>
      </trkpt>
      <trkpt lat="42.20197" lon="1.08769">
        <ele>870.01</ele>
        <time>2021-08-01T11:32:02Z</time>
      </trkpt>
      <trkpt lat="42.20187" lon="1.08756">
        <ele>869.19</ele>
        <time>2021-08-01T11:32:04Z</time>
      </trkpt>
      <trkpt lat="42.20167" lon="1.08702">
        <ele>867.68</ele>
        <time>2021-08-01T11:32:11Z</time>
      </trkpt>
      <trkpt lat="42.20149" lon="1.08672">
        <ele>866.07</ele>
        <time>2021-08-01T11:32:15Z</time>
      </trkpt>
      <trkpt lat="42.20136" lon="1.08638">
        <ele>864.87</ele>
        <time>2021-08-01T11:32:19Z</time>
      </trkpt>
      <trkpt lat="42.20122" lon="1.08591">
        <ele>861.48</ele>
        <time>2021-08-01T11:32:27Z</time>
      </trkpt>
      <trkpt lat="42.20106" lon="1.08563">
        <ele>860.34</ele>
        <time>2021-08-01T11:32:34Z</time>
      </trkpt>
      <trkpt lat="42.20096" lon="1.08535">
        <ele>860.35</ele>
        <time>2021-08-01T11:32:38Z</time>
      </trkpt>
      <trkpt lat="42.2008" lon="1.08449">
        <ele>860.4</ele>
        <time>2021-08-01T11:32:47Z</time>
      </trkpt>
      <trkpt lat="42.20088" lon="1.08417">
        <ele>859.81</ele>
        <time>2021-08-01T11:32:51Z</time>
      </trkpt>
      <trkpt lat="42.2012" lon="1.08328">
        <ele>856.29</ele>
        <time>2021-08-01T11:33:00Z</time>
      </trkpt>
      <trkpt lat="42.20135" lon="1.08256">
        <ele>853.22</ele>
        <time>2021-08-01T11:33:07Z</time>
      </trkpt>
      <trkpt lat="42.20145" lon="1.08177">
        <ele>851.7</ele>
        <time>2021-08-01T11:33:14Z</time>
      </trkpt>
      <trkpt lat="42.20143" lon="1.08125">
        <ele>851.19</ele>
        <time>2021-08-01T11:33:19Z</time>
      </trkpt>
      <trkpt lat="42.20151" lon="1.08097">
        <ele>850.54</ele>
        <time>2021-08-01T11:33:23Z</time>
      </trkpt>
      <trkpt lat="42.20166" lon="1.08064">
        <ele>849.4</ele>
        <time>2021-08-01T11:33:28Z</time>
      </trkpt>
      <trkpt lat="42.20167" lon="1.08003">
        <ele>848.28</ele>
        <time>2021-08-01T11:33:36Z</time>
      </trkpt>
      <trkpt lat="42.2016" lon="1.07985">
        <ele>848.28</ele>
        <time>2021-08-01T11:33:38Z</time>
      </trkpt>
      <trkpt lat="42.20152" lon="1.07951">
        <ele>848.29</ele>
        <time>2021-08-01T11:33:42Z</time>
      </trkpt>
      <trkpt lat="42.20148" lon="1.07928">
        <ele>847.8</ele>
        <time>2021-08-01T11:33:45Z</time>
      </trkpt>
      <trkpt lat="42.20133" lon="1.0789">
        <ele>844.95</ele>
        <time>2021-08-01T11:33:52Z</time>
      </trkpt>
      <trkpt lat="42.20116" lon="1.07872">
        <ele>844.47</ele>
        <time>2021-08-01T11:33:55Z</time>
      </trkpt>
      <trkpt lat="42.20104" lon="1.07795">
        <ele>844.39</ele>
        <time>2021-08-01T11:34:04Z</time>
      </trkpt>
      <trkpt lat="42.20112" lon="1.0777">
        <ele>844.33</ele>
        <time>2021-08-01T11:34:07Z</time>
      </trkpt>
      <trkpt lat="42.20135" lon="1.07698">
        <ele>841.15</ele>
        <time>2021-08-01T11:34:18Z</time>
      </trkpt>
      <trkpt lat="42.20139" lon="1.07679">
        <ele>839.75</ele>
        <time>2021-08-01T11:34:21Z</time>
      </trkpt>
      <trkpt lat="42.2017" lon="1.07623">
        <ele>836.21</ele>
        <time>2021-08-01T11:34:28Z</time>
      </trkpt>
      <trkpt lat="42.20214" lon="1.07576">
        <ele>832.82</ele>
        <time>2021-08-01T11:34:35Z</time>
      </trkpt>
      <trkpt lat="42.20219" lon="1.0757">
        <ele>832.43</ele>
        <time>2021-08-01T11:34:36Z</time>
      </trkpt>
      <trkpt lat="42.20234" lon="1.07541">
        <ele>831.3</ele>
        <time>2021-08-01T11:34:40Z</time>
      </trkpt>
      <trkpt lat="42.20212" lon="1.07471">
        <ele>830.35</ele>
        <time>2021-08-01T11:34:49Z</time>
      </trkpt>
      <trkpt lat="42.20209" lon="1.074">
        <ele>829.37</ele>
        <time>2021-08-01T11:34:55Z</time>
      </trkpt>
      <trkpt lat="42.20238" lon="1.07275">
        <ele>828.2</ele>
        <time>2021-08-01T11:35:06Z</time>
      </trkpt>
      <trkpt lat="42.20236" lon="1.07204">
        <ele>827.78</ele>
        <time>2021-08-01T11:35:14Z</time>
      </trkpt>
      <trkpt lat="42.20253" lon="1.07114">
        <ele>826.33</ele>
        <time>2021-08-01T11:35:24Z</time>
      </trkpt>
      <trkpt lat="42.20244" lon="1.07092">
        <ele>825.89</ele>
        <time>2021-08-01T11:35:29Z</time>
      </trkpt>
      <trkpt lat="42.20256" lon="1.07052">
        <ele>824.91</ele>
        <time>2021-08-01T11:35:35Z</time>
      </trkpt>
      <trkpt lat="42.20293" lon="1.0701">
        <ele>821.96</ele>
        <time>2021-08-01T11:35:43Z</time>
      </trkpt>
      <trkpt lat="42.20283" lon="1.06984">
        <ele>820.78</ele>
        <time>2021-08-01T11:35:49Z</time>
      </trkpt>
      <trkpt lat="42.20268" lon="1.06958">
        <ele>820.51</ele>
        <time>2021-08-01T11:35:53Z</time>
      </trkpt>
      <trkpt lat="42.20262" lon="1.06941">
        <ele>820.72</ele>
        <time>2021-08-01T11:35:55Z</time>
      </trkpt>
      <trkpt lat="42.20244" lon="1.06922">
        <ele>821.55</ele>
        <time>2021-08-01T11:35:59Z</time>
      </trkpt>
      <trkpt lat="42.20238" lon="1.06892">
        <ele>823.33</ele>
        <time>2021-08-01T11:36:04Z</time>
      </trkpt>
      <trkpt lat="42.2026" lon="1.06824">
        <ele>826.48</ele>
        <time>2021-08-01T11:36:13Z</time>
      </trkpt>
      <trkpt lat="42.20282" lon="1.06817">
        <ele>827.48</ele>
        <time>2021-08-01T11:36:18Z</time>
      </trkpt>
      <trkpt lat="42.20311" lon="1.06832">
        <ele>827.84</ele>
        <time>2021-08-01T11:36:24Z</time>
      </trkpt>
      <trkpt lat="42.20327" lon="1.06849">
        <ele>827.95</ele>
        <time>2021-08-01T11:36:28Z</time>
      </trkpt>
      <trkpt lat="42.20356" lon="1.06841">
        <ele>828.16</ele>
        <time>2021-08-01T11:36:36Z</time>
      </trkpt>
      <trkpt lat="42.20358" lon="1.06839">
        <ele>828.15</ele>
        <time>2021-08-01T11:36:37Z</time>
      </trkpt>
      <trkpt lat="42.20363" lon="1.06825">
        <ele>827.88</ele>
        <time>2021-08-01T11:36:44Z</time>
      </trkpt>
      <trkpt lat="42.20347" lon="1.06795">
        <ele>827.53</ele>
        <time>2021-08-01T11:36:56Z</time>
      </trkpt>
      <trkpt lat="42.20333" lon="1.06767">
        <ele>827.68</ele>
        <time>2021-08-01T11:37:00Z</time>
      </trkpt>
      <trkpt lat="42.20325" lon="1.06724">
        <ele>828.26</ele>
        <time>2021-08-01T11:37:04Z</time>
      </trkpt>
      <trkpt lat="42.20327" lon="1.06659">
        <ele>828.84</ele>
        <time>2021-08-01T11:37:11Z</time>
      </trkpt>
      <trkpt lat="42.20294" lon="1.06552">
        <ele>828.15</ele>
        <time>2021-08-01T11:37:24Z</time>
      </trkpt>
      <trkpt lat="42.20287" lon="1.06536">
        <ele>827.68</ele>
        <time>2021-08-01T11:37:26Z</time>
      </trkpt>
      <trkpt lat="42.20283" lon="1.0652">
        <ele>827.17</ele>
        <time>2021-08-01T11:37:28Z</time>
      </trkpt>
      <trkpt lat="42.20277" lon="1.06482">
        <ele>826.25</ele>
        <time>2021-08-01T11:37:32Z</time>
      </trkpt>
      <trkpt lat="42.20263" lon="1.06456">
        <ele>825.22</ele>
        <time>2021-08-01T11:37:36Z</time>
      </trkpt>
      <trkpt lat="42.20242" lon="1.06434">
        <ele>824.44</ele>
        <time>2021-08-01T11:37:49Z</time>
      </trkpt>
      <trkpt lat="42.20241" lon="1.06434">
        <ele>825.42</ele>
        <time>2021-08-01T11:38:52Z</time>
      </trkpt>
      <trkpt lat="42.2024" lon="1.06424">
        <ele>825.58</ele>
        <time>2021-08-01T11:39:03Z</time>
      </trkpt>
      <trkpt lat="42.2024" lon="1.06424">
        <ele>825.58</ele>
        <time>2021-08-01T11:40:22Z</time>
      </trkpt>
      <trkpt lat="42.20245" lon="1.06402">
        <ele>826.05</ele>
        <time>2021-08-01T11:42:07Z</time>
      </trkpt>
      <trkpt lat="42.20246" lon="1.064">
        <ele>826.84</ele>
        <time>2021-08-01T11:42:17Z</time>
      </trkpt>
      <trkpt lat="42.20253" lon="1.06376">
        <ele>827.11</ele>
        <time>2021-08-01T11:42:46Z</time>
      </trkpt>
      <trkpt lat="42.20265" lon="1.06328">
        <ele>827.51</ele>
        <time>2021-08-01T11:42:50Z</time>
      </trkpt>
      <trkpt lat="42.2026" lon="1.0626">
        <ele>827.1</ele>
        <time>2021-08-01T11:42:55Z</time>
      </trkpt>
      <trkpt lat="42.20246" lon="1.06143">
        <ele>827.53</ele>
        <time>2021-08-01T11:43:03Z</time>
      </trkpt>
      <trkpt lat="42.20221" lon="1.06074">
        <ele>828.07</ele>
        <time>2021-08-01T11:43:09Z</time>
      </trkpt>
      <trkpt lat="42.20186" lon="1.06004">
        <ele>828.36</ele>
        <time>2021-08-01T11:43:15Z</time>
      </trkpt>
      <trkpt lat="42.2017" lon="1.05963">
        <ele>828.07</ele>
        <time>2021-08-01T11:43:20Z</time>
      </trkpt>
      <trkpt lat="42.20172" lon="1.05939">
        <ele>828.16</ele>
        <time>2021-08-01T11:43:22Z</time>
      </trkpt>
      <trkpt lat="42.20172" lon="1.05917">
        <ele>828.3</ele>
        <time>2021-08-01T11:43:24Z</time>
      </trkpt>
      <trkpt lat="42.20184" lon="1.05851">
        <ele>829.56</ele>
        <time>2021-08-01T11:43:30Z</time>
      </trkpt>
      <trkpt lat="42.20219" lon="1.05792">
        <ele>830.53</ele>
        <time>2021-08-01T11:43:37Z</time>
      </trkpt>
      <trkpt lat="42.20252" lon="1.05762">
        <ele>831.41</ele>
        <time>2021-08-01T11:43:43Z</time>
      </trkpt>
      <trkpt lat="42.2025" lon="1.05765">
        <ele>832.01</ele>
        <time>2021-08-01T11:43:59Z</time>
      </trkpt>
      <trkpt lat="42.20277" lon="1.05754">
        <ele>832.13</ele>
        <time>2021-08-01T11:45:07Z</time>
      </trkpt>
      <trkpt lat="42.20281" lon="1.05753">
        <ele>832.28</ele>
        <time>2021-08-01T11:45:08Z</time>
      </trkpt>
      <trkpt lat="42.20303" lon="1.05759">
        <ele>833.51</ele>
        <time>2021-08-01T11:45:13Z</time>
      </trkpt>
      <trkpt lat="42.20314" lon="1.05765">
        <ele>833.98</ele>
        <time>2021-08-01T11:45:15Z</time>
      </trkpt>
      <trkpt lat="42.20352" lon="1.05741">
        <ele>835.65</ele>
        <time>2021-08-01T11:45:23Z</time>
      </trkpt>
      <trkpt lat="42.20361" lon="1.05708">
        <ele>836.05</ele>
        <time>2021-08-01T11:45:26Z</time>
      </trkpt>
      <trkpt lat="42.20398" lon="1.05631">
        <ele>836.92</ele>
        <time>2021-08-01T11:45:34Z</time>
      </trkpt>
      <trkpt lat="42.2042" lon="1.05615">
        <ele>836.94</ele>
        <time>2021-08-01T11:45:37Z</time>
      </trkpt>
      <trkpt lat="42.20439" lon="1.05589">
        <ele>836.83</ele>
        <time>2021-08-01T11:45:41Z</time>
      </trkpt>
      <trkpt lat="42.20449" lon="1.05545">
        <ele>837.18</ele>
        <time>2021-08-01T11:45:49Z</time>
      </trkpt>
      <trkpt lat="42.20416" lon="1.05536">
        <ele>837.44</ele>
        <time>2021-08-01T11:45:55Z</time>
      </trkpt>
      <trkpt lat="42.20378" lon="1.05515">
        <ele>838.7</ele>
        <time>2021-08-01T11:46:04Z</time>
      </trkpt>
      <trkpt lat="42.20374" lon="1.05461">
        <ele>838.68</ele>
        <time>2021-08-01T11:46:13Z</time>
      </trkpt>
      <trkpt lat="42.20375" lon="1.05428">
        <ele>838.9</ele>
        <time>2021-08-01T11:46:18Z</time>
      </trkpt>
      <trkpt lat="42.20383" lon="1.05397">
        <ele>839.36</ele>
        <time>2021-08-01T11:46:23Z</time>
      </trkpt>
      <trkpt lat="42.20376" lon="1.05361">
        <ele>839.82</ele>
        <time>2021-08-01T11:46:28Z</time>
      </trkpt>
      <trkpt lat="42.20366" lon="1.05324">
        <ele>839.88</ele>
        <time>2021-08-01T11:46:33Z</time>
      </trkpt>
      <trkpt lat="42.20372" lon="1.05235">
        <ele>840.13</ele>
        <time>2021-08-01T11:46:42Z</time>
      </trkpt>
      <trkpt lat="42.20392" lon="1.0519">
        <ele>840</ele>
        <time>2021-08-01T11:46:47Z</time>
      </trkpt>
      <trkpt lat="42.20397" lon="1.05156">
        <ele>840.07</ele>
        <time>2021-08-01T11:46:51Z</time>
      </trkpt>
      <trkpt lat="42.2041" lon="1.05122">
        <ele>839.93</ele>
        <time>2021-08-01T11:46:56Z</time>
      </trkpt>
      <trkpt lat="42.20418" lon="1.05088">
        <ele>838.95</ele>
        <time>2021-08-01T11:47:02Z</time>
      </trkpt>
      <trkpt lat="42.20409" lon="1.05074">
        <ele>838.75</ele>
        <time>2021-08-01T11:47:04Z</time>
      </trkpt>
      <trkpt lat="42.20398" lon="1.04993">
        <ele>837.93</ele>
        <time>2021-08-01T11:47:13Z</time>
      </trkpt>
      <trkpt lat="42.20401" lon="1.04985">
        <ele>837.82</ele>
        <time>2021-08-01T11:47:14Z</time>
      </trkpt>
      <trkpt lat="42.20417" lon="1.04935">
        <ele>837.13</ele>
        <time>2021-08-01T11:47:20Z</time>
      </trkpt>
      <trkpt lat="42.2046" lon="1.04902">
        <ele>835.38</ele>
        <time>2021-08-01T11:47:27Z</time>
      </trkpt>
      <trkpt lat="42.20465" lon="1.04893">
        <ele>835.16</ele>
        <time>2021-08-01T11:47:28Z</time>
      </trkpt>
      <trkpt lat="42.20473" lon="1.04874">
        <ele>834.58</ele>
        <time>2021-08-01T11:47:30Z</time>
      </trkpt>
      <trkpt lat="42.20465" lon="1.04845">
        <ele>833.28</ele>
        <time>2021-08-01T11:47:34Z</time>
      </trkpt>
      <trkpt lat="42.20463" lon="1.04819">
        <ele>832.17</ele>
        <time>2021-08-01T11:47:38Z</time>
      </trkpt>
      <trkpt lat="42.20463" lon="1.04811">
        <ele>830.02</ele>
        <time>2021-08-01T11:47:49Z</time>
      </trkpt>
      <trkpt lat="42.20458" lon="1.04793">
        <ele>829.55</ele>
        <time>2021-08-01T11:48:23Z</time>
      </trkpt>
      <trkpt lat="42.2043" lon="1.04777">
        <ele>829.66</ele>
        <time>2021-08-01T11:48:29Z</time>
      </trkpt>
      <trkpt lat="42.20407" lon="1.04774">
        <ele>829.45</ele>
        <time>2021-08-01T11:48:34Z</time>
      </trkpt>
      <trkpt lat="42.20406" lon="1.04773">
        <ele>826.92</ele>
        <time>2021-08-01T11:48:56Z</time>
      </trkpt>
      <trkpt lat="42.20381" lon="1.04753">
        <ele>826.36</ele>
        <time>2021-08-01T11:49:33Z</time>
      </trkpt>
      <trkpt lat="42.20352" lon="1.04734">
        <ele>826.39</ele>
        <time>2021-08-01T11:49:37Z</time>
      </trkpt>
      <trkpt lat="42.2032" lon="1.04699">
        <ele>826.03</ele>
        <time>2021-08-01T11:49:42Z</time>
      </trkpt>
      <trkpt lat="42.20303" lon="1.0466">
        <ele>825.43</ele>
        <time>2021-08-01T11:49:46Z</time>
      </trkpt>
      <trkpt lat="42.20296" lon="1.0462">
        <ele>824.59</ele>
        <time>2021-08-01T11:49:50Z</time>
      </trkpt>
      <trkpt lat="42.20325" lon="1.04548">
        <ele>822.63</ele>
        <time>2021-08-01T11:49:58Z</time>
      </trkpt>
      <trkpt lat="42.2037" lon="1.04535">
        <ele>823.15</ele>
        <time>2021-08-01T11:50:05Z</time>
      </trkpt>
      <trkpt lat="42.20381" lon="1.04531">
        <ele>823.47</ele>
        <time>2021-08-01T11:50:07Z</time>
      </trkpt>
      <trkpt lat="42.20393" lon="1.04492">
        <ele>824.84</ele>
        <time>2021-08-01T11:50:13Z</time>
      </trkpt>
      <trkpt lat="42.20392" lon="1.04476">
        <ele>825.35</ele>
        <time>2021-08-01T11:50:15Z</time>
      </trkpt>
      <trkpt lat="42.20393" lon="1.04461">
        <ele>826.01</ele>
        <time>2021-08-01T11:50:17Z</time>
      </trkpt>
      <trkpt lat="42.20372" lon="1.04436">
        <ele>828.16</ele>
        <time>2021-08-01T11:50:23Z</time>
      </trkpt>
      <trkpt lat="42.2036" lon="1.04431">
        <ele>829.02</ele>
        <time>2021-08-01T11:50:25Z</time>
      </trkpt>
      <trkpt lat="42.20343" lon="1.04378">
        <ele>830.6</ele>
        <time>2021-08-01T11:50:33Z</time>
      </trkpt>
      <trkpt lat="42.20363" lon="1.04356">
        <ele>831.31</ele>
        <time>2021-08-01T11:50:36Z</time>
      </trkpt>
      <trkpt lat="42.20418" lon="1.04307">
        <ele>834.91</ele>
        <time>2021-08-01T11:50:46Z</time>
      </trkpt>
      <trkpt lat="42.20462" lon="1.0428">
        <ele>838.15</ele>
        <time>2021-08-01T11:50:53Z</time>
      </trkpt>
      <trkpt lat="42.20468" lon="1.04277">
        <ele>838.64</ele>
        <time>2021-08-01T11:50:54Z</time>
      </trkpt>
      <trkpt lat="42.20509" lon="1.04279">
        <ele>842.28</ele>
        <time>2021-08-01T11:51:01Z</time>
      </trkpt>
      <trkpt lat="42.20534" lon="1.04289">
        <ele>845.71</ele>
        <time>2021-08-01T11:51:08Z</time>
      </trkpt>
      <trkpt lat="42.20532" lon="1.0429">
        <ele>848.42</ele>
        <time>2021-08-01T11:51:21Z</time>
      </trkpt>
      <trkpt lat="42.20563" lon="1.04319">
        <ele>850.08</ele>
        <time>2021-08-01T11:51:33Z</time>
      </trkpt>
      <trkpt lat="42.20591" lon="1.04328">
        <ele>851.62</ele>
        <time>2021-08-01T11:51:40Z</time>
      </trkpt>
      <trkpt lat="42.20614" lon="1.04319">
        <ele>852.91</ele>
        <time>2021-08-01T11:51:45Z</time>
      </trkpt>
      <trkpt lat="42.20631" lon="1.04304">
        <ele>853.64</ele>
        <time>2021-08-01T11:51:48Z</time>
      </trkpt>
      <trkpt lat="42.20639" lon="1.04261">
        <ele>855.24</ele>
        <time>2021-08-01T11:51:53Z</time>
      </trkpt>
      <trkpt lat="42.20633" lon="1.04156">
        <ele>859.52</ele>
        <time>2021-08-01T11:52:01Z</time>
      </trkpt>
      <trkpt lat="42.20633" lon="1.04147">
        <ele>860.16</ele>
        <time>2021-08-01T11:52:02Z</time>
      </trkpt>
      <trkpt lat="42.20616" lon="1.04115">
        <ele>862.93</ele>
        <time>2021-08-01T11:52:06Z</time>
      </trkpt>
      <trkpt lat="42.20619" lon="1.04052">
        <ele>865.75</ele>
        <time>2021-08-01T11:52:13Z</time>
      </trkpt>
      <trkpt lat="42.20627" lon="1.04046">
        <ele>866.08</ele>
        <time>2021-08-01T11:52:14Z</time>
      </trkpt>
      <trkpt lat="42.20669" lon="1.03987">
        <ele>867.88</ele>
        <time>2021-08-01T11:52:20Z</time>
      </trkpt>
      <trkpt lat="42.20693" lon="1.03892">
        <ele>870.14</ele>
        <time>2021-08-01T11:52:27Z</time>
      </trkpt>
      <trkpt lat="42.20681" lon="1.03842">
        <ele>871.44</ele>
        <time>2021-08-01T11:52:31Z</time>
      </trkpt>
      <trkpt lat="42.20661" lon="1.03737">
        <ele>873.56</ele>
        <time>2021-08-01T11:52:38Z</time>
      </trkpt>
      <trkpt lat="42.2067" lon="1.03638">
        <ele>874.86</ele>
        <time>2021-08-01T11:52:44Z</time>
      </trkpt>
      <trkpt lat="42.20682" lon="1.03608">
        <ele>875.47</ele>
        <time>2021-08-01T11:52:47Z</time>
      </trkpt>
      <trkpt lat="42.20669" lon="1.03541">
        <ele>876.8</ele>
        <time>2021-08-01T11:52:53Z</time>
      </trkpt>
      <trkpt lat="42.20661" lon="1.03517">
        <ele>877.29</ele>
        <time>2021-08-01T11:52:55Z</time>
      </trkpt>
      <trkpt lat="42.20652" lon="1.03487">
        <ele>878.51</ele>
        <time>2021-08-01T11:52:58Z</time>
      </trkpt>
      <trkpt lat="42.20666" lon="1.03405">
        <ele>881.26</ele>
        <time>2021-08-01T11:53:06Z</time>
      </trkpt>
      <trkpt lat="42.20685" lon="1.03373">
        <ele>882.49</ele>
        <time>2021-08-01T11:53:09Z</time>
      </trkpt>
      <trkpt lat="42.20709" lon="1.03272">
        <ele>885.15</ele>
        <time>2021-08-01T11:53:16Z</time>
      </trkpt>
      <trkpt lat="42.20707" lon="1.03204">
        <ele>885.17</ele>
        <time>2021-08-01T11:53:22Z</time>
      </trkpt>
      <trkpt lat="42.20718" lon="1.03176">
        <ele>883.62</ele>
        <time>2021-08-01T11:53:27Z</time>
      </trkpt>
      <trkpt lat="42.20722" lon="1.03171">
        <ele>880.18</ele>
        <time>2021-08-01T11:53:41Z</time>
      </trkpt>
      <trkpt lat="42.2072" lon="1.03174">
        <ele>879.44</ele>
        <time>2021-08-01T11:53:51Z</time>
      </trkpt>
      <trkpt lat="42.2072" lon="1.03174">
        <ele>879.65</ele>
        <time>2021-08-01T11:55:00Z</time>
      </trkpt>
      <trkpt lat="42.20728" lon="1.03164">
        <ele>879.78</ele>
        <time>2021-08-01T11:56:06Z</time>
      </trkpt>
      <trkpt lat="42.20763" lon="1.03154">
        <ele>879.22</ele>
        <time>2021-08-01T11:56:13Z</time>
      </trkpt>
      <trkpt lat="42.20767" lon="1.03137">
        <ele>878.82</ele>
        <time>2021-08-01T11:56:15Z</time>
      </trkpt>
      <trkpt lat="42.20785" lon="1.03091">
        <ele>877.93</ele>
        <time>2021-08-01T11:56:20Z</time>
      </trkpt>
      <trkpt lat="42.20829" lon="1.03025">
        <ele>874.32</ele>
        <time>2021-08-01T11:56:28Z</time>
      </trkpt>
      <trkpt lat="42.20854" lon="1.02987">
        <ele>872.21</ele>
        <time>2021-08-01T11:56:32Z</time>
      </trkpt>
      <trkpt lat="42.20861" lon="1.02983">
        <ele>871.71</ele>
        <time>2021-08-01T11:56:33Z</time>
      </trkpt>
      <trkpt lat="42.20868" lon="1.02981">
        <ele>871.14</ele>
        <time>2021-08-01T11:56:34Z</time>
      </trkpt>
      <trkpt lat="42.20878" lon="1.02984">
        <ele>870.6</ele>
        <time>2021-08-01T11:56:35Z</time>
      </trkpt>
      <trkpt lat="42.20896" lon="1.02989">
        <ele>869.81</ele>
        <time>2021-08-01T11:56:37Z</time>
      </trkpt>
      <trkpt lat="42.20938" lon="1.02954">
        <ele>868.74</ele>
        <time>2021-08-01T11:56:43Z</time>
      </trkpt>
      <trkpt lat="42.2097" lon="1.02923">
        <ele>868.43</ele>
        <time>2021-08-01T11:56:48Z</time>
      </trkpt>
      <trkpt lat="42.20986" lon="1.02893">
        <ele>868.42</ele>
        <time>2021-08-01T11:56:51Z</time>
      </trkpt>
      <trkpt lat="42.20981" lon="1.02846">
        <ele>869.27</ele>
        <time>2021-08-01T11:56:56Z</time>
      </trkpt>
      <trkpt lat="42.20965" lon="1.02829">
        <ele>869.36</ele>
        <time>2021-08-01T11:56:58Z</time>
      </trkpt>
      <trkpt lat="42.20948" lon="1.02795">
        <ele>869.48</ele>
        <time>2021-08-01T11:57:01Z</time>
      </trkpt>
      <trkpt lat="42.20947" lon="1.02781">
        <ele>869.57</ele>
        <time>2021-08-01T11:57:02Z</time>
      </trkpt>
      <trkpt lat="42.20947" lon="1.02767">
        <ele>869.79</ele>
        <time>2021-08-01T11:57:03Z</time>
      </trkpt>
      <trkpt lat="42.20973" lon="1.027">
        <ele>870.51</ele>
        <time>2021-08-01T11:57:09Z</time>
      </trkpt>
      <trkpt lat="42.21024" lon="1.02657">
        <ele>869.82</ele>
        <time>2021-08-01T11:57:14Z</time>
      </trkpt>
      <trkpt lat="42.2105" lon="1.02638">
        <ele>869.32</ele>
        <time>2021-08-01T11:57:17Z</time>
      </trkpt>
      <trkpt lat="42.21106" lon="1.02578">
        <ele>867.67</ele>
        <time>2021-08-01T11:57:25Z</time>
      </trkpt>
      <trkpt lat="42.2114" lon="1.02566">
        <ele>866.3</ele>
        <time>2021-08-01T11:57:29Z</time>
      </trkpt>
      <trkpt lat="42.21163" lon="1.02567">
        <ele>864.82</ele>
        <time>2021-08-01T11:57:32Z</time>
      </trkpt>
      <trkpt lat="42.21174" lon="1.02569">
        <ele>862.13</ele>
        <time>2021-08-01T11:57:38Z</time>
      </trkpt>
      <trkpt lat="42.21179" lon="1.02566">
        <ele>860.24</ele>
        <time>2021-08-01T11:57:54Z</time>
      </trkpt>
      <trkpt lat="42.21204" lon="1.02542">
        <ele>860.68</ele>
        <time>2021-08-01T11:58:05Z</time>
      </trkpt>
      <trkpt lat="42.2124" lon="1.02493">
        <ele>862.67</ele>
        <time>2021-08-01T11:58:11Z</time>
      </trkpt>
      <trkpt lat="42.21291" lon="1.02443">
        <ele>864.4</ele>
        <time>2021-08-01T11:58:21Z</time>
      </trkpt>
      <trkpt lat="42.21303" lon="1.02424">
        <ele>864.37</ele>
        <time>2021-08-01T11:58:24Z</time>
      </trkpt>
      <trkpt lat="42.21356" lon="1.02352">
        <ele>865.02</ele>
        <time>2021-08-01T11:58:33Z</time>
      </trkpt>
      <trkpt lat="42.21367" lon="1.02337">
        <ele>865.82</ele>
        <time>2021-08-01T11:58:35Z</time>
      </trkpt>
      <trkpt lat="42.21394" lon="1.02327">
        <ele>866.42</ele>
        <time>2021-08-01T11:58:39Z</time>
      </trkpt>
      <trkpt lat="42.2142" lon="1.02328">
        <ele>867.12</ele>
        <time>2021-08-01T11:58:42Z</time>
      </trkpt>
      <trkpt lat="42.21473" lon="1.02275">
        <ele>867.97</ele>
        <time>2021-08-01T11:58:50Z</time>
      </trkpt>
      <trkpt lat="42.21492" lon="1.02231">
        <ele>867.78</ele>
        <time>2021-08-01T11:58:54Z</time>
      </trkpt>
      <trkpt lat="42.21502" lon="1.02209">
        <ele>866.67</ele>
        <time>2021-08-01T11:58:58Z</time>
      </trkpt>
      <trkpt lat="42.21502" lon="1.02185">
        <ele>863.07</ele>
        <time>2021-08-01T11:59:06Z</time>
      </trkpt>
      <trkpt lat="42.21504" lon="1.02183">
        <ele>861.38</ele>
        <time>2021-08-01T11:59:15Z</time>
      </trkpt>
      <trkpt lat="42.21506" lon="1.02182">
        <ele>861.3</ele>
        <time>2021-08-01T11:59:16Z</time>
      </trkpt>
      <trkpt lat="42.2151" lon="1.02181">
        <ele>861.22</ele>
        <time>2021-08-01T11:59:17Z</time>
      </trkpt>
      <trkpt lat="42.21568" lon="1.02155">
        <ele>861.6</ele>
        <time>2021-08-01T11:59:24Z</time>
      </trkpt>
      <trkpt lat="42.21579" lon="1.02147">
        <ele>861.8</ele>
        <time>2021-08-01T11:59:25Z</time>
      </trkpt>
      <trkpt lat="42.21621" lon="1.02077">
        <ele>862.49</ele>
        <time>2021-08-01T11:59:30Z</time>
      </trkpt>
      <trkpt lat="42.21675" lon="1.01945">
        <ele>861.27</ele>
        <time>2021-08-01T11:59:37Z</time>
      </trkpt>
      <trkpt lat="42.21684" lon="1.01878">
        <ele>857.84</ele>
        <time>2021-08-01T11:59:41Z</time>
      </trkpt>
      <trkpt lat="42.2168" lon="1.01809">
        <ele>853.73</ele>
        <time>2021-08-01T11:59:45Z</time>
      </trkpt>
      <trkpt lat="42.21679" lon="1.01762">
        <ele>850.74</ele>
        <time>2021-08-01T11:59:48Z</time>
      </trkpt>
      <trkpt lat="42.21698" lon="1.01722">
        <ele>846.04</ele>
        <time>2021-08-01T11:59:52Z</time>
      </trkpt>
      <trkpt lat="42.21716" lon="1.0172">
        <ele>843.72</ele>
        <time>2021-08-01T11:59:54Z</time>
      </trkpt>
      <trkpt lat="42.21752" lon="1.01698">
        <ele>840.27</ele>
        <time>2021-08-01T11:59:58Z</time>
      </trkpt>
      <trkpt lat="42.21744" lon="1.016">
        <ele>836.15</ele>
        <time>2021-08-01T12:00:04Z</time>
      </trkpt>
      <trkpt lat="42.21729" lon="1.0157">
        <ele>835.17</ele>
        <time>2021-08-01T12:00:06Z</time>
      </trkpt>
      <trkpt lat="42.21722" lon="1.01499">
        <ele>831.47</ele>
        <time>2021-08-01T12:00:11Z</time>
      </trkpt>
      <trkpt lat="42.21736" lon="1.01434">
        <ele>828.27</ele>
        <time>2021-08-01T12:00:15Z</time>
      </trkpt>
      <trkpt lat="42.21736" lon="1.01418">
        <ele>827.34</ele>
        <time>2021-08-01T12:00:16Z</time>
      </trkpt>
      <trkpt lat="42.21734" lon="1.01374">
        <ele>822.94</ele>
        <time>2021-08-01T12:00:19Z</time>
      </trkpt>
      <trkpt lat="42.21735" lon="1.01362">
        <ele>821.91</ele>
        <time>2021-08-01T12:00:20Z</time>
      </trkpt>
      <trkpt lat="42.21753" lon="1.01332">
        <ele>817.84</ele>
        <time>2021-08-01T12:00:24Z</time>
      </trkpt>
      <trkpt lat="42.21771" lon="1.01322">
        <ele>815.97</ele>
        <time>2021-08-01T12:00:26Z</time>
      </trkpt>
      <trkpt lat="42.21789" lon="1.01311">
        <ele>814.45</ele>
        <time>2021-08-01T12:00:28Z</time>
      </trkpt>
      <trkpt lat="42.21835" lon="1.0129">
        <ele>810.01</ele>
        <time>2021-08-01T12:00:33Z</time>
      </trkpt>
      <trkpt lat="42.21848" lon="1.01268">
        <ele>808.28</ele>
        <time>2021-08-01T12:00:35Z</time>
      </trkpt>
      <trkpt lat="42.21865" lon="1.01231">
        <ele>805.95</ele>
        <time>2021-08-01T12:00:38Z</time>
      </trkpt>
      <trkpt lat="42.21873" lon="1.01181">
        <ele>803.01</ele>
        <time>2021-08-01T12:00:42Z</time>
      </trkpt>
      <trkpt lat="42.21901" lon="1.01106">
        <ele>799.19</ele>
        <time>2021-08-01T12:00:49Z</time>
      </trkpt>
      <trkpt lat="42.21951" lon="1.01095">
        <ele>797.2</ele>
        <time>2021-08-01T12:00:54Z</time>
      </trkpt>
      <trkpt lat="42.21982" lon="1.01097">
        <ele>794.89</ele>
        <time>2021-08-01T12:00:59Z</time>
      </trkpt>
      <trkpt lat="42.21968" lon="1.01046">
        <ele>793.03</ele>
        <time>2021-08-01T12:01:03Z</time>
      </trkpt>
      <trkpt lat="42.21963" lon="1.0101">
        <ele>792.75</ele>
        <time>2021-08-01T12:01:05Z</time>
      </trkpt>
      <trkpt lat="42.21977" lon="1.00955">
        <ele>792.58</ele>
        <time>2021-08-01T12:01:09Z</time>
      </trkpt>
      <trkpt lat="42.21997" lon="1.0094">
        <ele>792.39</ele>
        <time>2021-08-01T12:01:11Z</time>
      </trkpt>
      <trkpt lat="42.22026" lon="1.00911">
        <ele>791.69</ele>
        <time>2021-08-01T12:01:14Z</time>
      </trkpt>
      <trkpt lat="42.22094" lon="1.00839">
        <ele>788.75</ele>
        <time>2021-08-01T12:01:21Z</time>
      </trkpt>
      <trkpt lat="42.22131" lon="1.00759">
        <ele>784.63</ele>
        <time>2021-08-01T12:01:27Z</time>
      </trkpt>
      <trkpt lat="42.22145" lon="1.00734">
        <ele>783.26</ele>
        <time>2021-08-01T12:01:29Z</time>
      </trkpt>
      <trkpt lat="42.22198" lon="1.00689">
        <ele>779.81</ele>
        <time>2021-08-01T12:01:34Z</time>
      </trkpt>
      <trkpt lat="42.22236" lon="1.00636">
        <ele>777.44</ele>
        <time>2021-08-01T12:01:38Z</time>
      </trkpt>
      <trkpt lat="42.22264" lon="1.00571">
        <ele>774.6</ele>
        <time>2021-08-01T12:01:43Z</time>
      </trkpt>
      <trkpt lat="42.22244" lon="1.00553">
        <ele>770.49</ele>
        <time>2021-08-01T12:01:48Z</time>
      </trkpt>
      <trkpt lat="42.22212" lon="1.00603">
        <ele>767.3</ele>
        <time>2021-08-01T12:01:52Z</time>
      </trkpt>
      <trkpt lat="42.22155" lon="1.00619">
        <ele>765.25</ele>
        <time>2021-08-01T12:01:56Z</time>
      </trkpt>
      <trkpt lat="42.221" lon="1.00607">
        <ele>762.34</ele>
        <time>2021-08-01T12:02:01Z</time>
      </trkpt>
      <trkpt lat="42.22069" lon="1.00653">
        <ele>758.99</ele>
        <time>2021-08-01T12:02:05Z</time>
      </trkpt>
      <trkpt lat="42.22036" lon="1.00661">
        <ele>755.53</ele>
        <time>2021-08-01T12:02:09Z</time>
      </trkpt>
      <trkpt lat="42.22016" lon="1.00609">
        <ele>752.51</ele>
        <time>2021-08-01T12:02:13Z</time>
      </trkpt>
      <trkpt lat="42.21985" lon="1.00586">
        <ele>749.33</ele>
        <time>2021-08-01T12:02:17Z</time>
      </trkpt>
      <trkpt lat="42.21995" lon="1.0056">
        <ele>746.56</ele>
        <time>2021-08-01T12:02:20Z</time>
      </trkpt>
      <trkpt lat="42.22066" lon="1.00484">
        <ele>742.99</ele>
        <time>2021-08-01T12:02:26Z</time>
      </trkpt>
      <trkpt lat="42.22162" lon="1.00375">
        <ele>739.58</ele>
        <time>2021-08-01T12:02:33Z</time>
      </trkpt>
      <trkpt lat="42.22175" lon="1.00363">
        <ele>738.82</ele>
        <time>2021-08-01T12:02:34Z</time>
      </trkpt>
      <trkpt lat="42.22236" lon="1.00264">
        <ele>734.56</ele>
        <time>2021-08-01T12:02:40Z</time>
      </trkpt>
      <trkpt lat="42.22254" lon="1.0023">
        <ele>732.84</ele>
        <time>2021-08-01T12:02:42Z</time>
      </trkpt>
      <trkpt lat="42.223" lon="1.00205">
        <ele>727.96</ele>
        <time>2021-08-01T12:02:46Z</time>
      </trkpt>
      <trkpt lat="42.22332" lon="1.00194">
        <ele>723.98</ele>
        <time>2021-08-01T12:02:49Z</time>
      </trkpt>
      <trkpt lat="42.22341" lon="1.00165">
        <ele>719.96</ele>
        <time>2021-08-01T12:02:52Z</time>
      </trkpt>
      <trkpt lat="42.22303" lon="1.00116">
        <ele>716.64</ele>
        <time>2021-08-01T12:02:55Z</time>
      </trkpt>
      <trkpt lat="42.22272" lon="1.0009">
        <ele>714.94</ele>
        <time>2021-08-01T12:02:57Z</time>
      </trkpt>
      <trkpt lat="42.22247" lon="1.0007">
        <ele>713.53</ele>
        <time>2021-08-01T12:02:59Z</time>
      </trkpt>
      <trkpt lat="42.22242" lon="1.00016">
        <ele>708.88</ele>
        <time>2021-08-01T12:03:04Z</time>
      </trkpt>
      <trkpt lat="42.22269" lon="0.99984">
        <ele>705.85</ele>
        <time>2021-08-01T12:03:07Z</time>
      </trkpt>
      <trkpt lat="42.22326" lon="0.99959">
        <ele>702.26</ele>
        <time>2021-08-01T12:03:11Z</time>
      </trkpt>
      <trkpt lat="42.22341" lon="0.99957">
        <ele>701.69</ele>
        <time>2021-08-01T12:03:12Z</time>
      </trkpt>
      <trkpt lat="42.22367" lon="0.99955">
        <ele>700.47</ele>
        <time>2021-08-01T12:03:14Z</time>
      </trkpt>
      <trkpt lat="42.22385" lon="0.9993">
        <ele>696.28</ele>
        <time>2021-08-01T12:03:18Z</time>
      </trkpt>
      <trkpt lat="42.22326" lon="0.99902">
        <ele>691.32</ele>
        <time>2021-08-01T12:03:24Z</time>
      </trkpt>
      <trkpt lat="42.22341" lon="0.99849">
        <ele>689.05</ele>
        <time>2021-08-01T12:03:30Z</time>
      </trkpt>
      <trkpt lat="42.22373" lon="0.99887">
        <ele>687</ele>
        <time>2021-08-01T12:03:34Z</time>
      </trkpt>
      <trkpt lat="42.22399" lon="0.99879">
        <ele>683.92</ele>
        <time>2021-08-01T12:03:37Z</time>
      </trkpt>
      <trkpt lat="42.22416" lon="0.99808">
        <ele>682.15</ele>
        <time>2021-08-01T12:03:41Z</time>
      </trkpt>
      <trkpt lat="42.2241" lon="0.99784">
        <ele>681.7</ele>
        <time>2021-08-01T12:03:42Z</time>
      </trkpt>
      <trkpt lat="42.22441" lon="0.99674">
        <ele>678.01</ele>
        <time>2021-08-01T12:03:49Z</time>
      </trkpt>
      <trkpt lat="42.22465" lon="0.99657">
        <ele>676.31</ele>
        <time>2021-08-01T12:03:51Z</time>
      </trkpt>
      <trkpt lat="42.22494" lon="0.99644">
        <ele>674.79</ele>
        <time>2021-08-01T12:03:53Z</time>
      </trkpt>
      <trkpt lat="42.22565" lon="0.99558">
        <ele>671.08</ele>
        <time>2021-08-01T12:03:59Z</time>
      </trkpt>
      <trkpt lat="42.22606" lon="0.99534">
        <ele>668.32</ele>
        <time>2021-08-01T12:04:02Z</time>
      </trkpt>
      <trkpt lat="42.22664" lon="0.99535">
        <ele>664.97</ele>
        <time>2021-08-01T12:04:06Z</time>
      </trkpt>
      <trkpt lat="42.22743" lon="0.99511">
        <ele>661.32</ele>
        <time>2021-08-01T12:04:11Z</time>
      </trkpt>
      <trkpt lat="42.22813" lon="0.99508">
        <ele>657.43</ele>
        <time>2021-08-01T12:04:17Z</time>
      </trkpt>
      <trkpt lat="42.22824" lon="0.9952">
        <ele>656.94</ele>
        <time>2021-08-01T12:04:18Z</time>
      </trkpt>
      <trkpt lat="42.22853" lon="0.99565">
        <ele>655.86</ele>
        <time>2021-08-01T12:04:21Z</time>
      </trkpt>
      <trkpt lat="42.22892" lon="0.99581">
        <ele>653.22</ele>
        <time>2021-08-01T12:04:26Z</time>
      </trkpt>
      <trkpt lat="42.22907" lon="0.99526">
        <ele>649.94</ele>
        <time>2021-08-01T12:04:31Z</time>
      </trkpt>
      <trkpt lat="42.22904" lon="0.99513">
        <ele>649.64</ele>
        <time>2021-08-01T12:04:32Z</time>
      </trkpt>
      <trkpt lat="42.22859" lon="0.99443">
        <ele>648.13</ele>
        <time>2021-08-01T12:04:36Z</time>
      </trkpt>
      <trkpt lat="42.22768" lon="0.99335">
        <ele>645.46</ele>
        <time>2021-08-01T12:04:42Z</time>
      </trkpt>
      <trkpt lat="42.2272" lon="0.99228">
        <ele>641.02</ele>
        <time>2021-08-01T12:04:48Z</time>
      </trkpt>
      <trkpt lat="42.22683" lon="0.99213">
        <ele>638.01</ele>
        <time>2021-08-01T12:04:51Z</time>
      </trkpt>
      <trkpt lat="42.22656" lon="0.99208">
        <ele>636.83</ele>
        <time>2021-08-01T12:04:53Z</time>
      </trkpt>
      <trkpt lat="42.22634" lon="0.99194">
        <ele>635.99</ele>
        <time>2021-08-01T12:04:55Z</time>
      </trkpt>
      <trkpt lat="42.22628" lon="0.99182">
        <ele>635.4</ele>
        <time>2021-08-01T12:04:56Z</time>
      </trkpt>
      <trkpt lat="42.22624" lon="0.99169">
        <ele>634.72</ele>
        <time>2021-08-01T12:04:57Z</time>
      </trkpt>
      <trkpt lat="42.22623" lon="0.99157">
        <ele>633.98</ele>
        <time>2021-08-01T12:04:58Z</time>
      </trkpt>
      <trkpt lat="42.22619" lon="0.99135">
        <ele>632.27</ele>
        <time>2021-08-01T12:05:00Z</time>
      </trkpt>
      <trkpt lat="42.22603" lon="0.991">
        <ele>627.23</ele>
        <time>2021-08-01T12:05:05Z</time>
      </trkpt>
      <trkpt lat="42.22602" lon="0.99096">
        <ele>626.18</ele>
        <time>2021-08-01T12:05:06Z</time>
      </trkpt>
      <trkpt lat="42.2262" lon="0.99078">
        <ele>621.43</ele>
        <time>2021-08-01T12:05:11Z</time>
      </trkpt>
      <trkpt lat="42.22644" lon="0.99069">
        <ele>619.89</ele>
        <time>2021-08-01T12:05:14Z</time>
      </trkpt>
      <trkpt lat="42.22669" lon="0.99038">
        <ele>617.99</ele>
        <time>2021-08-01T12:05:18Z</time>
      </trkpt>
      <trkpt lat="42.22681" lon="0.9901">
        <ele>617.08</ele>
        <time>2021-08-01T12:05:21Z</time>
      </trkpt>
      <trkpt lat="42.22717" lon="0.99028">
        <ele>615.42</ele>
        <time>2021-08-01T12:05:26Z</time>
      </trkpt>
      <trkpt lat="42.22791" lon="0.99089">
        <ele>613.53</ele>
        <time>2021-08-01T12:05:32Z</time>
      </trkpt>
      <trkpt lat="42.22834" lon="0.99091">
        <ele>611.4</ele>
        <time>2021-08-01T12:05:36Z</time>
      </trkpt>
      <trkpt lat="42.2286" lon="0.9908">
        <ele>609.33</ele>
        <time>2021-08-01T12:05:39Z</time>
      </trkpt>
      <trkpt lat="42.22842" lon="0.99032">
        <ele>605.34</ele>
        <time>2021-08-01T12:05:44Z</time>
      </trkpt>
      <trkpt lat="42.22834" lon="0.99016">
        <ele>604.79</ele>
        <time>2021-08-01T12:05:45Z</time>
      </trkpt>
      <trkpt lat="42.2279" lon="0.98925">
        <ele>603.34</ele>
        <time>2021-08-01T12:05:50Z</time>
      </trkpt>
      <trkpt lat="42.22769" lon="0.98874">
        <ele>602.03</ele>
        <time>2021-08-01T12:05:53Z</time>
      </trkpt>
      <trkpt lat="42.22714" lon="0.98821">
        <ele>597.38</ele>
        <time>2021-08-01T12:05:58Z</time>
      </trkpt>
      <trkpt lat="42.22689" lon="0.98817">
        <ele>595.41</ele>
        <time>2021-08-01T12:06:00Z</time>
      </trkpt>
      <trkpt lat="42.22666" lon="0.98779">
        <ele>592.24</ele>
        <time>2021-08-01T12:06:04Z</time>
      </trkpt>
      <trkpt lat="42.22641" lon="0.98691">
        <ele>589.71</ele>
        <time>2021-08-01T12:06:09Z</time>
      </trkpt>
      <trkpt lat="42.2261" lon="0.98637">
        <ele>588.24</ele>
        <time>2021-08-01T12:06:12Z</time>
      </trkpt>
      <trkpt lat="42.22563" lon="0.98598">
        <ele>585.75</ele>
        <time>2021-08-01T12:06:16Z</time>
      </trkpt>
      <trkpt lat="42.22524" lon="0.98546">
        <ele>583.68</ele>
        <time>2021-08-01T12:06:20Z</time>
      </trkpt>
      <trkpt lat="42.22481" lon="0.98432">
        <ele>579.59</ele>
        <time>2021-08-01T12:06:26Z</time>
      </trkpt>
      <trkpt lat="42.22445" lon="0.98358">
        <ele>575.82</ele>
        <time>2021-08-01T12:06:30Z</time>
      </trkpt>
      <trkpt lat="42.22425" lon="0.98254">
        <ele>571.5</ele>
        <time>2021-08-01T12:06:35Z</time>
      </trkpt>
      <trkpt lat="42.22422" lon="0.98221">
        <ele>568.45</ele>
        <time>2021-08-01T12:06:37Z</time>
      </trkpt>
      <trkpt lat="42.22417" lon="0.98189">
        <ele>564.63</ele>
        <time>2021-08-01T12:06:39Z</time>
      </trkpt>
      <trkpt lat="42.22409" lon="0.9816">
        <ele>561.19</ele>
        <time>2021-08-01T12:06:41Z</time>
      </trkpt>
      <trkpt lat="42.22397" lon="0.98131">
        <ele>556.54</ele>
        <time>2021-08-01T12:06:44Z</time>
      </trkpt>
      <trkpt lat="42.2239" lon="0.98119">
        <ele>552.28</ele>
        <time>2021-08-01T12:06:47Z</time>
      </trkpt>
      <trkpt lat="42.22387" lon="0.98113">
        <ele>548.51</ele>
        <time>2021-08-01T12:06:50Z</time>
      </trkpt>
      <trkpt lat="42.22382" lon="0.98106">
        <ele>544.16</ele>
        <time>2021-08-01T12:06:54Z</time>
      </trkpt>
      <trkpt lat="42.22351" lon="0.98061">
        <ele>541.21</ele>
        <time>2021-08-01T12:07:01Z</time>
      </trkpt>
      <trkpt lat="42.22302" lon="0.9799">
        <ele>538.81</ele>
        <time>2021-08-01T12:07:08Z</time>
      </trkpt>
      <trkpt lat="42.22306" lon="0.9793">
        <ele>535.1</ele>
        <time>2021-08-01T12:07:13Z</time>
      </trkpt>
      <trkpt lat="42.22313" lon="0.97919">
        <ele>534.31</ele>
        <time>2021-08-01T12:07:14Z</time>
      </trkpt>
      <trkpt lat="42.22349" lon="0.9786">
        <ele>529.74</ele>
        <time>2021-08-01T12:07:20Z</time>
      </trkpt>
      <trkpt lat="42.22364" lon="0.97831">
        <ele>526.72</ele>
        <time>2021-08-01T12:07:24Z</time>
      </trkpt>
      <trkpt lat="42.22368" lon="0.97825">
        <ele>523.36</ele>
        <time>2021-08-01T12:07:30Z</time>
      </trkpt>
      <trkpt lat="42.22397" lon="0.978">
        <ele>521.37</ele>
        <time>2021-08-01T12:07:42Z</time>
      </trkpt>
      <trkpt lat="42.22431" lon="0.97777">
        <ele>520.68</ele>
        <time>2021-08-01T12:07:46Z</time>
      </trkpt>
      <trkpt lat="42.2244" lon="0.97773">
        <ele>520.5</ele>
        <time>2021-08-01T12:07:47Z</time>
      </trkpt>
      <trkpt lat="42.22451" lon="0.97771">
        <ele>520.29</ele>
        <time>2021-08-01T12:07:48Z</time>
      </trkpt>
      <trkpt lat="42.22471" lon="0.97772">
        <ele>519.89</ele>
        <time>2021-08-01T12:07:50Z</time>
      </trkpt>
      <trkpt lat="42.22503" lon="0.97778">
        <ele>518.67</ele>
        <time>2021-08-01T12:07:54Z</time>
      </trkpt>
      <trkpt lat="42.22519" lon="0.97738">
        <ele>515.41</ele>
        <time>2021-08-01T12:08:01Z</time>
      </trkpt>
      <trkpt lat="42.22516" lon="0.97727">
        <ele>515.04</ele>
        <time>2021-08-01T12:08:02Z</time>
      </trkpt>
      <trkpt lat="42.22497" lon="0.97681">
        <ele>513.78</ele>
        <time>2021-08-01T12:08:06Z</time>
      </trkpt>
      <trkpt lat="42.22461" lon="0.97648">
        <ele>511.38</ele>
        <time>2021-08-01T12:08:11Z</time>
      </trkpt>
      <trkpt lat="42.22421" lon="0.97619">
        <ele>508.8</ele>
        <time>2021-08-01T12:08:16Z</time>
      </trkpt>
      <trkpt lat="42.2242" lon="0.97577">
        <ele>504.69</ele>
        <time>2021-08-01T12:08:22Z</time>
      </trkpt>
      <trkpt lat="42.22433" lon="0.97583">
        <ele>502.84</ele>
        <time>2021-08-01T12:08:24Z</time>
      </trkpt>
      <trkpt lat="42.22489" lon="0.97605">
        <ele>497.65</ele>
        <time>2021-08-01T12:08:31Z</time>
      </trkpt>
      <trkpt lat="42.2252" lon="0.97621">
        <ele>495.55</ele>
        <time>2021-08-01T12:08:34Z</time>
      </trkpt>
      <trkpt lat="42.22564" lon="0.9761">
        <ele>491.37</ele>
        <time>2021-08-01T12:08:40Z</time>
      </trkpt>
      <trkpt lat="42.2257" lon="0.97597">
        <ele>488.24</ele>
        <time>2021-08-01T12:08:44Z</time>
      </trkpt>
      <trkpt lat="42.22549" lon="0.97575">
        <ele>485.74</ele>
        <time>2021-08-01T12:08:49Z</time>
      </trkpt>
      <trkpt lat="42.22419" lon="0.97518">
        <ele>483.78</ele>
        <time>2021-08-01T12:09:01Z</time>
      </trkpt>
      <trkpt lat="42.22269" lon="0.97481">
        <ele>483.2</ele>
        <time>2021-08-01T12:09:12Z</time>
      </trkpt>
      <trkpt lat="42.2221" lon="0.97464">
        <ele>481.87</ele>
        <time>2021-08-01T12:09:19Z</time>
      </trkpt>
      <trkpt lat="42.22108" lon="0.97481">
        <ele>481.52</ele>
        <time>2021-08-01T12:09:29Z</time>
      </trkpt>
      <trkpt lat="42.22011" lon="0.975">
        <ele>484.53</ele>
        <time>2021-08-01T12:09:36Z</time>
      </trkpt>
      <trkpt lat="42.21929" lon="0.97518">
        <ele>487.64</ele>
        <time>2021-08-01T12:09:41Z</time>
      </trkpt>
      <trkpt lat="42.21843" lon="0.97539">
        <ele>490.68</ele>
        <time>2021-08-01T12:09:46Z</time>
      </trkpt>
      <trkpt lat="42.21785" lon="0.97566">
        <ele>491.78</ele>
        <time>2021-08-01T12:09:50Z</time>
      </trkpt>
      <trkpt lat="42.2173" lon="0.97574">
        <ele>492</ele>
        <time>2021-08-01T12:09:54Z</time>
      </trkpt>
      <trkpt lat="42.21675" lon="0.97571">
        <ele>492.78</ele>
        <time>2021-08-01T12:09:58Z</time>
      </trkpt>
      <trkpt lat="42.21584" lon="0.97599">
        <ele>496.82</ele>
        <time>2021-08-01T12:10:04Z</time>
      </trkpt>
      <trkpt lat="42.21561" lon="0.97613">
        <ele>498.67</ele>
        <time>2021-08-01T12:10:06Z</time>
      </trkpt>
      <trkpt lat="42.2155" lon="0.97676">
        <ele>501.95</ele>
        <time>2021-08-01T12:10:11Z</time>
      </trkpt>
      <trkpt lat="42.21551" lon="0.97768">
        <ele>505.2</ele>
        <time>2021-08-01T12:10:16Z</time>
      </trkpt>
      <trkpt lat="42.21527" lon="0.97835">
        <ele>508.1</ele>
        <time>2021-08-01T12:10:20Z</time>
      </trkpt>
      <trkpt lat="42.21467" lon="0.97884">
        <ele>511.43</ele>
        <time>2021-08-01T12:10:26Z</time>
      </trkpt>
      <trkpt lat="42.21454" lon="0.9788">
        <ele>512.06</ele>
        <time>2021-08-01T12:10:27Z</time>
      </trkpt>
      <trkpt lat="42.21431" lon="0.97872">
        <ele>513.3</ele>
        <time>2021-08-01T12:10:29Z</time>
      </trkpt>
      <trkpt lat="42.21383" lon="0.97886">
        <ele>514.94</ele>
        <time>2021-08-01T12:10:34Z</time>
      </trkpt>
      <trkpt lat="42.21277" lon="0.97979">
        <ele>518.72</ele>
        <time>2021-08-01T12:10:43Z</time>
      </trkpt>
      <trkpt lat="42.21223" lon="0.98035">
        <ele>522.13</ele>
        <time>2021-08-01T12:10:47Z</time>
      </trkpt>
      <trkpt lat="42.2115" lon="0.98108">
        <ele>523.32</ele>
        <time>2021-08-01T12:10:53Z</time>
      </trkpt>
      <trkpt lat="42.21104" lon="0.98195">
        <ele>523.91</ele>
        <time>2021-08-01T12:10:58Z</time>
      </trkpt>
      <trkpt lat="42.21091" lon="0.98233">
        <ele>524.32</ele>
        <time>2021-08-01T12:11:00Z</time>
      </trkpt>
      <trkpt lat="42.21013" lon="0.98284">
        <ele>524.84</ele>
        <time>2021-08-01T12:11:06Z</time>
      </trkpt>
      <trkpt lat="42.20985" lon="0.98302">
        <ele>525.27</ele>
        <time>2021-08-01T12:11:08Z</time>
      </trkpt>
      <trkpt lat="42.20883" lon="0.98402">
        <ele>528.84</ele>
        <time>2021-08-01T12:11:16Z</time>
      </trkpt>
      <trkpt lat="42.20795" lon="0.98458">
        <ele>532.27</ele>
        <time>2021-08-01T12:11:22Z</time>
      </trkpt>
      <trkpt lat="42.20662" lon="0.98554">
        <ele>532.65</ele>
        <time>2021-08-01T12:11:32Z</time>
      </trkpt>
      <trkpt lat="42.20553" lon="0.98682">
        <ele>530.44</ele>
        <time>2021-08-01T12:11:41Z</time>
      </trkpt>
      <trkpt lat="42.20481" lon="0.9876">
        <ele>530.53</ele>
        <time>2021-08-01T12:11:48Z</time>
      </trkpt>
      <trkpt lat="42.20443" lon="0.98779">
        <ele>530.58</ele>
        <time>2021-08-01T12:11:52Z</time>
      </trkpt>
      <trkpt lat="42.20405" lon="0.98785">
        <ele>529.72</ele>
        <time>2021-08-01T12:12:00Z</time>
      </trkpt>
      <trkpt lat="42.20379" lon="0.98754">
        <ele>530.27</ele>
        <time>2021-08-01T12:12:06Z</time>
      </trkpt>
      <trkpt lat="42.20372" lon="0.98734">
        <ele>530.45</ele>
        <time>2021-08-01T12:12:08Z</time>
      </trkpt>
      <trkpt lat="42.20347" lon="0.98705">
        <ele>530.07</ele>
        <time>2021-08-01T12:12:12Z</time>
      </trkpt>
      <trkpt lat="42.20298" lon="0.98668">
        <ele>527.33</ele>
        <time>2021-08-01T12:12:20Z</time>
      </trkpt>
      <trkpt lat="42.20296" lon="0.98668">
        <ele>526.75</ele>
        <time>2021-08-01T12:12:21Z</time>
      </trkpt>
      <trkpt lat="42.20293" lon="0.9867">
        <ele>526.2</ele>
        <time>2021-08-01T12:12:22Z</time>
      </trkpt>
      <trkpt lat="42.20288" lon="0.98681">
        <ele>525.24</ele>
        <time>2021-08-01T12:12:24Z</time>
      </trkpt>
      <trkpt lat="42.20287" lon="0.9869">
        <ele>524.73</ele>
        <time>2021-08-01T12:12:25Z</time>
      </trkpt>
      <trkpt lat="42.20286" lon="0.98699">
        <ele>524.17</ele>
        <time>2021-08-01T12:12:26Z</time>
      </trkpt>
      <trkpt lat="42.20282" lon="0.98717">
        <ele>523.29</ele>
        <time>2021-08-01T12:12:28Z</time>
      </trkpt>
      <trkpt lat="42.20265" lon="0.98751">
        <ele>521.44</ele>
        <time>2021-08-01T12:12:32Z</time>
      </trkpt>
      <trkpt lat="42.2023" lon="0.98785">
        <ele>519.48</ele>
        <time>2021-08-01T12:12:41Z</time>
      </trkpt>
      <trkpt lat="42.20216" lon="0.98792">
        <ele>518.37</ele>
        <time>2021-08-01T12:12:54Z</time>
      </trkpt>
      <trkpt lat="42.2021" lon="0.98785">
        <ele>518.34</ele>
        <time>2021-08-01T12:12:56Z</time>
      </trkpt>
      <trkpt lat="42.20204" lon="0.98777">
        <ele>518.25</ele>
        <time>2021-08-01T12:12:58Z</time>
      </trkpt>
      <trkpt lat="42.20197" lon="0.98769">
        <ele>518.04</ele>
        <time>2021-08-01T12:13:00Z</time>
      </trkpt>
      <trkpt lat="42.20195" lon="0.98763">
        <ele>517.91</ele>
        <time>2021-08-01T12:13:01Z</time>
      </trkpt>
      <trkpt lat="42.20194" lon="0.98755">
        <ele>517.8</ele>
        <time>2021-08-01T12:13:02Z</time>
      </trkpt>
      <trkpt lat="42.20194" lon="0.98745">
        <ele>517.69</ele>
        <time>2021-08-01T12:13:03Z</time>
      </trkpt>
      <trkpt lat="42.20194" lon="0.98734">
        <ele>517.55</ele>
        <time>2021-08-01T12:13:04Z</time>
      </trkpt>
      <trkpt lat="42.20195" lon="0.98723">
        <ele>517.41</ele>
        <time>2021-08-01T12:13:05Z</time>
      </trkpt>
      <trkpt lat="42.20195" lon="0.98711">
        <ele>517.25</ele>
        <time>2021-08-01T12:13:06Z</time>
      </trkpt>
      <trkpt lat="42.20196" lon="0.98618">
        <ele>514.17</ele>
        <time>2021-08-01T12:13:13Z</time>
      </trkpt>
      <trkpt lat="42.20191" lon="0.98547">
        <ele>510.94</ele>
        <time>2021-08-01T12:13:18Z</time>
      </trkpt>
      <trkpt lat="42.2019" lon="0.98535">
        <ele>510.02</ele>
        <time>2021-08-01T12:13:19Z</time>
      </trkpt>
      <trkpt lat="42.20196" lon="0.98494">
        <ele>505.92</ele>
        <time>2021-08-01T12:13:23Z</time>
      </trkpt>
      <trkpt lat="42.20201" lon="0.98485">
        <ele>504.21</ele>
        <time>2021-08-01T12:13:24Z</time>
      </trkpt>
      <trkpt lat="42.20193" lon="0.98435">
        <ele>499.75</ele>
        <time>2021-08-01T12:13:30Z</time>
      </trkpt>
      <trkpt lat="42.20171" lon="0.9839">
        <ele>497.25</ele>
        <time>2021-08-01T12:13:35Z</time>
      </trkpt>
      <trkpt lat="42.20149" lon="0.98388">
        <ele>493.61</ele>
        <time>2021-08-01T12:13:41Z</time>
      </trkpt>
      <trkpt lat="42.20137" lon="0.98404">
        <ele>492.11</ele>
        <time>2021-08-01T12:13:43Z</time>
      </trkpt>
      <trkpt lat="42.20114" lon="0.98427">
        <ele>487.94</ele>
        <time>2021-08-01T12:13:49Z</time>
      </trkpt>
      <trkpt lat="42.20107" lon="0.9843">
        <ele>484.86</ele>
        <time>2021-08-01T12:13:58Z</time>
      </trkpt>
      <trkpt lat="42.20089" lon="0.98445">
        <ele>484.3</ele>
        <time>2021-08-01T12:14:05Z</time>
      </trkpt>
      <trkpt lat="42.20055" lon="0.98449">
        <ele>484.48</ele>
        <time>2021-08-01T12:14:10Z</time>
      </trkpt>
      <trkpt lat="42.19992" lon="0.98403">
        <ele>486.52</ele>
        <time>2021-08-01T12:14:17Z</time>
      </trkpt>
      <trkpt lat="42.19983" lon="0.9837">
        <ele>487.24</ele>
        <time>2021-08-01T12:14:19Z</time>
      </trkpt>
      <trkpt lat="42.19966" lon="0.98286">
        <ele>489.87</ele>
        <time>2021-08-01T12:14:24Z</time>
      </trkpt>
      <trkpt lat="42.19958" lon="0.98256">
        <ele>490.07</ele>
        <time>2021-08-01T12:14:26Z</time>
      </trkpt>
      <trkpt lat="42.19939" lon="0.98223">
        <ele>488.79</ele>
        <time>2021-08-01T12:14:30Z</time>
      </trkpt>
      <trkpt lat="42.19934" lon="0.98212">
        <ele>487.59</ele>
        <time>2021-08-01T12:14:32Z</time>
      </trkpt>
      <trkpt lat="42.19935" lon="0.98175">
        <ele>483.52</ele>
        <time>2021-08-01T12:14:39Z</time>
      </trkpt>
      <trkpt lat="42.19938" lon="0.9817">
        <ele>483.19</ele>
        <time>2021-08-01T12:14:40Z</time>
      </trkpt>
      <trkpt lat="42.19963" lon="0.98116">
        <ele>482.01</ele>
        <time>2021-08-01T12:14:48Z</time>
      </trkpt>
      <trkpt lat="42.19963" lon="0.98067">
        <ele>481.54</ele>
        <time>2021-08-01T12:14:53Z</time>
      </trkpt>
      <trkpt lat="42.1994" lon="0.97914">
        <ele>480.92</ele>
        <time>2021-08-01T12:15:04Z</time>
      </trkpt>
      <trkpt lat="42.19917" lon="0.97827">
        <ele>480.44</ele>
        <time>2021-08-01T12:15:11Z</time>
      </trkpt>
      <trkpt lat="42.19917" lon="0.97779">
        <ele>480.23</ele>
        <time>2021-08-01T12:15:15Z</time>
      </trkpt>
      <trkpt lat="42.19905" lon="0.97719">
        <ele>479.52</ele>
        <time>2021-08-01T12:15:23Z</time>
      </trkpt>
      <trkpt lat="42.19907" lon="0.97705">
        <ele>479.29</ele>
        <time>2021-08-01T12:15:25Z</time>
      </trkpt>
      <trkpt lat="42.19921" lon="0.97626">
        <ele>479.65</ele>
        <time>2021-08-01T12:15:34Z</time>
      </trkpt>
      <trkpt lat="42.19931" lon="0.97499">
        <ele>481.06</ele>
        <time>2021-08-01T12:15:43Z</time>
      </trkpt>
      <trkpt lat="42.1993" lon="0.9745">
        <ele>481.09</ele>
        <time>2021-08-01T12:15:47Z</time>
      </trkpt>
      <trkpt lat="42.19916" lon="0.9741">
        <ele>481.24</ele>
        <time>2021-08-01T12:15:51Z</time>
      </trkpt>
      <trkpt lat="42.19873" lon="0.97339">
        <ele>482.64</ele>
        <time>2021-08-01T12:15:59Z</time>
      </trkpt>
      <trkpt lat="42.19845" lon="0.9727">
        <ele>484.04</ele>
        <time>2021-08-01T12:16:07Z</time>
      </trkpt>
      <trkpt lat="42.19837" lon="0.97264">
        <ele>484.35</ele>
        <time>2021-08-01T12:16:08Z</time>
      </trkpt>
      <trkpt lat="42.19765" lon="0.97171">
        <ele>486.8</ele>
        <time>2021-08-01T12:16:18Z</time>
      </trkpt>
      <trkpt lat="42.19752" lon="0.97148">
        <ele>486.85</ele>
        <time>2021-08-01T12:16:20Z</time>
      </trkpt>
      <trkpt lat="42.19697" lon="0.97083">
        <ele>486.23</ele>
        <time>2021-08-01T12:16:26Z</time>
      </trkpt>
      <trkpt lat="42.19655" lon="0.97061">
        <ele>485.84</ele>
        <time>2021-08-01T12:16:31Z</time>
      </trkpt>
      <trkpt lat="42.19622" lon="0.97034">
        <ele>485.45</ele>
        <time>2021-08-01T12:16:37Z</time>
      </trkpt>
      <trkpt lat="42.19606" lon="0.96978">
        <ele>485.07</ele>
        <time>2021-08-01T12:16:43Z</time>
      </trkpt>
      <trkpt lat="42.19601" lon="0.96919">
        <ele>486.37</ele>
        <time>2021-08-01T12:16:49Z</time>
      </trkpt>
      <trkpt lat="42.1961" lon="0.96832">
        <ele>489.65</ele>
        <time>2021-08-01T12:16:59Z</time>
      </trkpt>
      <trkpt lat="42.19609" lon="0.96787">
        <ele>491.03</ele>
        <time>2021-08-01T12:17:03Z</time>
      </trkpt>
      <trkpt lat="42.19603" lon="0.96726">
        <ele>492.12</ele>
        <time>2021-08-01T12:17:08Z</time>
      </trkpt>
      <trkpt lat="42.19592" lon="0.9668">
        <ele>492.02</ele>
        <time>2021-08-01T12:17:12Z</time>
      </trkpt>
      <trkpt lat="42.19552" lon="0.96592">
        <ele>490.73</ele>
        <time>2021-08-01T12:17:20Z</time>
      </trkpt>
      <trkpt lat="42.19527" lon="0.96565">
        <ele>489.8</ele>
        <time>2021-08-01T12:17:24Z</time>
      </trkpt>
      <trkpt lat="42.19443" lon="0.96543">
        <ele>488.7</ele>
        <time>2021-08-01T12:17:33Z</time>
      </trkpt>
      <trkpt lat="42.19409" lon="0.96541">
        <ele>488.22</ele>
        <time>2021-08-01T12:17:37Z</time>
      </trkpt>
      <trkpt lat="42.19402" lon="0.96537">
        <ele>488.14</ele>
        <time>2021-08-01T12:17:38Z</time>
      </trkpt>
      <trkpt lat="42.19372" lon="0.96489">
        <ele>488.13</ele>
        <time>2021-08-01T12:17:44Z</time>
      </trkpt>
      <trkpt lat="42.19332" lon="0.96446">
        <ele>491.04</ele>
        <time>2021-08-01T12:17:50Z</time>
      </trkpt>
      <trkpt lat="42.19302" lon="0.96428">
        <ele>494.05</ele>
        <time>2021-08-01T12:17:55Z</time>
      </trkpt>
      <trkpt lat="42.19277" lon="0.96415">
        <ele>497.04</ele>
        <time>2021-08-01T12:18:00Z</time>
      </trkpt>
      <trkpt lat="42.19243" lon="0.96384">
        <ele>500.7</ele>
        <time>2021-08-01T12:18:07Z</time>
      </trkpt>
      <trkpt lat="42.19208" lon="0.9635">
        <ele>504.08</ele>
        <time>2021-08-01T12:18:13Z</time>
      </trkpt>
      <trkpt lat="42.19201" lon="0.96301">
        <ele>507.84</ele>
        <time>2021-08-01T12:18:19Z</time>
      </trkpt>
      <trkpt lat="42.19212" lon="0.96284">
        <ele>508.88</ele>
        <time>2021-08-01T12:18:21Z</time>
      </trkpt>
      <trkpt lat="42.19243" lon="0.96239">
        <ele>511.75</ele>
        <time>2021-08-01T12:18:27Z</time>
      </trkpt>
      <trkpt lat="42.19255" lon="0.962">
        <ele>513.57</ele>
        <time>2021-08-01T12:18:32Z</time>
      </trkpt>
      <trkpt lat="42.19255" lon="0.96096">
        <ele>515.74</ele>
        <time>2021-08-01T12:18:42Z</time>
      </trkpt>
      <trkpt lat="42.19258" lon="0.96032">
        <ele>516.41</ele>
        <time>2021-08-01T12:18:48Z</time>
      </trkpt>
      <trkpt lat="42.19238" lon="0.96009">
        <ele>516.46</ele>
        <time>2021-08-01T12:18:55Z</time>
      </trkpt>
      <trkpt lat="42.19201" lon="0.96018">
        <ele>514.86</ele>
        <time>2021-08-01T12:19:00Z</time>
      </trkpt>
      <trkpt lat="42.19187" lon="0.9601">
        <ele>513.96</ele>
        <time>2021-08-01T12:19:02Z</time>
      </trkpt>
      <trkpt lat="42.19153" lon="0.96006">
        <ele>512.22</ele>
        <time>2021-08-01T12:19:06Z</time>
      </trkpt>
      <trkpt lat="42.19112" lon="0.95997">
        <ele>507.51</ele>
        <time>2021-08-01T12:19:12Z</time>
      </trkpt>
      <trkpt lat="42.19107" lon="0.95978">
        <ele>504.23</ele>
        <time>2021-08-01T12:19:16Z</time>
      </trkpt>
      <trkpt lat="42.1913" lon="0.95968">
        <ele>501.13</ele>
        <time>2021-08-01T12:19:21Z</time>
      </trkpt>
      <trkpt lat="42.19158" lon="0.95957">
        <ele>498.56</ele>
        <time>2021-08-01T12:19:25Z</time>
      </trkpt>
      <trkpt lat="42.19169" lon="0.9595">
        <ele>497.23</ele>
        <time>2021-08-01T12:19:27Z</time>
      </trkpt>
      <trkpt lat="42.19163" lon="0.95925">
        <ele>493.18</ele>
        <time>2021-08-01T12:19:33Z</time>
      </trkpt>
      <trkpt lat="42.19155" lon="0.95924">
        <ele>492.62</ele>
        <time>2021-08-01T12:19:34Z</time>
      </trkpt>
      <trkpt lat="42.19137" lon="0.95923">
        <ele>491.66</ele>
        <time>2021-08-01T12:19:36Z</time>
      </trkpt>
      <trkpt lat="42.1911" lon="0.95927">
        <ele>489.95</ele>
        <time>2021-08-01T12:19:39Z</time>
      </trkpt>
      <trkpt lat="42.19053" lon="0.95921">
        <ele>485.83</ele>
        <time>2021-08-01T12:19:45Z</time>
      </trkpt>
      <trkpt lat="42.19011" lon="0.95916">
        <ele>482.51</ele>
        <time>2021-08-01T12:19:49Z</time>
      </trkpt>
      <trkpt lat="42.18967" lon="0.95908">
        <ele>479</ele>
        <time>2021-08-01T12:19:54Z</time>
      </trkpt>
      <trkpt lat="42.18941" lon="0.95875">
        <ele>476.98</ele>
        <time>2021-08-01T12:20:01Z</time>
      </trkpt>
      <trkpt lat="42.18939" lon="0.95863">
        <ele>511.8</ele>
      </trkpt>
    </trkseg>
  </trk>
  <trk>
    <name><![CDATA[TOTAL 4x4 _6]]></name>
    <extensions>
      <line xmlns="http://www.topografix.com/GPX/gpx_style/0/2">
        <color>FF00FF</color>
        <width>4</width>
      </line>
    </extensions>
    <trkseg>
      <trkpt lat="42.28985" lon="0.61513">
        <ele>1131.48</ele>
        <time>2021-08-01T16:31:59Z</time>
      </trkpt>
      <trkpt lat="42.28992" lon="0.61508">
        <ele>1132.32</ele>
        <time>2021-08-01T16:32:01Z</time>
      </trkpt>
      <trkpt lat="42.29044" lon="0.61491">
        <ele>1135.79</ele>
        <time>2021-08-01T16:32:10Z</time>
      </trkpt>
      <trkpt lat="42.29059" lon="0.61486">
        <ele>1136.45</ele>
        <time>2021-08-01T16:32:12Z</time>
      </trkpt>
      <trkpt lat="42.29141" lon="0.61411">
        <ele>1139.21</ele>
        <time>2021-08-01T16:32:23Z</time>
      </trkpt>
      <trkpt lat="42.29157" lon="0.61392">
        <ele>1139.31</ele>
        <time>2021-08-01T16:32:25Z</time>
      </trkpt>
      <trkpt lat="42.29192" lon="0.61365">
        <ele>1138.77</ele>
        <time>2021-08-01T16:32:29Z</time>
      </trkpt>
      <trkpt lat="42.29228" lon="0.61354">
        <ele>1137.65</ele>
        <time>2021-08-01T16:32:33Z</time>
      </trkpt>
      <trkpt lat="42.29295" lon="0.61345">
        <ele>1135.01</ele>
        <time>2021-08-01T16:32:41Z</time>
      </trkpt>
      <trkpt lat="42.29324" lon="0.61321">
        <ele>1134.39</ele>
        <time>2021-08-01T16:32:45Z</time>
      </trkpt>
      <trkpt lat="42.29354" lon="0.61309">
        <ele>1134.54</ele>
        <time>2021-08-01T16:32:49Z</time>
      </trkpt>
      <trkpt lat="42.29375" lon="0.61308">
        <ele>1135.61</ele>
        <time>2021-08-01T16:32:52Z</time>
      </trkpt>
      <trkpt lat="42.29406" lon="0.61294">
        <ele>1138.83</ele>
        <time>2021-08-01T16:32:58Z</time>
      </trkpt>
      <trkpt lat="42.29427" lon="0.613">
        <ele>1140.74</ele>
        <time>2021-08-01T16:33:03Z</time>
      </trkpt>
      <trkpt lat="42.29449" lon="0.61318">
        <ele>1141.69</ele>
        <time>2021-08-01T16:33:07Z</time>
      </trkpt>
      <trkpt lat="42.29482" lon="0.61321">
        <ele>1143.26</ele>
        <time>2021-08-01T16:33:15Z</time>
      </trkpt>
      <trkpt lat="42.29528" lon="0.61341">
        <ele>1143.12</ele>
        <time>2021-08-01T16:33:28Z</time>
      </trkpt>
      <trkpt lat="42.29558" lon="0.61365">
        <ele>1143.13</ele>
        <time>2021-08-01T16:33:33Z</time>
      </trkpt>
      <trkpt lat="42.29584" lon="0.61376">
        <ele>1143.28</ele>
        <time>2021-08-01T16:33:37Z</time>
      </trkpt>
      <trkpt lat="42.29606" lon="0.61376">
        <ele>1145.37</ele>
        <time>2021-08-01T16:33:46Z</time>
      </trkpt>
      <trkpt lat="42.29627" lon="0.6138">
        <ele>1146.7</ele>
        <time>2021-08-01T16:33:55Z</time>
      </trkpt>
      <trkpt lat="42.29706" lon="0.61361">
        <ele>1147.81</ele>
        <time>2021-08-01T16:34:05Z</time>
      </trkpt>
      <trkpt lat="42.29792" lon="0.61326">
        <ele>1149.49</ele>
        <time>2021-08-01T16:34:14Z</time>
      </trkpt>
      <trkpt lat="42.29834" lon="0.61319">
        <ele>1149.93</ele>
        <time>2021-08-01T16:34:18Z</time>
      </trkpt>
      <trkpt lat="42.29906" lon="0.61288">
        <ele>1151.02</ele>
        <time>2021-08-01T16:34:25Z</time>
      </trkpt>
      <trkpt lat="42.29965" lon="0.61252">
        <ele>1153.67</ele>
        <time>2021-08-01T16:34:30Z</time>
      </trkpt>
      <trkpt lat="42.30027" lon="0.61195">
        <ele>1158.04</ele>
        <time>2021-08-01T16:34:36Z</time>
      </trkpt>
      <trkpt lat="42.30096" lon="0.61153">
        <ele>1161.39</ele>
        <time>2021-08-01T16:34:42Z</time>
      </trkpt>
      <trkpt lat="42.30164" lon="0.61126">
        <ele>1163.08</ele>
        <time>2021-08-01T16:34:47Z</time>
      </trkpt>
      <trkpt lat="42.30238" lon="0.61073">
        <ele>1164.76</ele>
        <time>2021-08-01T16:34:53Z</time>
      </trkpt>
      <trkpt lat="42.3027" lon="0.61044">
        <ele>1166.07</ele>
        <time>2021-08-01T16:34:56Z</time>
      </trkpt>
      <trkpt lat="42.3029" lon="0.61024">
        <ele>1166.45</ele>
        <time>2021-08-01T16:34:58Z</time>
      </trkpt>
      <trkpt lat="42.30318" lon="0.60977">
        <ele>1169.94</ele>
        <time>2021-08-01T16:35:05Z</time>
      </trkpt>
      <trkpt lat="42.30328" lon="0.60955">
        <ele>1172.55</ele>
        <time>2021-08-01T16:35:10Z</time>
      </trkpt>
      <trkpt lat="42.30341" lon="0.60943">
        <ele>1174.44</ele>
        <time>2021-08-01T16:35:14Z</time>
      </trkpt>
      <trkpt lat="42.30353" lon="0.60924">
        <ele>1176.46</ele>
        <time>2021-08-01T16:35:18Z</time>
      </trkpt>
      <trkpt lat="42.30378" lon="0.60892">
        <ele>1180.49</ele>
        <time>2021-08-01T16:35:25Z</time>
      </trkpt>
      <trkpt lat="42.30401" lon="0.60884">
        <ele>1182.68</ele>
        <time>2021-08-01T16:35:29Z</time>
      </trkpt>
      <trkpt lat="42.30423" lon="0.60866">
        <ele>1185.33</ele>
        <time>2021-08-01T16:35:34Z</time>
      </trkpt>
      <trkpt lat="42.30437" lon="0.60854">
        <ele>1186.51</ele>
        <time>2021-08-01T16:35:37Z</time>
      </trkpt>
      <trkpt lat="42.30451" lon="0.60842">
        <ele>1188.16</ele>
        <time>2021-08-01T16:35:40Z</time>
      </trkpt>
      <trkpt lat="42.30475" lon="0.60829">
        <ele>1190.41</ele>
        <time>2021-08-01T16:35:44Z</time>
      </trkpt>
      <trkpt lat="42.30516" lon="0.60818">
        <ele>1194.06</ele>
        <time>2021-08-01T16:35:50Z</time>
      </trkpt>
      <trkpt lat="42.30539" lon="0.60805">
        <ele>1196.99</ele>
        <time>2021-08-01T16:35:55Z</time>
      </trkpt>
      <trkpt lat="42.30566" lon="0.60773">
        <ele>1200.18</ele>
        <time>2021-08-01T16:36:05Z</time>
      </trkpt>
      <trkpt lat="42.30571" lon="0.60771">
        <ele>1200.27</ele>
        <time>2021-08-01T16:36:06Z</time>
      </trkpt>
      <trkpt lat="42.30615" lon="0.60753">
        <ele>1203.13</ele>
        <time>2021-08-01T16:36:20Z</time>
      </trkpt>
      <trkpt lat="42.30646" lon="0.60778">
        <ele>1203.1</ele>
        <time>2021-08-01T16:36:29Z</time>
      </trkpt>
      <trkpt lat="42.30656" lon="0.60797">
        <ele>1201.37</ele>
        <time>2021-08-01T16:36:33Z</time>
      </trkpt>
      <trkpt lat="42.30662" lon="0.6082">
        <ele>1197.57</ele>
        <time>2021-08-01T16:36:39Z</time>
      </trkpt>
      <trkpt lat="42.30667" lon="0.60842">
        <ele>1194.97</ele>
        <time>2021-08-01T16:36:48Z</time>
      </trkpt>
      <trkpt lat="42.3068" lon="0.60885">
        <ele>1191.83</ele>
        <time>2021-08-01T16:36:58Z</time>
      </trkpt>
      <trkpt lat="42.30699" lon="0.60913">
        <ele>1189.84</ele>
        <time>2021-08-01T16:37:08Z</time>
      </trkpt>
      <trkpt lat="42.3071" lon="0.6092">
        <ele>1189.17</ele>
        <time>2021-08-01T16:37:16Z</time>
      </trkpt>
      <trkpt lat="42.30746" lon="0.60953">
        <ele>1189.13</ele>
        <time>2021-08-01T16:37:27Z</time>
      </trkpt>
      <trkpt lat="42.30769" lon="0.60973">
        <ele>1188.08</ele>
        <time>2021-08-01T16:37:37Z</time>
      </trkpt>
      <trkpt lat="42.30769" lon="0.60973">
        <ele>1186.72</ele>
        <time>2021-08-01T16:37:59Z</time>
      </trkpt>
      <trkpt lat="42.30769" lon="0.60973">
        <ele>1186.74</ele>
        <time>2021-08-01T16:38:00Z</time>
      </trkpt>
      <trkpt lat="42.30764" lon="0.60967">
        <ele>1186.71</ele>
        <time>2021-08-01T16:38:06Z</time>
      </trkpt>
      <trkpt lat="42.30772" lon="0.60968">
        <ele>1187.05</ele>
        <time>2021-08-01T16:38:11Z</time>
      </trkpt>
      <trkpt lat="42.30772" lon="0.60977">
        <ele>1186.77</ele>
        <time>2021-08-01T16:38:22Z</time>
      </trkpt>
      <trkpt lat="42.30772" lon="0.60977">
        <ele>1186.49</ele>
        <time>2021-08-01T16:40:45Z</time>
      </trkpt>
      <trkpt lat="42.30772" lon="0.60978">
        <ele>1186.49</ele>
        <time>2021-08-01T16:40:46Z</time>
      </trkpt>
      <trkpt lat="42.30788" lon="0.61001">
        <ele>1186.91</ele>
        <time>2021-08-01T16:40:53Z</time>
      </trkpt>
      <trkpt lat="42.30802" lon="0.61034">
        <ele>1186.17</ele>
        <time>2021-08-01T16:41:01Z</time>
      </trkpt>
      <trkpt lat="42.30802" lon="0.61053">
        <ele>1186.33</ele>
        <time>2021-08-01T16:41:05Z</time>
      </trkpt>
      <trkpt lat="42.30797" lon="0.61107">
        <ele>1187.6</ele>
        <time>2021-08-01T16:41:19Z</time>
      </trkpt>
      <trkpt lat="42.30794" lon="0.61184">
        <ele>1189.51</ele>
        <time>2021-08-01T16:41:34Z</time>
      </trkpt>
      <trkpt lat="42.30787" lon="0.61211">
        <ele>1190.68</ele>
        <time>2021-08-01T16:41:39Z</time>
      </trkpt>
      <trkpt lat="42.30768" lon="0.61252">
        <ele>1192.77</ele>
        <time>2021-08-01T16:41:47Z</time>
      </trkpt>
      <trkpt lat="42.30767" lon="0.61281">
        <ele>1193.45</ele>
        <time>2021-08-01T16:41:51Z</time>
      </trkpt>
      <trkpt lat="42.30775" lon="0.61334">
        <ele>1195.42</ele>
        <time>2021-08-01T16:41:57Z</time>
      </trkpt>
      <trkpt lat="42.30788" lon="0.61358">
        <ele>1198.01</ele>
        <time>2021-08-01T16:42:05Z</time>
      </trkpt>
      <trkpt lat="42.30813" lon="0.61343">
        <ele>1200.96</ele>
        <time>2021-08-01T16:42:13Z</time>
      </trkpt>
      <trkpt lat="42.30832" lon="0.61347">
        <ele>1201.85</ele>
        <time>2021-08-01T16:42:17Z</time>
      </trkpt>
      <trkpt lat="42.30877" lon="0.61372">
        <ele>1202.6</ele>
        <time>2021-08-01T16:42:25Z</time>
      </trkpt>
      <trkpt lat="42.30912" lon="0.61422">
        <ele>1202.3</ele>
        <time>2021-08-01T16:42:33Z</time>
      </trkpt>
      <trkpt lat="42.30918" lon="0.61449">
        <ele>1202.31</ele>
        <time>2021-08-01T16:42:40Z</time>
      </trkpt>
      <trkpt lat="42.30918" lon="0.61463">
        <ele>1202.26</ele>
        <time>2021-08-01T16:43:10Z</time>
      </trkpt>
      <trkpt lat="42.30919" lon="0.61463">
        <ele>1202.51</ele>
        <time>2021-08-01T16:43:33Z</time>
      </trkpt>
      <trkpt lat="42.30918" lon="0.61461">
        <ele>1201.95</ele>
        <time>2021-08-01T16:44:44Z</time>
      </trkpt>
      <trkpt lat="42.30919" lon="0.61462">
        <ele>1201.93</ele>
        <time>2021-08-01T16:44:47Z</time>
      </trkpt>
      <trkpt lat="42.30937" lon="0.61464">
        <ele>1201.65</ele>
        <time>2021-08-01T16:44:53Z</time>
      </trkpt>
      <trkpt lat="42.30978" lon="0.61488">
        <ele>1198.91</ele>
        <time>2021-08-01T16:45:05Z</time>
      </trkpt>
      <trkpt lat="42.31005" lon="0.6151">
        <ele>1196.17</ele>
        <time>2021-08-01T16:45:15Z</time>
      </trkpt>
      <trkpt lat="42.31023" lon="0.61533">
        <ele>1194.75</ele>
        <time>2021-08-01T16:45:19Z</time>
      </trkpt>
      <trkpt lat="42.31044" lon="0.61569">
        <ele>1192.27</ele>
        <time>2021-08-01T16:45:27Z</time>
      </trkpt>
      <trkpt lat="42.31072" lon="0.61613">
        <ele>1189.38</ele>
        <time>2021-08-01T16:45:36Z</time>
      </trkpt>
      <trkpt lat="42.31109" lon="0.61622">
        <ele>1186.69</ele>
        <time>2021-08-01T16:45:48Z</time>
      </trkpt>
      <trkpt lat="42.31112" lon="0.61621">
        <ele>1186.45</ele>
        <time>2021-08-01T16:45:49Z</time>
      </trkpt>
      <trkpt lat="42.31134" lon="0.61616">
        <ele>1185.09</ele>
        <time>2021-08-01T16:45:54Z</time>
      </trkpt>
      <trkpt lat="42.31157" lon="0.61607">
        <ele>1182.46</ele>
        <time>2021-08-01T16:45:59Z</time>
      </trkpt>
      <trkpt lat="42.31173" lon="0.61603">
        <ele>1180.17</ele>
        <time>2021-08-01T16:46:03Z</time>
      </trkpt>
      <trkpt lat="42.31174" lon="0.61593">
        <ele>1177.94</ele>
        <time>2021-08-01T16:46:07Z</time>
      </trkpt>
      <trkpt lat="42.31152" lon="0.6159">
        <ele>1173.89</ele>
        <time>2021-08-01T16:46:15Z</time>
      </trkpt>
      <trkpt lat="42.31139" lon="0.61588">
        <ele>1170.54</ele>
        <time>2021-08-01T16:46:20Z</time>
      </trkpt>
      <trkpt lat="42.31137" lon="0.61587">
        <ele>1169.88</ele>
        <time>2021-08-01T16:46:21Z</time>
      </trkpt>
      <trkpt lat="42.31148" lon="0.61575">
        <ele>1166.06</ele>
        <time>2021-08-01T16:46:27Z</time>
      </trkpt>
      <trkpt lat="42.31146" lon="0.61566">
        <ele>1162.68</ele>
        <time>2021-08-01T16:46:32Z</time>
      </trkpt>
      <trkpt lat="42.3113" lon="0.61567">
        <ele>1160.45</ele>
        <time>2021-08-01T16:46:36Z</time>
      </trkpt>
      <trkpt lat="42.3112" lon="0.61569">
        <ele>1159.36</ele>
        <time>2021-08-01T16:46:38Z</time>
      </trkpt>
      <trkpt lat="42.31119" lon="0.61548">
        <ele>1155.56</ele>
        <time>2021-08-01T16:46:44Z</time>
      </trkpt>
      <trkpt lat="42.31126" lon="0.61539">
        <ele>1154.02</ele>
        <time>2021-08-01T16:46:46Z</time>
      </trkpt>
      <trkpt lat="42.31148" lon="0.61526">
        <ele>1150.25</ele>
        <time>2021-08-01T16:46:51Z</time>
      </trkpt>
      <trkpt lat="42.3117" lon="0.61515">
        <ele>1145.23</ele>
        <time>2021-08-01T16:46:56Z</time>
      </trkpt>
      <trkpt lat="42.31181" lon="0.61523">
        <ele>1142.11</ele>
        <time>2021-08-01T16:46:59Z</time>
      </trkpt>
      <trkpt lat="42.31187" lon="0.6153">
        <ele>1140.12</ele>
        <time>2021-08-01T16:47:01Z</time>
      </trkpt>
      <trkpt lat="42.31193" lon="0.61538">
        <ele>1138.21</ele>
        <time>2021-08-01T16:47:03Z</time>
      </trkpt>
      <trkpt lat="42.31214" lon="0.61548">
        <ele>1134.89</ele>
        <time>2021-08-01T16:47:08Z</time>
      </trkpt>
      <trkpt lat="42.31222" lon="0.61546">
        <ele>1133.68</ele>
        <time>2021-08-01T16:47:10Z</time>
      </trkpt>
      <trkpt lat="42.31255" lon="0.6153">
        <ele>1129.7</ele>
        <time>2021-08-01T16:47:17Z</time>
      </trkpt>
      <trkpt lat="42.31277" lon="0.615">
        <ele>1127.31</ele>
        <time>2021-08-01T16:47:24Z</time>
      </trkpt>
      <trkpt lat="42.31261" lon="0.61487">
        <ele>1124.59</ele>
        <time>2021-08-01T16:47:29Z</time>
      </trkpt>
      <trkpt lat="42.31255" lon="0.61487">
        <ele>1123.14</ele>
        <time>2021-08-01T16:47:31Z</time>
      </trkpt>
      <trkpt lat="42.31207" lon="0.61481">
        <ele>1119.12</ele>
        <time>2021-08-01T16:47:40Z</time>
      </trkpt>
      <trkpt lat="42.31204" lon="0.61475">
        <ele>1118.71</ele>
        <time>2021-08-01T16:47:41Z</time>
      </trkpt>
      <trkpt lat="42.31193" lon="0.61449">
        <ele>1116.94</ele>
        <time>2021-08-01T16:47:45Z</time>
      </trkpt>
      <trkpt lat="42.31184" lon="0.6141">
        <ele>1113.27</ele>
        <time>2021-08-01T16:47:51Z</time>
      </trkpt>
      <trkpt lat="42.31185" lon="0.61403">
        <ele>1112.58</ele>
        <time>2021-08-01T16:47:52Z</time>
      </trkpt>
      <trkpt lat="42.31189" lon="0.61389">
        <ele>1111.11</ele>
        <time>2021-08-01T16:47:54Z</time>
      </trkpt>
      <trkpt lat="42.31195" lon="0.61346">
        <ele>1106.83</ele>
        <time>2021-08-01T16:47:59Z</time>
      </trkpt>
      <trkpt lat="42.31201" lon="0.61317">
        <ele>1103.13</ele>
        <time>2021-08-01T16:48:03Z</time>
      </trkpt>
      <trkpt lat="42.31208" lon="0.61302">
        <ele>1099.49</ele>
        <time>2021-08-01T16:48:07Z</time>
      </trkpt>
      <trkpt lat="42.31215" lon="0.61288">
        <ele>1095.93</ele>
        <time>2021-08-01T16:48:11Z</time>
      </trkpt>
      <trkpt lat="42.31226" lon="0.61273">
        <ele>1092.62</ele>
        <time>2021-08-01T16:48:17Z</time>
      </trkpt>
      <trkpt lat="42.31228" lon="0.61272">
        <ele>1089.6</ele>
        <time>2021-08-01T16:48:28Z</time>
      </trkpt>
      <trkpt lat="42.31227" lon="0.61272">
        <ele>1089.56</ele>
        <time>2021-08-01T16:48:50Z</time>
      </trkpt>
      <trkpt lat="42.31227" lon="0.61272">
        <ele>1089.47</ele>
        <time>2021-08-01T16:54:17Z</time>
      </trkpt>
      <trkpt lat="42.31227" lon="0.61273">
        <ele>1089.47</ele>
        <time>2021-08-01T16:55:05Z</time>
      </trkpt>
      <trkpt lat="42.31226" lon="0.61273">
        <ele>1089.47</ele>
        <time>2021-08-01T16:55:56Z</time>
      </trkpt>
      <trkpt lat="42.31227" lon="0.61273">
        <ele>1089.47</ele>
        <time>2021-08-01T16:56:30Z</time>
      </trkpt>
      <trkpt lat="42.31228" lon="0.61272">
        <ele>1089.47</ele>
        <time>2021-08-01T16:57:08Z</time>
      </trkpt>
      <trkpt lat="42.31227" lon="0.61273">
        <ele>1089.47</ele>
        <time>2021-08-01T16:57:43Z</time>
      </trkpt>
      <trkpt lat="42.31228" lon="0.61273">
        <ele>1089.47</ele>
        <time>2021-08-01T16:58:18Z</time>
      </trkpt>
      <trkpt lat="42.31228" lon="0.61274">
        <ele>1089.47</ele>
        <time>2021-08-01T16:58:55Z</time>
      </trkpt>
      <trkpt lat="42.31228" lon="0.61274">
        <ele>1089.47</ele>
        <time>2021-08-01T16:59:33Z</time>
      </trkpt>
      <trkpt lat="42.31227" lon="0.61275">
        <ele>1089.47</ele>
        <time>2021-08-01T17:00:33Z</time>
      </trkpt>
      <trkpt lat="42.31227" lon="0.61275">
        <ele>1089.47</ele>
        <time>2021-08-01T17:01:09Z</time>
      </trkpt>
      <trkpt lat="42.31226" lon="0.61275">
        <ele>1089.47</ele>
        <time>2021-08-01T17:02:34Z</time>
      </trkpt>
      <trkpt lat="42.31226" lon="0.61276">
        <ele>1089.47</ele>
        <time>2021-08-01T17:03:44Z</time>
      </trkpt>
      <trkpt lat="42.31227" lon="0.61277">
        <ele>1089.47</ele>
        <time>2021-08-01T17:04:38Z</time>
      </trkpt>
      <trkpt lat="42.31239" lon="0.6127">
        <ele>1089.42</ele>
        <time>2021-08-01T17:05:42Z</time>
      </trkpt>
      <trkpt lat="42.31252" lon="0.61264">
        <ele>1088.69</ele>
        <time>2021-08-01T17:05:54Z</time>
      </trkpt>
      <trkpt lat="42.31251" lon="0.61264">
        <ele>1089.07</ele>
        <time>2021-08-01T17:06:03Z</time>
      </trkpt>
      <trkpt lat="42.31246" lon="0.61263">
        <ele>1089.03</ele>
        <time>2021-08-01T17:06:06Z</time>
      </trkpt>
      <trkpt lat="42.31244" lon="0.61265">
        <ele>1088.66</ele>
        <time>2021-08-01T17:06:09Z</time>
      </trkpt>
      <trkpt lat="42.31235" lon="0.61244">
        <ele>1088.39</ele>
        <time>2021-08-01T17:06:14Z</time>
      </trkpt>
      <trkpt lat="42.31222" lon="0.61205">
        <ele>1087.3</ele>
        <time>2021-08-01T17:06:19Z</time>
      </trkpt>
      <trkpt lat="42.3122" lon="0.61167">
        <ele>1083.85</ele>
        <time>2021-08-01T17:06:25Z</time>
      </trkpt>
      <trkpt lat="42.31247" lon="0.61151">
        <ele>1080.49</ele>
        <time>2021-08-01T17:06:31Z</time>
      </trkpt>
      <trkpt lat="42.31254" lon="0.6113">
        <ele>1077.27</ele>
        <time>2021-08-01T17:06:35Z</time>
      </trkpt>
      <trkpt lat="42.31252" lon="0.61124">
        <ele>1076.39</ele>
        <time>2021-08-01T17:06:36Z</time>
      </trkpt>
      <trkpt lat="42.31247" lon="0.61111">
        <ele>1074.57</ele>
        <time>2021-08-01T17:06:38Z</time>
      </trkpt>
      <trkpt lat="42.31216" lon="0.61074">
        <ele>1070.48</ele>
        <time>2021-08-01T17:06:44Z</time>
      </trkpt>
      <trkpt lat="42.31206" lon="0.6104">
        <ele>1066.75</ele>
        <time>2021-08-01T17:06:51Z</time>
      </trkpt>
      <trkpt lat="42.31214" lon="0.61038">
        <ele>1065.39</ele>
        <time>2021-08-01T17:06:53Z</time>
      </trkpt>
      <trkpt lat="42.31241" lon="0.61032">
        <ele>1061.06</ele>
        <time>2021-08-01T17:06:59Z</time>
      </trkpt>
      <trkpt lat="42.31251" lon="0.61014">
        <ele>1056.92</ele>
        <time>2021-08-01T17:07:04Z</time>
      </trkpt>
      <trkpt lat="42.31252" lon="0.60977">
        <ele>1055.2</ele>
        <time>2021-08-01T17:07:10Z</time>
      </trkpt>
      <trkpt lat="42.31266" lon="0.60943">
        <ele>1055.17</ele>
        <time>2021-08-01T17:07:15Z</time>
      </trkpt>
      <trkpt lat="42.31272" lon="0.60874">
        <ele>1051.35</ele>
        <time>2021-08-01T17:07:24Z</time>
      </trkpt>
      <trkpt lat="42.31287" lon="0.60854">
        <ele>1047.3</ele>
        <time>2021-08-01T17:07:28Z</time>
      </trkpt>
      <trkpt lat="42.31305" lon="0.6085">
        <ele>1044.14</ele>
        <time>2021-08-01T17:07:31Z</time>
      </trkpt>
      <trkpt lat="42.31321" lon="0.60856">
        <ele>1041.01</ele>
        <time>2021-08-01T17:07:34Z</time>
      </trkpt>
      <trkpt lat="42.31332" lon="0.60855">
        <ele>1037.88</ele>
        <time>2021-08-01T17:07:37Z</time>
      </trkpt>
      <trkpt lat="42.31333" lon="0.60841">
        <ele>1034.96</ele>
        <time>2021-08-01T17:07:40Z</time>
      </trkpt>
      <trkpt lat="42.31321" lon="0.60799">
        <ele>1031.41</ele>
        <time>2021-08-01T17:07:46Z</time>
      </trkpt>
      <trkpt lat="42.31318" lon="0.60747">
        <ele>1027.68</ele>
        <time>2021-08-01T17:07:52Z</time>
      </trkpt>
      <trkpt lat="42.31328" lon="0.6072">
        <ele>1025.6</ele>
        <time>2021-08-01T17:07:56Z</time>
      </trkpt>
      <trkpt lat="42.31338" lon="0.60705">
        <ele>1024.32</ele>
        <time>2021-08-01T17:07:59Z</time>
      </trkpt>
      <trkpt lat="42.31341" lon="0.60679">
        <ele>1023.24</ele>
        <time>2021-08-01T17:08:02Z</time>
      </trkpt>
      <trkpt lat="42.31343" lon="0.60631">
        <ele>1021.48</ele>
        <time>2021-08-01T17:08:07Z</time>
      </trkpt>
      <trkpt lat="42.31341" lon="0.606">
        <ele>1019.75</ele>
        <time>2021-08-01T17:08:10Z</time>
      </trkpt>
      <trkpt lat="42.3132" lon="0.60576">
        <ele>1015.37</ele>
        <time>2021-08-01T17:08:16Z</time>
      </trkpt>
      <trkpt lat="42.31312" lon="0.60586">
        <ele>1013.87</ele>
        <time>2021-08-01T17:08:18Z</time>
      </trkpt>
      <trkpt lat="42.31278" lon="0.60581">
        <ele>1008.99</ele>
        <time>2021-08-01T17:08:25Z</time>
      </trkpt>
      <trkpt lat="42.31283" lon="0.60549">
        <ele>1006.14</ele>
        <time>2021-08-01T17:08:29Z</time>
      </trkpt>
      <trkpt lat="42.31295" lon="0.60527">
        <ele>1001.87</ele>
        <time>2021-08-01T17:08:34Z</time>
      </trkpt>
      <trkpt lat="42.31309" lon="0.60504">
        <ele>998.52</ele>
        <time>2021-08-01T17:08:38Z</time>
      </trkpt>
      <trkpt lat="42.31334" lon="0.60465">
        <ele>995.34</ele>
        <time>2021-08-01T17:08:44Z</time>
      </trkpt>
      <trkpt lat="42.31383" lon="0.60407">
        <ele>993.19</ele>
        <time>2021-08-01T17:08:53Z</time>
      </trkpt>
      <trkpt lat="42.31428" lon="0.60345">
        <ele>992.27</ele>
        <time>2021-08-01T17:09:04Z</time>
      </trkpt>
      <trkpt lat="42.31443" lon="0.60309">
        <ele>991.12</ele>
        <time>2021-08-01T17:09:08Z</time>
      </trkpt>
      <trkpt lat="42.31447" lon="0.60289">
        <ele>990.06</ele>
        <time>2021-08-01T17:09:10Z</time>
      </trkpt>
      <trkpt lat="42.31434" lon="0.60279">
        <ele>986.67</ele>
        <time>2021-08-01T17:09:16Z</time>
      </trkpt>
      <trkpt lat="42.31385" lon="0.60313">
        <ele>983.24</ele>
        <time>2021-08-01T17:09:24Z</time>
      </trkpt>
      <trkpt lat="42.31334" lon="0.603">
        <ele>980.79</ele>
        <time>2021-08-01T17:09:32Z</time>
      </trkpt>
      <trkpt lat="42.31322" lon="0.60282">
        <ele>978.68</ele>
        <time>2021-08-01T17:09:35Z</time>
      </trkpt>
      <trkpt lat="42.31309" lon="0.60268">
        <ele>975.59</ele>
        <time>2021-08-01T17:09:38Z</time>
      </trkpt>
      <trkpt lat="42.31311" lon="0.60236">
        <ele>972.15</ele>
        <time>2021-08-01T17:09:42Z</time>
      </trkpt>
      <trkpt lat="42.31314" lon="0.60231">
        <ele>971.24</ele>
        <time>2021-08-01T17:09:43Z</time>
      </trkpt>
      <trkpt lat="42.31308" lon="0.60207">
        <ele>965.92</ele>
        <time>2021-08-01T17:09:49Z</time>
      </trkpt>
      <trkpt lat="42.31303" lon="0.60208">
        <ele>965.11</ele>
        <time>2021-08-01T17:09:50Z</time>
      </trkpt>
      <trkpt lat="42.31287" lon="0.60183">
        <ele>959.99</ele>
        <time>2021-08-01T17:09:57Z</time>
      </trkpt>
      <trkpt lat="42.31292" lon="0.60147">
        <ele>957.59</ele>
        <time>2021-08-01T17:10:01Z</time>
      </trkpt>
      <trkpt lat="42.3128" lon="0.60099">
        <ele>953.9</ele>
        <time>2021-08-01T17:10:06Z</time>
      </trkpt>
      <trkpt lat="42.3129" lon="0.60058">
        <ele>949.57</ele>
        <time>2021-08-01T17:10:11Z</time>
      </trkpt>
      <trkpt lat="42.31309" lon="0.60041">
        <ele>946.95</ele>
        <time>2021-08-01T17:10:14Z</time>
      </trkpt>
      <trkpt lat="42.31333" lon="0.60013">
        <ele>943.98</ele>
        <time>2021-08-01T17:10:19Z</time>
      </trkpt>
      <trkpt lat="42.31352" lon="0.5999">
        <ele>940.43</ele>
        <time>2021-08-01T17:10:26Z</time>
      </trkpt>
      <trkpt lat="42.31363" lon="0.59982">
        <ele>939.03</ele>
        <time>2021-08-01T17:10:29Z</time>
      </trkpt>
      <trkpt lat="42.31371" lon="0.59977">
        <ele>938.22</ele>
        <time>2021-08-01T17:10:31Z</time>
      </trkpt>
      <trkpt lat="42.31402" lon="0.59966">
        <ele>934.53</ele>
        <time>2021-08-01T17:10:40Z</time>
      </trkpt>
      <trkpt lat="42.31436" lon="0.59942">
        <ele>931.48</ele>
        <time>2021-08-01T17:10:48Z</time>
      </trkpt>
      <trkpt lat="42.31454" lon="0.59931">
        <ele>930.23</ele>
        <time>2021-08-01T17:10:52Z</time>
      </trkpt>
      <trkpt lat="42.31491" lon="0.59894">
        <ele>930.68</ele>
        <time>2021-08-01T17:11:00Z</time>
      </trkpt>
      <trkpt lat="42.31556" lon="0.59845">
        <ele>932.63</ele>
        <time>2021-08-01T17:11:09Z</time>
      </trkpt>
      <trkpt lat="42.31569" lon="0.5981">
        <ele>932.54</ele>
        <time>2021-08-01T17:11:15Z</time>
      </trkpt>
      <trkpt lat="42.31569" lon="0.59795">
        <ele>932</ele>
        <time>2021-08-01T17:11:17Z</time>
      </trkpt>
      <trkpt lat="42.31564" lon="0.59736">
        <ele>929.9</ele>
        <time>2021-08-01T17:11:23Z</time>
      </trkpt>
      <trkpt lat="42.31564" lon="0.59696">
        <ele>927.76</ele>
        <time>2021-08-01T17:11:27Z</time>
      </trkpt>
      <trkpt lat="42.31563" lon="0.5967">
        <ele>925.53</ele>
        <time>2021-08-01T17:11:31Z</time>
      </trkpt>
      <trkpt lat="42.3156" lon="0.59648">
        <ele>922.54</ele>
        <time>2021-08-01T17:11:37Z</time>
      </trkpt>
      <trkpt lat="42.31576" lon="0.5965">
        <ele>920.17</ele>
        <time>2021-08-01T17:11:43Z</time>
      </trkpt>
      <trkpt lat="42.3159" lon="0.59666">
        <ele>916.12</ele>
        <time>2021-08-01T17:11:50Z</time>
      </trkpt>
      <trkpt lat="42.31598" lon="0.59663">
        <ele>913.34</ele>
        <time>2021-08-01T17:11:57Z</time>
      </trkpt>
      <trkpt lat="42.31599" lon="0.5966">
        <ele>912.98</ele>
        <time>2021-08-01T17:11:58Z</time>
      </trkpt>
      <trkpt lat="42.31599" lon="0.59655">
        <ele>912.65</ele>
        <time>2021-08-01T17:11:59Z</time>
      </trkpt>
      <trkpt lat="42.31599" lon="0.59648">
        <ele>912.4</ele>
        <time>2021-08-01T17:12:00Z</time>
      </trkpt>
      <trkpt lat="42.31598" lon="0.59638">
        <ele>912.17</ele>
        <time>2021-08-01T17:12:01Z</time>
      </trkpt>
      <trkpt lat="42.3159" lon="0.59528">
        <ele>908.86</ele>
        <time>2021-08-01T17:12:09Z</time>
      </trkpt>
      <trkpt lat="42.3159" lon="0.59499">
        <ele>907.62</ele>
        <time>2021-08-01T17:12:11Z</time>
      </trkpt>
      <trkpt lat="42.31561" lon="0.59424">
        <ele>903.51</ele>
        <time>2021-08-01T17:12:17Z</time>
      </trkpt>
      <trkpt lat="42.31541" lon="0.59391">
        <ele>900.44</ele>
        <time>2021-08-01T17:12:20Z</time>
      </trkpt>
      <trkpt lat="42.31512" lon="0.59371">
        <ele>895.5</ele>
        <time>2021-08-01T17:12:24Z</time>
      </trkpt>
      <trkpt lat="42.31502" lon="0.59372">
        <ele>894.32</ele>
        <time>2021-08-01T17:12:25Z</time>
      </trkpt>
      <trkpt lat="42.31461" lon="0.59384">
        <ele>888.61</ele>
        <time>2021-08-01T17:12:30Z</time>
      </trkpt>
      <trkpt lat="42.31446" lon="0.5937">
        <ele>884.86</ele>
        <time>2021-08-01T17:12:34Z</time>
      </trkpt>
      <trkpt lat="42.31466" lon="0.59338">
        <ele>882.58</ele>
        <time>2021-08-01T17:12:38Z</time>
      </trkpt>
      <trkpt lat="42.31491" lon="0.59254">
        <ele>883.07</ele>
        <time>2021-08-01T17:12:45Z</time>
      </trkpt>
      <trkpt lat="42.3148" lon="0.59102">
        <ele>878.52</ele>
        <time>2021-08-01T17:12:54Z</time>
      </trkpt>
      <trkpt lat="42.31476" lon="0.59061">
        <ele>874.85</ele>
        <time>2021-08-01T17:12:57Z</time>
      </trkpt>
      <trkpt lat="42.31488" lon="0.59039">
        <ele>869.33</ele>
        <time>2021-08-01T17:13:01Z</time>
      </trkpt>
      <trkpt lat="42.315" lon="0.59054">
        <ele>865.34</ele>
        <time>2021-08-01T17:13:04Z</time>
      </trkpt>
      <trkpt lat="42.31529" lon="0.59071">
        <ele>859.87</ele>
        <time>2021-08-01T17:13:10Z</time>
      </trkpt>
      <trkpt lat="42.31548" lon="0.59057">
        <ele>858.7</ele>
        <time>2021-08-01T17:13:12Z</time>
      </trkpt>
      <trkpt lat="42.31584" lon="0.59006">
        <ele>856.29</ele>
        <time>2021-08-01T17:13:16Z</time>
      </trkpt>
      <trkpt lat="42.31603" lon="0.58958">
        <ele>854.82</ele>
        <time>2021-08-01T17:13:19Z</time>
      </trkpt>
      <trkpt lat="42.31609" lon="0.5888">
        <ele>851.88</ele>
        <time>2021-08-01T17:13:25Z</time>
      </trkpt>
      <trkpt lat="42.31631" lon="0.58873">
        <ele>851.2</ele>
        <time>2021-08-01T17:13:29Z</time>
      </trkpt>
      <trkpt lat="42.31662" lon="0.58881">
        <ele>852.39</ele>
        <time>2021-08-01T17:13:35Z</time>
      </trkpt>
      <trkpt lat="42.31666" lon="0.58873">
        <ele>852.95</ele>
        <time>2021-08-01T17:13:36Z</time>
      </trkpt>
      <trkpt lat="42.31715" lon="0.58796">
        <ele>855.63</ele>
        <time>2021-08-01T17:13:43Z</time>
      </trkpt>
      <trkpt lat="42.31708" lon="0.58729">
        <ele>857.73</ele>
        <time>2021-08-01T17:13:48Z</time>
      </trkpt>
      <trkpt lat="42.31686" lon="0.58662">
        <ele>857.67</ele>
        <time>2021-08-01T17:13:53Z</time>
      </trkpt>
      <trkpt lat="42.3169" lon="0.58594">
        <ele>853.85</ele>
        <time>2021-08-01T17:14:01Z</time>
      </trkpt>
      <trkpt lat="42.31722" lon="0.58533">
        <ele>849.66</ele>
        <time>2021-08-01T17:14:09Z</time>
      </trkpt>
      <trkpt lat="42.3174" lon="0.585">
        <ele>848.03</ele>
        <time>2021-08-01T17:14:12Z</time>
      </trkpt>
      <trkpt lat="42.3178" lon="0.58482">
        <ele>844.44</ele>
        <time>2021-08-01T17:14:17Z</time>
      </trkpt>
      <trkpt lat="42.31788" lon="0.58489">
        <ele>843.48</ele>
        <time>2021-08-01T17:14:18Z</time>
      </trkpt>
      <trkpt lat="42.31814" lon="0.58506">
        <ele>840.8</ele>
        <time>2021-08-01T17:14:21Z</time>
      </trkpt>
      <trkpt lat="42.31857" lon="0.58491">
        <ele>836.71</ele>
        <time>2021-08-01T17:14:27Z</time>
      </trkpt>
      <trkpt lat="42.31872" lon="0.58456">
        <ele>835.06</ele>
        <time>2021-08-01T17:14:30Z</time>
      </trkpt>
      <trkpt lat="42.31891" lon="0.58389">
        <ele>831.3</ele>
        <time>2021-08-01T17:14:35Z</time>
      </trkpt>
      <trkpt lat="42.31885" lon="0.58357">
        <ele>828.5</ele>
        <time>2021-08-01T17:14:38Z</time>
      </trkpt>
      <trkpt lat="42.3188" lon="0.58324">
        <ele>825.46</ele>
        <time>2021-08-01T17:14:41Z</time>
      </trkpt>
      <trkpt lat="42.31898" lon="0.58308">
        <ele>820.55</ele>
        <time>2021-08-01T17:14:46Z</time>
      </trkpt>
      <trkpt lat="42.31904" lon="0.58313">
        <ele>819.61</ele>
        <time>2021-08-01T17:14:47Z</time>
      </trkpt>
      <trkpt lat="42.31922" lon="0.58332">
        <ele>817.32</ele>
        <time>2021-08-01T17:14:50Z</time>
      </trkpt>
      <trkpt lat="42.31933" lon="0.58376">
        <ele>813.25</ele>
        <time>2021-08-01T17:14:55Z</time>
      </trkpt>
      <trkpt lat="42.31933" lon="0.58385">
        <ele>812.4</ele>
        <time>2021-08-01T17:14:56Z</time>
      </trkpt>
      <trkpt lat="42.31946" lon="0.58398">
        <ele>807.09</ele>
        <time>2021-08-01T17:15:02Z</time>
      </trkpt>
      <trkpt lat="42.31954" lon="0.5838">
        <ele>805.34</ele>
        <time>2021-08-01T17:15:04Z</time>
      </trkpt>
      <trkpt lat="42.31963" lon="0.58359">
        <ele>803.75</ele>
        <time>2021-08-01T17:15:06Z</time>
      </trkpt>
      <trkpt lat="42.31986" lon="0.58355">
        <ele>799.22</ele>
        <time>2021-08-01T17:15:11Z</time>
      </trkpt>
      <trkpt lat="42.31988" lon="0.58365">
        <ele>798.2</ele>
        <time>2021-08-01T17:15:12Z</time>
      </trkpt>
      <trkpt lat="42.31982" lon="0.58432">
        <ele>794.54</ele>
        <time>2021-08-01T17:15:17Z</time>
      </trkpt>
      <trkpt lat="42.31969" lon="0.58474">
        <ele>792.25</ele>
        <time>2021-08-01T17:15:21Z</time>
      </trkpt>
      <trkpt lat="42.31974" lon="0.58509">
        <ele>790.04</ele>
        <time>2021-08-01T17:15:26Z</time>
      </trkpt>
      <trkpt lat="42.31985" lon="0.58524">
        <ele>789.15</ele>
        <time>2021-08-01T17:15:29Z</time>
      </trkpt>
      <trkpt lat="42.32027" lon="0.58514">
        <ele>789.51</ele>
        <time>2021-08-01T17:15:36Z</time>
      </trkpt>
      <trkpt lat="42.32047" lon="0.58464">
        <ele>791.37</ele>
        <time>2021-08-01T17:15:40Z</time>
      </trkpt>
      <trkpt lat="42.3206" lon="0.58419">
        <ele>793.26</ele>
        <time>2021-08-01T17:15:43Z</time>
      </trkpt>
      <trkpt lat="42.32069" lon="0.58395">
        <ele>793.97</ele>
        <time>2021-08-01T17:15:45Z</time>
      </trkpt>
      <trkpt lat="42.32121" lon="0.58366">
        <ele>795.52</ele>
        <time>2021-08-01T17:15:51Z</time>
      </trkpt>
      <trkpt lat="42.32141" lon="0.58369">
        <ele>798.99</ele>
        <time>2021-08-01T17:15:57Z</time>
      </trkpt>
      <trkpt lat="42.32144" lon="0.58369">
        <ele>799.58</ele>
        <time>2021-08-01T17:15:58Z</time>
      </trkpt>
      <trkpt lat="42.32153" lon="0.58355">
        <ele>801.3</ele>
        <time>2021-08-01T17:16:01Z</time>
      </trkpt>
      <trkpt lat="42.32154" lon="0.58346">
        <ele>801.77</ele>
        <time>2021-08-01T17:16:02Z</time>
      </trkpt>
      <trkpt lat="42.32155" lon="0.58335">
        <ele>802.19</ele>
        <time>2021-08-01T17:16:03Z</time>
      </trkpt>
      <trkpt lat="42.32188" lon="0.58246">
        <ele>804.8</ele>
        <time>2021-08-01T17:16:10Z</time>
      </trkpt>
      <trkpt lat="42.32191" lon="0.58232">
        <ele>805.01</ele>
        <time>2021-08-01T17:16:11Z</time>
      </trkpt>
      <trkpt lat="42.32192" lon="0.58216">
        <ele>805.18</ele>
        <time>2021-08-01T17:16:12Z</time>
      </trkpt>
      <trkpt lat="42.32192" lon="0.58202">
        <ele>805.29</ele>
        <time>2021-08-01T17:16:13Z</time>
      </trkpt>
      <trkpt lat="42.32206" lon="0.5813">
        <ele>805.04</ele>
        <time>2021-08-01T17:16:19Z</time>
      </trkpt>
      <trkpt lat="42.32215" lon="0.5801">
        <ele>801.7</ele>
        <time>2021-08-01T17:16:26Z</time>
      </trkpt>
      <trkpt lat="42.32218" lon="0.57992">
        <ele>800.79</ele>
        <time>2021-08-01T17:16:27Z</time>
      </trkpt>
      <trkpt lat="42.32231" lon="0.57937">
        <ele>797.72</ele>
        <time>2021-08-01T17:16:30Z</time>
      </trkpt>
      <trkpt lat="42.32236" lon="0.57903">
        <ele>795.47</ele>
        <time>2021-08-01T17:16:32Z</time>
      </trkpt>
      <trkpt lat="42.32253" lon="0.57861">
        <ele>791.15</ele>
        <time>2021-08-01T17:16:36Z</time>
      </trkpt>
      <trkpt lat="42.32261" lon="0.57833">
        <ele>787.33</ele>
        <time>2021-08-01T17:16:40Z</time>
      </trkpt>
      <trkpt lat="42.32246" lon="0.578">
        <ele>784.29</ele>
        <time>2021-08-01T17:16:44Z</time>
      </trkpt>
      <trkpt lat="42.32258" lon="0.57776">
        <ele>782.38</ele>
        <time>2021-08-01T17:16:47Z</time>
      </trkpt>
      <trkpt lat="42.32292" lon="0.57701">
        <ele>778.57</ele>
        <time>2021-08-01T17:16:54Z</time>
      </trkpt>
      <trkpt lat="42.3229" lon="0.57688">
        <ele>777.69</ele>
        <time>2021-08-01T17:16:55Z</time>
      </trkpt>
      <trkpt lat="42.32293" lon="0.57621">
        <ele>772.27</ele>
        <time>2021-08-01T17:17:00Z</time>
      </trkpt>
      <trkpt lat="42.32295" lon="0.57583">
        <ele>768.83</ele>
        <time>2021-08-01T17:17:03Z</time>
      </trkpt>
      <trkpt lat="42.32277" lon="0.57552">
        <ele>765.49</ele>
        <time>2021-08-01T17:17:06Z</time>
      </trkpt>
      <trkpt lat="42.32264" lon="0.57532">
        <ele>761.92</ele>
        <time>2021-08-01T17:17:09Z</time>
      </trkpt>
      <trkpt lat="42.32271" lon="0.57508">
        <ele>758.57</ele>
        <time>2021-08-01T17:17:12Z</time>
      </trkpt>
      <trkpt lat="42.32291" lon="0.57489">
        <ele>755.75</ele>
        <time>2021-08-01T17:17:15Z</time>
      </trkpt>
      <trkpt lat="42.32307" lon="0.57477">
        <ele>754.09</ele>
        <time>2021-08-01T17:17:17Z</time>
      </trkpt>
      <trkpt lat="42.32344" lon="0.57466">
        <ele>750.69</ele>
        <time>2021-08-01T17:17:24Z</time>
      </trkpt>
      <trkpt lat="42.32347" lon="0.57465">
        <ele>749.17</ele>
        <time>2021-08-01T17:17:28Z</time>
      </trkpt>
      <trkpt lat="42.32324" lon="0.57461">
        <ele>748.17</ele>
        <time>2021-08-01T17:17:35Z</time>
      </trkpt>
      <trkpt lat="42.32304" lon="0.57474">
        <ele>748.07</ele>
        <time>2021-08-01T17:17:37Z</time>
      </trkpt>
      <trkpt lat="42.32215" lon="0.57471">
        <ele>747.59</ele>
        <time>2021-08-01T17:17:43Z</time>
      </trkpt>
      <trkpt lat="42.32173" lon="0.57448">
        <ele>747.22</ele>
        <time>2021-08-01T17:17:46Z</time>
      </trkpt>
      <trkpt lat="42.32112" lon="0.57393">
        <ele>743.93</ele>
        <time>2021-08-01T17:17:54Z</time>
      </trkpt>
      <trkpt lat="42.32045" lon="0.57317">
        <ele>741.32</ele>
        <time>2021-08-01T17:18:04Z</time>
      </trkpt>
      <trkpt lat="42.32001" lon="0.57273">
        <ele>739.37</ele>
        <time>2021-08-01T17:18:12Z</time>
      </trkpt>
      <trkpt lat="42.31986" lon="0.57272">
        <ele>737.26</ele>
        <time>2021-08-01T17:18:24Z</time>
      </trkpt>
      <trkpt lat="42.31966" lon="0.57274">
        <ele>737.03</ele>
        <time>2021-08-01T17:18:32Z</time>
      </trkpt>
      <trkpt lat="42.31906" lon="0.57265">
        <ele>737.82</ele>
        <time>2021-08-01T17:18:41Z</time>
      </trkpt>
      <trkpt lat="42.31846" lon="0.57241">
        <ele>738.58</ele>
        <time>2021-08-01T17:18:47Z</time>
      </trkpt>
      <trkpt lat="42.31804" lon="0.57185">
        <ele>739.59</ele>
        <time>2021-08-01T17:18:51Z</time>
      </trkpt>
      <trkpt lat="42.31761" lon="0.57112">
        <ele>740.34</ele>
        <time>2021-08-01T17:18:55Z</time>
      </trkpt>
      <trkpt lat="42.31731" lon="0.57021">
        <ele>739.92</ele>
        <time>2021-08-01T17:18:59Z</time>
      </trkpt>
      <trkpt lat="42.31703" lon="0.56799">
        <ele>738.38</ele>
        <time>2021-08-01T17:19:09Z</time>
      </trkpt>
      <trkpt lat="42.31686" lon="0.56689">
        <ele>737.52</ele>
        <time>2021-08-01T17:19:15Z</time>
      </trkpt>
      <trkpt lat="42.3161" lon="0.56529">
        <ele>736.56</ele>
        <time>2021-08-01T17:19:24Z</time>
      </trkpt>
      <trkpt lat="42.31501" lon="0.56322">
        <ele>733.53</ele>
        <time>2021-08-01T17:19:36Z</time>
      </trkpt>
      <trkpt lat="42.31418" lon="0.56162">
        <ele>730.19</ele>
        <time>2021-08-01T17:19:45Z</time>
      </trkpt>
      <trkpt lat="42.31346" lon="0.56024">
        <ele>726.83</ele>
        <time>2021-08-01T17:19:53Z</time>
      </trkpt>
      <trkpt lat="42.31296" lon="0.55882">
        <ele>723.51</ele>
        <time>2021-08-01T17:20:01Z</time>
      </trkpt>
      <trkpt lat="42.31263" lon="0.55694">
        <ele>720.32</ele>
        <time>2021-08-01T17:20:11Z</time>
      </trkpt>
      <trkpt lat="42.31205" lon="0.55507">
        <ele>717.39</ele>
        <time>2021-08-01T17:20:22Z</time>
      </trkpt>
      <trkpt lat="42.3114" lon="0.55343">
        <ele>715.4</ele>
        <time>2021-08-01T17:20:31Z</time>
      </trkpt>
      <trkpt lat="42.31057" lon="0.55209">
        <ele>713.13</ele>
        <time>2021-08-01T17:20:40Z</time>
      </trkpt>
      <trkpt lat="42.30962" lon="0.55032">
        <ele>710.83</ele>
        <time>2021-08-01T17:20:51Z</time>
      </trkpt>
      <trkpt lat="42.30871" lon="0.54846">
        <ele>711.5</ele>
        <time>2021-08-01T17:21:02Z</time>
      </trkpt>
      <trkpt lat="42.30796" lon="0.54693">
        <ele>713.59</ele>
        <time>2021-08-01T17:21:12Z</time>
      </trkpt>
      <trkpt lat="42.30741" lon="0.54642">
        <ele>715.35</ele>
        <time>2021-08-01T17:21:18Z</time>
      </trkpt>
      <trkpt lat="42.30734" lon="0.54633">
        <ele>715.49</ele>
        <time>2021-08-01T17:21:19Z</time>
      </trkpt>
      <trkpt lat="42.30726" lon="0.54624">
        <ele>715.62</ele>
        <time>2021-08-01T17:21:20Z</time>
      </trkpt>
      <trkpt lat="42.3072" lon="0.54614">
        <ele>715.74</ele>
        <time>2021-08-01T17:21:21Z</time>
      </trkpt>
      <trkpt lat="42.30715" lon="0.54605">
        <ele>715.86</ele>
        <time>2021-08-01T17:21:22Z</time>
      </trkpt>
      <trkpt lat="42.30677" lon="0.54542">
        <ele>716.39</ele>
        <time>2021-08-01T17:21:28Z</time>
      </trkpt>
      <trkpt lat="42.30646" lon="0.54513">
        <ele>716.82</ele>
        <time>2021-08-01T17:21:31Z</time>
      </trkpt>
      <trkpt lat="42.30612" lon="0.54458">
        <ele>717.06</ele>
        <time>2021-08-01T17:21:35Z</time>
      </trkpt>
      <trkpt lat="42.3054" lon="0.54269">
        <ele>716.13</ele>
        <time>2021-08-01T17:21:46Z</time>
      </trkpt>
      <trkpt lat="42.30465" lon="0.54196">
        <ele>713.18</ele>
        <time>2021-08-01T17:21:53Z</time>
      </trkpt>
      <trkpt lat="42.30378" lon="0.54175">
        <ele>708.86</ele>
        <time>2021-08-01T17:21:59Z</time>
      </trkpt>
      <trkpt lat="42.30323" lon="0.54163">
        <ele>705.55</ele>
        <time>2021-08-01T17:22:03Z</time>
      </trkpt>
      <trkpt lat="42.30283" lon="0.54154">
        <ele>701.47</ele>
        <time>2021-08-01T17:22:07Z</time>
      </trkpt>
      <trkpt lat="42.30251" lon="0.54146">
        <ele>698.43</ele>
        <time>2021-08-01T17:22:10Z</time>
      </trkpt>
      <trkpt lat="42.30209" lon="0.54137">
        <ele>695.05</ele>
        <time>2021-08-01T17:22:14Z</time>
      </trkpt>
      <trkpt lat="42.3013" lon="0.54111">
        <ele>692.91</ele>
        <time>2021-08-01T17:22:21Z</time>
      </trkpt>
      <trkpt lat="42.30019" lon="0.54011">
        <ele>695.08</ele>
        <time>2021-08-01T17:22:30Z</time>
      </trkpt>
      <trkpt lat="42.29993" lon="0.53988">
        <ele>695.92</ele>
        <time>2021-08-01T17:22:32Z</time>
      </trkpt>
      <trkpt lat="42.2988" lon="0.53946">
        <ele>699.99</ele>
        <time>2021-08-01T17:22:39Z</time>
      </trkpt>
      <trkpt lat="42.29811" lon="0.53925">
        <ele>703.84</ele>
        <time>2021-08-01T17:22:43Z</time>
      </trkpt>
      <trkpt lat="42.29775" lon="0.5392">
        <ele>706.07</ele>
        <time>2021-08-01T17:22:45Z</time>
      </trkpt>
      <trkpt lat="42.29701" lon="0.5393">
        <ele>711.06</ele>
        <time>2021-08-01T17:22:49Z</time>
      </trkpt>
      <trkpt lat="42.29665" lon="0.53937">
        <ele>714.3</ele>
        <time>2021-08-01T17:22:51Z</time>
      </trkpt>
      <trkpt lat="42.29581" lon="0.53941">
        <ele>717.86</ele>
        <time>2021-08-01T17:22:56Z</time>
      </trkpt>
      <trkpt lat="42.29532" lon="0.53925">
        <ele>719.12</ele>
        <time>2021-08-01T17:22:59Z</time>
      </trkpt>
      <trkpt lat="42.29499" lon="0.53904">
        <ele>719.36</ele>
        <time>2021-08-01T17:23:01Z</time>
      </trkpt>
      <trkpt lat="42.29343" lon="0.53771">
        <ele>716.15</ele>
        <time>2021-08-01T17:23:10Z</time>
      </trkpt>
      <trkpt lat="42.29234" lon="0.53744">
        <ele>712.01</ele>
        <time>2021-08-01T17:23:15Z</time>
      </trkpt>
      <trkpt lat="42.29149" lon="0.53729">
        <ele>708.33</ele>
        <time>2021-08-01T17:23:19Z</time>
      </trkpt>
      <trkpt lat="42.29091" lon="0.53719">
        <ele>706.9</ele>
        <time>2021-08-01T17:23:22Z</time>
      </trkpt>
      <trkpt lat="42.29006" lon="0.53702">
        <ele>707.43</ele>
        <time>2021-08-01T17:23:27Z</time>
      </trkpt>
      <trkpt lat="42.28928" lon="0.53628">
        <ele>710.43</ele>
        <time>2021-08-01T17:23:33Z</time>
      </trkpt>
      <trkpt lat="42.28912" lon="0.53596">
        <ele>711.67</ele>
        <time>2021-08-01T17:23:35Z</time>
      </trkpt>
      <trkpt lat="42.28891" lon="0.53538">
        <ele>714.17</ele>
        <time>2021-08-01T17:23:39Z</time>
      </trkpt>
      <trkpt lat="42.28879" lon="0.53499">
        <ele>715.23</ele>
        <time>2021-08-01T17:23:42Z</time>
      </trkpt>
      <trkpt lat="42.28857" lon="0.53464">
        <ele>715.6</ele>
        <time>2021-08-01T17:23:46Z</time>
      </trkpt>
    </trkseg>
  </trk>
  <trk>
    <name><![CDATA[TOTAL 4x4 _7]]></name>
    <extensions>
      <line xmlns="http://www.topografix.com/GPX/gpx_style/0/2">
        <color>000088</color>
        <width>4</width>
      </line>
    </extensions>
    <trkseg>
      <trkpt lat="42.18939" lon="0.95861">
        <ele>474.95</ele>
        <time>2021-08-01T14:02:55Z</time>
      </trkpt>
      <trkpt lat="42.18943" lon="0.95845">
        <ele>475.23</ele>
        <time>2021-08-01T14:02:59Z</time>
      </trkpt>
      <trkpt lat="42.1897" lon="0.95837">
        <ele>476.51</ele>
        <time>2021-08-01T14:03:05Z</time>
      </trkpt>
      <trkpt lat="42.19001" lon="0.95806">
        <ele>480.75</ele>
        <time>2021-08-01T14:03:12Z</time>
      </trkpt>
      <trkpt lat="42.18982" lon="0.95784">
        <ele>484.3</ele>
        <time>2021-08-01T14:03:16Z</time>
      </trkpt>
      <trkpt lat="42.18981" lon="0.95761">
        <ele>487.53</ele>
        <time>2021-08-01T14:03:20Z</time>
      </trkpt>
      <trkpt lat="42.19016" lon="0.9577">
        <ele>491.03</ele>
        <time>2021-08-01T14:03:25Z</time>
      </trkpt>
      <trkpt lat="42.19025" lon="0.9577">
        <ele>491.53</ele>
        <time>2021-08-01T14:03:26Z</time>
      </trkpt>
      <trkpt lat="42.19043" lon="0.95771">
        <ele>492.68</ele>
        <time>2021-08-01T14:03:28Z</time>
      </trkpt>
      <trkpt lat="42.19065" lon="0.95768">
        <ele>494.46</ele>
        <time>2021-08-01T14:03:31Z</time>
      </trkpt>
      <trkpt lat="42.19073" lon="0.95746">
        <ele>497.77</ele>
        <time>2021-08-01T14:03:37Z</time>
      </trkpt>
      <trkpt lat="42.19022" lon="0.95695">
        <ele>501.7</ele>
        <time>2021-08-01T14:03:45Z</time>
      </trkpt>
      <trkpt lat="42.19" lon="0.95667">
        <ele>503.49</ele>
        <time>2021-08-01T14:03:48Z</time>
      </trkpt>
      <trkpt lat="42.18978" lon="0.95611">
        <ele>505.66</ele>
        <time>2021-08-01T14:03:52Z</time>
      </trkpt>
      <trkpt lat="42.1896" lon="0.9555">
        <ele>507.76</ele>
        <time>2021-08-01T14:03:59Z</time>
      </trkpt>
      <trkpt lat="42.18959" lon="0.9554">
        <ele>509.62</ele>
        <time>2021-08-01T14:04:09Z</time>
      </trkpt>
      <trkpt lat="42.18959" lon="0.95538">
        <ele>510.16</ele>
        <time>2021-08-01T14:04:23Z</time>
      </trkpt>
      <trkpt lat="42.18975" lon="0.95519">
        <ele>510.42</ele>
        <time>2021-08-01T14:04:28Z</time>
      </trkpt>
      <trkpt lat="42.18986" lon="0.95512">
        <ele>510.56</ele>
        <time>2021-08-01T14:04:30Z</time>
      </trkpt>
      <trkpt lat="42.19003" lon="0.95475">
        <ele>511.9</ele>
        <time>2021-08-01T14:04:35Z</time>
      </trkpt>
      <trkpt lat="42.19006" lon="0.95458">
        <ele>512.06</ele>
        <time>2021-08-01T14:04:37Z</time>
      </trkpt>
      <trkpt lat="42.19029" lon="0.95379">
        <ele>511.06</ele>
        <time>2021-08-01T14:04:45Z</time>
      </trkpt>
      <trkpt lat="42.19037" lon="0.95359">
        <ele>510.18</ele>
        <time>2021-08-01T14:04:47Z</time>
      </trkpt>
      <trkpt lat="42.19051" lon="0.9528">
        <ele>510.58</ele>
        <time>2021-08-01T14:04:55Z</time>
      </trkpt>
      <trkpt lat="42.19055" lon="0.95213">
        <ele>513.9</ele>
        <time>2021-08-01T14:05:02Z</time>
      </trkpt>
      <trkpt lat="42.19067" lon="0.95197">
        <ele>514.64</ele>
        <time>2021-08-01T14:05:04Z</time>
      </trkpt>
      <trkpt lat="42.19089" lon="0.95146">
        <ele>516.66</ele>
        <time>2021-08-01T14:05:09Z</time>
      </trkpt>
      <trkpt lat="42.19105" lon="0.95045">
        <ele>518.37</ele>
        <time>2021-08-01T14:05:17Z</time>
      </trkpt>
      <trkpt lat="42.19103" lon="0.95034">
        <ele>518.27</ele>
        <time>2021-08-01T14:05:18Z</time>
      </trkpt>
      <trkpt lat="42.19069" lon="0.94998">
        <ele>515.97</ele>
        <time>2021-08-01T14:05:23Z</time>
      </trkpt>
      <trkpt lat="42.19046" lon="0.94996">
        <ele>514.69</ele>
        <time>2021-08-01T14:05:25Z</time>
      </trkpt>
      <trkpt lat="42.19024" lon="0.94996">
        <ele>513.21</ele>
        <time>2021-08-01T14:05:27Z</time>
      </trkpt>
      <trkpt lat="42.18982" lon="0.95021">
        <ele>508.73</ele>
        <time>2021-08-01T14:05:33Z</time>
      </trkpt>
      <trkpt lat="42.18982" lon="0.94998">
        <ele>506.88</ele>
        <time>2021-08-01T14:05:37Z</time>
      </trkpt>
      <trkpt lat="42.18982" lon="0.94964">
        <ele>506.93</ele>
        <time>2021-08-01T14:05:41Z</time>
      </trkpt>
      <trkpt lat="42.18937" lon="0.94912">
        <ele>510.3</ele>
        <time>2021-08-01T14:05:47Z</time>
      </trkpt>
      <trkpt lat="42.18911" lon="0.949">
        <ele>512.73</ele>
        <time>2021-08-01T14:05:50Z</time>
      </trkpt>
      <trkpt lat="42.18899" lon="0.94878">
        <ele>514.13</ele>
        <time>2021-08-01T14:05:53Z</time>
      </trkpt>
      <trkpt lat="42.18912" lon="0.94852">
        <ele>514.35</ele>
        <time>2021-08-01T14:05:56Z</time>
      </trkpt>
      <trkpt lat="42.18928" lon="0.94794">
        <ele>513.43</ele>
        <time>2021-08-01T14:06:03Z</time>
      </trkpt>
      <trkpt lat="42.18943" lon="0.9471">
        <ele>513.62</ele>
        <time>2021-08-01T14:06:10Z</time>
      </trkpt>
      <trkpt lat="42.1893" lon="0.94655">
        <ele>517.76</ele>
        <time>2021-08-01T14:06:16Z</time>
      </trkpt>
      <trkpt lat="42.18944" lon="0.94614">
        <ele>521.17</ele>
        <time>2021-08-01T14:06:21Z</time>
      </trkpt>
      <trkpt lat="42.18976" lon="0.94555">
        <ele>524.6</ele>
        <time>2021-08-01T14:06:26Z</time>
      </trkpt>
      <trkpt lat="42.1902" lon="0.945">
        <ele>527.87</ele>
        <time>2021-08-01T14:06:31Z</time>
      </trkpt>
      <trkpt lat="42.19062" lon="0.9446">
        <ele>531.31</ele>
        <time>2021-08-01T14:06:37Z</time>
      </trkpt>
      <trkpt lat="42.19075" lon="0.94429">
        <ele>532.24</ele>
        <time>2021-08-01T14:06:41Z</time>
      </trkpt>
      <trkpt lat="42.19092" lon="0.94371">
        <ele>532.01</ele>
        <time>2021-08-01T14:06:46Z</time>
      </trkpt>
      <trkpt lat="42.19126" lon="0.94331">
        <ele>528.6</ele>
        <time>2021-08-01T14:06:52Z</time>
      </trkpt>
      <trkpt lat="42.19138" lon="0.94269">
        <ele>526.47</ele>
        <time>2021-08-01T14:06:58Z</time>
      </trkpt>
      <trkpt lat="42.19134" lon="0.9423">
        <ele>526.69</ele>
        <time>2021-08-01T14:07:02Z</time>
      </trkpt>
      <trkpt lat="42.19129" lon="0.94214">
        <ele>527.27</ele>
        <time>2021-08-01T14:07:04Z</time>
      </trkpt>
      <trkpt lat="42.19121" lon="0.94083">
        <ele>529.23</ele>
        <time>2021-08-01T14:07:15Z</time>
      </trkpt>
      <trkpt lat="42.19116" lon="0.9398">
        <ele>532.31</ele>
        <time>2021-08-01T14:07:21Z</time>
      </trkpt>
      <trkpt lat="42.19118" lon="0.93903">
        <ele>535.86</ele>
        <time>2021-08-01T14:07:26Z</time>
      </trkpt>
      <trkpt lat="42.19122" lon="0.93835">
        <ele>538.79</ele>
        <time>2021-08-01T14:07:31Z</time>
      </trkpt>
      <trkpt lat="42.19119" lon="0.93826">
        <ele>539.2</ele>
        <time>2021-08-01T14:07:32Z</time>
      </trkpt>
      <trkpt lat="42.19073" lon="0.93812">
        <ele>541.49</ele>
        <time>2021-08-01T14:07:37Z</time>
      </trkpt>
      <trkpt lat="42.19009" lon="0.93821">
        <ele>544.11</ele>
        <time>2021-08-01T14:07:42Z</time>
      </trkpt>
      <trkpt lat="42.18968" lon="0.93807">
        <ele>546.82</ele>
        <time>2021-08-01T14:07:46Z</time>
      </trkpt>
      <trkpt lat="42.18932" lon="0.93813">
        <ele>550.19</ele>
        <time>2021-08-01T14:07:50Z</time>
      </trkpt>
      <trkpt lat="42.18903" lon="0.93783">
        <ele>551.9</ele>
        <time>2021-08-01T14:07:56Z</time>
      </trkpt>
      <trkpt lat="42.18899" lon="0.93762">
        <ele>551.97</ele>
        <time>2021-08-01T14:07:58Z</time>
      </trkpt>
      <trkpt lat="42.18878" lon="0.9374">
        <ele>551.18</ele>
        <time>2021-08-01T14:08:02Z</time>
      </trkpt>
      <trkpt lat="42.18847" lon="0.93726">
        <ele>549.06</ele>
        <time>2021-08-01T14:08:07Z</time>
      </trkpt>
      <trkpt lat="42.18795" lon="0.93677">
        <ele>547.99</ele>
        <time>2021-08-01T14:08:13Z</time>
      </trkpt>
      <trkpt lat="42.18723" lon="0.93659">
        <ele>547.82</ele>
        <time>2021-08-01T14:08:21Z</time>
      </trkpt>
      <trkpt lat="42.18689" lon="0.9365">
        <ele>547.9</ele>
        <time>2021-08-01T14:08:27Z</time>
      </trkpt>
      <trkpt lat="42.18675" lon="0.93662">
        <ele>547.68</ele>
        <time>2021-08-01T14:08:29Z</time>
      </trkpt>
      <trkpt lat="42.18658" lon="0.93646">
        <ele>544.92</ele>
        <time>2021-08-01T14:08:35Z</time>
      </trkpt>
      <trkpt lat="42.18672" lon="0.93584">
        <ele>543.26</ele>
        <time>2021-08-01T14:08:40Z</time>
      </trkpt>
      <trkpt lat="42.18692" lon="0.9356">
        <ele>542.67</ele>
        <time>2021-08-01T14:08:43Z</time>
      </trkpt>
      <trkpt lat="42.18699" lon="0.93474">
        <ele>539.87</ele>
        <time>2021-08-01T14:08:51Z</time>
      </trkpt>
      <trkpt lat="42.18671" lon="0.93449">
        <ele>537.97</ele>
        <time>2021-08-01T14:08:55Z</time>
      </trkpt>
      <trkpt lat="42.18639" lon="0.93428">
        <ele>537.36</ele>
        <time>2021-08-01T14:08:59Z</time>
      </trkpt>
      <trkpt lat="42.18585" lon="0.93428">
        <ele>536.57</ele>
        <time>2021-08-01T14:09:05Z</time>
      </trkpt>
      <trkpt lat="42.18574" lon="0.93434">
        <ele>536.53</ele>
        <time>2021-08-01T14:09:06Z</time>
      </trkpt>
      <trkpt lat="42.18555" lon="0.93445">
        <ele>536.56</ele>
        <time>2021-08-01T14:09:08Z</time>
      </trkpt>
      <trkpt lat="42.18526" lon="0.93451">
        <ele>537.85</ele>
        <time>2021-08-01T14:09:12Z</time>
      </trkpt>
      <trkpt lat="42.18522" lon="0.93456">
        <ele>538.31</ele>
        <time>2021-08-01T14:09:13Z</time>
      </trkpt>
      <trkpt lat="42.18509" lon="0.93481">
        <ele>540.07</ele>
        <time>2021-08-01T14:09:16Z</time>
      </trkpt>
      <trkpt lat="42.18486" lon="0.93527">
        <ele>543.24</ele>
        <time>2021-08-01T14:09:21Z</time>
      </trkpt>
      <trkpt lat="42.18471" lon="0.93545">
        <ele>546.07</ele>
        <time>2021-08-01T14:09:26Z</time>
      </trkpt>
      <trkpt lat="42.18449" lon="0.93513">
        <ele>549.65</ele>
        <time>2021-08-01T14:09:33Z</time>
      </trkpt>
      <trkpt lat="42.18424" lon="0.93513">
        <ele>551.76</ele>
        <time>2021-08-01T14:09:37Z</time>
      </trkpt>
      <trkpt lat="42.18416" lon="0.93518">
        <ele>552.36</ele>
        <time>2021-08-01T14:09:38Z</time>
      </trkpt>
      <trkpt lat="42.18398" lon="0.93533">
        <ele>553.86</ele>
        <time>2021-08-01T14:09:41Z</time>
      </trkpt>
      <trkpt lat="42.18369" lon="0.93542">
        <ele>556.41</ele>
        <time>2021-08-01T14:09:45Z</time>
      </trkpt>
      <trkpt lat="42.18324" lon="0.93547">
        <ele>560.69</ele>
        <time>2021-08-01T14:09:50Z</time>
      </trkpt>
      <trkpt lat="42.183" lon="0.93554">
        <ele>563.88</ele>
        <time>2021-08-01T14:09:53Z</time>
      </trkpt>
      <trkpt lat="42.18274" lon="0.93569">
        <ele>568.36</ele>
        <time>2021-08-01T14:09:57Z</time>
      </trkpt>
      <trkpt lat="42.18261" lon="0.93563">
        <ele>570.49</ele>
        <time>2021-08-01T14:09:59Z</time>
      </trkpt>
      <trkpt lat="42.18222" lon="0.93549">
        <ele>575.59</ele>
        <time>2021-08-01T14:10:04Z</time>
      </trkpt>
      <trkpt lat="42.18189" lon="0.93549">
        <ele>579.39</ele>
        <time>2021-08-01T14:10:08Z</time>
      </trkpt>
      <trkpt lat="42.1818" lon="0.9355">
        <ele>580.39</ele>
        <time>2021-08-01T14:10:09Z</time>
      </trkpt>
      <trkpt lat="42.18151" lon="0.93525">
        <ele>583.98</ele>
        <time>2021-08-01T14:10:14Z</time>
      </trkpt>
      <trkpt lat="42.18119" lon="0.93495">
        <ele>587.6</ele>
        <time>2021-08-01T14:10:20Z</time>
      </trkpt>
      <trkpt lat="42.18073" lon="0.93509">
        <ele>588.08</ele>
        <time>2021-08-01T14:10:25Z</time>
      </trkpt>
      <trkpt lat="42.18058" lon="0.93489">
        <ele>587.36</ele>
        <time>2021-08-01T14:10:29Z</time>
      </trkpt>
      <trkpt lat="42.18048" lon="0.93452">
        <ele>587.58</ele>
        <time>2021-08-01T14:10:33Z</time>
      </trkpt>
      <trkpt lat="42.18012" lon="0.93412">
        <ele>590.2</ele>
        <time>2021-08-01T14:10:38Z</time>
      </trkpt>
      <trkpt lat="42.17974" lon="0.93394">
        <ele>592.62</ele>
        <time>2021-08-01T14:10:42Z</time>
      </trkpt>
      <trkpt lat="42.17945" lon="0.93342">
        <ele>595.31</ele>
        <time>2021-08-01T14:10:48Z</time>
      </trkpt>
      <trkpt lat="42.17929" lon="0.93274">
        <ele>596.58</ele>
        <time>2021-08-01T14:10:54Z</time>
      </trkpt>
      <trkpt lat="42.17894" lon="0.93259">
        <ele>596.59</ele>
        <time>2021-08-01T14:10:58Z</time>
      </trkpt>
      <trkpt lat="42.17787" lon="0.93224">
        <ele>597.26</ele>
        <time>2021-08-01T14:11:09Z</time>
      </trkpt>
      <trkpt lat="42.17727" lon="0.93233">
        <ele>595.16</ele>
        <time>2021-08-01T14:11:15Z</time>
      </trkpt>
      <trkpt lat="42.17701" lon="0.93256">
        <ele>593.28</ele>
        <time>2021-08-01T14:11:18Z</time>
      </trkpt>
      <trkpt lat="42.17654" lon="0.93269">
        <ele>590.26</ele>
        <time>2021-08-01T14:11:23Z</time>
      </trkpt>
      <trkpt lat="42.17644" lon="0.93272">
        <ele>589.69</ele>
        <time>2021-08-01T14:11:24Z</time>
      </trkpt>
      <trkpt lat="42.17633" lon="0.93276">
        <ele>589.17</ele>
        <time>2021-08-01T14:11:25Z</time>
      </trkpt>
      <trkpt lat="42.17623" lon="0.9328">
        <ele>588.58</ele>
        <time>2021-08-01T14:11:26Z</time>
      </trkpt>
      <trkpt lat="42.17614" lon="0.93285">
        <ele>587.96</ele>
        <time>2021-08-01T14:11:27Z</time>
      </trkpt>
      <trkpt lat="42.17606" lon="0.93291">
        <ele>587.3</ele>
        <time>2021-08-01T14:11:28Z</time>
      </trkpt>
      <trkpt lat="42.17598" lon="0.93295">
        <ele>586.56</ele>
        <time>2021-08-01T14:11:29Z</time>
      </trkpt>
      <trkpt lat="42.1759" lon="0.93298">
        <ele>585.83</ele>
        <time>2021-08-01T14:11:30Z</time>
      </trkpt>
      <trkpt lat="42.17565" lon="0.93293">
        <ele>583.7</ele>
        <time>2021-08-01T14:11:33Z</time>
      </trkpt>
      <trkpt lat="42.17515" lon="0.93299">
        <ele>579.89</ele>
        <time>2021-08-01T14:11:39Z</time>
      </trkpt>
      <trkpt lat="42.17487" lon="0.93276">
        <ele>577.25</ele>
        <time>2021-08-01T14:11:43Z</time>
      </trkpt>
      <trkpt lat="42.17472" lon="0.93252">
        <ele>575.25</ele>
        <time>2021-08-01T14:11:46Z</time>
      </trkpt>
      <trkpt lat="42.17477" lon="0.93211">
        <ele>571.01</ele>
        <time>2021-08-01T14:11:51Z</time>
      </trkpt>
      <trkpt lat="42.17504" lon="0.93201">
        <ele>568.61</ele>
        <time>2021-08-01T14:11:54Z</time>
      </trkpt>
      <trkpt lat="42.17555" lon="0.93175">
        <ele>565.72</ele>
        <time>2021-08-01T14:12:00Z</time>
      </trkpt>
      <trkpt lat="42.17594" lon="0.93114">
        <ele>563.69</ele>
        <time>2021-08-01T14:12:08Z</time>
      </trkpt>
      <trkpt lat="42.17619" lon="0.93082">
        <ele>561.67</ele>
        <time>2021-08-01T14:12:16Z</time>
      </trkpt>
      <trkpt lat="42.17594" lon="0.93066">
        <ele>560.44</ele>
        <time>2021-08-01T14:12:21Z</time>
      </trkpt>
      <trkpt lat="42.17555" lon="0.93067">
        <ele>558.75</ele>
        <time>2021-08-01T14:12:26Z</time>
      </trkpt>
      <trkpt lat="42.17515" lon="0.93027">
        <ele>555.6</ele>
        <time>2021-08-01T14:12:32Z</time>
      </trkpt>
      <trkpt lat="42.17508" lon="0.93005">
        <ele>554.53</ele>
        <time>2021-08-01T14:12:34Z</time>
      </trkpt>
      <trkpt lat="42.17483" lon="0.92958">
        <ele>550.87</ele>
        <time>2021-08-01T14:12:39Z</time>
      </trkpt>
      <trkpt lat="42.17447" lon="0.92928">
        <ele>547.11</ele>
        <time>2021-08-01T14:12:44Z</time>
      </trkpt>
      <trkpt lat="42.17412" lon="0.92871">
        <ele>542.49</ele>
        <time>2021-08-01T14:12:50Z</time>
      </trkpt>
      <trkpt lat="42.17381" lon="0.92821">
        <ele>539.27</ele>
        <time>2021-08-01T14:12:55Z</time>
      </trkpt>
      <trkpt lat="42.17369" lon="0.92801">
        <ele>537.81</ele>
        <time>2021-08-01T14:12:57Z</time>
      </trkpt>
      <trkpt lat="42.17339" lon="0.92772">
        <ele>534.63</ele>
        <time>2021-08-01T14:13:01Z</time>
      </trkpt>
      <trkpt lat="42.17297" lon="0.9274">
        <ele>530.54</ele>
        <time>2021-08-01T14:13:06Z</time>
      </trkpt>
      <trkpt lat="42.17262" lon="0.92716">
        <ele>527.03</ele>
        <time>2021-08-01T14:13:10Z</time>
      </trkpt>
      <trkpt lat="42.17242" lon="0.92709">
        <ele>525.06</ele>
        <time>2021-08-01T14:13:12Z</time>
      </trkpt>
      <trkpt lat="42.17221" lon="0.92709">
        <ele>523.02</ele>
        <time>2021-08-01T14:13:14Z</time>
      </trkpt>
      <trkpt lat="42.1721" lon="0.9271">
        <ele>522.08</ele>
        <time>2021-08-01T14:13:15Z</time>
      </trkpt>
      <trkpt lat="42.172" lon="0.92711">
        <ele>521.19</ele>
        <time>2021-08-01T14:13:16Z</time>
      </trkpt>
      <trkpt lat="42.1719" lon="0.92711">
        <ele>520.28</ele>
        <time>2021-08-01T14:13:17Z</time>
      </trkpt>
      <trkpt lat="42.17179" lon="0.92709">
        <ele>519.37</ele>
        <time>2021-08-01T14:13:18Z</time>
      </trkpt>
      <trkpt lat="42.1717" lon="0.92704">
        <ele>518.45</ele>
        <time>2021-08-01T14:13:19Z</time>
      </trkpt>
      <trkpt lat="42.1716" lon="0.92699">
        <ele>517.54</ele>
        <time>2021-08-01T14:13:20Z</time>
      </trkpt>
      <trkpt lat="42.1715" lon="0.92694">
        <ele>516.71</ele>
        <time>2021-08-01T14:13:21Z</time>
      </trkpt>
      <trkpt lat="42.17085" lon="0.92677">
        <ele>512.89</ele>
        <time>2021-08-01T14:13:27Z</time>
      </trkpt>
      <trkpt lat="42.17062" lon="0.92676">
        <ele>511.44</ele>
        <time>2021-08-01T14:13:29Z</time>
      </trkpt>
      <trkpt lat="42.1702" lon="0.92651">
        <ele>508.5</ele>
        <time>2021-08-01T14:13:33Z</time>
      </trkpt>
      <trkpt lat="42.1697" lon="0.92587">
        <ele>504.42</ele>
        <time>2021-08-01T14:13:38Z</time>
      </trkpt>
      <trkpt lat="42.16961" lon="0.92574">
        <ele>503.5</ele>
        <time>2021-08-01T14:13:39Z</time>
      </trkpt>
      <trkpt lat="42.1693" lon="0.92503">
        <ele>498.77</ele>
        <time>2021-08-01T14:13:44Z</time>
      </trkpt>
      <trkpt lat="42.16874" lon="0.92397">
        <ele>495.42</ele>
        <time>2021-08-01T14:13:51Z</time>
      </trkpt>
      <trkpt lat="42.16837" lon="0.92314">
        <ele>492.4</ele>
        <time>2021-08-01T14:13:57Z</time>
      </trkpt>
      <trkpt lat="42.16816" lon="0.92262">
        <ele>488.37</ele>
        <time>2021-08-01T14:14:02Z</time>
      </trkpt>
      <trkpt lat="42.16815" lon="0.9225">
        <ele>487.55</ele>
        <time>2021-08-01T14:14:03Z</time>
      </trkpt>
      <trkpt lat="42.16783" lon="0.92186">
        <ele>482.85</ele>
        <time>2021-08-01T14:14:09Z</time>
      </trkpt>
      <trkpt lat="42.16762" lon="0.92155">
        <ele>480.65</ele>
        <time>2021-08-01T14:14:12Z</time>
      </trkpt>
      <trkpt lat="42.16734" lon="0.92088">
        <ele>476.95</ele>
        <time>2021-08-01T14:14:18Z</time>
      </trkpt>
      <trkpt lat="42.16725" lon="0.92078">
        <ele>476.34</ele>
        <time>2021-08-01T14:14:19Z</time>
      </trkpt>
      <trkpt lat="42.16681" lon="0.9203">
        <ele>473.46</ele>
        <time>2021-08-01T14:14:24Z</time>
      </trkpt>
      <trkpt lat="42.16652" lon="0.91949">
        <ele>468.69</ele>
        <time>2021-08-01T14:14:30Z</time>
      </trkpt>
      <trkpt lat="42.16641" lon="0.91913">
        <ele>466.31</ele>
        <time>2021-08-01T14:14:33Z</time>
      </trkpt>
      <trkpt lat="42.16621" lon="0.91838">
        <ele>461.59</ele>
        <time>2021-08-01T14:14:39Z</time>
      </trkpt>
      <trkpt lat="42.16595" lon="0.91766">
        <ele>457.69</ele>
        <time>2021-08-01T14:14:44Z</time>
      </trkpt>
      <trkpt lat="42.16575" lon="0.91693">
        <ele>454.08</ele>
        <time>2021-08-01T14:14:49Z</time>
      </trkpt>
      <trkpt lat="42.16555" lon="0.91615">
        <ele>450.84</ele>
        <time>2021-08-01T14:14:54Z</time>
      </trkpt>
      <trkpt lat="42.16536" lon="0.91553">
        <ele>448.33</ele>
        <time>2021-08-01T14:14:58Z</time>
      </trkpt>
      <trkpt lat="42.16529" lon="0.91494">
        <ele>446.05</ele>
        <time>2021-08-01T14:15:02Z</time>
      </trkpt>
      <trkpt lat="42.16496" lon="0.9139">
        <ele>442.37</ele>
        <time>2021-08-01T14:15:10Z</time>
      </trkpt>
      <trkpt lat="42.16452" lon="0.91262">
        <ele>439.41</ele>
        <time>2021-08-01T14:15:20Z</time>
      </trkpt>
      <trkpt lat="42.16439" lon="0.91186">
        <ele>438.02</ele>
        <time>2021-08-01T14:15:26Z</time>
      </trkpt>
      <trkpt lat="42.16424" lon="0.91123">
        <ele>436.7</ele>
        <time>2021-08-01T14:15:32Z</time>
      </trkpt>
      <trkpt lat="42.16397" lon="0.91064">
        <ele>436.24</ele>
        <time>2021-08-01T14:15:41Z</time>
      </trkpt>
      <trkpt lat="42.16404" lon="0.90987">
        <ele>437.42</ele>
        <time>2021-08-01T14:15:48Z</time>
      </trkpt>
      <trkpt lat="42.16441" lon="0.90958">
        <ele>436.62</ele>
        <time>2021-08-01T14:15:53Z</time>
      </trkpt>
      <trkpt lat="42.16476" lon="0.90943">
        <ele>432.86</ele>
        <time>2021-08-01T14:16:01Z</time>
      </trkpt>
      <trkpt lat="42.16507" lon="0.90935">
        <ele>429.76</ele>
        <time>2021-08-01T14:16:08Z</time>
      </trkpt>
      <trkpt lat="42.16548" lon="0.90923">
        <ele>426.71</ele>
        <time>2021-08-01T14:16:18Z</time>
      </trkpt>
      <trkpt lat="42.16564" lon="0.90919">
        <ele>425.48</ele>
        <time>2021-08-01T14:16:22Z</time>
      </trkpt>
      <trkpt lat="42.16577" lon="0.90919">
        <ele>424.49</ele>
        <time>2021-08-01T14:16:26Z</time>
      </trkpt>
      <trkpt lat="42.16597" lon="0.90889">
        <ele>422.55</ele>
        <time>2021-08-01T14:16:33Z</time>
      </trkpt>
      <trkpt lat="42.16613" lon="0.9085">
        <ele>420.94</ele>
        <time>2021-08-01T14:16:38Z</time>
      </trkpt>
      <trkpt lat="42.16651" lon="0.90829">
        <ele>417.78</ele>
        <time>2021-08-01T14:16:44Z</time>
      </trkpt>
      <trkpt lat="42.16695" lon="0.90803">
        <ele>413.37</ele>
        <time>2021-08-01T14:16:52Z</time>
      </trkpt>
      <trkpt lat="42.16719" lon="0.908">
        <ele>411.79</ele>
        <time>2021-08-01T14:16:57Z</time>
      </trkpt>
      <trkpt lat="42.1678" lon="0.90803">
        <ele>410.45</ele>
        <time>2021-08-01T14:17:06Z</time>
      </trkpt>
      <trkpt lat="42.16786" lon="0.90803">
        <ele>410.15</ele>
        <time>2021-08-01T14:17:07Z</time>
      </trkpt>
      <trkpt lat="42.16808" lon="0.90797">
        <ele>409.16</ele>
        <time>2021-08-01T14:17:11Z</time>
      </trkpt>
      <trkpt lat="42.1684" lon="0.90795">
        <ele>405.68</ele>
        <time>2021-08-01T14:17:20Z</time>
      </trkpt>
      <trkpt lat="42.16844" lon="0.90795">
        <ele>403.1</ele>
        <time>2021-08-01T14:17:42Z</time>
      </trkpt>
      <trkpt lat="42.16847" lon="0.90781">
        <ele>402.61</ele>
        <time>2021-08-01T14:17:48Z</time>
      </trkpt>
      <trkpt lat="42.16845" lon="0.90771">
        <ele>402.4</ele>
        <time>2021-08-01T14:17:51Z</time>
      </trkpt>
      <trkpt lat="42.16829" lon="0.90755">
        <ele>402.18</ele>
        <time>2021-08-01T14:17:55Z</time>
      </trkpt>
      <trkpt lat="42.16809" lon="0.90739">
        <ele>401.67</ele>
        <time>2021-08-01T14:18:00Z</time>
      </trkpt>
      <trkpt lat="42.16812" lon="0.90697">
        <ele>401.26</ele>
        <time>2021-08-01T14:18:05Z</time>
      </trkpt>
      <trkpt lat="42.16825" lon="0.90537">
        <ele>401.17</ele>
        <time>2021-08-01T14:18:15Z</time>
      </trkpt>
      <trkpt lat="42.1683" lon="0.90467">
        <ele>401.41</ele>
        <time>2021-08-01T14:18:19Z</time>
      </trkpt>
      <trkpt lat="42.16798" lon="0.90365">
        <ele>401.14</ele>
        <time>2021-08-01T14:18:25Z</time>
      </trkpt>
      <trkpt lat="42.16773" lon="0.9034">
        <ele>400.64</ele>
        <time>2021-08-01T14:18:27Z</time>
      </trkpt>
      <trkpt lat="42.16759" lon="0.90328">
        <ele>400.37</ele>
        <time>2021-08-01T14:18:28Z</time>
      </trkpt>
      <trkpt lat="42.16602" lon="0.90196">
        <ele>400.42</ele>
        <time>2021-08-01T14:18:39Z</time>
      </trkpt>
      <trkpt lat="42.16491" lon="0.90105">
        <ele>403.45</ele>
        <time>2021-08-01T14:18:48Z</time>
      </trkpt>
      <trkpt lat="42.16421" lon="0.9005">
        <ele>406.69</ele>
        <time>2021-08-01T14:18:54Z</time>
      </trkpt>
      <trkpt lat="42.16371" lon="0.90005">
        <ele>409.33</ele>
        <time>2021-08-01T14:18:59Z</time>
      </trkpt>
      <trkpt lat="42.16364" lon="0.89992">
        <ele>409.74</ele>
        <time>2021-08-01T14:19:00Z</time>
      </trkpt>
      <trkpt lat="42.16348" lon="0.89912">
        <ele>411.78</ele>
        <time>2021-08-01T14:19:05Z</time>
      </trkpt>
      <trkpt lat="42.16351" lon="0.89776">
        <ele>415.28</ele>
        <time>2021-08-01T14:19:14Z</time>
      </trkpt>
      <trkpt lat="42.16355" lon="0.8967">
        <ele>418.56</ele>
        <time>2021-08-01T14:19:21Z</time>
      </trkpt>
      <trkpt lat="42.16366" lon="0.89585">
        <ele>421.96</ele>
        <time>2021-08-01T14:19:27Z</time>
      </trkpt>
      <trkpt lat="42.16378" lon="0.89513">
        <ele>424.81</ele>
        <time>2021-08-01T14:19:34Z</time>
      </trkpt>
      <trkpt lat="42.16385" lon="0.89484">
        <ele>426.57</ele>
        <time>2021-08-01T14:19:41Z</time>
      </trkpt>
      <trkpt lat="42.16391" lon="0.89473">
        <ele>427.18</ele>
        <time>2021-08-01T14:19:46Z</time>
      </trkpt>
      <trkpt lat="42.16371" lon="0.89463">
        <ele>427.7</ele>
        <time>2021-08-01T14:19:54Z</time>
      </trkpt>
      <trkpt lat="42.1639" lon="0.89467">
        <ele>427.67</ele>
        <time>2021-08-01T14:20:00Z</time>
      </trkpt>
      <trkpt lat="42.16402" lon="0.8947">
        <ele>427.71</ele>
        <time>2021-08-01T14:20:02Z</time>
      </trkpt>
      <trkpt lat="42.16503" lon="0.89498">
        <ele>430.84</ele>
        <time>2021-08-01T14:20:13Z</time>
      </trkpt>
      <trkpt lat="42.16563" lon="0.89512">
        <ele>434.04</ele>
        <time>2021-08-01T14:20:20Z</time>
      </trkpt>
      <trkpt lat="42.16601" lon="0.8953">
        <ele>435.92</ele>
        <time>2021-08-01T14:20:24Z</time>
      </trkpt>
      <trkpt lat="42.16625" lon="0.89555">
        <ele>437.44</ele>
        <time>2021-08-01T14:20:28Z</time>
      </trkpt>
      <trkpt lat="42.16652" lon="0.89585">
        <ele>438.62</ele>
        <time>2021-08-01T14:20:32Z</time>
      </trkpt>
      <trkpt lat="42.16719" lon="0.896">
        <ele>440.39</ele>
        <time>2021-08-01T14:20:40Z</time>
      </trkpt>
      <trkpt lat="42.16726" lon="0.89599">
        <ele>440.52</ele>
        <time>2021-08-01T14:20:41Z</time>
      </trkpt>
      <trkpt lat="42.16733" lon="0.89597">
        <ele>440.63</ele>
        <time>2021-08-01T14:20:42Z</time>
      </trkpt>
      <trkpt lat="42.16765" lon="0.89571">
        <ele>441</ele>
        <time>2021-08-01T14:20:46Z</time>
      </trkpt>
      <trkpt lat="42.16844" lon="0.89485">
        <ele>442.3</ele>
        <time>2021-08-01T14:20:56Z</time>
      </trkpt>
      <trkpt lat="42.16909" lon="0.89472">
        <ele>443.2</ele>
        <time>2021-08-01T14:21:03Z</time>
      </trkpt>
      <trkpt lat="42.17054" lon="0.89504">
        <ele>441.89</ele>
        <time>2021-08-01T14:21:16Z</time>
      </trkpt>
      <trkpt lat="42.17165" lon="0.89536">
        <ele>440.36</ele>
        <time>2021-08-01T14:21:27Z</time>
      </trkpt>
      <trkpt lat="42.17197" lon="0.89545">
        <ele>440.62</ele>
        <time>2021-08-01T14:21:30Z</time>
      </trkpt>
      <trkpt lat="42.17285" lon="0.89599">
        <ele>443.84</ele>
        <time>2021-08-01T14:21:37Z</time>
      </trkpt>
      <trkpt lat="42.17339" lon="0.89633">
        <ele>447.08</ele>
        <time>2021-08-01T14:21:41Z</time>
      </trkpt>
      <trkpt lat="42.17381" lon="0.89661">
        <ele>449.76</ele>
        <time>2021-08-01T14:21:45Z</time>
      </trkpt>
      <trkpt lat="42.17394" lon="0.89674">
        <ele>451.08</ele>
        <time>2021-08-01T14:21:47Z</time>
      </trkpt>
      <trkpt lat="42.17407" lon="0.897">
        <ele>452.92</ele>
        <time>2021-08-01T14:21:51Z</time>
      </trkpt>
      <trkpt lat="42.17413" lon="0.89722">
        <ele>454.36</ele>
        <time>2021-08-01T14:22:02Z</time>
      </trkpt>
      <trkpt lat="42.17411" lon="0.89724">
        <ele>454.37</ele>
        <time>2021-08-01T14:22:12Z</time>
      </trkpt>
      <trkpt lat="42.17402" lon="0.89721">
        <ele>454.64</ele>
        <time>2021-08-01T14:22:26Z</time>
      </trkpt>
      <trkpt lat="42.174" lon="0.8972">
        <ele>455.17</ele>
        <time>2021-08-01T14:22:48Z</time>
      </trkpt>
      <trkpt lat="42.174" lon="0.89719">
        <ele>455.12</ele>
        <time>2021-08-01T14:22:49Z</time>
      </trkpt>
      <trkpt lat="42.17412" lon="0.89733">
        <ele>455.21</ele>
        <time>2021-08-01T14:27:04Z</time>
      </trkpt>
      <trkpt lat="42.1739" lon="0.89715">
        <ele>455.21</ele>
        <time>2021-08-01T14:27:09Z</time>
      </trkpt>
      <trkpt lat="42.17396" lon="0.89702">
        <ele>452.99</ele>
        <time>2021-08-01T14:27:18Z</time>
      </trkpt>
      <trkpt lat="42.17418" lon="0.89692">
        <ele>452.3</ele>
        <time>2021-08-01T14:27:23Z</time>
      </trkpt>
      <trkpt lat="42.17422" lon="0.89694">
        <ele>452.24</ele>
        <time>2021-08-01T14:27:27Z</time>
      </trkpt>
      <trkpt lat="42.17478" lon="0.89725">
        <ele>453.29</ele>
        <time>2021-08-01T14:27:34Z</time>
      </trkpt>
      <trkpt lat="42.17509" lon="0.89743">
        <ele>455.02</ele>
        <time>2021-08-01T14:27:37Z</time>
      </trkpt>
      <trkpt lat="42.17564" lon="0.89722">
        <ele>458.14</ele>
        <time>2021-08-01T14:27:42Z</time>
      </trkpt>
      <trkpt lat="42.17593" lon="0.89682">
        <ele>459.38</ele>
        <time>2021-08-01T14:27:45Z</time>
      </trkpt>
      <trkpt lat="42.17604" lon="0.89673">
        <ele>460.02</ele>
        <time>2021-08-01T14:27:46Z</time>
      </trkpt>
      <trkpt lat="42.17642" lon="0.89663">
        <ele>461.81</ele>
        <time>2021-08-01T14:27:49Z</time>
      </trkpt>
      <trkpt lat="42.17771" lon="0.89668">
        <ele>465.21</ele>
        <time>2021-08-01T14:27:57Z</time>
      </trkpt>
      <trkpt lat="42.17885" lon="0.8967">
        <ele>468.23</ele>
        <time>2021-08-01T14:28:03Z</time>
      </trkpt>
      <trkpt lat="42.17983" lon="0.89681">
        <ele>471.25</ele>
        <time>2021-08-01T14:28:08Z</time>
      </trkpt>
      <trkpt lat="42.18062" lon="0.89712">
        <ele>474.33</ele>
        <time>2021-08-01T14:28:13Z</time>
      </trkpt>
      <trkpt lat="42.18073" lon="0.89718">
        <ele>474.96</ele>
        <time>2021-08-01T14:28:14Z</time>
      </trkpt>
      <trkpt lat="42.18091" lon="0.8973">
        <ele>475.8</ele>
        <time>2021-08-01T14:28:16Z</time>
      </trkpt>
      <trkpt lat="42.18121" lon="0.89714">
        <ele>477.38</ele>
        <time>2021-08-01T14:28:20Z</time>
      </trkpt>
      <trkpt lat="42.18154" lon="0.89734">
        <ele>478.25</ele>
        <time>2021-08-01T14:28:24Z</time>
      </trkpt>
      <trkpt lat="42.18187" lon="0.8978">
        <ele>481.38</ele>
        <time>2021-08-01T14:28:28Z</time>
      </trkpt>
      <trkpt lat="42.1823" lon="0.89812">
        <ele>485.03</ele>
        <time>2021-08-01T14:28:32Z</time>
      </trkpt>
      <trkpt lat="42.18275" lon="0.89823">
        <ele>489.32</ele>
        <time>2021-08-01T14:28:36Z</time>
      </trkpt>
      <trkpt lat="42.18287" lon="0.89819">
        <ele>490.44</ele>
        <time>2021-08-01T14:28:37Z</time>
      </trkpt>
      <trkpt lat="42.1834" lon="0.89799">
        <ele>495.26</ele>
        <time>2021-08-01T14:28:41Z</time>
      </trkpt>
      <trkpt lat="42.18389" lon="0.89782">
        <ele>499.14</ele>
        <time>2021-08-01T14:28:45Z</time>
      </trkpt>
      <trkpt lat="42.1843" lon="0.89769">
        <ele>502.42</ele>
        <time>2021-08-01T14:28:49Z</time>
      </trkpt>
      <trkpt lat="42.1849" lon="0.89759">
        <ele>505.48</ele>
        <time>2021-08-01T14:28:55Z</time>
      </trkpt>
      <trkpt lat="42.18563" lon="0.89734">
        <ele>508.77</ele>
        <time>2021-08-01T14:29:01Z</time>
      </trkpt>
      <trkpt lat="42.18592" lon="0.89717">
        <ele>510.13</ele>
        <time>2021-08-01T14:29:03Z</time>
      </trkpt>
      <trkpt lat="42.18605" lon="0.89705">
        <ele>510.79</ele>
        <time>2021-08-01T14:29:04Z</time>
      </trkpt>
      <trkpt lat="42.18617" lon="0.8969">
        <ele>511.41</ele>
        <time>2021-08-01T14:29:05Z</time>
      </trkpt>
      <trkpt lat="42.18637" lon="0.89652">
        <ele>512.46</ele>
        <time>2021-08-01T14:29:07Z</time>
      </trkpt>
      <trkpt lat="42.1869" lon="0.89521">
        <ele>516.02</ele>
        <time>2021-08-01T14:29:13Z</time>
      </trkpt>
      <trkpt lat="42.18724" lon="0.89435">
        <ele>519.08</ele>
        <time>2021-08-01T14:29:17Z</time>
      </trkpt>
      <trkpt lat="42.18756" lon="0.89356">
        <ele>522.56</ele>
        <time>2021-08-01T14:29:21Z</time>
      </trkpt>
      <trkpt lat="42.18766" lon="0.89338">
        <ele>523.41</ele>
        <time>2021-08-01T14:29:22Z</time>
      </trkpt>
      <trkpt lat="42.18791" lon="0.89307">
        <ele>525.18</ele>
        <time>2021-08-01T14:29:24Z</time>
      </trkpt>
      <trkpt lat="42.1885" lon="0.89253">
        <ele>528.72</ele>
        <time>2021-08-01T14:29:28Z</time>
      </trkpt>
      <trkpt lat="42.18902" lon="0.89243">
        <ele>532.04</ele>
        <time>2021-08-01T14:29:31Z</time>
      </trkpt>
      <trkpt lat="42.18947" lon="0.89278">
        <ele>536.14</ele>
        <time>2021-08-01T14:29:34Z</time>
      </trkpt>
      <trkpt lat="42.18966" lon="0.89341">
        <ele>540.62</ele>
        <time>2021-08-01T14:29:37Z</time>
      </trkpt>
      <trkpt lat="42.18959" lon="0.89402">
        <ele>544.91</ele>
        <time>2021-08-01T14:29:40Z</time>
      </trkpt>
      <trkpt lat="42.18942" lon="0.89486">
        <ele>550.79</ele>
        <time>2021-08-01T14:29:44Z</time>
      </trkpt>
      <trkpt lat="42.18929" lon="0.89545">
        <ele>553.93</ele>
        <time>2021-08-01T14:29:47Z</time>
      </trkpt>
      <trkpt lat="42.18944" lon="0.89621">
        <ele>557.9</ele>
        <time>2021-08-01T14:29:52Z</time>
      </trkpt>
      <trkpt lat="42.18988" lon="0.8962">
        <ele>560.46</ele>
        <time>2021-08-01T14:29:56Z</time>
      </trkpt>
      <trkpt lat="42.19007" lon="0.89601">
        <ele>561.58</ele>
        <time>2021-08-01T14:29:58Z</time>
      </trkpt>
      <trkpt lat="42.19061" lon="0.8953">
        <ele>565.23</ele>
        <time>2021-08-01T14:30:03Z</time>
      </trkpt>
      <trkpt lat="42.19098" lon="0.89481">
        <ele>569.25</ele>
        <time>2021-08-01T14:30:06Z</time>
      </trkpt>
      <trkpt lat="42.19136" lon="0.89433">
        <ele>573.49</ele>
        <time>2021-08-01T14:30:09Z</time>
      </trkpt>
      <trkpt lat="42.19161" lon="0.89399">
        <ele>576.58</ele>
        <time>2021-08-01T14:30:11Z</time>
      </trkpt>
      <trkpt lat="42.19198" lon="0.89341">
        <ele>580.9</ele>
        <time>2021-08-01T14:30:14Z</time>
      </trkpt>
      <trkpt lat="42.19231" lon="0.89281">
        <ele>584.7</ele>
        <time>2021-08-01T14:30:17Z</time>
      </trkpt>
      <trkpt lat="42.19278" lon="0.892">
        <ele>588.42</ele>
        <time>2021-08-01T14:30:21Z</time>
      </trkpt>
      <trkpt lat="42.19323" lon="0.89116">
        <ele>591.71</ele>
        <time>2021-08-01T14:30:25Z</time>
      </trkpt>
      <trkpt lat="42.19382" lon="0.89004">
        <ele>594.96</ele>
        <time>2021-08-01T14:30:30Z</time>
      </trkpt>
      <trkpt lat="42.19414" lon="0.88937">
        <ele>598.03</ele>
        <time>2021-08-01T14:30:33Z</time>
      </trkpt>
      <trkpt lat="42.19448" lon="0.88852">
        <ele>601.97</ele>
        <time>2021-08-01T14:30:37Z</time>
      </trkpt>
      <trkpt lat="42.19476" lon="0.88779">
        <ele>605.05</ele>
        <time>2021-08-01T14:30:41Z</time>
      </trkpt>
      <trkpt lat="42.195" lon="0.88712">
        <ele>608.53</ele>
        <time>2021-08-01T14:30:46Z</time>
      </trkpt>
      <trkpt lat="42.1952" lon="0.88656">
        <ele>612.01</ele>
        <time>2021-08-01T14:30:52Z</time>
      </trkpt>
      <trkpt lat="42.19533" lon="0.88592">
        <ele>615.33</ele>
        <time>2021-08-01T14:30:59Z</time>
      </trkpt>
      <trkpt lat="42.1955" lon="0.88525">
        <ele>618.89</ele>
        <time>2021-08-01T14:31:05Z</time>
      </trkpt>
      <trkpt lat="42.19555" lon="0.88463">
        <ele>622.04</ele>
        <time>2021-08-01T14:31:10Z</time>
      </trkpt>
      <trkpt lat="42.19571" lon="0.88377">
        <ele>626.21</ele>
        <time>2021-08-01T14:31:15Z</time>
      </trkpt>
      <trkpt lat="42.19587" lon="0.8832">
        <ele>629.23</ele>
        <time>2021-08-01T14:31:18Z</time>
      </trkpt>
      <trkpt lat="42.1961" lon="0.88256">
        <ele>633.82</ele>
        <time>2021-08-01T14:31:22Z</time>
      </trkpt>
      <trkpt lat="42.19616" lon="0.8824">
        <ele>633.82</ele>
        <time>2021-08-01T14:31:23Z</time>
      </trkpt>
      <trkpt lat="42.19635" lon="0.88192">
        <ele>637.53</ele>
        <time>2021-08-01T14:31:26Z</time>
      </trkpt>
      <trkpt lat="42.19657" lon="0.88132">
        <ele>641.21</ele>
        <time>2021-08-01T14:31:30Z</time>
      </trkpt>
      <trkpt lat="42.19679" lon="0.88077">
        <ele>644.39</ele>
        <time>2021-08-01T14:31:34Z</time>
      </trkpt>
      <trkpt lat="42.1969" lon="0.88047">
        <ele>645.82</ele>
        <time>2021-08-01T14:31:36Z</time>
      </trkpt>
      <trkpt lat="42.19704" lon="0.87962">
        <ele>650.26</ele>
        <time>2021-08-01T14:31:41Z</time>
      </trkpt>
      <trkpt lat="42.19707" lon="0.87909">
        <ele>653.47</ele>
        <time>2021-08-01T14:31:44Z</time>
      </trkpt>
      <trkpt lat="42.19709" lon="0.87848">
        <ele>657.38</ele>
        <time>2021-08-01T14:31:48Z</time>
      </trkpt>
      <trkpt lat="42.19712" lon="0.87787">
        <ele>661.24</ele>
        <time>2021-08-01T14:31:52Z</time>
      </trkpt>
      <trkpt lat="42.19724" lon="0.87731">
        <ele>664.76</ele>
        <time>2021-08-01T14:31:56Z</time>
      </trkpt>
      <trkpt lat="42.19733" lon="0.87704">
        <ele>666.7</ele>
        <time>2021-08-01T14:31:58Z</time>
      </trkpt>
      <trkpt lat="42.19776" lon="0.87643">
        <ele>670.75</ele>
        <time>2021-08-01T14:32:03Z</time>
      </trkpt>
      <trkpt lat="42.19814" lon="0.87595">
        <ele>673.27</ele>
        <time>2021-08-01T14:32:07Z</time>
      </trkpt>
      <trkpt lat="42.19858" lon="0.87568">
        <ele>675.76</ele>
        <time>2021-08-01T14:32:11Z</time>
      </trkpt>
      <trkpt lat="42.19893" lon="0.8756">
        <ele>677.75</ele>
        <time>2021-08-01T14:32:14Z</time>
      </trkpt>
      <trkpt lat="42.19952" lon="0.87525">
        <ele>681.96</ele>
        <time>2021-08-01T14:32:19Z</time>
      </trkpt>
      <trkpt lat="42.19964" lon="0.87516">
        <ele>682.9</ele>
        <time>2021-08-01T14:32:20Z</time>
      </trkpt>
      <trkpt lat="42.20002" lon="0.87465">
        <ele>686.89</ele>
        <time>2021-08-01T14:32:24Z</time>
      </trkpt>
      <trkpt lat="42.20023" lon="0.8742">
        <ele>690.29</ele>
        <time>2021-08-01T14:32:27Z</time>
      </trkpt>
      <trkpt lat="42.20037" lon="0.87371">
        <ele>693.89</ele>
        <time>2021-08-01T14:32:30Z</time>
      </trkpt>
      <trkpt lat="42.20047" lon="0.87319">
        <ele>697.16</ele>
        <time>2021-08-01T14:32:33Z</time>
      </trkpt>
      <trkpt lat="42.20056" lon="0.87286">
        <ele>699.26</ele>
        <time>2021-08-01T14:32:35Z</time>
      </trkpt>
      <trkpt lat="42.20084" lon="0.87229">
        <ele>703.18</ele>
        <time>2021-08-01T14:32:39Z</time>
      </trkpt>
      <trkpt lat="42.20094" lon="0.87218">
        <ele>704.15</ele>
        <time>2021-08-01T14:32:40Z</time>
      </trkpt>
      <trkpt lat="42.20136" lon="0.8717">
        <ele>708.76</ele>
        <time>2021-08-01T14:32:45Z</time>
      </trkpt>
      <trkpt lat="42.20167" lon="0.87122">
        <ele>712.24</ele>
        <time>2021-08-01T14:32:49Z</time>
      </trkpt>
      <trkpt lat="42.20189" lon="0.8707">
        <ele>716.18</ele>
        <time>2021-08-01T14:32:53Z</time>
      </trkpt>
      <trkpt lat="42.20199" lon="0.87043">
        <ele>718.21</ele>
        <time>2021-08-01T14:32:55Z</time>
      </trkpt>
      <trkpt lat="42.20236" lon="0.86982">
        <ele>723.02</ele>
        <time>2021-08-01T14:33:00Z</time>
      </trkpt>
      <trkpt lat="42.20251" lon="0.86956">
        <ele>726.17</ele>
        <time>2021-08-01T14:33:02Z</time>
      </trkpt>
      <trkpt lat="42.20272" lon="0.86922">
        <ele>729.42</ele>
        <time>2021-08-01T14:33:05Z</time>
      </trkpt>
      <trkpt lat="42.20294" lon="0.86887">
        <ele>732.56</ele>
        <time>2021-08-01T14:33:08Z</time>
      </trkpt>
      <trkpt lat="42.20318" lon="0.86851">
        <ele>735.72</ele>
        <time>2021-08-01T14:33:11Z</time>
      </trkpt>
      <trkpt lat="42.20342" lon="0.86815">
        <ele>739.01</ele>
        <time>2021-08-01T14:33:14Z</time>
      </trkpt>
      <trkpt lat="42.20365" lon="0.8678">
        <ele>742.05</ele>
        <time>2021-08-01T14:33:17Z</time>
      </trkpt>
      <trkpt lat="42.20372" lon="0.86768">
        <ele>743.03</ele>
        <time>2021-08-01T14:33:18Z</time>
      </trkpt>
      <trkpt lat="42.20398" lon="0.867">
        <ele>747.79</ele>
        <time>2021-08-01T14:33:23Z</time>
      </trkpt>
      <trkpt lat="42.20419" lon="0.86646">
        <ele>751.29</ele>
        <time>2021-08-01T14:33:27Z</time>
      </trkpt>
      <trkpt lat="42.20449" lon="0.86594">
        <ele>755.26</ele>
        <time>2021-08-01T14:33:31Z</time>
      </trkpt>
      <trkpt lat="42.2048" lon="0.86539">
        <ele>759.18</ele>
        <time>2021-08-01T14:33:35Z</time>
      </trkpt>
      <trkpt lat="42.20508" lon="0.86485">
        <ele>762.98</ele>
        <time>2021-08-01T14:33:39Z</time>
      </trkpt>
      <trkpt lat="42.20531" lon="0.86443">
        <ele>766.11</ele>
        <time>2021-08-01T14:33:42Z</time>
      </trkpt>
      <trkpt lat="42.20556" lon="0.864">
        <ele>769.27</ele>
        <time>2021-08-01T14:33:45Z</time>
      </trkpt>
      <trkpt lat="42.20584" lon="0.86361">
        <ele>772.42</ele>
        <time>2021-08-01T14:33:48Z</time>
      </trkpt>
      <trkpt lat="42.20622" lon="0.86311">
        <ele>776.35</ele>
        <time>2021-08-01T14:33:52Z</time>
      </trkpt>
      <trkpt lat="42.20645" lon="0.86269">
        <ele>779.59</ele>
        <time>2021-08-01T14:33:55Z</time>
      </trkpt>
      <trkpt lat="42.20667" lon="0.86225">
        <ele>783.01</ele>
        <time>2021-08-01T14:33:58Z</time>
      </trkpt>
      <trkpt lat="42.20691" lon="0.86176">
        <ele>786.67</ele>
        <time>2021-08-01T14:34:01Z</time>
      </trkpt>
      <trkpt lat="42.20716" lon="0.86129">
        <ele>790.69</ele>
        <time>2021-08-01T14:34:04Z</time>
      </trkpt>
      <trkpt lat="42.20739" lon="0.86079">
        <ele>794.7</ele>
        <time>2021-08-01T14:34:07Z</time>
      </trkpt>
      <trkpt lat="42.20763" lon="0.8603">
        <ele>798.56</ele>
        <time>2021-08-01T14:34:10Z</time>
      </trkpt>
      <trkpt lat="42.20788" lon="0.8598">
        <ele>802.09</ele>
        <time>2021-08-01T14:34:13Z</time>
      </trkpt>
      <trkpt lat="42.20833" lon="0.85923">
        <ele>806.88</ele>
        <time>2021-08-01T14:34:17Z</time>
      </trkpt>
      <trkpt lat="42.20871" lon="0.85853">
        <ele>811.85</ele>
        <time>2021-08-01T14:34:21Z</time>
      </trkpt>
      <trkpt lat="42.20876" lon="0.85833">
        <ele>813.03</ele>
        <time>2021-08-01T14:34:22Z</time>
      </trkpt>
      <trkpt lat="42.20909" lon="0.85748">
        <ele>818.75</ele>
        <time>2021-08-01T14:34:27Z</time>
      </trkpt>
      <trkpt lat="42.20937" lon="0.85702">
        <ele>822.06</ele>
        <time>2021-08-01T14:34:30Z</time>
      </trkpt>
      <trkpt lat="42.20967" lon="0.85658">
        <ele>825.58</ele>
        <time>2021-08-01T14:34:33Z</time>
      </trkpt>
      <trkpt lat="42.21002" lon="0.85617">
        <ele>829.08</ele>
        <time>2021-08-01T14:34:36Z</time>
      </trkpt>
      <trkpt lat="42.21036" lon="0.8557">
        <ele>832.93</ele>
        <time>2021-08-01T14:34:39Z</time>
      </trkpt>
      <trkpt lat="42.21061" lon="0.85536">
        <ele>836.41</ele>
        <time>2021-08-01T14:34:41Z</time>
      </trkpt>
      <trkpt lat="42.21087" lon="0.85447">
        <ele>841.03</ele>
        <time>2021-08-01T14:34:45Z</time>
      </trkpt>
      <trkpt lat="42.21091" lon="0.85423">
        <ele>842.25</ele>
        <time>2021-08-01T14:34:46Z</time>
      </trkpt>
      <trkpt lat="42.21122" lon="0.85336">
        <ele>847.69</ele>
        <time>2021-08-01T14:34:50Z</time>
      </trkpt>
      <trkpt lat="42.21142" lon="0.85293">
        <ele>850.98</ele>
        <time>2021-08-01T14:34:52Z</time>
      </trkpt>
      <trkpt lat="42.21164" lon="0.85254">
        <ele>854.31</ele>
        <time>2021-08-01T14:34:54Z</time>
      </trkpt>
      <trkpt lat="42.21183" lon="0.85185">
        <ele>859.05</ele>
        <time>2021-08-01T14:34:57Z</time>
      </trkpt>
      <trkpt lat="42.21188" lon="0.85134">
        <ele>862.11</ele>
        <time>2021-08-01T14:34:59Z</time>
      </trkpt>
      <trkpt lat="42.21202" lon="0.85061">
        <ele>866.39</ele>
        <time>2021-08-01T14:35:02Z</time>
      </trkpt>
      <trkpt lat="42.21208" lon="0.85038">
        <ele>868.09</ele>
        <time>2021-08-01T14:35:03Z</time>
      </trkpt>
      <trkpt lat="42.21234" lon="0.84975">
        <ele>873.6</ele>
        <time>2021-08-01T14:35:06Z</time>
      </trkpt>
      <trkpt lat="42.2125" lon="0.84936">
        <ele>876.92</ele>
        <time>2021-08-01T14:35:08Z</time>
      </trkpt>
      <trkpt lat="42.2129" lon="0.84896">
        <ele>882.97</ele>
        <time>2021-08-01T14:35:12Z</time>
      </trkpt>
      <trkpt lat="42.21306" lon="0.8489">
        <ele>886.83</ele>
        <time>2021-08-01T14:35:15Z</time>
      </trkpt>
      <trkpt lat="42.21291" lon="0.84901">
        <ele>890.7</ele>
        <time>2021-08-01T14:35:20Z</time>
      </trkpt>
      <trkpt lat="42.21276" lon="0.84907">
        <ele>891.44</ele>
        <time>2021-08-01T14:35:29Z</time>
      </trkpt>
      <trkpt lat="42.21286" lon="0.84903">
        <ele>891.31</ele>
        <time>2021-08-01T14:35:32Z</time>
      </trkpt>
      <trkpt lat="42.21285" lon="0.84854">
        <ele>892.66</ele>
        <time>2021-08-01T14:35:39Z</time>
      </trkpt>
      <trkpt lat="42.21251" lon="0.84802">
        <ele>894.1</ele>
        <time>2021-08-01T14:35:45Z</time>
      </trkpt>
      <trkpt lat="42.21215" lon="0.84774">
        <ele>896.02</ele>
        <time>2021-08-01T14:35:51Z</time>
      </trkpt>
      <trkpt lat="42.2119" lon="0.84786">
        <ele>896.73</ele>
        <time>2021-08-01T14:35:54Z</time>
      </trkpt>
      <trkpt lat="42.21182" lon="0.84786">
        <ele>896.9</ele>
        <time>2021-08-01T14:35:55Z</time>
      </trkpt>
      <trkpt lat="42.21174" lon="0.84783">
        <ele>897.01</ele>
        <time>2021-08-01T14:35:56Z</time>
      </trkpt>
      <trkpt lat="42.21146" lon="0.84734">
        <ele>897.23</ele>
        <time>2021-08-01T14:36:01Z</time>
      </trkpt>
      <trkpt lat="42.21108" lon="0.84659">
        <ele>896.78</ele>
        <time>2021-08-01T14:36:08Z</time>
      </trkpt>
      <trkpt lat="42.21068" lon="0.84671">
        <ele>896.21</ele>
        <time>2021-08-01T14:36:14Z</time>
      </trkpt>
      <trkpt lat="42.21064" lon="0.84683">
        <ele>896.16</ele>
        <time>2021-08-01T14:36:15Z</time>
      </trkpt>
      <trkpt lat="42.21054" lon="0.84717">
        <ele>896.36</ele>
        <time>2021-08-01T14:36:18Z</time>
      </trkpt>
      <trkpt lat="42.21014" lon="0.8474">
        <ele>896.95</ele>
        <time>2021-08-01T14:36:24Z</time>
      </trkpt>
      <trkpt lat="42.21004" lon="0.84739">
        <ele>897</ele>
        <time>2021-08-01T14:36:25Z</time>
      </trkpt>
      <trkpt lat="42.20964" lon="0.84731">
        <ele>897.39</ele>
        <time>2021-08-01T14:36:29Z</time>
      </trkpt>
      <trkpt lat="42.20885" lon="0.84677">
        <ele>900.17</ele>
        <time>2021-08-01T14:36:36Z</time>
      </trkpt>
      <trkpt lat="42.20875" lon="0.8462">
        <ele>902.74</ele>
        <time>2021-08-01T14:36:41Z</time>
      </trkpt>
      <trkpt lat="42.20881" lon="0.84609">
        <ele>903.36</ele>
        <time>2021-08-01T14:36:42Z</time>
      </trkpt>
      <trkpt lat="42.20887" lon="0.84599">
        <ele>903.99</ele>
        <time>2021-08-01T14:36:43Z</time>
      </trkpt>
      <trkpt lat="42.20891" lon="0.84588">
        <ele>904.59</ele>
        <time>2021-08-01T14:36:44Z</time>
      </trkpt>
      <trkpt lat="42.20894" lon="0.84577">
        <ele>905.09</ele>
        <time>2021-08-01T14:36:45Z</time>
      </trkpt>
      <trkpt lat="42.20895" lon="0.84563">
        <ele>905.59</ele>
        <time>2021-08-01T14:36:46Z</time>
      </trkpt>
      <trkpt lat="42.20908" lon="0.84469">
        <ele>908.93</ele>
        <time>2021-08-01T14:36:52Z</time>
      </trkpt>
      <trkpt lat="42.20915" lon="0.84443">
        <ele>909.81</ele>
        <time>2021-08-01T14:36:54Z</time>
      </trkpt>
      <trkpt lat="42.20896" lon="0.84424">
        <ele>912</ele>
        <time>2021-08-01T14:36:59Z</time>
      </trkpt>
      <trkpt lat="42.20862" lon="0.84444">
        <ele>912.67</ele>
        <time>2021-08-01T14:37:02Z</time>
      </trkpt>
      <trkpt lat="42.20825" lon="0.84467">
        <ele>913.66</ele>
        <time>2021-08-01T14:37:06Z</time>
      </trkpt>
      <trkpt lat="42.20797" lon="0.8445">
        <ele>915.33</ele>
        <time>2021-08-01T14:37:12Z</time>
      </trkpt>
      <trkpt lat="42.20795" lon="0.8444">
        <ele>915.71</ele>
        <time>2021-08-01T14:37:13Z</time>
      </trkpt>
      <trkpt lat="42.20784" lon="0.84387">
        <ele>917.52</ele>
        <time>2021-08-01T14:37:18Z</time>
      </trkpt>
      <trkpt lat="42.208" lon="0.84378">
        <ele>919.52</ele>
        <time>2021-08-01T14:37:23Z</time>
      </trkpt>
      <trkpt lat="42.20804" lon="0.84385">
        <ele>919.93</ele>
        <time>2021-08-01T14:37:24Z</time>
      </trkpt>
      <trkpt lat="42.20843" lon="0.84401">
        <ele>923.09</ele>
        <time>2021-08-01T14:37:31Z</time>
      </trkpt>
      <trkpt lat="42.20837" lon="0.84389">
        <ele>923.93</ele>
        <time>2021-08-01T14:37:33Z</time>
      </trkpt>
      <trkpt lat="42.20836" lon="0.84327">
        <ele>928.03</ele>
        <time>2021-08-01T14:37:41Z</time>
      </trkpt>
      <trkpt lat="42.2085" lon="0.84312">
        <ele>929.09</ele>
        <time>2021-08-01T14:37:43Z</time>
      </trkpt>
      <trkpt lat="42.20873" lon="0.84279">
        <ele>930.99</ele>
        <time>2021-08-01T14:37:47Z</time>
      </trkpt>
      <trkpt lat="42.20875" lon="0.84211">
        <ele>934.68</ele>
        <time>2021-08-01T14:37:54Z</time>
      </trkpt>
      <trkpt lat="42.20855" lon="0.84164">
        <ele>937.17</ele>
        <time>2021-08-01T14:37:59Z</time>
      </trkpt>
      <trkpt lat="42.20848" lon="0.84132">
        <ele>939.67</ele>
        <time>2021-08-01T14:38:03Z</time>
      </trkpt>
      <trkpt lat="42.20843" lon="0.84097">
        <ele>941.71</ele>
        <time>2021-08-01T14:38:08Z</time>
      </trkpt>
      <trkpt lat="42.20836" lon="0.84072">
        <ele>942.92</ele>
        <time>2021-08-01T14:38:11Z</time>
      </trkpt>
      <trkpt lat="42.20842" lon="0.84029">
        <ele>944.73</ele>
        <time>2021-08-01T14:38:15Z</time>
      </trkpt>
      <trkpt lat="42.20859" lon="0.83973">
        <ele>947.25</ele>
        <time>2021-08-01T14:38:20Z</time>
      </trkpt>
      <trkpt lat="42.20874" lon="0.8396">
        <ele>949.73</ele>
        <time>2021-08-01T14:38:26Z</time>
      </trkpt>
      <trkpt lat="42.20873" lon="0.83967">
        <ele>950.18</ele>
        <time>2021-08-01T14:38:27Z</time>
      </trkpt>
      <trkpt lat="42.20866" lon="0.84033">
        <ele>953.5</ele>
        <time>2021-08-01T14:38:34Z</time>
      </trkpt>
      <trkpt lat="42.2087" lon="0.84069">
        <ele>955.47</ele>
        <time>2021-08-01T14:38:38Z</time>
      </trkpt>
      <trkpt lat="42.209" lon="0.84132">
        <ele>959.04</ele>
        <time>2021-08-01T14:38:47Z</time>
      </trkpt>
      <trkpt lat="42.20924" lon="0.84172">
        <ele>961.78</ele>
        <time>2021-08-01T14:38:53Z</time>
      </trkpt>
      <trkpt lat="42.2096" lon="0.8416">
        <ele>965.2</ele>
        <time>2021-08-01T14:39:00Z</time>
      </trkpt>
      <trkpt lat="42.20966" lon="0.84152">
        <ele>965.65</ele>
        <time>2021-08-01T14:39:01Z</time>
      </trkpt>
      <trkpt lat="42.21003" lon="0.84096">
        <ele>969.25</ele>
        <time>2021-08-01T14:39:07Z</time>
      </trkpt>
      <trkpt lat="42.21025" lon="0.84055">
        <ele>972.75</ele>
        <time>2021-08-01T14:39:11Z</time>
      </trkpt>
      <trkpt lat="42.21047" lon="0.84015">
        <ele>976.8</ele>
        <time>2021-08-01T14:39:15Z</time>
      </trkpt>
      <trkpt lat="42.21073" lon="0.83976">
        <ele>980.61</ele>
        <time>2021-08-01T14:39:19Z</time>
      </trkpt>
      <trkpt lat="42.21095" lon="0.83944">
        <ele>984.23</ele>
        <time>2021-08-01T14:39:23Z</time>
      </trkpt>
      <trkpt lat="42.21115" lon="0.83911">
        <ele>987.54</ele>
        <time>2021-08-01T14:39:27Z</time>
      </trkpt>
      <trkpt lat="42.21133" lon="0.83889">
        <ele>989.7</ele>
        <time>2021-08-01T14:39:30Z</time>
      </trkpt>
      <trkpt lat="42.21155" lon="0.83904">
        <ele>991.04</ele>
        <time>2021-08-01T14:39:35Z</time>
      </trkpt>
      <trkpt lat="42.21156" lon="0.83913">
        <ele>991.13</ele>
        <time>2021-08-01T14:39:36Z</time>
      </trkpt>
      <trkpt lat="42.21164" lon="0.83975">
        <ele>991.47</ele>
        <time>2021-08-01T14:39:42Z</time>
      </trkpt>
      <trkpt lat="42.21178" lon="0.84136">
        <ele>994.12</ele>
        <time>2021-08-01T14:39:52Z</time>
      </trkpt>
      <trkpt lat="42.21183" lon="0.84182">
        <ele>997.74</ele>
        <time>2021-08-01T14:39:57Z</time>
      </trkpt>
      <trkpt lat="42.21192" lon="0.84201">
        <ele>1000.61</ele>
        <time>2021-08-01T14:40:01Z</time>
      </trkpt>
      <trkpt lat="42.212" lon="0.8421">
        <ele>1004.19</ele>
        <time>2021-08-01T14:40:08Z</time>
      </trkpt>
      <trkpt lat="42.2122" lon="0.84222">
        <ele>1007.01</ele>
        <time>2021-08-01T14:42:51Z</time>
      </trkpt>
      <trkpt lat="42.21242" lon="0.84212">
        <ele>1009.15</ele>
        <time>2021-08-01T14:42:59Z</time>
      </trkpt>
      <trkpt lat="42.21248" lon="0.84203">
        <ele>1009.76</ele>
        <time>2021-08-01T14:43:01Z</time>
      </trkpt>
      <trkpt lat="42.21255" lon="0.84187">
        <ele>1010.88</ele>
        <time>2021-08-01T14:43:04Z</time>
      </trkpt>
      <trkpt lat="42.21246" lon="0.84164">
        <ele>1012.79</ele>
        <time>2021-08-01T14:43:08Z</time>
      </trkpt>
      <trkpt lat="42.21232" lon="0.84123">
        <ele>1016.14</ele>
        <time>2021-08-01T14:43:14Z</time>
      </trkpt>
      <trkpt lat="42.21236" lon="0.84097">
        <ele>1017.84</ele>
        <time>2021-08-01T14:43:17Z</time>
      </trkpt>
      <trkpt lat="42.21237" lon="0.84076">
        <ele>1019.25</ele>
        <time>2021-08-01T14:43:20Z</time>
      </trkpt>
      <trkpt lat="42.21254" lon="0.83986">
        <ele>1023.44</ele>
        <time>2021-08-01T14:43:28Z</time>
      </trkpt>
      <trkpt lat="42.21255" lon="0.83928">
        <ele>1026.04</ele>
        <time>2021-08-01T14:43:32Z</time>
      </trkpt>
      <trkpt lat="42.21247" lon="0.83874">
        <ele>1029.75</ele>
        <time>2021-08-01T14:43:37Z</time>
      </trkpt>
      <trkpt lat="42.21242" lon="0.83821">
        <ele>1033.49</ele>
        <time>2021-08-01T14:43:42Z</time>
      </trkpt>
      <trkpt lat="42.21236" lon="0.83781">
        <ele>1037.02</ele>
        <time>2021-08-01T14:43:47Z</time>
      </trkpt>
      <trkpt lat="42.2123" lon="0.83742">
        <ele>1040.52</ele>
        <time>2021-08-01T14:43:53Z</time>
      </trkpt>
      <trkpt lat="42.21221" lon="0.8369">
        <ele>1043.53</ele>
        <time>2021-08-01T14:43:58Z</time>
      </trkpt>
      <trkpt lat="42.21219" lon="0.83646">
        <ele>1046.23</ele>
        <time>2021-08-01T14:44:03Z</time>
      </trkpt>
      <trkpt lat="42.21223" lon="0.83618">
        <ele>1048.46</ele>
        <time>2021-08-01T14:44:07Z</time>
      </trkpt>
      <trkpt lat="42.21199" lon="0.83599">
        <ele>1050.91</ele>
        <time>2021-08-01T14:44:13Z</time>
      </trkpt>
      <trkpt lat="42.21179" lon="0.83611">
        <ele>1051.92</ele>
        <time>2021-08-01T14:44:17Z</time>
      </trkpt>
      <trkpt lat="42.21121" lon="0.83672">
        <ele>1055.38</ele>
        <time>2021-08-01T14:44:28Z</time>
      </trkpt>
      <trkpt lat="42.211" lon="0.837">
        <ele>1058.16</ele>
        <time>2021-08-01T14:44:35Z</time>
      </trkpt>
      <trkpt lat="42.21089" lon="0.83689">
        <ele>1059.37</ele>
        <time>2021-08-01T14:44:39Z</time>
      </trkpt>
      <trkpt lat="42.2109" lon="0.83682">
        <ele>1060.84</ele>
        <time>2021-08-01T14:44:44Z</time>
      </trkpt>
      <trkpt lat="42.21111" lon="0.8366">
        <ele>1061.89</ele>
        <time>2021-08-01T14:44:50Z</time>
      </trkpt>
      <trkpt lat="42.21119" lon="0.83648">
        <ele>1062.34</ele>
        <time>2021-08-01T14:44:52Z</time>
      </trkpt>
      <trkpt lat="42.21151" lon="0.83599">
        <ele>1065.89</ele>
        <time>2021-08-01T14:45:00Z</time>
      </trkpt>
      <trkpt lat="42.21172" lon="0.83576">
        <ele>1068.24</ele>
        <time>2021-08-01T14:45:04Z</time>
      </trkpt>
      <trkpt lat="42.212" lon="0.83556">
        <ele>1070.57</ele>
        <time>2021-08-01T14:45:08Z</time>
      </trkpt>
      <trkpt lat="42.21225" lon="0.83545">
        <ele>1072.81</ele>
        <time>2021-08-01T14:45:11Z</time>
      </trkpt>
      <trkpt lat="42.2125" lon="0.83539">
        <ele>1075.1</ele>
        <time>2021-08-01T14:45:14Z</time>
      </trkpt>
      <trkpt lat="42.21283" lon="0.8352">
        <ele>1079.38</ele>
        <time>2021-08-01T14:45:19Z</time>
      </trkpt>
      <trkpt lat="42.21298" lon="0.83557">
        <ele>1082.51</ele>
        <time>2021-08-01T14:45:24Z</time>
      </trkpt>
      <trkpt lat="42.213" lon="0.83591">
        <ele>1083.76</ele>
        <time>2021-08-01T14:45:27Z</time>
      </trkpt>
      <trkpt lat="42.21302" lon="0.83645">
        <ele>1086</ele>
        <time>2021-08-01T14:45:33Z</time>
      </trkpt>
      <trkpt lat="42.2132" lon="0.83653">
        <ele>1088.87</ele>
        <time>2021-08-01T14:45:39Z</time>
      </trkpt>
      <trkpt lat="42.21322" lon="0.83648">
        <ele>1089.26</ele>
        <time>2021-08-01T14:45:40Z</time>
      </trkpt>
      <trkpt lat="42.21337" lon="0.83617">
        <ele>1092.18</ele>
        <time>2021-08-01T14:45:47Z</time>
      </trkpt>
      <trkpt lat="42.21329" lon="0.8358">
        <ele>1095.93</ele>
        <time>2021-08-01T14:45:55Z</time>
      </trkpt>
      <trkpt lat="42.21327" lon="0.83575">
        <ele>1096.38</ele>
        <time>2021-08-01T14:45:56Z</time>
      </trkpt>
      <trkpt lat="42.21324" lon="0.83531">
        <ele>1099.86</ele>
        <time>2021-08-01T14:46:03Z</time>
      </trkpt>
      <trkpt lat="42.21325" lon="0.83496">
        <ele>1103.3</ele>
        <time>2021-08-01T14:46:09Z</time>
      </trkpt>
      <trkpt lat="42.21325" lon="0.83483">
        <ele>1104.58</ele>
        <time>2021-08-01T14:46:11Z</time>
      </trkpt>
      <trkpt lat="42.21319" lon="0.83449">
        <ele>1108.11</ele>
        <time>2021-08-01T14:46:17Z</time>
      </trkpt>
      <trkpt lat="42.21313" lon="0.83434">
        <ele>1111.35</ele>
        <time>2021-08-01T14:46:26Z</time>
      </trkpt>
      <trkpt lat="42.21309" lon="0.83428">
        <ele>1111.8</ele>
        <time>2021-08-01T14:46:28Z</time>
      </trkpt>
      <trkpt lat="42.2129" lon="0.83426">
        <ele>1112.84</ele>
        <time>2021-08-01T14:46:32Z</time>
      </trkpt>
      <trkpt lat="42.21246" lon="0.83449">
        <ele>1116.56</ele>
        <time>2021-08-01T14:46:41Z</time>
      </trkpt>
      <trkpt lat="42.21213" lon="0.83455">
        <ele>1119.76</ele>
        <time>2021-08-01T14:46:50Z</time>
      </trkpt>
      <trkpt lat="42.21201" lon="0.83452">
        <ele>1122.11</ele>
        <time>2021-08-01T14:46:59Z</time>
      </trkpt>
      <trkpt lat="42.21202" lon="0.83452">
        <ele>1123.54</ele>
        <time>2021-08-01T14:51:06Z</time>
      </trkpt>
      <trkpt lat="42.21214" lon="0.83441">
        <ele>1124.66</ele>
        <time>2021-08-01T14:51:13Z</time>
      </trkpt>
      <trkpt lat="42.21234" lon="0.83439">
        <ele>1125.5</ele>
        <time>2021-08-01T14:51:17Z</time>
      </trkpt>
      <trkpt lat="42.21365" lon="0.83401">
        <ele>1139.13</ele>
        <time>2021-08-01T14:51:49Z</time>
      </trkpt>
      <trkpt lat="42.2137" lon="0.83413">
        <ele>1138.93</ele>
        <time>2021-08-01T14:51:51Z</time>
      </trkpt>
      <trkpt lat="42.21404" lon="0.83441">
        <ele>1139.36</ele>
        <time>2021-08-01T14:51:58Z</time>
      </trkpt>
      <trkpt lat="42.21415" lon="0.83411">
        <ele>1140.44</ele>
        <time>2021-08-01T14:52:04Z</time>
      </trkpt>
      <trkpt lat="42.21393" lon="0.83384">
        <ele>1141.62</ele>
        <time>2021-08-01T14:52:08Z</time>
      </trkpt>
      <trkpt lat="42.21359" lon="0.8335">
        <ele>1143.08</ele>
        <time>2021-08-01T14:52:15Z</time>
      </trkpt>
      <trkpt lat="42.21342" lon="0.83321">
        <ele>1144.17</ele>
        <time>2021-08-01T14:52:20Z</time>
      </trkpt>
      <trkpt lat="42.2132" lon="0.83249">
        <ele>1147.74</ele>
        <time>2021-08-01T14:52:28Z</time>
      </trkpt>
      <trkpt lat="42.21308" lon="0.83204">
        <ele>1150.23</ele>
        <time>2021-08-01T14:52:32Z</time>
      </trkpt>
      <trkpt lat="42.21309" lon="0.83133">
        <ele>1154.32</ele>
        <time>2021-08-01T14:52:38Z</time>
      </trkpt>
      <trkpt lat="42.21318" lon="0.831">
        <ele>1156.34</ele>
        <time>2021-08-01T14:52:41Z</time>
      </trkpt>
      <trkpt lat="42.21348" lon="0.83056">
        <ele>1160.11</ele>
        <time>2021-08-01T14:52:48Z</time>
      </trkpt>
      <trkpt lat="42.21346" lon="0.83001">
        <ele>1162.03</ele>
        <time>2021-08-01T14:52:54Z</time>
      </trkpt>
      <trkpt lat="42.21327" lon="0.82929">
        <ele>1162.79</ele>
        <time>2021-08-01T14:53:01Z</time>
      </trkpt>
      <trkpt lat="42.21333" lon="0.82866">
        <ele>1162.48</ele>
        <time>2021-08-01T14:53:07Z</time>
      </trkpt>
      <trkpt lat="42.21382" lon="0.82725">
        <ele>1164.06</ele>
        <time>2021-08-01T14:53:20Z</time>
      </trkpt>
      <trkpt lat="42.2142" lon="0.82627">
        <ele>1167.07</ele>
        <time>2021-08-01T14:53:28Z</time>
      </trkpt>
      <trkpt lat="42.2143" lon="0.8259">
        <ele>1167.89</ele>
        <time>2021-08-01T14:53:31Z</time>
      </trkpt>
      <trkpt lat="42.2142" lon="0.82472">
        <ele>1168.65</ele>
        <time>2021-08-01T14:53:40Z</time>
      </trkpt>
      <trkpt lat="42.21414" lon="0.82449">
        <ele>1168.43</ele>
        <time>2021-08-01T14:53:42Z</time>
      </trkpt>
      <trkpt lat="42.2143" lon="0.82404">
        <ele>1167.73</ele>
        <time>2021-08-01T14:53:48Z</time>
      </trkpt>
      <trkpt lat="42.21467" lon="0.8234">
        <ele>1167.36</ele>
        <time>2021-08-01T14:53:56Z</time>
      </trkpt>
      <trkpt lat="42.2147" lon="0.82277">
        <ele>1169.34</ele>
        <time>2021-08-01T14:54:05Z</time>
      </trkpt>
      <trkpt lat="42.21467" lon="0.82262">
        <ele>1169.88</ele>
        <time>2021-08-01T14:54:07Z</time>
      </trkpt>
      <trkpt lat="42.21466" lon="0.8224">
        <ele>1170.92</ele>
        <time>2021-08-01T14:54:10Z</time>
      </trkpt>
      <trkpt lat="42.21483" lon="0.82192">
        <ele>1173.69</ele>
        <time>2021-08-01T14:54:18Z</time>
      </trkpt>
      <trkpt lat="42.21485" lon="0.82185">
        <ele>1174.01</ele>
        <time>2021-08-01T14:54:19Z</time>
      </trkpt>
      <trkpt lat="42.21489" lon="0.82171">
        <ele>1174.58</ele>
        <time>2021-08-01T14:54:21Z</time>
      </trkpt>
      <trkpt lat="42.21485" lon="0.82147">
        <ele>1175.37</ele>
        <time>2021-08-01T14:54:25Z</time>
      </trkpt>
      <trkpt lat="42.21473" lon="0.82114">
        <ele>1177.09</ele>
        <time>2021-08-01T14:54:30Z</time>
      </trkpt>
      <trkpt lat="42.21482" lon="0.82063">
        <ele>1179.94</ele>
        <time>2021-08-01T14:54:36Z</time>
      </trkpt>
      <trkpt lat="42.21506" lon="0.82008">
        <ele>1183.54</ele>
        <time>2021-08-01T14:54:43Z</time>
      </trkpt>
      <trkpt lat="42.21511" lon="0.81993">
        <ele>1184.81</ele>
        <time>2021-08-01T14:54:45Z</time>
      </trkpt>
      <trkpt lat="42.21503" lon="0.81972">
        <ele>1187.42</ele>
        <time>2021-08-01T14:54:50Z</time>
      </trkpt>
      <trkpt lat="42.21461" lon="0.81962">
        <ele>1190.3</ele>
        <time>2021-08-01T14:54:56Z</time>
      </trkpt>
      <trkpt lat="42.21443" lon="0.81953">
        <ele>1191.93</ele>
        <time>2021-08-01T14:54:59Z</time>
      </trkpt>
      <trkpt lat="42.2142" lon="0.81944">
        <ele>1194.13</ele>
        <time>2021-08-01T14:55:03Z</time>
      </trkpt>
      <trkpt lat="42.21397" lon="0.81926">
        <ele>1197.81</ele>
        <time>2021-08-01T14:55:10Z</time>
      </trkpt>
      <trkpt lat="42.21394" lon="0.81924">
        <ele>1198.28</ele>
        <time>2021-08-01T14:55:11Z</time>
      </trkpt>
      <trkpt lat="42.21371" lon="0.81905">
        <ele>1201.06</ele>
        <time>2021-08-01T14:55:17Z</time>
      </trkpt>
      <trkpt lat="42.21369" lon="0.81899">
        <ele>1201.37</ele>
        <time>2021-08-01T14:55:18Z</time>
      </trkpt>
      <trkpt lat="42.21375" lon="0.81869">
        <ele>1204.76</ele>
        <time>2021-08-01T14:55:26Z</time>
      </trkpt>
      <trkpt lat="42.21428" lon="0.81876">
        <ele>1207.85</ele>
        <time>2021-08-01T14:55:34Z</time>
      </trkpt>
      <trkpt lat="42.21483" lon="0.81864">
        <ele>1211.52</ele>
        <time>2021-08-01T14:55:43Z</time>
      </trkpt>
      <trkpt lat="42.21501" lon="0.81859">
        <ele>1213.07</ele>
        <time>2021-08-01T14:55:47Z</time>
      </trkpt>
      <trkpt lat="42.2152" lon="0.81838">
        <ele>1215.07</ele>
        <time>2021-08-01T14:55:53Z</time>
      </trkpt>
      <trkpt lat="42.21538" lon="0.8182">
        <ele>1217</ele>
        <time>2021-08-01T14:55:58Z</time>
      </trkpt>
      <trkpt lat="42.21553" lon="0.8178">
        <ele>1220.44</ele>
        <time>2021-08-01T14:56:06Z</time>
      </trkpt>
      <trkpt lat="42.21566" lon="0.81747">
        <ele>1223.58</ele>
        <time>2021-08-01T14:56:14Z</time>
      </trkpt>
      <trkpt lat="42.21582" lon="0.81703">
        <ele>1226.72</ele>
        <time>2021-08-01T14:56:24Z</time>
      </trkpt>
      <trkpt lat="42.21604" lon="0.81662">
        <ele>1229.92</ele>
        <time>2021-08-01T14:56:34Z</time>
      </trkpt>
      <trkpt lat="42.2161" lon="0.81608">
        <ele>1232.89</ele>
        <time>2021-08-01T14:56:43Z</time>
      </trkpt>
      <trkpt lat="42.21612" lon="0.8159">
        <ele>1234.03</ele>
        <time>2021-08-01T14:56:46Z</time>
      </trkpt>
      <trkpt lat="42.21627" lon="0.81576">
        <ele>1235.36</ele>
        <time>2021-08-01T14:56:51Z</time>
      </trkpt>
      <trkpt lat="42.21685" lon="0.81564">
        <ele>1237.97</ele>
        <time>2021-08-01T14:57:04Z</time>
      </trkpt>
      <trkpt lat="42.21712" lon="0.81538">
        <ele>1239.47</ele>
        <time>2021-08-01T14:57:13Z</time>
      </trkpt>
      <trkpt lat="42.21743" lon="0.81553">
        <ele>1240.7</ele>
        <time>2021-08-01T14:57:21Z</time>
      </trkpt>
      <trkpt lat="42.21747" lon="0.81569">
        <ele>1241</ele>
        <time>2021-08-01T14:57:23Z</time>
      </trkpt>
      <trkpt lat="42.21755" lon="0.8161">
        <ele>1241.36</ele>
        <time>2021-08-01T14:57:28Z</time>
      </trkpt>
      <trkpt lat="42.21774" lon="0.81685">
        <ele>1242.46</ele>
        <time>2021-08-01T14:57:38Z</time>
      </trkpt>
      <trkpt lat="42.21782" lon="0.81701">
        <ele>1242.88</ele>
        <time>2021-08-01T14:57:40Z</time>
      </trkpt>
      <trkpt lat="42.21843" lon="0.81768">
        <ele>1244.62</ele>
        <time>2021-08-01T14:57:53Z</time>
      </trkpt>
      <trkpt lat="42.21906" lon="0.81812">
        <ele>1247.91</ele>
        <time>2021-08-01T14:58:04Z</time>
      </trkpt>
      <trkpt lat="42.21923" lon="0.8182">
        <ele>1248.95</ele>
        <time>2021-08-01T14:58:07Z</time>
      </trkpt>
      <trkpt lat="42.2197" lon="0.81792">
        <ele>1251.1</ele>
        <time>2021-08-01T14:58:16Z</time>
      </trkpt>
      <trkpt lat="42.22014" lon="0.81733">
        <ele>1248.36</ele>
        <time>2021-08-01T14:58:28Z</time>
      </trkpt>
      <trkpt lat="42.22035" lon="0.81711">
        <ele>1247.02</ele>
        <time>2021-08-01T14:58:32Z</time>
      </trkpt>
      <trkpt lat="42.22059" lon="0.81664">
        <ele>1243.31</ele>
        <time>2021-08-01T14:58:41Z</time>
      </trkpt>
      <trkpt lat="42.22079" lon="0.81616">
        <ele>1241.11</ele>
        <time>2021-08-01T14:58:50Z</time>
      </trkpt>
      <trkpt lat="42.22082" lon="0.8157">
        <ele>1239.41</ele>
        <time>2021-08-01T14:58:57Z</time>
      </trkpt>
      <trkpt lat="42.22105" lon="0.81536">
        <ele>1237.71</ele>
        <time>2021-08-01T14:59:06Z</time>
      </trkpt>
      <trkpt lat="42.2211" lon="0.81537">
        <ele>1237.47</ele>
        <time>2021-08-01T14:59:07Z</time>
      </trkpt>
      <trkpt lat="42.2215" lon="0.81537">
        <ele>1235.15</ele>
        <time>2021-08-01T14:59:17Z</time>
      </trkpt>
      <trkpt lat="42.22221" lon="0.81563">
        <ele>1232</ele>
        <time>2021-08-01T14:59:30Z</time>
      </trkpt>
      <trkpt lat="42.22247" lon="0.81572">
        <ele>1230.88</ele>
        <time>2021-08-01T14:59:35Z</time>
      </trkpt>
      <trkpt lat="42.22263" lon="0.81568">
        <ele>1229.91</ele>
        <time>2021-08-01T14:59:39Z</time>
      </trkpt>
      <trkpt lat="42.22278" lon="0.81557">
        <ele>1229.32</ele>
        <time>2021-08-01T14:59:42Z</time>
      </trkpt>
      <trkpt lat="42.2232" lon="0.81564">
        <ele>1228.18</ele>
        <time>2021-08-01T14:59:50Z</time>
      </trkpt>
      <trkpt lat="42.22356" lon="0.81532">
        <ele>1227.05</ele>
        <time>2021-08-01T14:59:58Z</time>
      </trkpt>
      <trkpt lat="42.2237" lon="0.81534">
        <ele>1226.58</ele>
        <time>2021-08-01T15:00:01Z</time>
      </trkpt>
      <trkpt lat="42.2241" lon="0.8155">
        <ele>1225.39</ele>
        <time>2021-08-01T15:00:11Z</time>
      </trkpt>
      <trkpt lat="42.22412" lon="0.8153">
        <ele>1224.65</ele>
        <time>2021-08-01T15:00:16Z</time>
      </trkpt>
      <trkpt lat="42.22403" lon="0.81503">
        <ele>1224.42</ele>
        <time>2021-08-01T15:00:20Z</time>
      </trkpt>
      <trkpt lat="42.22404" lon="0.81465">
        <ele>1224.68</ele>
        <time>2021-08-01T15:00:25Z</time>
      </trkpt>
      <trkpt lat="42.22424" lon="0.81411">
        <ele>1224.63</ele>
        <time>2021-08-01T15:00:35Z</time>
      </trkpt>
      <trkpt lat="42.22409" lon="0.81393">
        <ele>1224.7</ele>
        <time>2021-08-01T15:00:42Z</time>
      </trkpt>
      <trkpt lat="42.2239" lon="0.81398">
        <ele>1225.44</ele>
        <time>2021-08-01T15:00:53Z</time>
      </trkpt>
      <trkpt lat="42.22382" lon="0.81404">
        <ele>1225.82</ele>
        <time>2021-08-01T15:00:56Z</time>
      </trkpt>
      <trkpt lat="42.22353" lon="0.81392">
        <ele>1227.06</ele>
        <time>2021-08-01T15:01:02Z</time>
      </trkpt>
      <trkpt lat="42.22345" lon="0.81384">
        <ele>1227.48</ele>
        <time>2021-08-01T15:01:04Z</time>
      </trkpt>
      <trkpt lat="42.22323" lon="0.8137">
        <ele>1228.7</ele>
        <time>2021-08-01T15:01:10Z</time>
      </trkpt>
      <trkpt lat="42.22318" lon="0.81334">
        <ele>1229.98</ele>
        <time>2021-08-01T15:01:17Z</time>
      </trkpt>
      <trkpt lat="42.2233" lon="0.81305">
        <ele>1230.64</ele>
        <time>2021-08-01T15:01:22Z</time>
      </trkpt>
      <trkpt lat="42.22319" lon="0.81263">
        <ele>1231.61</ele>
        <time>2021-08-01T15:01:30Z</time>
      </trkpt>
      <trkpt lat="42.22314" lon="0.81262">
        <ele>1231.75</ele>
        <time>2021-08-01T15:01:31Z</time>
      </trkpt>
      <trkpt lat="42.22282" lon="0.81255">
        <ele>1232.93</ele>
        <time>2021-08-01T15:01:38Z</time>
      </trkpt>
      <trkpt lat="42.2226" lon="0.81226">
        <ele>1234.12</ele>
        <time>2021-08-01T15:01:45Z</time>
      </trkpt>
      <trkpt lat="42.22252" lon="0.81204">
        <ele>1234.81</ele>
        <time>2021-08-01T15:01:49Z</time>
      </trkpt>
      <trkpt lat="42.2226" lon="0.81161">
        <ele>1236.47</ele>
        <time>2021-08-01T15:01:56Z</time>
      </trkpt>
      <trkpt lat="42.223" lon="0.81085">
        <ele>1238.43</ele>
        <time>2021-08-01T15:02:07Z</time>
      </trkpt>
      <trkpt lat="42.22321" lon="0.81039">
        <ele>1239.32</ele>
        <time>2021-08-01T15:02:16Z</time>
      </trkpt>
      <trkpt lat="42.22295" lon="0.81002">
        <ele>1239.88</ele>
        <time>2021-08-01T15:02:22Z</time>
      </trkpt>
      <trkpt lat="42.22235" lon="0.80976">
        <ele>1241.32</ele>
        <time>2021-08-01T15:02:34Z</time>
      </trkpt>
      <trkpt lat="42.22225" lon="0.8097">
        <ele>1241.71</ele>
        <time>2021-08-01T15:02:36Z</time>
      </trkpt>
      <trkpt lat="42.22206" lon="0.80954">
        <ele>1242.77</ele>
        <time>2021-08-01T15:02:40Z</time>
      </trkpt>
      <trkpt lat="42.22184" lon="0.80924">
        <ele>1244.1</ele>
        <time>2021-08-01T15:02:45Z</time>
      </trkpt>
      <trkpt lat="42.22154" lon="0.80907">
        <ele>1244.9</ele>
        <time>2021-08-01T15:02:50Z</time>
      </trkpt>
      <trkpt lat="42.22131" lon="0.80902">
        <ele>1245.4</ele>
        <time>2021-08-01T15:02:55Z</time>
      </trkpt>
      <trkpt lat="42.22118" lon="0.80868">
        <ele>1246.32</ele>
        <time>2021-08-01T15:03:02Z</time>
      </trkpt>
      <trkpt lat="42.22152" lon="0.8078">
        <ele>1245.98</ele>
        <time>2021-08-01T15:03:15Z</time>
      </trkpt>
      <trkpt lat="42.22154" lon="0.80774">
        <ele>1245.85</ele>
        <time>2021-08-01T15:03:16Z</time>
      </trkpt>
      <trkpt lat="42.22157" lon="0.80756">
        <ele>1245.34</ele>
        <time>2021-08-01T15:03:19Z</time>
      </trkpt>
      <trkpt lat="42.22151" lon="0.80661">
        <ele>1242.26</ele>
        <time>2021-08-01T15:03:31Z</time>
      </trkpt>
      <trkpt lat="42.22149" lon="0.80589">
        <ele>1240.66</ele>
        <time>2021-08-01T15:03:38Z</time>
      </trkpt>
      <trkpt lat="42.22146" lon="0.80582">
        <ele>1240.72</ele>
        <time>2021-08-01T15:03:39Z</time>
      </trkpt>
      <trkpt lat="42.22142" lon="0.80576">
        <ele>1240.8</ele>
        <time>2021-08-01T15:03:40Z</time>
      </trkpt>
      <trkpt lat="42.22137" lon="0.80571">
        <ele>1240.89</ele>
        <time>2021-08-01T15:03:41Z</time>
      </trkpt>
      <trkpt lat="42.2213" lon="0.80565">
        <ele>1241.02</ele>
        <time>2021-08-01T15:03:42Z</time>
      </trkpt>
      <trkpt lat="42.22082" lon="0.80512">
        <ele>1241.69</ele>
        <time>2021-08-01T15:03:49Z</time>
      </trkpt>
      <trkpt lat="42.22077" lon="0.80503">
        <ele>1241.7</ele>
        <time>2021-08-01T15:03:50Z</time>
      </trkpt>
      <trkpt lat="42.22038" lon="0.8044">
        <ele>1242.02</ele>
        <time>2021-08-01T15:03:58Z</time>
      </trkpt>
      <trkpt lat="42.2203" lon="0.80409">
        <ele>1242.28</ele>
        <time>2021-08-01T15:04:01Z</time>
      </trkpt>
      <trkpt lat="42.22032" lon="0.80312">
        <ele>1243.28</ele>
        <time>2021-08-01T15:04:09Z</time>
      </trkpt>
      <trkpt lat="42.22046" lon="0.80283">
        <ele>1243.45</ele>
        <time>2021-08-01T15:04:13Z</time>
      </trkpt>
      <trkpt lat="42.22046" lon="0.80249">
        <ele>1242.99</ele>
        <time>2021-08-01T15:04:18Z</time>
      </trkpt>
      <trkpt lat="42.22015" lon="0.80172">
        <ele>1239.63</ele>
        <time>2021-08-01T15:04:27Z</time>
      </trkpt>
      <trkpt lat="42.21997" lon="0.8013">
        <ele>1236.48</ele>
        <time>2021-08-01T15:04:33Z</time>
      </trkpt>
      <trkpt lat="42.21989" lon="0.80117">
        <ele>1235.62</ele>
        <time>2021-08-01T15:04:35Z</time>
      </trkpt>
      <trkpt lat="42.21943" lon="0.80065">
        <ele>1231.59</ele>
        <time>2021-08-01T15:04:43Z</time>
      </trkpt>
      <trkpt lat="42.21916" lon="0.8003">
        <ele>1228.42</ele>
        <time>2021-08-01T15:04:48Z</time>
      </trkpt>
      <trkpt lat="42.21903" lon="0.80008">
        <ele>1226.36</ele>
        <time>2021-08-01T15:04:51Z</time>
      </trkpt>
      <trkpt lat="42.21894" lon="0.79999">
        <ele>1225.21</ele>
        <time>2021-08-01T15:04:53Z</time>
      </trkpt>
      <trkpt lat="42.21901" lon="0.79982">
        <ele>1221.75</ele>
        <time>2021-08-01T15:04:59Z</time>
      </trkpt>
      <trkpt lat="42.21937" lon="0.80006">
        <ele>1218.36</ele>
        <time>2021-08-01T15:05:06Z</time>
      </trkpt>
      <trkpt lat="42.2198" lon="0.79992">
        <ele>1215.23</ele>
        <time>2021-08-01T15:05:12Z</time>
      </trkpt>
      <trkpt lat="42.22002" lon="0.80009">
        <ele>1212.47</ele>
        <time>2021-08-01T15:05:16Z</time>
      </trkpt>
      <trkpt lat="42.22036" lon="0.80059">
        <ele>1208.76</ele>
        <time>2021-08-01T15:05:23Z</time>
      </trkpt>
      <trkpt lat="42.22072" lon="0.8009">
        <ele>1205.72</ele>
        <time>2021-08-01T15:05:29Z</time>
      </trkpt>
      <trkpt lat="42.22099" lon="0.80072">
        <ele>1202.98</ele>
        <time>2021-08-01T15:05:35Z</time>
      </trkpt>
      <trkpt lat="42.22106" lon="0.80002">
        <ele>1199.28</ele>
        <time>2021-08-01T15:05:42Z</time>
      </trkpt>
      <trkpt lat="42.22114" lon="0.79976">
        <ele>1197.8</ele>
        <time>2021-08-01T15:05:45Z</time>
      </trkpt>
      <trkpt lat="42.22126" lon="0.79957">
        <ele>1195.87</ele>
        <time>2021-08-01T15:05:48Z</time>
      </trkpt>
      <trkpt lat="42.22167" lon="0.7995">
        <ele>1191.75</ele>
        <time>2021-08-01T15:05:55Z</time>
      </trkpt>
      <trkpt lat="42.22191" lon="0.79935">
        <ele>1189.31</ele>
        <time>2021-08-01T15:06:00Z</time>
      </trkpt>
      <trkpt lat="42.2222" lon="0.79879">
        <ele>1186.15</ele>
        <time>2021-08-01T15:06:07Z</time>
      </trkpt>
      <trkpt lat="42.22231" lon="0.79835">
        <ele>1184.43</ele>
        <time>2021-08-01T15:06:11Z</time>
      </trkpt>
      <trkpt lat="42.22256" lon="0.79776">
        <ele>1182.09</ele>
        <time>2021-08-01T15:06:17Z</time>
      </trkpt>
      <trkpt lat="42.22278" lon="0.79735">
        <ele>1181.73</ele>
        <time>2021-08-01T15:06:21Z</time>
      </trkpt>
      <trkpt lat="42.22305" lon="0.79639">
        <ele>1182.48</ele>
        <time>2021-08-01T15:06:29Z</time>
      </trkpt>
      <trkpt lat="42.22317" lon="0.79574">
        <ele>1183.03</ele>
        <time>2021-08-01T15:06:33Z</time>
      </trkpt>
      <trkpt lat="42.2232" lon="0.79515">
        <ele>1184.22</ele>
        <time>2021-08-01T15:06:37Z</time>
      </trkpt>
      <trkpt lat="42.22319" lon="0.79484">
        <ele>1184.74</ele>
        <time>2021-08-01T15:06:39Z</time>
      </trkpt>
      <trkpt lat="42.2233" lon="0.79423">
        <ele>1185.27</ele>
        <time>2021-08-01T15:06:43Z</time>
      </trkpt>
      <trkpt lat="42.2236" lon="0.79328">
        <ele>1185.48</ele>
        <time>2021-08-01T15:06:50Z</time>
      </trkpt>
      <trkpt lat="42.22431" lon="0.79286">
        <ele>1184.75</ele>
        <time>2021-08-01T15:06:59Z</time>
      </trkpt>
      <trkpt lat="42.22436" lon="0.79243">
        <ele>1183.99</ele>
        <time>2021-08-01T15:07:05Z</time>
      </trkpt>
      <trkpt lat="42.22429" lon="0.79233">
        <ele>1183.77</ele>
        <time>2021-08-01T15:07:06Z</time>
      </trkpt>
      <trkpt lat="42.22401" lon="0.79169">
        <ele>1181.21</ele>
        <time>2021-08-01T15:07:12Z</time>
      </trkpt>
      <trkpt lat="42.22385" lon="0.79092">
        <ele>1177.09</ele>
        <time>2021-08-01T15:07:19Z</time>
      </trkpt>
      <trkpt lat="42.22384" lon="0.79069">
        <ele>1175.83</ele>
        <time>2021-08-01T15:07:21Z</time>
      </trkpt>
      <trkpt lat="42.22416" lon="0.79027">
        <ele>1172.24</ele>
        <time>2021-08-01T15:07:27Z</time>
      </trkpt>
      <trkpt lat="42.22471" lon="0.79021">
        <ele>1168.11</ele>
        <time>2021-08-01T15:07:33Z</time>
      </trkpt>
      <trkpt lat="42.22494" lon="0.79012">
        <ele>1165.95</ele>
        <time>2021-08-01T15:07:36Z</time>
      </trkpt>
      <trkpt lat="42.22507" lon="0.78997">
        <ele>1163.23</ele>
        <time>2021-08-01T15:07:40Z</time>
      </trkpt>
      <trkpt lat="42.22512" lon="0.7899">
        <ele>1161.42</ele>
        <time>2021-08-01T15:07:43Z</time>
      </trkpt>
      <trkpt lat="42.22514" lon="0.79013">
        <ele>1158.3</ele>
        <time>2021-08-01T15:07:49Z</time>
      </trkpt>
      <trkpt lat="42.22483" lon="0.79046">
        <ele>1156.39</ele>
        <time>2021-08-01T15:07:54Z</time>
      </trkpt>
      <trkpt lat="42.22444" lon="0.79069">
        <ele>1154.29</ele>
        <time>2021-08-01T15:07:59Z</time>
      </trkpt>
      <trkpt lat="42.22436" lon="0.79099">
        <ele>1151.19</ele>
        <time>2021-08-01T15:08:04Z</time>
      </trkpt>
      <trkpt lat="42.22454" lon="0.79138">
        <ele>1148.48</ele>
        <time>2021-08-01T15:08:09Z</time>
      </trkpt>
      <trkpt lat="42.22475" lon="0.79159">
        <ele>1146.07</ele>
        <time>2021-08-01T15:08:13Z</time>
      </trkpt>
      <trkpt lat="42.22518" lon="0.79187">
        <ele>1141.46</ele>
        <time>2021-08-01T15:08:20Z</time>
      </trkpt>
      <trkpt lat="42.2254" lon="0.7922">
        <ele>1138.08</ele>
        <time>2021-08-01T15:08:25Z</time>
      </trkpt>
      <trkpt lat="42.22567" lon="0.7923">
        <ele>1135.64</ele>
        <time>2021-08-01T15:08:29Z</time>
      </trkpt>
      <trkpt lat="42.22597" lon="0.79228">
        <ele>1133.21</ele>
        <time>2021-08-01T15:08:33Z</time>
      </trkpt>
      <trkpt lat="42.2261" lon="0.79215">
        <ele>1129.38</ele>
        <time>2021-08-01T15:08:39Z</time>
      </trkpt>
      <trkpt lat="42.22607" lon="0.79214">
        <ele>1128.68</ele>
        <time>2021-08-01T15:08:40Z</time>
      </trkpt>
      <trkpt lat="42.22577" lon="0.79207">
        <ele>1126.03</ele>
        <time>2021-08-01T15:08:45Z</time>
      </trkpt>
      <trkpt lat="42.22556" lon="0.79181">
        <ele>1124.62</ele>
        <time>2021-08-01T15:08:49Z</time>
      </trkpt>
      <trkpt lat="42.22549" lon="0.79163">
        <ele>1123.65</ele>
        <time>2021-08-01T15:08:51Z</time>
      </trkpt>
      <trkpt lat="42.22542" lon="0.79147">
        <ele>1122.9</ele>
        <time>2021-08-01T15:08:53Z</time>
      </trkpt>
      <trkpt lat="42.22558" lon="0.7911">
        <ele>1119.72</ele>
        <time>2021-08-01T15:08:59Z</time>
      </trkpt>
      <trkpt lat="42.22582" lon="0.79102">
        <ele>1118.03</ele>
        <time>2021-08-01T15:09:02Z</time>
      </trkpt>
      <trkpt lat="42.22612" lon="0.7908">
        <ele>1115.76</ele>
        <time>2021-08-01T15:09:06Z</time>
      </trkpt>
      <trkpt lat="42.22638" lon="0.7906">
        <ele>1111.91</ele>
        <time>2021-08-01T15:09:12Z</time>
      </trkpt>
      <trkpt lat="42.22636" lon="0.7907">
        <ele>1110.44</ele>
        <time>2021-08-01T15:09:14Z</time>
      </trkpt>
      <trkpt lat="42.22628" lon="0.79084">
        <ele>1109.2</ele>
        <time>2021-08-01T15:09:16Z</time>
      </trkpt>
      <trkpt lat="42.22605" lon="0.7913">
        <ele>1105.67</ele>
        <time>2021-08-01T15:09:23Z</time>
      </trkpt>
      <trkpt lat="42.22639" lon="0.79144">
        <ele>1103.5</ele>
        <time>2021-08-01T15:09:28Z</time>
      </trkpt>
      <trkpt lat="42.2272" lon="0.79132">
        <ele>1099.88</ele>
        <time>2021-08-01T15:09:36Z</time>
      </trkpt>
      <trkpt lat="42.2277" lon="0.79111">
        <ele>1096.23</ele>
        <time>2021-08-01T15:09:41Z</time>
      </trkpt>
      <trkpt lat="42.22797" lon="0.79096">
        <ele>1093.76</ele>
        <time>2021-08-01T15:09:44Z</time>
      </trkpt>
      <trkpt lat="42.22827" lon="0.79065">
        <ele>1089.77</ele>
        <time>2021-08-01T15:09:49Z</time>
      </trkpt>
      <trkpt lat="42.22856" lon="0.79022">
        <ele>1086.13</ele>
        <time>2021-08-01T15:09:54Z</time>
      </trkpt>
      <trkpt lat="42.22889" lon="0.7899">
        <ele>1083.01</ele>
        <time>2021-08-01T15:09:58Z</time>
      </trkpt>
      <trkpt lat="42.22898" lon="0.78984">
        <ele>1082.39</ele>
        <time>2021-08-01T15:09:59Z</time>
      </trkpt>
      <trkpt lat="42.22952" lon="0.78966">
        <ele>1078.41</ele>
        <time>2021-08-01T15:10:05Z</time>
      </trkpt>
      <trkpt lat="42.22973" lon="0.78957">
        <ele>1076.5</ele>
        <time>2021-08-01T15:10:08Z</time>
      </trkpt>
      <trkpt lat="42.22986" lon="0.78922">
        <ele>1072.64</ele>
        <time>2021-08-01T15:10:13Z</time>
      </trkpt>
      <trkpt lat="42.22984" lon="0.78908">
        <ele>1072.08</ele>
        <time>2021-08-01T15:10:14Z</time>
      </trkpt>
      <trkpt lat="42.22982" lon="0.78852">
        <ele>1070.36</ele>
        <time>2021-08-01T15:10:18Z</time>
      </trkpt>
      <trkpt lat="42.23022" lon="0.78778">
        <ele>1066.25</ele>
        <time>2021-08-01T15:10:25Z</time>
      </trkpt>
      <trkpt lat="42.23047" lon="0.78765">
        <ele>1063.09</ele>
        <time>2021-08-01T15:10:29Z</time>
      </trkpt>
      <trkpt lat="42.23064" lon="0.78741">
        <ele>1059.66</ele>
        <time>2021-08-01T15:10:33Z</time>
      </trkpt>
      <trkpt lat="42.23088" lon="0.78691">
        <ele>1056.8</ele>
        <time>2021-08-01T15:10:38Z</time>
      </trkpt>
      <trkpt lat="42.23124" lon="0.78658">
        <ele>1053.66</ele>
        <time>2021-08-01T15:10:43Z</time>
      </trkpt>
      <trkpt lat="42.23163" lon="0.78632">
        <ele>1048.68</ele>
        <time>2021-08-01T15:10:49Z</time>
      </trkpt>
      <trkpt lat="42.23174" lon="0.78621">
        <ele>1047.1</ele>
        <time>2021-08-01T15:10:51Z</time>
      </trkpt>
      <trkpt lat="42.23182" lon="0.7861">
        <ele>1045.64</ele>
        <time>2021-08-01T15:10:53Z</time>
      </trkpt>
      <trkpt lat="42.23193" lon="0.78623">
        <ele>1041.78</ele>
        <time>2021-08-01T15:10:58Z</time>
      </trkpt>
      <trkpt lat="42.23185" lon="0.78639">
        <ele>1040.61</ele>
        <time>2021-08-01T15:11:00Z</time>
      </trkpt>
      <trkpt lat="42.23166" lon="0.78681">
        <ele>1038.03</ele>
        <time>2021-08-01T15:11:04Z</time>
      </trkpt>
      <trkpt lat="42.23125" lon="0.78711">
        <ele>1034.11</ele>
        <time>2021-08-01T15:11:10Z</time>
      </trkpt>
      <trkpt lat="42.23116" lon="0.7876">
        <ele>1031.11</ele>
        <time>2021-08-01T15:11:15Z</time>
      </trkpt>
      <trkpt lat="42.23129" lon="0.78818">
        <ele>1026.46</ele>
        <time>2021-08-01T15:11:22Z</time>
      </trkpt>
      <trkpt lat="42.23113" lon="0.78853">
        <ele>1022.83</ele>
        <time>2021-08-01T15:11:28Z</time>
      </trkpt>
      <trkpt lat="42.23083" lon="0.78871">
        <ele>1020.11</ele>
        <time>2021-08-01T15:11:33Z</time>
      </trkpt>
      <trkpt lat="42.2308" lon="0.78899">
        <ele>1017.42</ele>
        <time>2021-08-01T15:11:38Z</time>
      </trkpt>
      <trkpt lat="42.23096" lon="0.78931">
        <ele>1015.45</ele>
        <time>2021-08-01T15:11:42Z</time>
      </trkpt>
      <trkpt lat="42.23138" lon="0.78985">
        <ele>1011.54</ele>
        <time>2021-08-01T15:11:49Z</time>
      </trkpt>
      <trkpt lat="42.23174" lon="0.79022">
        <ele>1008.23</ele>
        <time>2021-08-01T15:11:54Z</time>
      </trkpt>
      <trkpt lat="42.2321" lon="0.79058">
        <ele>1004.69</ele>
        <time>2021-08-01T15:11:59Z</time>
      </trkpt>
      <trkpt lat="42.2325" lon="0.79083">
        <ele>1001.02</ele>
        <time>2021-08-01T15:12:04Z</time>
      </trkpt>
      <trkpt lat="42.23281" lon="0.79099">
        <ele>998.14</ele>
        <time>2021-08-01T15:12:08Z</time>
      </trkpt>
      <trkpt lat="42.23307" lon="0.79139">
        <ele>993.88</ele>
        <time>2021-08-01T15:12:14Z</time>
      </trkpt>
      <trkpt lat="42.23305" lon="0.79158">
        <ele>992.5</ele>
        <time>2021-08-01T15:12:16Z</time>
      </trkpt>
      <trkpt lat="42.23306" lon="0.79216">
        <ele>988.96</ele>
        <time>2021-08-01T15:12:22Z</time>
      </trkpt>
      <trkpt lat="42.23305" lon="0.79247">
        <ele>987.12</ele>
        <time>2021-08-01T15:12:25Z</time>
      </trkpt>
      <trkpt lat="42.23284" lon="0.79299">
        <ele>983.52</ele>
        <time>2021-08-01T15:12:31Z</time>
      </trkpt>
      <trkpt lat="42.23264" lon="0.7931">
        <ele>981.57</ele>
        <time>2021-08-01T15:12:34Z</time>
      </trkpt>
      <trkpt lat="42.23228" lon="0.79329">
        <ele>978.72</ele>
        <time>2021-08-01T15:12:39Z</time>
      </trkpt>
      <trkpt lat="42.23176" lon="0.79333">
        <ele>974.98</ele>
        <time>2021-08-01T15:12:45Z</time>
      </trkpt>
      <trkpt lat="42.23155" lon="0.79334">
        <ele>970.29</ele>
        <time>2021-08-01T15:12:52Z</time>
      </trkpt>
      <trkpt lat="42.23118" lon="0.79347">
        <ele>967.14</ele>
        <time>2021-08-01T15:12:59Z</time>
      </trkpt>
      <trkpt lat="42.23093" lon="0.79354">
        <ele>965.57</ele>
        <time>2021-08-01T15:13:03Z</time>
      </trkpt>
      <trkpt lat="42.23092" lon="0.79383">
        <ele>962.74</ele>
        <time>2021-08-01T15:13:09Z</time>
      </trkpt>
      <trkpt lat="42.231" lon="0.79388">
        <ele>962.25</ele>
        <time>2021-08-01T15:13:10Z</time>
      </trkpt>
      <trkpt lat="42.23134" lon="0.79424">
        <ele>959.72</ele>
        <time>2021-08-01T15:13:16Z</time>
      </trkpt>
      <trkpt lat="42.23138" lon="0.79438">
        <ele>957.92</ele>
        <time>2021-08-01T15:13:19Z</time>
      </trkpt>
      <trkpt lat="42.23118" lon="0.79498">
        <ele>955.06</ele>
        <time>2021-08-01T15:13:26Z</time>
      </trkpt>
      <trkpt lat="42.2311" lon="0.7952">
        <ele>954.19</ele>
        <time>2021-08-01T15:13:28Z</time>
      </trkpt>
      <trkpt lat="42.23105" lon="0.79542">
        <ele>953.3</ele>
        <time>2021-08-01T15:13:30Z</time>
      </trkpt>
      <trkpt lat="42.23088" lon="0.79575">
        <ele>950.38</ele>
        <time>2021-08-01T15:13:34Z</time>
      </trkpt>
      <trkpt lat="42.23084" lon="0.79602">
        <ele>947.08</ele>
        <time>2021-08-01T15:13:43Z</time>
      </trkpt>
      <trkpt lat="42.23088" lon="0.79598">
        <ele>946.97</ele>
        <time>2021-08-01T15:13:44Z</time>
      </trkpt>
      <trkpt lat="42.23129" lon="0.7956">
        <ele>946.45</ele>
        <time>2021-08-01T15:13:51Z</time>
      </trkpt>
      <trkpt lat="42.23152" lon="0.79548">
        <ele>947.16</ele>
        <time>2021-08-01T15:13:55Z</time>
      </trkpt>
      <trkpt lat="42.23184" lon="0.7954">
        <ele>948.36</ele>
        <time>2021-08-01T15:13:59Z</time>
      </trkpt>
      <trkpt lat="42.23257" lon="0.79538">
        <ele>950.46</ele>
        <time>2021-08-01T15:14:08Z</time>
      </trkpt>
      <trkpt lat="42.23326" lon="0.79561">
        <ele>953.06</ele>
        <time>2021-08-01T15:14:17Z</time>
      </trkpt>
      <trkpt lat="42.23341" lon="0.79584">
        <ele>954.14</ele>
        <time>2021-08-01T15:14:21Z</time>
      </trkpt>
      <trkpt lat="42.2336" lon="0.796">
        <ele>955.06</ele>
        <time>2021-08-01T15:14:27Z</time>
      </trkpt>
      <trkpt lat="42.23387" lon="0.79576">
        <ele>955.91</ele>
        <time>2021-08-01T15:14:33Z</time>
      </trkpt>
      <trkpt lat="42.23405" lon="0.79588">
        <ele>956.36</ele>
        <time>2021-08-01T15:14:39Z</time>
      </trkpt>
      <trkpt lat="42.23403" lon="0.79653">
        <ele>956.35</ele>
        <time>2021-08-01T15:14:45Z</time>
      </trkpt>
      <trkpt lat="42.23416" lon="0.79809">
        <ele>954.34</ele>
        <time>2021-08-01T15:14:56Z</time>
      </trkpt>
      <trkpt lat="42.23422" lon="0.79849">
        <ele>953.38</ele>
        <time>2021-08-01T15:14:59Z</time>
      </trkpt>
      <trkpt lat="42.23452" lon="0.79892">
        <ele>950.78</ele>
        <time>2021-08-01T15:15:04Z</time>
      </trkpt>
      <trkpt lat="42.23474" lon="0.79908">
        <ele>948.85</ele>
        <time>2021-08-01T15:15:07Z</time>
      </trkpt>
      <trkpt lat="42.2349" lon="0.79898">
        <ele>946.54</ele>
        <time>2021-08-01T15:15:10Z</time>
      </trkpt>
      <trkpt lat="42.23491" lon="0.79891">
        <ele>946.05</ele>
        <time>2021-08-01T15:15:11Z</time>
      </trkpt>
      <trkpt lat="42.2349" lon="0.79882">
        <ele>945.58</ele>
        <time>2021-08-01T15:15:12Z</time>
      </trkpt>
      <trkpt lat="42.23489" lon="0.79872">
        <ele>945.18</ele>
        <time>2021-08-01T15:15:13Z</time>
      </trkpt>
      <trkpt lat="42.23487" lon="0.79862">
        <ele>944.88</ele>
        <time>2021-08-01T15:15:14Z</time>
      </trkpt>
      <trkpt lat="42.23485" lon="0.79841">
        <ele>944.48</ele>
        <time>2021-08-01T15:15:16Z</time>
      </trkpt>
      <trkpt lat="42.23487" lon="0.7983">
        <ele>944.27</ele>
        <time>2021-08-01T15:15:17Z</time>
      </trkpt>
      <trkpt lat="42.2349" lon="0.79819">
        <ele>943.98</ele>
        <time>2021-08-01T15:15:18Z</time>
      </trkpt>
      <trkpt lat="42.23501" lon="0.79789">
        <ele>942.96</ele>
        <time>2021-08-01T15:15:21Z</time>
      </trkpt>
      <trkpt lat="42.23506" lon="0.79783">
        <ele>942.53</ele>
        <time>2021-08-01T15:15:22Z</time>
      </trkpt>
      <trkpt lat="42.23511" lon="0.79771">
        <ele>941.51</ele>
        <time>2021-08-01T15:15:24Z</time>
      </trkpt>
      <trkpt lat="42.23506" lon="0.79695">
        <ele>938.26</ele>
        <time>2021-08-01T15:15:32Z</time>
      </trkpt>
      <trkpt lat="42.23506" lon="0.79618">
        <ele>935.98</ele>
        <time>2021-08-01T15:15:38Z</time>
      </trkpt>
      <trkpt lat="42.23536" lon="0.79566">
        <ele>932.93</ele>
        <time>2021-08-01T15:15:45Z</time>
      </trkpt>
      <trkpt lat="42.23544" lon="0.79524">
        <ele>930.42</ele>
        <time>2021-08-01T15:15:50Z</time>
      </trkpt>
      <trkpt lat="42.23537" lon="0.79473">
        <ele>927.9</ele>
        <time>2021-08-01T15:15:57Z</time>
      </trkpt>
      <trkpt lat="42.23547" lon="0.794">
        <ele>926.8</ele>
        <time>2021-08-01T15:16:03Z</time>
      </trkpt>
      <trkpt lat="42.2355" lon="0.79361">
        <ele>926.29</ele>
        <time>2021-08-01T15:16:06Z</time>
      </trkpt>
      <trkpt lat="42.2355" lon="0.79337">
        <ele>925.72</ele>
        <time>2021-08-01T15:16:08Z</time>
      </trkpt>
      <trkpt lat="42.23569" lon="0.79259">
        <ele>924.79</ele>
        <time>2021-08-01T15:16:15Z</time>
      </trkpt>
      <trkpt lat="42.23592" lon="0.79238">
        <ele>924.66</ele>
        <time>2021-08-01T15:16:19Z</time>
      </trkpt>
      <trkpt lat="42.23657" lon="0.79221">
        <ele>923.95</ele>
        <time>2021-08-01T15:16:26Z</time>
      </trkpt>
      <trkpt lat="42.237" lon="0.79196">
        <ele>921.75</ele>
        <time>2021-08-01T15:16:33Z</time>
      </trkpt>
      <trkpt lat="42.2376" lon="0.7908">
        <ele>918.32</ele>
        <time>2021-08-01T15:16:46Z</time>
      </trkpt>
      <trkpt lat="42.23769" lon="0.79068">
        <ele>917.28</ele>
        <time>2021-08-01T15:16:48Z</time>
      </trkpt>
      <trkpt lat="42.23784" lon="0.79059">
        <ele>916.24</ele>
        <time>2021-08-01T15:16:52Z</time>
      </trkpt>
      <trkpt lat="42.2381" lon="0.7906">
        <ele>913.48</ele>
        <time>2021-08-01T15:17:01Z</time>
      </trkpt>
      <trkpt lat="42.23853" lon="0.79093">
        <ele>910.34</ele>
        <time>2021-08-01T15:17:13Z</time>
      </trkpt>
      <trkpt lat="42.23871" lon="0.79101">
        <ele>907.99</ele>
        <time>2021-08-01T15:17:25Z</time>
      </trkpt>
      <trkpt lat="42.2389" lon="0.79104">
        <ele>906.51</ele>
        <time>2021-08-01T15:17:32Z</time>
      </trkpt>
      <trkpt lat="42.23889" lon="0.79064">
        <ele>904.43</ele>
        <time>2021-08-01T15:17:44Z</time>
      </trkpt>
      <trkpt lat="42.23885" lon="0.78988">
        <ele>903.07</ele>
        <time>2021-08-01T15:17:53Z</time>
      </trkpt>
      <trkpt lat="42.23885" lon="0.7897">
        <ele>902.39</ele>
        <time>2021-08-01T15:17:55Z</time>
      </trkpt>
      <trkpt lat="42.23906" lon="0.78918">
        <ele>899.91</ele>
        <time>2021-08-01T15:18:02Z</time>
      </trkpt>
      <trkpt lat="42.23999" lon="0.78831">
        <ele>899.93</ele>
        <time>2021-08-01T15:18:17Z</time>
      </trkpt>
      <trkpt lat="42.24057" lon="0.78764">
        <ele>902.53</ele>
        <time>2021-08-01T15:18:30Z</time>
      </trkpt>
      <trkpt lat="42.24071" lon="0.78755">
        <ele>904.03</ele>
        <time>2021-08-01T15:18:35Z</time>
      </trkpt>
      <trkpt lat="42.24098" lon="0.78752">
        <ele>905.3</ele>
        <time>2021-08-01T15:18:41Z</time>
      </trkpt>
      <trkpt lat="42.24128" lon="0.78723">
        <ele>905.82</ele>
        <time>2021-08-01T15:18:48Z</time>
      </trkpt>
      <trkpt lat="42.24142" lon="0.78708">
        <ele>906.03</ele>
        <time>2021-08-01T15:18:51Z</time>
      </trkpt>
      <trkpt lat="42.24161" lon="0.78713">
        <ele>906.43</ele>
        <time>2021-08-01T15:18:56Z</time>
      </trkpt>
      <trkpt lat="42.24172" lon="0.78729">
        <ele>906.69</ele>
        <time>2021-08-01T15:18:59Z</time>
      </trkpt>
      <trkpt lat="42.24192" lon="0.78729">
        <ele>906.34</ele>
        <time>2021-08-01T15:19:04Z</time>
      </trkpt>
      <trkpt lat="42.24218" lon="0.78722">
        <ele>905.54</ele>
        <time>2021-08-01T15:19:10Z</time>
      </trkpt>
      <trkpt lat="42.24228" lon="0.78724">
        <ele>905.41</ele>
        <time>2021-08-01T15:19:12Z</time>
      </trkpt>
      <trkpt lat="42.24264" lon="0.78718">
        <ele>905.27</ele>
        <time>2021-08-01T15:19:19Z</time>
      </trkpt>
      <trkpt lat="42.24296" lon="0.78693">
        <ele>903.98</ele>
        <time>2021-08-01T15:19:26Z</time>
      </trkpt>
      <trkpt lat="42.24303" lon="0.78682">
        <ele>903.22</ele>
        <time>2021-08-01T15:19:28Z</time>
      </trkpt>
      <trkpt lat="42.24339" lon="0.78645">
        <ele>899.58</ele>
        <time>2021-08-01T15:19:38Z</time>
      </trkpt>
      <trkpt lat="42.24354" lon="0.78658">
        <ele>897.7</ele>
        <time>2021-08-01T15:19:43Z</time>
      </trkpt>
      <trkpt lat="42.24359" lon="0.78671">
        <ele>897.28</ele>
        <time>2021-08-01T15:19:45Z</time>
      </trkpt>
      <trkpt lat="42.24386" lon="0.78725">
        <ele>894.86</ele>
        <time>2021-08-01T15:19:53Z</time>
      </trkpt>
      <trkpt lat="42.2442" lon="0.78763">
        <ele>891.29</ele>
        <time>2021-08-01T15:20:00Z</time>
      </trkpt>
      <trkpt lat="42.24423" lon="0.78767">
        <ele>890.86</ele>
        <time>2021-08-01T15:20:01Z</time>
      </trkpt>
      <trkpt lat="42.24432" lon="0.78757">
        <ele>888.31</ele>
        <time>2021-08-01T15:20:07Z</time>
      </trkpt>
      <trkpt lat="42.24428" lon="0.78752">
        <ele>887.49</ele>
        <time>2021-08-01T15:20:08Z</time>
      </trkpt>
      <trkpt lat="42.24413" lon="0.78731">
        <ele>886.5</ele>
        <time>2021-08-01T15:20:11Z</time>
      </trkpt>
      <trkpt lat="42.2439" lon="0.78653">
        <ele>883.87</ele>
        <time>2021-08-01T15:20:18Z</time>
      </trkpt>
      <trkpt lat="42.24404" lon="0.78601">
        <ele>881.85</ele>
        <time>2021-08-01T15:20:23Z</time>
      </trkpt>
      <trkpt lat="42.24434" lon="0.78526">
        <ele>878.82</ele>
        <time>2021-08-01T15:20:30Z</time>
      </trkpt>
      <trkpt lat="42.24428" lon="0.78463">
        <ele>874.86</ele>
        <time>2021-08-01T15:20:36Z</time>
      </trkpt>
      <trkpt lat="42.2438" lon="0.78445">
        <ele>872.15</ele>
        <time>2021-08-01T15:20:42Z</time>
      </trkpt>
      <trkpt lat="42.24369" lon="0.78446">
        <ele>871.6</ele>
        <time>2021-08-01T15:20:43Z</time>
      </trkpt>
      <trkpt lat="42.24348" lon="0.7845">
        <ele>870.27</ele>
        <time>2021-08-01T15:20:45Z</time>
      </trkpt>
      <trkpt lat="42.24329" lon="0.78449">
        <ele>869.09</ele>
        <time>2021-08-01T15:20:47Z</time>
      </trkpt>
      <trkpt lat="42.24297" lon="0.78464">
        <ele>866.69</ele>
        <time>2021-08-01T15:20:51Z</time>
      </trkpt>
      <trkpt lat="42.24271" lon="0.78488">
        <ele>865.22</ele>
        <time>2021-08-01T15:20:54Z</time>
      </trkpt>
      <trkpt lat="42.2425" lon="0.78527">
        <ele>862.58</ele>
        <time>2021-08-01T15:20:58Z</time>
      </trkpt>
      <trkpt lat="42.24221" lon="0.7857">
        <ele>859.45</ele>
        <time>2021-08-01T15:21:03Z</time>
      </trkpt>
      <trkpt lat="42.24206" lon="0.78566">
        <ele>855.08</ele>
        <time>2021-08-01T15:21:10Z</time>
      </trkpt>
      <trkpt lat="42.24218" lon="0.78541">
        <ele>853.66</ele>
        <time>2021-08-01T15:21:13Z</time>
      </trkpt>
      <trkpt lat="42.24236" lon="0.78484">
        <ele>851.78</ele>
        <time>2021-08-01T15:21:18Z</time>
      </trkpt>
      <trkpt lat="42.24264" lon="0.78397">
        <ele>848.03</ele>
        <time>2021-08-01T15:21:26Z</time>
      </trkpt>
      <trkpt lat="42.24297" lon="0.78352">
        <ele>845.26</ele>
        <time>2021-08-01T15:21:31Z</time>
      </trkpt>
      <trkpt lat="42.2431" lon="0.78328">
        <ele>844.24</ele>
        <time>2021-08-01T15:21:33Z</time>
      </trkpt>
      <trkpt lat="42.24329" lon="0.78223">
        <ele>840.24</ele>
        <time>2021-08-01T15:21:40Z</time>
      </trkpt>
      <trkpt lat="42.24327" lon="0.78211">
        <ele>839.52</ele>
        <time>2021-08-01T15:21:41Z</time>
      </trkpt>
      <trkpt lat="42.24336" lon="0.78168">
        <ele>834.41</ele>
        <time>2021-08-01T15:21:47Z</time>
      </trkpt>
      <trkpt lat="42.24353" lon="0.78169">
        <ele>831.53</ele>
        <time>2021-08-01T15:21:51Z</time>
      </trkpt>
      <trkpt lat="42.24381" lon="0.78171">
        <ele>828.35</ele>
        <time>2021-08-01T15:21:58Z</time>
      </trkpt>
      <trkpt lat="42.24403" lon="0.78128">
        <ele>826.03</ele>
        <time>2021-08-01T15:22:06Z</time>
      </trkpt>
      <trkpt lat="42.24406" lon="0.78097">
        <ele>825.16</ele>
        <time>2021-08-01T15:22:10Z</time>
      </trkpt>
      <trkpt lat="42.24424" lon="0.78065">
        <ele>824.39</ele>
        <time>2021-08-01T15:22:15Z</time>
      </trkpt>
      <trkpt lat="42.2446" lon="0.78047">
        <ele>821.03</ele>
        <time>2021-08-01T15:22:24Z</time>
      </trkpt>
      <trkpt lat="42.24469" lon="0.78063">
        <ele>820.48</ele>
        <time>2021-08-01T15:22:26Z</time>
      </trkpt>
      <trkpt lat="42.24486" lon="0.78104">
        <ele>819.49</ele>
        <time>2021-08-01T15:22:30Z</time>
      </trkpt>
      <trkpt lat="42.24504" lon="0.7812">
        <ele>818.23</ele>
        <time>2021-08-01T15:22:34Z</time>
      </trkpt>
      <trkpt lat="42.24529" lon="0.78121">
        <ele>816.92</ele>
        <time>2021-08-01T15:22:37Z</time>
      </trkpt>
      <trkpt lat="42.2456" lon="0.78104">
        <ele>814.75</ele>
        <time>2021-08-01T15:22:41Z</time>
      </trkpt>
      <trkpt lat="42.24595" lon="0.78066">
        <ele>811</ele>
        <time>2021-08-01T15:22:46Z</time>
      </trkpt>
      <trkpt lat="42.24607" lon="0.78006">
        <ele>806.99</ele>
        <time>2021-08-01T15:22:52Z</time>
      </trkpt>
      <trkpt lat="42.24602" lon="0.77996">
        <ele>806.26</ele>
        <time>2021-08-01T15:22:53Z</time>
      </trkpt>
      <trkpt lat="42.24582" lon="0.77953">
        <ele>803.56</ele>
        <time>2021-08-01T15:22:57Z</time>
      </trkpt>
      <trkpt lat="42.24541" lon="0.77931">
        <ele>799.22</ele>
        <time>2021-08-01T15:23:03Z</time>
      </trkpt>
      <trkpt lat="42.24537" lon="0.7791">
        <ele>796.25</ele>
        <time>2021-08-01T15:23:07Z</time>
      </trkpt>
      <trkpt lat="42.24577" lon="0.7791">
        <ele>792.85</ele>
        <time>2021-08-01T15:23:13Z</time>
      </trkpt>
      <trkpt lat="42.24602" lon="0.77916">
        <ele>789.46</ele>
        <time>2021-08-01T15:23:19Z</time>
      </trkpt>
      <trkpt lat="42.24612" lon="0.77901">
        <ele>788.62</ele>
        <time>2021-08-01T15:23:21Z</time>
      </trkpt>
      <trkpt lat="42.2461" lon="0.77868">
        <ele>784.88</ele>
        <time>2021-08-01T15:23:28Z</time>
      </trkpt>
      <trkpt lat="42.24579" lon="0.77864">
        <ele>781.66</ele>
        <time>2021-08-01T15:23:33Z</time>
      </trkpt>
      <trkpt lat="42.24587" lon="0.77853">
        <ele>779.4</ele>
        <time>2021-08-01T15:23:36Z</time>
      </trkpt>
      <trkpt lat="42.24595" lon="0.77848">
        <ele>777.94</ele>
        <time>2021-08-01T15:23:38Z</time>
      </trkpt>
      <trkpt lat="42.24596" lon="0.77824">
        <ele>774.51</ele>
        <time>2021-08-01T15:23:44Z</time>
      </trkpt>
      <trkpt lat="42.24605" lon="0.77809">
        <ele>770.94</ele>
        <time>2021-08-01T15:23:50Z</time>
      </trkpt>
      <trkpt lat="42.2461" lon="0.77813">
        <ele>770.26</ele>
        <time>2021-08-01T15:23:51Z</time>
      </trkpt>
      <trkpt lat="42.24621" lon="0.77823">
        <ele>769.25</ele>
        <time>2021-08-01T15:23:53Z</time>
      </trkpt>
      <trkpt lat="42.24644" lon="0.77821">
        <ele>767.6</ele>
        <time>2021-08-01T15:23:57Z</time>
      </trkpt>
      <trkpt lat="42.24691" lon="0.77843">
        <ele>765.51</ele>
        <time>2021-08-01T15:24:04Z</time>
      </trkpt>
      <trkpt lat="42.24722" lon="0.77885">
        <ele>764.75</ele>
        <time>2021-08-01T15:24:08Z</time>
      </trkpt>
      <trkpt lat="42.24751" lon="0.77885">
        <ele>762.66</ele>
        <time>2021-08-01T15:24:14Z</time>
      </trkpt>
      <trkpt lat="42.24744" lon="0.77871">
        <ele>761.67</ele>
        <time>2021-08-01T15:24:16Z</time>
      </trkpt>
      <trkpt lat="42.24719" lon="0.77806">
        <ele>758.5</ele>
        <time>2021-08-01T15:24:22Z</time>
      </trkpt>
      <trkpt lat="42.24694" lon="0.77775">
        <ele>754.82</ele>
        <time>2021-08-01T15:24:27Z</time>
      </trkpt>
      <trkpt lat="42.24675" lon="0.77761">
        <ele>751.96</ele>
        <time>2021-08-01T15:24:31Z</time>
      </trkpt>
      <trkpt lat="42.24646" lon="0.77665">
        <ele>747.15</ele>
        <time>2021-08-01T15:24:39Z</time>
      </trkpt>
      <trkpt lat="42.24621" lon="0.77603">
        <ele>743.88</ele>
        <time>2021-08-01T15:24:44Z</time>
      </trkpt>
      <trkpt lat="42.24611" lon="0.77545">
        <ele>739.68</ele>
        <time>2021-08-01T15:24:49Z</time>
      </trkpt>
      <trkpt lat="42.24607" lon="0.77524">
        <ele>738.3</ele>
        <time>2021-08-01T15:24:51Z</time>
      </trkpt>
      <trkpt lat="42.24631" lon="0.7752">
        <ele>733.89</ele>
        <time>2021-08-01T15:24:56Z</time>
      </trkpt>
      <trkpt lat="42.24653" lon="0.7752">
        <ele>730.53</ele>
        <time>2021-08-01T15:25:00Z</time>
      </trkpt>
      <trkpt lat="42.24658" lon="0.77485">
        <ele>727.18</ele>
        <time>2021-08-01T15:25:05Z</time>
      </trkpt>
      <trkpt lat="42.2463" lon="0.77464">
        <ele>724.46</ele>
        <time>2021-08-01T15:25:10Z</time>
      </trkpt>
      <trkpt lat="42.24614" lon="0.77408">
        <ele>721.3</ele>
        <time>2021-08-01T15:25:15Z</time>
      </trkpt>
      <trkpt lat="42.24583" lon="0.77337">
        <ele>718.2</ele>
        <time>2021-08-01T15:25:20Z</time>
      </trkpt>
      <trkpt lat="42.24564" lon="0.77271">
        <ele>714</ele>
        <time>2021-08-01T15:25:25Z</time>
      </trkpt>
      <trkpt lat="42.2454" lon="0.77258">
        <ele>711.37</ele>
        <time>2021-08-01T15:25:28Z</time>
      </trkpt>
      <trkpt lat="42.24534" lon="0.77255">
        <ele>707.32</ele>
        <time>2021-08-01T15:25:34Z</time>
      </trkpt>
      <trkpt lat="42.24534" lon="0.77254">
        <ele>704.28</ele>
        <time>2021-08-01T15:25:50Z</time>
      </trkpt>
      <trkpt lat="42.24534" lon="0.77254">
        <ele>703.82</ele>
        <time>2021-08-01T15:28:12Z</time>
      </trkpt>
      <trkpt lat="42.24536" lon="0.77202">
        <ele>703.83</ele>
        <time>2021-08-01T15:28:20Z</time>
      </trkpt>
      <trkpt lat="42.24542" lon="0.77194">
        <ele>703.83</ele>
        <time>2021-08-01T15:28:21Z</time>
      </trkpt>
      <trkpt lat="42.24552" lon="0.77178">
        <ele>703.59</ele>
        <time>2021-08-01T15:28:23Z</time>
      </trkpt>
      <trkpt lat="42.24551" lon="0.77141">
        <ele>703.03</ele>
        <time>2021-08-01T15:28:27Z</time>
      </trkpt>
      <trkpt lat="42.24537" lon="0.77077">
        <ele>702.29</ele>
        <time>2021-08-01T15:28:32Z</time>
      </trkpt>
      <trkpt lat="42.24496" lon="0.76987">
        <ele>700.3</ele>
        <time>2021-08-01T15:28:41Z</time>
      </trkpt>
      <trkpt lat="42.24492" lon="0.76979">
        <ele>700.01</ele>
        <time>2021-08-01T15:28:42Z</time>
      </trkpt>
      <trkpt lat="42.24482" lon="0.76942">
        <ele>698.82</ele>
        <time>2021-08-01T15:28:46Z</time>
      </trkpt>
      <trkpt lat="42.24477" lon="0.76866">
        <ele>695.75</ele>
        <time>2021-08-01T15:28:54Z</time>
      </trkpt>
      <trkpt lat="42.24486" lon="0.76845">
        <ele>694.69</ele>
        <time>2021-08-01T15:28:56Z</time>
      </trkpt>
      <trkpt lat="42.24509" lon="0.76808">
        <ele>692.93</ele>
        <time>2021-08-01T15:29:00Z</time>
      </trkpt>
      <trkpt lat="42.24541" lon="0.76769">
        <ele>692.18</ele>
        <time>2021-08-01T15:29:04Z</time>
      </trkpt>
      <trkpt lat="42.24563" lon="0.76701">
        <ele>691.6</ele>
        <time>2021-08-01T15:29:10Z</time>
      </trkpt>
      <trkpt lat="42.24599" lon="0.76593">
        <ele>690.21</ele>
        <time>2021-08-01T15:29:22Z</time>
      </trkpt>
      <trkpt lat="42.24609" lon="0.76573">
        <ele>690.02</ele>
        <time>2021-08-01T15:29:24Z</time>
      </trkpt>
      <trkpt lat="42.24612" lon="0.76562">
        <ele>689.98</ele>
        <time>2021-08-01T15:29:25Z</time>
      </trkpt>
      <trkpt lat="42.24615" lon="0.76551">
        <ele>689.96</ele>
        <time>2021-08-01T15:29:26Z</time>
      </trkpt>
      <trkpt lat="42.24618" lon="0.7654">
        <ele>689.96</ele>
        <time>2021-08-01T15:29:27Z</time>
      </trkpt>
      <trkpt lat="42.24622" lon="0.76531">
        <ele>689.96</ele>
        <time>2021-08-01T15:29:28Z</time>
      </trkpt>
      <trkpt lat="42.24627" lon="0.76523">
        <ele>690.04</ele>
        <time>2021-08-01T15:29:29Z</time>
      </trkpt>
      <trkpt lat="42.24634" lon="0.76516">
        <ele>690.11</ele>
        <time>2021-08-01T15:29:30Z</time>
      </trkpt>
      <trkpt lat="42.24641" lon="0.76511">
        <ele>690.18</ele>
        <time>2021-08-01T15:29:31Z</time>
      </trkpt>
      <trkpt lat="42.24648" lon="0.76506">
        <ele>690.28</ele>
        <time>2021-08-01T15:29:32Z</time>
      </trkpt>
      <trkpt lat="42.24655" lon="0.765">
        <ele>690.39</ele>
        <time>2021-08-01T15:29:33Z</time>
      </trkpt>
      <trkpt lat="42.24661" lon="0.76492">
        <ele>690.49</ele>
        <time>2021-08-01T15:29:34Z</time>
      </trkpt>
      <trkpt lat="42.24674" lon="0.76475">
        <ele>690.58</ele>
        <time>2021-08-01T15:29:36Z</time>
      </trkpt>
      <trkpt lat="42.24703" lon="0.76445">
        <ele>690.56</ele>
        <time>2021-08-01T15:29:40Z</time>
      </trkpt>
      <trkpt lat="42.24725" lon="0.76383">
        <ele>688.84</ele>
        <time>2021-08-01T15:29:46Z</time>
      </trkpt>
      <trkpt lat="42.24794" lon="0.7626">
        <ele>684.97</ele>
        <time>2021-08-01T15:29:57Z</time>
      </trkpt>
      <trkpt lat="42.24844" lon="0.7614">
        <ele>682.54</ele>
        <time>2021-08-01T15:30:06Z</time>
      </trkpt>
      <trkpt lat="42.24859" lon="0.76101">
        <ele>680.94</ele>
        <time>2021-08-01T15:30:09Z</time>
      </trkpt>
      <trkpt lat="42.24876" lon="0.76063">
        <ele>679.03</ele>
        <time>2021-08-01T15:30:12Z</time>
      </trkpt>
      <trkpt lat="42.24901" lon="0.75977">
        <ele>674.98</ele>
        <time>2021-08-01T15:30:18Z</time>
      </trkpt>
      <trkpt lat="42.24916" lon="0.75883">
        <ele>671.94</ele>
        <time>2021-08-01T15:30:24Z</time>
      </trkpt>
      <trkpt lat="42.24925" lon="0.75761">
        <ele>670.14</ele>
        <time>2021-08-01T15:30:31Z</time>
      </trkpt>
      <trkpt lat="42.24913" lon="0.75627">
        <ele>666.59</ele>
        <time>2021-08-01T15:30:39Z</time>
      </trkpt>
      <trkpt lat="42.24914" lon="0.75578">
        <ele>665</ele>
        <time>2021-08-01T15:30:42Z</time>
      </trkpt>
      <trkpt lat="42.24936" lon="0.7552">
        <ele>664.4</ele>
        <time>2021-08-01T15:30:47Z</time>
      </trkpt>
      <trkpt lat="42.24997" lon="0.75438">
        <ele>666.32</ele>
        <time>2021-08-01T15:30:54Z</time>
      </trkpt>
      <trkpt lat="42.25011" lon="0.75412">
        <ele>667.4</ele>
        <time>2021-08-01T15:30:56Z</time>
      </trkpt>
      <trkpt lat="42.25058" lon="0.75352">
        <ele>669.49</ele>
        <time>2021-08-01T15:31:02Z</time>
      </trkpt>
      <trkpt lat="42.25073" lon="0.75283">
        <ele>669.35</ele>
        <time>2021-08-01T15:31:08Z</time>
      </trkpt>
      <trkpt lat="42.25078" lon="0.75182">
        <ele>666.08</ele>
        <time>2021-08-01T15:31:17Z</time>
      </trkpt>
      <trkpt lat="42.25082" lon="0.75157">
        <ele>665.02</ele>
        <time>2021-08-01T15:31:19Z</time>
      </trkpt>
      <trkpt lat="42.25079" lon="0.75093">
        <ele>662.85</ele>
        <time>2021-08-01T15:31:23Z</time>
      </trkpt>
      <trkpt lat="42.251" lon="0.74998">
        <ele>658.84</ele>
        <time>2021-08-01T15:31:30Z</time>
      </trkpt>
      <trkpt lat="42.25139" lon="0.74991">
        <ele>656.05</ele>
        <time>2021-08-01T15:31:34Z</time>
      </trkpt>
      <trkpt lat="42.25167" lon="0.75016">
        <ele>652.22</ele>
        <time>2021-08-01T15:31:38Z</time>
      </trkpt>
      <trkpt lat="42.25173" lon="0.75017">
        <ele>652.22</ele>
        <time>2021-08-01T15:31:39Z</time>
      </trkpt>
      <trkpt lat="42.25181" lon="0.7499">
        <ele>648.99</ele>
        <time>2021-08-01T15:31:43Z</time>
      </trkpt>
      <trkpt lat="42.25177" lon="0.7498">
        <ele>648.62</ele>
        <time>2021-08-01T15:31:44Z</time>
      </trkpt>
      <trkpt lat="42.25135" lon="0.74887">
        <ele>647.74</ele>
        <time>2021-08-01T15:31:52Z</time>
      </trkpt>
      <trkpt lat="42.25141" lon="0.74836">
        <ele>647.88</ele>
        <time>2021-08-01T15:31:57Z</time>
      </trkpt>
      <trkpt lat="42.25129" lon="0.74778">
        <ele>646.51</ele>
        <time>2021-08-01T15:32:04Z</time>
      </trkpt>
      <trkpt lat="42.25122" lon="0.74771">
        <ele>646.3</ele>
        <time>2021-08-01T15:32:05Z</time>
      </trkpt>
      <trkpt lat="42.25124" lon="0.74732">
        <ele>645.98</ele>
        <time>2021-08-01T15:32:09Z</time>
      </trkpt>
      <trkpt lat="42.25182" lon="0.74632">
        <ele>647.33</ele>
        <time>2021-08-01T15:32:17Z</time>
      </trkpt>
      <trkpt lat="42.25207" lon="0.7459">
        <ele>648.26</ele>
        <time>2021-08-01T15:32:20Z</time>
      </trkpt>
      <trkpt lat="42.25217" lon="0.74495">
        <ele>650.91</ele>
        <time>2021-08-01T15:32:27Z</time>
      </trkpt>
      <trkpt lat="42.2522" lon="0.74459">
        <ele>651.31</ele>
        <time>2021-08-01T15:32:30Z</time>
      </trkpt>
      <trkpt lat="42.2524" lon="0.74406">
        <ele>650.89</ele>
        <time>2021-08-01T15:32:35Z</time>
      </trkpt>
      <trkpt lat="42.25254" lon="0.74384">
        <ele>650.07</ele>
        <time>2021-08-01T15:32:37Z</time>
      </trkpt>
      <trkpt lat="42.25328" lon="0.74323">
        <ele>646.3</ele>
        <time>2021-08-01T15:32:44Z</time>
      </trkpt>
      <trkpt lat="42.25326" lon="0.74266">
        <ele>642.14</ele>
        <time>2021-08-01T15:32:49Z</time>
      </trkpt>
      <trkpt lat="42.25291" lon="0.74209">
        <ele>639.28</ele>
        <time>2021-08-01T15:32:53Z</time>
      </trkpt>
      <trkpt lat="42.2529" lon="0.74119">
        <ele>635.36</ele>
        <time>2021-08-01T15:32:59Z</time>
      </trkpt>
      <trkpt lat="42.2534" lon="0.74015">
        <ele>632.77</ele>
        <time>2021-08-01T15:33:06Z</time>
      </trkpt>
      <trkpt lat="42.25343" lon="0.73944">
        <ele>631.02</ele>
        <time>2021-08-01T15:33:11Z</time>
      </trkpt>
      <trkpt lat="42.25336" lon="0.73859">
        <ele>627.54</ele>
        <time>2021-08-01T15:33:17Z</time>
      </trkpt>
      <trkpt lat="42.25341" lon="0.73834">
        <ele>625.35</ele>
        <time>2021-08-01T15:33:19Z</time>
      </trkpt>
      <trkpt lat="42.25387" lon="0.73785">
        <ele>621.25</ele>
        <time>2021-08-01T15:33:25Z</time>
      </trkpt>
      <trkpt lat="42.25411" lon="0.7378">
        <ele>620.05</ele>
        <time>2021-08-01T15:33:27Z</time>
      </trkpt>
      <trkpt lat="42.25472" lon="0.73748">
        <ele>616.17</ele>
        <time>2021-08-01T15:33:33Z</time>
      </trkpt>
      <trkpt lat="42.2548" lon="0.73698">
        <ele>613.68</ele>
        <time>2021-08-01T15:33:37Z</time>
      </trkpt>
      <trkpt lat="42.25485" lon="0.73665">
        <ele>610.45</ele>
        <time>2021-08-01T15:33:42Z</time>
      </trkpt>
      <trkpt lat="42.25508" lon="0.73627">
        <ele>607</ele>
        <time>2021-08-01T15:33:50Z</time>
      </trkpt>
      <trkpt lat="42.25537" lon="0.73589">
        <ele>604.06</ele>
        <time>2021-08-01T15:33:58Z</time>
      </trkpt>
      <trkpt lat="42.25538" lon="0.73581">
        <ele>603.39</ele>
        <time>2021-08-01T15:34:00Z</time>
      </trkpt>
      <trkpt lat="42.25547" lon="0.73546">
        <ele>603.98</ele>
        <time>2021-08-01T15:34:13Z</time>
      </trkpt>
      <trkpt lat="42.2555" lon="0.73538">
        <ele>604.11</ele>
        <time>2021-08-01T15:34:15Z</time>
      </trkpt>
      <trkpt lat="42.25542" lon="0.73511">
        <ele>604.25</ele>
        <time>2021-08-01T15:34:20Z</time>
      </trkpt>
      <trkpt lat="42.25492" lon="0.73407">
        <ele>604.09</ele>
        <time>2021-08-01T15:34:29Z</time>
      </trkpt>
      <trkpt lat="42.25409" lon="0.73221">
        <ele>606.1</ele>
        <time>2021-08-01T15:34:41Z</time>
      </trkpt>
      <trkpt lat="42.2536" lon="0.73112">
        <ele>606.75</ele>
        <time>2021-08-01T15:34:50Z</time>
      </trkpt>
      <trkpt lat="42.25337" lon="0.7306">
        <ele>606.46</ele>
        <time>2021-08-01T15:34:55Z</time>
      </trkpt>
      <trkpt lat="42.25332" lon="0.7303">
        <ele>605.89</ele>
        <time>2021-08-01T15:35:02Z</time>
      </trkpt>
      <trkpt lat="42.25332" lon="0.7303">
        <ele>605.3</ele>
        <time>2021-08-01T15:40:07Z</time>
      </trkpt>
      <trkpt lat="42.25331" lon="0.7303">
        <ele>605.3</ele>
        <time>2021-08-01T15:40:45Z</time>
      </trkpt>
      <trkpt lat="42.25329" lon="0.73027">
        <ele>605.3</ele>
        <time>2021-08-01T15:40:46Z</time>
      </trkpt>
      <trkpt lat="42.25297" lon="0.72966">
        <ele>606</ele>
        <time>2021-08-01T15:40:53Z</time>
      </trkpt>
      <trkpt lat="42.25242" lon="0.72843">
        <ele>607.52</ele>
        <time>2021-08-01T15:41:00Z</time>
      </trkpt>
      <trkpt lat="42.25206" lon="0.72766">
        <ele>608.63</ele>
        <time>2021-08-01T15:41:04Z</time>
      </trkpt>
      <trkpt lat="42.25124" lon="0.72688">
        <ele>610.05</ele>
        <time>2021-08-01T15:41:10Z</time>
      </trkpt>
      <trkpt lat="42.24887" lon="0.72595">
        <ele>609.45</ele>
        <time>2021-08-01T15:41:22Z</time>
      </trkpt>
      <trkpt lat="42.24721" lon="0.72529">
        <ele>608.27</ele>
        <time>2021-08-01T15:41:31Z</time>
      </trkpt>
      <trkpt lat="42.2454" lon="0.72367">
        <ele>605.14</ele>
        <time>2021-08-01T15:41:43Z</time>
      </trkpt>
      <trkpt lat="42.24368" lon="0.72206">
        <ele>602.33</ele>
        <time>2021-08-01T15:41:53Z</time>
      </trkpt>
      <trkpt lat="42.2416" lon="0.72034">
        <ele>600.51</ele>
        <time>2021-08-01T15:42:04Z</time>
      </trkpt>
      <trkpt lat="42.23911" lon="0.71847">
        <ele>599.23</ele>
        <time>2021-08-01T15:42:17Z</time>
      </trkpt>
      <trkpt lat="42.23674" lon="0.71667">
        <ele>596.19</ele>
        <time>2021-08-01T15:42:30Z</time>
      </trkpt>
      <trkpt lat="42.23509" lon="0.71565">
        <ele>593.7</ele>
        <time>2021-08-01T15:42:39Z</time>
      </trkpt>
      <trkpt lat="42.23447" lon="0.71545">
        <ele>590.07</ele>
        <time>2021-08-01T15:42:44Z</time>
      </trkpt>
      <trkpt lat="42.2344" lon="0.71543">
        <ele>589.49</ele>
        <time>2021-08-01T15:42:45Z</time>
      </trkpt>
      <trkpt lat="42.2344" lon="0.71522">
        <ele>586.34</ele>
        <time>2021-08-01T15:42:51Z</time>
      </trkpt>
      <trkpt lat="42.23461" lon="0.71487">
        <ele>584.17</ele>
        <time>2021-08-01T15:42:57Z</time>
      </trkpt>
      <trkpt lat="42.23461" lon="0.71476">
        <ele>583.88</ele>
        <time>2021-08-01T15:42:58Z</time>
      </trkpt>
      <trkpt lat="42.23454" lon="0.71353">
        <ele>581.97</ele>
        <time>2021-08-01T15:43:09Z</time>
      </trkpt>
      <trkpt lat="42.2345" lon="0.71314">
        <ele>582.23</ele>
        <time>2021-08-01T15:43:16Z</time>
      </trkpt>
      <trkpt lat="42.23447" lon="0.71289">
        <ele>583.12</ele>
        <time>2021-08-01T15:43:20Z</time>
      </trkpt>
      <trkpt lat="42.2344" lon="0.71267">
        <ele>583.79</ele>
        <time>2021-08-01T15:43:23Z</time>
      </trkpt>
      <trkpt lat="42.23435" lon="0.71213">
        <ele>587.27</ele>
        <time>2021-08-01T15:43:29Z</time>
      </trkpt>
      <trkpt lat="42.23447" lon="0.71179">
        <ele>590.52</ele>
        <time>2021-08-01T15:43:33Z</time>
      </trkpt>
      <trkpt lat="42.23466" lon="0.71143">
        <ele>594.82</ele>
        <time>2021-08-01T15:43:38Z</time>
      </trkpt>
      <trkpt lat="42.23469" lon="0.71136">
        <ele>595.82</ele>
        <time>2021-08-01T15:43:39Z</time>
      </trkpt>
      <trkpt lat="42.23485" lon="0.71118">
        <ele>600.8</ele>
        <time>2021-08-01T15:43:44Z</time>
      </trkpt>
      <trkpt lat="42.23499" lon="0.71103">
        <ele>604.21</ele>
        <time>2021-08-01T15:43:48Z</time>
      </trkpt>
      <trkpt lat="42.23503" lon="0.71098">
        <ele>605.07</ele>
        <time>2021-08-01T15:43:49Z</time>
      </trkpt>
      <trkpt lat="42.23531" lon="0.71075">
        <ele>609.49</ele>
        <time>2021-08-01T15:43:54Z</time>
      </trkpt>
      <trkpt lat="42.23538" lon="0.7107">
        <ele>610.44</ele>
        <time>2021-08-01T15:43:55Z</time>
      </trkpt>
      <trkpt lat="42.23559" lon="0.71048">
        <ele>614.63</ele>
        <time>2021-08-01T15:43:59Z</time>
      </trkpt>
      <trkpt lat="42.23572" lon="0.71032">
        <ele>617.87</ele>
        <time>2021-08-01T15:44:02Z</time>
      </trkpt>
      <trkpt lat="42.23593" lon="0.71014">
        <ele>622.05</ele>
        <time>2021-08-01T15:44:06Z</time>
      </trkpt>
      <trkpt lat="42.23624" lon="0.70989">
        <ele>626.17</ele>
        <time>2021-08-01T15:44:11Z</time>
      </trkpt>
      <trkpt lat="42.23657" lon="0.70963">
        <ele>629.79</ele>
        <time>2021-08-01T15:44:16Z</time>
      </trkpt>
      <trkpt lat="42.2367" lon="0.70947">
        <ele>631.34</ele>
        <time>2021-08-01T15:44:18Z</time>
      </trkpt>
      <trkpt lat="42.2371" lon="0.70917">
        <ele>635.75</ele>
        <time>2021-08-01T15:44:23Z</time>
      </trkpt>
      <trkpt lat="42.23717" lon="0.7091">
        <ele>636.86</ele>
        <time>2021-08-01T15:44:24Z</time>
      </trkpt>
      <trkpt lat="42.23745" lon="0.70874">
        <ele>641.16</ele>
        <time>2021-08-01T15:44:28Z</time>
      </trkpt>
      <trkpt lat="42.23759" lon="0.70856">
        <ele>643.44</ele>
        <time>2021-08-01T15:44:30Z</time>
      </trkpt>
      <trkpt lat="42.23781" lon="0.70822">
        <ele>647.68</ele>
        <time>2021-08-01T15:44:34Z</time>
      </trkpt>
      <trkpt lat="42.23801" lon="0.70787">
        <ele>651.57</ele>
        <time>2021-08-01T15:44:38Z</time>
      </trkpt>
      <trkpt lat="42.23821" lon="0.70751">
        <ele>655.35</ele>
        <time>2021-08-01T15:44:42Z</time>
      </trkpt>
      <trkpt lat="42.23837" lon="0.70725">
        <ele>658.58</ele>
        <time>2021-08-01T15:44:45Z</time>
      </trkpt>
      <trkpt lat="42.23854" lon="0.70699">
        <ele>661.71</ele>
        <time>2021-08-01T15:44:48Z</time>
      </trkpt>
      <trkpt lat="42.2386" lon="0.70689">
        <ele>662.81</ele>
        <time>2021-08-01T15:44:49Z</time>
      </trkpt>
      <trkpt lat="42.23879" lon="0.70645">
        <ele>668.46</ele>
        <time>2021-08-01T15:44:53Z</time>
      </trkpt>
      <trkpt lat="42.23888" lon="0.70621">
        <ele>670.61</ele>
        <time>2021-08-01T15:44:55Z</time>
      </trkpt>
      <trkpt lat="42.23903" lon="0.70573">
        <ele>675.15</ele>
        <time>2021-08-01T15:44:59Z</time>
      </trkpt>
      <trkpt lat="42.23913" lon="0.7054">
        <ele>678.59</ele>
        <time>2021-08-01T15:45:02Z</time>
      </trkpt>
      <trkpt lat="42.23918" lon="0.7052">
        <ele>680.89</ele>
        <time>2021-08-01T15:45:04Z</time>
      </trkpt>
      <trkpt lat="42.23928" lon="0.70468">
        <ele>685.17</ele>
        <time>2021-08-01T15:45:08Z</time>
      </trkpt>
      <trkpt lat="42.23959" lon="0.70374">
        <ele>688.48</ele>
        <time>2021-08-01T15:45:14Z</time>
      </trkpt>
      <trkpt lat="42.23986" lon="0.70304">
        <ele>692.19</ele>
        <time>2021-08-01T15:45:20Z</time>
      </trkpt>
      <trkpt lat="42.24001" lon="0.70266">
        <ele>695.73</ele>
        <time>2021-08-01T15:45:24Z</time>
      </trkpt>
      <trkpt lat="42.24016" lon="0.70228">
        <ele>699.64</ele>
        <time>2021-08-01T15:45:28Z</time>
      </trkpt>
      <trkpt lat="42.24025" lon="0.70201">
        <ele>702.75</ele>
        <time>2021-08-01T15:45:31Z</time>
      </trkpt>
      <trkpt lat="42.24032" lon="0.70169">
        <ele>706.39</ele>
        <time>2021-08-01T15:45:35Z</time>
      </trkpt>
      <trkpt lat="42.2404" lon="0.7014">
        <ele>707.69</ele>
        <time>2021-08-01T15:45:38Z</time>
      </trkpt>
      <trkpt lat="42.24064" lon="0.70033">
        <ele>710.94</ele>
        <time>2021-08-01T15:45:48Z</time>
      </trkpt>
      <trkpt lat="42.24073" lon="0.69986">
        <ele>713.39</ele>
        <time>2021-08-01T15:45:52Z</time>
      </trkpt>
      <trkpt lat="42.2407" lon="0.69938">
        <ele>715.94</ele>
        <time>2021-08-01T15:45:56Z</time>
      </trkpt>
      <trkpt lat="42.24049" lon="0.69879">
        <ele>720.57</ele>
        <time>2021-08-01T15:46:02Z</time>
      </trkpt>
      <trkpt lat="42.24045" lon="0.69869">
        <ele>721.51</ele>
        <time>2021-08-01T15:46:03Z</time>
      </trkpt>
      <trkpt lat="42.2403" lon="0.69822">
        <ele>726.45</ele>
        <time>2021-08-01T15:46:08Z</time>
      </trkpt>
      <trkpt lat="42.24021" lon="0.69798">
        <ele>729.43</ele>
        <time>2021-08-01T15:46:11Z</time>
      </trkpt>
      <trkpt lat="42.2401" lon="0.69763">
        <ele>733.48</ele>
        <time>2021-08-01T15:46:15Z</time>
      </trkpt>
      <trkpt lat="42.24007" lon="0.69724">
        <ele>737.24</ele>
        <time>2021-08-01T15:46:19Z</time>
      </trkpt>
      <trkpt lat="42.24009" lon="0.69706">
        <ele>739.01</ele>
        <time>2021-08-01T15:46:21Z</time>
      </trkpt>
      <trkpt lat="42.24016" lon="0.69674">
        <ele>743.07</ele>
        <time>2021-08-01T15:46:26Z</time>
      </trkpt>
      <trkpt lat="42.24017" lon="0.6967">
        <ele>743.87</ele>
        <time>2021-08-01T15:46:27Z</time>
      </trkpt>
      <trkpt lat="42.24016" lon="0.69659">
        <ele>745.59</ele>
        <time>2021-08-01T15:46:29Z</time>
      </trkpt>
      <trkpt lat="42.24016" lon="0.69631">
        <ele>749.45</ele>
        <time>2021-08-01T15:46:33Z</time>
      </trkpt>
      <trkpt lat="42.24012" lon="0.696">
        <ele>752.6</ele>
        <time>2021-08-01T15:46:37Z</time>
      </trkpt>
      <trkpt lat="42.23985" lon="0.69567">
        <ele>756.46</ele>
        <time>2021-08-01T15:46:42Z</time>
      </trkpt>
      <trkpt lat="42.23967" lon="0.69569">
        <ele>757.98</ele>
        <time>2021-08-01T15:46:44Z</time>
      </trkpt>
      <trkpt lat="42.23934" lon="0.69571">
        <ele>761.28</ele>
        <time>2021-08-01T15:46:48Z</time>
      </trkpt>
      <trkpt lat="42.23901" lon="0.69598">
        <ele>765.98</ele>
        <time>2021-08-01T15:46:53Z</time>
      </trkpt>
      <trkpt lat="42.23859" lon="0.6963">
        <ele>770.68</ele>
        <time>2021-08-01T15:47:00Z</time>
      </trkpt>
      <trkpt lat="42.238" lon="0.69611">
        <ele>774.47</ele>
        <time>2021-08-01T15:47:08Z</time>
      </trkpt>
      <trkpt lat="42.23773" lon="0.69607">
        <ele>777.52</ele>
        <time>2021-08-01T15:47:13Z</time>
      </trkpt>
      <trkpt lat="42.23773" lon="0.6958">
        <ele>781.6</ele>
        <time>2021-08-01T15:47:19Z</time>
      </trkpt>
      <trkpt lat="42.23791" lon="0.6957">
        <ele>784.68</ele>
        <time>2021-08-01T15:47:24Z</time>
      </trkpt>
      <trkpt lat="42.23816" lon="0.6956">
        <ele>788.54</ele>
        <time>2021-08-01T15:47:30Z</time>
      </trkpt>
      <trkpt lat="42.23828" lon="0.69556">
        <ele>790.34</ele>
        <time>2021-08-01T15:47:33Z</time>
      </trkpt>
      <trkpt lat="42.23833" lon="0.69533">
        <ele>794.8</ele>
        <time>2021-08-01T15:47:39Z</time>
      </trkpt>
      <trkpt lat="42.2382" lon="0.69527">
        <ele>797.12</ele>
        <time>2021-08-01T15:47:42Z</time>
      </trkpt>
      <trkpt lat="42.23809" lon="0.69525">
        <ele>798.11</ele>
        <time>2021-08-01T15:47:44Z</time>
      </trkpt>
      <trkpt lat="42.23771" lon="0.69529">
        <ele>801.68</ele>
        <time>2021-08-01T15:47:50Z</time>
      </trkpt>
      <trkpt lat="42.23735" lon="0.69536">
        <ele>805.16</ele>
        <time>2021-08-01T15:47:55Z</time>
      </trkpt>
      <trkpt lat="42.23706" lon="0.69546">
        <ele>808.38</ele>
        <time>2021-08-01T15:47:59Z</time>
      </trkpt>
      <trkpt lat="42.23676" lon="0.6956">
        <ele>811.49</ele>
        <time>2021-08-01T15:48:03Z</time>
      </trkpt>
      <trkpt lat="42.23663" lon="0.69566">
        <ele>813.33</ele>
        <time>2021-08-01T15:48:05Z</time>
      </trkpt>
      <trkpt lat="42.23635" lon="0.6956">
        <ele>818.06</ele>
        <time>2021-08-01T15:48:11Z</time>
      </trkpt>
      <trkpt lat="42.23641" lon="0.69531">
        <ele>821.79</ele>
        <time>2021-08-01T15:48:17Z</time>
      </trkpt>
      <trkpt lat="42.23652" lon="0.6952">
        <ele>823.88</ele>
        <time>2021-08-01T15:48:20Z</time>
      </trkpt>
      <trkpt lat="42.23667" lon="0.6949">
        <ele>827.23</ele>
        <time>2021-08-01T15:48:25Z</time>
      </trkpt>
      <trkpt lat="42.23689" lon="0.69454">
        <ele>831.64</ele>
        <time>2021-08-01T15:48:31Z</time>
      </trkpt>
      <trkpt lat="42.23695" lon="0.69437">
        <ele>833.06</ele>
        <time>2021-08-01T15:48:33Z</time>
      </trkpt>
      <trkpt lat="42.23719" lon="0.69387">
        <ele>837.53</ele>
        <time>2021-08-01T15:48:39Z</time>
      </trkpt>
      <trkpt lat="42.23735" lon="0.69353">
        <ele>840.63</ele>
        <time>2021-08-01T15:48:43Z</time>
      </trkpt>
      <trkpt lat="42.2376" lon="0.69303">
        <ele>843.91</ele>
        <time>2021-08-01T15:48:49Z</time>
      </trkpt>
      <trkpt lat="42.23782" lon="0.69279">
        <ele>845.57</ele>
        <time>2021-08-01T15:48:53Z</time>
      </trkpt>
      <trkpt lat="42.23808" lon="0.69255">
        <ele>846.97</ele>
        <time>2021-08-01T15:48:58Z</time>
      </trkpt>
      <trkpt lat="42.23825" lon="0.69233">
        <ele>848.84</ele>
        <time>2021-08-01T15:49:02Z</time>
      </trkpt>
      <trkpt lat="42.23848" lon="0.69189">
        <ele>852.54</ele>
        <time>2021-08-01T15:49:08Z</time>
      </trkpt>
      <trkpt lat="42.23882" lon="0.69122">
        <ele>856.33</ele>
        <time>2021-08-01T15:49:15Z</time>
      </trkpt>
      <trkpt lat="42.23887" lon="0.69113">
        <ele>856.82</ele>
        <time>2021-08-01T15:49:16Z</time>
      </trkpt>
      <trkpt lat="42.239" lon="0.69066">
        <ele>859.27</ele>
        <time>2021-08-01T15:49:21Z</time>
      </trkpt>
      <trkpt lat="42.239" lon="0.69049">
        <ele>860.56</ele>
        <time>2021-08-01T15:49:23Z</time>
      </trkpt>
      <trkpt lat="42.23907" lon="0.69009">
        <ele>863.62</ele>
        <time>2021-08-01T15:49:28Z</time>
      </trkpt>
      <trkpt lat="42.23902" lon="0.68978">
        <ele>865.96</ele>
        <time>2021-08-01T15:49:32Z</time>
      </trkpt>
      <trkpt lat="42.23892" lon="0.68959">
        <ele>868.13</ele>
        <time>2021-08-01T15:49:35Z</time>
      </trkpt>
      <trkpt lat="42.23864" lon="0.68923">
        <ele>872.47</ele>
        <time>2021-08-01T15:49:41Z</time>
      </trkpt>
      <trkpt lat="42.23834" lon="0.68899">
        <ele>875.96</ele>
        <time>2021-08-01T15:49:46Z</time>
      </trkpt>
      <trkpt lat="42.23809" lon="0.68896">
        <ele>880.36</ele>
        <time>2021-08-01T15:49:50Z</time>
      </trkpt>
      <trkpt lat="42.23803" lon="0.68899">
        <ele>881.28</ele>
        <time>2021-08-01T15:49:51Z</time>
      </trkpt>
      <trkpt lat="42.23777" lon="0.68921">
        <ele>886.47</ele>
        <time>2021-08-01T15:49:56Z</time>
      </trkpt>
      <trkpt lat="42.23752" lon="0.68955">
        <ele>890.96</ele>
        <time>2021-08-01T15:50:01Z</time>
      </trkpt>
      <trkpt lat="42.2373" lon="0.68983">
        <ele>894.28</ele>
        <time>2021-08-01T15:50:06Z</time>
      </trkpt>
      <trkpt lat="42.23713" lon="0.69004">
        <ele>897.29</ele>
        <time>2021-08-01T15:50:14Z</time>
      </trkpt>
      <trkpt lat="42.23677" lon="0.69039">
        <ele>899.73</ele>
        <time>2021-08-01T15:50:26Z</time>
      </trkpt>
      <trkpt lat="42.23628" lon="0.69095">
        <ele>902.87</ele>
        <time>2021-08-01T15:50:38Z</time>
      </trkpt>
      <trkpt lat="42.23594" lon="0.6914">
        <ele>905.67</ele>
        <time>2021-08-01T15:50:46Z</time>
      </trkpt>
      <trkpt lat="42.23578" lon="0.69127">
        <ele>908.94</ele>
        <time>2021-08-01T15:50:51Z</time>
      </trkpt>
      <trkpt lat="42.23579" lon="0.6912">
        <ele>909.7</ele>
        <time>2021-08-01T15:50:52Z</time>
      </trkpt>
      <trkpt lat="42.23586" lon="0.69082">
        <ele>913.6</ele>
        <time>2021-08-01T15:50:57Z</time>
      </trkpt>
      <trkpt lat="42.23593" lon="0.69054">
        <ele>917.01</ele>
        <time>2021-08-01T15:51:01Z</time>
      </trkpt>
      <trkpt lat="42.23606" lon="0.69027">
        <ele>920.86</ele>
        <time>2021-08-01T15:51:06Z</time>
      </trkpt>
      <trkpt lat="42.23614" lon="0.69007">
        <ele>924.3</ele>
        <time>2021-08-01T15:51:10Z</time>
      </trkpt>
      <trkpt lat="42.23623" lon="0.68988">
        <ele>928.01</ele>
        <time>2021-08-01T15:51:15Z</time>
      </trkpt>
      <trkpt lat="42.23635" lon="0.68962">
        <ele>931.49</ele>
        <time>2021-08-01T15:51:21Z</time>
      </trkpt>
      <trkpt lat="42.23645" lon="0.6894">
        <ele>934.55</ele>
        <time>2021-08-01T15:51:26Z</time>
      </trkpt>
      <trkpt lat="42.23654" lon="0.68915">
        <ele>937.76</ele>
        <time>2021-08-01T15:51:31Z</time>
      </trkpt>
      <trkpt lat="42.23665" lon="0.68883">
        <ele>941</ele>
        <time>2021-08-01T15:51:37Z</time>
      </trkpt>
      <trkpt lat="42.23673" lon="0.68851">
        <ele>944.39</ele>
        <time>2021-08-01T15:51:43Z</time>
      </trkpt>
      <trkpt lat="42.23679" lon="0.68818">
        <ele>947.65</ele>
        <time>2021-08-01T15:51:49Z</time>
      </trkpt>
      <trkpt lat="42.23681" lon="0.68784">
        <ele>950.91</ele>
        <time>2021-08-01T15:51:55Z</time>
      </trkpt>
      <trkpt lat="42.23685" lon="0.68745">
        <ele>953.95</ele>
        <time>2021-08-01T15:52:02Z</time>
      </trkpt>
      <trkpt lat="42.23693" lon="0.68698">
        <ele>956.96</ele>
        <time>2021-08-01T15:52:09Z</time>
      </trkpt>
      <trkpt lat="42.23694" lon="0.68688">
        <ele>957.38</ele>
        <time>2021-08-01T15:52:10Z</time>
      </trkpt>
      <trkpt lat="42.23699" lon="0.68581">
        <ele>961.02</ele>
        <time>2021-08-01T15:52:20Z</time>
      </trkpt>
      <trkpt lat="42.23704" lon="0.68507">
        <ele>964.25</ele>
        <time>2021-08-01T15:52:29Z</time>
      </trkpt>
      <trkpt lat="42.23708" lon="0.68429">
        <ele>967.35</ele>
        <time>2021-08-01T15:52:38Z</time>
      </trkpt>
      <trkpt lat="42.23711" lon="0.68404">
        <ele>967.62</ele>
        <time>2021-08-01T15:52:41Z</time>
      </trkpt>
      <trkpt lat="42.23719" lon="0.68371">
        <ele>967.35</ele>
        <time>2021-08-01T15:52:45Z</time>
      </trkpt>
      <trkpt lat="42.23734" lon="0.68341">
        <ele>966.19</ele>
        <time>2021-08-01T15:52:49Z</time>
      </trkpt>
      <trkpt lat="42.23747" lon="0.68304">
        <ele>964.22</ele>
        <time>2021-08-01T15:52:53Z</time>
      </trkpt>
      <trkpt lat="42.23767" lon="0.68221">
        <ele>960.57</ele>
        <time>2021-08-01T15:53:01Z</time>
      </trkpt>
      <trkpt lat="42.2377" lon="0.68202">
        <ele>959.69</ele>
        <time>2021-08-01T15:53:03Z</time>
      </trkpt>
      <trkpt lat="42.2377" lon="0.68168">
        <ele>958.73</ele>
        <time>2021-08-01T15:53:07Z</time>
      </trkpt>
      <trkpt lat="42.23755" lon="0.68123">
        <ele>958.67</ele>
        <time>2021-08-01T15:53:12Z</time>
      </trkpt>
      <trkpt lat="42.2374" lon="0.68089">
        <ele>959.47</ele>
        <time>2021-08-01T15:53:16Z</time>
      </trkpt>
      <trkpt lat="42.2374" lon="0.68042">
        <ele>962.32</ele>
        <time>2021-08-01T15:53:22Z</time>
      </trkpt>
      <trkpt lat="42.23755" lon="0.68014">
        <ele>966.05</ele>
        <time>2021-08-01T15:53:27Z</time>
      </trkpt>
      <trkpt lat="42.23765" lon="0.67991">
        <ele>969.57</ele>
        <time>2021-08-01T15:53:31Z</time>
      </trkpt>
      <trkpt lat="42.23774" lon="0.67968">
        <ele>972.89</ele>
        <time>2021-08-01T15:53:35Z</time>
      </trkpt>
      <trkpt lat="42.2378" lon="0.67951">
        <ele>975.4</ele>
        <time>2021-08-01T15:53:38Z</time>
      </trkpt>
      <trkpt lat="42.23783" lon="0.67913">
        <ele>980</ele>
        <time>2021-08-01T15:53:44Z</time>
      </trkpt>
      <trkpt lat="42.23801" lon="0.67876">
        <ele>983.38</ele>
        <time>2021-08-01T15:53:49Z</time>
      </trkpt>
      <trkpt lat="42.23825" lon="0.67844">
        <ele>987.29</ele>
        <time>2021-08-01T15:53:55Z</time>
      </trkpt>
      <trkpt lat="42.23832" lon="0.67832">
        <ele>988.59</ele>
        <time>2021-08-01T15:53:57Z</time>
      </trkpt>
      <trkpt lat="42.23849" lon="0.67791">
        <ele>992.64</ele>
        <time>2021-08-01T15:54:04Z</time>
      </trkpt>
      <trkpt lat="42.23869" lon="0.6775">
        <ele>995.78</ele>
        <time>2021-08-01T15:54:11Z</time>
      </trkpt>
      <trkpt lat="42.23896" lon="0.67711">
        <ele>998.84</ele>
        <time>2021-08-01T15:54:20Z</time>
      </trkpt>
      <trkpt lat="42.2392" lon="0.67692">
        <ele>1000.88</ele>
        <time>2021-08-01T15:54:28Z</time>
      </trkpt>
      <trkpt lat="42.23954" lon="0.67649">
        <ele>1002.9</ele>
        <time>2021-08-01T15:54:38Z</time>
      </trkpt>
      <trkpt lat="42.23973" lon="0.67626">
        <ele>1005.33</ele>
        <time>2021-08-01T15:54:48Z</time>
      </trkpt>
      <trkpt lat="42.23986" lon="0.67613">
        <ele>1007.6</ele>
        <time>2021-08-01T15:55:00Z</time>
      </trkpt>
      <trkpt lat="42.24024" lon="0.67565">
        <ele>1010.69</ele>
        <time>2021-08-01T15:55:13Z</time>
      </trkpt>
      <trkpt lat="42.2406" lon="0.67513">
        <ele>1013.36</ele>
        <time>2021-08-01T15:55:24Z</time>
      </trkpt>
      <trkpt lat="42.24067" lon="0.67488">
        <ele>1013.91</ele>
        <time>2021-08-01T15:55:29Z</time>
      </trkpt>
      <trkpt lat="42.24067" lon="0.67473">
        <ele>1013.95</ele>
        <time>2021-08-01T15:55:38Z</time>
      </trkpt>
      <trkpt lat="42.24068" lon="0.67471">
        <ele>1013.45</ele>
        <time>2021-08-01T15:55:48Z</time>
      </trkpt>
      <trkpt lat="42.24071" lon="0.67459">
        <ele>1013.21</ele>
        <time>2021-08-01T15:55:52Z</time>
      </trkpt>
      <trkpt lat="42.24089" lon="0.67404">
        <ele>1010.01</ele>
        <time>2021-08-01T15:56:05Z</time>
      </trkpt>
      <trkpt lat="42.24091" lon="0.67398">
        <ele>1008.04</ele>
        <time>2021-08-01T15:56:16Z</time>
      </trkpt>
      <trkpt lat="42.24094" lon="0.67387">
        <ele>1007.92</ele>
        <time>2021-08-01T15:56:18Z</time>
      </trkpt>
      <trkpt lat="42.24097" lon="0.67353">
        <ele>1007.46</ele>
        <time>2021-08-01T15:56:26Z</time>
      </trkpt>
      <trkpt lat="42.24097" lon="0.67356">
        <ele>1006.97</ele>
        <time>2021-08-01T15:56:37Z</time>
      </trkpt>
      <trkpt lat="42.24094" lon="0.67365">
        <ele>1006.71</ele>
        <time>2021-08-01T15:56:46Z</time>
      </trkpt>
      <trkpt lat="42.24086" lon="0.6735">
        <ele>1007.42</ele>
        <time>2021-08-01T15:57:00Z</time>
      </trkpt>
      <trkpt lat="42.24085" lon="0.67349">
        <ele>1009.06</ele>
        <time>2021-08-01T15:57:27Z</time>
      </trkpt>
      <trkpt lat="42.24092" lon="0.67357">
        <ele>1007.22</ele>
        <time>2021-08-01T15:57:55Z</time>
      </trkpt>
      <trkpt lat="42.24094" lon="0.67363">
        <ele>1006.59</ele>
        <time>2021-08-01T15:58:04Z</time>
      </trkpt>
      <trkpt lat="42.24087" lon="0.67409">
        <ele>1008.19</ele>
        <time>2021-08-01T15:58:27Z</time>
      </trkpt>
      <trkpt lat="42.24087" lon="0.67408">
        <ele>1008.37</ele>
        <time>2021-08-01T15:58:28Z</time>
      </trkpt>
      <trkpt lat="42.24089" lon="0.67405">
        <ele>1008.59</ele>
        <time>2021-08-01T15:58:33Z</time>
      </trkpt>
      <trkpt lat="42.24088" lon="0.67405">
        <ele>1008.64</ele>
        <time>2021-08-01T15:58:38Z</time>
      </trkpt>
      <trkpt lat="42.24092" lon="0.674">
        <ele>1009.36</ele>
        <time>2021-08-01T15:58:56Z</time>
      </trkpt>
      <trkpt lat="42.24093" lon="0.67399">
        <ele>1009.67</ele>
        <time>2021-08-01T15:59:20Z</time>
      </trkpt>
      <trkpt lat="42.24093" lon="0.67399">
        <ele>1010.05</ele>
        <time>2021-08-01T15:59:36Z</time>
      </trkpt>
      <trkpt lat="42.24091" lon="0.67401">
        <ele>1009.07</ele>
        <time>2021-08-01T16:03:13Z</time>
      </trkpt>
      <trkpt lat="42.24088" lon="0.674">
        <ele>1009.07</ele>
        <time>2021-08-01T16:03:24Z</time>
      </trkpt>
      <trkpt lat="42.24089" lon="0.67375">
        <ele>1006.04</ele>
        <time>2021-08-01T16:03:33Z</time>
      </trkpt>
      <trkpt lat="42.2409" lon="0.67368">
        <ele>1005.51</ele>
        <time>2021-08-01T16:03:36Z</time>
      </trkpt>
      <trkpt lat="42.24098" lon="0.67348">
        <ele>1004.84</ele>
        <time>2021-08-01T16:03:45Z</time>
      </trkpt>
      <trkpt lat="42.24099" lon="0.67347">
        <ele>1005.19</ele>
        <time>2021-08-01T16:04:53Z</time>
      </trkpt>
      <trkpt lat="42.24102" lon="0.67336">
        <ele>1005.29</ele>
        <time>2021-08-01T16:04:55Z</time>
      </trkpt>
      <trkpt lat="42.24139" lon="0.67259">
        <ele>1006.49</ele>
        <time>2021-08-01T16:05:03Z</time>
      </trkpt>
      <trkpt lat="42.2416" lon="0.67231">
        <ele>1007.37</ele>
        <time>2021-08-01T16:05:08Z</time>
      </trkpt>
      <trkpt lat="42.24173" lon="0.6722">
        <ele>1007.86</ele>
        <time>2021-08-01T16:05:11Z</time>
      </trkpt>
      <trkpt lat="42.24199" lon="0.67191">
        <ele>1009.63</ele>
        <time>2021-08-01T16:05:17Z</time>
      </trkpt>
      <trkpt lat="42.24218" lon="0.67152">
        <ele>1013.18</ele>
        <time>2021-08-01T16:05:23Z</time>
      </trkpt>
      <trkpt lat="42.24242" lon="0.67115">
        <ele>1016.42</ele>
        <time>2021-08-01T16:05:29Z</time>
      </trkpt>
      <trkpt lat="42.24248" lon="0.67096">
        <ele>1018.25</ele>
        <time>2021-08-01T16:05:34Z</time>
      </trkpt>
      <trkpt lat="42.24276" lon="0.67007">
        <ele>1020.9</ele>
        <time>2021-08-01T16:05:43Z</time>
      </trkpt>
      <trkpt lat="42.24317" lon="0.66851">
        <ele>1021.63</ele>
        <time>2021-08-01T16:05:55Z</time>
      </trkpt>
      <trkpt lat="42.24343" lon="0.6674">
        <ele>1021.44</ele>
        <time>2021-08-01T16:06:02Z</time>
      </trkpt>
      <trkpt lat="42.24356" lon="0.66691">
        <ele>1021.27</ele>
        <time>2021-08-01T16:06:05Z</time>
      </trkpt>
      <trkpt lat="42.24391" lon="0.66607">
        <ele>1020.48</ele>
        <time>2021-08-01T16:06:12Z</time>
      </trkpt>
      <trkpt lat="42.24409" lon="0.66595">
        <ele>1020.06</ele>
        <time>2021-08-01T16:06:14Z</time>
      </trkpt>
      <trkpt lat="42.2443" lon="0.66577">
        <ele>1018.87</ele>
        <time>2021-08-01T16:06:18Z</time>
      </trkpt>
      <trkpt lat="42.2444" lon="0.66574">
        <ele>1017.97</ele>
        <time>2021-08-01T16:06:20Z</time>
      </trkpt>
      <trkpt lat="42.24471" lon="0.6655">
        <ele>1016.37</ele>
        <time>2021-08-01T16:06:24Z</time>
      </trkpt>
      <trkpt lat="42.24489" lon="0.66526">
        <ele>1015.78</ele>
        <time>2021-08-01T16:06:26Z</time>
      </trkpt>
      <trkpt lat="42.24517" lon="0.66403">
        <ele>1014.96</ele>
        <time>2021-08-01T16:06:33Z</time>
      </trkpt>
      <trkpt lat="42.24546" lon="0.66309">
        <ele>1013.75</ele>
        <time>2021-08-01T16:06:40Z</time>
      </trkpt>
      <trkpt lat="42.24574" lon="0.66256">
        <ele>1013.02</ele>
        <time>2021-08-01T16:06:46Z</time>
      </trkpt>
      <trkpt lat="42.24587" lon="0.66223">
        <ele>1013.32</ele>
        <time>2021-08-01T16:06:49Z</time>
      </trkpt>
      <trkpt lat="42.24617" lon="0.66185">
        <ele>1014.44</ele>
        <time>2021-08-01T16:06:54Z</time>
      </trkpt>
      <trkpt lat="42.24646" lon="0.6609">
        <ele>1016.66</ele>
        <time>2021-08-01T16:07:01Z</time>
      </trkpt>
      <trkpt lat="42.24651" lon="0.66062">
        <ele>1017.33</ele>
        <time>2021-08-01T16:07:03Z</time>
      </trkpt>
      <trkpt lat="42.24665" lon="0.66025">
        <ele>1018.23</ele>
        <time>2021-08-01T16:07:06Z</time>
      </trkpt>
      <trkpt lat="42.24687" lon="0.65991">
        <ele>1018.75</ele>
        <time>2021-08-01T16:07:09Z</time>
      </trkpt>
      <trkpt lat="42.24718" lon="0.6592">
        <ele>1020.66</ele>
        <time>2021-08-01T16:07:15Z</time>
      </trkpt>
      <trkpt lat="42.24727" lon="0.65876">
        <ele>1023.08</ele>
        <time>2021-08-01T16:07:20Z</time>
      </trkpt>
      <trkpt lat="42.24731" lon="0.65861">
        <ele>1024.21</ele>
        <time>2021-08-01T16:07:22Z</time>
      </trkpt>
      <trkpt lat="42.24743" lon="0.65818">
        <ele>1028.41</ele>
        <time>2021-08-01T16:07:28Z</time>
      </trkpt>
      <trkpt lat="42.24787" lon="0.65763">
        <ele>1032.4</ele>
        <time>2021-08-01T16:07:34Z</time>
      </trkpt>
      <trkpt lat="42.24797" lon="0.65753">
        <ele>1032.89</ele>
        <time>2021-08-01T16:07:35Z</time>
      </trkpt>
      <trkpt lat="42.24825" lon="0.65702">
        <ele>1035.45</ele>
        <time>2021-08-01T16:07:39Z</time>
      </trkpt>
      <trkpt lat="42.24858" lon="0.65582">
        <ele>1038.77</ele>
        <time>2021-08-01T16:07:47Z</time>
      </trkpt>
      <trkpt lat="42.24858" lon="0.65546">
        <ele>1039.1</ele>
        <time>2021-08-01T16:07:49Z</time>
      </trkpt>
      <trkpt lat="42.24868" lon="0.65506">
        <ele>1039.03</ele>
        <time>2021-08-01T16:07:53Z</time>
      </trkpt>
      <trkpt lat="42.24876" lon="0.65411">
        <ele>1036.95</ele>
        <time>2021-08-01T16:08:01Z</time>
      </trkpt>
      <trkpt lat="42.24877" lon="0.65321">
        <ele>1035.09</ele>
        <time>2021-08-01T16:08:07Z</time>
      </trkpt>
      <trkpt lat="42.24888" lon="0.65282">
        <ele>1033.56</ele>
        <time>2021-08-01T16:08:11Z</time>
      </trkpt>
      <trkpt lat="42.249" lon="0.65263">
        <ele>1032.59</ele>
        <time>2021-08-01T16:08:13Z</time>
      </trkpt>
      <trkpt lat="42.24943" lon="0.6524">
        <ele>1029.99</ele>
        <time>2021-08-01T16:08:19Z</time>
      </trkpt>
      <trkpt lat="42.24955" lon="0.65242">
        <ele>1028.93</ele>
        <time>2021-08-01T16:08:25Z</time>
      </trkpt>
      <trkpt lat="42.24954" lon="0.65242">
        <ele>1028.54</ele>
        <time>2021-08-01T16:08:31Z</time>
      </trkpt>
      <trkpt lat="42.2496" lon="0.65244">
        <ele>1028.49</ele>
        <time>2021-08-01T16:08:41Z</time>
      </trkpt>
      <trkpt lat="42.24966" lon="0.65247">
        <ele>1028.69</ele>
        <time>2021-08-01T16:08:44Z</time>
      </trkpt>
      <trkpt lat="42.24986" lon="0.65271">
        <ele>1029.04</ele>
        <time>2021-08-01T16:08:48Z</time>
      </trkpt>
      <trkpt lat="42.25" lon="0.65288">
        <ele>1029.25</ele>
        <time>2021-08-01T16:08:50Z</time>
      </trkpt>
      <trkpt lat="42.25049" lon="0.65291">
        <ele>1029.93</ele>
        <time>2021-08-01T16:08:56Z</time>
      </trkpt>
      <trkpt lat="42.25062" lon="0.6527">
        <ele>1030.12</ele>
        <time>2021-08-01T16:08:58Z</time>
      </trkpt>
      <trkpt lat="42.25093" lon="0.65191">
        <ele>1031.02</ele>
        <time>2021-08-01T16:09:04Z</time>
      </trkpt>
      <trkpt lat="42.25123" lon="0.65128">
        <ele>1031.82</ele>
        <time>2021-08-01T16:09:09Z</time>
      </trkpt>
      <trkpt lat="42.25149" lon="0.65088">
        <ele>1032.18</ele>
        <time>2021-08-01T16:09:13Z</time>
      </trkpt>
      <trkpt lat="42.25166" lon="0.6503">
        <ele>1031.14</ele>
        <time>2021-08-01T16:09:17Z</time>
      </trkpt>
      <trkpt lat="42.25186" lon="0.64911">
        <ele>1032.24</ele>
        <time>2021-08-01T16:09:27Z</time>
      </trkpt>
      <trkpt lat="42.25236" lon="0.64855">
        <ele>1035.07</ele>
        <time>2021-08-01T16:09:34Z</time>
      </trkpt>
      <trkpt lat="42.2526" lon="0.6486">
        <ele>1035.52</ele>
        <time>2021-08-01T16:09:36Z</time>
      </trkpt>
      <trkpt lat="42.25312" lon="0.64875">
        <ele>1036.36</ele>
        <time>2021-08-01T16:09:41Z</time>
      </trkpt>
      <trkpt lat="42.25363" lon="0.64876">
        <ele>1036.73</ele>
        <time>2021-08-01T16:09:47Z</time>
      </trkpt>
      <trkpt lat="42.25404" lon="0.64843">
        <ele>1036.57</ele>
        <time>2021-08-01T16:09:52Z</time>
      </trkpt>
      <trkpt lat="42.25453" lon="0.6483">
        <ele>1038.36</ele>
        <time>2021-08-01T16:09:58Z</time>
      </trkpt>
      <trkpt lat="42.25482" lon="0.64818">
        <ele>1040.77</ele>
        <time>2021-08-01T16:10:04Z</time>
      </trkpt>
      <trkpt lat="42.25502" lon="0.64796">
        <ele>1044.58</ele>
        <time>2021-08-01T16:10:13Z</time>
      </trkpt>
      <trkpt lat="42.25533" lon="0.64776">
        <ele>1045.47</ele>
        <time>2021-08-01T16:10:18Z</time>
      </trkpt>
      <trkpt lat="42.25558" lon="0.6477">
        <ele>1044.89</ele>
        <time>2021-08-01T16:10:26Z</time>
      </trkpt>
      <trkpt lat="42.25585" lon="0.64756">
        <ele>1044.67</ele>
        <time>2021-08-01T16:10:36Z</time>
      </trkpt>
      <trkpt lat="42.25588" lon="0.6473">
        <ele>1045.42</ele>
        <time>2021-08-01T16:10:41Z</time>
      </trkpt>
      <trkpt lat="42.256" lon="0.64697">
        <ele>1046.17</ele>
        <time>2021-08-01T16:10:45Z</time>
      </trkpt>
      <trkpt lat="42.25638" lon="0.64639">
        <ele>1046.56</ele>
        <time>2021-08-01T16:10:51Z</time>
      </trkpt>
      <trkpt lat="42.25705" lon="0.64602">
        <ele>1046.8</ele>
        <time>2021-08-01T16:10:58Z</time>
      </trkpt>
      <trkpt lat="42.25757" lon="0.64575">
        <ele>1046.65</ele>
        <time>2021-08-01T16:11:03Z</time>
      </trkpt>
      <trkpt lat="42.25826" lon="0.64501">
        <ele>1044.37</ele>
        <time>2021-08-01T16:11:10Z</time>
      </trkpt>
      <trkpt lat="42.25839" lon="0.64471">
        <ele>1043.31</ele>
        <time>2021-08-01T16:11:13Z</time>
      </trkpt>
      <trkpt lat="42.25863" lon="0.64445">
        <ele>1041.83</ele>
        <time>2021-08-01T16:11:17Z</time>
      </trkpt>
      <trkpt lat="42.25901" lon="0.6438">
        <ele>1037.56</ele>
        <time>2021-08-01T16:11:24Z</time>
      </trkpt>
      <trkpt lat="42.25906" lon="0.64354">
        <ele>1035.89</ele>
        <time>2021-08-01T16:11:26Z</time>
      </trkpt>
      <trkpt lat="42.25916" lon="0.64316">
        <ele>1033.66</ele>
        <time>2021-08-01T16:11:29Z</time>
      </trkpt>
      <trkpt lat="42.25902" lon="0.64265">
        <ele>1028.97</ele>
        <time>2021-08-01T16:11:34Z</time>
      </trkpt>
      <trkpt lat="42.25876" lon="0.64229">
        <ele>1027.21</ele>
        <time>2021-08-01T16:11:38Z</time>
      </trkpt>
      <trkpt lat="42.25845" lon="0.64174">
        <ele>1027.52</ele>
        <time>2021-08-01T16:11:43Z</time>
      </trkpt>
      <trkpt lat="42.25734" lon="0.64041">
        <ele>1028.31</ele>
        <time>2021-08-01T16:11:52Z</time>
      </trkpt>
      <trkpt lat="42.25662" lon="0.63953">
        <ele>1031.89</ele>
        <time>2021-08-01T16:11:59Z</time>
      </trkpt>
      <trkpt lat="42.2561" lon="0.63897">
        <ele>1035.39</ele>
        <time>2021-08-01T16:12:04Z</time>
      </trkpt>
      <trkpt lat="42.25563" lon="0.6388">
        <ele>1039.55</ele>
        <time>2021-08-01T16:12:09Z</time>
      </trkpt>
      <trkpt lat="42.25542" lon="0.63869">
        <ele>1041.94</ele>
        <time>2021-08-01T16:12:12Z</time>
      </trkpt>
      <trkpt lat="42.25468" lon="0.63815">
        <ele>1046.23</ele>
        <time>2021-08-01T16:12:19Z</time>
      </trkpt>
      <trkpt lat="42.25377" lon="0.63748">
        <ele>1049.33</ele>
        <time>2021-08-01T16:12:26Z</time>
      </trkpt>
      <trkpt lat="42.25343" lon="0.63724">
        <ele>1049.94</ele>
        <time>2021-08-01T16:12:29Z</time>
      </trkpt>
      <trkpt lat="42.25299" lon="0.63709">
        <ele>1050.24</ele>
        <time>2021-08-01T16:12:33Z</time>
      </trkpt>
      <trkpt lat="42.25197" lon="0.63688">
        <ele>1049.38</ele>
        <time>2021-08-01T16:12:42Z</time>
      </trkpt>
      <trkpt lat="42.2517" lon="0.63667">
        <ele>1049.7</ele>
        <time>2021-08-01T16:12:49Z</time>
      </trkpt>
      <trkpt lat="42.25177" lon="0.63616">
        <ele>1049.69</ele>
        <time>2021-08-01T16:12:55Z</time>
      </trkpt>
      <trkpt lat="42.252" lon="0.63547">
        <ele>1048.72</ele>
        <time>2021-08-01T16:13:01Z</time>
      </trkpt>
      <trkpt lat="42.25244" lon="0.63427">
        <ele>1045.15</ele>
        <time>2021-08-01T16:13:09Z</time>
      </trkpt>
      <trkpt lat="42.25289" lon="0.63311">
        <ele>1042.11</ele>
        <time>2021-08-01T16:13:17Z</time>
      </trkpt>
      <trkpt lat="42.25344" lon="0.63223">
        <ele>1038.45</ele>
        <time>2021-08-01T16:13:23Z</time>
      </trkpt>
      <trkpt lat="42.25374" lon="0.63173">
        <ele>1035.34</ele>
        <time>2021-08-01T16:13:26Z</time>
      </trkpt>
      <trkpt lat="42.25392" lon="0.6314">
        <ele>1032.87</ele>
        <time>2021-08-01T16:13:28Z</time>
      </trkpt>
      <trkpt lat="42.25442" lon="0.63088">
        <ele>1027.46</ele>
        <time>2021-08-01T16:13:32Z</time>
      </trkpt>
      <trkpt lat="42.2548" lon="0.63043">
        <ele>1023.48</ele>
        <time>2021-08-01T16:13:35Z</time>
      </trkpt>
      <trkpt lat="42.25519" lon="0.63001">
        <ele>1020.27</ele>
        <time>2021-08-01T16:13:38Z</time>
      </trkpt>
      <trkpt lat="42.25579" lon="0.62936">
        <ele>1017.08</ele>
        <time>2021-08-01T16:13:43Z</time>
      </trkpt>
      <trkpt lat="42.25682" lon="0.6283">
        <ele>1013.53</ele>
        <time>2021-08-01T16:13:50Z</time>
      </trkpt>
      <trkpt lat="42.25708" lon="0.62804">
        <ele>1012.15</ele>
        <time>2021-08-01T16:13:52Z</time>
      </trkpt>
      <trkpt lat="42.25779" lon="0.62761">
        <ele>1008.34</ele>
        <time>2021-08-01T16:13:57Z</time>
      </trkpt>
      <trkpt lat="42.2586" lon="0.62723">
        <ele>1005.23</ele>
        <time>2021-08-01T16:14:03Z</time>
      </trkpt>
      <trkpt lat="42.25899" lon="0.62709">
        <ele>1003.7</ele>
        <time>2021-08-01T16:14:06Z</time>
      </trkpt>
      <trkpt lat="42.25935" lon="0.62662">
        <ele>1000.22</ele>
        <time>2021-08-01T16:14:11Z</time>
      </trkpt>
      <trkpt lat="42.25943" lon="0.62616">
        <ele>997.9</ele>
        <time>2021-08-01T16:14:14Z</time>
      </trkpt>
      <trkpt lat="42.25899" lon="0.62542">
        <ele>994.14</ele>
        <time>2021-08-01T16:14:20Z</time>
      </trkpt>
      <trkpt lat="42.25889" lon="0.62525">
        <ele>993.8</ele>
        <time>2021-08-01T16:14:21Z</time>
      </trkpt>
      <trkpt lat="42.25786" lon="0.62325">
        <ele>993.97</ele>
        <time>2021-08-01T16:14:31Z</time>
      </trkpt>
      <trkpt lat="42.25732" lon="0.62215">
        <ele>993.04</ele>
        <time>2021-08-01T16:14:36Z</time>
      </trkpt>
      <trkpt lat="42.25718" lon="0.62137">
        <ele>991.25</ele>
        <time>2021-08-01T16:14:40Z</time>
      </trkpt>
      <trkpt lat="42.25694" lon="0.62078">
        <ele>990.63</ele>
        <time>2021-08-01T16:14:44Z</time>
      </trkpt>
      <trkpt lat="42.25631" lon="0.61976">
        <ele>994.18</ele>
        <time>2021-08-01T16:14:51Z</time>
      </trkpt>
      <trkpt lat="42.25596" lon="0.61906">
        <ele>997.64</ele>
        <time>2021-08-01T16:14:55Z</time>
      </trkpt>
      <trkpt lat="42.25549" lon="0.61832">
        <ele>1000.85</ele>
        <time>2021-08-01T16:15:01Z</time>
      </trkpt>
      <trkpt lat="42.25513" lon="0.61788">
        <ele>1001.17</ele>
        <time>2021-08-01T16:15:05Z</time>
      </trkpt>
      <trkpt lat="42.25502" lon="0.61725">
        <ele>1000.6</ele>
        <time>2021-08-01T16:15:10Z</time>
      </trkpt>
      <trkpt lat="42.25509" lon="0.61658">
        <ele>999.04</ele>
        <time>2021-08-01T16:15:14Z</time>
      </trkpt>
      <trkpt lat="42.25466" lon="0.61604">
        <ele>996.56</ele>
        <time>2021-08-01T16:15:20Z</time>
      </trkpt>
      <trkpt lat="42.2541" lon="0.61604">
        <ele>993.85</ele>
        <time>2021-08-01T16:15:25Z</time>
      </trkpt>
      <trkpt lat="42.25381" lon="0.61562">
        <ele>991.95</ele>
        <time>2021-08-01T16:15:29Z</time>
      </trkpt>
      <trkpt lat="42.25378" lon="0.61546">
        <ele>991.7</ele>
        <time>2021-08-01T16:15:30Z</time>
      </trkpt>
      <trkpt lat="42.25335" lon="0.61463">
        <ele>990.05</ele>
        <time>2021-08-01T16:15:36Z</time>
      </trkpt>
      <trkpt lat="42.25314" lon="0.61442">
        <ele>989.13</ele>
        <time>2021-08-01T16:15:39Z</time>
      </trkpt>
      <trkpt lat="42.25314" lon="0.61378">
        <ele>987.98</ele>
        <time>2021-08-01T16:15:47Z</time>
      </trkpt>
      <trkpt lat="42.25352" lon="0.61354">
        <ele>987.94</ele>
        <time>2021-08-01T16:15:52Z</time>
      </trkpt>
      <trkpt lat="42.25403" lon="0.61345">
        <ele>987.56</ele>
        <time>2021-08-01T16:15:57Z</time>
      </trkpt>
      <trkpt lat="42.25434" lon="0.61306">
        <ele>987.26</ele>
        <time>2021-08-01T16:16:02Z</time>
      </trkpt>
      <trkpt lat="42.25423" lon="0.61244">
        <ele>987.45</ele>
        <time>2021-08-01T16:16:06Z</time>
      </trkpt>
      <trkpt lat="42.25422" lon="0.61201">
        <ele>987.91</ele>
        <time>2021-08-01T16:16:09Z</time>
      </trkpt>
      <trkpt lat="42.25443" lon="0.61146">
        <ele>989.48</ele>
        <time>2021-08-01T16:16:13Z</time>
      </trkpt>
      <trkpt lat="42.25456" lon="0.61117">
        <ele>990.49</ele>
        <time>2021-08-01T16:16:15Z</time>
      </trkpt>
      <trkpt lat="42.25483" lon="0.6108">
        <ele>991.86</ele>
        <time>2021-08-01T16:16:18Z</time>
      </trkpt>
      <trkpt lat="42.25526" lon="0.61005">
        <ele>993.84</ele>
        <time>2021-08-01T16:16:24Z</time>
      </trkpt>
      <trkpt lat="42.25541" lon="0.60939">
        <ele>993.75</ele>
        <time>2021-08-01T16:16:30Z</time>
      </trkpt>
      <trkpt lat="42.25541" lon="0.60901">
        <ele>992.65</ele>
        <time>2021-08-01T16:16:33Z</time>
      </trkpt>
      <trkpt lat="42.25512" lon="0.60847">
        <ele>992.38</ele>
        <time>2021-08-01T16:16:40Z</time>
      </trkpt>
      <trkpt lat="42.25487" lon="0.60802">
        <ele>993.34</ele>
        <time>2021-08-01T16:16:45Z</time>
      </trkpt>
      <trkpt lat="42.255" lon="0.60755">
        <ele>994.6</ele>
        <time>2021-08-01T16:16:50Z</time>
      </trkpt>
      <trkpt lat="42.25481" lon="0.60723">
        <ele>994.84</ele>
        <time>2021-08-01T16:16:53Z</time>
      </trkpt>
      <trkpt lat="42.25397" lon="0.60606">
        <ele>991.11</ele>
        <time>2021-08-01T16:17:02Z</time>
      </trkpt>
      <trkpt lat="42.25378" lon="0.60579">
        <ele>989.43</ele>
        <time>2021-08-01T16:17:04Z</time>
      </trkpt>
      <trkpt lat="42.25315" lon="0.60526">
        <ele>985.27</ele>
        <time>2021-08-01T16:17:10Z</time>
      </trkpt>
      <trkpt lat="42.25308" lon="0.60519">
        <ele>984.6</ele>
        <time>2021-08-01T16:17:11Z</time>
      </trkpt>
      <trkpt lat="42.25294" lon="0.605">
        <ele>982.12</ele>
        <time>2021-08-01T16:17:15Z</time>
      </trkpt>
      <trkpt lat="42.25294" lon="0.60483">
        <ele>979.71</ele>
        <time>2021-08-01T16:17:22Z</time>
      </trkpt>
      <trkpt lat="42.25294" lon="0.60483">
        <ele>978.65</ele>
        <time>2021-08-01T16:17:31Z</time>
      </trkpt>
      <trkpt lat="42.25315" lon="0.60474">
        <ele>978.5</ele>
        <time>2021-08-01T16:17:35Z</time>
      </trkpt>
      <trkpt lat="42.25358" lon="0.60445">
        <ele>978.52</ele>
        <time>2021-08-01T16:17:39Z</time>
      </trkpt>
      <trkpt lat="42.25383" lon="0.60419">
        <ele>978.65</ele>
        <time>2021-08-01T16:17:41Z</time>
      </trkpt>
      <trkpt lat="42.25451" lon="0.60298">
        <ele>979.59</ele>
        <time>2021-08-01T16:17:48Z</time>
      </trkpt>
      <trkpt lat="42.25496" lon="0.60258">
        <ele>980.2</ele>
        <time>2021-08-01T16:17:52Z</time>
      </trkpt>
      <trkpt lat="42.25591" lon="0.60193">
        <ele>981.76</ele>
        <time>2021-08-01T16:18:01Z</time>
      </trkpt>
      <trkpt lat="42.25637" lon="0.60171">
        <ele>981.23</ele>
        <time>2021-08-01T16:18:05Z</time>
      </trkpt>
      <trkpt lat="42.257" lon="0.60167">
        <ele>979.76</ele>
        <time>2021-08-01T16:18:10Z</time>
      </trkpt>
      <trkpt lat="42.2575" lon="0.60141">
        <ele>978.49</ele>
        <time>2021-08-01T16:18:14Z</time>
      </trkpt>
      <trkpt lat="42.25909" lon="0.59985">
        <ele>979.2</ele>
        <time>2021-08-01T16:18:25Z</time>
      </trkpt>
      <trkpt lat="42.25937" lon="0.59956">
        <ele>979.64</ele>
        <time>2021-08-01T16:18:27Z</time>
      </trkpt>
      <trkpt lat="42.25969" lon="0.59878">
        <ele>980.33</ele>
        <time>2021-08-01T16:18:31Z</time>
      </trkpt>
      <trkpt lat="42.25994" lon="0.59795">
        <ele>980.16</ele>
        <time>2021-08-01T16:18:36Z</time>
      </trkpt>
      <trkpt lat="42.26042" lon="0.59764">
        <ele>978.82</ele>
        <time>2021-08-01T16:18:42Z</time>
      </trkpt>
      <trkpt lat="42.2605" lon="0.59769">
        <ele>978.66</ele>
        <time>2021-08-01T16:18:43Z</time>
      </trkpt>
      <trkpt lat="42.26109" lon="0.59795">
        <ele>978.64</ele>
        <time>2021-08-01T16:18:51Z</time>
      </trkpt>
      <trkpt lat="42.26111" lon="0.59798">
        <ele>978.86</ele>
        <time>2021-08-01T16:18:58Z</time>
      </trkpt>
      <trkpt lat="42.26111" lon="0.59798">
        <ele>978.43</ele>
        <time>2021-08-01T16:19:20Z</time>
      </trkpt>
      <trkpt lat="42.26122" lon="0.59812">
        <ele>979</ele>
        <time>2021-08-01T16:19:29Z</time>
      </trkpt>
      <trkpt lat="42.26147" lon="0.59857">
        <ele>979.27</ele>
        <time>2021-08-01T16:19:37Z</time>
      </trkpt>
      <trkpt lat="42.26173" lon="0.59904">
        <ele>979.97</ele>
        <time>2021-08-01T16:19:42Z</time>
      </trkpt>
      <trkpt lat="42.26177" lon="0.59944">
        <ele>980.92</ele>
        <time>2021-08-01T16:19:46Z</time>
      </trkpt>
      <trkpt lat="42.26165" lon="0.60027">
        <ele>984.23</ele>
        <time>2021-08-01T16:19:54Z</time>
      </trkpt>
      <trkpt lat="42.26184" lon="0.60059">
        <ele>988.3</ele>
        <time>2021-08-01T16:20:00Z</time>
      </trkpt>
      <trkpt lat="42.26191" lon="0.60055">
        <ele>989.03</ele>
        <time>2021-08-01T16:20:01Z</time>
      </trkpt>
      <trkpt lat="42.26228" lon="0.60031">
        <ele>992.27</ele>
        <time>2021-08-01T16:20:06Z</time>
      </trkpt>
      <trkpt lat="42.26264" lon="0.60039">
        <ele>996.36</ele>
        <time>2021-08-01T16:20:12Z</time>
      </trkpt>
      <trkpt lat="42.26269" lon="0.60047">
        <ele>996.89</ele>
        <time>2021-08-01T16:20:13Z</time>
      </trkpt>
      <trkpt lat="42.26309" lon="0.60115">
        <ele>1000.57</ele>
        <time>2021-08-01T16:20:22Z</time>
      </trkpt>
      <trkpt lat="42.26334" lon="0.60174">
        <ele>1000.37</ele>
        <time>2021-08-01T16:20:28Z</time>
      </trkpt>
      <trkpt lat="42.26379" lon="0.60196">
        <ele>998.84</ele>
        <time>2021-08-01T16:20:33Z</time>
      </trkpt>
      <trkpt lat="42.2648" lon="0.60204">
        <ele>995.36</ele>
        <time>2021-08-01T16:20:43Z</time>
      </trkpt>
      <trkpt lat="42.26529" lon="0.60193">
        <ele>993.79</ele>
        <time>2021-08-01T16:20:48Z</time>
      </trkpt>
      <trkpt lat="42.26545" lon="0.60181">
        <ele>993.15</ele>
        <time>2021-08-01T16:20:50Z</time>
      </trkpt>
      <trkpt lat="42.26594" lon="0.60184">
        <ele>991.23</ele>
        <time>2021-08-01T16:20:56Z</time>
      </trkpt>
      <trkpt lat="42.2665" lon="0.60209">
        <ele>990.77</ele>
        <time>2021-08-01T16:21:04Z</time>
      </trkpt>
      <trkpt lat="42.26697" lon="0.60204">
        <ele>991.5</ele>
        <time>2021-08-01T16:21:10Z</time>
      </trkpt>
      <trkpt lat="42.26737" lon="0.60218">
        <ele>993.28</ele>
        <time>2021-08-01T16:21:14Z</time>
      </trkpt>
      <trkpt lat="42.2678" lon="0.60243">
        <ele>995.6</ele>
        <time>2021-08-01T16:21:18Z</time>
      </trkpt>
      <trkpt lat="42.26841" lon="0.60293">
        <ele>999.83</ele>
        <time>2021-08-01T16:21:24Z</time>
      </trkpt>
      <trkpt lat="42.26881" lon="0.60324">
        <ele>1003.21</ele>
        <time>2021-08-01T16:21:28Z</time>
      </trkpt>
      <trkpt lat="42.2689" lon="0.60332">
        <ele>1004.01</ele>
        <time>2021-08-01T16:21:29Z</time>
      </trkpt>
      <trkpt lat="42.26939" lon="0.60339">
        <ele>1007.79</ele>
        <time>2021-08-01T16:21:34Z</time>
      </trkpt>
      <trkpt lat="42.2695" lon="0.60339">
        <ele>1008.78</ele>
        <time>2021-08-01T16:21:35Z</time>
      </trkpt>
      <trkpt lat="42.27009" lon="0.60354">
        <ele>1013.88</ele>
        <time>2021-08-01T16:21:40Z</time>
      </trkpt>
      <trkpt lat="42.27034" lon="0.60361">
        <ele>1015.44</ele>
        <time>2021-08-01T16:21:42Z</time>
      </trkpt>
      <trkpt lat="42.27073" lon="0.60398">
        <ele>1018.5</ele>
        <time>2021-08-01T16:21:46Z</time>
      </trkpt>
      <trkpt lat="42.27114" lon="0.60405">
        <ele>1021.73</ele>
        <time>2021-08-01T16:21:50Z</time>
      </trkpt>
      <trkpt lat="42.27176" lon="0.60396">
        <ele>1026.45</ele>
        <time>2021-08-01T16:21:55Z</time>
      </trkpt>
      <trkpt lat="42.27217" lon="0.604">
        <ele>1029.55</ele>
        <time>2021-08-01T16:21:58Z</time>
      </trkpt>
      <trkpt lat="42.27244" lon="0.60396">
        <ele>1031.49</ele>
        <time>2021-08-01T16:22:00Z</time>
      </trkpt>
      <trkpt lat="42.27306" lon="0.60395">
        <ele>1036.53</ele>
        <time>2021-08-01T16:22:05Z</time>
      </trkpt>
      <trkpt lat="42.27357" lon="0.604">
        <ele>1041.06</ele>
        <time>2021-08-01T16:22:09Z</time>
      </trkpt>
      <trkpt lat="42.27403" lon="0.60446">
        <ele>1045.29</ele>
        <time>2021-08-01T16:22:14Z</time>
      </trkpt>
      <trkpt lat="42.27426" lon="0.60497">
        <ele>1048.3</ele>
        <time>2021-08-01T16:22:18Z</time>
      </trkpt>
      <trkpt lat="42.27456" lon="0.60565">
        <ele>1052.5</ele>
        <time>2021-08-01T16:22:23Z</time>
      </trkpt>
      <trkpt lat="42.27461" lon="0.60599">
        <ele>1055.27</ele>
        <time>2021-08-01T16:22:26Z</time>
      </trkpt>
      <trkpt lat="42.27476" lon="0.60648">
        <ele>1059.42</ele>
        <time>2021-08-01T16:22:31Z</time>
      </trkpt>
      <trkpt lat="42.27489" lon="0.60692">
        <ele>1061.31</ele>
        <time>2021-08-01T16:22:35Z</time>
      </trkpt>
      <trkpt lat="42.27488" lon="0.60793">
        <ele>1064.1</ele>
        <time>2021-08-01T16:22:43Z</time>
      </trkpt>
      <trkpt lat="42.27478" lon="0.6083">
        <ele>1065.07</ele>
        <time>2021-08-01T16:22:46Z</time>
      </trkpt>
      <trkpt lat="42.27481" lon="0.60928">
        <ele>1067.71</ele>
        <time>2021-08-01T16:22:53Z</time>
      </trkpt>
      <trkpt lat="42.27517" lon="0.60996">
        <ele>1069.72</ele>
        <time>2021-08-01T16:22:58Z</time>
      </trkpt>
      <trkpt lat="42.27556" lon="0.61021">
        <ele>1072.18</ele>
        <time>2021-08-01T16:23:03Z</time>
      </trkpt>
      <trkpt lat="42.27587" lon="0.6106">
        <ele>1074.1</ele>
        <time>2021-08-01T16:23:07Z</time>
      </trkpt>
      <trkpt lat="42.27628" lon="0.61098">
        <ele>1076</ele>
        <time>2021-08-01T16:23:11Z</time>
      </trkpt>
      <trkpt lat="42.2765" lon="0.61112">
        <ele>1077.39</ele>
        <time>2021-08-01T16:23:13Z</time>
      </trkpt>
      <trkpt lat="42.27681" lon="0.61167">
        <ele>1080.6</ele>
        <time>2021-08-01T16:23:18Z</time>
      </trkpt>
      <trkpt lat="42.27727" lon="0.61283">
        <ele>1084.65</ele>
        <time>2021-08-01T16:23:27Z</time>
      </trkpt>
      <trkpt lat="42.27739" lon="0.61312">
        <ele>1085.19</ele>
        <time>2021-08-01T16:23:29Z</time>
      </trkpt>
      <trkpt lat="42.27791" lon="0.61344">
        <ele>1086.17</ele>
        <time>2021-08-01T16:23:35Z</time>
      </trkpt>
      <trkpt lat="42.27814" lon="0.6134">
        <ele>1086.54</ele>
        <time>2021-08-01T16:23:37Z</time>
      </trkpt>
      <trkpt lat="42.27862" lon="0.61351">
        <ele>1087.05</ele>
        <time>2021-08-01T16:23:41Z</time>
      </trkpt>
      <trkpt lat="42.27883" lon="0.61364">
        <ele>1087.24</ele>
        <time>2021-08-01T16:23:43Z</time>
      </trkpt>
      <trkpt lat="42.27917" lon="0.61374">
        <ele>1088.24</ele>
        <time>2021-08-01T16:23:46Z</time>
      </trkpt>
      <trkpt lat="42.27985" lon="0.61433">
        <ele>1092.09</ele>
        <time>2021-08-01T16:23:52Z</time>
      </trkpt>
      <trkpt lat="42.27997" lon="0.61445">
        <ele>1092.81</ele>
        <time>2021-08-01T16:23:53Z</time>
      </trkpt>
      <trkpt lat="42.28074" lon="0.61548">
        <ele>1096.86</ele>
        <time>2021-08-01T16:24:00Z</time>
      </trkpt>
      <trkpt lat="42.28084" lon="0.61559">
        <ele>1097.4</ele>
        <time>2021-08-01T16:24:01Z</time>
      </trkpt>
      <trkpt lat="42.28105" lon="0.61573">
        <ele>1098.37</ele>
        <time>2021-08-01T16:24:03Z</time>
      </trkpt>
      <trkpt lat="42.28124" lon="0.61601">
        <ele>1099.64</ele>
        <time>2021-08-01T16:24:06Z</time>
      </trkpt>
      <trkpt lat="42.2816" lon="0.61669">
        <ele>1100.61</ele>
        <time>2021-08-01T16:24:12Z</time>
      </trkpt>
      <trkpt lat="42.28176" lon="0.61719">
        <ele>1100.76</ele>
        <time>2021-08-01T16:24:17Z</time>
      </trkpt>
      <trkpt lat="42.28186" lon="0.61764">
        <ele>1100.98</ele>
        <time>2021-08-01T16:24:21Z</time>
      </trkpt>
      <trkpt lat="42.28207" lon="0.61797">
        <ele>1101.82</ele>
        <time>2021-08-01T16:24:24Z</time>
      </trkpt>
      <trkpt lat="42.28215" lon="0.61806">
        <ele>1102.09</ele>
        <time>2021-08-01T16:24:25Z</time>
      </trkpt>
      <trkpt lat="42.28223" lon="0.61814">
        <ele>1102.37</ele>
        <time>2021-08-01T16:24:26Z</time>
      </trkpt>
      <trkpt lat="42.28233" lon="0.61817">
        <ele>1102.7</ele>
        <time>2021-08-01T16:24:27Z</time>
      </trkpt>
      <trkpt lat="42.28272" lon="0.61801">
        <ele>1103.94</ele>
        <time>2021-08-01T16:24:31Z</time>
      </trkpt>
      <trkpt lat="42.28337" lon="0.61762">
        <ele>1106.14</ele>
        <time>2021-08-01T16:24:37Z</time>
      </trkpt>
      <trkpt lat="42.28379" lon="0.61738">
        <ele>1107.26</ele>
        <time>2021-08-01T16:24:41Z</time>
      </trkpt>
      <trkpt lat="42.28418" lon="0.61723">
        <ele>1108.66</ele>
        <time>2021-08-01T16:24:45Z</time>
      </trkpt>
      <trkpt lat="42.28462" lon="0.61668">
        <ele>1111.33</ele>
        <time>2021-08-01T16:24:52Z</time>
      </trkpt>
      <trkpt lat="42.28484" lon="0.61636">
        <ele>1113.83</ele>
        <time>2021-08-01T16:25:00Z</time>
      </trkpt>
      <trkpt lat="42.28499" lon="0.61611">
        <ele>1115.91</ele>
        <time>2021-08-01T16:25:05Z</time>
      </trkpt>
      <trkpt lat="42.28544" lon="0.61548">
        <ele>1119.02</ele>
        <time>2021-08-01T16:25:14Z</time>
      </trkpt>
      <trkpt lat="42.28598" lon="0.61462">
        <ele>1122.12</ele>
        <time>2021-08-01T16:25:23Z</time>
      </trkpt>
      <trkpt lat="42.28602" lon="0.61454">
        <ele>1122.47</ele>
        <time>2021-08-01T16:25:24Z</time>
      </trkpt>
      <trkpt lat="42.28621" lon="0.61442">
        <ele>1123.47</ele>
        <time>2021-08-01T16:25:28Z</time>
      </trkpt>
      <trkpt lat="42.28686" lon="0.61455">
        <ele>1124.3</ele>
        <time>2021-08-01T16:25:38Z</time>
      </trkpt>
      <trkpt lat="42.28714" lon="0.61464">
        <ele>1124.51</ele>
        <time>2021-08-01T16:25:42Z</time>
      </trkpt>
      <trkpt lat="42.2877" lon="0.61456">
        <ele>1124.89</ele>
        <time>2021-08-01T16:25:50Z</time>
      </trkpt>
      <trkpt lat="42.28823" lon="0.61481">
        <ele>1122.39</ele>
        <time>2021-08-01T16:26:00Z</time>
      </trkpt>
      <trkpt lat="42.28888" lon="0.61504">
        <ele>1120.13</ele>
        <time>2021-08-01T16:26:10Z</time>
      </trkpt>
      <trkpt lat="42.28895" lon="0.61507">
        <ele>1120.1</ele>
        <time>2021-08-01T16:26:11Z</time>
      </trkpt>
      <trkpt lat="42.28909" lon="0.61512">
        <ele>1120.43</ele>
        <time>2021-08-01T16:26:13Z</time>
      </trkpt>
      <trkpt lat="42.28921" lon="0.61529">
        <ele>1122.19</ele>
        <time>2021-08-01T16:26:17Z</time>
      </trkpt>
      <trkpt lat="42.2893" lon="0.61556">
        <ele>1125.3</ele>
        <time>2021-08-01T16:26:23Z</time>
      </trkpt>
      <trkpt lat="42.28983" lon="0.61515">
        <ele>1182.7</ele>
      </trkpt>
    </trkseg>
  </trk>
  <trk>
    <name><![CDATA[J5]]></name>
    <extensions>
      <line xmlns="http://www.topografix.com/GPX/gpx_style/0/2">
        <color>0000FF</color>
        <width>4</width>
      </line>
    </extensions>
    <trkseg>
      <trkpt lat="42.32742" lon="-0.25969">
        <ele>976.21</ele>
        <time>2021-08-03T09:23:44Z</time>
      </trkpt>
      <trkpt lat="42.32742" lon="-0.25969">
        <ele>976.21</ele>
        <time>2021-08-03T09:23:44Z</time>
      </trkpt>
      <trkpt lat="42.32742" lon="-0.25969">
        <ele>976.12</ele>
        <time>2021-08-03T09:23:45Z</time>
      </trkpt>
      <trkpt lat="42.32743" lon="-0.25969">
        <ele>976.15</ele>
        <time>2021-08-03T09:23:48Z</time>
      </trkpt>
      <trkpt lat="42.32736" lon="-0.25999">
        <ele>976.48</ele>
        <time>2021-08-03T09:23:54Z</time>
      </trkpt>
      <trkpt lat="42.32728" lon="-0.26051">
        <ele>977.61</ele>
        <time>2021-08-03T09:23:59Z</time>
      </trkpt>
      <trkpt lat="42.32689" lon="-0.26104">
        <ele>981.06</ele>
        <time>2021-08-03T09:24:08Z</time>
      </trkpt>
      <trkpt lat="42.32683" lon="-0.26103">
        <ele>981.53</ele>
        <time>2021-08-03T09:24:09Z</time>
      </trkpt>
      <trkpt lat="42.32651" lon="-0.26115">
        <ele>985.06</ele>
        <time>2021-08-03T09:24:15Z</time>
      </trkpt>
      <trkpt lat="42.32627" lon="-0.26139">
        <ele>986.94</ele>
        <time>2021-08-03T09:24:19Z</time>
      </trkpt>
      <trkpt lat="42.32582" lon="-0.26189">
        <ele>990.72</ele>
        <time>2021-08-03T09:24:25Z</time>
      </trkpt>
      <trkpt lat="42.32566" lon="-0.26211">
        <ele>992.15</ele>
        <time>2021-08-03T09:24:27Z</time>
      </trkpt>
      <trkpt lat="42.32534" lon="-0.26292">
        <ele>995.94</ele>
        <time>2021-08-03T09:24:32Z</time>
      </trkpt>
      <trkpt lat="42.32522" lon="-0.2637">
        <ele>1000.02</ele>
        <time>2021-08-03T09:24:36Z</time>
      </trkpt>
      <trkpt lat="42.3252" lon="-0.26391">
        <ele>1001.18</ele>
        <time>2021-08-03T09:24:37Z</time>
      </trkpt>
      <trkpt lat="42.32518" lon="-0.26446">
        <ele>1004.57</ele>
        <time>2021-08-03T09:24:40Z</time>
      </trkpt>
      <trkpt lat="42.32481" lon="-0.26482">
        <ele>1009.35</ele>
        <time>2021-08-03T09:24:45Z</time>
      </trkpt>
      <trkpt lat="42.32469" lon="-0.26481">
        <ele>1010.18</ele>
        <time>2021-08-03T09:24:46Z</time>
      </trkpt>
      <trkpt lat="42.32447" lon="-0.2648">
        <ele>1011.96</ele>
        <time>2021-08-03T09:24:48Z</time>
      </trkpt>
      <trkpt lat="42.32416" lon="-0.26513">
        <ele>1015.26</ele>
        <time>2021-08-03T09:24:53Z</time>
      </trkpt>
      <trkpt lat="42.32396" lon="-0.26544">
        <ele>1017.39</ele>
        <time>2021-08-03T09:24:56Z</time>
      </trkpt>
      <trkpt lat="42.32404" lon="-0.26598">
        <ele>1021.17</ele>
        <time>2021-08-03T09:25:01Z</time>
      </trkpt>
      <trkpt lat="42.32412" lon="-0.26607">
        <ele>1021.82</ele>
        <time>2021-08-03T09:25:02Z</time>
      </trkpt>
      <trkpt lat="42.32433" lon="-0.26668">
        <ele>1025.59</ele>
        <time>2021-08-03T09:25:07Z</time>
      </trkpt>
      <trkpt lat="42.32428" lon="-0.26698">
        <ele>1027.15</ele>
        <time>2021-08-03T09:25:09Z</time>
      </trkpt>
      <trkpt lat="42.32397" lon="-0.26753">
        <ele>1031.18</ele>
        <time>2021-08-03T09:25:14Z</time>
      </trkpt>
      <trkpt lat="42.32395" lon="-0.26764">
        <ele>1031.86</ele>
        <time>2021-08-03T09:25:15Z</time>
      </trkpt>
      <trkpt lat="42.32367" lon="-0.26797">
        <ele>1035.33</ele>
        <time>2021-08-03T09:25:20Z</time>
      </trkpt>
      <trkpt lat="42.32327" lon="-0.26828">
        <ele>1038.76</ele>
        <time>2021-08-03T09:25:25Z</time>
      </trkpt>
      <trkpt lat="42.32265" lon="-0.26832">
        <ele>1041.91</ele>
        <time>2021-08-03T09:25:32Z</time>
      </trkpt>
      <trkpt lat="42.32224" lon="-0.26799">
        <ele>1042.97</ele>
        <time>2021-08-03T09:25:38Z</time>
      </trkpt>
      <trkpt lat="42.32193" lon="-0.26743">
        <ele>1044.34</ele>
        <time>2021-08-03T09:25:44Z</time>
      </trkpt>
      <trkpt lat="42.32155" lon="-0.26722">
        <ele>1045.77</ele>
        <time>2021-08-03T09:25:49Z</time>
      </trkpt>
      <trkpt lat="42.32141" lon="-0.26734">
        <ele>1046.36</ele>
        <time>2021-08-03T09:25:51Z</time>
      </trkpt>
      <trkpt lat="42.32101" lon="-0.26749">
        <ele>1049.23</ele>
        <time>2021-08-03T09:25:57Z</time>
      </trkpt>
      <trkpt lat="42.3202" lon="-0.26738">
        <ele>1053.09</ele>
        <time>2021-08-03T09:26:05Z</time>
      </trkpt>
      <trkpt lat="42.31985" lon="-0.26705">
        <ele>1055.36</ele>
        <time>2021-08-03T09:26:09Z</time>
      </trkpt>
      <trkpt lat="42.31938" lon="-0.2668">
        <ele>1059.09</ele>
        <time>2021-08-03T09:26:15Z</time>
      </trkpt>
      <trkpt lat="42.31882" lon="-0.26689">
        <ele>1062.91</ele>
        <time>2021-08-03T09:26:21Z</time>
      </trkpt>
      <trkpt lat="42.31856" lon="-0.26696">
        <ele>1065.2</ele>
        <time>2021-08-03T09:26:24Z</time>
      </trkpt>
      <trkpt lat="42.31827" lon="-0.26721">
        <ele>1068.4</ele>
        <time>2021-08-03T09:26:28Z</time>
      </trkpt>
      <trkpt lat="42.31784" lon="-0.26766">
        <ele>1072.15</ele>
        <time>2021-08-03T09:26:33Z</time>
      </trkpt>
      <trkpt lat="42.3173" lon="-0.26831">
        <ele>1075.79</ele>
        <time>2021-08-03T09:26:39Z</time>
      </trkpt>
      <trkpt lat="42.31708" lon="-0.26922">
        <ele>1079.5</ele>
        <time>2021-08-03T09:26:45Z</time>
      </trkpt>
      <trkpt lat="42.31708" lon="-0.26956">
        <ele>1080.78</ele>
        <time>2021-08-03T09:26:47Z</time>
      </trkpt>
      <trkpt lat="42.31724" lon="-0.27033">
        <ele>1083.74</ele>
        <time>2021-08-03T09:26:52Z</time>
      </trkpt>
      <trkpt lat="42.31759" lon="-0.27141">
        <ele>1086.69</ele>
        <time>2021-08-03T09:26:59Z</time>
      </trkpt>
      <trkpt lat="42.3181" lon="-0.27205">
        <ele>1088.9</ele>
        <time>2021-08-03T09:27:05Z</time>
      </trkpt>
      <trkpt lat="42.31855" lon="-0.27253">
        <ele>1090.98</ele>
        <time>2021-08-03T09:27:11Z</time>
      </trkpt>
      <trkpt lat="42.31829" lon="-0.27292">
        <ele>1092.32</ele>
        <time>2021-08-03T09:27:15Z</time>
      </trkpt>
      <trkpt lat="42.31786" lon="-0.27326">
        <ele>1093.84</ele>
        <time>2021-08-03T09:27:19Z</time>
      </trkpt>
      <trkpt lat="42.31768" lon="-0.2735">
        <ele>1094.85</ele>
        <time>2021-08-03T09:27:21Z</time>
      </trkpt>
      <trkpt lat="42.31727" lon="-0.27383">
        <ele>1097.24</ele>
        <time>2021-08-03T09:27:25Z</time>
      </trkpt>
      <trkpt lat="42.31689" lon="-0.27459">
        <ele>1101.21</ele>
        <time>2021-08-03T09:27:31Z</time>
      </trkpt>
      <trkpt lat="42.31687" lon="-0.27506">
        <ele>1103.81</ele>
        <time>2021-08-03T09:27:34Z</time>
      </trkpt>
      <trkpt lat="42.31688" lon="-0.27592">
        <ele>1107.93</ele>
        <time>2021-08-03T09:27:39Z</time>
      </trkpt>
      <trkpt lat="42.3169" lon="-0.27664">
        <ele>1111.73</ele>
        <time>2021-08-03T09:27:43Z</time>
      </trkpt>
      <trkpt lat="42.31689" lon="-0.27707">
        <ele>1113.87</ele>
        <time>2021-08-03T09:27:46Z</time>
      </trkpt>
      <trkpt lat="42.31695" lon="-0.27752">
        <ele>1116.33</ele>
        <time>2021-08-03T09:27:50Z</time>
      </trkpt>
      <trkpt lat="42.31671" lon="-0.27782">
        <ele>1119.74</ele>
        <time>2021-08-03T09:27:56Z</time>
      </trkpt>
      <trkpt lat="42.31644" lon="-0.2775">
        <ele>1121.91</ele>
        <time>2021-08-03T09:28:00Z</time>
      </trkpt>
      <trkpt lat="42.31623" lon="-0.27739">
        <ele>1124.6</ele>
        <time>2021-08-03T09:28:06Z</time>
      </trkpt>
      <trkpt lat="42.31642" lon="-0.27779">
        <ele>1126.57</ele>
        <time>2021-08-03T09:28:11Z</time>
      </trkpt>
      <trkpt lat="42.31663" lon="-0.27868">
        <ele>1129.37</ele>
        <time>2021-08-03T09:28:17Z</time>
      </trkpt>
      <trkpt lat="42.31693" lon="-0.27879">
        <ele>1132.99</ele>
        <time>2021-08-03T09:28:23Z</time>
      </trkpt>
      <trkpt lat="42.31731" lon="-0.27891">
        <ele>1136.51</ele>
        <time>2021-08-03T09:28:29Z</time>
      </trkpt>
      <trkpt lat="42.31732" lon="-0.279">
        <ele>1137.03</ele>
        <time>2021-08-03T09:28:30Z</time>
      </trkpt>
      <trkpt lat="42.31757" lon="-0.27915">
        <ele>1140.59</ele>
        <time>2021-08-03T09:28:37Z</time>
      </trkpt>
      <trkpt lat="42.31796" lon="-0.27923">
        <ele>1143.03</ele>
        <time>2021-08-03T09:28:42Z</time>
      </trkpt>
      <trkpt lat="42.31812" lon="-0.27991">
        <ele>1145.86</ele>
        <time>2021-08-03T09:28:47Z</time>
      </trkpt>
      <trkpt lat="42.31814" lon="-0.28098">
        <ele>1150.08</ele>
        <time>2021-08-03T09:28:53Z</time>
      </trkpt>
      <trkpt lat="42.31816" lon="-0.28113">
        <ele>1150.84</ele>
        <time>2021-08-03T09:28:54Z</time>
      </trkpt>
      <trkpt lat="42.31794" lon="-0.28168">
        <ele>1154.95</ele>
        <time>2021-08-03T09:28:59Z</time>
      </trkpt>
      <trkpt lat="42.31759" lon="-0.28201">
        <ele>1157.13</ele>
        <time>2021-08-03T09:29:03Z</time>
      </trkpt>
      <trkpt lat="42.31742" lon="-0.2823">
        <ele>1159.09</ele>
        <time>2021-08-03T09:29:06Z</time>
      </trkpt>
      <trkpt lat="42.317" lon="-0.28278">
        <ele>1163.21</ele>
        <time>2021-08-03T09:29:11Z</time>
      </trkpt>
      <trkpt lat="42.31689" lon="-0.28305">
        <ele>1164.06</ele>
        <time>2021-08-03T09:29:13Z</time>
      </trkpt>
      <trkpt lat="42.31659" lon="-0.28438">
        <ele>1166.32</ele>
        <time>2021-08-03T09:29:22Z</time>
      </trkpt>
      <trkpt lat="42.31631" lon="-0.28614">
        <ele>1164.9</ele>
        <time>2021-08-03T09:29:32Z</time>
      </trkpt>
      <trkpt lat="42.31641" lon="-0.28723">
        <ele>1160.99</ele>
        <time>2021-08-03T09:29:38Z</time>
      </trkpt>
      <trkpt lat="42.31656" lon="-0.2879">
        <ele>1157.17</ele>
        <time>2021-08-03T09:29:42Z</time>
      </trkpt>
      <trkpt lat="42.31665" lon="-0.28822">
        <ele>1155.15</ele>
        <time>2021-08-03T09:29:44Z</time>
      </trkpt>
      <trkpt lat="42.31662" lon="-0.28904">
        <ele>1150.57</ele>
        <time>2021-08-03T09:29:49Z</time>
      </trkpt>
      <trkpt lat="42.31639" lon="-0.28984">
        <ele>1145.84</ele>
        <time>2021-08-03T09:29:54Z</time>
      </trkpt>
      <trkpt lat="42.31626" lon="-0.29013">
        <ele>1143.89</ele>
        <time>2021-08-03T09:29:56Z</time>
      </trkpt>
      <trkpt lat="42.31597" lon="-0.29047">
        <ele>1139.69</ele>
        <time>2021-08-03T09:30:00Z</time>
      </trkpt>
      <trkpt lat="42.31576" lon="-0.29052">
        <ele>1137.54</ele>
        <time>2021-08-03T09:30:02Z</time>
      </trkpt>
      <trkpt lat="42.31533" lon="-0.2907">
        <ele>1133.95</ele>
        <time>2021-08-03T09:30:06Z</time>
      </trkpt>
      <trkpt lat="42.31492" lon="-0.29077">
        <ele>1130.55</ele>
        <time>2021-08-03T09:30:10Z</time>
      </trkpt>
      <trkpt lat="42.31476" lon="-0.29135">
        <ele>1126.98</ele>
        <time>2021-08-03T09:30:16Z</time>
      </trkpt>
      <trkpt lat="42.31458" lon="-0.29174">
        <ele>1124.37</ele>
        <time>2021-08-03T09:30:21Z</time>
      </trkpt>
      <trkpt lat="42.31402" lon="-0.29192">
        <ele>1121.1</ele>
        <time>2021-08-03T09:30:26Z</time>
      </trkpt>
      <trkpt lat="42.31375" lon="-0.29209">
        <ele>1119.16</ele>
        <time>2021-08-03T09:30:29Z</time>
      </trkpt>
      <trkpt lat="42.31354" lon="-0.29232">
        <ele>1114.85</ele>
        <time>2021-08-03T09:30:35Z</time>
      </trkpt>
      <trkpt lat="42.31373" lon="-0.29229">
        <ele>1113.23</ele>
        <time>2021-08-03T09:30:38Z</time>
      </trkpt>
      <trkpt lat="42.31419" lon="-0.29203">
        <ele>1110.9</ele>
        <time>2021-08-03T09:30:43Z</time>
      </trkpt>
      <trkpt lat="42.3143" lon="-0.29217">
        <ele>1107.88</ele>
        <time>2021-08-03T09:30:48Z</time>
      </trkpt>
      <trkpt lat="42.31415" lon="-0.29227">
        <ele>1106.2</ele>
        <time>2021-08-03T09:30:50Z</time>
      </trkpt>
      <trkpt lat="42.31397" lon="-0.29236">
        <ele>1105.18</ele>
        <time>2021-08-03T09:30:52Z</time>
      </trkpt>
      <trkpt lat="42.31391" lon="-0.29277">
        <ele>1101.78</ele>
        <time>2021-08-03T09:30:58Z</time>
      </trkpt>
      <trkpt lat="42.31427" lon="-0.29288">
        <ele>1099.96</ele>
        <time>2021-08-03T09:31:02Z</time>
      </trkpt>
      <trkpt lat="42.31445" lon="-0.29292">
        <ele>1099.03</ele>
        <time>2021-08-03T09:31:04Z</time>
      </trkpt>
      <trkpt lat="42.31475" lon="-0.29339">
        <ele>1095.14</ele>
        <time>2021-08-03T09:31:11Z</time>
      </trkpt>
      <trkpt lat="42.31473" lon="-0.29407">
        <ele>1092.19</ele>
        <time>2021-08-03T09:31:17Z</time>
      </trkpt>
      <trkpt lat="42.31468" lon="-0.29419">
        <ele>1091.75</ele>
        <time>2021-08-03T09:31:18Z</time>
      </trkpt>
      <trkpt lat="42.31455" lon="-0.29459">
        <ele>1090.59</ele>
        <time>2021-08-03T09:31:21Z</time>
      </trkpt>
      <trkpt lat="42.31464" lon="-0.29525">
        <ele>1087.88</ele>
        <time>2021-08-03T09:31:26Z</time>
      </trkpt>
      <trkpt lat="42.31463" lon="-0.29572">
        <ele>1085.73</ele>
        <time>2021-08-03T09:31:30Z</time>
      </trkpt>
      <trkpt lat="42.31454" lon="-0.29659">
        <ele>1081.75</ele>
        <time>2021-08-03T09:31:36Z</time>
      </trkpt>
      <trkpt lat="42.31454" lon="-0.29693">
        <ele>1079.31</ele>
        <time>2021-08-03T09:31:39Z</time>
      </trkpt>
      <trkpt lat="42.31481" lon="-0.29734">
        <ele>1075.12</ele>
        <time>2021-08-03T09:31:44Z</time>
      </trkpt>
      <trkpt lat="42.315" lon="-0.29741">
        <ele>1073.63</ele>
        <time>2021-08-03T09:31:46Z</time>
      </trkpt>
      <trkpt lat="42.31569" lon="-0.2976">
        <ele>1069.56</ele>
        <time>2021-08-03T09:31:52Z</time>
      </trkpt>
      <trkpt lat="42.31625" lon="-0.29784">
        <ele>1066.01</ele>
        <time>2021-08-03T09:31:57Z</time>
      </trkpt>
      <trkpt lat="42.31645" lon="-0.29795">
        <ele>1064.38</ele>
        <time>2021-08-03T09:31:59Z</time>
      </trkpt>
      <trkpt lat="42.3168" lon="-0.29845">
        <ele>1060.22</ele>
        <time>2021-08-03T09:32:04Z</time>
      </trkpt>
      <trkpt lat="42.31729" lon="-0.29936">
        <ele>1054.9</ele>
        <time>2021-08-03T09:32:11Z</time>
      </trkpt>
      <trkpt lat="42.31738" lon="-0.29948">
        <ele>1054.23</ele>
        <time>2021-08-03T09:32:12Z</time>
      </trkpt>
      <trkpt lat="42.31786" lon="-0.29997">
        <ele>1049.92</ele>
        <time>2021-08-03T09:32:18Z</time>
      </trkpt>
      <trkpt lat="42.31824" lon="-0.30034">
        <ele>1046.41</ele>
        <time>2021-08-03T09:32:23Z</time>
      </trkpt>
      <trkpt lat="42.31829" lon="-0.30041">
        <ele>1045.74</ele>
        <time>2021-08-03T09:32:24Z</time>
      </trkpt>
      <trkpt lat="42.31874" lon="-0.3006">
        <ele>1041.69</ele>
        <time>2021-08-03T09:32:29Z</time>
      </trkpt>
      <trkpt lat="42.31902" lon="-0.30062">
        <ele>1041.07</ele>
        <time>2021-08-03T09:32:33Z</time>
      </trkpt>
      <trkpt lat="42.31892" lon="-0.30099">
        <ele>1042.59</ele>
        <time>2021-08-03T09:32:40Z</time>
      </trkpt>
      <trkpt lat="42.31883" lon="-0.30105">
        <ele>1043.02</ele>
        <time>2021-08-03T09:32:41Z</time>
      </trkpt>
      <trkpt lat="42.31824" lon="-0.30159">
        <ele>1046.37</ele>
        <time>2021-08-03T09:32:47Z</time>
      </trkpt>
      <trkpt lat="42.31813" lon="-0.30217">
        <ele>1049.86</ele>
        <time>2021-08-03T09:32:53Z</time>
      </trkpt>
      <trkpt lat="42.31811" lon="-0.30305">
        <ele>1053.99</ele>
        <time>2021-08-03T09:33:01Z</time>
      </trkpt>
      <trkpt lat="42.31816" lon="-0.30315">
        <ele>1054.44</ele>
        <time>2021-08-03T09:33:02Z</time>
      </trkpt>
      <trkpt lat="42.31832" lon="-0.30344">
        <ele>1055.88</ele>
        <time>2021-08-03T09:33:05Z</time>
      </trkpt>
      <trkpt lat="42.31822" lon="-0.30406">
        <ele>1058.26</ele>
        <time>2021-08-03T09:33:11Z</time>
      </trkpt>
      <trkpt lat="42.318" lon="-0.30428">
        <ele>1059.6</ele>
        <time>2021-08-03T09:33:14Z</time>
      </trkpt>
      <trkpt lat="42.31806" lon="-0.30492">
        <ele>1061.99</ele>
        <time>2021-08-03T09:33:20Z</time>
      </trkpt>
      <trkpt lat="42.31804" lon="-0.30579">
        <ele>1063.06</ele>
        <time>2021-08-03T09:33:27Z</time>
      </trkpt>
      <trkpt lat="42.31791" lon="-0.30598">
        <ele>1062.82</ele>
        <time>2021-08-03T09:33:29Z</time>
      </trkpt>
      <trkpt lat="42.31778" lon="-0.30615">
        <ele>1062.19</ele>
        <time>2021-08-03T09:33:31Z</time>
      </trkpt>
      <trkpt lat="42.31723" lon="-0.30648">
        <ele>1059.12</ele>
        <time>2021-08-03T09:33:38Z</time>
      </trkpt>
      <trkpt lat="42.3172" lon="-0.30695">
        <ele>1055.16</ele>
        <time>2021-08-03T09:33:45Z</time>
      </trkpt>
      <trkpt lat="42.3173" lon="-0.30733">
        <ele>1052.04</ele>
        <time>2021-08-03T09:33:54Z</time>
      </trkpt>
      <trkpt lat="42.31733" lon="-0.30765">
        <ele>1050.03</ele>
        <time>2021-08-03T09:34:18Z</time>
      </trkpt>
      <trkpt lat="42.31726" lon="-0.30807">
        <ele>1049.74</ele>
        <time>2021-08-03T09:34:22Z</time>
      </trkpt>
      <trkpt lat="42.31715" lon="-0.30849">
        <ele>1048.74</ele>
        <time>2021-08-03T09:34:27Z</time>
      </trkpt>
      <trkpt lat="42.31697" lon="-0.30876">
        <ele>1047.92</ele>
        <time>2021-08-03T09:34:31Z</time>
      </trkpt>
      <trkpt lat="42.31665" lon="-0.30894">
        <ele>1047.6</ele>
        <time>2021-08-03T09:34:35Z</time>
      </trkpt>
      <trkpt lat="42.31628" lon="-0.30926">
        <ele>1047.01</ele>
        <time>2021-08-03T09:34:40Z</time>
      </trkpt>
      <trkpt lat="42.31612" lon="-0.3096">
        <ele>1046.54</ele>
        <time>2021-08-03T09:34:43Z</time>
      </trkpt>
      <trkpt lat="42.31606" lon="-0.31054">
        <ele>1045.4</ele>
        <time>2021-08-03T09:34:50Z</time>
      </trkpt>
      <trkpt lat="42.31611" lon="-0.31066">
        <ele>1045.2</ele>
        <time>2021-08-03T09:34:51Z</time>
      </trkpt>
      <trkpt lat="42.31633" lon="-0.31119">
        <ele>1044.69</ele>
        <time>2021-08-03T09:34:55Z</time>
      </trkpt>
      <trkpt lat="42.31632" lon="-0.31193">
        <ele>1042.8</ele>
        <time>2021-08-03T09:35:00Z</time>
      </trkpt>
      <trkpt lat="42.31626" lon="-0.31219">
        <ele>1041.9</ele>
        <time>2021-08-03T09:35:02Z</time>
      </trkpt>
      <trkpt lat="42.31593" lon="-0.31257">
        <ele>1040.25</ele>
        <time>2021-08-03T09:35:07Z</time>
      </trkpt>
      <trkpt lat="42.3158" lon="-0.31268">
        <ele>1039.61</ele>
        <time>2021-08-03T09:35:09Z</time>
      </trkpt>
      <trkpt lat="42.31538" lon="-0.31336">
        <ele>1037.19</ele>
        <time>2021-08-03T09:35:16Z</time>
      </trkpt>
      <trkpt lat="42.31532" lon="-0.31388">
        <ele>1035.8</ele>
        <time>2021-08-03T09:35:20Z</time>
      </trkpt>
      <trkpt lat="42.31522" lon="-0.31442">
        <ele>1033.71</ele>
        <time>2021-08-03T09:35:24Z</time>
      </trkpt>
      <trkpt lat="42.3151" lon="-0.31472">
        <ele>1032.33</ele>
        <time>2021-08-03T09:35:27Z</time>
      </trkpt>
      <trkpt lat="42.3153" lon="-0.31547">
        <ele>1030.23</ele>
        <time>2021-08-03T09:35:33Z</time>
      </trkpt>
      <trkpt lat="42.3157" lon="-0.31579">
        <ele>1027.55</ele>
        <time>2021-08-03T09:35:38Z</time>
      </trkpt>
      <trkpt lat="42.31636" lon="-0.31601">
        <ele>1023.09</ele>
        <time>2021-08-03T09:35:44Z</time>
      </trkpt>
      <trkpt lat="42.31672" lon="-0.31613">
        <ele>1020.18</ele>
        <time>2021-08-03T09:35:47Z</time>
      </trkpt>
      <trkpt lat="42.31728" lon="-0.31652">
        <ele>1016.37</ele>
        <time>2021-08-03T09:35:52Z</time>
      </trkpt>
      <trkpt lat="42.31739" lon="-0.3166">
        <ele>1015.56</ele>
        <time>2021-08-03T09:35:53Z</time>
      </trkpt>
      <trkpt lat="42.31797" lon="-0.31674">
        <ele>1011.66</ele>
        <time>2021-08-03T09:35:58Z</time>
      </trkpt>
      <trkpt lat="42.31834" lon="-0.31653">
        <ele>1008.24</ele>
        <time>2021-08-03T09:36:02Z</time>
      </trkpt>
      <trkpt lat="42.31842" lon="-0.31664">
        <ele>1004.98</ele>
        <time>2021-08-03T09:36:06Z</time>
      </trkpt>
      <trkpt lat="42.31826" lon="-0.31677">
        <ele>1003.64</ele>
        <time>2021-08-03T09:36:08Z</time>
      </trkpt>
      <trkpt lat="42.31781" lon="-0.31716">
        <ele>1000.2</ele>
        <time>2021-08-03T09:36:13Z</time>
      </trkpt>
      <trkpt lat="42.31731" lon="-0.31708">
        <ele>996.12</ele>
        <time>2021-08-03T09:36:19Z</time>
      </trkpt>
      <trkpt lat="42.3171" lon="-0.31701">
        <ele>994.86</ele>
        <time>2021-08-03T09:36:21Z</time>
      </trkpt>
      <trkpt lat="42.31656" lon="-0.31693">
        <ele>990.44</ele>
        <time>2021-08-03T09:36:27Z</time>
      </trkpt>
      <trkpt lat="42.31613" lon="-0.31697">
        <ele>987.24</ele>
        <time>2021-08-03T09:36:32Z</time>
      </trkpt>
      <trkpt lat="42.31591" lon="-0.31695">
        <ele>985.73</ele>
        <time>2021-08-03T09:36:35Z</time>
      </trkpt>
      <trkpt lat="42.31585" lon="-0.31716">
        <ele>982.82</ele>
        <time>2021-08-03T09:36:41Z</time>
      </trkpt>
      <trkpt lat="42.316" lon="-0.31719">
        <ele>981.99</ele>
        <time>2021-08-03T09:36:43Z</time>
      </trkpt>
      <trkpt lat="42.31621" lon="-0.31721">
        <ele>981.51</ele>
        <time>2021-08-03T09:36:45Z</time>
      </trkpt>
      <trkpt lat="42.31665" lon="-0.31736">
        <ele>980.15</ele>
        <time>2021-08-03T09:36:49Z</time>
      </trkpt>
      <trkpt lat="42.31664" lon="-0.31769">
        <ele>976.81</ele>
        <time>2021-08-03T09:36:55Z</time>
      </trkpt>
      <trkpt lat="42.31653" lon="-0.3177">
        <ele>976.23</ele>
        <time>2021-08-03T09:36:56Z</time>
      </trkpt>
      <trkpt lat="42.31597" lon="-0.31777">
        <ele>973.32</ele>
        <time>2021-08-03T09:37:01Z</time>
      </trkpt>
      <trkpt lat="42.31588" lon="-0.31808">
        <ele>970.17</ele>
        <time>2021-08-03T09:37:06Z</time>
      </trkpt>
      <trkpt lat="42.31597" lon="-0.31811">
        <ele>969.51</ele>
        <time>2021-08-03T09:37:07Z</time>
      </trkpt>
      <trkpt lat="42.31652" lon="-0.31831">
        <ele>967.14</ele>
        <time>2021-08-03T09:37:12Z</time>
      </trkpt>
      <trkpt lat="42.31681" lon="-0.31834">
        <ele>965.77</ele>
        <time>2021-08-03T09:37:15Z</time>
      </trkpt>
      <trkpt lat="42.31693" lon="-0.31866">
        <ele>962.44</ele>
        <time>2021-08-03T09:37:21Z</time>
      </trkpt>
      <trkpt lat="42.31686" lon="-0.31873">
        <ele>961.84</ele>
        <time>2021-08-03T09:37:22Z</time>
      </trkpt>
      <trkpt lat="42.31604" lon="-0.31971">
        <ele>958.28</ele>
        <time>2021-08-03T09:37:32Z</time>
      </trkpt>
      <trkpt lat="42.31557" lon="-0.32082">
        <ele>955.07</ele>
        <time>2021-08-03T09:37:40Z</time>
      </trkpt>
      <trkpt lat="42.3153" lon="-0.32171">
        <ele>951.85</ele>
        <time>2021-08-03T09:37:46Z</time>
      </trkpt>
      <trkpt lat="42.31509" lon="-0.32217">
        <ele>950.2</ele>
        <time>2021-08-03T09:37:50Z</time>
      </trkpt>
      <trkpt lat="42.31504" lon="-0.3227">
        <ele>948.34</ele>
        <time>2021-08-03T09:37:54Z</time>
      </trkpt>
      <trkpt lat="42.31504" lon="-0.32312">
        <ele>947.01</ele>
        <time>2021-08-03T09:37:57Z</time>
      </trkpt>
      <trkpt lat="42.3152" lon="-0.32388">
        <ele>945.18</ele>
        <time>2021-08-03T09:38:02Z</time>
      </trkpt>
      <trkpt lat="42.31535" lon="-0.32478">
        <ele>942.35</ele>
        <time>2021-08-03T09:38:08Z</time>
      </trkpt>
      <trkpt lat="42.31571" lon="-0.32489">
        <ele>938.94</ele>
        <time>2021-08-03T09:38:14Z</time>
      </trkpt>
      <trkpt lat="42.31616" lon="-0.3246">
        <ele>936.42</ele>
        <time>2021-08-03T09:38:19Z</time>
      </trkpt>
      <trkpt lat="42.31644" lon="-0.32436">
        <ele>933.91</ele>
        <time>2021-08-03T09:38:23Z</time>
      </trkpt>
      <trkpt lat="42.3168" lon="-0.32477">
        <ele>930.8</ele>
        <time>2021-08-03T09:38:29Z</time>
      </trkpt>
      <trkpt lat="42.31682" lon="-0.32492">
        <ele>930.56</ele>
        <time>2021-08-03T09:38:30Z</time>
      </trkpt>
      <trkpt lat="42.31706" lon="-0.32663">
        <ele>930.1</ele>
        <time>2021-08-03T09:38:40Z</time>
      </trkpt>
      <trkpt lat="42.31721" lon="-0.3285">
        <ele>928.98</ele>
        <time>2021-08-03T09:38:50Z</time>
      </trkpt>
      <trkpt lat="42.3171" lon="-0.33002">
        <ele>927.51</ele>
        <time>2021-08-03T09:38:58Z</time>
      </trkpt>
      <trkpt lat="42.31706" lon="-0.33174">
        <ele>924.72</ele>
        <time>2021-08-03T09:39:07Z</time>
      </trkpt>
      <trkpt lat="42.31705" lon="-0.33261">
        <ele>923</ele>
        <time>2021-08-03T09:39:12Z</time>
      </trkpt>
      <trkpt lat="42.31672" lon="-0.3337">
        <ele>921.54</ele>
        <time>2021-08-03T09:39:19Z</time>
      </trkpt>
      <trkpt lat="42.3165" lon="-0.33382">
        <ele>920.99</ele>
        <time>2021-08-03T09:39:21Z</time>
      </trkpt>
      <trkpt lat="42.31632" lon="-0.3339">
        <ele>920.75</ele>
        <time>2021-08-03T09:39:23Z</time>
      </trkpt>
      <trkpt lat="42.31623" lon="-0.33398">
        <ele>920.68</ele>
        <time>2021-08-03T09:39:24Z</time>
      </trkpt>
      <trkpt lat="42.31617" lon="-0.33409">
        <ele>920.63</ele>
        <time>2021-08-03T09:39:25Z</time>
      </trkpt>
      <trkpt lat="42.31612" lon="-0.33421">
        <ele>920.58</ele>
        <time>2021-08-03T09:39:26Z</time>
      </trkpt>
      <trkpt lat="42.31621" lon="-0.33484">
        <ele>920.38</ele>
        <time>2021-08-03T09:39:32Z</time>
      </trkpt>
      <trkpt lat="42.31638" lon="-0.33492">
        <ele>920.54</ele>
        <time>2021-08-03T09:39:34Z</time>
      </trkpt>
      <trkpt lat="42.31661" lon="-0.33499">
        <ele>920.81</ele>
        <time>2021-08-03T09:39:37Z</time>
      </trkpt>
      <trkpt lat="42.31666" lon="-0.3353">
        <ele>920.52</ele>
        <time>2021-08-03T09:39:42Z</time>
      </trkpt>
      <trkpt lat="42.31644" lon="-0.3354">
        <ele>920.03</ele>
        <time>2021-08-03T09:39:46Z</time>
      </trkpt>
      <trkpt lat="42.31625" lon="-0.33559">
        <ele>919.51</ele>
        <time>2021-08-03T09:39:57Z</time>
      </trkpt>
      <trkpt lat="42.31593" lon="-0.33612">
        <ele>919.74</ele>
        <time>2021-08-03T09:40:06Z</time>
      </trkpt>
      <trkpt lat="42.31575" lon="-0.33671">
        <ele>920.02</ele>
        <time>2021-08-03T09:40:11Z</time>
      </trkpt>
      <trkpt lat="42.31547" lon="-0.33708">
        <ele>919.95</ele>
        <time>2021-08-03T09:40:15Z</time>
      </trkpt>
      <trkpt lat="42.31528" lon="-0.3372">
        <ele>919.86</ele>
        <time>2021-08-03T09:40:17Z</time>
      </trkpt>
      <trkpt lat="42.31488" lon="-0.33816">
        <ele>918.84</ele>
        <time>2021-08-03T09:40:25Z</time>
      </trkpt>
      <trkpt lat="42.31458" lon="-0.33938">
        <ele>915.41</ele>
        <time>2021-08-03T09:40:32Z</time>
      </trkpt>
      <trkpt lat="42.3144" lon="-0.34003">
        <ele>912.15</ele>
        <time>2021-08-03T09:40:36Z</time>
      </trkpt>
      <trkpt lat="42.31434" lon="-0.34017">
        <ele>911.34</ele>
        <time>2021-08-03T09:40:37Z</time>
      </trkpt>
      <trkpt lat="42.31396" lon="-0.34083">
        <ele>906.81</ele>
        <time>2021-08-03T09:40:42Z</time>
      </trkpt>
      <trkpt lat="42.3139" lon="-0.34095">
        <ele>905.94</ele>
        <time>2021-08-03T09:40:43Z</time>
      </trkpt>
      <trkpt lat="42.31383" lon="-0.34181">
        <ele>901.48</ele>
        <time>2021-08-03T09:40:49Z</time>
      </trkpt>
      <trkpt lat="42.31401" lon="-0.34227">
        <ele>900.13</ele>
        <time>2021-08-03T09:40:52Z</time>
      </trkpt>
      <trkpt lat="42.31423" lon="-0.34268">
        <ele>899.17</ele>
        <time>2021-08-03T09:40:55Z</time>
      </trkpt>
      <trkpt lat="42.31437" lon="-0.3438">
        <ele>898.17</ele>
        <time>2021-08-03T09:41:02Z</time>
      </trkpt>
      <trkpt lat="42.31434" lon="-0.34397">
        <ele>898.12</ele>
        <time>2021-08-03T09:41:03Z</time>
      </trkpt>
      <trkpt lat="42.31392" lon="-0.34554">
        <ele>898.6</ele>
        <time>2021-08-03T09:41:14Z</time>
      </trkpt>
      <trkpt lat="42.31387" lon="-0.3457">
        <ele>898.76</ele>
        <time>2021-08-03T09:41:15Z</time>
      </trkpt>
      <trkpt lat="42.31381" lon="-0.34704">
        <ele>899.63</ele>
        <time>2021-08-03T09:41:23Z</time>
      </trkpt>
      <trkpt lat="42.31377" lon="-0.34738">
        <ele>899.46</ele>
        <time>2021-08-03T09:41:26Z</time>
      </trkpt>
      <trkpt lat="42.31344" lon="-0.34805">
        <ele>897.97</ele>
        <time>2021-08-03T09:41:35Z</time>
      </trkpt>
      <trkpt lat="42.31302" lon="-0.34878">
        <ele>897.9</ele>
        <time>2021-08-03T09:41:43Z</time>
      </trkpt>
      <trkpt lat="42.31282" lon="-0.34913">
        <ele>898.59</ele>
        <time>2021-08-03T09:41:46Z</time>
      </trkpt>
      <trkpt lat="42.31234" lon="-0.34919">
        <ele>900.86</ele>
        <time>2021-08-03T09:41:52Z</time>
      </trkpt>
      <trkpt lat="42.31207" lon="-0.349">
        <ele>902.02</ele>
        <time>2021-08-03T09:41:55Z</time>
      </trkpt>
      <trkpt lat="42.31165" lon="-0.34847">
        <ele>904.72</ele>
        <time>2021-08-03T09:42:01Z</time>
      </trkpt>
      <trkpt lat="42.3115" lon="-0.34812">
        <ele>906.3</ele>
        <time>2021-08-03T09:42:04Z</time>
      </trkpt>
      <trkpt lat="42.3112" lon="-0.34801">
        <ele>908.46</ele>
        <time>2021-08-03T09:42:09Z</time>
      </trkpt>
      <trkpt lat="42.31115" lon="-0.34824">
        <ele>909.53</ele>
        <time>2021-08-03T09:42:11Z</time>
      </trkpt>
      <trkpt lat="42.31092" lon="-0.34953">
        <ele>914.19</ele>
        <time>2021-08-03T09:42:19Z</time>
      </trkpt>
      <trkpt lat="42.31089" lon="-0.34971">
        <ele>915.94</ele>
        <time>2021-08-03T09:42:20Z</time>
      </trkpt>
      <trkpt lat="42.31076" lon="-0.35024">
        <ele>918.86</ele>
        <time>2021-08-03T09:42:23Z</time>
      </trkpt>
      <trkpt lat="42.3109" lon="-0.35104">
        <ele>923.49</ele>
        <time>2021-08-03T09:42:28Z</time>
      </trkpt>
      <trkpt lat="42.31098" lon="-0.35172">
        <ele>928.49</ele>
        <time>2021-08-03T09:42:34Z</time>
      </trkpt>
      <trkpt lat="42.31057" lon="-0.35204">
        <ele>932.3</ele>
        <time>2021-08-03T09:42:38Z</time>
      </trkpt>
      <trkpt lat="42.31038" lon="-0.35231">
        <ele>934.17</ele>
        <time>2021-08-03T09:42:40Z</time>
      </trkpt>
      <trkpt lat="42.31019" lon="-0.3532">
        <ele>939.53</ele>
        <time>2021-08-03T09:42:46Z</time>
      </trkpt>
      <trkpt lat="42.31034" lon="-0.35437">
        <ele>942.81</ele>
        <time>2021-08-03T09:42:54Z</time>
      </trkpt>
      <trkpt lat="42.31074" lon="-0.35544">
        <ele>942.38</ele>
        <time>2021-08-03T09:43:02Z</time>
      </trkpt>
      <trkpt lat="42.31092" lon="-0.35613">
        <ele>941.61</ele>
        <time>2021-08-03T09:43:06Z</time>
      </trkpt>
      <trkpt lat="42.31081" lon="-0.35746">
        <ele>939.19</ele>
        <time>2021-08-03T09:43:13Z</time>
      </trkpt>
      <trkpt lat="42.31025" lon="-0.35911">
        <ele>939.47</ele>
        <time>2021-08-03T09:43:24Z</time>
      </trkpt>
      <trkpt lat="42.30974" lon="-0.35945">
        <ele>939.59</ele>
        <time>2021-08-03T09:43:30Z</time>
      </trkpt>
      <trkpt lat="42.30958" lon="-0.36006">
        <ele>940.28</ele>
        <time>2021-08-03T09:43:35Z</time>
      </trkpt>
      <trkpt lat="42.30949" lon="-0.36135">
        <ele>941.77</ele>
        <time>2021-08-03T09:43:43Z</time>
      </trkpt>
      <trkpt lat="42.30946" lon="-0.3615">
        <ele>941.77</ele>
        <time>2021-08-03T09:43:44Z</time>
      </trkpt>
      <trkpt lat="42.30925" lon="-0.36207">
        <ele>941.37</ele>
        <time>2021-08-03T09:43:49Z</time>
      </trkpt>
      <trkpt lat="42.30895" lon="-0.36236">
        <ele>940.83</ele>
        <time>2021-08-03T09:43:53Z</time>
      </trkpt>
      <trkpt lat="42.30878" lon="-0.36247">
        <ele>940.67</ele>
        <time>2021-08-03T09:43:55Z</time>
      </trkpt>
      <trkpt lat="42.3085" lon="-0.36333">
        <ele>941.2</ele>
        <time>2021-08-03T09:44:02Z</time>
      </trkpt>
      <trkpt lat="42.3085" lon="-0.36349">
        <ele>941.46</ele>
        <time>2021-08-03T09:44:03Z</time>
      </trkpt>
      <trkpt lat="42.30849" lon="-0.36411">
        <ele>942.54</ele>
        <time>2021-08-03T09:44:07Z</time>
      </trkpt>
      <trkpt lat="42.30863" lon="-0.36492">
        <ele>944.21</ele>
        <time>2021-08-03T09:44:12Z</time>
      </trkpt>
      <trkpt lat="42.30864" lon="-0.36558">
        <ele>945.4</ele>
        <time>2021-08-03T09:44:16Z</time>
      </trkpt>
      <trkpt lat="42.30852" lon="-0.36704">
        <ele>949.2</ele>
        <time>2021-08-03T09:44:25Z</time>
      </trkpt>
      <trkpt lat="42.3085" lon="-0.3672">
        <ele>949.68</ele>
        <time>2021-08-03T09:44:26Z</time>
      </trkpt>
      <trkpt lat="42.30842" lon="-0.36768">
        <ele>950.63</ele>
        <time>2021-08-03T09:44:29Z</time>
      </trkpt>
      <trkpt lat="42.30841" lon="-0.36915">
        <ele>952.85</ele>
        <time>2021-08-03T09:44:37Z</time>
      </trkpt>
      <trkpt lat="42.30844" lon="-0.37008">
        <ele>952.83</ele>
        <time>2021-08-03T09:44:42Z</time>
      </trkpt>
      <trkpt lat="42.30811" lon="-0.37126">
        <ele>952.87</ele>
        <time>2021-08-03T09:44:49Z</time>
      </trkpt>
      <trkpt lat="42.30771" lon="-0.37245">
        <ele>954.75</ele>
        <time>2021-08-03T09:44:56Z</time>
      </trkpt>
      <trkpt lat="42.3071" lon="-0.37365">
        <ele>957.11</ele>
        <time>2021-08-03T09:45:04Z</time>
      </trkpt>
      <trkpt lat="42.30719" lon="-0.3745">
        <ele>958.13</ele>
        <time>2021-08-03T09:45:10Z</time>
      </trkpt>
      <trkpt lat="42.30753" lon="-0.37475">
        <ele>957.88</ele>
        <time>2021-08-03T09:45:13Z</time>
      </trkpt>
      <trkpt lat="42.30776" lon="-0.37486">
        <ele>957.34</ele>
        <time>2021-08-03T09:45:15Z</time>
      </trkpt>
      <trkpt lat="42.30841" lon="-0.37576">
        <ele>954.27</ele>
        <time>2021-08-03T09:45:22Z</time>
      </trkpt>
      <trkpt lat="42.30867" lon="-0.37617">
        <ele>953.24</ele>
        <time>2021-08-03T09:45:25Z</time>
      </trkpt>
      <trkpt lat="42.30891" lon="-0.37696">
        <ele>951.79</ele>
        <time>2021-08-03T09:45:30Z</time>
      </trkpt>
      <trkpt lat="42.30948" lon="-0.37807">
        <ele>950.39</ele>
        <time>2021-08-03T09:45:38Z</time>
      </trkpt>
      <trkpt lat="42.30967" lon="-0.37871">
        <ele>949.74</ele>
        <time>2021-08-03T09:45:42Z</time>
      </trkpt>
      <trkpt lat="42.30995" lon="-0.38069">
        <ele>950.08</ele>
        <time>2021-08-03T09:45:54Z</time>
      </trkpt>
      <trkpt lat="42.31002" lon="-0.38095">
        <ele>950.12</ele>
        <time>2021-08-03T09:45:56Z</time>
      </trkpt>
      <trkpt lat="42.31053" lon="-0.38133">
        <ele>950.02</ele>
        <time>2021-08-03T09:46:02Z</time>
      </trkpt>
      <trkpt lat="42.3109" lon="-0.38137">
        <ele>949.25</ele>
        <time>2021-08-03T09:46:06Z</time>
      </trkpt>
      <trkpt lat="42.31107" lon="-0.38172">
        <ele>948.18</ele>
        <time>2021-08-03T09:46:10Z</time>
      </trkpt>
      <trkpt lat="42.31118" lon="-0.38196">
        <ele>947.27</ele>
        <time>2021-08-03T09:46:15Z</time>
      </trkpt>
      <trkpt lat="42.31156" lon="-0.38238">
        <ele>947.73</ele>
        <time>2021-08-03T09:46:23Z</time>
      </trkpt>
      <trkpt lat="42.3119" lon="-0.38225">
        <ele>949.12</ele>
        <time>2021-08-03T09:46:29Z</time>
      </trkpt>
      <trkpt lat="42.31176" lon="-0.38165">
        <ele>951.7</ele>
        <time>2021-08-03T09:46:35Z</time>
      </trkpt>
      <trkpt lat="42.31205" lon="-0.38129">
        <ele>954.64</ele>
        <time>2021-08-03T09:46:40Z</time>
      </trkpt>
      <trkpt lat="42.31225" lon="-0.38117">
        <ele>956.41</ele>
        <time>2021-08-03T09:46:42Z</time>
      </trkpt>
      <trkpt lat="42.31643" lon="-0.44734">
        <ele>1081.95</ele>
        <time>2021-08-03T09:58:35Z</time>
      </trkpt>
      <trkpt lat="42.31639" lon="-0.44753">
        <ele>1081.95</ele>
        <time>2021-08-03T09:58:36Z</time>
      </trkpt>
      <trkpt lat="42.31597" lon="-0.44805">
        <ele>1081.13</ele>
        <time>2021-08-03T09:58:41Z</time>
      </trkpt>
      <trkpt lat="42.31557" lon="-0.4487">
        <ele>1081.41</ele>
        <time>2021-08-03T09:58:47Z</time>
      </trkpt>
      <trkpt lat="42.31546" lon="-0.44921">
        <ele>1081.87</ele>
        <time>2021-08-03T09:58:50Z</time>
      </trkpt>
      <trkpt lat="42.31544" lon="-0.44953">
        <ele>1082.63</ele>
        <time>2021-08-03T09:58:52Z</time>
      </trkpt>
      <trkpt lat="42.31546" lon="-0.4497">
        <ele>1083.14</ele>
        <time>2021-08-03T09:58:53Z</time>
      </trkpt>
      <trkpt lat="42.31549" lon="-0.44986">
        <ele>1083.54</ele>
        <time>2021-08-03T09:58:54Z</time>
      </trkpt>
      <trkpt lat="42.31596" lon="-0.45173">
        <ele>1085.82</ele>
        <time>2021-08-03T09:59:05Z</time>
      </trkpt>
      <trkpt lat="42.31591" lon="-0.45226">
        <ele>1084.01</ele>
        <time>2021-08-03T09:59:09Z</time>
      </trkpt>
      <trkpt lat="42.31604" lon="-0.45303">
        <ele>1080.37</ele>
        <time>2021-08-03T09:59:16Z</time>
      </trkpt>
      <trkpt lat="42.31619" lon="-0.45392">
        <ele>1078.61</ele>
        <time>2021-08-03T09:59:23Z</time>
      </trkpt>
      <trkpt lat="42.31612" lon="-0.45463">
        <ele>1078.5</ele>
        <time>2021-08-03T09:59:27Z</time>
      </trkpt>
      <trkpt lat="42.31596" lon="-0.45556">
        <ele>1080.15</ele>
        <time>2021-08-03T09:59:33Z</time>
      </trkpt>
      <trkpt lat="42.31611" lon="-0.45635">
        <ele>1083.49</ele>
        <time>2021-08-03T09:59:39Z</time>
      </trkpt>
      <trkpt lat="42.31614" lon="-0.45667">
        <ele>1084.58</ele>
        <time>2021-08-03T09:59:41Z</time>
      </trkpt>
      <trkpt lat="42.316" lon="-0.45745">
        <ele>1088.4</ele>
        <time>2021-08-03T09:59:47Z</time>
      </trkpt>
      <trkpt lat="42.31574" lon="-0.45775">
        <ele>1089.9</ele>
        <time>2021-08-03T09:59:50Z</time>
      </trkpt>
      <trkpt lat="42.31553" lon="-0.45809">
        <ele>1092.11</ele>
        <time>2021-08-03T09:59:53Z</time>
      </trkpt>
      <trkpt lat="42.31544" lon="-0.45879">
        <ele>1096.87</ele>
        <time>2021-08-03T09:59:58Z</time>
      </trkpt>
      <trkpt lat="42.31576" lon="-0.4595">
        <ele>1100.79</ele>
        <time>2021-08-03T10:00:05Z</time>
      </trkpt>
      <trkpt lat="42.31558" lon="-0.46007">
        <ele>1102.46</ele>
        <time>2021-08-03T10:00:10Z</time>
      </trkpt>
      <trkpt lat="42.31559" lon="-0.4607">
        <ele>1103.97</ele>
        <time>2021-08-03T10:00:15Z</time>
      </trkpt>
      <trkpt lat="42.31535" lon="-0.46121">
        <ele>1104.27</ele>
        <time>2021-08-03T10:00:21Z</time>
      </trkpt>
      <trkpt lat="42.31537" lon="-0.46172">
        <ele>1104.82</ele>
        <time>2021-08-03T10:00:26Z</time>
      </trkpt>
      <trkpt lat="42.31541" lon="-0.46221">
        <ele>1106.07</ele>
        <time>2021-08-03T10:00:31Z</time>
      </trkpt>
      <trkpt lat="42.3154" lon="-0.46235">
        <ele>1106.21</ele>
        <time>2021-08-03T10:00:32Z</time>
      </trkpt>
      <trkpt lat="42.31538" lon="-0.46354">
        <ele>1106.61</ele>
        <time>2021-08-03T10:00:41Z</time>
      </trkpt>
      <trkpt lat="42.31561" lon="-0.46437">
        <ele>1106.44</ele>
        <time>2021-08-03T10:00:47Z</time>
      </trkpt>
      <trkpt lat="42.31582" lon="-0.46477">
        <ele>1106.36</ele>
        <time>2021-08-03T10:00:50Z</time>
      </trkpt>
      <trkpt lat="42.31594" lon="-0.46539">
        <ele>1105.89</ele>
        <time>2021-08-03T10:00:54Z</time>
      </trkpt>
      <trkpt lat="42.31593" lon="-0.46651">
        <ele>1105.27</ele>
        <time>2021-08-03T10:01:01Z</time>
      </trkpt>
      <trkpt lat="42.31631" lon="-0.46734">
        <ele>1105.92</ele>
        <time>2021-08-03T10:01:08Z</time>
      </trkpt>
      <trkpt lat="42.31647" lon="-0.46811">
        <ele>1107.87</ele>
        <time>2021-08-03T10:01:13Z</time>
      </trkpt>
      <trkpt lat="42.31664" lon="-0.46871">
        <ele>1108.76</ele>
        <time>2021-08-03T10:01:18Z</time>
      </trkpt>
      <trkpt lat="42.31701" lon="-0.46923">
        <ele>1111.63</ele>
        <time>2021-08-03T10:01:23Z</time>
      </trkpt>
      <trkpt lat="42.31762" lon="-0.4696">
        <ele>1114.77</ele>
        <time>2021-08-03T10:01:30Z</time>
      </trkpt>
      <trkpt lat="42.31781" lon="-0.46979">
        <ele>1115.71</ele>
        <time>2021-08-03T10:01:32Z</time>
      </trkpt>
      <trkpt lat="42.31847" lon="-0.47084">
        <ele>1115.45</ele>
        <time>2021-08-03T10:01:40Z</time>
      </trkpt>
      <trkpt lat="42.31886" lon="-0.47193">
        <ele>1115.03</ele>
        <time>2021-08-03T10:01:48Z</time>
      </trkpt>
      <trkpt lat="42.3189" lon="-0.47206">
        <ele>1115.2</ele>
        <time>2021-08-03T10:01:49Z</time>
      </trkpt>
      <trkpt lat="42.31915" lon="-0.47253">
        <ele>1116.21</ele>
        <time>2021-08-03T10:01:53Z</time>
      </trkpt>
      <trkpt lat="42.31942" lon="-0.47319">
        <ele>1118.2</ele>
        <time>2021-08-03T10:01:58Z</time>
      </trkpt>
      <trkpt lat="42.31949" lon="-0.47372">
        <ele>1119.32</ele>
        <time>2021-08-03T10:02:02Z</time>
      </trkpt>
      <trkpt lat="42.31982" lon="-0.4741">
        <ele>1119.77</ele>
        <time>2021-08-03T10:02:07Z</time>
      </trkpt>
      <trkpt lat="42.32082" lon="-0.47474">
        <ele>1120.68</ele>
        <time>2021-08-03T10:02:16Z</time>
      </trkpt>
      <trkpt lat="42.32187" lon="-0.47496">
        <ele>1120.72</ele>
        <time>2021-08-03T10:02:25Z</time>
      </trkpt>
      <trkpt lat="42.32252" lon="-0.47522">
        <ele>1118.33</ele>
        <time>2021-08-03T10:02:30Z</time>
      </trkpt>
      <trkpt lat="42.3232" lon="-0.47564">
        <ele>1113.69</ele>
        <time>2021-08-03T10:02:35Z</time>
      </trkpt>
      <trkpt lat="42.32377" lon="-0.47598">
        <ele>1109.94</ele>
        <time>2021-08-03T10:02:39Z</time>
      </trkpt>
      <trkpt lat="42.32402" lon="-0.47618">
        <ele>1108.01</ele>
        <time>2021-08-03T10:02:41Z</time>
      </trkpt>
      <trkpt lat="42.32448" lon="-0.47689">
        <ele>1104.08</ele>
        <time>2021-08-03T10:02:46Z</time>
      </trkpt>
      <trkpt lat="42.32496" lon="-0.47728">
        <ele>1100.19</ele>
        <time>2021-08-03T10:02:51Z</time>
      </trkpt>
      <trkpt lat="42.32509" lon="-0.47749">
        <ele>1098.76</ele>
        <time>2021-08-03T10:02:53Z</time>
      </trkpt>
      <trkpt lat="42.32585" lon="-0.4787">
        <ele>1094.97</ele>
        <time>2021-08-03T10:03:03Z</time>
      </trkpt>
      <trkpt lat="42.32698" lon="-0.4798">
        <ele>1091.4</ele>
        <time>2021-08-03T10:03:13Z</time>
      </trkpt>
      <trkpt lat="42.32745" lon="-0.48028">
        <ele>1088.1</ele>
        <time>2021-08-03T10:03:17Z</time>
      </trkpt>
      <trkpt lat="42.32792" lon="-0.48072">
        <ele>1084.39</ele>
        <time>2021-08-03T10:03:21Z</time>
      </trkpt>
      <trkpt lat="42.32841" lon="-0.48118">
        <ele>1080.94</ele>
        <time>2021-08-03T10:03:25Z</time>
      </trkpt>
      <trkpt lat="42.32889" lon="-0.48163">
        <ele>1077.2</ele>
        <time>2021-08-03T10:03:29Z</time>
      </trkpt>
      <trkpt lat="42.32945" lon="-0.48193">
        <ele>1073.59</ele>
        <time>2021-08-03T10:03:33Z</time>
      </trkpt>
      <trkpt lat="42.32958" lon="-0.48199">
        <ele>1072.8</ele>
        <time>2021-08-03T10:03:34Z</time>
      </trkpt>
      <trkpt lat="42.33014" lon="-0.48247">
        <ele>1068.68</ele>
        <time>2021-08-03T10:03:39Z</time>
      </trkpt>
      <trkpt lat="42.33075" lon="-0.48329">
        <ele>1064.74</ele>
        <time>2021-08-03T10:03:45Z</time>
      </trkpt>
      <trkpt lat="42.33151" lon="-0.48425">
        <ele>1061.51</ele>
        <time>2021-08-03T10:03:52Z</time>
      </trkpt>
      <trkpt lat="42.3317" lon="-0.48447">
        <ele>1060.14</ele>
        <time>2021-08-03T10:03:54Z</time>
      </trkpt>
      <trkpt lat="42.33182" lon="-0.48484">
        <ele>1056.47</ele>
        <time>2021-08-03T10:03:58Z</time>
      </trkpt>
      <trkpt lat="42.33136" lon="-0.48512">
        <ele>1051.67</ele>
        <time>2021-08-03T10:04:03Z</time>
      </trkpt>
      <trkpt lat="42.33092" lon="-0.48528">
        <ele>1049.64</ele>
        <time>2021-08-03T10:04:07Z</time>
      </trkpt>
      <trkpt lat="42.33073" lon="-0.48573">
        <ele>1046.2</ele>
        <time>2021-08-03T10:04:12Z</time>
      </trkpt>
      <trkpt lat="42.33095" lon="-0.48624">
        <ele>1042.74</ele>
        <time>2021-08-03T10:04:16Z</time>
      </trkpt>
      <trkpt lat="42.33114" lon="-0.48646">
        <ele>1041.04</ele>
        <time>2021-08-03T10:04:18Z</time>
      </trkpt>
      <trkpt lat="42.33155" lon="-0.48697">
        <ele>1037.82</ele>
        <time>2021-08-03T10:04:22Z</time>
      </trkpt>
      <trkpt lat="42.33196" lon="-0.48711">
        <ele>1033.01</ele>
        <time>2021-08-03T10:04:27Z</time>
      </trkpt>
      <trkpt lat="42.33198" lon="-0.48671">
        <ele>1029.73</ele>
        <time>2021-08-03T10:04:31Z</time>
      </trkpt>
      <trkpt lat="42.33194" lon="-0.48629">
        <ele>1026.15</ele>
        <time>2021-08-03T10:04:36Z</time>
      </trkpt>
      <trkpt lat="42.33219" lon="-0.48631">
        <ele>1023.78</ele>
        <time>2021-08-03T10:04:39Z</time>
      </trkpt>
      <trkpt lat="42.33249" lon="-0.48642">
        <ele>1022.03</ele>
        <time>2021-08-03T10:04:42Z</time>
      </trkpt>
      <trkpt lat="42.33265" lon="-0.48683">
        <ele>1017.99</ele>
        <time>2021-08-03T10:04:47Z</time>
      </trkpt>
      <trkpt lat="42.33273" lon="-0.48745">
        <ele>1013.99</ele>
        <time>2021-08-03T10:04:52Z</time>
      </trkpt>
      <trkpt lat="42.33298" lon="-0.48797">
        <ele>1011.01</ele>
        <time>2021-08-03T10:04:56Z</time>
      </trkpt>
      <trkpt lat="42.33335" lon="-0.48831">
        <ele>1007.38</ele>
        <time>2021-08-03T10:05:00Z</time>
      </trkpt>
      <trkpt lat="42.33385" lon="-0.48879">
        <ele>1003.1</ele>
        <time>2021-08-03T10:05:05Z</time>
      </trkpt>
      <trkpt lat="42.33396" lon="-0.48886">
        <ele>1002.37</ele>
        <time>2021-08-03T10:05:06Z</time>
      </trkpt>
      <trkpt lat="42.33438" lon="-0.48915">
        <ele>999.16</ele>
        <time>2021-08-03T10:05:10Z</time>
      </trkpt>
      <trkpt lat="42.33447" lon="-0.48923">
        <ele>998.3</ele>
        <time>2021-08-03T10:05:11Z</time>
      </trkpt>
      <trkpt lat="42.33477" lon="-0.48965">
        <ele>995.38</ele>
        <time>2021-08-03T10:05:15Z</time>
      </trkpt>
      <trkpt lat="42.33561" lon="-0.49059">
        <ele>992.46</ele>
        <time>2021-08-03T10:05:24Z</time>
      </trkpt>
      <trkpt lat="42.33679" lon="-0.49196">
        <ele>989.58</ele>
        <time>2021-08-03T10:05:36Z</time>
      </trkpt>
      <trkpt lat="42.33706" lon="-0.49216">
        <ele>988.47</ele>
        <time>2021-08-03T10:05:39Z</time>
      </trkpt>
      <trkpt lat="42.33712" lon="-0.49227">
        <ele>988.12</ele>
        <time>2021-08-03T10:05:40Z</time>
      </trkpt>
      <trkpt lat="42.33751" lon="-0.49317">
        <ele>985.78</ele>
        <time>2021-08-03T10:05:46Z</time>
      </trkpt>
      <trkpt lat="42.33791" lon="-0.49404">
        <ele>982.5</ele>
        <time>2021-08-03T10:05:52Z</time>
      </trkpt>
      <trkpt lat="42.33843" lon="-0.49481">
        <ele>978.8</ele>
        <time>2021-08-03T10:05:59Z</time>
      </trkpt>
      <trkpt lat="42.33851" lon="-0.4956">
        <ele>978.15</ele>
        <time>2021-08-03T10:06:05Z</time>
      </trkpt>
      <trkpt lat="42.33853" lon="-0.49642">
        <ele>977.84</ele>
        <time>2021-08-03T10:06:11Z</time>
      </trkpt>
      <trkpt lat="42.33851" lon="-0.49655">
        <ele>977.71</ele>
        <time>2021-08-03T10:06:12Z</time>
      </trkpt>
      <trkpt lat="42.33868" lon="-0.49733">
        <ele>976.59</ele>
        <time>2021-08-03T10:06:19Z</time>
      </trkpt>
      <trkpt lat="42.33885" lon="-0.49746">
        <ele>976.62</ele>
        <time>2021-08-03T10:06:21Z</time>
      </trkpt>
      <trkpt lat="42.33906" lon="-0.49812">
        <ele>977.8</ele>
        <time>2021-08-03T10:06:27Z</time>
      </trkpt>
      <trkpt lat="42.33894" lon="-0.49852">
        <ele>978.66</ele>
        <time>2021-08-03T10:06:31Z</time>
      </trkpt>
      <trkpt lat="42.33856" lon="-0.49926">
        <ele>979.93</ele>
        <time>2021-08-03T10:06:37Z</time>
      </trkpt>
      <trkpt lat="42.33836" lon="-0.49959">
        <ele>980.7</ele>
        <time>2021-08-03T10:06:40Z</time>
      </trkpt>
      <trkpt lat="42.33846" lon="-0.50002">
        <ele>981.17</ele>
        <time>2021-08-03T10:06:46Z</time>
      </trkpt>
      <trkpt lat="42.33854" lon="-0.50008">
        <ele>981.27</ele>
        <time>2021-08-03T10:06:47Z</time>
      </trkpt>
      <trkpt lat="42.33933" lon="-0.5008">
        <ele>984.44</ele>
        <time>2021-08-03T10:06:55Z</time>
      </trkpt>
      <trkpt lat="42.33975" lon="-0.5014">
        <ele>987.73</ele>
        <time>2021-08-03T10:06:59Z</time>
      </trkpt>
      <trkpt lat="42.34012" lon="-0.50203">
        <ele>991.35</ele>
        <time>2021-08-03T10:07:03Z</time>
      </trkpt>
      <trkpt lat="42.3405" lon="-0.50291">
        <ele>994.91</ele>
        <time>2021-08-03T10:07:08Z</time>
      </trkpt>
      <trkpt lat="42.34078" lon="-0.5036">
        <ele>998.31</ele>
        <time>2021-08-03T10:07:12Z</time>
      </trkpt>
      <trkpt lat="42.34092" lon="-0.50445">
        <ele>1002.45</ele>
        <time>2021-08-03T10:07:17Z</time>
      </trkpt>
      <trkpt lat="42.34109" lon="-0.5048">
        <ele>1004.25</ele>
        <time>2021-08-03T10:07:20Z</time>
      </trkpt>
      <trkpt lat="42.3413" lon="-0.50567">
        <ele>1006.99</ele>
        <time>2021-08-03T10:07:27Z</time>
      </trkpt>
      <trkpt lat="42.34097" lon="-0.50613">
        <ele>1008.28</ele>
        <time>2021-08-03T10:07:32Z</time>
      </trkpt>
      <trkpt lat="42.34077" lon="-0.50624">
        <ele>1008.64</ele>
        <time>2021-08-03T10:07:34Z</time>
      </trkpt>
      <trkpt lat="42.34028" lon="-0.50716">
        <ele>1011.03</ele>
        <time>2021-08-03T10:07:41Z</time>
      </trkpt>
      <trkpt lat="42.34019" lon="-0.50766">
        <ele>1012.52</ele>
        <time>2021-08-03T10:07:44Z</time>
      </trkpt>
      <trkpt lat="42.34018" lon="-0.50798">
        <ele>1013.21</ele>
        <time>2021-08-03T10:07:46Z</time>
      </trkpt>
      <trkpt lat="42.34046" lon="-0.50875">
        <ele>1013.63</ele>
        <time>2021-08-03T10:07:51Z</time>
      </trkpt>
      <trkpt lat="42.3405" lon="-0.50924">
        <ele>1013.12</ele>
        <time>2021-08-03T10:07:54Z</time>
      </trkpt>
      <trkpt lat="42.34022" lon="-0.51065">
        <ele>1009.76</ele>
        <time>2021-08-03T10:08:02Z</time>
      </trkpt>
      <trkpt lat="42.33993" lon="-0.51172">
        <ele>1006.22</ele>
        <time>2021-08-03T10:08:08Z</time>
      </trkpt>
      <trkpt lat="42.3399" lon="-0.5119">
        <ele>1005.37</ele>
        <time>2021-08-03T10:08:09Z</time>
      </trkpt>
      <trkpt lat="42.3399" lon="-0.51261">
        <ele>1001.44</ele>
        <time>2021-08-03T10:08:13Z</time>
      </trkpt>
      <trkpt lat="42.34009" lon="-0.51312">
        <ele>997.95</ele>
        <time>2021-08-03T10:08:17Z</time>
      </trkpt>
      <trkpt lat="42.34026" lon="-0.51331">
        <ele>996.1</ele>
        <time>2021-08-03T10:08:19Z</time>
      </trkpt>
      <trkpt lat="42.34046" lon="-0.5135">
        <ele>994.39</ele>
        <time>2021-08-03T10:08:21Z</time>
      </trkpt>
      <trkpt lat="42.3406" lon="-0.5143">
        <ele>990.53</ele>
        <time>2021-08-03T10:08:26Z</time>
      </trkpt>
      <trkpt lat="42.34057" lon="-0.51446">
        <ele>989.75</ele>
        <time>2021-08-03T10:08:27Z</time>
      </trkpt>
      <trkpt lat="42.34035" lon="-0.51523">
        <ele>985.44</ele>
        <time>2021-08-03T10:08:33Z</time>
      </trkpt>
      <trkpt lat="42.34032" lon="-0.51537">
        <ele>984.8</ele>
        <time>2021-08-03T10:08:34Z</time>
      </trkpt>
      <trkpt lat="42.34041" lon="-0.51598">
        <ele>981</ele>
        <time>2021-08-03T10:08:40Z</time>
      </trkpt>
      <trkpt lat="42.34085" lon="-0.51628">
        <ele>978.45</ele>
        <time>2021-08-03T10:08:44Z</time>
      </trkpt>
      <trkpt lat="42.34095" lon="-0.51641">
        <ele>977.92</ele>
        <time>2021-08-03T10:08:45Z</time>
      </trkpt>
      <trkpt lat="42.34125" lon="-0.51696">
        <ele>975.32</ele>
        <time>2021-08-03T10:08:49Z</time>
      </trkpt>
      <trkpt lat="42.34136" lon="-0.5176">
        <ele>972.57</ele>
        <time>2021-08-03T10:08:53Z</time>
      </trkpt>
      <trkpt lat="42.34135" lon="-0.5181">
        <ele>970.46</ele>
        <time>2021-08-03T10:08:56Z</time>
      </trkpt>
      <trkpt lat="42.34161" lon="-0.51867">
        <ele>966.66</ele>
        <time>2021-08-03T10:09:01Z</time>
      </trkpt>
      <trkpt lat="42.3418" lon="-0.51882">
        <ele>965.4</ele>
        <time>2021-08-03T10:09:03Z</time>
      </trkpt>
      <trkpt lat="42.34226" lon="-0.51958">
        <ele>962.24</ele>
        <time>2021-08-03T10:09:09Z</time>
      </trkpt>
      <trkpt lat="42.34234" lon="-0.52067">
        <ele>958.83</ele>
        <time>2021-08-03T10:09:16Z</time>
      </trkpt>
      <trkpt lat="42.34254" lon="-0.52128">
        <ele>957.12</ele>
        <time>2021-08-03T10:09:20Z</time>
      </trkpt>
      <trkpt lat="42.34342" lon="-0.52275">
        <ele>953.59</ele>
        <time>2021-08-03T10:09:30Z</time>
      </trkpt>
      <trkpt lat="42.34447" lon="-0.52441">
        <ele>950.62</ele>
        <time>2021-08-03T10:09:41Z</time>
      </trkpt>
      <trkpt lat="42.34464" lon="-0.52512">
        <ele>950.01</ele>
        <time>2021-08-03T10:09:45Z</time>
      </trkpt>
      <trkpt lat="42.34467" lon="-0.5255">
        <ele>949.63</ele>
        <time>2021-08-03T10:09:47Z</time>
      </trkpt>
      <trkpt lat="42.34487" lon="-0.52618">
        <ele>948.63</ele>
        <time>2021-08-03T10:09:51Z</time>
      </trkpt>
      <trkpt lat="42.3456" lon="-0.52762">
        <ele>945.04</ele>
        <time>2021-08-03T10:10:00Z</time>
      </trkpt>
      <trkpt lat="42.34616" lon="-0.52894">
        <ele>941.67</ele>
        <time>2021-08-03T10:10:07Z</time>
      </trkpt>
      <trkpt lat="42.34662" lon="-0.53024">
        <ele>938.42</ele>
        <time>2021-08-03T10:10:14Z</time>
      </trkpt>
      <trkpt lat="42.34704" lon="-0.53109">
        <ele>936.12</ele>
        <time>2021-08-03T10:10:19Z</time>
      </trkpt>
      <trkpt lat="42.34721" lon="-0.53162">
        <ele>934.74</ele>
        <time>2021-08-03T10:10:22Z</time>
      </trkpt>
      <trkpt lat="42.34755" lon="-0.53225">
        <ele>932.68</ele>
        <time>2021-08-03T10:10:26Z</time>
      </trkpt>
      <trkpt lat="42.34842" lon="-0.53311">
        <ele>928.86</ele>
        <time>2021-08-03T10:10:33Z</time>
      </trkpt>
      <trkpt lat="42.34892" lon="-0.53362">
        <ele>925.85</ele>
        <time>2021-08-03T10:10:37Z</time>
      </trkpt>
      <trkpt lat="42.34941" lon="-0.5342">
        <ele>922.82</ele>
        <time>2021-08-03T10:10:41Z</time>
      </trkpt>
      <trkpt lat="42.34982" lon="-0.53489">
        <ele>919.43</ele>
        <time>2021-08-03T10:10:45Z</time>
      </trkpt>
      <trkpt lat="42.35002" lon="-0.53525">
        <ele>917.7</ele>
        <time>2021-08-03T10:10:47Z</time>
      </trkpt>
      <trkpt lat="42.35036" lon="-0.53632">
        <ele>912.85</ele>
        <time>2021-08-03T10:10:52Z</time>
      </trkpt>
      <trkpt lat="42.35044" lon="-0.53722">
        <ele>908.94</ele>
        <time>2021-08-03T10:10:56Z</time>
      </trkpt>
      <trkpt lat="42.35044" lon="-0.5379">
        <ele>905.9</ele>
        <time>2021-08-03T10:10:59Z</time>
      </trkpt>
      <trkpt lat="42.35044" lon="-0.53853">
        <ele>902.77</ele>
        <time>2021-08-03T10:11:02Z</time>
      </trkpt>
      <trkpt lat="42.35051" lon="-0.53917">
        <ele>899.52</ele>
        <time>2021-08-03T10:11:05Z</time>
      </trkpt>
      <trkpt lat="42.35078" lon="-0.53988">
        <ele>895.24</ele>
        <time>2021-08-03T10:11:09Z</time>
      </trkpt>
      <trkpt lat="42.35088" lon="-0.54004">
        <ele>894.16</ele>
        <time>2021-08-03T10:11:10Z</time>
      </trkpt>
      <trkpt lat="42.35121" lon="-0.54046">
        <ele>891.16</ele>
        <time>2021-08-03T10:11:13Z</time>
      </trkpt>
      <trkpt lat="42.35166" lon="-0.54084">
        <ele>886.86</ele>
        <time>2021-08-03T10:11:17Z</time>
      </trkpt>
      <trkpt lat="42.35182" lon="-0.54116">
        <ele>883.67</ele>
        <time>2021-08-03T10:11:19Z</time>
      </trkpt>
      <trkpt lat="42.35227" lon="-0.54195">
        <ele>878.84</ele>
        <time>2021-08-03T10:11:24Z</time>
      </trkpt>
      <trkpt lat="42.35277" lon="-0.5424">
        <ele>874.5</ele>
        <time>2021-08-03T10:11:28Z</time>
      </trkpt>
      <trkpt lat="42.3529" lon="-0.54251">
        <ele>873.31</ele>
        <time>2021-08-03T10:11:29Z</time>
      </trkpt>
      <trkpt lat="42.35312" lon="-0.54279">
        <ele>870.82</ele>
        <time>2021-08-03T10:11:31Z</time>
      </trkpt>
      <trkpt lat="42.35353" lon="-0.54325">
        <ele>865.71</ele>
        <time>2021-08-03T10:11:35Z</time>
      </trkpt>
      <trkpt lat="42.3536" lon="-0.5434">
        <ele>864.39</ele>
        <time>2021-08-03T10:11:36Z</time>
      </trkpt>
      <trkpt lat="42.35385" lon="-0.54391">
        <ele>859.27</ele>
        <time>2021-08-03T10:11:40Z</time>
      </trkpt>
      <trkpt lat="42.354" lon="-0.54433">
        <ele>855.82</ele>
        <time>2021-08-03T10:11:43Z</time>
      </trkpt>
      <trkpt lat="42.3544" lon="-0.54503">
        <ele>850.87</ele>
        <time>2021-08-03T10:11:48Z</time>
      </trkpt>
      <trkpt lat="42.35468" lon="-0.54551">
        <ele>847.73</ele>
        <time>2021-08-03T10:11:51Z</time>
      </trkpt>
      <trkpt lat="42.35495" lon="-0.54602">
        <ele>844.27</ele>
        <time>2021-08-03T10:11:54Z</time>
      </trkpt>
      <trkpt lat="42.35503" lon="-0.5462">
        <ele>843.16</ele>
        <time>2021-08-03T10:11:55Z</time>
      </trkpt>
      <trkpt lat="42.35518" lon="-0.54693">
        <ele>838.27</ele>
        <time>2021-08-03T10:11:59Z</time>
      </trkpt>
      <trkpt lat="42.35514" lon="-0.54729">
        <ele>835.86</ele>
        <time>2021-08-03T10:12:01Z</time>
      </trkpt>
      <trkpt lat="42.35504" lon="-0.54767">
        <ele>832.72</ele>
        <time>2021-08-03T10:12:04Z</time>
      </trkpt>
      <trkpt lat="42.35528" lon="-0.5485">
        <ele>829.54</ele>
        <time>2021-08-03T10:12:11Z</time>
      </trkpt>
      <trkpt lat="42.35552" lon="-0.54865">
        <ele>829.37</ele>
        <time>2021-08-03T10:12:13Z</time>
      </trkpt>
      <trkpt lat="42.35591" lon="-0.54892">
        <ele>829.39</ele>
        <time>2021-08-03T10:12:16Z</time>
      </trkpt>
      <trkpt lat="42.35673" lon="-0.55042">
        <ele>831.45</ele>
        <time>2021-08-03T10:12:25Z</time>
      </trkpt>
      <trkpt lat="42.35719" lon="-0.55092">
        <ele>833.81</ele>
        <time>2021-08-03T10:12:29Z</time>
      </trkpt>
      <trkpt lat="42.35759" lon="-0.55121">
        <ele>836.17</ele>
        <time>2021-08-03T10:12:32Z</time>
      </trkpt>
      <trkpt lat="42.35832" lon="-0.55139">
        <ele>840.29</ele>
        <time>2021-08-03T10:12:37Z</time>
      </trkpt>
      <trkpt lat="42.35868" lon="-0.55175">
        <ele>841.96</ele>
        <time>2021-08-03T10:12:40Z</time>
      </trkpt>
      <trkpt lat="42.35956" lon="-0.5529">
        <ele>839.37</ele>
        <time>2021-08-03T10:12:48Z</time>
      </trkpt>
      <trkpt lat="42.36023" lon="-0.55344">
        <ele>834.94</ele>
        <time>2021-08-03T10:12:53Z</time>
      </trkpt>
      <trkpt lat="42.36057" lon="-0.55385">
        <ele>832.07</ele>
        <time>2021-08-03T10:12:56Z</time>
      </trkpt>
      <trkpt lat="42.36086" lon="-0.55406">
        <ele>827.61</ele>
        <time>2021-08-03T10:12:59Z</time>
      </trkpt>
      <trkpt lat="42.36119" lon="-0.55375">
        <ele>823.85</ele>
        <time>2021-08-03T10:13:03Z</time>
      </trkpt>
      <trkpt lat="42.36162" lon="-0.55373">
        <ele>822.08</ele>
        <time>2021-08-03T10:13:08Z</time>
      </trkpt>
      <trkpt lat="42.36178" lon="-0.55398">
        <ele>821.98</ele>
        <time>2021-08-03T10:13:10Z</time>
      </trkpt>
      <trkpt lat="42.36217" lon="-0.55478">
        <ele>823.31</ele>
        <time>2021-08-03T10:13:15Z</time>
      </trkpt>
      <trkpt lat="42.36326" lon="-0.556">
        <ele>826.16</ele>
        <time>2021-08-03T10:13:25Z</time>
      </trkpt>
      <trkpt lat="42.36337" lon="-0.5561">
        <ele>826.06</ele>
        <time>2021-08-03T10:13:26Z</time>
      </trkpt>
      <trkpt lat="42.36457" lon="-0.55648">
        <ele>824.34</ele>
        <time>2021-08-03T10:13:35Z</time>
      </trkpt>
      <trkpt lat="42.36499" lon="-0.55658">
        <ele>822.76</ele>
        <time>2021-08-03T10:13:38Z</time>
      </trkpt>
      <trkpt lat="42.36556" lon="-0.55715">
        <ele>819.04</ele>
        <time>2021-08-03T10:13:43Z</time>
      </trkpt>
      <trkpt lat="42.36578" lon="-0.55785">
        <ele>815.56</ele>
        <time>2021-08-03T10:13:47Z</time>
      </trkpt>
      <trkpt lat="42.3661" lon="-0.55853">
        <ele>811.69</ele>
        <time>2021-08-03T10:13:52Z</time>
      </trkpt>
      <trkpt lat="42.36657" lon="-0.5589">
        <ele>810.23</ele>
        <time>2021-08-03T10:13:56Z</time>
      </trkpt>
      <trkpt lat="42.36683" lon="-0.55965">
        <ele>808.07</ele>
        <time>2021-08-03T10:14:01Z</time>
      </trkpt>
      <trkpt lat="42.36673" lon="-0.56088">
        <ele>803.96</ele>
        <time>2021-08-03T10:14:07Z</time>
      </trkpt>
      <trkpt lat="42.3667" lon="-0.56123">
        <ele>802.34</ele>
        <time>2021-08-03T10:14:09Z</time>
      </trkpt>
      <trkpt lat="42.36693" lon="-0.56178">
        <ele>797.86</ele>
        <time>2021-08-03T10:14:14Z</time>
      </trkpt>
      <trkpt lat="42.36716" lon="-0.56175">
        <ele>796.21</ele>
        <time>2021-08-03T10:14:16Z</time>
      </trkpt>
      <trkpt lat="42.36799" lon="-0.56186">
        <ele>791.69</ele>
        <time>2021-08-03T10:14:23Z</time>
      </trkpt>
      <trkpt lat="42.36838" lon="-0.56231">
        <ele>789.55</ele>
        <time>2021-08-03T10:14:27Z</time>
      </trkpt>
      <trkpt lat="42.36869" lon="-0.56288">
        <ele>788.22</ele>
        <time>2021-08-03T10:14:31Z</time>
      </trkpt>
      <trkpt lat="42.36889" lon="-0.56359">
        <ele>787.25</ele>
        <time>2021-08-03T10:14:35Z</time>
      </trkpt>
      <trkpt lat="42.36921" lon="-0.5643">
        <ele>784.88</ele>
        <time>2021-08-03T10:14:40Z</time>
      </trkpt>
      <trkpt lat="42.36961" lon="-0.56484">
        <ele>782.62</ele>
        <time>2021-08-03T10:14:44Z</time>
      </trkpt>
      <trkpt lat="42.36984" lon="-0.56558">
        <ele>779.64</ele>
        <time>2021-08-03T10:14:48Z</time>
      </trkpt>
      <trkpt lat="42.37013" lon="-0.56651">
        <ele>774.92</ele>
        <time>2021-08-03T10:14:53Z</time>
      </trkpt>
      <trkpt lat="42.37042" lon="-0.56679">
        <ele>771.87</ele>
        <time>2021-08-03T10:14:56Z</time>
      </trkpt>
      <trkpt lat="42.3708" lon="-0.56682">
        <ele>768.68</ele>
        <time>2021-08-03T10:14:59Z</time>
      </trkpt>
      <trkpt lat="42.37105" lon="-0.56676">
        <ele>767.04</ele>
        <time>2021-08-03T10:15:01Z</time>
      </trkpt>
      <trkpt lat="42.3715" lon="-0.56698">
        <ele>762.58</ele>
        <time>2021-08-03T10:15:06Z</time>
      </trkpt>
      <trkpt lat="42.37158" lon="-0.56707">
        <ele>761.8</ele>
        <time>2021-08-03T10:15:07Z</time>
      </trkpt>
      <trkpt lat="42.37211" lon="-0.56785">
        <ele>757.58</ele>
        <time>2021-08-03T10:15:13Z</time>
      </trkpt>
      <trkpt lat="42.37251" lon="-0.56843">
        <ele>754.47</ele>
        <time>2021-08-03T10:15:17Z</time>
      </trkpt>
      <trkpt lat="42.37291" lon="-0.56899">
        <ele>751.01</ele>
        <time>2021-08-03T10:15:21Z</time>
      </trkpt>
      <trkpt lat="42.37301" lon="-0.56913">
        <ele>750.25</ele>
        <time>2021-08-03T10:15:22Z</time>
      </trkpt>
      <trkpt lat="42.37312" lon="-0.56993">
        <ele>745.87</ele>
        <time>2021-08-03T10:15:27Z</time>
      </trkpt>
      <trkpt lat="42.37293" lon="-0.57056">
        <ele>742.55</ele>
        <time>2021-08-03T10:15:31Z</time>
      </trkpt>
      <trkpt lat="42.3729" lon="-0.57123">
        <ele>739.51</ele>
        <time>2021-08-03T10:15:36Z</time>
      </trkpt>
      <trkpt lat="42.37281" lon="-0.57134">
        <ele>739.1</ele>
        <time>2021-08-03T10:15:37Z</time>
      </trkpt>
      <trkpt lat="42.37247" lon="-0.57195">
        <ele>738.16</ele>
        <time>2021-08-03T10:15:42Z</time>
      </trkpt>
      <trkpt lat="42.37244" lon="-0.57258">
        <ele>738.92</ele>
        <time>2021-08-03T10:15:46Z</time>
      </trkpt>
      <trkpt lat="42.37264" lon="-0.57506">
        <ele>741.42</ele>
        <time>2021-08-03T10:15:58Z</time>
      </trkpt>
      <trkpt lat="42.3727" lon="-0.57567">
        <ele>740.96</ele>
        <time>2021-08-03T10:16:01Z</time>
      </trkpt>
      <trkpt lat="42.37301" lon="-0.57645">
        <ele>739.29</ele>
        <time>2021-08-03T10:16:06Z</time>
      </trkpt>
      <trkpt lat="42.37376" lon="-0.57733">
        <ele>735.23</ele>
        <time>2021-08-03T10:16:13Z</time>
      </trkpt>
      <trkpt lat="42.37385" lon="-0.57741">
        <ele>734.33</ele>
        <time>2021-08-03T10:16:14Z</time>
      </trkpt>
      <trkpt lat="42.37396" lon="-0.57746">
        <ele>732.4</ele>
        <time>2021-08-03T10:16:15Z</time>
      </trkpt>
      <trkpt lat="42.37407" lon="-0.57748">
        <ele>731.41</ele>
        <time>2021-08-03T10:16:16Z</time>
      </trkpt>
      <trkpt lat="42.3742" lon="-0.57748">
        <ele>730.41</ele>
        <time>2021-08-03T10:16:17Z</time>
      </trkpt>
      <trkpt lat="42.37433" lon="-0.57747">
        <ele>729.47</ele>
        <time>2021-08-03T10:16:18Z</time>
      </trkpt>
      <trkpt lat="42.37483" lon="-0.57753">
        <ele>725.84</ele>
        <time>2021-08-03T10:16:22Z</time>
      </trkpt>
      <trkpt lat="42.37526" lon="-0.57791">
        <ele>722.55</ele>
        <time>2021-08-03T10:16:26Z</time>
      </trkpt>
      <trkpt lat="42.37564" lon="-0.57867">
        <ele>718.02</ele>
        <time>2021-08-03T10:16:31Z</time>
      </trkpt>
      <trkpt lat="42.37575" lon="-0.5792">
        <ele>714.81</ele>
        <time>2021-08-03T10:16:35Z</time>
      </trkpt>
      <trkpt lat="42.3756" lon="-0.58023">
        <ele>711.58</ele>
        <time>2021-08-03T10:16:42Z</time>
      </trkpt>
      <trkpt lat="42.37553" lon="-0.58037">
        <ele>711.29</ele>
        <time>2021-08-03T10:16:43Z</time>
      </trkpt>
      <trkpt lat="42.37502" lon="-0.58133">
        <ele>709.3</ele>
        <time>2021-08-03T10:16:52Z</time>
      </trkpt>
      <trkpt lat="42.37497" lon="-0.58147">
        <ele>709</ele>
        <time>2021-08-03T10:16:54Z</time>
      </trkpt>
      <trkpt lat="42.37483" lon="-0.58197">
        <ele>707.87</ele>
        <time>2021-08-03T10:17:01Z</time>
      </trkpt>
      <trkpt lat="42.3749" lon="-0.5824">
        <ele>707.53</ele>
        <time>2021-08-03T10:17:06Z</time>
      </trkpt>
      <trkpt lat="42.37549" lon="-0.58313">
        <ele>707.27</ele>
        <time>2021-08-03T10:17:18Z</time>
      </trkpt>
      <trkpt lat="42.37572" lon="-0.58332">
        <ele>707.07</ele>
        <time>2021-08-03T10:17:22Z</time>
      </trkpt>
      <trkpt lat="42.37576" lon="-0.58338">
        <ele>706.97</ele>
        <time>2021-08-03T10:17:23Z</time>
      </trkpt>
      <trkpt lat="42.3758" lon="-0.58344">
        <ele>706.88</ele>
        <time>2021-08-03T10:17:24Z</time>
      </trkpt>
      <trkpt lat="42.37585" lon="-0.58376">
        <ele>706.53</ele>
        <time>2021-08-03T10:17:30Z</time>
      </trkpt>
      <trkpt lat="42.37586" lon="-0.58426">
        <ele>706.51</ele>
        <time>2021-08-03T10:17:34Z</time>
      </trkpt>
      <trkpt lat="42.37581" lon="-0.58505">
        <ele>704.21</ele>
        <time>2021-08-03T10:17:41Z</time>
      </trkpt>
      <trkpt lat="42.37611" lon="-0.58591">
        <ele>700.36</ele>
        <time>2021-08-03T10:17:48Z</time>
      </trkpt>
      <trkpt lat="42.37652" lon="-0.58674">
        <ele>698.74</ele>
        <time>2021-08-03T10:17:54Z</time>
      </trkpt>
      <trkpt lat="42.37658" lon="-0.58733">
        <ele>698.3</ele>
        <time>2021-08-03T10:17:58Z</time>
      </trkpt>
      <trkpt lat="42.37641" lon="-0.58828">
        <ele>697.87</ele>
        <time>2021-08-03T10:18:04Z</time>
      </trkpt>
      <trkpt lat="42.37649" lon="-0.58889">
        <ele>697.75</ele>
        <time>2021-08-03T10:18:08Z</time>
      </trkpt>
      <trkpt lat="42.37662" lon="-0.58928">
        <ele>697.64</ele>
        <time>2021-08-03T10:18:11Z</time>
      </trkpt>
      <trkpt lat="42.3771" lon="-0.59008">
        <ele>697.04</ele>
        <time>2021-08-03T10:18:18Z</time>
      </trkpt>
      <trkpt lat="42.37717" lon="-0.59052">
        <ele>694.07</ele>
        <time>2021-08-03T10:18:24Z</time>
      </trkpt>
      <trkpt lat="42.37695" lon="-0.59113">
        <ele>692.74</ele>
        <time>2021-08-03T10:18:32Z</time>
      </trkpt>
      <trkpt lat="42.37671" lon="-0.5918">
        <ele>692.63</ele>
        <time>2021-08-03T10:18:38Z</time>
      </trkpt>
      <trkpt lat="42.37615" lon="-0.59279">
        <ele>691.77</ele>
        <time>2021-08-03T10:18:47Z</time>
      </trkpt>
      <trkpt lat="42.37605" lon="-0.59336">
        <ele>691.2</ele>
        <time>2021-08-03T10:18:51Z</time>
      </trkpt>
      <trkpt lat="42.37601" lon="-0.59393">
        <ele>690.96</ele>
        <time>2021-08-03T10:18:55Z</time>
      </trkpt>
      <trkpt lat="42.37577" lon="-0.59443">
        <ele>690.21</ele>
        <time>2021-08-03T10:18:59Z</time>
      </trkpt>
      <trkpt lat="42.37494" lon="-0.59556">
        <ele>688.19</ele>
        <time>2021-08-03T10:19:09Z</time>
      </trkpt>
      <trkpt lat="42.37473" lon="-0.59615">
        <ele>687.17</ele>
        <time>2021-08-03T10:19:13Z</time>
      </trkpt>
      <trkpt lat="42.37423" lon="-0.59806">
        <ele>684.35</ele>
        <time>2021-08-03T10:19:25Z</time>
      </trkpt>
      <trkpt lat="42.37366" lon="-0.59957">
        <ele>682.14</ele>
        <time>2021-08-03T10:19:34Z</time>
      </trkpt>
      <trkpt lat="42.37356" lon="-0.60025">
        <ele>682.01</ele>
        <time>2021-08-03T10:19:38Z</time>
      </trkpt>
      <trkpt lat="42.37355" lon="-0.60078">
        <ele>681.91</ele>
        <time>2021-08-03T10:19:41Z</time>
      </trkpt>
      <trkpt lat="42.37363" lon="-0.60124">
        <ele>681.29</ele>
        <time>2021-08-03T10:19:44Z</time>
      </trkpt>
      <trkpt lat="42.37367" lon="-0.6025">
        <ele>680.02</ele>
        <time>2021-08-03T10:19:51Z</time>
      </trkpt>
      <trkpt lat="42.37364" lon="-0.60299">
        <ele>679.84</ele>
        <time>2021-08-03T10:19:54Z</time>
      </trkpt>
      <trkpt lat="42.37341" lon="-0.6035">
        <ele>679.41</ele>
        <time>2021-08-03T10:19:58Z</time>
      </trkpt>
      <trkpt lat="42.37317" lon="-0.60428">
        <ele>677.84</ele>
        <time>2021-08-03T10:20:03Z</time>
      </trkpt>
      <trkpt lat="42.37263" lon="-0.60519">
        <ele>675.29</ele>
        <time>2021-08-03T10:20:10Z</time>
      </trkpt>
      <trkpt lat="42.37245" lon="-0.60583">
        <ele>674.53</ele>
        <time>2021-08-03T10:20:14Z</time>
      </trkpt>
      <trkpt lat="42.37241" lon="-0.60619">
        <ele>674.15</ele>
        <time>2021-08-03T10:20:16Z</time>
      </trkpt>
      <trkpt lat="42.37242" lon="-0.60684">
        <ele>673.06</ele>
        <time>2021-08-03T10:20:20Z</time>
      </trkpt>
      <trkpt lat="42.37216" lon="-0.60759">
        <ele>671.68</ele>
        <time>2021-08-03T10:20:25Z</time>
      </trkpt>
      <trkpt lat="42.37142" lon="-0.60878">
        <ele>670.83</ele>
        <time>2021-08-03T10:20:34Z</time>
      </trkpt>
      <trkpt lat="42.37146" lon="-0.60956">
        <ele>670.71</ele>
        <time>2021-08-03T10:20:40Z</time>
      </trkpt>
      <trkpt lat="42.37176" lon="-0.60989">
        <ele>670.48</ele>
        <time>2021-08-03T10:20:43Z</time>
      </trkpt>
      <trkpt lat="42.37225" lon="-0.61039">
        <ele>669.57</ele>
        <time>2021-08-03T10:20:49Z</time>
      </trkpt>
      <trkpt lat="42.37265" lon="-0.61132">
        <ele>668.23</ele>
        <time>2021-08-03T10:20:56Z</time>
      </trkpt>
      <trkpt lat="42.37257" lon="-0.61218">
        <ele>666.43</ele>
        <time>2021-08-03T10:21:02Z</time>
      </trkpt>
      <trkpt lat="42.37206" lon="-0.61379">
        <ele>663.37</ele>
        <time>2021-08-03T10:21:12Z</time>
      </trkpt>
      <trkpt lat="42.3719" lon="-0.61456">
        <ele>662.02</ele>
        <time>2021-08-03T10:21:17Z</time>
      </trkpt>
      <trkpt lat="42.37159" lon="-0.61513">
        <ele>661.74</ele>
        <time>2021-08-03T10:21:22Z</time>
      </trkpt>
      <trkpt lat="42.37139" lon="-0.61528">
        <ele>661.7</ele>
        <time>2021-08-03T10:21:24Z</time>
      </trkpt>
      <trkpt lat="42.37112" lon="-0.61574">
        <ele>661.63</ele>
        <time>2021-08-03T10:21:28Z</time>
      </trkpt>
      <trkpt lat="42.37059" lon="-0.61765">
        <ele>662.06</ele>
        <time>2021-08-03T10:21:39Z</time>
      </trkpt>
      <trkpt lat="42.3705" lon="-0.61852">
        <ele>662.01</ele>
        <time>2021-08-03T10:21:44Z</time>
      </trkpt>
      <trkpt lat="42.37045" lon="-0.61887">
        <ele>661.63</ele>
        <time>2021-08-03T10:21:46Z</time>
      </trkpt>
      <trkpt lat="42.37069" lon="-0.61982">
        <ele>659.21</ele>
        <time>2021-08-03T10:21:52Z</time>
      </trkpt>
      <trkpt lat="42.37146" lon="-0.6209">
        <ele>655.42</ele>
        <time>2021-08-03T10:22:00Z</time>
      </trkpt>
      <trkpt lat="42.37252" lon="-0.62209">
        <ele>653.68</ele>
        <time>2021-08-03T10:22:10Z</time>
      </trkpt>
      <trkpt lat="42.3728" lon="-0.62267">
        <ele>653.51</ele>
        <time>2021-08-03T10:22:14Z</time>
      </trkpt>
      <trkpt lat="42.37294" lon="-0.62293">
        <ele>653.49</ele>
        <time>2021-08-03T10:22:16Z</time>
      </trkpt>
      <trkpt lat="42.37297" lon="-0.62382">
        <ele>653.48</ele>
        <time>2021-08-03T10:22:22Z</time>
      </trkpt>
      <trkpt lat="42.37274" lon="-0.62425">
        <ele>653.4</ele>
        <time>2021-08-03T10:22:25Z</time>
      </trkpt>
      <trkpt lat="42.37175" lon="-0.62547">
        <ele>650.89</ele>
        <time>2021-08-03T10:22:36Z</time>
      </trkpt>
      <trkpt lat="42.37165" lon="-0.62556">
        <ele>650.67</ele>
        <time>2021-08-03T10:22:37Z</time>
      </trkpt>
      <trkpt lat="42.37119" lon="-0.62624">
        <ele>648.91</ele>
        <time>2021-08-03T10:22:43Z</time>
      </trkpt>
      <trkpt lat="42.37108" lon="-0.627">
        <ele>647.81</ele>
        <time>2021-08-03T10:22:48Z</time>
      </trkpt>
      <trkpt lat="42.37112" lon="-0.62754">
        <ele>647.7</ele>
        <time>2021-08-03T10:22:51Z</time>
      </trkpt>
      <trkpt lat="42.3713" lon="-0.62825">
        <ele>647.84</ele>
        <time>2021-08-03T10:22:55Z</time>
      </trkpt>
      <trkpt lat="42.37136" lon="-0.62902">
        <ele>647.99</ele>
        <time>2021-08-03T10:22:59Z</time>
      </trkpt>
      <trkpt lat="42.37143" lon="-0.62975">
        <ele>648.35</ele>
        <time>2021-08-03T10:23:03Z</time>
      </trkpt>
      <trkpt lat="42.3712" lon="-0.63115">
        <ele>648.46</ele>
        <time>2021-08-03T10:23:11Z</time>
      </trkpt>
      <trkpt lat="42.37114" lon="-0.63298">
        <ele>646.59</ele>
        <time>2021-08-03T10:23:21Z</time>
      </trkpt>
      <trkpt lat="42.3712" lon="-0.6341">
        <ele>645.22</ele>
        <time>2021-08-03T10:23:27Z</time>
      </trkpt>
      <trkpt lat="42.37135" lon="-0.63469">
        <ele>643.19</ele>
        <time>2021-08-03T10:23:31Z</time>
      </trkpt>
      <trkpt lat="42.3712" lon="-0.63533">
        <ele>639.84</ele>
        <time>2021-08-03T10:23:36Z</time>
      </trkpt>
      <trkpt lat="42.37129" lon="-0.63621">
        <ele>636.94</ele>
        <time>2021-08-03T10:23:42Z</time>
      </trkpt>
      <trkpt lat="42.3719" lon="-0.63797">
        <ele>633.83</ele>
        <time>2021-08-03T10:23:53Z</time>
      </trkpt>
      <trkpt lat="42.37206" lon="-0.63843">
        <ele>633.47</ele>
        <time>2021-08-03T10:23:56Z</time>
      </trkpt>
      <trkpt lat="42.37213" lon="-0.63935">
        <ele>632.49</ele>
        <time>2021-08-03T10:24:01Z</time>
      </trkpt>
      <trkpt lat="42.37222" lon="-0.64155">
        <ele>631.19</ele>
        <time>2021-08-03T10:24:12Z</time>
      </trkpt>
      <trkpt lat="42.37228" lon="-0.64311">
        <ele>629.51</ele>
        <time>2021-08-03T10:24:20Z</time>
      </trkpt>
      <trkpt lat="42.37246" lon="-0.64376">
        <ele>627.95</ele>
        <time>2021-08-03T10:24:24Z</time>
      </trkpt>
      <trkpt lat="42.37287" lon="-0.6443">
        <ele>625.91</ele>
        <time>2021-08-03T10:24:28Z</time>
      </trkpt>
      <trkpt lat="42.37345" lon="-0.64484">
        <ele>623.1</ele>
        <time>2021-08-03T10:24:33Z</time>
      </trkpt>
      <trkpt lat="42.37367" lon="-0.64544">
        <ele>621.92</ele>
        <time>2021-08-03T10:24:37Z</time>
      </trkpt>
      <trkpt lat="42.37393" lon="-0.64787">
        <ele>620.44</ele>
        <time>2021-08-03T10:24:49Z</time>
      </trkpt>
      <trkpt lat="42.37361" lon="-0.64914">
        <ele>621.05</ele>
        <time>2021-08-03T10:24:57Z</time>
      </trkpt>
      <trkpt lat="42.37385" lon="-0.64991">
        <ele>622.46</ele>
        <time>2021-08-03T10:25:03Z</time>
      </trkpt>
      <trkpt lat="42.37455" lon="-0.65051">
        <ele>623.66</ele>
        <time>2021-08-03T10:25:09Z</time>
      </trkpt>
      <trkpt lat="42.37519" lon="-0.6508">
        <ele>623.11</ele>
        <time>2021-08-03T10:25:14Z</time>
      </trkpt>
      <trkpt lat="42.37598" lon="-0.6514">
        <ele>620.69</ele>
        <time>2021-08-03T10:25:20Z</time>
      </trkpt>
      <trkpt lat="42.37713" lon="-0.65192">
        <ele>617.29</ele>
        <time>2021-08-03T10:25:29Z</time>
      </trkpt>
      <trkpt lat="42.37767" lon="-0.65276">
        <ele>615.61</ele>
        <time>2021-08-03T10:25:36Z</time>
      </trkpt>
      <trkpt lat="42.37766" lon="-0.65293">
        <ele>615.4</ele>
        <time>2021-08-03T10:25:37Z</time>
      </trkpt>
      <trkpt lat="42.37761" lon="-0.65342">
        <ele>614.18</ele>
        <time>2021-08-03T10:25:43Z</time>
      </trkpt>
      <trkpt lat="42.37753" lon="-0.65384">
        <ele>612.69</ele>
        <time>2021-08-03T10:25:55Z</time>
      </trkpt>
      <trkpt lat="42.37723" lon="-0.65491">
        <ele>612.74</ele>
        <time>2021-08-03T10:26:03Z</time>
      </trkpt>
      <trkpt lat="42.37708" lon="-0.65549">
        <ele>612.02</ele>
        <time>2021-08-03T10:26:09Z</time>
      </trkpt>
      <trkpt lat="42.37692" lon="-0.65665">
        <ele>610.79</ele>
        <time>2021-08-03T10:26:17Z</time>
      </trkpt>
      <trkpt lat="42.37691" lon="-0.65681">
        <ele>610.73</ele>
        <time>2021-08-03T10:26:18Z</time>
      </trkpt>
      <trkpt lat="42.37702" lon="-0.65763">
        <ele>610.76</ele>
        <time>2021-08-03T10:26:23Z</time>
      </trkpt>
      <trkpt lat="42.37736" lon="-0.65825">
        <ele>611.17</ele>
        <time>2021-08-03T10:26:28Z</time>
      </trkpt>
      <trkpt lat="42.37833" lon="-0.65892">
        <ele>609.72</ele>
        <time>2021-08-03T10:26:36Z</time>
      </trkpt>
      <trkpt lat="42.37894" lon="-0.65944">
        <ele>608.08</ele>
        <time>2021-08-03T10:26:41Z</time>
      </trkpt>
      <trkpt lat="42.38024" lon="-0.66026">
        <ele>606.78</ele>
        <time>2021-08-03T10:26:52Z</time>
      </trkpt>
      <trkpt lat="42.38087" lon="-0.66061">
        <ele>607.79</ele>
        <time>2021-08-03T10:26:57Z</time>
      </trkpt>
      <trkpt lat="42.38116" lon="-0.6611">
        <ele>608.6</ele>
        <time>2021-08-03T10:27:01Z</time>
      </trkpt>
      <trkpt lat="42.38172" lon="-0.66314">
        <ele>609.47</ele>
        <time>2021-08-03T10:27:12Z</time>
      </trkpt>
      <trkpt lat="42.38237" lon="-0.66484">
        <ele>608.95</ele>
        <time>2021-08-03T10:27:22Z</time>
      </trkpt>
      <trkpt lat="42.38259" lon="-0.66567">
        <ele>606.21</ele>
        <time>2021-08-03T10:27:29Z</time>
      </trkpt>
      <trkpt lat="42.383" lon="-0.667">
        <ele>604.15</ele>
        <time>2021-08-03T10:27:37Z</time>
      </trkpt>
      <trkpt lat="42.38358" lon="-0.66825">
        <ele>602.26</ele>
        <time>2021-08-03T10:27:45Z</time>
      </trkpt>
      <trkpt lat="42.384" lon="-0.66878">
        <ele>599.88</ele>
        <time>2021-08-03T10:27:50Z</time>
      </trkpt>
      <trkpt lat="42.38404" lon="-0.66891">
        <ele>596.01</ele>
        <time>2021-08-03T10:27:57Z</time>
      </trkpt>
      <trkpt lat="42.38404" lon="-0.66893">
        <ele>595.32</ele>
        <time>2021-08-03T10:27:59Z</time>
      </trkpt>
      <trkpt lat="42.38407" lon="-0.66926">
        <ele>594.48</ele>
        <time>2021-08-03T10:28:03Z</time>
      </trkpt>
      <trkpt lat="42.38436" lon="-0.67052">
        <ele>593.59</ele>
        <time>2021-08-03T10:28:12Z</time>
      </trkpt>
      <trkpt lat="42.38456" lon="-0.67278">
        <ele>592.48</ele>
        <time>2021-08-03T10:28:24Z</time>
      </trkpt>
      <trkpt lat="42.38472" lon="-0.67462">
        <ele>589.18</ele>
        <time>2021-08-03T10:28:34Z</time>
      </trkpt>
      <trkpt lat="42.38471" lon="-0.67497">
        <ele>588.24</ele>
        <time>2021-08-03T10:28:36Z</time>
      </trkpt>
      <trkpt lat="42.38492" lon="-0.67576">
        <ele>584.51</ele>
        <time>2021-08-03T10:28:42Z</time>
      </trkpt>
      <trkpt lat="42.38533" lon="-0.67599">
        <ele>581.87</ele>
        <time>2021-08-03T10:28:47Z</time>
      </trkpt>
      <trkpt lat="42.38567" lon="-0.67602">
        <ele>580.21</ele>
        <time>2021-08-03T10:28:51Z</time>
      </trkpt>
      <trkpt lat="42.38573" lon="-0.67606">
        <ele>579.91</ele>
        <time>2021-08-03T10:28:52Z</time>
      </trkpt>
      <trkpt lat="42.38577" lon="-0.67612">
        <ele>579.54</ele>
        <time>2021-08-03T10:28:53Z</time>
      </trkpt>
      <trkpt lat="42.38579" lon="-0.67619">
        <ele>579.16</ele>
        <time>2021-08-03T10:28:54Z</time>
      </trkpt>
      <trkpt lat="42.38581" lon="-0.67627">
        <ele>578.83</ele>
        <time>2021-08-03T10:28:55Z</time>
      </trkpt>
      <trkpt lat="42.38581" lon="-0.67635">
        <ele>578.5</ele>
        <time>2021-08-03T10:28:56Z</time>
      </trkpt>
      <trkpt lat="42.38583" lon="-0.67667">
        <ele>576.09</ele>
        <time>2021-08-03T10:29:03Z</time>
      </trkpt>
      <trkpt lat="42.38582" lon="-0.67682">
        <ele>574.97</ele>
        <time>2021-08-03T10:29:10Z</time>
      </trkpt>
      <trkpt lat="42.38582" lon="-0.67706">
        <ele>574.68</ele>
        <time>2021-08-03T10:29:21Z</time>
      </trkpt>
      <trkpt lat="42.38582" lon="-0.67745">
        <ele>574.74</ele>
        <time>2021-08-03T10:29:29Z</time>
      </trkpt>
      <trkpt lat="42.38568" lon="-0.67751">
        <ele>574.83</ele>
        <time>2021-08-03T10:29:32Z</time>
      </trkpt>
      <trkpt lat="42.38478" lon="-0.67768">
        <ele>576.49</ele>
        <time>2021-08-03T10:29:41Z</time>
      </trkpt>
      <trkpt lat="42.38431" lon="-0.6781">
        <ele>578.87</ele>
        <time>2021-08-03T10:29:46Z</time>
      </trkpt>
      <trkpt lat="42.38396" lon="-0.67906">
        <ele>583.2</ele>
        <time>2021-08-03T10:29:53Z</time>
      </trkpt>
      <trkpt lat="42.38396" lon="-0.67961">
        <ele>584.99</ele>
        <time>2021-08-03T10:29:56Z</time>
      </trkpt>
      <trkpt lat="42.38405" lon="-0.68114">
        <ele>588.87</ele>
        <time>2021-08-03T10:30:04Z</time>
      </trkpt>
      <trkpt lat="42.38389" lon="-0.68283">
        <ele>589.63</ele>
        <time>2021-08-03T10:30:12Z</time>
      </trkpt>
      <trkpt lat="42.38343" lon="-0.68492">
        <ele>588.44</ele>
        <time>2021-08-03T10:30:23Z</time>
      </trkpt>
      <trkpt lat="42.3829" lon="-0.68735">
        <ele>588.5</ele>
        <time>2021-08-03T10:30:37Z</time>
      </trkpt>
      <trkpt lat="42.38262" lon="-0.68869">
        <ele>586.43</ele>
        <time>2021-08-03T10:30:46Z</time>
      </trkpt>
      <trkpt lat="42.38233" lon="-0.69001">
        <ele>583.69</ele>
        <time>2021-08-03T10:30:57Z</time>
      </trkpt>
      <trkpt lat="42.38202" lon="-0.6916">
        <ele>580.57</ele>
        <time>2021-08-03T10:31:12Z</time>
      </trkpt>
      <trkpt lat="42.38193" lon="-0.69266">
        <ele>578.65</ele>
        <time>2021-08-03T10:31:23Z</time>
      </trkpt>
      <trkpt lat="42.38188" lon="-0.69398">
        <ele>578.06</ele>
        <time>2021-08-03T10:31:31Z</time>
      </trkpt>
      <trkpt lat="42.38186" lon="-0.69527">
        <ele>576.98</ele>
        <time>2021-08-03T10:31:39Z</time>
      </trkpt>
      <trkpt lat="42.38185" lon="-0.69579">
        <ele>574.85</ele>
        <time>2021-08-03T10:31:45Z</time>
      </trkpt>
      <trkpt lat="42.38183" lon="-0.69667">
        <ele>572.82</ele>
        <time>2021-08-03T10:31:53Z</time>
      </trkpt>
      <trkpt lat="42.38181" lon="-0.69768">
        <ele>570.48</ele>
        <time>2021-08-03T10:32:03Z</time>
      </trkpt>
      <trkpt lat="42.3818" lon="-0.69844">
        <ele>568.8</ele>
        <time>2021-08-03T10:32:13Z</time>
      </trkpt>
      <trkpt lat="42.38187" lon="-0.69869">
        <ele>567.43</ele>
        <time>2021-08-03T10:32:20Z</time>
      </trkpt>
      <trkpt lat="42.38188" lon="-0.69873">
        <ele>567.11</ele>
        <time>2021-08-03T10:32:22Z</time>
      </trkpt>
      <trkpt lat="42.3818" lon="-0.69859">
        <ele>566.36</ele>
        <time>2021-08-03T10:32:29Z</time>
      </trkpt>
      <trkpt lat="42.38179" lon="-0.69806">
        <ele>566.6</ele>
        <time>2021-08-03T10:32:34Z</time>
      </trkpt>
      <trkpt lat="42.38179" lon="-0.69701">
        <ele>568.64</ele>
        <time>2021-08-03T10:32:44Z</time>
      </trkpt>
      <trkpt lat="42.38183" lon="-0.69606">
        <ele>570.57</ele>
        <time>2021-08-03T10:32:54Z</time>
      </trkpt>
      <trkpt lat="42.38159" lon="-0.69584">
        <ele>571.36</ele>
        <time>2021-08-03T10:33:03Z</time>
      </trkpt>
      <trkpt lat="42.38095" lon="-0.69585">
        <ele>570.58</ele>
        <time>2021-08-03T10:33:15Z</time>
      </trkpt>
      <trkpt lat="42.38087" lon="-0.69584">
        <ele>570.35</ele>
        <time>2021-08-03T10:33:17Z</time>
      </trkpt>
      <trkpt lat="42.38061" lon="-0.69585">
        <ele>569.28</ele>
        <time>2021-08-03T10:33:23Z</time>
      </trkpt>
      <trkpt lat="42.3805" lon="-0.69594">
        <ele>568.78</ele>
        <time>2021-08-03T10:33:26Z</time>
      </trkpt>
      <trkpt lat="42.38048" lon="-0.69598">
        <ele>568.62</ele>
        <time>2021-08-03T10:33:27Z</time>
      </trkpt>
      <trkpt lat="42.38047" lon="-0.69604">
        <ele>568.47</ele>
        <time>2021-08-03T10:33:28Z</time>
      </trkpt>
      <trkpt lat="42.38048" lon="-0.6961">
        <ele>568.27</ele>
        <time>2021-08-03T10:33:29Z</time>
      </trkpt>
      <trkpt lat="42.38049" lon="-0.69616">
        <ele>568.1</ele>
        <time>2021-08-03T10:33:30Z</time>
      </trkpt>
      <trkpt lat="42.38059" lon="-0.69702">
        <ele>566.28</ele>
        <time>2021-08-03T10:33:41Z</time>
      </trkpt>
      <trkpt lat="42.38067" lon="-0.69816">
        <ele>565.16</ele>
        <time>2021-08-03T10:33:51Z</time>
      </trkpt>
      <trkpt lat="42.38066" lon="-0.69892">
        <ele>564.57</ele>
        <time>2021-08-03T10:33:59Z</time>
      </trkpt>
      <trkpt lat="42.38064" lon="-0.70001">
        <ele>564.43</ele>
        <time>2021-08-03T10:34:08Z</time>
      </trkpt>
      <trkpt lat="42.38063" lon="-0.70147">
        <ele>564.18</ele>
        <time>2021-08-03T10:34:20Z</time>
      </trkpt>
      <trkpt lat="42.3806" lon="-0.70236">
        <ele>563.81</ele>
        <time>2021-08-03T10:34:30Z</time>
      </trkpt>
      <trkpt lat="42.38056" lon="-0.704">
        <ele>564.28</ele>
        <time>2021-08-03T10:34:40Z</time>
      </trkpt>
      <trkpt lat="42.3805" lon="-0.70649">
        <ele>565.15</ele>
        <time>2021-08-03T10:34:54Z</time>
      </trkpt>
      <trkpt lat="42.38048" lon="-0.70819">
        <ele>564.96</ele>
        <time>2021-08-03T10:35:05Z</time>
      </trkpt>
      <trkpt lat="42.38046" lon="-0.7094">
        <ele>564.14</ele>
        <time>2021-08-03T10:35:15Z</time>
      </trkpt>
      <trkpt lat="42.38046" lon="-0.70976">
        <ele>563.84</ele>
        <time>2021-08-03T10:35:20Z</time>
      </trkpt>
      <trkpt lat="42.3806" lon="-0.71013">
        <ele>563.62</ele>
        <time>2021-08-03T10:35:26Z</time>
      </trkpt>
      <trkpt lat="42.3807" lon="-0.7106">
        <ele>563.82</ele>
        <time>2021-08-03T10:35:34Z</time>
      </trkpt>
      <trkpt lat="42.3812" lon="-0.71149">
        <ele>563.86</ele>
        <time>2021-08-03T10:35:44Z</time>
      </trkpt>
      <trkpt lat="42.3813" lon="-0.71163">
        <ele>563.76</ele>
        <time>2021-08-03T10:35:46Z</time>
      </trkpt>
      <trkpt lat="42.38125" lon="-0.71195">
        <ele>563.34</ele>
        <time>2021-08-03T10:35:52Z</time>
      </trkpt>
      <trkpt lat="42.3809" lon="-0.71206">
        <ele>563.44</ele>
        <time>2021-08-03T10:35:56Z</time>
      </trkpt>
      <trkpt lat="42.38002" lon="-0.71206">
        <ele>567.13</ele>
        <time>2021-08-03T10:36:05Z</time>
      </trkpt>
      <trkpt lat="42.3787" lon="-0.71205">
        <ele>568.78</ele>
        <time>2021-08-03T10:36:17Z</time>
      </trkpt>
      <trkpt lat="42.37854" lon="-0.71206">
        <ele>567.75</ele>
        <time>2021-08-03T10:36:19Z</time>
      </trkpt>
      <trkpt lat="42.37844" lon="-0.71246">
        <ele>565.57</ele>
        <time>2021-08-03T10:36:25Z</time>
      </trkpt>
      <trkpt lat="42.37849" lon="-0.71268">
        <ele>565.23</ele>
        <time>2021-08-03T10:36:27Z</time>
      </trkpt>
      <trkpt lat="42.37848" lon="-0.71291">
        <ele>564.66</ele>
        <time>2021-08-03T10:36:31Z</time>
      </trkpt>
      <trkpt lat="42.37835" lon="-0.71282">
        <ele>564.57</ele>
        <time>2021-08-03T10:36:37Z</time>
      </trkpt>
      <trkpt lat="42.37813" lon="-0.71246">
        <ele>567.15</ele>
        <time>2021-08-03T10:36:45Z</time>
      </trkpt>
      <trkpt lat="42.37807" lon="-0.71222">
        <ele>568.41</ele>
        <time>2021-08-03T10:36:48Z</time>
      </trkpt>
      <trkpt lat="42.37805" lon="-0.71165">
        <ele>570.14</ele>
        <time>2021-08-03T10:36:56Z</time>
      </trkpt>
      <trkpt lat="42.37793" lon="-0.71108">
        <ele>570.77</ele>
        <time>2021-08-03T10:37:05Z</time>
      </trkpt>
      <trkpt lat="42.37772" lon="-0.71063">
        <ele>571.03</ele>
        <time>2021-08-03T10:37:11Z</time>
      </trkpt>
      <trkpt lat="42.37767" lon="-0.71026">
        <ele>570.73</ele>
        <time>2021-08-03T10:37:16Z</time>
      </trkpt>
      <trkpt lat="42.37751" lon="-0.70945">
        <ele>570.82</ele>
        <time>2021-08-03T10:37:28Z</time>
      </trkpt>
      <trkpt lat="42.37745" lon="-0.70931">
        <ele>570.88</ele>
        <time>2021-08-03T10:37:39Z</time>
      </trkpt>
      <trkpt lat="42.37737" lon="-0.70928">
        <ele>570.88</ele>
        <time>2021-08-03T10:37:41Z</time>
      </trkpt>
      <trkpt lat="42.37713" lon="-0.70899">
        <ele>572.4</ele>
        <time>2021-08-03T10:37:47Z</time>
      </trkpt>
      <trkpt lat="42.37694" lon="-0.70856">
        <ele>576.06</ele>
        <time>2021-08-03T10:37:53Z</time>
      </trkpt>
      <trkpt lat="42.37677" lon="-0.70792">
        <ele>579.23</ele>
        <time>2021-08-03T10:37:59Z</time>
      </trkpt>
      <trkpt lat="42.37665" lon="-0.70746">
        <ele>582.32</ele>
        <time>2021-08-03T10:38:06Z</time>
      </trkpt>
      <trkpt lat="42.37645" lon="-0.70673">
        <ele>585.62</ele>
        <time>2021-08-03T10:38:15Z</time>
      </trkpt>
      <trkpt lat="42.37626" lon="-0.70601">
        <ele>588.8</ele>
        <time>2021-08-03T10:38:23Z</time>
      </trkpt>
      <trkpt lat="42.37606" lon="-0.70536">
        <ele>591.97</ele>
        <time>2021-08-03T10:38:30Z</time>
      </trkpt>
      <trkpt lat="42.37593" lon="-0.70479">
        <ele>595.14</ele>
        <time>2021-08-03T10:38:36Z</time>
      </trkpt>
      <trkpt lat="42.37577" lon="-0.70427">
        <ele>598.61</ele>
        <time>2021-08-03T10:38:42Z</time>
      </trkpt>
      <trkpt lat="42.37561" lon="-0.70374">
        <ele>602.02</ele>
        <time>2021-08-03T10:38:48Z</time>
      </trkpt>
      <trkpt lat="42.37542" lon="-0.70315">
        <ele>605.34</ele>
        <time>2021-08-03T10:38:54Z</time>
      </trkpt>
      <trkpt lat="42.37527" lon="-0.70264">
        <ele>608.86</ele>
        <time>2021-08-03T10:38:59Z</time>
      </trkpt>
      <trkpt lat="42.37518" lon="-0.70229">
        <ele>612.09</ele>
        <time>2021-08-03T10:39:03Z</time>
      </trkpt>
      <trkpt lat="42.37508" lon="-0.70199">
        <ele>615.23</ele>
        <time>2021-08-03T10:39:07Z</time>
      </trkpt>
      <trkpt lat="42.37506" lon="-0.70192">
        <ele>615.98</ele>
        <time>2021-08-03T10:39:08Z</time>
      </trkpt>
      <trkpt lat="42.37494" lon="-0.70157">
        <ele>619.95</ele>
        <time>2021-08-03T10:39:13Z</time>
      </trkpt>
      <trkpt lat="42.37481" lon="-0.70119">
        <ele>623.36</ele>
        <time>2021-08-03T10:39:18Z</time>
      </trkpt>
      <trkpt lat="42.3747" lon="-0.7008">
        <ele>626.77</ele>
        <time>2021-08-03T10:39:23Z</time>
      </trkpt>
      <trkpt lat="42.37457" lon="-0.70047">
        <ele>630.42</ele>
        <time>2021-08-03T10:39:27Z</time>
      </trkpt>
      <trkpt lat="42.37441" lon="-0.70013">
        <ele>634.02</ele>
        <time>2021-08-03T10:39:32Z</time>
      </trkpt>
      <trkpt lat="42.37434" lon="-0.69987">
        <ele>637.48</ele>
        <time>2021-08-03T10:39:38Z</time>
      </trkpt>
      <trkpt lat="42.3743" lon="-0.6998">
        <ele>638.2</ele>
        <time>2021-08-03T10:39:40Z</time>
      </trkpt>
      <trkpt lat="42.37425" lon="-0.69972">
        <ele>639.38</ele>
        <time>2021-08-03T10:39:49Z</time>
      </trkpt>
      <trkpt lat="42.37424" lon="-0.69968">
        <ele>639.58</ele>
        <time>2021-08-03T10:39:51Z</time>
      </trkpt>
      <trkpt lat="42.37405" lon="-0.69924">
        <ele>639.82</ele>
        <time>2021-08-03T10:40:02Z</time>
      </trkpt>
      <trkpt lat="42.37402" lon="-0.6991">
        <ele>638.49</ele>
        <time>2021-08-03T10:40:54Z</time>
      </trkpt>
      <trkpt lat="42.37398" lon="-0.69904">
        <ele>639.62</ele>
        <time>2021-08-03T10:41:11Z</time>
      </trkpt>
      <trkpt lat="42.37399" lon="-0.69905">
        <ele>638.57</ele>
        <time>2021-08-03T10:42:05Z</time>
      </trkpt>
      <trkpt lat="42.37396" lon="-0.69903">
        <ele>637.91</ele>
        <time>2021-08-03T10:42:47Z</time>
      </trkpt>
      <trkpt lat="42.37384" lon="-0.69887">
        <ele>637.66</ele>
        <time>2021-08-03T10:47:55Z</time>
      </trkpt>
      <trkpt lat="42.37372" lon="-0.69891">
        <ele>636.81</ele>
        <time>2021-08-03T10:47:57Z</time>
      </trkpt>
      <trkpt lat="42.3734" lon="-0.69884">
        <ele>633.61</ele>
        <time>2021-08-03T10:48:07Z</time>
      </trkpt>
      <trkpt lat="42.37322" lon="-0.69914">
        <ele>632.67</ele>
        <time>2021-08-03T10:48:18Z</time>
      </trkpt>
      <trkpt lat="42.373" lon="-0.6994">
        <ele>634.06</ele>
        <time>2021-08-03T10:48:30Z</time>
      </trkpt>
      <trkpt lat="42.3727" lon="-0.69943">
        <ele>634.87</ele>
        <time>2021-08-03T10:48:40Z</time>
      </trkpt>
      <trkpt lat="42.37256" lon="-0.69941">
        <ele>634.9</ele>
        <time>2021-08-03T10:48:44Z</time>
      </trkpt>
      <trkpt lat="42.37219" lon="-0.6994">
        <ele>635.78</ele>
        <time>2021-08-03T10:48:55Z</time>
      </trkpt>
      <trkpt lat="42.37203" lon="-0.69965">
        <ele>635.07</ele>
        <time>2021-08-03T10:49:05Z</time>
      </trkpt>
      <trkpt lat="42.37184" lon="-0.69983">
        <ele>634.48</ele>
        <time>2021-08-03T10:49:12Z</time>
      </trkpt>
      <trkpt lat="42.37127" lon="-0.70022">
        <ele>634.32</ele>
        <time>2021-08-03T10:49:27Z</time>
      </trkpt>
      <trkpt lat="42.37065" lon="-0.70059">
        <ele>635.83</ele>
        <time>2021-08-03T10:49:40Z</time>
      </trkpt>
      <trkpt lat="42.37052" lon="-0.7007">
        <ele>637.14</ele>
        <time>2021-08-03T10:49:44Z</time>
      </trkpt>
      <trkpt lat="42.3703" lon="-0.70116">
        <ele>640.93</ele>
        <time>2021-08-03T10:49:53Z</time>
      </trkpt>
      <trkpt lat="42.37021" lon="-0.7014">
        <ele>643.93</ele>
        <time>2021-08-03T10:49:59Z</time>
      </trkpt>
      <trkpt lat="42.37012" lon="-0.70162">
        <ele>647.03</ele>
        <time>2021-08-03T10:50:06Z</time>
      </trkpt>
      <trkpt lat="42.37005" lon="-0.70174">
        <ele>648.13</ele>
        <time>2021-08-03T10:50:09Z</time>
      </trkpt>
      <trkpt lat="42.36982" lon="-0.70192">
        <ele>651.62</ele>
        <time>2021-08-03T10:50:18Z</time>
      </trkpt>
      <trkpt lat="42.36965" lon="-0.70214">
        <ele>652.75</ele>
        <time>2021-08-03T10:50:32Z</time>
      </trkpt>
      <trkpt lat="42.3695" lon="-0.70281">
        <ele>652.94</ele>
        <time>2021-08-03T10:50:42Z</time>
      </trkpt>
      <trkpt lat="42.36928" lon="-0.70328">
        <ele>653.63</ele>
        <time>2021-08-03T10:50:48Z</time>
      </trkpt>
      <trkpt lat="42.36906" lon="-0.70349">
        <ele>655.48</ele>
        <time>2021-08-03T10:50:58Z</time>
      </trkpt>
      <trkpt lat="42.36894" lon="-0.70368">
        <ele>655.6</ele>
        <time>2021-08-03T10:51:11Z</time>
      </trkpt>
      <trkpt lat="42.36892" lon="-0.70366">
        <ele>655.21</ele>
        <time>2021-08-03T10:51:27Z</time>
      </trkpt>
      <trkpt lat="42.36891" lon="-0.7036">
        <ele>655.18</ele>
        <time>2021-08-03T10:51:30Z</time>
      </trkpt>
      <trkpt lat="42.36907" lon="-0.70304">
        <ele>655.81</ele>
        <time>2021-08-03T10:51:40Z</time>
      </trkpt>
      <trkpt lat="42.36909" lon="-0.70262">
        <ele>657.55</ele>
        <time>2021-08-03T10:51:45Z</time>
      </trkpt>
      <trkpt lat="42.36906" lon="-0.70204">
        <ele>661.15</ele>
        <time>2021-08-03T10:51:54Z</time>
      </trkpt>
      <trkpt lat="42.36897" lon="-0.70154">
        <ele>660.82</ele>
        <time>2021-08-03T10:52:04Z</time>
      </trkpt>
      <trkpt lat="42.36891" lon="-0.70128">
        <ele>660.64</ele>
        <time>2021-08-03T10:52:49Z</time>
      </trkpt>
      <trkpt lat="42.36889" lon="-0.70098">
        <ele>658.61</ele>
        <time>2021-08-03T10:53:00Z</time>
      </trkpt>
      <trkpt lat="42.36881" lon="-0.70078">
        <ele>658.53</ele>
        <time>2021-08-03T10:53:17Z</time>
      </trkpt>
      <trkpt lat="42.36841" lon="-0.70038">
        <ele>658.83</ele>
        <time>2021-08-03T10:53:25Z</time>
      </trkpt>
      <trkpt lat="42.36822" lon="-0.70001">
        <ele>656.98</ele>
        <time>2021-08-03T10:53:30Z</time>
      </trkpt>
      <trkpt lat="42.36818" lon="-0.69985">
        <ele>656.02</ele>
        <time>2021-08-03T10:53:32Z</time>
      </trkpt>
      <trkpt lat="42.36784" lon="-0.69993">
        <ele>653.48</ele>
        <time>2021-08-03T10:53:38Z</time>
      </trkpt>
      <trkpt lat="42.36762" lon="-0.69987">
        <ele>651.42</ele>
        <time>2021-08-03T10:53:43Z</time>
      </trkpt>
      <trkpt lat="42.36767" lon="-0.69979">
        <ele>651.09</ele>
        <time>2021-08-03T10:53:44Z</time>
      </trkpt>
      <trkpt lat="42.36738" lon="-0.69921">
        <ele>651.51</ele>
        <time>2021-08-03T10:53:53Z</time>
      </trkpt>
      <trkpt lat="42.36683" lon="-0.69869">
        <ele>655.17</ele>
        <time>2021-08-03T10:54:02Z</time>
      </trkpt>
      <trkpt lat="42.36648" lon="-0.69839">
        <ele>658.51</ele>
        <time>2021-08-03T10:54:07Z</time>
      </trkpt>
      <trkpt lat="42.36634" lon="-0.69828">
        <ele>659.87</ele>
        <time>2021-08-03T10:54:09Z</time>
      </trkpt>
      <trkpt lat="42.36585" lon="-0.69829">
        <ele>664.16</ele>
        <time>2021-08-03T10:54:16Z</time>
      </trkpt>
      <trkpt lat="42.36567" lon="-0.69851">
        <ele>665.96</ele>
        <time>2021-08-03T10:54:19Z</time>
      </trkpt>
      <trkpt lat="42.3656" lon="-0.69864">
        <ele>667.15</ele>
        <time>2021-08-03T10:54:21Z</time>
      </trkpt>
      <trkpt lat="42.36546" lon="-0.69866">
        <ele>670.19</ele>
        <time>2021-08-03T10:54:29Z</time>
      </trkpt>
      <trkpt lat="42.36538" lon="-0.69851">
        <ele>671.02</ele>
        <time>2021-08-03T10:54:32Z</time>
      </trkpt>
      <trkpt lat="42.36511" lon="-0.69795">
        <ele>672.37</ele>
        <time>2021-08-03T10:54:38Z</time>
      </trkpt>
      <trkpt lat="42.36486" lon="-0.69761">
        <ele>673.34</ele>
        <time>2021-08-03T10:54:42Z</time>
      </trkpt>
      <trkpt lat="42.36473" lon="-0.69748">
        <ele>674.02</ele>
        <time>2021-08-03T10:54:44Z</time>
      </trkpt>
      <trkpt lat="42.36393" lon="-0.6971">
        <ele>677.84</ele>
        <time>2021-08-03T10:54:53Z</time>
      </trkpt>
      <trkpt lat="42.36376" lon="-0.69703">
        <ele>678.85</ele>
        <time>2021-08-03T10:54:55Z</time>
      </trkpt>
      <trkpt lat="42.36332" lon="-0.69677">
        <ele>681.99</ele>
        <time>2021-08-03T10:55:01Z</time>
      </trkpt>
      <trkpt lat="42.36307" lon="-0.69646">
        <ele>685.99</ele>
        <time>2021-08-03T10:55:07Z</time>
      </trkpt>
      <trkpt lat="42.36293" lon="-0.69632">
        <ele>688</ele>
        <time>2021-08-03T10:55:10Z</time>
      </trkpt>
      <trkpt lat="42.36283" lon="-0.6962">
        <ele>689.43</ele>
        <time>2021-08-03T10:55:12Z</time>
      </trkpt>
      <trkpt lat="42.36276" lon="-0.69587">
        <ele>693.13</ele>
        <time>2021-08-03T10:55:17Z</time>
      </trkpt>
      <trkpt lat="42.36268" lon="-0.69581">
        <ele>695.7</ele>
        <time>2021-08-03T10:55:20Z</time>
      </trkpt>
      <trkpt lat="42.36251" lon="-0.69587">
        <ele>698.09</ele>
        <time>2021-08-03T10:55:24Z</time>
      </trkpt>
      <trkpt lat="42.36239" lon="-0.69592">
        <ele>699.74</ele>
        <time>2021-08-03T10:55:27Z</time>
      </trkpt>
      <trkpt lat="42.3621" lon="-0.69601">
        <ele>701.97</ele>
        <time>2021-08-03T10:55:33Z</time>
      </trkpt>
      <trkpt lat="42.36187" lon="-0.69624">
        <ele>704.39</ele>
        <time>2021-08-03T10:55:38Z</time>
      </trkpt>
      <trkpt lat="42.36161" lon="-0.69643">
        <ele>706.43</ele>
        <time>2021-08-03T10:55:42Z</time>
      </trkpt>
      <trkpt lat="42.36127" lon="-0.69669">
        <ele>709.88</ele>
        <time>2021-08-03T10:55:50Z</time>
      </trkpt>
      <trkpt lat="42.3612" lon="-0.69652">
        <ele>711.01</ele>
        <time>2021-08-03T10:55:54Z</time>
      </trkpt>
      <trkpt lat="42.3611" lon="-0.69593">
        <ele>713.8</ele>
        <time>2021-08-03T10:56:01Z</time>
      </trkpt>
      <trkpt lat="42.36097" lon="-0.6954">
        <ele>717.96</ele>
        <time>2021-08-03T10:56:08Z</time>
      </trkpt>
      <trkpt lat="42.36112" lon="-0.69509">
        <ele>721.68</ele>
        <time>2021-08-03T10:56:13Z</time>
      </trkpt>
      <trkpt lat="42.36098" lon="-0.69482">
        <ele>725.29</ele>
        <time>2021-08-03T10:56:18Z</time>
      </trkpt>
      <trkpt lat="42.3609" lon="-0.69479">
        <ele>725.9</ele>
        <time>2021-08-03T10:56:19Z</time>
      </trkpt>
      <trkpt lat="42.36072" lon="-0.69472">
        <ele>726.83</ele>
        <time>2021-08-03T10:56:21Z</time>
      </trkpt>
      <trkpt lat="42.36059" lon="-0.69462">
        <ele>727.4</ele>
        <time>2021-08-03T10:56:25Z</time>
      </trkpt>
      <trkpt lat="42.36047" lon="-0.6945">
        <ele>727.4</ele>
        <time>2021-08-03T10:56:28Z</time>
      </trkpt>
      <trkpt lat="42.36039" lon="-0.69438">
        <ele>727.31</ele>
        <time>2021-08-03T10:56:30Z</time>
      </trkpt>
      <trkpt lat="42.36011" lon="-0.69423">
        <ele>727.04</ele>
        <time>2021-08-03T10:56:35Z</time>
      </trkpt>
      <trkpt lat="42.35981" lon="-0.69414">
        <ele>725.17</ele>
        <time>2021-08-03T10:56:44Z</time>
      </trkpt>
      <trkpt lat="42.35978" lon="-0.69398">
        <ele>724.59</ele>
        <time>2021-08-03T10:56:48Z</time>
      </trkpt>
      <trkpt lat="42.35953" lon="-0.69335">
        <ele>726.05</ele>
        <time>2021-08-03T10:56:58Z</time>
      </trkpt>
      <trkpt lat="42.35947" lon="-0.69332">
        <ele>726.41</ele>
        <time>2021-08-03T10:56:59Z</time>
      </trkpt>
      <trkpt lat="42.3592" lon="-0.69294">
        <ele>728.57</ele>
        <time>2021-08-03T10:57:06Z</time>
      </trkpt>
      <trkpt lat="42.35903" lon="-0.69224">
        <ele>730.85</ele>
        <time>2021-08-03T10:57:16Z</time>
      </trkpt>
      <trkpt lat="42.35847" lon="-0.69153">
        <ele>733.75</ele>
        <time>2021-08-03T10:57:27Z</time>
      </trkpt>
      <trkpt lat="42.35816" lon="-0.69127">
        <ele>735.23</ele>
        <time>2021-08-03T10:57:36Z</time>
      </trkpt>
      <trkpt lat="42.35814" lon="-0.69122">
        <ele>735.26</ele>
        <time>2021-08-03T10:57:37Z</time>
      </trkpt>
      <trkpt lat="42.35822" lon="-0.6909">
        <ele>735.81</ele>
        <time>2021-08-03T10:57:44Z</time>
      </trkpt>
      <trkpt lat="42.3581" lon="-0.69057">
        <ele>737.01</ele>
        <time>2021-08-03T10:57:50Z</time>
      </trkpt>
      <trkpt lat="42.35793" lon="-0.69045">
        <ele>739</ele>
        <time>2021-08-03T10:57:56Z</time>
      </trkpt>
      <trkpt lat="42.35787" lon="-0.68993">
        <ele>742.63</ele>
        <time>2021-08-03T10:58:06Z</time>
      </trkpt>
      <trkpt lat="42.3577" lon="-0.68956">
        <ele>744.8</ele>
        <time>2021-08-03T10:58:10Z</time>
      </trkpt>
      <trkpt lat="42.35749" lon="-0.68916">
        <ele>748.22</ele>
        <time>2021-08-03T10:58:16Z</time>
      </trkpt>
      <trkpt lat="42.35698" lon="-0.68893">
        <ele>751.8</ele>
        <time>2021-08-03T10:58:24Z</time>
      </trkpt>
      <trkpt lat="42.35676" lon="-0.68896">
        <ele>753.23</ele>
        <time>2021-08-03T10:58:27Z</time>
      </trkpt>
      <trkpt lat="42.35639" lon="-0.68857">
        <ele>756.68</ele>
        <time>2021-08-03T10:58:34Z</time>
      </trkpt>
      <trkpt lat="42.35618" lon="-0.68853">
        <ele>760.24</ele>
        <time>2021-08-03T10:58:40Z</time>
      </trkpt>
      <trkpt lat="42.35624" lon="-0.68865">
        <ele>761.3</ele>
        <time>2021-08-03T10:58:42Z</time>
      </trkpt>
      <trkpt lat="42.3563" lon="-0.68874">
        <ele>762.38</ele>
        <time>2021-08-03T10:58:44Z</time>
      </trkpt>
      <trkpt lat="42.35636" lon="-0.68884">
        <ele>763.27</ele>
        <time>2021-08-03T10:58:46Z</time>
      </trkpt>
      <trkpt lat="42.35658" lon="-0.68928">
        <ele>764.73</ele>
        <time>2021-08-03T10:58:52Z</time>
      </trkpt>
      <trkpt lat="42.35683" lon="-0.68956">
        <ele>765.76</ele>
        <time>2021-08-03T10:58:56Z</time>
      </trkpt>
      <trkpt lat="42.35673" lon="-0.68975">
        <ele>768.27</ele>
        <time>2021-08-03T10:59:03Z</time>
      </trkpt>
      <trkpt lat="42.35668" lon="-0.6897">
        <ele>768.77</ele>
        <time>2021-08-03T10:59:04Z</time>
      </trkpt>
      <trkpt lat="42.3563" lon="-0.68928">
        <ele>772.72</ele>
        <time>2021-08-03T10:59:11Z</time>
      </trkpt>
      <trkpt lat="42.35581" lon="-0.68893">
        <ele>776.5</ele>
        <time>2021-08-03T10:59:18Z</time>
      </trkpt>
      <trkpt lat="42.35546" lon="-0.68874">
        <ele>779.03</ele>
        <time>2021-08-03T10:59:23Z</time>
      </trkpt>
      <trkpt lat="42.35517" lon="-0.68849">
        <ele>782.07</ele>
        <time>2021-08-03T10:59:28Z</time>
      </trkpt>
      <trkpt lat="42.35493" lon="-0.68839">
        <ele>784.72</ele>
        <time>2021-08-03T10:59:32Z</time>
      </trkpt>
      <trkpt lat="42.35468" lon="-0.68824">
        <ele>788.05</ele>
        <time>2021-08-03T10:59:37Z</time>
      </trkpt>
      <trkpt lat="42.35433" lon="-0.6881">
        <ele>791.61</ele>
        <time>2021-08-03T10:59:43Z</time>
      </trkpt>
      <trkpt lat="42.35426" lon="-0.688">
        <ele>793.15</ele>
        <time>2021-08-03T10:59:45Z</time>
      </trkpt>
      <trkpt lat="42.35415" lon="-0.68779">
        <ele>797.32</ele>
        <time>2021-08-03T10:59:51Z</time>
      </trkpt>
      <trkpt lat="42.35413" lon="-0.68774">
        <ele>798.08</ele>
        <time>2021-08-03T10:59:52Z</time>
      </trkpt>
      <trkpt lat="42.35388" lon="-0.6875">
        <ele>801.21</ele>
        <time>2021-08-03T10:59:58Z</time>
      </trkpt>
      <trkpt lat="42.35365" lon="-0.68741">
        <ele>802.2</ele>
        <time>2021-08-03T11:00:01Z</time>
      </trkpt>
      <trkpt lat="42.35338" lon="-0.68716">
        <ele>802.46</ele>
        <time>2021-08-03T11:00:05Z</time>
      </trkpt>
      <trkpt lat="42.35299" lon="-0.68697">
        <ele>802.1</ele>
        <time>2021-08-03T11:00:12Z</time>
      </trkpt>
      <trkpt lat="42.35272" lon="-0.68693">
        <ele>801.57</ele>
        <time>2021-08-03T11:00:16Z</time>
      </trkpt>
      <trkpt lat="42.35243" lon="-0.68696">
        <ele>800.87</ele>
        <time>2021-08-03T11:00:20Z</time>
      </trkpt>
      <trkpt lat="42.35195" lon="-0.68682">
        <ele>798.29</ele>
        <time>2021-08-03T11:00:28Z</time>
      </trkpt>
      <trkpt lat="42.35162" lon="-0.6866">
        <ele>796.62</ele>
        <time>2021-08-03T11:00:37Z</time>
      </trkpt>
      <trkpt lat="42.35138" lon="-0.68624">
        <ele>796.79</ele>
        <time>2021-08-03T11:00:43Z</time>
      </trkpt>
      <trkpt lat="42.35134" lon="-0.68608">
        <ele>796.94</ele>
        <time>2021-08-03T11:00:46Z</time>
      </trkpt>
      <trkpt lat="42.35122" lon="-0.686">
        <ele>797.2</ele>
        <time>2021-08-03T11:00:49Z</time>
      </trkpt>
      <trkpt lat="42.35116" lon="-0.68567">
        <ele>797.47</ele>
        <time>2021-08-03T11:00:55Z</time>
      </trkpt>
      <trkpt lat="42.35122" lon="-0.68545">
        <ele>797.82</ele>
        <time>2021-08-03T11:00:58Z</time>
      </trkpt>
      <trkpt lat="42.35106" lon="-0.68519">
        <ele>799.02</ele>
        <time>2021-08-03T11:01:06Z</time>
      </trkpt>
      <trkpt lat="42.35044" lon="-0.68508">
        <ele>802.42</ele>
        <time>2021-08-03T11:01:16Z</time>
      </trkpt>
      <trkpt lat="42.35001" lon="-0.68504">
        <ele>805.72</ele>
        <time>2021-08-03T11:01:23Z</time>
      </trkpt>
      <trkpt lat="42.34952" lon="-0.68492">
        <ele>809.15</ele>
        <time>2021-08-03T11:01:30Z</time>
      </trkpt>
      <trkpt lat="42.34925" lon="-0.68479">
        <ele>811.48</ele>
        <time>2021-08-03T11:01:34Z</time>
      </trkpt>
      <trkpt lat="42.34909" lon="-0.68476">
        <ele>813.31</ele>
        <time>2021-08-03T11:01:37Z</time>
      </trkpt>
      <trkpt lat="42.34868" lon="-0.68473">
        <ele>817.5</ele>
        <time>2021-08-03T11:01:45Z</time>
      </trkpt>
      <trkpt lat="42.34819" lon="-0.68488">
        <ele>821.79</ele>
        <time>2021-08-03T11:01:52Z</time>
      </trkpt>
      <trkpt lat="42.34786" lon="-0.68493">
        <ele>825.28</ele>
        <time>2021-08-03T11:01:57Z</time>
      </trkpt>
      <trkpt lat="42.34759" lon="-0.68482">
        <ele>829.32</ele>
        <time>2021-08-03T11:02:02Z</time>
      </trkpt>
      <trkpt lat="42.34728" lon="-0.68472">
        <ele>833.59</ele>
        <time>2021-08-03T11:02:08Z</time>
      </trkpt>
      <trkpt lat="42.34708" lon="-0.68462">
        <ele>836.86</ele>
        <time>2021-08-03T11:02:12Z</time>
      </trkpt>
      <trkpt lat="42.34703" lon="-0.68459">
        <ele>837.7</ele>
        <time>2021-08-03T11:02:13Z</time>
      </trkpt>
      <trkpt lat="42.3468" lon="-0.68438">
        <ele>842.29</ele>
        <time>2021-08-03T11:02:19Z</time>
      </trkpt>
      <trkpt lat="42.34668" lon="-0.68424">
        <ele>844.21</ele>
        <time>2021-08-03T11:02:22Z</time>
      </trkpt>
      <trkpt lat="42.34655" lon="-0.68401">
        <ele>847.31</ele>
        <time>2021-08-03T11:02:26Z</time>
      </trkpt>
      <trkpt lat="42.34644" lon="-0.68377">
        <ele>849.19</ele>
        <time>2021-08-03T11:02:29Z</time>
      </trkpt>
      <trkpt lat="42.34611" lon="-0.68357">
        <ele>851.73</ele>
        <time>2021-08-03T11:02:34Z</time>
      </trkpt>
      <trkpt lat="42.34566" lon="-0.68351">
        <ele>855.68</ele>
        <time>2021-08-03T11:02:41Z</time>
      </trkpt>
      <trkpt lat="42.3456" lon="-0.6835">
        <ele>856.22</ele>
        <time>2021-08-03T11:02:42Z</time>
      </trkpt>
      <trkpt lat="42.34519" lon="-0.68382">
        <ele>860.14</ele>
        <time>2021-08-03T11:02:51Z</time>
      </trkpt>
      <trkpt lat="42.34512" lon="-0.68402">
        <ele>860.7</ele>
        <time>2021-08-03T11:02:53Z</time>
      </trkpt>
      <trkpt lat="42.34493" lon="-0.68443">
        <ele>862.01</ele>
        <time>2021-08-03T11:02:57Z</time>
      </trkpt>
      <trkpt lat="42.34483" lon="-0.68504">
        <ele>864.29</ele>
        <time>2021-08-03T11:03:03Z</time>
      </trkpt>
      <trkpt lat="42.34454" lon="-0.68574">
        <ele>868.62</ele>
        <time>2021-08-03T11:03:11Z</time>
      </trkpt>
      <trkpt lat="42.34442" lon="-0.68592">
        <ele>870.06</ele>
        <time>2021-08-03T11:03:14Z</time>
      </trkpt>
      <trkpt lat="42.34406" lon="-0.68612">
        <ele>872.1</ele>
        <time>2021-08-03T11:03:19Z</time>
      </trkpt>
      <trkpt lat="42.34383" lon="-0.68618">
        <ele>873.86</ele>
        <time>2021-08-03T11:03:27Z</time>
      </trkpt>
      <trkpt lat="42.34382" lon="-0.68618">
        <ele>873.98</ele>
        <time>2021-08-03T11:03:28Z</time>
      </trkpt>
      <trkpt lat="42.3439" lon="-0.68634">
        <ele>874.85</ele>
        <time>2021-08-03T11:03:35Z</time>
      </trkpt>
      <trkpt lat="42.34429" lon="-0.68644">
        <ele>875.06</ele>
        <time>2021-08-03T11:03:40Z</time>
      </trkpt>
      <trkpt lat="42.34471" lon="-0.68647">
        <ele>876.13</ele>
        <time>2021-08-03T11:03:45Z</time>
      </trkpt>
      <trkpt lat="42.345" lon="-0.6864">
        <ele>877.42</ele>
        <time>2021-08-03T11:03:49Z</time>
      </trkpt>
      <trkpt lat="42.34531" lon="-0.68618">
        <ele>879.13</ele>
        <time>2021-08-03T11:03:54Z</time>
      </trkpt>
      <trkpt lat="42.34579" lon="-0.6863">
        <ele>882.45</ele>
        <time>2021-08-03T11:04:01Z</time>
      </trkpt>
      <trkpt lat="42.34623" lon="-0.68648">
        <ele>885.57</ele>
        <time>2021-08-03T11:04:07Z</time>
      </trkpt>
      <trkpt lat="42.34658" lon="-0.68669">
        <ele>888.6</ele>
        <time>2021-08-03T11:04:13Z</time>
      </trkpt>
      <trkpt lat="42.34662" lon="-0.68671">
        <ele>888.92</ele>
        <time>2021-08-03T11:04:14Z</time>
      </trkpt>
      <trkpt lat="42.34696" lon="-0.68697">
        <ele>890.96</ele>
        <time>2021-08-03T11:04:22Z</time>
      </trkpt>
      <trkpt lat="42.3473" lon="-0.68693">
        <ele>891.28</ele>
        <time>2021-08-03T11:04:28Z</time>
      </trkpt>
      <trkpt lat="42.34753" lon="-0.68716">
        <ele>891.37</ele>
        <time>2021-08-03T11:04:33Z</time>
      </trkpt>
      <trkpt lat="42.34769" lon="-0.68751">
        <ele>891.96</ele>
        <time>2021-08-03T11:04:37Z</time>
      </trkpt>
      <trkpt lat="42.34781" lon="-0.68793">
        <ele>893.77</ele>
        <time>2021-08-03T11:04:42Z</time>
      </trkpt>
      <trkpt lat="42.34786" lon="-0.68841">
        <ele>896.52</ele>
        <time>2021-08-03T11:04:48Z</time>
      </trkpt>
      <trkpt lat="42.34783" lon="-0.68861">
        <ele>898.23</ele>
        <time>2021-08-03T11:04:51Z</time>
      </trkpt>
      <trkpt lat="42.34803" lon="-0.68883">
        <ele>900.99</ele>
        <time>2021-08-03T11:04:57Z</time>
      </trkpt>
      <trkpt lat="42.34819" lon="-0.68877">
        <ele>901.69</ele>
        <time>2021-08-03T11:04:59Z</time>
      </trkpt>
      <trkpt lat="42.34864" lon="-0.68867">
        <ele>904.3</ele>
        <time>2021-08-03T11:05:07Z</time>
      </trkpt>
      <trkpt lat="42.34881" lon="-0.68881">
        <ele>905.8</ele>
        <time>2021-08-03T11:05:12Z</time>
      </trkpt>
      <trkpt lat="42.3487" lon="-0.68898">
        <ele>907.14</ele>
        <time>2021-08-03T11:05:16Z</time>
      </trkpt>
      <trkpt lat="42.34845" lon="-0.68931">
        <ele>908.99</ele>
        <time>2021-08-03T11:05:21Z</time>
      </trkpt>
      <trkpt lat="42.34873" lon="-0.68962">
        <ele>910.97</ele>
        <time>2021-08-03T11:05:29Z</time>
      </trkpt>
      <trkpt lat="42.34905" lon="-0.68954">
        <ele>911.9</ele>
        <time>2021-08-03T11:05:33Z</time>
      </trkpt>
      <trkpt lat="42.34922" lon="-0.68982">
        <ele>913.69</ele>
        <time>2021-08-03T11:05:39Z</time>
      </trkpt>
      <trkpt lat="42.34892" lon="-0.69005">
        <ele>916.31</ele>
        <time>2021-08-03T11:05:44Z</time>
      </trkpt>
      <trkpt lat="42.34862" lon="-0.69013">
        <ele>918.24</ele>
        <time>2021-08-03T11:05:48Z</time>
      </trkpt>
      <trkpt lat="42.34831" lon="-0.69007">
        <ele>920.24</ele>
        <time>2021-08-03T11:05:52Z</time>
      </trkpt>
      <trkpt lat="42.34796" lon="-0.68988">
        <ele>923.04</ele>
        <time>2021-08-03T11:05:57Z</time>
      </trkpt>
      <trkpt lat="42.34775" lon="-0.68969">
        <ele>925.53</ele>
        <time>2021-08-03T11:06:01Z</time>
      </trkpt>
      <trkpt lat="42.34766" lon="-0.68957">
        <ele>926.4</ele>
        <time>2021-08-03T11:06:03Z</time>
      </trkpt>
      <trkpt lat="42.34738" lon="-0.68944">
        <ele>928.19</ele>
        <time>2021-08-03T11:06:08Z</time>
      </trkpt>
      <trkpt lat="42.34711" lon="-0.68906">
        <ele>931.16</ele>
        <time>2021-08-03T11:06:17Z</time>
      </trkpt>
      <trkpt lat="42.34678" lon="-0.68862">
        <ele>934.4</ele>
        <time>2021-08-03T11:06:27Z</time>
      </trkpt>
      <trkpt lat="42.34653" lon="-0.6886">
        <ele>935.17</ele>
        <time>2021-08-03T11:06:31Z</time>
      </trkpt>
      <trkpt lat="42.34575" lon="-0.68871">
        <ele>936.86</ele>
        <time>2021-08-03T11:06:43Z</time>
      </trkpt>
      <trkpt lat="42.34562" lon="-0.68868">
        <ele>937.32</ele>
        <time>2021-08-03T11:06:45Z</time>
      </trkpt>
      <trkpt lat="42.34517" lon="-0.68865">
        <ele>941.04</ele>
        <time>2021-08-03T11:06:54Z</time>
      </trkpt>
      <trkpt lat="42.34506" lon="-0.68864">
        <ele>942.06</ele>
        <time>2021-08-03T11:06:56Z</time>
      </trkpt>
      <trkpt lat="42.34487" lon="-0.68857">
        <ele>944.66</ele>
        <time>2021-08-03T11:07:00Z</time>
      </trkpt>
      <trkpt lat="42.34467" lon="-0.68843">
        <ele>948.07</ele>
        <time>2021-08-03T11:07:10Z</time>
      </trkpt>
      <trkpt lat="42.34458" lon="-0.68839">
        <ele>948.94</ele>
        <time>2021-08-03T11:07:13Z</time>
      </trkpt>
      <trkpt lat="42.34415" lon="-0.68851">
        <ele>951.66</ele>
        <time>2021-08-03T11:07:23Z</time>
      </trkpt>
      <trkpt lat="42.34398" lon="-0.68851">
        <ele>952.01</ele>
        <time>2021-08-03T11:07:26Z</time>
      </trkpt>
      <trkpt lat="42.34364" lon="-0.68849">
        <ele>952.98</ele>
        <time>2021-08-03T11:07:32Z</time>
      </trkpt>
      <trkpt lat="42.34329" lon="-0.68865">
        <ele>954.42</ele>
        <time>2021-08-03T11:07:38Z</time>
      </trkpt>
      <trkpt lat="42.34272" lon="-0.68865">
        <ele>956.89</ele>
        <time>2021-08-03T11:07:48Z</time>
      </trkpt>
      <trkpt lat="42.34232" lon="-0.68871">
        <ele>956.46</ele>
        <time>2021-08-03T11:07:57Z</time>
      </trkpt>
      <trkpt lat="42.34186" lon="-0.689">
        <ele>958.47</ele>
        <time>2021-08-03T11:08:07Z</time>
      </trkpt>
      <trkpt lat="42.34172" lon="-0.68922">
        <ele>960.01</ele>
        <time>2021-08-03T11:08:11Z</time>
      </trkpt>
      <trkpt lat="42.34146" lon="-0.68956">
        <ele>963.36</ele>
        <time>2021-08-03T11:08:18Z</time>
      </trkpt>
      <trkpt lat="42.34088" lon="-0.69019">
        <ele>966.11</ele>
        <time>2021-08-03T11:08:30Z</time>
      </trkpt>
      <trkpt lat="42.34073" lon="-0.69041">
        <ele>966.44</ele>
        <time>2021-08-03T11:08:33Z</time>
      </trkpt>
      <trkpt lat="42.34037" lon="-0.69055">
        <ele>968.78</ele>
        <time>2021-08-03T11:08:40Z</time>
      </trkpt>
      <trkpt lat="42.34021" lon="-0.69064">
        <ele>972.27</ele>
        <time>2021-08-03T11:08:48Z</time>
      </trkpt>
      <trkpt lat="42.34012" lon="-0.69073">
        <ele>974.75</ele>
        <time>2021-08-03T11:08:58Z</time>
      </trkpt>
      <trkpt lat="42.3399" lon="-0.69093">
        <ele>975.99</ele>
        <time>2021-08-03T11:09:07Z</time>
      </trkpt>
      <trkpt lat="42.3395" lon="-0.6915">
        <ele>975.89</ele>
        <time>2021-08-03T11:09:17Z</time>
      </trkpt>
      <trkpt lat="42.33915" lon="-0.69196">
        <ele>972.86</ele>
        <time>2021-08-03T11:09:26Z</time>
      </trkpt>
      <trkpt lat="42.33872" lon="-0.6924">
        <ele>970.2</ele>
        <time>2021-08-03T11:09:40Z</time>
      </trkpt>
      <trkpt lat="42.3387" lon="-0.69244">
        <ele>970.1</ele>
        <time>2021-08-03T11:09:41Z</time>
      </trkpt>
      <trkpt lat="42.33859" lon="-0.6927">
        <ele>969.62</ele>
        <time>2021-08-03T11:09:45Z</time>
      </trkpt>
      <trkpt lat="42.33846" lon="-0.69288">
        <ele>969.17</ele>
        <time>2021-08-03T11:09:49Z</time>
      </trkpt>
      <trkpt lat="42.33818" lon="-0.69307">
        <ele>968.71</ele>
        <time>2021-08-03T11:09:58Z</time>
      </trkpt>
      <trkpt lat="42.33805" lon="-0.6931">
        <ele>968.76</ele>
        <time>2021-08-03T11:10:01Z</time>
      </trkpt>
      <trkpt lat="42.33752" lon="-0.69303">
        <ele>969.84</ele>
        <time>2021-08-03T11:10:11Z</time>
      </trkpt>
      <trkpt lat="42.33685" lon="-0.69311">
        <ele>970.14</ele>
        <time>2021-08-03T11:10:22Z</time>
      </trkpt>
      <trkpt lat="42.33678" lon="-0.69316">
        <ele>969.19</ele>
        <time>2021-08-03T11:10:31Z</time>
      </trkpt>
      <trkpt lat="42.33664" lon="-0.69321">
        <ele>968.52</ele>
        <time>2021-08-03T11:12:45Z</time>
      </trkpt>
      <trkpt lat="42.33627" lon="-0.69326">
        <ele>968.28</ele>
        <time>2021-08-03T11:12:55Z</time>
      </trkpt>
      <trkpt lat="42.33602" lon="-0.69337">
        <ele>967.11</ele>
        <time>2021-08-03T11:13:05Z</time>
      </trkpt>
      <trkpt lat="42.33578" lon="-0.69344">
        <ele>964.8</ele>
        <time>2021-08-03T11:13:13Z</time>
      </trkpt>
      <trkpt lat="42.33568" lon="-0.69345">
        <ele>964.28</ele>
        <time>2021-08-03T11:13:15Z</time>
      </trkpt>
      <trkpt lat="42.33518" lon="-0.69328">
        <ele>962.62</ele>
        <time>2021-08-03T11:13:23Z</time>
      </trkpt>
      <trkpt lat="42.33488" lon="-0.69305">
        <ele>962.66</ele>
        <time>2021-08-03T11:13:27Z</time>
      </trkpt>
      <trkpt lat="42.33463" lon="-0.69313">
        <ele>964.16</ele>
        <time>2021-08-03T11:13:33Z</time>
      </trkpt>
      <trkpt lat="42.3346" lon="-0.69329">
        <ele>964.88</ele>
        <time>2021-08-03T11:13:35Z</time>
      </trkpt>
      <trkpt lat="42.33457" lon="-0.69349">
        <ele>965.9</ele>
        <time>2021-08-03T11:13:37Z</time>
      </trkpt>
      <trkpt lat="42.33445" lon="-0.6938">
        <ele>967.63</ele>
        <time>2021-08-03T11:13:41Z</time>
      </trkpt>
      <trkpt lat="42.33437" lon="-0.69395">
        <ele>968.89</ele>
        <time>2021-08-03T11:13:44Z</time>
      </trkpt>
      <trkpt lat="42.33437" lon="-0.69395">
        <ele>970.19</ele>
        <time>2021-08-03T11:13:56Z</time>
      </trkpt>
      <trkpt lat="42.33425" lon="-0.69425">
        <ele>970.51</ele>
        <time>2021-08-03T11:14:48Z</time>
      </trkpt>
      <trkpt lat="42.33422" lon="-0.69435">
        <ele>970.68</ele>
        <time>2021-08-03T11:14:50Z</time>
      </trkpt>
      <trkpt lat="42.33418" lon="-0.69439">
        <ele>971.47</ele>
        <time>2021-08-03T11:15:01Z</time>
      </trkpt>
      <trkpt lat="42.33419" lon="-0.69438">
        <ele>971.51</ele>
        <time>2021-08-03T11:25:04Z</time>
      </trkpt>
      <trkpt lat="42.33419" lon="-0.69438">
        <ele>971.51</ele>
        <time>2021-08-03T11:27:59Z</time>
      </trkpt>
      <trkpt lat="42.33408" lon="-0.69436">
        <ele>971.51</ele>
        <time>2021-08-03T11:29:35Z</time>
      </trkpt>
      <trkpt lat="42.33392" lon="-0.6943">
        <ele>974.08</ele>
        <time>2021-08-03T11:29:40Z</time>
      </trkpt>
      <trkpt lat="42.33351" lon="-0.69424">
        <ele>975.58</ele>
        <time>2021-08-03T11:29:51Z</time>
      </trkpt>
      <trkpt lat="42.33315" lon="-0.6944">
        <ele>977.04</ele>
        <time>2021-08-03T11:30:01Z</time>
      </trkpt>
      <trkpt lat="42.33249" lon="-0.69472">
        <ele>980.13</ele>
        <time>2021-08-03T11:30:12Z</time>
      </trkpt>
      <trkpt lat="42.33193" lon="-0.69464">
        <ele>981.84</ele>
        <time>2021-08-03T11:30:21Z</time>
      </trkpt>
      <trkpt lat="42.33163" lon="-0.69448">
        <ele>982.26</ele>
        <time>2021-08-03T11:30:26Z</time>
      </trkpt>
      <trkpt lat="42.33082" lon="-0.69396">
        <ele>984.42</ele>
        <time>2021-08-03T11:30:38Z</time>
      </trkpt>
      <trkpt lat="42.32991" lon="-0.69302">
        <ele>987.3</ele>
        <time>2021-08-03T11:30:52Z</time>
      </trkpt>
      <trkpt lat="42.32945" lon="-0.69269">
        <ele>990</ele>
        <time>2021-08-03T11:30:59Z</time>
      </trkpt>
      <trkpt lat="42.3291" lon="-0.6926">
        <ele>993.64</ele>
        <time>2021-08-03T11:31:07Z</time>
      </trkpt>
      <trkpt lat="42.32888" lon="-0.69273">
        <ele>996.75</ele>
        <time>2021-08-03T11:31:14Z</time>
      </trkpt>
      <trkpt lat="42.32884" lon="-0.69272">
        <ele>997.11</ele>
        <time>2021-08-03T11:31:15Z</time>
      </trkpt>
      <trkpt lat="42.3288" lon="-0.69269">
        <ele>997.48</ele>
        <time>2021-08-03T11:31:16Z</time>
      </trkpt>
      <trkpt lat="42.32877" lon="-0.69266">
        <ele>997.86</ele>
        <time>2021-08-03T11:31:17Z</time>
      </trkpt>
      <trkpt lat="42.32874" lon="-0.69262">
        <ele>998.18</ele>
        <time>2021-08-03T11:31:18Z</time>
      </trkpt>
      <trkpt lat="42.3286" lon="-0.69254">
        <ele>999.68</ele>
        <time>2021-08-03T11:31:26Z</time>
      </trkpt>
      <trkpt lat="42.3286" lon="-0.69265">
        <ele>1000.1</ele>
        <time>2021-08-03T11:31:34Z</time>
      </trkpt>
    </trkseg>
  </trk>
  <trk>
    <name><![CDATA[TOTAL 4x4 _9]]></name>
    <extensions>
      <line xmlns="http://www.topografix.com/GPX/gpx_style/0/2">
        <color>880000</color>
        <width>4</width>
      </line>
    </extensions>
    <trkseg>
      <trkpt lat="42.32855" lon="-0.69247">
        <ele>1002.07</ele>
        <time>2021-08-03T12:34:17Z</time>
      </trkpt>
      <trkpt lat="42.32816" lon="-0.69191">
        <ele>1003.22</ele>
        <time>2021-08-03T12:34:30Z</time>
      </trkpt>
      <trkpt lat="42.3279" lon="-0.6913">
        <ele>1003.36</ele>
        <time>2021-08-03T12:34:43Z</time>
      </trkpt>
      <trkpt lat="42.32773" lon="-0.69076">
        <ele>1004.93</ele>
        <time>2021-08-03T12:34:54Z</time>
      </trkpt>
      <trkpt lat="42.32761" lon="-0.69038">
        <ele>1005.35</ele>
        <time>2021-08-03T12:35:06Z</time>
      </trkpt>
      <trkpt lat="42.32757" lon="-0.69038">
        <ele>1005.27</ele>
        <time>2021-08-03T12:35:09Z</time>
      </trkpt>
      <trkpt lat="42.32746" lon="-0.69041">
        <ele>1005.05</ele>
        <time>2021-08-03T12:35:15Z</time>
      </trkpt>
      <trkpt lat="42.3274" lon="-0.69039">
        <ele>1004.92</ele>
        <time>2021-08-03T12:35:18Z</time>
      </trkpt>
      <trkpt lat="42.32709" lon="-0.69075">
        <ele>1004.79</ele>
        <time>2021-08-03T12:35:26Z</time>
      </trkpt>
      <trkpt lat="42.32695" lon="-0.69075">
        <ele>1004.61</ele>
        <time>2021-08-03T12:35:28Z</time>
      </trkpt>
      <trkpt lat="42.32648" lon="-0.69075">
        <ele>1002.1</ele>
        <time>2021-08-03T12:35:36Z</time>
      </trkpt>
      <trkpt lat="42.32642" lon="-0.69077">
        <ele>1001.81</ele>
        <time>2021-08-03T12:35:37Z</time>
      </trkpt>
      <trkpt lat="42.32637" lon="-0.6908">
        <ele>1001.48</ele>
        <time>2021-08-03T12:35:38Z</time>
      </trkpt>
      <trkpt lat="42.32632" lon="-0.69084">
        <ele>1001.16</ele>
        <time>2021-08-03T12:35:39Z</time>
      </trkpt>
      <trkpt lat="42.32629" lon="-0.69087">
        <ele>1000.88</ele>
        <time>2021-08-03T12:35:40Z</time>
      </trkpt>
      <trkpt lat="42.32602" lon="-0.6909">
        <ele>1000.27</ele>
        <time>2021-08-03T12:35:48Z</time>
      </trkpt>
      <trkpt lat="42.32585" lon="-0.69101">
        <ele>1002.05</ele>
        <time>2021-08-03T12:35:57Z</time>
      </trkpt>
      <trkpt lat="42.32593" lon="-0.69101">
        <ele>1003.15</ele>
        <time>2021-08-03T12:36:12Z</time>
      </trkpt>
      <trkpt lat="42.32592" lon="-0.69095">
        <ele>1002.94</ele>
        <time>2021-08-03T12:36:18Z</time>
      </trkpt>
      <trkpt lat="42.3259" lon="-0.69094">
        <ele>1002.92</ele>
        <time>2021-08-03T12:36:19Z</time>
      </trkpt>
      <trkpt lat="42.32589" lon="-0.69092">
        <ele>1002.89</ele>
        <time>2021-08-03T12:36:20Z</time>
      </trkpt>
      <trkpt lat="42.32586" lon="-0.69092">
        <ele>1002.88</ele>
        <time>2021-08-03T12:36:21Z</time>
      </trkpt>
      <trkpt lat="42.32583" lon="-0.69093">
        <ele>1002.87</ele>
        <time>2021-08-03T12:36:22Z</time>
      </trkpt>
      <trkpt lat="42.3258" lon="-0.69094">
        <ele>1002.87</ele>
        <time>2021-08-03T12:36:23Z</time>
      </trkpt>
      <trkpt lat="42.32576" lon="-0.69096">
        <ele>1002.84</ele>
        <time>2021-08-03T12:36:24Z</time>
      </trkpt>
      <trkpt lat="42.32571" lon="-0.69098">
        <ele>1002.84</ele>
        <time>2021-08-03T12:36:25Z</time>
      </trkpt>
      <trkpt lat="42.32533" lon="-0.69109">
        <ele>1003.22</ele>
        <time>2021-08-03T12:36:31Z</time>
      </trkpt>
      <trkpt lat="42.32528" lon="-0.69112">
        <ele>1003.33</ele>
        <time>2021-08-03T12:36:32Z</time>
      </trkpt>
      <trkpt lat="42.32524" lon="-0.69115">
        <ele>1003.48</ele>
        <time>2021-08-03T12:36:33Z</time>
      </trkpt>
      <trkpt lat="42.32512" lon="-0.69125">
        <ele>1004.39</ele>
        <time>2021-08-03T12:36:36Z</time>
      </trkpt>
      <trkpt lat="42.32484" lon="-0.6914">
        <ele>1007.29</ele>
        <time>2021-08-03T12:36:45Z</time>
      </trkpt>
      <trkpt lat="42.32483" lon="-0.69159">
        <ele>1008.39</ele>
        <time>2021-08-03T12:36:55Z</time>
      </trkpt>
      <trkpt lat="42.32481" lon="-0.6917">
        <ele>1009.2</ele>
        <time>2021-08-03T12:38:24Z</time>
      </trkpt>
      <trkpt lat="42.3248" lon="-0.69185">
        <ele>1009.19</ele>
        <time>2021-08-03T12:38:33Z</time>
      </trkpt>
      <trkpt lat="42.32479" lon="-0.69186">
        <ele>1009.22</ele>
        <time>2021-08-03T12:38:34Z</time>
      </trkpt>
      <trkpt lat="42.32481" lon="-0.69185">
        <ele>1008.94</ele>
        <time>2021-08-03T12:38:47Z</time>
      </trkpt>
      <trkpt lat="42.3248" lon="-0.69187">
        <ele>1008.55</ele>
        <time>2021-08-03T12:39:15Z</time>
      </trkpt>
      <trkpt lat="42.32485" lon="-0.69181">
        <ele>1008.53</ele>
        <time>2021-08-03T12:39:36Z</time>
      </trkpt>
      <trkpt lat="42.32483" lon="-0.69174">
        <ele>1008.5</ele>
        <time>2021-08-03T12:39:54Z</time>
      </trkpt>
      <trkpt lat="42.32484" lon="-0.69164">
        <ele>1008.5</ele>
        <time>2021-08-03T12:40:04Z</time>
      </trkpt>
      <trkpt lat="42.32484" lon="-0.69156">
        <ele>1008.89</ele>
        <time>2021-08-03T12:40:19Z</time>
      </trkpt>
      <trkpt lat="42.32484" lon="-0.69156">
        <ele>1009</ele>
        <time>2021-08-03T12:40:41Z</time>
      </trkpt>
      <trkpt lat="42.32483" lon="-0.69155">
        <ele>1009.66</ele>
        <time>2021-08-03T12:43:35Z</time>
      </trkpt>
      <trkpt lat="42.32484" lon="-0.69163">
        <ele>1007.78</ele>
        <time>2021-08-03T12:43:49Z</time>
      </trkpt>
      <trkpt lat="42.32487" lon="-0.69164">
        <ele>1008.79</ele>
        <time>2021-08-03T12:44:15Z</time>
      </trkpt>
      <trkpt lat="42.32488" lon="-0.69162">
        <ele>1009.17</ele>
        <time>2021-08-03T12:44:26Z</time>
      </trkpt>
      <trkpt lat="42.32485" lon="-0.69139">
        <ele>1010.98</ele>
        <time>2021-08-03T12:48:09Z</time>
      </trkpt>
      <trkpt lat="42.32487" lon="-0.69133">
        <ele>1009.48</ele>
        <time>2021-08-03T12:48:13Z</time>
      </trkpt>
      <trkpt lat="42.32488" lon="-0.69133">
        <ele>1009.72</ele>
        <time>2021-08-03T12:48:14Z</time>
      </trkpt>
      <trkpt lat="42.32489" lon="-0.69132">
        <ele>1009.58</ele>
        <time>2021-08-03T12:48:15Z</time>
      </trkpt>
      <trkpt lat="42.32517" lon="-0.69122">
        <ele>1007.06</ele>
        <time>2021-08-03T12:48:25Z</time>
      </trkpt>
      <trkpt lat="42.32529" lon="-0.69111">
        <ele>1005.99</ele>
        <time>2021-08-03T12:48:35Z</time>
      </trkpt>
      <trkpt lat="42.32548" lon="-0.69103">
        <ele>1003.41</ele>
        <time>2021-08-03T12:48:48Z</time>
      </trkpt>
      <trkpt lat="42.32551" lon="-0.69103">
        <ele>1002.8</ele>
        <time>2021-08-03T12:48:52Z</time>
      </trkpt>
      <trkpt lat="42.32554" lon="-0.69102">
        <ele>1002.75</ele>
        <time>2021-08-03T12:48:53Z</time>
      </trkpt>
      <trkpt lat="42.32558" lon="-0.69101">
        <ele>1002.72</ele>
        <time>2021-08-03T12:48:54Z</time>
      </trkpt>
      <trkpt lat="42.32581" lon="-0.69103">
        <ele>1002.52</ele>
        <time>2021-08-03T12:49:02Z</time>
      </trkpt>
      <trkpt lat="42.32583" lon="-0.69106">
        <ele>1002.59</ele>
        <time>2021-08-03T12:49:03Z</time>
      </trkpt>
      <trkpt lat="42.32582" lon="-0.69113">
        <ele>1002.72</ele>
        <time>2021-08-03T12:49:05Z</time>
      </trkpt>
      <trkpt lat="42.32581" lon="-0.69116">
        <ele>1002.79</ele>
        <time>2021-08-03T12:49:06Z</time>
      </trkpt>
      <trkpt lat="42.32565" lon="-0.69132">
        <ele>1004.32</ele>
        <time>2021-08-03T12:49:17Z</time>
      </trkpt>
      <trkpt lat="42.32568" lon="-0.69131">
        <ele>1006.13</ele>
        <time>2021-08-03T12:50:15Z</time>
      </trkpt>
      <trkpt lat="42.32566" lon="-0.69129">
        <ele>1006.14</ele>
        <time>2021-08-03T12:50:16Z</time>
      </trkpt>
      <trkpt lat="42.32565" lon="-0.69127">
        <ele>1006.18</ele>
        <time>2021-08-03T12:50:17Z</time>
      </trkpt>
      <trkpt lat="42.32564" lon="-0.69125">
        <ele>1006.23</ele>
        <time>2021-08-03T12:50:18Z</time>
      </trkpt>
      <trkpt lat="42.32564" lon="-0.69124">
        <ele>1006.87</ele>
        <time>2021-08-03T12:50:25Z</time>
      </trkpt>
      <trkpt lat="42.32566" lon="-0.69127">
        <ele>1006.96</ele>
        <time>2021-08-03T12:50:37Z</time>
      </trkpt>
      <trkpt lat="42.32566" lon="-0.69125">
        <ele>1006.94</ele>
        <time>2021-08-03T12:50:42Z</time>
      </trkpt>
      <trkpt lat="42.32569" lon="-0.6913">
        <ele>1006.82</ele>
        <time>2021-08-03T12:50:51Z</time>
      </trkpt>
      <trkpt lat="42.32588" lon="-0.69111">
        <ele>1006.3</ele>
        <time>2021-08-03T12:51:01Z</time>
      </trkpt>
      <trkpt lat="42.32606" lon="-0.69089">
        <ele>1004.38</ele>
        <time>2021-08-03T12:51:14Z</time>
      </trkpt>
      <trkpt lat="42.32619" lon="-0.6909">
        <ele>1003.74</ele>
        <time>2021-08-03T12:51:18Z</time>
      </trkpt>
      <trkpt lat="42.32625" lon="-0.6909">
        <ele>1003.6</ele>
        <time>2021-08-03T12:51:19Z</time>
      </trkpt>
      <trkpt lat="42.32631" lon="-0.69086">
        <ele>1003.45</ele>
        <time>2021-08-03T12:51:20Z</time>
      </trkpt>
      <trkpt lat="42.32652" lon="-0.69073">
        <ele>1002.62</ele>
        <time>2021-08-03T12:51:23Z</time>
      </trkpt>
      <trkpt lat="42.32659" lon="-0.69072">
        <ele>1002.35</ele>
        <time>2021-08-03T12:51:24Z</time>
      </trkpt>
      <trkpt lat="42.32665" lon="-0.69073">
        <ele>1002.17</ele>
        <time>2021-08-03T12:51:25Z</time>
      </trkpt>
      <trkpt lat="42.32703" lon="-0.69073">
        <ele>1001.8</ele>
        <time>2021-08-03T12:51:31Z</time>
      </trkpt>
      <trkpt lat="42.3273" lon="-0.69055">
        <ele>1002.47</ele>
        <time>2021-08-03T12:51:35Z</time>
      </trkpt>
      <trkpt lat="42.32766" lon="-0.69016">
        <ele>1004.75</ele>
        <time>2021-08-03T12:51:41Z</time>
      </trkpt>
      <trkpt lat="42.32778" lon="-0.69">
        <ele>1005.6</ele>
        <time>2021-08-03T12:51:48Z</time>
      </trkpt>
      <trkpt lat="42.32785" lon="-0.68996">
        <ele>1006.08</ele>
        <time>2021-08-03T12:52:19Z</time>
      </trkpt>
      <trkpt lat="42.32816" lon="-0.68938">
        <ele>1005.99</ele>
        <time>2021-08-03T12:52:25Z</time>
      </trkpt>
      <trkpt lat="42.32819" lon="-0.68923">
        <ele>1005.9</ele>
        <time>2021-08-03T12:52:26Z</time>
      </trkpt>
      <trkpt lat="42.32834" lon="-0.68866">
        <ele>1005.17</ele>
        <time>2021-08-03T12:52:30Z</time>
      </trkpt>
      <trkpt lat="42.32839" lon="-0.68805">
        <ele>1003.99</ele>
        <time>2021-08-03T12:52:35Z</time>
      </trkpt>
      <trkpt lat="42.32849" lon="-0.68766">
        <ele>1003.46</ele>
        <time>2021-08-03T12:52:39Z</time>
      </trkpt>
      <trkpt lat="42.32836" lon="-0.68725">
        <ele>1003.09</ele>
        <time>2021-08-03T12:52:45Z</time>
      </trkpt>
      <trkpt lat="42.32829" lon="-0.68724">
        <ele>1003.04</ele>
        <time>2021-08-03T12:52:46Z</time>
      </trkpt>
      <trkpt lat="42.32806" lon="-0.68721">
        <ele>1002.62</ele>
        <time>2021-08-03T12:52:49Z</time>
      </trkpt>
      <trkpt lat="42.32744" lon="-0.68741">
        <ele>1001.82</ele>
        <time>2021-08-03T12:52:57Z</time>
      </trkpt>
      <trkpt lat="42.32723" lon="-0.6873">
        <ele>1001.55</ele>
        <time>2021-08-03T12:53:00Z</time>
      </trkpt>
      <trkpt lat="42.32634" lon="-0.68676">
        <ele>1000.04</ele>
        <time>2021-08-03T12:53:12Z</time>
      </trkpt>
      <trkpt lat="42.3258" lon="-0.6867">
        <ele>997.93</ele>
        <time>2021-08-03T12:53:19Z</time>
      </trkpt>
      <trkpt lat="42.32561" lon="-0.68674">
        <ele>996.52</ele>
        <time>2021-08-03T12:53:22Z</time>
      </trkpt>
      <trkpt lat="42.32549" lon="-0.68677">
        <ele>995.75</ele>
        <time>2021-08-03T12:53:24Z</time>
      </trkpt>
      <trkpt lat="42.32526" lon="-0.68673">
        <ele>994.33</ele>
        <time>2021-08-03T12:53:28Z</time>
      </trkpt>
      <trkpt lat="42.32495" lon="-0.68655">
        <ele>992.89</ele>
        <time>2021-08-03T12:53:33Z</time>
      </trkpt>
      <trkpt lat="42.32486" lon="-0.68614">
        <ele>990.89</ele>
        <time>2021-08-03T12:53:40Z</time>
      </trkpt>
      <trkpt lat="42.3249" lon="-0.68608">
        <ele>990.63</ele>
        <time>2021-08-03T12:53:41Z</time>
      </trkpt>
      <trkpt lat="42.32521" lon="-0.68549">
        <ele>990.1</ele>
        <time>2021-08-03T12:53:48Z</time>
      </trkpt>
      <trkpt lat="42.32533" lon="-0.68502">
        <ele>990.04</ele>
        <time>2021-08-03T12:53:52Z</time>
      </trkpt>
      <trkpt lat="42.32547" lon="-0.68426">
        <ele>989.64</ele>
        <time>2021-08-03T12:53:59Z</time>
      </trkpt>
      <trkpt lat="42.32568" lon="-0.68394">
        <ele>989.29</ele>
        <time>2021-08-03T12:54:04Z</time>
      </trkpt>
      <trkpt lat="42.32568" lon="-0.6833">
        <ele>989.02</ele>
        <time>2021-08-03T12:54:11Z</time>
      </trkpt>
      <trkpt lat="42.3255" lon="-0.6832">
        <ele>988.76</ele>
        <time>2021-08-03T12:54:14Z</time>
      </trkpt>
      <trkpt lat="42.32536" lon="-0.68314">
        <ele>988.63</ele>
        <time>2021-08-03T12:54:16Z</time>
      </trkpt>
      <trkpt lat="42.32502" lon="-0.68252">
        <ele>987.24</ele>
        <time>2021-08-03T12:54:23Z</time>
      </trkpt>
      <trkpt lat="42.32462" lon="-0.68183">
        <ele>983.66</ele>
        <time>2021-08-03T12:54:30Z</time>
      </trkpt>
      <trkpt lat="42.32433" lon="-0.68146">
        <ele>980.87</ele>
        <time>2021-08-03T12:54:35Z</time>
      </trkpt>
      <trkpt lat="42.32419" lon="-0.68112">
        <ele>978.45</ele>
        <time>2021-08-03T12:54:39Z</time>
      </trkpt>
      <trkpt lat="42.32398" lon="-0.68046">
        <ele>975.99</ele>
        <time>2021-08-03T12:54:46Z</time>
      </trkpt>
      <trkpt lat="42.32393" lon="-0.67993">
        <ele>975.92</ele>
        <time>2021-08-03T12:54:50Z</time>
      </trkpt>
      <trkpt lat="42.32378" lon="-0.67939">
        <ele>976.91</ele>
        <time>2021-08-03T12:54:54Z</time>
      </trkpt>
      <trkpt lat="42.32349" lon="-0.67885">
        <ele>978.83</ele>
        <time>2021-08-03T12:54:59Z</time>
      </trkpt>
      <trkpt lat="42.32329" lon="-0.6779">
        <ele>982.73</ele>
        <time>2021-08-03T12:55:07Z</time>
      </trkpt>
      <trkpt lat="42.32319" lon="-0.67755">
        <ele>984.32</ele>
        <time>2021-08-03T12:55:10Z</time>
      </trkpt>
      <trkpt lat="42.32318" lon="-0.67695">
        <ele>987</ele>
        <time>2021-08-03T12:55:15Z</time>
      </trkpt>
      <trkpt lat="42.32327" lon="-0.67652">
        <ele>988.18</ele>
        <time>2021-08-03T12:55:18Z</time>
      </trkpt>
      <trkpt lat="42.32367" lon="-0.67595">
        <ele>990.21</ele>
        <time>2021-08-03T12:55:24Z</time>
      </trkpt>
      <trkpt lat="42.32393" lon="-0.67565">
        <ele>990.91</ele>
        <time>2021-08-03T12:55:27Z</time>
      </trkpt>
      <trkpt lat="42.324" lon="-0.6747">
        <ele>992.55</ele>
        <time>2021-08-03T12:55:33Z</time>
      </trkpt>
      <trkpt lat="42.32359" lon="-0.67307">
        <ele>995.76</ele>
        <time>2021-08-03T12:55:43Z</time>
      </trkpt>
      <trkpt lat="42.32339" lon="-0.67198">
        <ele>998.56</ele>
        <time>2021-08-03T12:55:50Z</time>
      </trkpt>
      <trkpt lat="42.32353" lon="-0.67129">
        <ele>999.69</ele>
        <time>2021-08-03T12:55:55Z</time>
      </trkpt>
      <trkpt lat="42.32378" lon="-0.67071">
        <ele>999.81</ele>
        <time>2021-08-03T12:56:00Z</time>
      </trkpt>
      <trkpt lat="42.32401" lon="-0.6704">
        <ele>1000.06</ele>
        <time>2021-08-03T12:56:03Z</time>
      </trkpt>
      <trkpt lat="42.32423" lon="-0.66987">
        <ele>1000.58</ele>
        <time>2021-08-03T12:56:09Z</time>
      </trkpt>
      <trkpt lat="42.32425" lon="-0.66974">
        <ele>1000.76</ele>
        <time>2021-08-03T12:56:19Z</time>
      </trkpt>
      <trkpt lat="42.32425" lon="-0.66972">
        <ele>1000.79</ele>
        <time>2021-08-03T12:56:20Z</time>
      </trkpt>
      <trkpt lat="42.32426" lon="-0.66953">
        <ele>1000.85</ele>
        <time>2021-08-03T12:56:25Z</time>
      </trkpt>
      <trkpt lat="42.32417" lon="-0.66907">
        <ele>1001.32</ele>
        <time>2021-08-03T12:56:30Z</time>
      </trkpt>
      <trkpt lat="42.32379" lon="-0.66793">
        <ele>1004.78</ele>
        <time>2021-08-03T12:56:42Z</time>
      </trkpt>
      <trkpt lat="42.32377" lon="-0.66784">
        <ele>1005.17</ele>
        <time>2021-08-03T12:56:43Z</time>
      </trkpt>
      <trkpt lat="42.32376" lon="-0.66766">
        <ele>1005.92</ele>
        <time>2021-08-03T12:56:45Z</time>
      </trkpt>
      <trkpt lat="42.3238" lon="-0.66732">
        <ele>1007.63</ele>
        <time>2021-08-03T12:56:49Z</time>
      </trkpt>
      <trkpt lat="42.32387" lon="-0.66714">
        <ele>1008.3</ele>
        <time>2021-08-03T12:56:51Z</time>
      </trkpt>
      <trkpt lat="42.32384" lon="-0.66657">
        <ele>1010.3</ele>
        <time>2021-08-03T12:56:56Z</time>
      </trkpt>
      <trkpt lat="42.32389" lon="-0.66572">
        <ele>1012.96</ele>
        <time>2021-08-03T12:57:04Z</time>
      </trkpt>
      <trkpt lat="42.32388" lon="-0.66562">
        <ele>1013.18</ele>
        <time>2021-08-03T12:57:05Z</time>
      </trkpt>
      <trkpt lat="42.32409" lon="-0.66492">
        <ele>1014.83</ele>
        <time>2021-08-03T12:57:12Z</time>
      </trkpt>
      <trkpt lat="42.32431" lon="-0.66458">
        <ele>1015.99</ele>
        <time>2021-08-03T12:57:16Z</time>
      </trkpt>
      <trkpt lat="42.32437" lon="-0.66411">
        <ele>1017.65</ele>
        <time>2021-08-03T12:57:21Z</time>
      </trkpt>
      <trkpt lat="42.32433" lon="-0.6639">
        <ele>1018.23</ele>
        <time>2021-08-03T12:57:23Z</time>
      </trkpt>
      <trkpt lat="42.32457" lon="-0.66297">
        <ele>1021.62</ele>
        <time>2021-08-03T12:57:31Z</time>
      </trkpt>
      <trkpt lat="42.3247" lon="-0.66279">
        <ele>1022.43</ele>
        <time>2021-08-03T12:57:33Z</time>
      </trkpt>
      <trkpt lat="42.32482" lon="-0.66198">
        <ele>1026.04</ele>
        <time>2021-08-03T12:57:41Z</time>
      </trkpt>
      <trkpt lat="42.32463" lon="-0.66162">
        <ele>1027.64</ele>
        <time>2021-08-03T12:57:45Z</time>
      </trkpt>
      <trkpt lat="42.32444" lon="-0.66136">
        <ele>1028.71</ele>
        <time>2021-08-03T12:57:48Z</time>
      </trkpt>
      <trkpt lat="42.32422" lon="-0.66042">
        <ele>1031.97</ele>
        <time>2021-08-03T12:57:57Z</time>
      </trkpt>
      <trkpt lat="42.3242" lon="-0.66034">
        <ele>1032.26</ele>
        <time>2021-08-03T12:57:58Z</time>
      </trkpt>
      <trkpt lat="42.32426" lon="-0.65995">
        <ele>1033.66</ele>
        <time>2021-08-03T12:58:02Z</time>
      </trkpt>
      <trkpt lat="42.32434" lon="-0.65977">
        <ele>1034.42</ele>
        <time>2021-08-03T12:58:04Z</time>
      </trkpt>
      <trkpt lat="42.32443" lon="-0.65936">
        <ele>1035.94</ele>
        <time>2021-08-03T12:58:08Z</time>
      </trkpt>
      <trkpt lat="42.32444" lon="-0.65916">
        <ele>1036.46</ele>
        <time>2021-08-03T12:58:10Z</time>
      </trkpt>
      <trkpt lat="42.32452" lon="-0.65876">
        <ele>1037.44</ele>
        <time>2021-08-03T12:58:14Z</time>
      </trkpt>
      <trkpt lat="42.3246" lon="-0.65855">
        <ele>1037.71</ele>
        <time>2021-08-03T12:58:16Z</time>
      </trkpt>
      <trkpt lat="42.32504" lon="-0.65826">
        <ele>1039.98</ele>
        <time>2021-08-03T12:58:23Z</time>
      </trkpt>
      <trkpt lat="42.32553" lon="-0.65839">
        <ele>1043.35</ele>
        <time>2021-08-03T12:58:33Z</time>
      </trkpt>
      <trkpt lat="42.3261" lon="-0.6585">
        <ele>1044.98</ele>
        <time>2021-08-03T12:58:40Z</time>
      </trkpt>
      <trkpt lat="42.32724" lon="-0.65864">
        <ele>1046.64</ele>
        <time>2021-08-03T12:58:51Z</time>
      </trkpt>
      <trkpt lat="42.32743" lon="-0.65867">
        <ele>1046.67</ele>
        <time>2021-08-03T12:58:53Z</time>
      </trkpt>
      <trkpt lat="42.32798" lon="-0.65827">
        <ele>1045.73</ele>
        <time>2021-08-03T12:59:00Z</time>
      </trkpt>
      <trkpt lat="42.32805" lon="-0.65794">
        <ele>1044.97</ele>
        <time>2021-08-03T12:59:03Z</time>
      </trkpt>
      <trkpt lat="42.32849" lon="-0.65743">
        <ele>1043.13</ele>
        <time>2021-08-03T12:59:11Z</time>
      </trkpt>
      <trkpt lat="42.32868" lon="-0.65735">
        <ele>1042.94</ele>
        <time>2021-08-03T12:59:13Z</time>
      </trkpt>
      <trkpt lat="42.32909" lon="-0.65699">
        <ele>1042.46</ele>
        <time>2021-08-03T12:59:18Z</time>
      </trkpt>
      <trkpt lat="42.32938" lon="-0.65665">
        <ele>1042.41</ele>
        <time>2021-08-03T12:59:22Z</time>
      </trkpt>
      <trkpt lat="42.32972" lon="-0.65653">
        <ele>1042.32</ele>
        <time>2021-08-03T12:59:26Z</time>
      </trkpt>
      <trkpt lat="42.33052" lon="-0.65657">
        <ele>1042.35</ele>
        <time>2021-08-03T12:59:35Z</time>
      </trkpt>
      <trkpt lat="42.33104" lon="-0.65658">
        <ele>1043.04</ele>
        <time>2021-08-03T12:59:42Z</time>
      </trkpt>
      <trkpt lat="42.33127" lon="-0.65605">
        <ele>1044.51</ele>
        <time>2021-08-03T12:59:49Z</time>
      </trkpt>
      <trkpt lat="42.33093" lon="-0.65535">
        <ele>1046.95</ele>
        <time>2021-08-03T12:59:56Z</time>
      </trkpt>
      <trkpt lat="42.33068" lon="-0.65487">
        <ele>1050.02</ele>
        <time>2021-08-03T13:00:01Z</time>
      </trkpt>
      <trkpt lat="42.33054" lon="-0.65425">
        <ele>1052.24</ele>
        <time>2021-08-03T13:00:06Z</time>
      </trkpt>
      <trkpt lat="42.33062" lon="-0.65349">
        <ele>1054.52</ele>
        <time>2021-08-03T13:00:12Z</time>
      </trkpt>
      <trkpt lat="42.33081" lon="-0.65273">
        <ele>1056.81</ele>
        <time>2021-08-03T13:00:18Z</time>
      </trkpt>
      <trkpt lat="42.33038" lon="-0.65222">
        <ele>1058.38</ele>
        <time>2021-08-03T13:00:24Z</time>
      </trkpt>
      <trkpt lat="42.33013" lon="-0.65174">
        <ele>1060.4</ele>
        <time>2021-08-03T13:00:30Z</time>
      </trkpt>
      <trkpt lat="42.33025" lon="-0.65143">
        <ele>1061.49</ele>
        <time>2021-08-03T13:00:33Z</time>
      </trkpt>
      <trkpt lat="42.33048" lon="-0.65099">
        <ele>1061.59</ele>
        <time>2021-08-03T13:00:37Z</time>
      </trkpt>
      <trkpt lat="42.3308" lon="-0.6506">
        <ele>1060.67</ele>
        <time>2021-08-03T13:00:41Z</time>
      </trkpt>
      <trkpt lat="42.331" lon="-0.65011">
        <ele>1059.28</ele>
        <time>2021-08-03T13:00:45Z</time>
      </trkpt>
      <trkpt lat="42.33106" lon="-0.64987">
        <ele>1058.47</ele>
        <time>2021-08-03T13:00:47Z</time>
      </trkpt>
      <trkpt lat="42.33156" lon="-0.64949">
        <ele>1054.51</ele>
        <time>2021-08-03T13:00:54Z</time>
      </trkpt>
      <trkpt lat="42.33183" lon="-0.64933">
        <ele>1052.96</ele>
        <time>2021-08-03T13:00:57Z</time>
      </trkpt>
      <trkpt lat="42.33225" lon="-0.64908">
        <ele>1050.25</ele>
        <time>2021-08-03T13:01:05Z</time>
      </trkpt>
      <trkpt lat="42.33239" lon="-0.64891">
        <ele>1049.98</ele>
        <time>2021-08-03T13:01:08Z</time>
      </trkpt>
      <trkpt lat="42.33255" lon="-0.64862">
        <ele>1049.95</ele>
        <time>2021-08-03T13:01:11Z</time>
      </trkpt>
      <trkpt lat="42.33311" lon="-0.6484">
        <ele>1050.39</ele>
        <time>2021-08-03T13:01:18Z</time>
      </trkpt>
      <trkpt lat="42.3334" lon="-0.64847">
        <ele>1050.98</ele>
        <time>2021-08-03T13:01:21Z</time>
      </trkpt>
      <trkpt lat="42.33387" lon="-0.64818">
        <ele>1052.8</ele>
        <time>2021-08-03T13:01:27Z</time>
      </trkpt>
      <trkpt lat="42.33406" lon="-0.64786">
        <ele>1053.9</ele>
        <time>2021-08-03T13:01:30Z</time>
      </trkpt>
      <trkpt lat="42.33412" lon="-0.64713">
        <ele>1055.25</ele>
        <time>2021-08-03T13:01:36Z</time>
      </trkpt>
      <trkpt lat="42.33423" lon="-0.64667">
        <ele>1056.09</ele>
        <time>2021-08-03T13:01:42Z</time>
      </trkpt>
      <trkpt lat="42.33466" lon="-0.64667">
        <ele>1055.72</ele>
        <time>2021-08-03T13:01:46Z</time>
      </trkpt>
      <trkpt lat="42.33488" lon="-0.64671">
        <ele>1055.41</ele>
        <time>2021-08-03T13:01:48Z</time>
      </trkpt>
      <trkpt lat="42.3352" lon="-0.64617">
        <ele>1053.74</ele>
        <time>2021-08-03T13:01:54Z</time>
      </trkpt>
      <trkpt lat="42.3353" lon="-0.64588">
        <ele>1053.18</ele>
        <time>2021-08-03T13:01:56Z</time>
      </trkpt>
      <trkpt lat="42.33594" lon="-0.64465">
        <ele>1050.65</ele>
        <time>2021-08-03T13:02:04Z</time>
      </trkpt>
      <trkpt lat="42.33642" lon="-0.64426">
        <ele>1048.39</ele>
        <time>2021-08-03T13:02:10Z</time>
      </trkpt>
      <trkpt lat="42.33659" lon="-0.64431">
        <ele>1047.71</ele>
        <time>2021-08-03T13:02:12Z</time>
      </trkpt>
      <trkpt lat="42.33682" lon="-0.64395">
        <ele>1044.28</ele>
        <time>2021-08-03T13:02:20Z</time>
      </trkpt>
      <trkpt lat="42.33681" lon="-0.64372">
        <ele>1043.7</ele>
        <time>2021-08-03T13:02:22Z</time>
      </trkpt>
      <trkpt lat="42.33646" lon="-0.64307">
        <ele>1041.4</ele>
        <time>2021-08-03T13:02:28Z</time>
      </trkpt>
      <trkpt lat="42.33623" lon="-0.64268">
        <ele>1039.14</ele>
        <time>2021-08-03T13:02:33Z</time>
      </trkpt>
      <trkpt lat="42.33608" lon="-0.64223">
        <ele>1037.11</ele>
        <time>2021-08-03T13:02:37Z</time>
      </trkpt>
      <trkpt lat="42.33608" lon="-0.64179">
        <ele>1035.26</ele>
        <time>2021-08-03T13:02:41Z</time>
      </trkpt>
      <trkpt lat="42.33605" lon="-0.64084">
        <ele>1032.95</ele>
        <time>2021-08-03T13:02:48Z</time>
      </trkpt>
      <trkpt lat="42.33597" lon="-0.6406">
        <ele>1032.4</ele>
        <time>2021-08-03T13:02:50Z</time>
      </trkpt>
      <trkpt lat="42.33567" lon="-0.64057">
        <ele>1030.65</ele>
        <time>2021-08-03T13:02:55Z</time>
      </trkpt>
      <trkpt lat="42.33494" lon="-0.6409">
        <ele>1028.06</ele>
        <time>2021-08-03T13:03:03Z</time>
      </trkpt>
      <trkpt lat="42.33423" lon="-0.64085">
        <ele>1025.81</ele>
        <time>2021-08-03T13:03:09Z</time>
      </trkpt>
      <trkpt lat="42.33376" lon="-0.64065">
        <ele>1023.27</ele>
        <time>2021-08-03T13:03:14Z</time>
      </trkpt>
      <trkpt lat="42.33297" lon="-0.64009">
        <ele>1019.97</ele>
        <time>2021-08-03T13:03:22Z</time>
      </trkpt>
      <trkpt lat="42.33253" lon="-0.63978">
        <ele>1018.52</ele>
        <time>2021-08-03T13:03:27Z</time>
      </trkpt>
      <trkpt lat="42.33199" lon="-0.63967">
        <ele>1018.32</ele>
        <time>2021-08-03T13:03:32Z</time>
      </trkpt>
      <trkpt lat="42.33136" lon="-0.63914">
        <ele>1018.51</ele>
        <time>2021-08-03T13:03:40Z</time>
      </trkpt>
      <trkpt lat="42.33116" lon="-0.63893">
        <ele>1018.59</ele>
        <time>2021-08-03T13:03:42Z</time>
      </trkpt>
      <trkpt lat="42.33091" lon="-0.6387">
        <ele>1018.84</ele>
        <time>2021-08-03T13:03:45Z</time>
      </trkpt>
      <trkpt lat="42.33087" lon="-0.63825">
        <ele>1019.02</ele>
        <time>2021-08-03T13:03:49Z</time>
      </trkpt>
      <trkpt lat="42.3304" lon="-0.63792">
        <ele>1019.65</ele>
        <time>2021-08-03T13:03:55Z</time>
      </trkpt>
      <trkpt lat="42.33029" lon="-0.63798">
        <ele>1019.88</ele>
        <time>2021-08-03T13:03:56Z</time>
      </trkpt>
      <trkpt lat="42.32997" lon="-0.63812">
        <ele>1020.68</ele>
        <time>2021-08-03T13:03:59Z</time>
      </trkpt>
      <trkpt lat="42.32959" lon="-0.63776">
        <ele>1022.42</ele>
        <time>2021-08-03T13:04:05Z</time>
      </trkpt>
      <trkpt lat="42.32951" lon="-0.6375">
        <ele>1022.82</ele>
        <time>2021-08-03T13:04:07Z</time>
      </trkpt>
      <trkpt lat="42.32969" lon="-0.63676">
        <ele>1024.89</ele>
        <time>2021-08-03T13:04:14Z</time>
      </trkpt>
      <trkpt lat="42.33008" lon="-0.63603">
        <ele>1027.21</ele>
        <time>2021-08-03T13:04:21Z</time>
      </trkpt>
      <trkpt lat="42.33008" lon="-0.6356">
        <ele>1028.43</ele>
        <time>2021-08-03T13:04:24Z</time>
      </trkpt>
      <trkpt lat="42.33032" lon="-0.63446">
        <ele>1030.5</ele>
        <time>2021-08-03T13:04:32Z</time>
      </trkpt>
      <trkpt lat="42.33041" lon="-0.63423">
        <ele>1030.9</ele>
        <time>2021-08-03T13:04:34Z</time>
      </trkpt>
      <trkpt lat="42.33053" lon="-0.63398">
        <ele>1031.25</ele>
        <time>2021-08-03T13:04:36Z</time>
      </trkpt>
      <trkpt lat="42.33065" lon="-0.63338">
        <ele>1032.06</ele>
        <time>2021-08-03T13:04:40Z</time>
      </trkpt>
      <trkpt lat="42.33062" lon="-0.63281">
        <ele>1033.03</ele>
        <time>2021-08-03T13:04:44Z</time>
      </trkpt>
      <trkpt lat="42.3304" lon="-0.63139">
        <ele>1035.77</ele>
        <time>2021-08-03T13:04:52Z</time>
      </trkpt>
      <trkpt lat="42.33031" lon="-0.63068">
        <ele>1036.68</ele>
        <time>2021-08-03T13:04:56Z</time>
      </trkpt>
      <trkpt lat="42.33003" lon="-0.63013">
        <ele>1036.59</ele>
        <time>2021-08-03T13:05:00Z</time>
      </trkpt>
      <trkpt lat="42.32985" lon="-0.62991">
        <ele>1036.21</ele>
        <time>2021-08-03T13:05:02Z</time>
      </trkpt>
      <trkpt lat="42.3294" lon="-0.62963">
        <ele>1033.93</ele>
        <time>2021-08-03T13:05:07Z</time>
      </trkpt>
      <trkpt lat="42.32924" lon="-0.62905">
        <ele>1030.77</ele>
        <time>2021-08-03T13:05:13Z</time>
      </trkpt>
      <trkpt lat="42.32955" lon="-0.62839">
        <ele>1027.94</ele>
        <time>2021-08-03T13:05:19Z</time>
      </trkpt>
      <trkpt lat="42.32994" lon="-0.62812">
        <ele>1026.71</ele>
        <time>2021-08-03T13:05:23Z</time>
      </trkpt>
      <trkpt lat="42.33015" lon="-0.62802">
        <ele>1025.96</ele>
        <time>2021-08-03T13:05:25Z</time>
      </trkpt>
      <trkpt lat="42.33043" lon="-0.62782">
        <ele>1025.1</ele>
        <time>2021-08-03T13:05:28Z</time>
      </trkpt>
      <trkpt lat="42.33063" lon="-0.62715">
        <ele>1023.67</ele>
        <time>2021-08-03T13:05:34Z</time>
      </trkpt>
      <trkpt lat="42.33032" lon="-0.62701">
        <ele>1022.61</ele>
        <time>2021-08-03T13:05:38Z</time>
      </trkpt>
      <trkpt lat="42.32952" lon="-0.62685">
        <ele>1018.71</ele>
        <time>2021-08-03T13:05:47Z</time>
      </trkpt>
      <trkpt lat="42.32919" lon="-0.62665">
        <ele>1016.34</ele>
        <time>2021-08-03T13:05:51Z</time>
      </trkpt>
      <trkpt lat="42.32891" lon="-0.62623">
        <ele>1013.38</ele>
        <time>2021-08-03T13:05:56Z</time>
      </trkpt>
      <trkpt lat="42.32882" lon="-0.62604">
        <ele>1012.51</ele>
        <time>2021-08-03T13:05:58Z</time>
      </trkpt>
      <trkpt lat="42.32857" lon="-0.62552">
        <ele>1009.17</ele>
        <time>2021-08-03T13:06:04Z</time>
      </trkpt>
      <trkpt lat="42.32816" lon="-0.62497">
        <ele>1005.58</ele>
        <time>2021-08-03T13:06:11Z</time>
      </trkpt>
      <trkpt lat="42.32772" lon="-0.62433">
        <ele>1002.52</ele>
        <time>2021-08-03T13:06:18Z</time>
      </trkpt>
      <trkpt lat="42.32722" lon="-0.62337">
        <ele>999.37</ele>
        <time>2021-08-03T13:06:26Z</time>
      </trkpt>
      <trkpt lat="42.32699" lon="-0.62291">
        <ele>997.65</ele>
        <time>2021-08-03T13:06:30Z</time>
      </trkpt>
      <trkpt lat="42.32688" lon="-0.62253">
        <ele>996.15</ele>
        <time>2021-08-03T13:06:33Z</time>
      </trkpt>
      <trkpt lat="42.32687" lon="-0.62239">
        <ele>994.97</ele>
        <time>2021-08-03T13:06:34Z</time>
      </trkpt>
      <trkpt lat="42.32682" lon="-0.62196">
        <ele>992.91</ele>
        <time>2021-08-03T13:06:37Z</time>
      </trkpt>
      <trkpt lat="42.32681" lon="-0.62158">
        <ele>990.77</ele>
        <time>2021-08-03T13:06:40Z</time>
      </trkpt>
      <trkpt lat="42.32652" lon="-0.62115">
        <ele>987.3</ele>
        <time>2021-08-03T13:06:45Z</time>
      </trkpt>
      <trkpt lat="42.32626" lon="-0.62099">
        <ele>985.95</ele>
        <time>2021-08-03T13:06:48Z</time>
      </trkpt>
      <trkpt lat="42.32569" lon="-0.62014">
        <ele>983.61</ele>
        <time>2021-08-03T13:06:56Z</time>
      </trkpt>
      <trkpt lat="42.32495" lon="-0.61887">
        <ele>981.53</ele>
        <time>2021-08-03T13:07:07Z</time>
      </trkpt>
      <trkpt lat="42.3247" lon="-0.61853">
        <ele>981.43</ele>
        <time>2021-08-03T13:07:12Z</time>
      </trkpt>
      <trkpt lat="42.3247" lon="-0.61856">
        <ele>981.73</ele>
        <time>2021-08-03T13:07:15Z</time>
      </trkpt>
      <trkpt lat="42.32478" lon="-0.6187">
        <ele>982.7</ele>
        <time>2021-08-03T13:07:25Z</time>
      </trkpt>
      <trkpt lat="42.32476" lon="-0.61867">
        <ele>982.63</ele>
        <time>2021-08-03T13:07:26Z</time>
      </trkpt>
      <trkpt lat="42.32465" lon="-0.61849">
        <ele>982.52</ele>
        <time>2021-08-03T13:07:31Z</time>
      </trkpt>
      <trkpt lat="42.32472" lon="-0.61836">
        <ele>983.34</ele>
        <time>2021-08-03T13:07:35Z</time>
      </trkpt>
      <trkpt lat="42.32488" lon="-0.61755">
        <ele>986.23</ele>
        <time>2021-08-03T13:07:43Z</time>
      </trkpt>
      <trkpt lat="42.32472" lon="-0.61678">
        <ele>990.15</ele>
        <time>2021-08-03T13:07:48Z</time>
      </trkpt>
      <trkpt lat="42.32458" lon="-0.61607">
        <ele>994.27</ele>
        <time>2021-08-03T13:07:52Z</time>
      </trkpt>
      <trkpt lat="42.32454" lon="-0.6158">
        <ele>996.56</ele>
        <time>2021-08-03T13:07:54Z</time>
      </trkpt>
      <trkpt lat="42.32473" lon="-0.61557">
        <ele>1000.89</ele>
        <time>2021-08-03T13:07:58Z</time>
      </trkpt>
      <trkpt lat="42.32495" lon="-0.61579">
        <ele>1004</ele>
        <time>2021-08-03T13:08:01Z</time>
      </trkpt>
      <trkpt lat="42.32501" lon="-0.61594">
        <ele>1004.92</ele>
        <time>2021-08-03T13:08:02Z</time>
      </trkpt>
      <trkpt lat="42.32533" lon="-0.61663">
        <ele>1009.72</ele>
        <time>2021-08-03T13:08:07Z</time>
      </trkpt>
      <trkpt lat="42.32573" lon="-0.61719">
        <ele>1013.76</ele>
        <time>2021-08-03T13:08:11Z</time>
      </trkpt>
      <trkpt lat="42.32612" lon="-0.61754">
        <ele>1018.54</ele>
        <time>2021-08-03T13:08:14Z</time>
      </trkpt>
      <trkpt lat="42.32657" lon="-0.61815">
        <ele>1024.37</ele>
        <time>2021-08-03T13:08:18Z</time>
      </trkpt>
      <trkpt lat="42.32705" lon="-0.61861">
        <ele>1031.55</ele>
        <time>2021-08-03T13:08:23Z</time>
      </trkpt>
      <trkpt lat="42.32729" lon="-0.61826">
        <ele>1035.45</ele>
        <time>2021-08-03T13:08:26Z</time>
      </trkpt>
      <trkpt lat="42.3274" lon="-0.61775">
        <ele>1039.29</ele>
        <time>2021-08-03T13:08:29Z</time>
      </trkpt>
      <trkpt lat="42.3275" lon="-0.61698">
        <ele>1044.58</ele>
        <time>2021-08-03T13:08:33Z</time>
      </trkpt>
      <trkpt lat="42.32751" lon="-0.61644">
        <ele>1048.64</ele>
        <time>2021-08-03T13:08:36Z</time>
      </trkpt>
      <trkpt lat="42.32756" lon="-0.61601">
        <ele>1053.07</ele>
        <time>2021-08-03T13:08:39Z</time>
      </trkpt>
      <trkpt lat="42.32762" lon="-0.61561">
        <ele>1057.12</ele>
        <time>2021-08-03T13:08:42Z</time>
      </trkpt>
      <trkpt lat="42.32765" lon="-0.61515">
        <ele>1060.37</ele>
        <time>2021-08-03T13:08:45Z</time>
      </trkpt>
      <trkpt lat="42.32766" lon="-0.61502">
        <ele>1061.53</ele>
        <time>2021-08-03T13:08:46Z</time>
      </trkpt>
      <trkpt lat="42.32783" lon="-0.61463">
        <ele>1065.97</ele>
        <time>2021-08-03T13:08:50Z</time>
      </trkpt>
      <trkpt lat="42.32804" lon="-0.61458">
        <ele>1069.43</ele>
        <time>2021-08-03T13:08:54Z</time>
      </trkpt>
      <trkpt lat="42.32808" lon="-0.61461">
        <ele>1073.17</ele>
        <time>2021-08-03T13:09:00Z</time>
      </trkpt>
      <trkpt lat="42.32813" lon="-0.61461">
        <ele>1074.01</ele>
        <time>2021-08-03T13:09:03Z</time>
      </trkpt>
      <trkpt lat="42.32816" lon="-0.6147">
        <ele>1075.94</ele>
        <time>2021-08-03T13:09:10Z</time>
      </trkpt>
      <trkpt lat="42.32813" lon="-0.61469">
        <ele>1076.55</ele>
        <time>2021-08-03T13:09:27Z</time>
      </trkpt>
      <trkpt lat="42.32801" lon="-0.6147">
        <ele>1076.85</ele>
        <time>2021-08-03T13:09:31Z</time>
      </trkpt>
      <trkpt lat="42.32766" lon="-0.61516">
        <ele>1075.6</ele>
        <time>2021-08-03T13:09:40Z</time>
      </trkpt>
      <trkpt lat="42.32766" lon="-0.61527">
        <ele>1075.21</ele>
        <time>2021-08-03T13:09:41Z</time>
      </trkpt>
      <trkpt lat="42.32764" lon="-0.6155">
        <ele>1074.31</ele>
        <time>2021-08-03T13:09:43Z</time>
      </trkpt>
      <trkpt lat="42.32753" lon="-0.6158">
        <ele>1070.46</ele>
        <time>2021-08-03T13:09:50Z</time>
      </trkpt>
      <trkpt lat="42.32753" lon="-0.61581">
        <ele>1067.36</ele>
        <time>2021-08-03T13:09:56Z</time>
      </trkpt>
      <trkpt lat="42.32753" lon="-0.61584">
        <ele>1067.02</ele>
        <time>2021-08-03T13:10:51Z</time>
      </trkpt>
      <trkpt lat="42.32751" lon="-0.61619">
        <ele>1067</ele>
        <time>2021-08-03T13:10:56Z</time>
      </trkpt>
      <trkpt lat="42.32737" lon="-0.61749">
        <ele>1066.25</ele>
        <time>2021-08-03T13:11:03Z</time>
      </trkpt>
      <trkpt lat="42.32718" lon="-0.6183">
        <ele>1064.42</ele>
        <time>2021-08-03T13:11:07Z</time>
      </trkpt>
      <trkpt lat="42.32675" lon="-0.61868">
        <ele>1059.84</ele>
        <time>2021-08-03T13:11:12Z</time>
      </trkpt>
      <trkpt lat="42.3265" lon="-0.6183">
        <ele>1055.77</ele>
        <time>2021-08-03T13:11:15Z</time>
      </trkpt>
      <trkpt lat="42.32597" lon="-0.61756">
        <ele>1048.89</ele>
        <time>2021-08-03T13:11:20Z</time>
      </trkpt>
      <trkpt lat="42.32549" lon="-0.61704">
        <ele>1043.72</ele>
        <time>2021-08-03T13:11:24Z</time>
      </trkpt>
      <trkpt lat="42.32519" lon="-0.61662">
        <ele>1039.38</ele>
        <time>2021-08-03T13:11:27Z</time>
      </trkpt>
      <trkpt lat="42.32511" lon="-0.61647">
        <ele>1037.77</ele>
        <time>2021-08-03T13:11:28Z</time>
      </trkpt>
      <trkpt lat="42.32499" lon="-0.61618">
        <ele>1034.68</ele>
        <time>2021-08-03T13:11:30Z</time>
      </trkpt>
      <trkpt lat="42.32492" lon="-0.61593">
        <ele>1029.87</ele>
        <time>2021-08-03T13:11:32Z</time>
      </trkpt>
      <trkpt lat="42.3249" lon="-0.61583">
        <ele>1028.3</ele>
        <time>2021-08-03T13:11:33Z</time>
      </trkpt>
      <trkpt lat="42.32471" lon="-0.61559">
        <ele>1022.48</ele>
        <time>2021-08-03T13:11:37Z</time>
      </trkpt>
      <trkpt lat="42.32455" lon="-0.61574">
        <ele>1018.96</ele>
        <time>2021-08-03T13:11:40Z</time>
      </trkpt>
      <trkpt lat="42.32459" lon="-0.6163">
        <ele>1015.2</ele>
        <time>2021-08-03T13:11:44Z</time>
      </trkpt>
      <trkpt lat="42.32485" lon="-0.61753">
        <ele>1010.75</ele>
        <time>2021-08-03T13:11:50Z</time>
      </trkpt>
      <trkpt lat="42.3249" lon="-0.61786">
        <ele>1008.87</ele>
        <time>2021-08-03T13:11:52Z</time>
      </trkpt>
      <trkpt lat="42.32482" lon="-0.61838">
        <ele>1004.01</ele>
        <time>2021-08-03T13:11:56Z</time>
      </trkpt>
      <trkpt lat="42.32454" lon="-0.61856">
        <ele>999.95</ele>
        <time>2021-08-03T13:11:59Z</time>
      </trkpt>
      <trkpt lat="42.32426" lon="-0.6184">
        <ele>996.33</ele>
        <time>2021-08-03T13:12:02Z</time>
      </trkpt>
      <trkpt lat="42.32418" lon="-0.61826">
        <ele>995.23</ele>
        <time>2021-08-03T13:12:03Z</time>
      </trkpt>
      <trkpt lat="42.32401" lon="-0.61806">
        <ele>992.93</ele>
        <time>2021-08-03T13:12:05Z</time>
      </trkpt>
      <trkpt lat="42.3236" lon="-0.61779">
        <ele>988.26</ele>
        <time>2021-08-03T13:12:09Z</time>
      </trkpt>
      <trkpt lat="42.32326" lon="-0.61788">
        <ele>984.44</ele>
        <time>2021-08-03T13:12:12Z</time>
      </trkpt>
      <trkpt lat="42.32315" lon="-0.61795">
        <ele>983.25</ele>
        <time>2021-08-03T13:12:13Z</time>
      </trkpt>
      <trkpt lat="42.3226" lon="-0.61801">
        <ele>977.58</ele>
        <time>2021-08-03T13:12:18Z</time>
      </trkpt>
      <trkpt lat="42.32241" lon="-0.61763">
        <ele>974.03</ele>
        <time>2021-08-03T13:12:21Z</time>
      </trkpt>
      <trkpt lat="42.32227" lon="-0.61717">
        <ele>970.18</ele>
        <time>2021-08-03T13:12:24Z</time>
      </trkpt>
      <trkpt lat="42.32186" lon="-0.61679">
        <ele>964.64</ele>
        <time>2021-08-03T13:12:28Z</time>
      </trkpt>
      <trkpt lat="42.32158" lon="-0.61658">
        <ele>960.86</ele>
        <time>2021-08-03T13:12:31Z</time>
      </trkpt>
      <trkpt lat="42.32136" lon="-0.61651">
        <ele>956.48</ele>
        <time>2021-08-03T13:12:34Z</time>
      </trkpt>
      <trkpt lat="42.32122" lon="-0.61677">
        <ele>952.42</ele>
        <time>2021-08-03T13:12:37Z</time>
      </trkpt>
      <trkpt lat="42.32112" lon="-0.61713">
        <ele>948.53</ele>
        <time>2021-08-03T13:12:40Z</time>
      </trkpt>
      <trkpt lat="42.32087" lon="-0.6173">
        <ele>945.5</ele>
        <time>2021-08-03T13:12:43Z</time>
      </trkpt>
      <trkpt lat="42.32058" lon="-0.61744">
        <ele>942.48</ele>
        <time>2021-08-03T13:12:46Z</time>
      </trkpt>
      <trkpt lat="42.32028" lon="-0.61736">
        <ele>938.45</ele>
        <time>2021-08-03T13:12:50Z</time>
      </trkpt>
      <trkpt lat="42.32024" lon="-0.61725">
        <ele>937.35</ele>
        <time>2021-08-03T13:12:51Z</time>
      </trkpt>
      <trkpt lat="42.31982" lon="-0.61674">
        <ele>931.38</ele>
        <time>2021-08-03T13:12:57Z</time>
      </trkpt>
      <trkpt lat="42.31977" lon="-0.61709">
        <ele>928.76</ele>
        <time>2021-08-03T13:13:00Z</time>
      </trkpt>
      <trkpt lat="42.31999" lon="-0.61757">
        <ele>924.88</ele>
        <time>2021-08-03T13:13:04Z</time>
      </trkpt>
      <trkpt lat="42.32" lon="-0.61804">
        <ele>920.95</ele>
        <time>2021-08-03T13:13:08Z</time>
      </trkpt>
      <trkpt lat="42.3199" lon="-0.61817">
        <ele>917.88</ele>
        <time>2021-08-03T13:13:10Z</time>
      </trkpt>
      <trkpt lat="42.31961" lon="-0.61814">
        <ele>914.13</ele>
        <time>2021-08-03T13:13:14Z</time>
      </trkpt>
      <trkpt lat="42.31954" lon="-0.6181">
        <ele>913.4</ele>
        <time>2021-08-03T13:13:15Z</time>
      </trkpt>
      <trkpt lat="42.31938" lon="-0.61802">
        <ele>911.86</ele>
        <time>2021-08-03T13:13:17Z</time>
      </trkpt>
      <trkpt lat="42.31897" lon="-0.61762">
        <ele>907.71</ele>
        <time>2021-08-03T13:13:23Z</time>
      </trkpt>
      <trkpt lat="42.31893" lon="-0.61705">
        <ele>903.38</ele>
        <time>2021-08-03T13:13:29Z</time>
      </trkpt>
      <trkpt lat="42.3187" lon="-0.61683">
        <ele>900.24</ele>
        <time>2021-08-03T13:13:33Z</time>
      </trkpt>
      <trkpt lat="42.3186" lon="-0.61684">
        <ele>899.73</ele>
        <time>2021-08-03T13:13:34Z</time>
      </trkpt>
      <trkpt lat="42.31841" lon="-0.61688">
        <ele>898.85</ele>
        <time>2021-08-03T13:13:36Z</time>
      </trkpt>
      <trkpt lat="42.31816" lon="-0.61697">
        <ele>897.06</ele>
        <time>2021-08-03T13:13:39Z</time>
      </trkpt>
      <trkpt lat="42.31769" lon="-0.61696">
        <ele>892.7</ele>
        <time>2021-08-03T13:13:44Z</time>
      </trkpt>
      <trkpt lat="42.31749" lon="-0.61685">
        <ele>891.05</ele>
        <time>2021-08-03T13:13:46Z</time>
      </trkpt>
      <trkpt lat="42.31695" lon="-0.61649">
        <ele>886.53</ele>
        <time>2021-08-03T13:13:51Z</time>
      </trkpt>
      <trkpt lat="42.31631" lon="-0.61638">
        <ele>883.47</ele>
        <time>2021-08-03T13:13:55Z</time>
      </trkpt>
      <trkpt lat="42.31549" lon="-0.61647">
        <ele>879.3</ele>
        <time>2021-08-03T13:14:00Z</time>
      </trkpt>
      <trkpt lat="42.31487" lon="-0.61673">
        <ele>875.32</ele>
        <time>2021-08-03T13:14:04Z</time>
      </trkpt>
      <trkpt lat="42.31443" lon="-0.61692">
        <ele>872.31</ele>
        <time>2021-08-03T13:14:07Z</time>
      </trkpt>
      <trkpt lat="42.31399" lon="-0.61706">
        <ele>869.06</ele>
        <time>2021-08-03T13:14:10Z</time>
      </trkpt>
      <trkpt lat="42.31402" lon="-0.6171">
        <ele>827.5</ele>
      </trkpt>
      <trkpt lat="42.31409" lon="-0.61712">
        <ele>827.6</ele>
      </trkpt>
      <trkpt lat="42.31441" lon="-0.61713">
        <ele>828.3</ele>
      </trkpt>
      <trkpt lat="42.31497" lon="-0.6172">
        <ele>828</ele>
      </trkpt>
      <trkpt lat="42.31517" lon="-0.6172">
        <ele>829</ele>
      </trkpt>
      <trkpt lat="42.31528" lon="-0.61722">
        <ele>829.4</ele>
      </trkpt>
      <trkpt lat="42.3155" lon="-0.61731">
        <ele>829.4</ele>
      </trkpt>
      <trkpt lat="42.31561" lon="-0.61738">
        <ele>829.1</ele>
      </trkpt>
      <trkpt lat="42.31581" lon="-0.61755">
        <ele>828.7</ele>
      </trkpt>
      <trkpt lat="42.31596" lon="-0.61774">
        <ele>829.5</ele>
      </trkpt>
      <trkpt lat="42.3161" lon="-0.61804">
        <ele>829.1</ele>
      </trkpt>
      <trkpt lat="42.31617" lon="-0.61829">
        <ele>827.9</ele>
      </trkpt>
      <trkpt lat="42.31622" lon="-0.61845">
        <ele>827.6</ele>
      </trkpt>
      <trkpt lat="42.31624" lon="-0.61854">
        <ele>827.5</ele>
      </trkpt>
      <trkpt lat="42.31633" lon="-0.61906">
        <ele>826.3</ele>
      </trkpt>
      <trkpt lat="42.31636" lon="-0.61928">
        <ele>824.9</ele>
      </trkpt>
      <trkpt lat="42.31636" lon="-0.61942">
        <ele>823.5</ele>
      </trkpt>
      <trkpt lat="42.31633" lon="-0.61956">
        <ele>822.1</ele>
      </trkpt>
      <trkpt lat="42.31628" lon="-0.61975">
        <ele>820.1</ele>
      </trkpt>
      <trkpt lat="42.31608" lon="-0.62032">
        <ele>813.1</ele>
      </trkpt>
      <trkpt lat="42.31585" lon="-0.62144">
        <ele>800</ele>
      </trkpt>
      <trkpt lat="42.31586" lon="-0.62168">
        <ele>798.1</ele>
      </trkpt>
      <trkpt lat="42.31603" lon="-0.62299">
        <ele>793.6</ele>
      </trkpt>
      <trkpt lat="42.31603" lon="-0.62302">
        <ele>793.5</ele>
      </trkpt>
    </trkseg>
  </trk>
  <trk>
    <name><![CDATA[TOTAL 4x4 _10]]></name>
    <extensions>
      <line xmlns="http://www.topografix.com/GPX/gpx_style/0/2">
        <color>008888</color>
        <width>4</width>
      </line>
    </extensions>
    <trkseg>
      <trkpt lat="42.31183" lon="-0.62394">
        <ele>789.94</ele>
        <time>2021-08-03T13:19:25Z</time>
      </trkpt>
      <trkpt lat="42.31201" lon="-0.62387">
        <ele>790.45</ele>
        <time>2021-08-03T13:19:34Z</time>
      </trkpt>
      <trkpt lat="42.31252" lon="-0.62393">
        <ele>792.39</ele>
        <time>2021-08-03T13:19:44Z</time>
      </trkpt>
      <trkpt lat="42.31277" lon="-0.62402">
        <ele>794.07</ele>
        <time>2021-08-03T13:19:53Z</time>
      </trkpt>
      <trkpt lat="42.31337" lon="-0.6243">
        <ele>796.76</ele>
        <time>2021-08-03T13:20:05Z</time>
      </trkpt>
      <trkpt lat="42.31379" lon="-0.62443">
        <ele>799.36</ele>
        <time>2021-08-03T13:20:14Z</time>
      </trkpt>
      <trkpt lat="42.31393" lon="-0.62417">
        <ele>800.25</ele>
        <time>2021-08-03T13:20:22Z</time>
      </trkpt>
      <trkpt lat="42.31398" lon="-0.62404">
        <ele>800.76</ele>
        <time>2021-08-03T13:20:25Z</time>
      </trkpt>
      <trkpt lat="42.31401" lon="-0.624">
        <ele>800.86</ele>
        <time>2021-08-03T13:20:26Z</time>
      </trkpt>
      <trkpt lat="42.31406" lon="-0.62395">
        <ele>800.91</ele>
        <time>2021-08-03T13:20:27Z</time>
      </trkpt>
      <trkpt lat="42.31412" lon="-0.62392">
        <ele>801</ele>
        <time>2021-08-03T13:20:28Z</time>
      </trkpt>
      <trkpt lat="42.31419" lon="-0.6239">
        <ele>801.15</ele>
        <time>2021-08-03T13:20:29Z</time>
      </trkpt>
      <trkpt lat="42.31471" lon="-0.62372">
        <ele>802.28</ele>
        <time>2021-08-03T13:20:35Z</time>
      </trkpt>
      <trkpt lat="42.31501" lon="-0.62378">
        <ele>802.98</ele>
        <time>2021-08-03T13:20:39Z</time>
      </trkpt>
      <trkpt lat="42.31535" lon="-0.62388">
        <ele>803.83</ele>
        <time>2021-08-03T13:20:44Z</time>
      </trkpt>
      <trkpt lat="42.3159" lon="-0.62366">
        <ele>805.66</ele>
        <time>2021-08-03T13:20:53Z</time>
      </trkpt>
      <trkpt lat="42.31603" lon="-0.62358">
        <ele>807.2</ele>
        <time>2021-08-03T13:21:00Z</time>
      </trkpt>
      <trkpt lat="42.31605" lon="-0.62357">
        <ele>807.93</ele>
        <time>2021-08-03T13:21:22Z</time>
      </trkpt>
      <trkpt lat="42.31602" lon="-0.62355">
        <ele>807.76</ele>
        <time>2021-08-03T13:21:33Z</time>
      </trkpt>
      <trkpt lat="42.31603" lon="-0.62341">
        <ele>808.23</ele>
        <time>2021-08-03T13:21:50Z</time>
      </trkpt>
      <trkpt lat="42.31602" lon="-0.6235">
        <ele>808.27</ele>
        <time>2021-08-03T13:22:08Z</time>
      </trkpt>
      <trkpt lat="42.31602" lon="-0.62356">
        <ele>808.15</ele>
        <time>2021-08-03T13:22:10Z</time>
      </trkpt>
      <trkpt lat="42.31589" lon="-0.62368">
        <ele>808.12</ele>
        <time>2021-08-03T13:22:14Z</time>
      </trkpt>
      <trkpt lat="42.31546" lon="-0.62389">
        <ele>808.26</ele>
        <time>2021-08-03T13:22:21Z</time>
      </trkpt>
      <trkpt lat="42.31477" lon="-0.62373">
        <ele>807.08</ele>
        <time>2021-08-03T13:22:29Z</time>
      </trkpt>
      <trkpt lat="42.31397" lon="-0.624">
        <ele>805.25</ele>
        <time>2021-08-03T13:22:38Z</time>
      </trkpt>
      <trkpt lat="42.31392" lon="-0.62405">
        <ele>805.04</ele>
        <time>2021-08-03T13:22:39Z</time>
      </trkpt>
      <trkpt lat="42.31388" lon="-0.62411">
        <ele>804.76</ele>
        <time>2021-08-03T13:22:40Z</time>
      </trkpt>
      <trkpt lat="42.31387" lon="-0.62416">
        <ele>804.49</ele>
        <time>2021-08-03T13:22:41Z</time>
      </trkpt>
      <trkpt lat="42.31385" lon="-0.62422">
        <ele>804.2</ele>
        <time>2021-08-03T13:22:42Z</time>
      </trkpt>
      <trkpt lat="42.31384" lon="-0.62426">
        <ele>803.88</ele>
        <time>2021-08-03T13:22:43Z</time>
      </trkpt>
      <trkpt lat="42.31382" lon="-0.62438">
        <ele>802.29</ele>
        <time>2021-08-03T13:22:50Z</time>
      </trkpt>
      <trkpt lat="42.31353" lon="-0.62434">
        <ele>800.96</ele>
        <time>2021-08-03T13:22:58Z</time>
      </trkpt>
      <trkpt lat="42.31286" lon="-0.62408">
        <ele>801.31</ele>
        <time>2021-08-03T13:23:04Z</time>
      </trkpt>
      <trkpt lat="42.3121" lon="-0.62386">
        <ele>800.59</ele>
        <time>2021-08-03T13:23:10Z</time>
      </trkpt>
      <trkpt lat="42.31185" lon="-0.6239">
        <ele>796.42</ele>
        <time>2021-08-03T13:23:16Z</time>
      </trkpt>
      <trkpt lat="42.31188" lon="-0.62411">
        <ele>792.66</ele>
        <time>2021-08-03T13:23:22Z</time>
      </trkpt>
      <trkpt lat="42.31193" lon="-0.62417">
        <ele>792.3</ele>
        <time>2021-08-03T13:23:23Z</time>
      </trkpt>
      <trkpt lat="42.31279" lon="-0.62525">
        <ele>790.92</ele>
        <time>2021-08-03T13:23:33Z</time>
      </trkpt>
      <trkpt lat="42.31302" lon="-0.62578">
        <ele>789.93</ele>
        <time>2021-08-03T13:23:37Z</time>
      </trkpt>
      <trkpt lat="42.31361" lon="-0.62758">
        <ele>786.95</ele>
        <time>2021-08-03T13:23:48Z</time>
      </trkpt>
      <trkpt lat="42.31368" lon="-0.62775">
        <ele>786.49</ele>
        <time>2021-08-03T13:23:49Z</time>
      </trkpt>
      <trkpt lat="42.31368" lon="-0.62865">
        <ele>783.61</ele>
        <time>2021-08-03T13:23:54Z</time>
      </trkpt>
      <trkpt lat="42.31315" lon="-0.62991">
        <ele>779.77</ele>
        <time>2021-08-03T13:24:00Z</time>
      </trkpt>
      <trkpt lat="42.31215" lon="-0.63251">
        <ele>777.12</ele>
        <time>2021-08-03T13:24:10Z</time>
      </trkpt>
      <trkpt lat="42.31114" lon="-0.63513">
        <ele>774</ele>
        <time>2021-08-03T13:24:19Z</time>
      </trkpt>
      <trkpt lat="42.31021" lon="-0.63755">
        <ele>770.82</ele>
        <time>2021-08-03T13:24:27Z</time>
      </trkpt>
      <trkpt lat="42.3095" lon="-0.63936">
        <ele>767.46</ele>
        <time>2021-08-03T13:24:33Z</time>
      </trkpt>
      <trkpt lat="42.309" lon="-0.64067">
        <ele>763.77</ele>
        <time>2021-08-03T13:24:38Z</time>
      </trkpt>
      <trkpt lat="42.30877" lon="-0.64128">
        <ele>760.42</ele>
        <time>2021-08-03T13:24:41Z</time>
      </trkpt>
      <trkpt lat="42.3083" lon="-0.64174">
        <ele>756.29</ele>
        <time>2021-08-03T13:24:45Z</time>
      </trkpt>
      <trkpt lat="42.3077" lon="-0.64207">
        <ele>753.73</ele>
        <time>2021-08-03T13:24:49Z</time>
      </trkpt>
      <trkpt lat="42.30621" lon="-0.64329">
        <ele>757</ele>
        <time>2021-08-03T13:24:58Z</time>
      </trkpt>
      <trkpt lat="42.30548" lon="-0.64386">
        <ele>760.03</ele>
        <time>2021-08-03T13:25:04Z</time>
      </trkpt>
      <trkpt lat="42.30429" lon="-0.64457">
        <ele>760.41</ele>
        <time>2021-08-03T13:25:11Z</time>
      </trkpt>
      <trkpt lat="42.30304" lon="-0.64539">
        <ele>758.16</ele>
        <time>2021-08-03T13:25:18Z</time>
      </trkpt>
      <trkpt lat="42.3029" lon="-0.64554">
        <ele>757.1</ele>
        <time>2021-08-03T13:25:19Z</time>
      </trkpt>
      <trkpt lat="42.30264" lon="-0.64616">
        <ele>753.73</ele>
        <time>2021-08-03T13:25:22Z</time>
      </trkpt>
      <trkpt lat="42.3024" lon="-0.64709">
        <ele>750</ele>
        <time>2021-08-03T13:25:26Z</time>
      </trkpt>
      <trkpt lat="42.30197" lon="-0.64792">
        <ele>747.51</ele>
        <time>2021-08-03T13:25:30Z</time>
      </trkpt>
      <trkpt lat="42.30102" lon="-0.64905">
        <ele>743.88</ele>
        <time>2021-08-03T13:25:36Z</time>
      </trkpt>
      <trkpt lat="42.30018" lon="-0.65002">
        <ele>740.39</ele>
        <time>2021-08-03T13:25:41Z</time>
      </trkpt>
      <trkpt lat="42.29967" lon="-0.65062">
        <ele>737.29</ele>
        <time>2021-08-03T13:25:44Z</time>
      </trkpt>
      <trkpt lat="42.29933" lon="-0.65102">
        <ele>735.46</ele>
        <time>2021-08-03T13:25:46Z</time>
      </trkpt>
      <trkpt lat="42.29934" lon="-0.65115">
        <ele>706.34</ele>
        <time>2021-08-03T14:05:08Z</time>
      </trkpt>
      <trkpt lat="42.29949" lon="-0.65136">
        <ele>707.55</ele>
        <time>2021-08-03T14:05:11Z</time>
      </trkpt>
      <trkpt lat="42.3001" lon="-0.65263">
        <ele>709.2</ele>
        <time>2021-08-03T14:05:20Z</time>
      </trkpt>
      <trkpt lat="42.30105" lon="-0.65452">
        <ele>710.29</ele>
        <time>2021-08-03T14:05:31Z</time>
      </trkpt>
      <trkpt lat="42.30205" lon="-0.65658">
        <ele>710.05</ele>
        <time>2021-08-03T14:05:42Z</time>
      </trkpt>
      <trkpt lat="42.30303" lon="-0.65864">
        <ele>708.73</ele>
        <time>2021-08-03T14:05:52Z</time>
      </trkpt>
      <trkpt lat="42.30465" lon="-0.6625">
        <ele>706.5</ele>
        <time>2021-08-03T14:06:09Z</time>
      </trkpt>
      <trkpt lat="42.30588" lon="-0.66561">
        <ele>704.22</ele>
        <time>2021-08-03T14:06:22Z</time>
      </trkpt>
      <trkpt lat="42.30601" lon="-0.66679">
        <ele>703.59</ele>
        <time>2021-08-03T14:06:27Z</time>
      </trkpt>
      <trkpt lat="42.30633" lon="-0.66755">
        <ele>703.5</ele>
        <time>2021-08-03T14:06:33Z</time>
      </trkpt>
      <trkpt lat="42.30639" lon="-0.6676">
        <ele>703.52</ele>
        <time>2021-08-03T14:06:34Z</time>
      </trkpt>
      <trkpt lat="42.30644" lon="-0.66764">
        <ele>703.55</ele>
        <time>2021-08-03T14:06:35Z</time>
      </trkpt>
      <trkpt lat="42.30647" lon="-0.66794">
        <ele>704.26</ele>
        <time>2021-08-03T14:06:39Z</time>
      </trkpt>
      <trkpt lat="42.30636" lon="-0.66979">
        <ele>704.75</ele>
        <time>2021-08-03T14:06:49Z</time>
      </trkpt>
      <trkpt lat="42.3063" lon="-0.67165">
        <ele>701.75</ele>
        <time>2021-08-03T14:06:57Z</time>
      </trkpt>
      <trkpt lat="42.30649" lon="-0.67347">
        <ele>700.8</ele>
        <time>2021-08-03T14:07:05Z</time>
      </trkpt>
      <trkpt lat="42.30719" lon="-0.67612">
        <ele>700.52</ele>
        <time>2021-08-03T14:07:17Z</time>
      </trkpt>
      <trkpt lat="42.30732" lon="-0.6778">
        <ele>702.07</ele>
        <time>2021-08-03T14:07:25Z</time>
      </trkpt>
      <trkpt lat="42.30742" lon="-0.67938">
        <ele>705.57</ele>
        <time>2021-08-03T14:07:33Z</time>
      </trkpt>
      <trkpt lat="42.30753" lon="-0.68022">
        <ele>707.55</ele>
        <time>2021-08-03T14:07:37Z</time>
      </trkpt>
      <trkpt lat="42.308" lon="-0.68139">
        <ele>711.49</ele>
        <time>2021-08-03T14:07:43Z</time>
      </trkpt>
      <trkpt lat="42.30836" lon="-0.68215">
        <ele>714.58</ele>
        <time>2021-08-03T14:07:47Z</time>
      </trkpt>
      <trkpt lat="42.30871" lon="-0.68291">
        <ele>717.75</ele>
        <time>2021-08-03T14:07:51Z</time>
      </trkpt>
      <trkpt lat="42.30905" lon="-0.68399">
        <ele>720.94</ele>
        <time>2021-08-03T14:07:56Z</time>
      </trkpt>
      <trkpt lat="42.30955" lon="-0.68552">
        <ele>724.17</ele>
        <time>2021-08-03T14:08:03Z</time>
      </trkpt>
      <trkpt lat="42.31036" lon="-0.68671">
        <ele>727.42</ele>
        <time>2021-08-03T14:08:10Z</time>
      </trkpt>
      <trkpt lat="42.31097" lon="-0.68753">
        <ele>730.76</ele>
        <time>2021-08-03T14:08:15Z</time>
      </trkpt>
      <trkpt lat="42.31157" lon="-0.68834">
        <ele>734.06</ele>
        <time>2021-08-03T14:08:20Z</time>
      </trkpt>
      <trkpt lat="42.31199" lon="-0.68896">
        <ele>737.47</ele>
        <time>2021-08-03T14:08:24Z</time>
      </trkpt>
      <trkpt lat="42.31223" lon="-0.68951">
        <ele>740.52</ele>
        <time>2021-08-03T14:08:27Z</time>
      </trkpt>
      <trkpt lat="42.31242" lon="-0.69036">
        <ele>744.28</ele>
        <time>2021-08-03T14:08:31Z</time>
      </trkpt>
      <trkpt lat="42.31257" lon="-0.69122">
        <ele>747.38</ele>
        <time>2021-08-03T14:08:35Z</time>
      </trkpt>
      <trkpt lat="42.31279" lon="-0.69206">
        <ele>749.17</ele>
        <time>2021-08-03T14:08:39Z</time>
      </trkpt>
      <trkpt lat="42.31365" lon="-0.69333">
        <ele>749.48</ele>
        <time>2021-08-03T14:08:47Z</time>
      </trkpt>
      <trkpt lat="42.31422" lon="-0.69364">
        <ele>749.11</ele>
        <time>2021-08-03T14:08:51Z</time>
      </trkpt>
      <trkpt lat="42.31571" lon="-0.69403">
        <ele>748.86</ele>
        <time>2021-08-03T14:09:02Z</time>
      </trkpt>
      <trkpt lat="42.31629" lon="-0.69475">
        <ele>752.03</ele>
        <time>2021-08-03T14:09:09Z</time>
      </trkpt>
      <trkpt lat="42.31638" lon="-0.69482">
        <ele>752.74</ele>
        <time>2021-08-03T14:09:10Z</time>
      </trkpt>
      <trkpt lat="42.31666" lon="-0.69527">
        <ele>757.47</ele>
        <time>2021-08-03T14:09:17Z</time>
      </trkpt>
      <trkpt lat="42.31667" lon="-0.69553">
        <ele>759.02</ele>
        <time>2021-08-03T14:09:20Z</time>
      </trkpt>
      <trkpt lat="42.31672" lon="-0.69609">
        <ele>762.65</ele>
        <time>2021-08-03T14:09:27Z</time>
      </trkpt>
      <trkpt lat="42.31676" lon="-0.69626">
        <ele>764.84</ele>
        <time>2021-08-03T14:09:33Z</time>
      </trkpt>
      <trkpt lat="42.31666" lon="-0.69657">
        <ele>765.91</ele>
        <time>2021-08-03T14:09:43Z</time>
      </trkpt>
      <trkpt lat="42.31682" lon="-0.69693">
        <ele>765.18</ele>
        <time>2021-08-03T14:09:54Z</time>
      </trkpt>
      <trkpt lat="42.31693" lon="-0.69706">
        <ele>765</ele>
        <time>2021-08-03T14:10:02Z</time>
      </trkpt>
      <trkpt lat="42.31695" lon="-0.69708">
        <ele>764.93</ele>
        <time>2021-08-03T14:10:06Z</time>
      </trkpt>
      <trkpt lat="42.31738" lon="-0.69733">
        <ele>765.11</ele>
        <time>2021-08-03T14:10:13Z</time>
      </trkpt>
      <trkpt lat="42.31774" lon="-0.69777">
        <ele>765.21</ele>
        <time>2021-08-03T14:10:18Z</time>
      </trkpt>
      <trkpt lat="42.31824" lon="-0.69901">
        <ele>767.3</ele>
        <time>2021-08-03T14:10:29Z</time>
      </trkpt>
      <trkpt lat="42.31842" lon="-0.69954">
        <ele>765.42</ele>
        <time>2021-08-03T14:10:34Z</time>
      </trkpt>
      <trkpt lat="42.3185" lon="-0.70025">
        <ele>761.26</ele>
        <time>2021-08-03T14:10:40Z</time>
      </trkpt>
      <trkpt lat="42.31859" lon="-0.7006">
        <ele>758.15</ele>
        <time>2021-08-03T14:10:43Z</time>
      </trkpt>
      <trkpt lat="42.31866" lon="-0.70085">
        <ele>755.7</ele>
        <time>2021-08-03T14:10:45Z</time>
      </trkpt>
      <trkpt lat="42.31891" lon="-0.70115">
        <ele>750.71</ele>
        <time>2021-08-03T14:10:49Z</time>
      </trkpt>
      <trkpt lat="42.31899" lon="-0.70114">
        <ele>749.67</ele>
        <time>2021-08-03T14:10:50Z</time>
      </trkpt>
      <trkpt lat="42.31938" lon="-0.70145">
        <ele>744.72</ele>
        <time>2021-08-03T14:10:56Z</time>
      </trkpt>
      <trkpt lat="42.31945" lon="-0.70156">
        <ele>743.94</ele>
        <time>2021-08-03T14:10:57Z</time>
      </trkpt>
      <trkpt lat="42.31969" lon="-0.70188">
        <ele>741.69</ele>
        <time>2021-08-03T14:11:00Z</time>
      </trkpt>
      <trkpt lat="42.32016" lon="-0.70221">
        <ele>737.92</ele>
        <time>2021-08-03T14:11:05Z</time>
      </trkpt>
      <trkpt lat="42.32053" lon="-0.70244">
        <ele>735.96</ele>
        <time>2021-08-03T14:11:09Z</time>
      </trkpt>
      <trkpt lat="42.321" lon="-0.70255">
        <ele>735.37</ele>
        <time>2021-08-03T14:11:14Z</time>
      </trkpt>
      <trkpt lat="42.32179" lon="-0.7031">
        <ele>732.26</ele>
        <time>2021-08-03T14:11:24Z</time>
      </trkpt>
      <trkpt lat="42.32199" lon="-0.70334">
        <ele>730.58</ele>
        <time>2021-08-03T14:11:27Z</time>
      </trkpt>
      <trkpt lat="42.32203" lon="-0.70344">
        <ele>730.28</ele>
        <time>2021-08-03T14:11:28Z</time>
      </trkpt>
      <trkpt lat="42.32205" lon="-0.70354">
        <ele>730.13</ele>
        <time>2021-08-03T14:11:29Z</time>
      </trkpt>
      <trkpt lat="42.32205" lon="-0.70378">
        <ele>730.03</ele>
        <time>2021-08-03T14:11:31Z</time>
      </trkpt>
      <trkpt lat="42.32204" lon="-0.70402">
        <ele>730.14</ele>
        <time>2021-08-03T14:11:33Z</time>
      </trkpt>
      <trkpt lat="42.32209" lon="-0.70449">
        <ele>730.91</ele>
        <time>2021-08-03T14:11:37Z</time>
      </trkpt>
      <trkpt lat="42.32203" lon="-0.70493">
        <ele>731.78</ele>
        <time>2021-08-03T14:11:41Z</time>
      </trkpt>
      <trkpt lat="42.32151" lon="-0.70614">
        <ele>731.98</ele>
        <time>2021-08-03T14:11:51Z</time>
      </trkpt>
      <trkpt lat="42.32121" lon="-0.7065">
        <ele>731.55</ele>
        <time>2021-08-03T14:11:55Z</time>
      </trkpt>
      <trkpt lat="42.32059" lon="-0.70706">
        <ele>729.14</ele>
        <time>2021-08-03T14:12:02Z</time>
      </trkpt>
      <trkpt lat="42.32015" lon="-0.70797">
        <ele>725.06</ele>
        <time>2021-08-03T14:12:09Z</time>
      </trkpt>
      <trkpt lat="42.31994" lon="-0.70843">
        <ele>721.67</ele>
        <time>2021-08-03T14:12:13Z</time>
      </trkpt>
      <trkpt lat="42.31976" lon="-0.70888">
        <ele>718.09</ele>
        <time>2021-08-03T14:12:17Z</time>
      </trkpt>
      <trkpt lat="42.31956" lon="-0.70937">
        <ele>714.59</ele>
        <time>2021-08-03T14:12:21Z</time>
      </trkpt>
      <trkpt lat="42.31935" lon="-0.70993">
        <ele>711.5</ele>
        <time>2021-08-03T14:12:25Z</time>
      </trkpt>
      <trkpt lat="42.31916" lon="-0.71053">
        <ele>708.37</ele>
        <time>2021-08-03T14:12:29Z</time>
      </trkpt>
      <trkpt lat="42.31895" lon="-0.71112">
        <ele>704.86</ele>
        <time>2021-08-03T14:12:33Z</time>
      </trkpt>
      <trkpt lat="42.31855" lon="-0.7117">
        <ele>700.54</ele>
        <time>2021-08-03T14:12:38Z</time>
      </trkpt>
      <trkpt lat="42.31825" lon="-0.71214">
        <ele>697.25</ele>
        <time>2021-08-03T14:12:42Z</time>
      </trkpt>
      <trkpt lat="42.31806" lon="-0.71249">
        <ele>694.43</ele>
        <time>2021-08-03T14:12:45Z</time>
      </trkpt>
      <trkpt lat="42.31767" lon="-0.71256">
        <ele>690.09</ele>
        <time>2021-08-03T14:12:50Z</time>
      </trkpt>
      <trkpt lat="42.31759" lon="-0.71247">
        <ele>689.42</ele>
        <time>2021-08-03T14:12:51Z</time>
      </trkpt>
      <trkpt lat="42.31716" lon="-0.71181">
        <ele>685.24</ele>
        <time>2021-08-03T14:12:57Z</time>
      </trkpt>
      <trkpt lat="42.31708" lon="-0.71141">
        <ele>681.2</ele>
        <time>2021-08-03T14:13:02Z</time>
      </trkpt>
      <trkpt lat="42.31697" lon="-0.7114">
        <ele>678.17</ele>
        <time>2021-08-03T14:13:06Z</time>
      </trkpt>
      <trkpt lat="42.31698" lon="-0.71157">
        <ele>676.82</ele>
        <time>2021-08-03T14:13:08Z</time>
      </trkpt>
      <trkpt lat="42.31713" lon="-0.71261">
        <ele>673.1</ele>
        <time>2021-08-03T14:13:16Z</time>
      </trkpt>
      <trkpt lat="42.31739" lon="-0.7135">
        <ele>669.77</ele>
        <time>2021-08-03T14:13:23Z</time>
      </trkpt>
      <trkpt lat="42.31759" lon="-0.71388">
        <ele>667.29</ele>
        <time>2021-08-03T14:13:27Z</time>
      </trkpt>
      <trkpt lat="42.31787" lon="-0.71422">
        <ele>662.6</ele>
        <time>2021-08-03T14:13:33Z</time>
      </trkpt>
      <trkpt lat="42.31789" lon="-0.71438">
        <ele>660.88</ele>
        <time>2021-08-03T14:13:35Z</time>
      </trkpt>
      <trkpt lat="42.3179" lon="-0.71452">
        <ele>659.49</ele>
        <time>2021-08-03T14:13:37Z</time>
      </trkpt>
      <trkpt lat="42.31808" lon="-0.71498">
        <ele>656.35</ele>
        <time>2021-08-03T14:13:43Z</time>
      </trkpt>
      <trkpt lat="42.31825" lon="-0.71518">
        <ele>654.98</ele>
        <time>2021-08-03T14:13:46Z</time>
      </trkpt>
      <trkpt lat="42.31834" lon="-0.71555">
        <ele>652.04</ele>
        <time>2021-08-03T14:13:51Z</time>
      </trkpt>
      <trkpt lat="42.31834" lon="-0.71594">
        <ele>649.63</ele>
        <time>2021-08-03T14:13:56Z</time>
      </trkpt>
      <trkpt lat="42.3184" lon="-0.71661">
        <ele>645.92</ele>
        <time>2021-08-03T14:14:03Z</time>
      </trkpt>
      <trkpt lat="42.31846" lon="-0.71711">
        <ele>642.84</ele>
        <time>2021-08-03T14:14:08Z</time>
      </trkpt>
      <trkpt lat="42.31852" lon="-0.71763">
        <ele>638.96</ele>
        <time>2021-08-03T14:14:14Z</time>
      </trkpt>
      <trkpt lat="42.3185" lon="-0.71816">
        <ele>636.5</ele>
        <time>2021-08-03T14:14:22Z</time>
      </trkpt>
      <trkpt lat="42.31836" lon="-0.71846">
        <ele>636.3</ele>
        <time>2021-08-03T14:14:26Z</time>
      </trkpt>
      <trkpt lat="42.31826" lon="-0.71914">
        <ele>636.23</ele>
        <time>2021-08-03T14:14:35Z</time>
      </trkpt>
      <trkpt lat="42.31814" lon="-0.72021">
        <ele>635.86</ele>
        <time>2021-08-03T14:14:46Z</time>
      </trkpt>
      <trkpt lat="42.31803" lon="-0.72099">
        <ele>636.76</ele>
        <time>2021-08-03T14:14:54Z</time>
      </trkpt>
      <trkpt lat="42.31795" lon="-0.72125">
        <ele>637.38</ele>
        <time>2021-08-03T14:14:57Z</time>
      </trkpt>
      <trkpt lat="42.31769" lon="-0.72266">
        <ele>637.23</ele>
        <time>2021-08-03T14:15:09Z</time>
      </trkpt>
      <trkpt lat="42.31768" lon="-0.72277">
        <ele>636.98</ele>
        <time>2021-08-03T14:15:10Z</time>
      </trkpt>
      <trkpt lat="42.31757" lon="-0.72345">
        <ele>636.55</ele>
        <time>2021-08-03T14:15:16Z</time>
      </trkpt>
      <trkpt lat="42.31764" lon="-0.72386">
        <ele>635.86</ele>
        <time>2021-08-03T14:15:20Z</time>
      </trkpt>
      <trkpt lat="42.31774" lon="-0.72425">
        <ele>634.87</ele>
        <time>2021-08-03T14:15:24Z</time>
      </trkpt>
      <trkpt lat="42.31764" lon="-0.72525">
        <ele>631.11</ele>
        <time>2021-08-03T14:15:34Z</time>
      </trkpt>
      <trkpt lat="42.31765" lon="-0.7257">
        <ele>628.88</ele>
        <time>2021-08-03T14:15:39Z</time>
      </trkpt>
      <trkpt lat="42.31771" lon="-0.72598">
        <ele>627.31</ele>
        <time>2021-08-03T14:15:43Z</time>
      </trkpt>
      <trkpt lat="42.31776" lon="-0.72608">
        <ele>626.55</ele>
        <time>2021-08-03T14:15:45Z</time>
      </trkpt>
      <trkpt lat="42.31783" lon="-0.72642">
        <ele>625.11</ele>
        <time>2021-08-03T14:15:50Z</time>
      </trkpt>
      <trkpt lat="42.31788" lon="-0.72669">
        <ele>624.21</ele>
        <time>2021-08-03T14:15:54Z</time>
      </trkpt>
      <trkpt lat="42.31796" lon="-0.72689">
        <ele>622.39</ele>
        <time>2021-08-03T14:16:02Z</time>
      </trkpt>
      <trkpt lat="42.31805" lon="-0.72705">
        <ele>621.35</ele>
        <time>2021-08-03T14:16:25Z</time>
      </trkpt>
      <trkpt lat="42.31806" lon="-0.72781">
        <ele>621.47</ele>
        <time>2021-08-03T14:16:32Z</time>
      </trkpt>
      <trkpt lat="42.31764" lon="-0.72833">
        <ele>621.15</ele>
        <time>2021-08-03T14:16:38Z</time>
      </trkpt>
      <trkpt lat="42.31752" lon="-0.72836">
        <ele>620.9</ele>
        <time>2021-08-03T14:16:39Z</time>
      </trkpt>
      <trkpt lat="42.31649" lon="-0.72857">
        <ele>617.59</ele>
        <time>2021-08-03T14:16:47Z</time>
      </trkpt>
      <trkpt lat="42.31613" lon="-0.72865">
        <ele>616.51</ele>
        <time>2021-08-03T14:16:50Z</time>
      </trkpt>
      <trkpt lat="42.31572" lon="-0.72924">
        <ele>614.3</ele>
        <time>2021-08-03T14:16:56Z</time>
      </trkpt>
      <trkpt lat="42.31551" lon="-0.73011">
        <ele>611.54</ele>
        <time>2021-08-03T14:17:02Z</time>
      </trkpt>
      <trkpt lat="42.31549" lon="-0.73094">
        <ele>608.47</ele>
        <time>2021-08-03T14:17:07Z</time>
      </trkpt>
      <trkpt lat="42.31561" lon="-0.7317">
        <ele>605.03</ele>
        <time>2021-08-03T14:17:12Z</time>
      </trkpt>
      <trkpt lat="42.31544" lon="-0.73237">
        <ele>602.05</ele>
        <time>2021-08-03T14:17:17Z</time>
      </trkpt>
      <trkpt lat="42.31519" lon="-0.73295">
        <ele>600.34</ele>
        <time>2021-08-03T14:17:21Z</time>
      </trkpt>
      <trkpt lat="42.31497" lon="-0.73436">
        <ele>597.55</ele>
        <time>2021-08-03T14:17:29Z</time>
      </trkpt>
      <trkpt lat="42.31504" lon="-0.7355">
        <ele>593.9</ele>
        <time>2021-08-03T14:17:36Z</time>
      </trkpt>
      <trkpt lat="42.31515" lon="-0.73655">
        <ele>590.78</ele>
        <time>2021-08-03T14:17:42Z</time>
      </trkpt>
      <trkpt lat="42.31523" lon="-0.73814">
        <ele>587.61</ele>
        <time>2021-08-03T14:17:50Z</time>
      </trkpt>
      <trkpt lat="42.31516" lon="-0.73961">
        <ele>584.61</ele>
        <time>2021-08-03T14:17:57Z</time>
      </trkpt>
      <trkpt lat="42.31508" lon="-0.74093">
        <ele>581.15</ele>
        <time>2021-08-03T14:18:03Z</time>
      </trkpt>
      <trkpt lat="42.31505" lon="-0.74136">
        <ele>578.71</ele>
        <time>2021-08-03T14:18:05Z</time>
      </trkpt>
      <trkpt lat="42.31524" lon="-0.74214">
        <ele>575.08</ele>
        <time>2021-08-03T14:18:09Z</time>
      </trkpt>
      <trkpt lat="42.31553" lon="-0.74288">
        <ele>571.44</ele>
        <time>2021-08-03T14:18:13Z</time>
      </trkpt>
      <trkpt lat="42.31583" lon="-0.74359">
        <ele>568.36</ele>
        <time>2021-08-03T14:18:17Z</time>
      </trkpt>
      <trkpt lat="42.31605" lon="-0.7441">
        <ele>566.47</ele>
        <time>2021-08-03T14:18:20Z</time>
      </trkpt>
      <trkpt lat="42.31614" lon="-0.74481">
        <ele>564.01</ele>
        <time>2021-08-03T14:18:24Z</time>
      </trkpt>
      <trkpt lat="42.31617" lon="-0.74591">
        <ele>560.28</ele>
        <time>2021-08-03T14:18:29Z</time>
      </trkpt>
      <trkpt lat="42.31615" lon="-0.7467">
        <ele>556.66</ele>
        <time>2021-08-03T14:18:33Z</time>
      </trkpt>
      <trkpt lat="42.31597" lon="-0.7473">
        <ele>552.5</ele>
        <time>2021-08-03T14:18:37Z</time>
      </trkpt>
      <trkpt lat="42.31565" lon="-0.74758">
        <ele>549.17</ele>
        <time>2021-08-03T14:18:40Z</time>
      </trkpt>
      <trkpt lat="42.31538" lon="-0.74771">
        <ele>547.19</ele>
        <time>2021-08-03T14:18:42Z</time>
      </trkpt>
      <trkpt lat="42.31509" lon="-0.74782">
        <ele>545.34</ele>
        <time>2021-08-03T14:18:44Z</time>
      </trkpt>
      <trkpt lat="42.31465" lon="-0.74848">
        <ele>541.26</ele>
        <time>2021-08-03T14:18:49Z</time>
      </trkpt>
      <trkpt lat="42.31463" lon="-0.74868">
        <ele>540.48</ele>
        <time>2021-08-03T14:18:50Z</time>
      </trkpt>
      <trkpt lat="42.31442" lon="-0.75023">
        <ele>536.69</ele>
        <time>2021-08-03T14:18:57Z</time>
      </trkpt>
      <trkpt lat="42.3142" lon="-0.7519">
        <ele>533.62</ele>
        <time>2021-08-03T14:19:06Z</time>
      </trkpt>
      <trkpt lat="42.31414" lon="-0.75238">
        <ele>531.05</ele>
        <time>2021-08-03T14:19:13Z</time>
      </trkpt>
      <trkpt lat="42.31416" lon="-0.75256">
        <ele>529.63</ele>
        <time>2021-08-03T14:19:22Z</time>
      </trkpt>
      <trkpt lat="42.3142" lon="-0.75262">
        <ele>529.38</ele>
        <time>2021-08-03T14:19:25Z</time>
      </trkpt>
      <trkpt lat="42.31451" lon="-0.75274">
        <ele>529.04</ele>
        <time>2021-08-03T14:19:30Z</time>
      </trkpt>
      <trkpt lat="42.31493" lon="-0.75307">
        <ele>528.9</ele>
        <time>2021-08-03T14:19:34Z</time>
      </trkpt>
      <trkpt lat="42.31568" lon="-0.75348">
        <ele>527.4</ele>
        <time>2021-08-03T14:19:40Z</time>
      </trkpt>
      <trkpt lat="42.31579" lon="-0.75359">
        <ele>526.98</ele>
        <time>2021-08-03T14:19:41Z</time>
      </trkpt>
      <trkpt lat="42.316" lon="-0.7538">
        <ele>525.93</ele>
        <time>2021-08-03T14:19:43Z</time>
      </trkpt>
      <trkpt lat="42.31673" lon="-0.75423">
        <ele>521.87</ele>
        <time>2021-08-03T14:19:49Z</time>
      </trkpt>
      <trkpt lat="42.31698" lon="-0.75468">
        <ele>520.25</ele>
        <time>2021-08-03T14:19:52Z</time>
      </trkpt>
      <trkpt lat="42.31728" lon="-0.75528">
        <ele>517.76</ele>
        <time>2021-08-03T14:19:56Z</time>
      </trkpt>
      <trkpt lat="42.31806" lon="-0.75562">
        <ele>513.38</ele>
        <time>2021-08-03T14:20:02Z</time>
      </trkpt>
      <trkpt lat="42.31916" lon="-0.75553">
        <ele>509.53</ele>
        <time>2021-08-03T14:20:10Z</time>
      </trkpt>
      <trkpt lat="42.31967" lon="-0.75546">
        <ele>508.57</ele>
        <time>2021-08-03T14:20:14Z</time>
      </trkpt>
      <trkpt lat="42.32021" lon="-0.7549">
        <ele>507.3</ele>
        <time>2021-08-03T14:20:21Z</time>
      </trkpt>
      <trkpt lat="42.32023" lon="-0.75481">
        <ele>507.18</ele>
        <time>2021-08-03T14:20:22Z</time>
      </trkpt>
      <trkpt lat="42.32031" lon="-0.75456">
        <ele>506.24</ele>
        <time>2021-08-03T14:20:30Z</time>
      </trkpt>
      <trkpt lat="42.32023" lon="-0.75454">
        <ele>505.71</ele>
        <time>2021-08-03T14:20:57Z</time>
      </trkpt>
      <trkpt lat="42.32021" lon="-0.75456">
        <ele>505.86</ele>
        <time>2021-08-03T14:21:31Z</time>
      </trkpt>
      <trkpt lat="42.32019" lon="-0.75455">
        <ele>505.09</ele>
        <time>2021-08-03T14:22:02Z</time>
      </trkpt>
      <trkpt lat="42.32019" lon="-0.75458">
        <ele>505.18</ele>
        <time>2021-08-03T14:22:09Z</time>
      </trkpt>
      <trkpt lat="42.32022" lon="-0.75456">
        <ele>504.98</ele>
        <time>2021-08-03T14:22:44Z</time>
      </trkpt>
      <trkpt lat="42.32026" lon="-0.75461">
        <ele>505.21</ele>
        <time>2021-08-03T14:22:59Z</time>
      </trkpt>
      <trkpt lat="42.32022" lon="-0.75461">
        <ele>505.86</ele>
        <time>2021-08-03T14:23:20Z</time>
      </trkpt>
      <trkpt lat="42.32022" lon="-0.75461">
        <ele>505.31</ele>
        <time>2021-08-03T14:24:04Z</time>
      </trkpt>
      <trkpt lat="42.3202" lon="-0.7546">
        <ele>506.38</ele>
        <time>2021-08-03T14:24:30Z</time>
      </trkpt>
      <trkpt lat="42.32019" lon="-0.7546">
        <ele>505.44</ele>
        <time>2021-08-03T14:25:17Z</time>
      </trkpt>
      <trkpt lat="42.3202" lon="-0.7546">
        <ele>506.66</ele>
        <time>2021-08-03T14:26:00Z</time>
      </trkpt>
      <trkpt lat="42.32019" lon="-0.7546">
        <ele>505.72</ele>
        <time>2021-08-03T14:26:47Z</time>
      </trkpt>
      <trkpt lat="42.3202" lon="-0.7546">
        <ele>506.3</ele>
        <time>2021-08-03T14:27:42Z</time>
      </trkpt>
      <trkpt lat="42.3202" lon="-0.7546">
        <ele>505.86</ele>
        <time>2021-08-03T14:28:49Z</time>
      </trkpt>
      <trkpt lat="42.32026" lon="-0.75459">
        <ele>504.42</ele>
        <time>2021-08-03T14:29:05Z</time>
      </trkpt>
      <trkpt lat="42.32027" lon="-0.75458">
        <ele>504.6</ele>
        <time>2021-08-03T14:29:49Z</time>
      </trkpt>
      <trkpt lat="42.32027" lon="-0.75458">
        <ele>504.65</ele>
        <time>2021-08-03T14:30:21Z</time>
      </trkpt>
      <trkpt lat="42.32052" lon="-0.75422">
        <ele>504.81</ele>
        <time>2021-08-03T14:30:27Z</time>
      </trkpt>
      <trkpt lat="42.32093" lon="-0.75342">
        <ele>505.49</ele>
        <time>2021-08-03T14:30:33Z</time>
      </trkpt>
      <trkpt lat="42.3215" lon="-0.75316">
        <ele>506.54</ele>
        <time>2021-08-03T14:30:39Z</time>
      </trkpt>
      <trkpt lat="42.32178" lon="-0.7532">
        <ele>507.49</ele>
        <time>2021-08-03T14:30:42Z</time>
      </trkpt>
      <trkpt lat="42.32214" lon="-0.75338">
        <ele>509.22</ele>
        <time>2021-08-03T14:30:46Z</time>
      </trkpt>
      <trkpt lat="42.32233" lon="-0.75407">
        <ele>512.27</ele>
        <time>2021-08-03T14:30:52Z</time>
      </trkpt>
      <trkpt lat="42.32264" lon="-0.75488">
        <ele>515.69</ele>
        <time>2021-08-03T14:30:59Z</time>
      </trkpt>
      <trkpt lat="42.32296" lon="-0.75545">
        <ele>518.64</ele>
        <time>2021-08-03T14:31:04Z</time>
      </trkpt>
      <trkpt lat="42.32303" lon="-0.75574">
        <ele>519.94</ele>
        <time>2021-08-03T14:31:06Z</time>
      </trkpt>
      <trkpt lat="42.32346" lon="-0.7563">
        <ele>522.88</ele>
        <time>2021-08-03T14:31:11Z</time>
      </trkpt>
      <trkpt lat="42.32404" lon="-0.75674">
        <ele>526.31</ele>
        <time>2021-08-03T14:31:17Z</time>
      </trkpt>
      <trkpt lat="42.32463" lon="-0.75669">
        <ele>528.75</ele>
        <time>2021-08-03T14:31:23Z</time>
      </trkpt>
      <trkpt lat="42.32508" lon="-0.7564">
        <ele>530.61</ele>
        <time>2021-08-03T14:31:28Z</time>
      </trkpt>
      <trkpt lat="42.32558" lon="-0.75654">
        <ele>532.24</ele>
        <time>2021-08-03T14:31:34Z</time>
      </trkpt>
      <trkpt lat="42.32579" lon="-0.75674">
        <ele>533.12</ele>
        <time>2021-08-03T14:31:37Z</time>
      </trkpt>
      <trkpt lat="42.32584" lon="-0.7571">
        <ele>534.45</ele>
        <time>2021-08-03T14:31:41Z</time>
      </trkpt>
      <trkpt lat="42.32599" lon="-0.75792">
        <ele>536.64</ele>
        <time>2021-08-03T14:31:47Z</time>
      </trkpt>
      <trkpt lat="42.3269" lon="-0.75911">
        <ele>540.51</ele>
        <time>2021-08-03T14:31:56Z</time>
      </trkpt>
      <trkpt lat="42.32699" lon="-0.75925">
        <ele>541.02</ele>
        <time>2021-08-03T14:31:57Z</time>
      </trkpt>
      <trkpt lat="42.32731" lon="-0.76021">
        <ele>543.75</ele>
        <time>2021-08-03T14:32:03Z</time>
      </trkpt>
      <trkpt lat="42.32741" lon="-0.76035">
        <ele>544.15</ele>
        <time>2021-08-03T14:32:04Z</time>
      </trkpt>
      <trkpt lat="42.32814" lon="-0.76122">
        <ele>548</ele>
        <time>2021-08-03T14:32:11Z</time>
      </trkpt>
      <trkpt lat="42.32875" lon="-0.76191">
        <ele>551.03</ele>
        <time>2021-08-03T14:32:17Z</time>
      </trkpt>
      <trkpt lat="42.32914" lon="-0.76231">
        <ele>553.02</ele>
        <time>2021-08-03T14:32:21Z</time>
      </trkpt>
      <trkpt lat="42.32939" lon="-0.76301">
        <ele>555.19</ele>
        <time>2021-08-03T14:32:26Z</time>
      </trkpt>
      <trkpt lat="42.32951" lon="-0.76354">
        <ele>556.37</ele>
        <time>2021-08-03T14:32:29Z</time>
      </trkpt>
      <trkpt lat="42.33007" lon="-0.76459">
        <ele>559.04</ele>
        <time>2021-08-03T14:32:36Z</time>
      </trkpt>
      <trkpt lat="42.33074" lon="-0.76532">
        <ele>562.54</ele>
        <time>2021-08-03T14:32:43Z</time>
      </trkpt>
      <trkpt lat="42.33109" lon="-0.76602">
        <ele>566.74</ele>
        <time>2021-08-03T14:32:49Z</time>
      </trkpt>
      <trkpt lat="42.33133" lon="-0.76653">
        <ele>568.93</ele>
        <time>2021-08-03T14:32:53Z</time>
      </trkpt>
      <trkpt lat="42.33184" lon="-0.76703">
        <ele>571.62</ele>
        <time>2021-08-03T14:32:58Z</time>
      </trkpt>
      <trkpt lat="42.33211" lon="-0.76719">
        <ele>572.81</ele>
        <time>2021-08-03T14:33:00Z</time>
      </trkpt>
      <trkpt lat="42.33256" lon="-0.7677">
        <ele>575.25</ele>
        <time>2021-08-03T14:33:04Z</time>
      </trkpt>
      <trkpt lat="42.33322" lon="-0.76827">
        <ele>580.1</ele>
        <time>2021-08-03T14:33:09Z</time>
      </trkpt>
      <trkpt lat="42.33351" lon="-0.76868">
        <ele>582.59</ele>
        <time>2021-08-03T14:33:12Z</time>
      </trkpt>
      <trkpt lat="42.33393" lon="-0.76916">
        <ele>585.06</ele>
        <time>2021-08-03T14:33:16Z</time>
      </trkpt>
      <trkpt lat="42.33436" lon="-0.77013">
        <ele>588.31</ele>
        <time>2021-08-03T14:33:22Z</time>
      </trkpt>
      <trkpt lat="42.33469" lon="-0.7706">
        <ele>589.53</ele>
        <time>2021-08-03T14:33:25Z</time>
      </trkpt>
      <trkpt lat="42.33528" lon="-0.77126">
        <ele>592.17</ele>
        <time>2021-08-03T14:33:30Z</time>
      </trkpt>
      <trkpt lat="42.33594" lon="-0.77172">
        <ele>595.1</ele>
        <time>2021-08-03T14:33:35Z</time>
      </trkpt>
      <trkpt lat="42.33629" lon="-0.77227">
        <ele>597.9</ele>
        <time>2021-08-03T14:33:39Z</time>
      </trkpt>
      <trkpt lat="42.3366" lon="-0.77264">
        <ele>599.79</ele>
        <time>2021-08-03T14:33:42Z</time>
      </trkpt>
      <trkpt lat="42.33718" lon="-0.77377">
        <ele>603.44</ele>
        <time>2021-08-03T14:33:49Z</time>
      </trkpt>
      <trkpt lat="42.33745" lon="-0.7743">
        <ele>605.21</ele>
        <time>2021-08-03T14:33:52Z</time>
      </trkpt>
      <trkpt lat="42.33823" lon="-0.77527">
        <ele>608.67</ele>
        <time>2021-08-03T14:33:59Z</time>
      </trkpt>
      <trkpt lat="42.33876" lon="-0.77566">
        <ele>611.19</ele>
        <time>2021-08-03T14:34:04Z</time>
      </trkpt>
      <trkpt lat="42.33891" lon="-0.77612">
        <ele>613.63</ele>
        <time>2021-08-03T14:34:08Z</time>
      </trkpt>
      <trkpt lat="42.33894" lon="-0.7772">
        <ele>617.74</ele>
        <time>2021-08-03T14:34:15Z</time>
      </trkpt>
      <trkpt lat="42.33913" lon="-0.7781">
        <ele>621.52</ele>
        <time>2021-08-03T14:34:20Z</time>
      </trkpt>
      <trkpt lat="42.33918" lon="-0.77827">
        <ele>622.33</ele>
        <time>2021-08-03T14:34:21Z</time>
      </trkpt>
      <trkpt lat="42.33969" lon="-0.77927">
        <ele>626.55</ele>
        <time>2021-08-03T14:34:27Z</time>
      </trkpt>
      <trkpt lat="42.34012" lon="-0.78022">
        <ele>630.28</ele>
        <time>2021-08-03T14:34:32Z</time>
      </trkpt>
      <trkpt lat="42.34061" lon="-0.78091">
        <ele>633.74</ele>
        <time>2021-08-03T14:34:36Z</time>
      </trkpt>
      <trkpt lat="42.34119" lon="-0.78118">
        <ele>636.93</ele>
        <time>2021-08-03T14:34:40Z</time>
      </trkpt>
      <trkpt lat="42.34144" lon="-0.78116">
        <ele>638.48</ele>
        <time>2021-08-03T14:34:42Z</time>
      </trkpt>
      <trkpt lat="42.34175" lon="-0.78143">
        <ele>642.71</ele>
        <time>2021-08-03T14:34:47Z</time>
      </trkpt>
      <trkpt lat="42.34156" lon="-0.78177">
        <ele>644.99</ele>
        <time>2021-08-03T14:34:51Z</time>
      </trkpt>
      <trkpt lat="42.34135" lon="-0.78233">
        <ele>647.37</ele>
        <time>2021-08-03T14:34:57Z</time>
      </trkpt>
      <trkpt lat="42.34139" lon="-0.78243">
        <ele>647.79</ele>
        <time>2021-08-03T14:34:58Z</time>
      </trkpt>
      <trkpt lat="42.34192" lon="-0.78345">
        <ele>651.75</ele>
        <time>2021-08-03T14:35:05Z</time>
      </trkpt>
      <trkpt lat="42.34241" lon="-0.78435">
        <ele>655.26</ele>
        <time>2021-08-03T14:35:10Z</time>
      </trkpt>
      <trkpt lat="42.34293" lon="-0.78492">
        <ele>658.84</ele>
        <time>2021-08-03T14:35:14Z</time>
      </trkpt>
      <trkpt lat="42.34344" lon="-0.78542">
        <ele>662.4</ele>
        <time>2021-08-03T14:35:18Z</time>
      </trkpt>
      <trkpt lat="42.3441" lon="-0.78587">
        <ele>665.91</ele>
        <time>2021-08-03T14:35:23Z</time>
      </trkpt>
      <trkpt lat="42.34491" lon="-0.78632">
        <ele>668.99</ele>
        <time>2021-08-03T14:35:29Z</time>
      </trkpt>
      <trkpt lat="42.34529" lon="-0.78654">
        <ele>670.28</ele>
        <time>2021-08-03T14:35:32Z</time>
      </trkpt>
      <trkpt lat="42.34574" lon="-0.78724">
        <ele>671.61</ele>
        <time>2021-08-03T14:35:37Z</time>
      </trkpt>
      <trkpt lat="42.34671" lon="-0.78882">
        <ele>673.1</ele>
        <time>2021-08-03T14:35:47Z</time>
      </trkpt>
      <trkpt lat="42.34704" lon="-0.78973">
        <ele>673.03</ele>
        <time>2021-08-03T14:35:52Z</time>
      </trkpt>
      <trkpt lat="42.34746" lon="-0.79026">
        <ele>672.79</ele>
        <time>2021-08-03T14:35:56Z</time>
      </trkpt>
      <trkpt lat="42.34822" lon="-0.79086">
        <ele>672.94</ele>
        <time>2021-08-03T14:36:02Z</time>
      </trkpt>
      <trkpt lat="42.34839" lon="-0.79143">
        <ele>674.24</ele>
        <time>2021-08-03T14:36:06Z</time>
      </trkpt>
      <trkpt lat="42.34858" lon="-0.79203">
        <ele>676.24</ele>
        <time>2021-08-03T14:36:10Z</time>
      </trkpt>
      <trkpt lat="42.34867" lon="-0.79297">
        <ele>679.03</ele>
        <time>2021-08-03T14:36:15Z</time>
      </trkpt>
      <trkpt lat="42.34898" lon="-0.79368">
        <ele>681.61</ele>
        <time>2021-08-03T14:36:20Z</time>
      </trkpt>
      <trkpt lat="42.34923" lon="-0.79375">
        <ele>682.7</ele>
        <time>2021-08-03T14:36:22Z</time>
      </trkpt>
      <trkpt lat="42.34959" lon="-0.79354">
        <ele>685.26</ele>
        <time>2021-08-03T14:36:25Z</time>
      </trkpt>
      <trkpt lat="42.34982" lon="-0.79332">
        <ele>686.45</ele>
        <time>2021-08-03T14:36:28Z</time>
      </trkpt>
      <trkpt lat="42.34998" lon="-0.79322">
        <ele>686.82</ele>
        <time>2021-08-03T14:36:31Z</time>
      </trkpt>
      <trkpt lat="42.35007" lon="-0.79316">
        <ele>686.65</ele>
        <time>2021-08-03T14:36:39Z</time>
      </trkpt>
      <trkpt lat="42.35017" lon="-0.79302">
        <ele>686.99</ele>
        <time>2021-08-03T14:37:41Z</time>
      </trkpt>
      <trkpt lat="42.35054" lon="-0.79278">
        <ele>687.21</ele>
        <time>2021-08-03T14:37:46Z</time>
      </trkpt>
      <trkpt lat="42.35073" lon="-0.79271">
        <ele>687.51</ele>
        <time>2021-08-03T14:37:48Z</time>
      </trkpt>
      <trkpt lat="42.3509" lon="-0.79233">
        <ele>687.86</ele>
        <time>2021-08-03T14:37:52Z</time>
      </trkpt>
      <trkpt lat="42.35111" lon="-0.79172">
        <ele>688.19</ele>
        <time>2021-08-03T14:37:59Z</time>
      </trkpt>
      <trkpt lat="42.3514" lon="-0.79189">
        <ele>688.34</ele>
        <time>2021-08-03T14:38:02Z</time>
      </trkpt>
      <trkpt lat="42.35181" lon="-0.79224">
        <ele>689.03</ele>
        <time>2021-08-03T14:38:07Z</time>
      </trkpt>
      <trkpt lat="42.35217" lon="-0.79229">
        <ele>689.8</ele>
        <time>2021-08-03T14:38:11Z</time>
      </trkpt>
      <trkpt lat="42.35237" lon="-0.79223">
        <ele>690.26</ele>
        <time>2021-08-03T14:38:13Z</time>
      </trkpt>
      <trkpt lat="42.35284" lon="-0.79221">
        <ele>691.35</ele>
        <time>2021-08-03T14:38:18Z</time>
      </trkpt>
      <trkpt lat="42.3532" lon="-0.79263">
        <ele>692.12</ele>
        <time>2021-08-03T14:38:24Z</time>
      </trkpt>
      <trkpt lat="42.35323" lon="-0.79289">
        <ele>692.43</ele>
        <time>2021-08-03T14:38:27Z</time>
      </trkpt>
      <trkpt lat="42.35305" lon="-0.79323">
        <ele>693.2</ele>
        <time>2021-08-03T14:38:33Z</time>
      </trkpt>
      <trkpt lat="42.35289" lon="-0.79332">
        <ele>693.96</ele>
        <time>2021-08-03T14:38:36Z</time>
      </trkpt>
      <trkpt lat="42.35279" lon="-0.79349">
        <ele>694.81</ele>
        <time>2021-08-03T14:38:40Z</time>
      </trkpt>
      <trkpt lat="42.35298" lon="-0.79428">
        <ele>697.45</ele>
        <time>2021-08-03T14:38:49Z</time>
      </trkpt>
      <trkpt lat="42.35325" lon="-0.7952">
        <ele>700.61</ele>
        <time>2021-08-03T14:38:56Z</time>
      </trkpt>
      <trkpt lat="42.35366" lon="-0.79557">
        <ele>703.45</ele>
        <time>2021-08-03T14:39:02Z</time>
      </trkpt>
      <trkpt lat="42.35454" lon="-0.7957">
        <ele>705.72</ele>
        <time>2021-08-03T14:39:13Z</time>
      </trkpt>
      <trkpt lat="42.35469" lon="-0.79573">
        <ele>705.36</ele>
        <time>2021-08-03T14:39:15Z</time>
      </trkpt>
      <trkpt lat="42.355" lon="-0.79602">
        <ele>703.53</ele>
        <time>2021-08-03T14:39:21Z</time>
      </trkpt>
      <trkpt lat="42.35527" lon="-0.79653">
        <ele>701.12</ele>
        <time>2021-08-03T14:39:28Z</time>
      </trkpt>
      <trkpt lat="42.35549" lon="-0.79672">
        <ele>698.34</ele>
        <time>2021-08-03T14:39:38Z</time>
      </trkpt>
      <trkpt lat="42.3557" lon="-0.79671">
        <ele>698.02</ele>
        <time>2021-08-03T14:39:42Z</time>
      </trkpt>
      <trkpt lat="42.35583" lon="-0.79667">
        <ele>697.86</ele>
        <time>2021-08-03T14:39:44Z</time>
      </trkpt>
      <trkpt lat="42.35614" lon="-0.79674">
        <ele>697.66</ele>
        <time>2021-08-03T14:39:49Z</time>
      </trkpt>
      <trkpt lat="42.35613" lon="-0.79709">
        <ele>696.95</ele>
        <time>2021-08-03T14:39:55Z</time>
      </trkpt>
      <trkpt lat="42.35592" lon="-0.79758">
        <ele>696.02</ele>
        <time>2021-08-03T14:40:00Z</time>
      </trkpt>
      <trkpt lat="42.3558" lon="-0.79819">
        <ele>694.72</ele>
        <time>2021-08-03T14:40:05Z</time>
      </trkpt>
      <trkpt lat="42.35606" lon="-0.79879">
        <ele>692.32</ele>
        <time>2021-08-03T14:40:12Z</time>
      </trkpt>
      <trkpt lat="42.35611" lon="-0.79887">
        <ele>691.97</ele>
        <time>2021-08-03T14:40:13Z</time>
      </trkpt>
      <trkpt lat="42.3562" lon="-0.79902">
        <ele>691.07</ele>
        <time>2021-08-03T14:40:15Z</time>
      </trkpt>
      <trkpt lat="42.35654" lon="-0.79928">
        <ele>687.85</ele>
        <time>2021-08-03T14:40:21Z</time>
      </trkpt>
      <trkpt lat="42.35666" lon="-0.79933">
        <ele>686.74</ele>
        <time>2021-08-03T14:40:23Z</time>
      </trkpt>
      <trkpt lat="42.35687" lon="-0.79953">
        <ele>683.1</ele>
        <time>2021-08-03T14:40:29Z</time>
      </trkpt>
      <trkpt lat="42.3569" lon="-0.79953">
        <ele>681.95</ele>
        <time>2021-08-03T14:40:31Z</time>
      </trkpt>
      <trkpt lat="42.35694" lon="-0.79953">
        <ele>678.32</ele>
        <time>2021-08-03T14:40:45Z</time>
      </trkpt>
      <trkpt lat="42.35697" lon="-0.79949">
        <ele>677.69</ele>
        <time>2021-08-03T14:40:55Z</time>
      </trkpt>
      <trkpt lat="42.35708" lon="-0.79936">
        <ele>677.59</ele>
        <time>2021-08-03T14:40:59Z</time>
      </trkpt>
      <trkpt lat="42.35732" lon="-0.79912">
        <ele>677.01</ele>
        <time>2021-08-03T14:41:03Z</time>
      </trkpt>
      <trkpt lat="42.35763" lon="-0.79894">
        <ele>676.08</ele>
        <time>2021-08-03T14:41:07Z</time>
      </trkpt>
      <trkpt lat="42.35822" lon="-0.79899">
        <ele>674.85</ele>
        <time>2021-08-03T14:41:14Z</time>
      </trkpt>
      <trkpt lat="42.35852" lon="-0.79918">
        <ele>674.8</ele>
        <time>2021-08-03T14:41:19Z</time>
      </trkpt>
      <trkpt lat="42.35887" lon="-0.7993">
        <ele>674.56</ele>
        <time>2021-08-03T14:41:24Z</time>
      </trkpt>
      <trkpt lat="42.35943" lon="-0.79961">
        <ele>671.98</ele>
        <time>2021-08-03T14:41:34Z</time>
      </trkpt>
      <trkpt lat="42.35938" lon="-0.79994">
        <ele>669.47</ele>
        <time>2021-08-03T14:41:41Z</time>
      </trkpt>
      <trkpt lat="42.35919" lon="-0.8">
        <ele>669.22</ele>
        <time>2021-08-03T14:41:44Z</time>
      </trkpt>
      <trkpt lat="42.35879" lon="-0.80004">
        <ele>671.53</ele>
        <time>2021-08-03T14:41:53Z</time>
      </trkpt>
      <trkpt lat="42.35852" lon="-0.79991">
        <ele>673.45</ele>
        <time>2021-08-03T14:41:58Z</time>
      </trkpt>
      <trkpt lat="42.35825" lon="-0.80004">
        <ele>675.79</ele>
        <time>2021-08-03T14:42:03Z</time>
      </trkpt>
      <trkpt lat="42.35787" lon="-0.80072">
        <ele>679.24</ele>
        <time>2021-08-03T14:42:10Z</time>
      </trkpt>
      <trkpt lat="42.35759" lon="-0.80099">
        <ele>681.09</ele>
        <time>2021-08-03T14:42:14Z</time>
      </trkpt>
      <trkpt lat="42.35713" lon="-0.8012">
        <ele>685.12</ele>
        <time>2021-08-03T14:42:21Z</time>
      </trkpt>
      <trkpt lat="42.35702" lon="-0.80128">
        <ele>688.53</ele>
        <time>2021-08-03T14:42:27Z</time>
      </trkpt>
      <trkpt lat="42.35696" lon="-0.80129">
        <ele>690.16</ele>
        <time>2021-08-03T14:42:33Z</time>
      </trkpt>
      <trkpt lat="42.35666" lon="-0.80123">
        <ele>691.18</ele>
        <time>2021-08-03T14:42:38Z</time>
      </trkpt>
      <trkpt lat="42.35629" lon="-0.80132">
        <ele>691.59</ele>
        <time>2021-08-03T14:42:43Z</time>
      </trkpt>
      <trkpt lat="42.35617" lon="-0.80134">
        <ele>691.66</ele>
        <time>2021-08-03T14:42:45Z</time>
      </trkpt>
      <trkpt lat="42.35605" lon="-0.80153">
        <ele>691.81</ele>
        <time>2021-08-03T14:42:49Z</time>
      </trkpt>
      <trkpt lat="42.35605" lon="-0.80186">
        <ele>691.59</ele>
        <time>2021-08-03T14:42:52Z</time>
      </trkpt>
      <trkpt lat="42.35626" lon="-0.80255">
        <ele>690.95</ele>
        <time>2021-08-03T14:43:00Z</time>
      </trkpt>
      <trkpt lat="42.3564" lon="-0.80259">
        <ele>690.74</ele>
        <time>2021-08-03T14:43:02Z</time>
      </trkpt>
      <trkpt lat="42.35672" lon="-0.80274">
        <ele>690.34</ele>
        <time>2021-08-03T14:43:06Z</time>
      </trkpt>
      <trkpt lat="42.35677" lon="-0.80303">
        <ele>689.87</ele>
        <time>2021-08-03T14:43:12Z</time>
      </trkpt>
      <trkpt lat="42.35671" lon="-0.80306">
        <ele>689.86</ele>
        <time>2021-08-03T14:43:13Z</time>
      </trkpt>
      <trkpt lat="42.35636" lon="-0.80325">
        <ele>690.67</ele>
        <time>2021-08-03T14:43:19Z</time>
      </trkpt>
      <trkpt lat="42.3559" lon="-0.80359">
        <ele>694.29</ele>
        <time>2021-08-03T14:43:26Z</time>
      </trkpt>
      <trkpt lat="42.35564" lon="-0.80371">
        <ele>696.43</ele>
        <time>2021-08-03T14:43:30Z</time>
      </trkpt>
      <trkpt lat="42.35553" lon="-0.80397">
        <ele>699.82</ele>
        <time>2021-08-03T14:43:36Z</time>
      </trkpt>
      <trkpt lat="42.35575" lon="-0.80458">
        <ele>703.18</ele>
        <time>2021-08-03T14:43:46Z</time>
      </trkpt>
      <trkpt lat="42.3559" lon="-0.80501">
        <ele>704.07</ele>
        <time>2021-08-03T14:43:50Z</time>
      </trkpt>
      <trkpt lat="42.35603" lon="-0.80522">
        <ele>704.37</ele>
        <time>2021-08-03T14:43:53Z</time>
      </trkpt>
      <trkpt lat="42.35617" lon="-0.80586">
        <ele>705.53</ele>
        <time>2021-08-03T14:43:59Z</time>
      </trkpt>
      <trkpt lat="42.35635" lon="-0.8072">
        <ele>707.25</ele>
        <time>2021-08-03T14:44:10Z</time>
      </trkpt>
      <trkpt lat="42.35637" lon="-0.80732">
        <ele>707.51</ele>
        <time>2021-08-03T14:44:11Z</time>
      </trkpt>
      <trkpt lat="42.35647" lon="-0.80762">
        <ele>708.19</ele>
        <time>2021-08-03T14:44:14Z</time>
      </trkpt>
      <trkpt lat="42.35654" lon="-0.80853">
        <ele>708.64</ele>
        <time>2021-08-03T14:44:23Z</time>
      </trkpt>
      <trkpt lat="42.35654" lon="-0.80864">
        <ele>708.63</ele>
        <time>2021-08-03T14:44:25Z</time>
      </trkpt>
      <trkpt lat="42.35646" lon="-0.80933">
        <ele>708.35</ele>
        <time>2021-08-03T14:44:32Z</time>
      </trkpt>
      <trkpt lat="42.3565" lon="-0.81027">
        <ele>707.7</ele>
        <time>2021-08-03T14:44:39Z</time>
      </trkpt>
      <trkpt lat="42.35659" lon="-0.81077">
        <ele>707.22</ele>
        <time>2021-08-03T14:44:43Z</time>
      </trkpt>
      <trkpt lat="42.35663" lon="-0.81172">
        <ele>707.43</ele>
        <time>2021-08-03T14:44:52Z</time>
      </trkpt>
      <trkpt lat="42.35662" lon="-0.81184">
        <ele>707.63</ele>
        <time>2021-08-03T14:44:59Z</time>
      </trkpt>
      <trkpt lat="42.35674" lon="-0.81229">
        <ele>707.81</ele>
        <time>2021-08-03T14:45:06Z</time>
      </trkpt>
      <trkpt lat="42.35684" lon="-0.81288">
        <ele>707.12</ele>
        <time>2021-08-03T14:45:13Z</time>
      </trkpt>
      <trkpt lat="42.35677" lon="-0.81314">
        <ele>706.79</ele>
        <time>2021-08-03T14:45:17Z</time>
      </trkpt>
      <trkpt lat="42.35666" lon="-0.81357">
        <ele>705.81</ele>
        <time>2021-08-03T14:45:23Z</time>
      </trkpt>
      <trkpt lat="42.35659" lon="-0.81395">
        <ele>703.54</ele>
        <time>2021-08-03T14:45:29Z</time>
      </trkpt>
      <trkpt lat="42.35672" lon="-0.81455">
        <ele>701.17</ele>
        <time>2021-08-03T14:45:36Z</time>
      </trkpt>
      <trkpt lat="42.35687" lon="-0.8148">
        <ele>699.98</ele>
        <time>2021-08-03T14:45:40Z</time>
      </trkpt>
      <trkpt lat="42.35696" lon="-0.81516">
        <ele>698.2</ele>
        <time>2021-08-03T14:45:46Z</time>
      </trkpt>
      <trkpt lat="42.35694" lon="-0.81548">
        <ele>697.49</ele>
        <time>2021-08-03T14:45:49Z</time>
      </trkpt>
      <trkpt lat="42.35705" lon="-0.81618">
        <ele>696.63</ele>
        <time>2021-08-03T14:45:56Z</time>
      </trkpt>
      <trkpt lat="42.35713" lon="-0.81689">
        <ele>696.06</ele>
        <time>2021-08-03T14:46:03Z</time>
      </trkpt>
      <trkpt lat="42.35711" lon="-0.81713">
        <ele>695.5</ele>
        <time>2021-08-03T14:46:07Z</time>
      </trkpt>
      <trkpt lat="42.35712" lon="-0.81747">
        <ele>694.31</ele>
        <time>2021-08-03T14:46:11Z</time>
      </trkpt>
      <trkpt lat="42.35718" lon="-0.81772">
        <ele>693.39</ele>
        <time>2021-08-03T14:46:15Z</time>
      </trkpt>
      <trkpt lat="42.35729" lon="-0.81827">
        <ele>691.36</ele>
        <time>2021-08-03T14:46:23Z</time>
      </trkpt>
      <trkpt lat="42.35716" lon="-0.81839">
        <ele>689.51</ele>
        <time>2021-08-03T14:46:29Z</time>
      </trkpt>
      <trkpt lat="42.35712" lon="-0.81833">
        <ele>689.23</ele>
        <time>2021-08-03T14:46:30Z</time>
      </trkpt>
      <trkpt lat="42.35684" lon="-0.81799">
        <ele>687.89</ele>
        <time>2021-08-03T14:46:35Z</time>
      </trkpt>
      <trkpt lat="42.35642" lon="-0.81794">
        <ele>684.23</ele>
        <time>2021-08-03T14:46:42Z</time>
      </trkpt>
      <trkpt lat="42.35637" lon="-0.81837">
        <ele>681.28</ele>
        <time>2021-08-03T14:46:47Z</time>
      </trkpt>
      <trkpt lat="42.35648" lon="-0.81864">
        <ele>678.77</ele>
        <time>2021-08-03T14:46:52Z</time>
      </trkpt>
      <trkpt lat="42.35655" lon="-0.81874">
        <ele>678.35</ele>
        <time>2021-08-03T14:46:54Z</time>
      </trkpt>
      <trkpt lat="42.35687" lon="-0.81922">
        <ele>676.59</ele>
        <time>2021-08-03T14:47:02Z</time>
      </trkpt>
      <trkpt lat="42.35697" lon="-0.81947">
        <ele>676.14</ele>
        <time>2021-08-03T14:47:04Z</time>
      </trkpt>
      <trkpt lat="42.35706" lon="-0.81972">
        <ele>675.68</ele>
        <time>2021-08-03T14:47:06Z</time>
      </trkpt>
      <trkpt lat="42.35738" lon="-0.82013">
        <ele>674.19</ele>
        <time>2021-08-03T14:47:11Z</time>
      </trkpt>
      <trkpt lat="42.3576" lon="-0.82032">
        <ele>673.24</ele>
        <time>2021-08-03T14:47:14Z</time>
      </trkpt>
      <trkpt lat="42.35772" lon="-0.82044">
        <ele>671.64</ele>
        <time>2021-08-03T14:47:18Z</time>
      </trkpt>
      <trkpt lat="42.35772" lon="-0.82065">
        <ele>668.38</ele>
        <time>2021-08-03T14:47:30Z</time>
      </trkpt>
      <trkpt lat="42.35764" lon="-0.82073">
        <ele>668.04</ele>
        <time>2021-08-03T14:47:32Z</time>
      </trkpt>
      <trkpt lat="42.35761" lon="-0.82114">
        <ele>666.72</ele>
        <time>2021-08-03T14:47:40Z</time>
      </trkpt>
      <trkpt lat="42.35776" lon="-0.82122">
        <ele>666.09</ele>
        <time>2021-08-03T14:47:44Z</time>
      </trkpt>
      <trkpt lat="42.35789" lon="-0.82123">
        <ele>665.59</ele>
        <time>2021-08-03T14:47:46Z</time>
      </trkpt>
      <trkpt lat="42.35825" lon="-0.82147">
        <ele>661.88</ele>
        <time>2021-08-03T14:47:54Z</time>
      </trkpt>
      <trkpt lat="42.35847" lon="-0.82179">
        <ele>658.74</ele>
        <time>2021-08-03T14:48:00Z</time>
      </trkpt>
      <trkpt lat="42.3585" lon="-0.82198">
        <ele>656.09</ele>
        <time>2021-08-03T14:48:07Z</time>
      </trkpt>
      <trkpt lat="42.35849" lon="-0.82199">
        <ele>655.89</ele>
        <time>2021-08-03T14:48:08Z</time>
      </trkpt>
      <trkpt lat="42.35833" lon="-0.82194">
        <ele>655.47</ele>
        <time>2021-08-03T14:48:14Z</time>
      </trkpt>
      <trkpt lat="42.35823" lon="-0.82185">
        <ele>655.46</ele>
        <time>2021-08-03T14:48:16Z</time>
      </trkpt>
      <trkpt lat="42.35764" lon="-0.82198">
        <ele>658.36</ele>
        <time>2021-08-03T14:48:24Z</time>
      </trkpt>
      <trkpt lat="42.35757" lon="-0.82211">
        <ele>659.8</ele>
        <time>2021-08-03T14:48:26Z</time>
      </trkpt>
      <trkpt lat="42.35746" lon="-0.82232">
        <ele>664.08</ele>
        <time>2021-08-03T14:48:31Z</time>
      </trkpt>
      <trkpt lat="42.35728" lon="-0.8225">
        <ele>667.2</ele>
        <time>2021-08-03T14:48:35Z</time>
      </trkpt>
      <trkpt lat="42.35722" lon="-0.82256">
        <ele>667.89</ele>
        <time>2021-08-03T14:48:36Z</time>
      </trkpt>
      <trkpt lat="42.35716" lon="-0.82299">
        <ele>671.91</ele>
        <time>2021-08-03T14:48:41Z</time>
      </trkpt>
      <trkpt lat="42.35718" lon="-0.82308">
        <ele>672.81</ele>
        <time>2021-08-03T14:48:42Z</time>
      </trkpt>
      <trkpt lat="42.35727" lon="-0.82345">
        <ele>676.27</ele>
        <time>2021-08-03T14:48:46Z</time>
      </trkpt>
      <trkpt lat="42.35726" lon="-0.82385">
        <ele>680.47</ele>
        <time>2021-08-03T14:48:50Z</time>
      </trkpt>
      <trkpt lat="42.35726" lon="-0.8243">
        <ele>684.01</ele>
        <time>2021-08-03T14:48:54Z</time>
      </trkpt>
      <trkpt lat="42.35727" lon="-0.82477">
        <ele>687.9</ele>
        <time>2021-08-03T14:48:58Z</time>
      </trkpt>
      <trkpt lat="42.35732" lon="-0.82525">
        <ele>691.89</ele>
        <time>2021-08-03T14:49:02Z</time>
      </trkpt>
      <trkpt lat="42.35736" lon="-0.82547">
        <ele>693.79</ele>
        <time>2021-08-03T14:49:04Z</time>
      </trkpt>
      <trkpt lat="42.35749" lon="-0.82587">
        <ele>698.25</ele>
        <time>2021-08-03T14:49:09Z</time>
      </trkpt>
      <trkpt lat="42.35772" lon="-0.82629">
        <ele>701.45</ele>
        <time>2021-08-03T14:49:14Z</time>
      </trkpt>
      <trkpt lat="42.35793" lon="-0.82681">
        <ele>705.09</ele>
        <time>2021-08-03T14:49:19Z</time>
      </trkpt>
      <trkpt lat="42.35781" lon="-0.827">
        <ele>709.44</ele>
        <time>2021-08-03T14:49:25Z</time>
      </trkpt>
      <trkpt lat="42.35777" lon="-0.82698">
        <ele>710.1</ele>
        <time>2021-08-03T14:49:26Z</time>
      </trkpt>
      <trkpt lat="42.35759" lon="-0.82683">
        <ele>712.37</ele>
        <time>2021-08-03T14:49:31Z</time>
      </trkpt>
      <trkpt lat="42.35702" lon="-0.82685">
        <ele>713.49</ele>
        <time>2021-08-03T14:49:40Z</time>
      </trkpt>
      <trkpt lat="42.35696" lon="-0.82698">
        <ele>713.1</ele>
        <time>2021-08-03T14:49:42Z</time>
      </trkpt>
      <trkpt lat="42.35668" lon="-0.82722">
        <ele>710.64</ele>
        <time>2021-08-03T14:49:49Z</time>
      </trkpt>
      <trkpt lat="42.35643" lon="-0.82744">
        <ele>707.45</ele>
        <time>2021-08-03T14:49:55Z</time>
      </trkpt>
      <trkpt lat="42.35609" lon="-0.82772">
        <ele>703.3</ele>
        <time>2021-08-03T14:50:03Z</time>
      </trkpt>
      <trkpt lat="42.356" lon="-0.82779">
        <ele>702.23</ele>
        <time>2021-08-03T14:50:05Z</time>
      </trkpt>
      <trkpt lat="42.35583" lon="-0.82789">
        <ele>699.69</ele>
        <time>2021-08-03T14:50:09Z</time>
      </trkpt>
      <trkpt lat="42.35569" lon="-0.82803">
        <ele>698.04</ele>
        <time>2021-08-03T14:50:12Z</time>
      </trkpt>
      <trkpt lat="42.35541" lon="-0.82817">
        <ele>694.07</ele>
        <time>2021-08-03T14:50:18Z</time>
      </trkpt>
      <trkpt lat="42.35522" lon="-0.82829">
        <ele>691</ele>
        <time>2021-08-03T14:50:23Z</time>
      </trkpt>
      <trkpt lat="42.35506" lon="-0.82854">
        <ele>687.94</ele>
        <time>2021-08-03T14:50:28Z</time>
      </trkpt>
      <trkpt lat="42.35501" lon="-0.8286">
        <ele>687.3</ele>
        <time>2021-08-03T14:50:29Z</time>
      </trkpt>
      <trkpt lat="42.35477" lon="-0.82868">
        <ele>683.15</ele>
        <time>2021-08-03T14:50:35Z</time>
      </trkpt>
      <trkpt lat="42.35444" lon="-0.82854">
        <ele>680.15</ele>
        <time>2021-08-03T14:50:41Z</time>
      </trkpt>
      <trkpt lat="42.3545" lon="-0.82882">
        <ele>677.73</ele>
        <time>2021-08-03T14:50:46Z</time>
      </trkpt>
      <trkpt lat="42.35466" lon="-0.82905">
        <ele>676.45</ele>
        <time>2021-08-03T14:50:49Z</time>
      </trkpt>
      <trkpt lat="42.35488" lon="-0.82949">
        <ele>673.77</ele>
        <time>2021-08-03T14:50:54Z</time>
      </trkpt>
      <trkpt lat="42.355" lon="-0.82966">
        <ele>672.33</ele>
        <time>2021-08-03T14:50:57Z</time>
      </trkpt>
      <trkpt lat="42.35485" lon="-0.82992">
        <ele>668.51</ele>
        <time>2021-08-03T14:51:03Z</time>
      </trkpt>
      <trkpt lat="42.35464" lon="-0.82995">
        <ele>667.41</ele>
        <time>2021-08-03T14:51:06Z</time>
      </trkpt>
      <trkpt lat="42.3545" lon="-0.82995">
        <ele>666.65</ele>
        <time>2021-08-03T14:51:08Z</time>
      </trkpt>
      <trkpt lat="42.35383" lon="-0.82978">
        <ele>663.06</ele>
        <time>2021-08-03T14:51:17Z</time>
      </trkpt>
      <trkpt lat="42.35362" lon="-0.82975">
        <ele>661.39</ele>
        <time>2021-08-03T14:51:20Z</time>
      </trkpt>
      <trkpt lat="42.35282" lon="-0.82995">
        <ele>659.52</ele>
        <time>2021-08-03T14:51:30Z</time>
      </trkpt>
      <trkpt lat="42.35264" lon="-0.82996">
        <ele>659.15</ele>
        <time>2021-08-03T14:51:32Z</time>
      </trkpt>
      <trkpt lat="42.35219" lon="-0.82982">
        <ele>657.57</ele>
        <time>2021-08-03T14:51:38Z</time>
      </trkpt>
      <trkpt lat="42.35187" lon="-0.82959">
        <ele>653.87</ele>
        <time>2021-08-03T14:51:46Z</time>
      </trkpt>
      <trkpt lat="42.35166" lon="-0.82938">
        <ele>652.36</ele>
        <time>2021-08-03T14:51:50Z</time>
      </trkpt>
      <trkpt lat="42.3511" lon="-0.8293">
        <ele>648.73</ele>
        <time>2021-08-03T14:51:58Z</time>
      </trkpt>
      <trkpt lat="42.35082" lon="-0.82956">
        <ele>646.5</ele>
        <time>2021-08-03T14:52:04Z</time>
      </trkpt>
      <trkpt lat="42.3507" lon="-0.82965">
        <ele>642.79</ele>
        <time>2021-08-03T14:52:12Z</time>
      </trkpt>
      <trkpt lat="42.35049" lon="-0.82969">
        <ele>639.71</ele>
        <time>2021-08-03T14:52:28Z</time>
      </trkpt>
      <trkpt lat="42.35016" lon="-0.82978">
        <ele>637.09</ele>
        <time>2021-08-03T14:52:40Z</time>
      </trkpt>
      <trkpt lat="42.34997" lon="-0.82966">
        <ele>636.56</ele>
        <time>2021-08-03T14:52:45Z</time>
      </trkpt>
      <trkpt lat="42.34987" lon="-0.82958">
        <ele>636.61</ele>
        <time>2021-08-03T14:52:47Z</time>
      </trkpt>
      <trkpt lat="42.34937" lon="-0.82959">
        <ele>638.28</ele>
        <time>2021-08-03T14:52:54Z</time>
      </trkpt>
      <trkpt lat="42.34924" lon="-0.82982">
        <ele>640.37</ele>
        <time>2021-08-03T14:53:00Z</time>
      </trkpt>
      <trkpt lat="42.34932" lon="-0.82989">
        <ele>641.14</ele>
        <time>2021-08-03T14:53:03Z</time>
      </trkpt>
      <trkpt lat="42.34957" lon="-0.83007">
        <ele>644.44</ele>
        <time>2021-08-03T14:53:12Z</time>
      </trkpt>
      <trkpt lat="42.34961" lon="-0.83015">
        <ele>645.12</ele>
        <time>2021-08-03T14:53:14Z</time>
      </trkpt>
      <trkpt lat="42.34947" lon="-0.83032">
        <ele>646.64</ele>
        <time>2021-08-03T14:53:19Z</time>
      </trkpt>
      <trkpt lat="42.34913" lon="-0.83033">
        <ele>648.95</ele>
        <time>2021-08-03T14:53:24Z</time>
      </trkpt>
      <trkpt lat="42.34881" lon="-0.83018">
        <ele>652.64</ele>
        <time>2021-08-03T14:53:31Z</time>
      </trkpt>
      <trkpt lat="42.3485" lon="-0.8299">
        <ele>655.95</ele>
        <time>2021-08-03T14:53:37Z</time>
      </trkpt>
      <trkpt lat="42.34832" lon="-0.8297">
        <ele>657.91</ele>
        <time>2021-08-03T14:53:41Z</time>
      </trkpt>
      <trkpt lat="42.34804" lon="-0.82949">
        <ele>659.29</ele>
        <time>2021-08-03T14:53:45Z</time>
      </trkpt>
      <trkpt lat="42.34776" lon="-0.82923">
        <ele>660.41</ele>
        <time>2021-08-03T14:53:50Z</time>
      </trkpt>
      <trkpt lat="42.34761" lon="-0.82901">
        <ele>661.82</ele>
        <time>2021-08-03T14:53:53Z</time>
      </trkpt>
      <trkpt lat="42.34757" lon="-0.82867">
        <ele>664.06</ele>
        <time>2021-08-03T14:53:57Z</time>
      </trkpt>
      <trkpt lat="42.34752" lon="-0.82807">
        <ele>668.09</ele>
        <time>2021-08-03T14:54:03Z</time>
      </trkpt>
      <trkpt lat="42.34751" lon="-0.82794">
        <ele>668.74</ele>
        <time>2021-08-03T14:54:04Z</time>
      </trkpt>
      <trkpt lat="42.34728" lon="-0.82742">
        <ele>671.86</ele>
        <time>2021-08-03T14:54:11Z</time>
      </trkpt>
      <trkpt lat="42.34722" lon="-0.82757">
        <ele>673.55</ele>
        <time>2021-08-03T14:54:15Z</time>
      </trkpt>
      <trkpt lat="42.3472" lon="-0.82783">
        <ele>677.32</ele>
        <time>2021-08-03T14:54:24Z</time>
      </trkpt>
      <trkpt lat="42.34712" lon="-0.82846">
        <ele>679.7</ele>
        <time>2021-08-03T14:54:32Z</time>
      </trkpt>
      <trkpt lat="42.3471" lon="-0.82857">
        <ele>680.05</ele>
        <time>2021-08-03T14:54:33Z</time>
      </trkpt>
      <trkpt lat="42.3468" lon="-0.82902">
        <ele>683.1</ele>
        <time>2021-08-03T14:54:40Z</time>
      </trkpt>
      <trkpt lat="42.34655" lon="-0.82921">
        <ele>684.92</ele>
        <time>2021-08-03T14:54:44Z</time>
      </trkpt>
      <trkpt lat="42.34665" lon="-0.82941">
        <ele>685.69</ele>
        <time>2021-08-03T14:54:49Z</time>
      </trkpt>
      <trkpt lat="42.34681" lon="-0.82946">
        <ele>686.11</ele>
        <time>2021-08-03T14:54:51Z</time>
      </trkpt>
      <trkpt lat="42.34713" lon="-0.82983">
        <ele>688.71</ele>
        <time>2021-08-03T14:54:58Z</time>
      </trkpt>
      <trkpt lat="42.34703" lon="-0.82997">
        <ele>689.79</ele>
        <time>2021-08-03T14:55:00Z</time>
      </trkpt>
      <trkpt lat="42.34693" lon="-0.83013">
        <ele>691.73</ele>
        <time>2021-08-03T14:55:04Z</time>
      </trkpt>
      <trkpt lat="42.34699" lon="-0.83036">
        <ele>693.67</ele>
        <time>2021-08-03T14:55:10Z</time>
      </trkpt>
      <trkpt lat="42.34697" lon="-0.83073">
        <ele>697.07</ele>
        <time>2021-08-03T14:55:18Z</time>
      </trkpt>
      <trkpt lat="42.34679" lon="-0.83109">
        <ele>700.3</ele>
        <time>2021-08-03T14:55:26Z</time>
      </trkpt>
      <trkpt lat="42.34661" lon="-0.83127">
        <ele>702.44</ele>
        <time>2021-08-03T14:55:32Z</time>
      </trkpt>
      <trkpt lat="42.34631" lon="-0.83099">
        <ele>704.7</ele>
        <time>2021-08-03T14:55:38Z</time>
      </trkpt>
      <trkpt lat="42.34587" lon="-0.83058">
        <ele>707.44</ele>
        <time>2021-08-03T14:55:44Z</time>
      </trkpt>
      <trkpt lat="42.3456" lon="-0.83046">
        <ele>709.28</ele>
        <time>2021-08-03T14:55:47Z</time>
      </trkpt>
      <trkpt lat="42.34543" lon="-0.8303">
        <ele>711.05</ele>
        <time>2021-08-03T14:55:50Z</time>
      </trkpt>
      <trkpt lat="42.34504" lon="-0.83025">
        <ele>713.89</ele>
        <time>2021-08-03T14:55:55Z</time>
      </trkpt>
      <trkpt lat="42.34478" lon="-0.83001">
        <ele>717.79</ele>
        <time>2021-08-03T14:56:02Z</time>
      </trkpt>
      <trkpt lat="42.3448" lon="-0.82992">
        <ele>718.21</ele>
        <time>2021-08-03T14:56:03Z</time>
      </trkpt>
      <trkpt lat="42.34494" lon="-0.82946">
        <ele>719.58</ele>
        <time>2021-08-03T14:56:07Z</time>
      </trkpt>
      <trkpt lat="42.34535" lon="-0.8292">
        <ele>718.98</ele>
        <time>2021-08-03T14:56:12Z</time>
      </trkpt>
      <trkpt lat="42.3455" lon="-0.82913">
        <ele>717.39</ele>
        <time>2021-08-03T14:56:14Z</time>
      </trkpt>
      <trkpt lat="42.34554" lon="-0.82875">
        <ele>714.71</ele>
        <time>2021-08-03T14:56:20Z</time>
      </trkpt>
      <trkpt lat="42.34515" lon="-0.82867">
        <ele>714.71</ele>
        <time>2021-08-03T14:56:25Z</time>
      </trkpt>
      <trkpt lat="42.34482" lon="-0.8286">
        <ele>716.18</ele>
        <time>2021-08-03T14:56:30Z</time>
      </trkpt>
      <trkpt lat="42.34456" lon="-0.82827">
        <ele>718.19</ele>
        <time>2021-08-03T14:56:38Z</time>
      </trkpt>
      <trkpt lat="42.34435" lon="-0.82793">
        <ele>719.83</ele>
        <time>2021-08-03T14:56:46Z</time>
      </trkpt>
      <trkpt lat="42.34432" lon="-0.8276">
        <ele>721.17</ele>
        <time>2021-08-03T14:56:51Z</time>
      </trkpt>
      <trkpt lat="42.34405" lon="-0.82727">
        <ele>724.34</ele>
        <time>2021-08-03T14:56:59Z</time>
      </trkpt>
      <trkpt lat="42.34348" lon="-0.82714">
        <ele>727.91</ele>
        <time>2021-08-03T14:57:13Z</time>
      </trkpt>
      <trkpt lat="42.34338" lon="-0.82711">
        <ele>728.74</ele>
        <time>2021-08-03T14:57:15Z</time>
      </trkpt>
      <trkpt lat="42.34306" lon="-0.82683">
        <ele>732.24</ele>
        <time>2021-08-03T14:57:23Z</time>
      </trkpt>
      <trkpt lat="42.34282" lon="-0.82663">
        <ele>735.47</ele>
        <time>2021-08-03T14:57:30Z</time>
      </trkpt>
      <trkpt lat="42.34263" lon="-0.82645">
        <ele>737.59</ele>
        <time>2021-08-03T14:57:35Z</time>
      </trkpt>
      <trkpt lat="42.34246" lon="-0.82633">
        <ele>739.31</ele>
        <time>2021-08-03T14:57:39Z</time>
      </trkpt>
      <trkpt lat="42.34207" lon="-0.82624">
        <ele>743.34</ele>
        <time>2021-08-03T14:57:47Z</time>
      </trkpt>
      <trkpt lat="42.34202" lon="-0.82623">
        <ele>743.81</ele>
        <time>2021-08-03T14:57:48Z</time>
      </trkpt>
      <trkpt lat="42.3418" lon="-0.82601">
        <ele>746.05</ele>
        <time>2021-08-03T14:57:54Z</time>
      </trkpt>
      <trkpt lat="42.34174" lon="-0.82587">
        <ele>747.5</ele>
        <time>2021-08-03T14:57:56Z</time>
      </trkpt>
      <trkpt lat="42.34154" lon="-0.82571">
        <ele>749.55</ele>
        <time>2021-08-03T14:58:00Z</time>
      </trkpt>
      <trkpt lat="42.34137" lon="-0.82567">
        <ele>751.13</ele>
        <time>2021-08-03T14:58:03Z</time>
      </trkpt>
      <trkpt lat="42.34096" lon="-0.82567">
        <ele>753.61</ele>
        <time>2021-08-03T14:58:10Z</time>
      </trkpt>
      <trkpt lat="42.3408" lon="-0.82579">
        <ele>754.35</ele>
        <time>2021-08-03T14:58:15Z</time>
      </trkpt>
      <trkpt lat="42.34071" lon="-0.82625">
        <ele>755.43</ele>
        <time>2021-08-03T14:58:26Z</time>
      </trkpt>
      <trkpt lat="42.3407" lon="-0.82631">
        <ele>755.59</ele>
        <time>2021-08-03T14:58:27Z</time>
      </trkpt>
      <trkpt lat="42.34069" lon="-0.82662">
        <ele>756.17</ele>
        <time>2021-08-03T14:58:31Z</time>
      </trkpt>
      <trkpt lat="42.34051" lon="-0.82707">
        <ele>757.94</ele>
        <time>2021-08-03T14:58:37Z</time>
      </trkpt>
      <trkpt lat="42.34032" lon="-0.8273">
        <ele>759.49</ele>
        <time>2021-08-03T14:58:41Z</time>
      </trkpt>
      <trkpt lat="42.3401" lon="-0.82784">
        <ele>763.19</ele>
        <time>2021-08-03T14:58:48Z</time>
      </trkpt>
      <trkpt lat="42.34004" lon="-0.82801">
        <ele>764.21</ele>
        <time>2021-08-03T14:58:50Z</time>
      </trkpt>
      <trkpt lat="42.33978" lon="-0.82834">
        <ele>768.17</ele>
        <time>2021-08-03T14:58:57Z</time>
      </trkpt>
      <trkpt lat="42.33974" lon="-0.82839">
        <ele>768.71</ele>
        <time>2021-08-03T14:58:58Z</time>
      </trkpt>
      <trkpt lat="42.33943" lon="-0.82885">
        <ele>772.36</ele>
        <time>2021-08-03T14:59:05Z</time>
      </trkpt>
      <trkpt lat="42.33939" lon="-0.82891">
        <ele>772.87</ele>
        <time>2021-08-03T14:59:06Z</time>
      </trkpt>
      <trkpt lat="42.33918" lon="-0.82977">
        <ele>776.46</ele>
        <time>2021-08-03T14:59:15Z</time>
      </trkpt>
      <trkpt lat="42.33926" lon="-0.83003">
        <ele>777.38</ele>
        <time>2021-08-03T14:59:18Z</time>
      </trkpt>
      <trkpt lat="42.33932" lon="-0.8307">
        <ele>780.17</ele>
        <time>2021-08-03T14:59:25Z</time>
      </trkpt>
      <trkpt lat="42.33916" lon="-0.83128">
        <ele>783.75</ele>
        <time>2021-08-03T14:59:31Z</time>
      </trkpt>
      <trkpt lat="42.33909" lon="-0.83146">
        <ele>785.2</ele>
        <time>2021-08-03T14:59:33Z</time>
      </trkpt>
      <trkpt lat="42.33893" lon="-0.83174">
        <ele>789.12</ele>
        <time>2021-08-03T14:59:37Z</time>
      </trkpt>
      <trkpt lat="42.33889" lon="-0.83181">
        <ele>789.91</ele>
        <time>2021-08-03T14:59:38Z</time>
      </trkpt>
      <trkpt lat="42.33867" lon="-0.83243">
        <ele>794.27</ele>
        <time>2021-08-03T14:59:44Z</time>
      </trkpt>
      <trkpt lat="42.3385" lon="-0.83286">
        <ele>797.69</ele>
        <time>2021-08-03T14:59:48Z</time>
      </trkpt>
      <trkpt lat="42.33836" lon="-0.83333">
        <ele>800.87</ele>
        <time>2021-08-03T14:59:52Z</time>
      </trkpt>
      <trkpt lat="42.33834" lon="-0.83345">
        <ele>801.36</ele>
        <time>2021-08-03T14:59:53Z</time>
      </trkpt>
      <trkpt lat="42.33833" lon="-0.83403">
        <ele>802.94</ele>
        <time>2021-08-03T14:59:58Z</time>
      </trkpt>
      <trkpt lat="42.33809" lon="-0.83424">
        <ele>804.07</ele>
        <time>2021-08-03T15:00:05Z</time>
      </trkpt>
      <trkpt lat="42.33776" lon="-0.83425">
        <ele>805.53</ele>
        <time>2021-08-03T15:00:10Z</time>
      </trkpt>
      <trkpt lat="42.33734" lon="-0.83437">
        <ele>809.13</ele>
        <time>2021-08-03T15:00:17Z</time>
      </trkpt>
      <trkpt lat="42.33715" lon="-0.83415">
        <ele>811.06</ele>
        <time>2021-08-03T15:00:21Z</time>
      </trkpt>
      <trkpt lat="42.33707" lon="-0.83402">
        <ele>811.81</ele>
        <time>2021-08-03T15:00:23Z</time>
      </trkpt>
      <trkpt lat="42.33668" lon="-0.83343">
        <ele>814.47</ele>
        <time>2021-08-03T15:00:30Z</time>
      </trkpt>
      <trkpt lat="42.3362" lon="-0.8327">
        <ele>818.03</ele>
        <time>2021-08-03T15:00:38Z</time>
      </trkpt>
      <trkpt lat="42.33565" lon="-0.83169">
        <ele>820.73</ele>
        <time>2021-08-03T15:00:47Z</time>
      </trkpt>
      <trkpt lat="42.33518" lon="-0.83072">
        <ele>821.53</ele>
        <time>2021-08-03T15:00:55Z</time>
      </trkpt>
      <trkpt lat="42.3346" lon="-0.82993">
        <ele>824.73</ele>
        <time>2021-08-03T15:01:04Z</time>
      </trkpt>
      <trkpt lat="42.3344" lon="-0.82938">
        <ele>827.27</ele>
        <time>2021-08-03T15:01:10Z</time>
      </trkpt>
      <trkpt lat="42.33435" lon="-0.82919">
        <ele>828.68</ele>
        <time>2021-08-03T15:01:13Z</time>
      </trkpt>
      <trkpt lat="42.33428" lon="-0.82853">
        <ele>832.93</ele>
        <time>2021-08-03T15:01:20Z</time>
      </trkpt>
      <trkpt lat="42.33428" lon="-0.82844">
        <ele>833.46</ele>
        <time>2021-08-03T15:01:21Z</time>
      </trkpt>
      <trkpt lat="42.33405" lon="-0.82765">
        <ele>837.52</ele>
        <time>2021-08-03T15:01:29Z</time>
      </trkpt>
      <trkpt lat="42.33385" lon="-0.82718">
        <ele>841.27</ele>
        <time>2021-08-03T15:01:34Z</time>
      </trkpt>
      <trkpt lat="42.33381" lon="-0.82711">
        <ele>842.05</ele>
        <time>2021-08-03T15:01:35Z</time>
      </trkpt>
      <trkpt lat="42.33368" lon="-0.82659">
        <ele>845.97</ele>
        <time>2021-08-03T15:01:40Z</time>
      </trkpt>
      <trkpt lat="42.3335" lon="-0.82592">
        <ele>849.36</ele>
        <time>2021-08-03T15:01:46Z</time>
      </trkpt>
      <trkpt lat="42.33328" lon="-0.82487">
        <ele>851.98</ele>
        <time>2021-08-03T15:01:55Z</time>
      </trkpt>
      <trkpt lat="42.33301" lon="-0.82479">
        <ele>852.88</ele>
        <time>2021-08-03T15:02:01Z</time>
      </trkpt>
      <trkpt lat="42.33299" lon="-0.82511">
        <ele>853.9</ele>
        <time>2021-08-03T15:02:04Z</time>
      </trkpt>
      <trkpt lat="42.33297" lon="-0.82549">
        <ele>855.22</ele>
        <time>2021-08-03T15:02:07Z</time>
      </trkpt>
      <trkpt lat="42.33305" lon="-0.82647">
        <ele>859.07</ele>
        <time>2021-08-03T15:02:14Z</time>
      </trkpt>
      <trkpt lat="42.33316" lon="-0.82724">
        <ele>862.32</ele>
        <time>2021-08-03T15:02:19Z</time>
      </trkpt>
      <trkpt lat="42.33321" lon="-0.82807">
        <ele>865.73</ele>
        <time>2021-08-03T15:02:24Z</time>
      </trkpt>
      <trkpt lat="42.33318" lon="-0.82855">
        <ele>867.97</ele>
        <time>2021-08-03T15:02:28Z</time>
      </trkpt>
      <trkpt lat="42.33299" lon="-0.82915">
        <ele>871.47</ele>
        <time>2021-08-03T15:02:34Z</time>
      </trkpt>
      <trkpt lat="42.3329" lon="-0.82964">
        <ele>875.91</ele>
        <time>2021-08-03T15:02:39Z</time>
      </trkpt>
      <trkpt lat="42.3329" lon="-0.8297">
        <ele>876.9</ele>
        <time>2021-08-03T15:02:40Z</time>
      </trkpt>
      <trkpt lat="42.3329" lon="-0.82981">
        <ele>878.86</ele>
        <time>2021-08-03T15:02:42Z</time>
      </trkpt>
      <trkpt lat="42.3328" lon="-0.83006">
        <ele>883.01</ele>
        <time>2021-08-03T15:02:47Z</time>
      </trkpt>
      <trkpt lat="42.33271" lon="-0.82974">
        <ele>886.9</ele>
        <time>2021-08-03T15:02:52Z</time>
      </trkpt>
      <trkpt lat="42.33245" lon="-0.82969">
        <ele>889.73</ele>
        <time>2021-08-03T15:02:57Z</time>
      </trkpt>
      <trkpt lat="42.33243" lon="-0.8301">
        <ele>892.49</ele>
        <time>2021-08-03T15:03:01Z</time>
      </trkpt>
      <trkpt lat="42.33261" lon="-0.83071">
        <ele>896.39</ele>
        <time>2021-08-03T15:03:06Z</time>
      </trkpt>
      <trkpt lat="42.33272" lon="-0.83099">
        <ele>898.17</ele>
        <time>2021-08-03T15:03:08Z</time>
      </trkpt>
      <trkpt lat="42.33317" lon="-0.83183">
        <ele>902.53</ele>
        <time>2021-08-03T15:03:14Z</time>
      </trkpt>
      <trkpt lat="42.33376" lon="-0.83298">
        <ele>905.66</ele>
        <time>2021-08-03T15:03:22Z</time>
      </trkpt>
      <trkpt lat="42.334" lon="-0.83371">
        <ele>908.53</ele>
        <time>2021-08-03T15:03:27Z</time>
      </trkpt>
      <trkpt lat="42.33408" lon="-0.83417">
        <ele>911.99</ele>
        <time>2021-08-03T15:03:31Z</time>
      </trkpt>
      <trkpt lat="42.33426" lon="-0.83452">
        <ele>916.35</ele>
        <time>2021-08-03T15:03:36Z</time>
      </trkpt>
      <trkpt lat="42.3345" lon="-0.83495">
        <ele>919.96</ele>
        <time>2021-08-03T15:03:41Z</time>
      </trkpt>
      <trkpt lat="42.33512" lon="-0.83588">
        <ele>924.04</ele>
        <time>2021-08-03T15:03:48Z</time>
      </trkpt>
      <trkpt lat="42.33521" lon="-0.83602">
        <ele>924.38</ele>
        <time>2021-08-03T15:03:49Z</time>
      </trkpt>
      <trkpt lat="42.33547" lon="-0.83641">
        <ele>925.17</ele>
        <time>2021-08-03T15:03:53Z</time>
      </trkpt>
      <trkpt lat="42.33613" lon="-0.8373">
        <ele>927.9</ele>
        <time>2021-08-03T15:04:02Z</time>
      </trkpt>
      <trkpt lat="42.33664" lon="-0.83809">
        <ele>930.38</ele>
        <time>2021-08-03T15:04:09Z</time>
      </trkpt>
      <trkpt lat="42.33732" lon="-0.83927">
        <ele>933.39</ele>
        <time>2021-08-03T15:04:18Z</time>
      </trkpt>
      <trkpt lat="42.33742" lon="-0.83939">
        <ele>933.47</ele>
        <time>2021-08-03T15:04:19Z</time>
      </trkpt>
      <trkpt lat="42.33766" lon="-0.83985">
        <ele>933.4</ele>
        <time>2021-08-03T15:04:23Z</time>
      </trkpt>
      <trkpt lat="42.33771" lon="-0.84002">
        <ele>933.24</ele>
        <time>2021-08-03T15:04:25Z</time>
      </trkpt>
      <trkpt lat="42.33789" lon="-0.84044">
        <ele>932.83</ele>
        <time>2021-08-03T15:04:29Z</time>
      </trkpt>
      <trkpt lat="42.33793" lon="-0.84096">
        <ele>932.83</ele>
        <time>2021-08-03T15:04:33Z</time>
      </trkpt>
      <trkpt lat="42.33791" lon="-0.8412">
        <ele>932.94</ele>
        <time>2021-08-03T15:04:35Z</time>
      </trkpt>
      <trkpt lat="42.33753" lon="-0.84161">
        <ele>933.46</ele>
        <time>2021-08-03T15:04:41Z</time>
      </trkpt>
      <trkpt lat="42.33743" lon="-0.84162">
        <ele>933.86</ele>
        <time>2021-08-03T15:04:42Z</time>
      </trkpt>
      <trkpt lat="42.33702" lon="-0.84168">
        <ele>935.23</ele>
        <time>2021-08-03T15:04:46Z</time>
      </trkpt>
      <trkpt lat="42.33667" lon="-0.84164">
        <ele>936.57</ele>
        <time>2021-08-03T15:04:49Z</time>
      </trkpt>
      <trkpt lat="42.33597" lon="-0.84187">
        <ele>939.83</ele>
        <time>2021-08-03T15:04:56Z</time>
      </trkpt>
      <trkpt lat="42.33582" lon="-0.84234">
        <ele>941.69</ele>
        <time>2021-08-03T15:05:00Z</time>
      </trkpt>
      <trkpt lat="42.33578" lon="-0.8426">
        <ele>942.76</ele>
        <time>2021-08-03T15:05:02Z</time>
      </trkpt>
      <trkpt lat="42.33577" lon="-0.84295">
        <ele>944.04</ele>
        <time>2021-08-03T15:05:05Z</time>
      </trkpt>
      <trkpt lat="42.3357" lon="-0.84329">
        <ele>945.54</ele>
        <time>2021-08-03T15:05:08Z</time>
      </trkpt>
      <trkpt lat="42.33518" lon="-0.84405">
        <ele>949.03</ele>
        <time>2021-08-03T15:05:15Z</time>
      </trkpt>
      <trkpt lat="42.33469" lon="-0.84434">
        <ele>950.48</ele>
        <time>2021-08-03T15:05:20Z</time>
      </trkpt>
      <trkpt lat="42.33455" lon="-0.84496">
        <ele>951.42</ele>
        <time>2021-08-03T15:05:26Z</time>
      </trkpt>
      <trkpt lat="42.3346" lon="-0.84527">
        <ele>951.5</ele>
        <time>2021-08-03T15:05:28Z</time>
      </trkpt>
      <trkpt lat="42.33446" lon="-0.84626">
        <ele>951.44</ele>
        <time>2021-08-03T15:05:35Z</time>
      </trkpt>
      <trkpt lat="42.33411" lon="-0.84657">
        <ele>951.04</ele>
        <time>2021-08-03T15:05:40Z</time>
      </trkpt>
      <trkpt lat="42.33367" lon="-0.84675">
        <ele>951.32</ele>
        <time>2021-08-03T15:05:44Z</time>
      </trkpt>
      <trkpt lat="42.33329" lon="-0.84678">
        <ele>952.27</ele>
        <time>2021-08-03T15:05:47Z</time>
      </trkpt>
      <trkpt lat="42.33274" lon="-0.84657">
        <ele>954.98</ele>
        <time>2021-08-03T15:05:52Z</time>
      </trkpt>
      <trkpt lat="42.33222" lon="-0.84641">
        <ele>958.7</ele>
        <time>2021-08-03T15:05:57Z</time>
      </trkpt>
      <trkpt lat="42.33196" lon="-0.84628">
        <ele>960.9</ele>
        <time>2021-08-03T15:06:00Z</time>
      </trkpt>
      <trkpt lat="42.33172" lon="-0.84627">
        <ele>964.3</ele>
        <time>2021-08-03T15:06:07Z</time>
      </trkpt>
      <trkpt lat="42.33122" lon="-0.84621">
        <ele>965.87</ele>
        <time>2021-08-03T15:06:13Z</time>
      </trkpt>
      <trkpt lat="42.33071" lon="-0.84634">
        <ele>966.51</ele>
        <time>2021-08-03T15:06:17Z</time>
      </trkpt>
      <trkpt lat="42.33023" lon="-0.84607">
        <ele>967.02</ele>
        <time>2021-08-03T15:06:21Z</time>
      </trkpt>
      <trkpt lat="42.32959" lon="-0.84536">
        <ele>967.73</ele>
        <time>2021-08-03T15:06:26Z</time>
      </trkpt>
      <trkpt lat="42.32901" lon="-0.84511">
        <ele>967.93</ele>
        <time>2021-08-03T15:06:30Z</time>
      </trkpt>
      <trkpt lat="42.3284" lon="-0.84513">
        <ele>967.51</ele>
        <time>2021-08-03T15:06:34Z</time>
      </trkpt>
      <trkpt lat="42.32783" lon="-0.84532">
        <ele>965.91</ele>
        <time>2021-08-03T15:06:39Z</time>
      </trkpt>
      <trkpt lat="42.32753" lon="-0.84542">
        <ele>964.66</ele>
        <time>2021-08-03T15:06:42Z</time>
      </trkpt>
      <trkpt lat="42.3274" lon="-0.84548">
        <ele>963.84</ele>
        <time>2021-08-03T15:06:44Z</time>
      </trkpt>
      <trkpt lat="42.32704" lon="-0.84575">
        <ele>962.01</ele>
        <time>2021-08-03T15:06:50Z</time>
      </trkpt>
      <trkpt lat="42.32666" lon="-0.84591">
        <ele>962.04</ele>
        <time>2021-08-03T15:06:56Z</time>
      </trkpt>
      <trkpt lat="42.3264" lon="-0.84596">
        <ele>962.38</ele>
        <time>2021-08-03T15:07:00Z</time>
      </trkpt>
      <trkpt lat="42.32622" lon="-0.8462">
        <ele>962.77</ele>
        <time>2021-08-03T15:07:05Z</time>
      </trkpt>
      <trkpt lat="42.32609" lon="-0.84693">
        <ele>963</ele>
        <time>2021-08-03T15:07:12Z</time>
      </trkpt>
      <trkpt lat="42.32615" lon="-0.8475">
        <ele>962.3</ele>
        <time>2021-08-03T15:07:18Z</time>
      </trkpt>
      <trkpt lat="42.32581" lon="-0.84806">
        <ele>963.4</ele>
        <time>2021-08-03T15:07:26Z</time>
      </trkpt>
      <trkpt lat="42.32572" lon="-0.84808">
        <ele>963.56</ele>
        <time>2021-08-03T15:07:27Z</time>
      </trkpt>
      <trkpt lat="42.32547" lon="-0.84816">
        <ele>963.63</ele>
        <time>2021-08-03T15:07:30Z</time>
      </trkpt>
      <trkpt lat="42.32498" lon="-0.8487">
        <ele>963.01</ele>
        <time>2021-08-03T15:07:37Z</time>
      </trkpt>
      <trkpt lat="42.32476" lon="-0.84914">
        <ele>963.02</ele>
        <time>2021-08-03T15:07:41Z</time>
      </trkpt>
      <trkpt lat="42.32455" lon="-0.84988">
        <ele>963.77</ele>
        <time>2021-08-03T15:07:48Z</time>
      </trkpt>
      <trkpt lat="42.32451" lon="-0.84999">
        <ele>963.8</ele>
        <time>2021-08-03T15:07:51Z</time>
      </trkpt>
      <trkpt lat="42.32416" lon="-0.84992">
        <ele>964</ele>
        <time>2021-08-03T15:07:57Z</time>
      </trkpt>
      <trkpt lat="42.32404" lon="-0.84978">
        <ele>964.04</ele>
        <time>2021-08-03T15:07:59Z</time>
      </trkpt>
      <trkpt lat="42.32385" lon="-0.84948">
        <ele>964.06</ele>
        <time>2021-08-03T15:08:03Z</time>
      </trkpt>
      <trkpt lat="42.32358" lon="-0.84926">
        <ele>964.16</ele>
        <time>2021-08-03T15:08:07Z</time>
      </trkpt>
      <trkpt lat="42.32318" lon="-0.84907">
        <ele>964.71</ele>
        <time>2021-08-03T15:08:12Z</time>
      </trkpt>
      <trkpt lat="42.32293" lon="-0.84875">
        <ele>965.26</ele>
        <time>2021-08-03T15:08:16Z</time>
      </trkpt>
      <trkpt lat="42.32274" lon="-0.84839">
        <ele>965.44</ele>
        <time>2021-08-03T15:08:20Z</time>
      </trkpt>
      <trkpt lat="42.32257" lon="-0.84815">
        <ele>965.34</ele>
        <time>2021-08-03T15:08:23Z</time>
      </trkpt>
      <trkpt lat="42.32223" lon="-0.84796">
        <ele>965.41</ele>
        <time>2021-08-03T15:08:28Z</time>
      </trkpt>
      <trkpt lat="42.32199" lon="-0.8477">
        <ele>965.44</ele>
        <time>2021-08-03T15:08:32Z</time>
      </trkpt>
      <trkpt lat="42.32137" lon="-0.84686">
        <ele>963.27</ele>
        <time>2021-08-03T15:08:43Z</time>
      </trkpt>
      <trkpt lat="42.32083" lon="-0.84681">
        <ele>962.11</ele>
        <time>2021-08-03T15:08:50Z</time>
      </trkpt>
      <trkpt lat="42.31993" lon="-0.84723">
        <ele>961.73</ele>
        <time>2021-08-03T15:09:01Z</time>
      </trkpt>
      <trkpt lat="42.31955" lon="-0.84756">
        <ele>962.35</ele>
        <time>2021-08-03T15:09:09Z</time>
      </trkpt>
      <trkpt lat="42.3189" lon="-0.84782">
        <ele>961.67</ele>
        <time>2021-08-03T15:09:19Z</time>
      </trkpt>
      <trkpt lat="42.31873" lon="-0.84789">
        <ele>961.33</ele>
        <time>2021-08-03T15:09:21Z</time>
      </trkpt>
      <trkpt lat="42.3182" lon="-0.84786">
        <ele>960.26</ele>
        <time>2021-08-03T15:09:28Z</time>
      </trkpt>
      <trkpt lat="42.31796" lon="-0.84776">
        <ele>959.89</ele>
        <time>2021-08-03T15:09:31Z</time>
      </trkpt>
      <trkpt lat="42.31759" lon="-0.84742">
        <ele>958.95</ele>
        <time>2021-08-03T15:09:36Z</time>
      </trkpt>
      <trkpt lat="42.31739" lon="-0.84719">
        <ele>958.32</ele>
        <time>2021-08-03T15:09:39Z</time>
      </trkpt>
      <trkpt lat="42.31707" lon="-0.84684">
        <ele>956.77</ele>
        <time>2021-08-03T15:09:44Z</time>
      </trkpt>
      <trkpt lat="42.31659" lon="-0.84626">
        <ele>952.2</ele>
        <time>2021-08-03T15:09:53Z</time>
      </trkpt>
      <trkpt lat="42.31621" lon="-0.84562">
        <ele>948.85</ele>
        <time>2021-08-03T15:10:01Z</time>
      </trkpt>
      <trkpt lat="42.31579" lon="-0.84486">
        <ele>946.33</ele>
        <time>2021-08-03T15:10:11Z</time>
      </trkpt>
      <trkpt lat="42.31567" lon="-0.84472">
        <ele>945.92</ele>
        <time>2021-08-03T15:10:13Z</time>
      </trkpt>
      <trkpt lat="42.31518" lon="-0.84452">
        <ele>944.44</ele>
        <time>2021-08-03T15:10:19Z</time>
      </trkpt>
      <trkpt lat="42.3148" lon="-0.8447">
        <ele>943.45</ele>
        <time>2021-08-03T15:10:24Z</time>
      </trkpt>
      <trkpt lat="42.31436" lon="-0.84463">
        <ele>943.67</ele>
        <time>2021-08-03T15:10:33Z</time>
      </trkpt>
      <trkpt lat="42.3141" lon="-0.84439">
        <ele>943.97</ele>
        <time>2021-08-03T15:10:37Z</time>
      </trkpt>
      <trkpt lat="42.31393" lon="-0.84407">
        <ele>944.11</ele>
        <time>2021-08-03T15:10:41Z</time>
      </trkpt>
      <trkpt lat="42.31386" lon="-0.84389">
        <ele>944.08</ele>
        <time>2021-08-03T15:10:43Z</time>
      </trkpt>
      <trkpt lat="42.31358" lon="-0.84362">
        <ele>942.95</ele>
        <time>2021-08-03T15:10:48Z</time>
      </trkpt>
      <trkpt lat="42.3134" lon="-0.84347">
        <ele>940.78</ele>
        <time>2021-08-03T15:10:55Z</time>
      </trkpt>
      <trkpt lat="42.3129" lon="-0.84267">
        <ele>937.47</ele>
        <time>2021-08-03T15:11:07Z</time>
      </trkpt>
      <trkpt lat="42.31244" lon="-0.84212">
        <ele>935.32</ele>
        <time>2021-08-03T15:11:13Z</time>
      </trkpt>
      <trkpt lat="42.31183" lon="-0.84172">
        <ele>933.38</ele>
        <time>2021-08-03T15:11:20Z</time>
      </trkpt>
      <trkpt lat="42.31134" lon="-0.84155">
        <ele>930.09</ele>
        <time>2021-08-03T15:11:28Z</time>
      </trkpt>
      <trkpt lat="42.31102" lon="-0.84157">
        <ele>928.22</ele>
        <time>2021-08-03T15:11:32Z</time>
      </trkpt>
      <trkpt lat="42.31058" lon="-0.84152">
        <ele>926.06</ele>
        <time>2021-08-03T15:11:38Z</time>
      </trkpt>
      <trkpt lat="42.31025" lon="-0.84147">
        <ele>925.02</ele>
        <time>2021-08-03T15:11:42Z</time>
      </trkpt>
      <trkpt lat="42.30999" lon="-0.8415">
        <ele>924.27</ele>
        <time>2021-08-03T15:11:45Z</time>
      </trkpt>
      <trkpt lat="42.30942" lon="-0.84134">
        <ele>922.43</ele>
        <time>2021-08-03T15:11:52Z</time>
      </trkpt>
      <trkpt lat="42.309" lon="-0.84106">
        <ele>921.75</ele>
        <time>2021-08-03T15:11:59Z</time>
      </trkpt>
      <trkpt lat="42.30867" lon="-0.84066">
        <ele>919.31</ele>
        <time>2021-08-03T15:12:11Z</time>
      </trkpt>
      <trkpt lat="42.30859" lon="-0.84056">
        <ele>918.41</ele>
        <time>2021-08-03T15:12:14Z</time>
      </trkpt>
      <trkpt lat="42.30837" lon="-0.84047">
        <ele>916.78</ele>
        <time>2021-08-03T15:12:19Z</time>
      </trkpt>
      <trkpt lat="42.30772" lon="-0.84055">
        <ele>914.05</ele>
        <time>2021-08-03T15:12:28Z</time>
      </trkpt>
      <trkpt lat="42.30709" lon="-0.84064">
        <ele>910.99</ele>
        <time>2021-08-03T15:12:35Z</time>
      </trkpt>
      <trkpt lat="42.30668" lon="-0.8407">
        <ele>909.21</ele>
        <time>2021-08-03T15:12:39Z</time>
      </trkpt>
      <trkpt lat="42.3062" lon="-0.84054">
        <ele>907.2</ele>
        <time>2021-08-03T15:12:44Z</time>
      </trkpt>
      <trkpt lat="42.30554" lon="-0.84039">
        <ele>905.95</ele>
        <time>2021-08-03T15:12:52Z</time>
      </trkpt>
      <trkpt lat="42.30544" lon="-0.84027">
        <ele>905.34</ele>
        <time>2021-08-03T15:12:54Z</time>
      </trkpt>
      <trkpt lat="42.30528" lon="-0.84005">
        <ele>903.92</ele>
        <time>2021-08-03T15:12:57Z</time>
      </trkpt>
      <trkpt lat="42.30472" lon="-0.83965">
        <ele>900.23</ele>
        <time>2021-08-03T15:13:04Z</time>
      </trkpt>
      <trkpt lat="42.3044" lon="-0.83955">
        <ele>898.7</ele>
        <time>2021-08-03T15:13:07Z</time>
      </trkpt>
      <trkpt lat="42.30402" lon="-0.83933">
        <ele>896.99</ele>
        <time>2021-08-03T15:13:11Z</time>
      </trkpt>
      <trkpt lat="42.30374" lon="-0.83916">
        <ele>894.45</ele>
        <time>2021-08-03T15:13:18Z</time>
      </trkpt>
      <trkpt lat="42.30337" lon="-0.83915">
        <ele>893.85</ele>
        <time>2021-08-03T15:13:23Z</time>
      </trkpt>
      <trkpt lat="42.30314" lon="-0.83906">
        <ele>893.67</ele>
        <time>2021-08-03T15:13:26Z</time>
      </trkpt>
      <trkpt lat="42.30262" lon="-0.83891">
        <ele>892.96</ele>
        <time>2021-08-03T15:13:32Z</time>
      </trkpt>
      <trkpt lat="42.30212" lon="-0.83899">
        <ele>890.88</ele>
        <time>2021-08-03T15:13:39Z</time>
      </trkpt>
      <trkpt lat="42.30188" lon="-0.83933">
        <ele>888.34</ele>
        <time>2021-08-03T15:13:45Z</time>
      </trkpt>
      <trkpt lat="42.30181" lon="-0.83966">
        <ele>886.94</ele>
        <time>2021-08-03T15:13:48Z</time>
      </trkpt>
      <trkpt lat="42.30178" lon="-0.83977">
        <ele>886.76</ele>
        <time>2021-08-03T15:13:49Z</time>
      </trkpt>
      <trkpt lat="42.30146" lon="-0.84028">
        <ele>884.78</ele>
        <time>2021-08-03T15:13:57Z</time>
      </trkpt>
      <trkpt lat="42.301" lon="-0.84062">
        <ele>883.38</ele>
        <time>2021-08-03T15:14:04Z</time>
      </trkpt>
      <trkpt lat="42.30092" lon="-0.84065">
        <ele>883.18</ele>
        <time>2021-08-03T15:14:05Z</time>
      </trkpt>
      <trkpt lat="42.30074" lon="-0.84068">
        <ele>882.3</ele>
        <time>2021-08-03T15:14:09Z</time>
      </trkpt>
      <trkpt lat="42.30043" lon="-0.84071">
        <ele>879.76</ele>
        <time>2021-08-03T15:14:17Z</time>
      </trkpt>
      <trkpt lat="42.30011" lon="-0.841">
        <ele>878.74</ele>
        <time>2021-08-03T15:14:21Z</time>
      </trkpt>
      <trkpt lat="42.29967" lon="-0.84147">
        <ele>878.01</ele>
        <time>2021-08-03T15:14:29Z</time>
      </trkpt>
      <trkpt lat="42.2991" lon="-0.8417">
        <ele>875.34</ele>
        <time>2021-08-03T15:14:41Z</time>
      </trkpt>
      <trkpt lat="42.29866" lon="-0.84187">
        <ele>872.25</ele>
        <time>2021-08-03T15:14:48Z</time>
      </trkpt>
      <trkpt lat="42.2986" lon="-0.84191">
        <ele>871.82</ele>
        <time>2021-08-03T15:14:49Z</time>
      </trkpt>
      <trkpt lat="42.2985" lon="-0.84202">
        <ele>869.71</ele>
        <time>2021-08-03T15:14:54Z</time>
      </trkpt>
      <trkpt lat="42.29825" lon="-0.84241">
        <ele>866.43</ele>
        <time>2021-08-03T15:15:07Z</time>
      </trkpt>
      <trkpt lat="42.29807" lon="-0.84267">
        <ele>865.11</ele>
        <time>2021-08-03T15:15:11Z</time>
      </trkpt>
      <trkpt lat="42.2977" lon="-0.843">
        <ele>862.3</ele>
        <time>2021-08-03T15:15:18Z</time>
      </trkpt>
      <trkpt lat="42.29736" lon="-0.84315">
        <ele>859.88</ele>
        <time>2021-08-03T15:15:24Z</time>
      </trkpt>
      <trkpt lat="42.29699" lon="-0.84296">
        <ele>857.11</ele>
        <time>2021-08-03T15:15:32Z</time>
      </trkpt>
      <trkpt lat="42.29685" lon="-0.8427">
        <ele>856.48</ele>
        <time>2021-08-03T15:15:35Z</time>
      </trkpt>
      <trkpt lat="42.29641" lon="-0.84223">
        <ele>854.17</ele>
        <time>2021-08-03T15:15:42Z</time>
      </trkpt>
      <trkpt lat="42.29546" lon="-0.84204">
        <ele>853.27</ele>
        <time>2021-08-03T15:15:53Z</time>
      </trkpt>
      <trkpt lat="42.29537" lon="-0.84204">
        <ele>853.37</ele>
        <time>2021-08-03T15:15:54Z</time>
      </trkpt>
      <trkpt lat="42.29505" lon="-0.84233">
        <ele>855.14</ele>
        <time>2021-08-03T15:16:01Z</time>
      </trkpt>
      <trkpt lat="42.29454" lon="-0.84297">
        <ele>855.59</ele>
        <time>2021-08-03T15:16:10Z</time>
      </trkpt>
      <trkpt lat="42.29395" lon="-0.84334">
        <ele>852.09</ele>
        <time>2021-08-03T15:16:19Z</time>
      </trkpt>
      <trkpt lat="42.29381" lon="-0.84341">
        <ele>850.79</ele>
        <time>2021-08-03T15:16:22Z</time>
      </trkpt>
      <trkpt lat="42.29356" lon="-0.84368">
        <ele>848.66</ele>
        <time>2021-08-03T15:16:28Z</time>
      </trkpt>
      <trkpt lat="42.29351" lon="-0.84381">
        <ele>847.65</ele>
        <time>2021-08-03T15:16:30Z</time>
      </trkpt>
      <trkpt lat="42.29327" lon="-0.84408">
        <ele>845.65</ele>
        <time>2021-08-03T15:16:35Z</time>
      </trkpt>
      <trkpt lat="42.29285" lon="-0.84431">
        <ele>844.09</ele>
        <time>2021-08-03T15:16:42Z</time>
      </trkpt>
      <trkpt lat="42.29251" lon="-0.84425">
        <ele>844.49</ele>
        <time>2021-08-03T15:16:49Z</time>
      </trkpt>
      <trkpt lat="42.29211" lon="-0.84432">
        <ele>845.75</ele>
        <time>2021-08-03T15:16:55Z</time>
      </trkpt>
      <trkpt lat="42.29183" lon="-0.84442">
        <ele>845.66</ele>
        <time>2021-08-03T15:17:01Z</time>
      </trkpt>
      <trkpt lat="42.29129" lon="-0.84438">
        <ele>844.15</ele>
        <time>2021-08-03T15:17:08Z</time>
      </trkpt>
      <trkpt lat="42.29089" lon="-0.84453">
        <ele>843.69</ele>
        <time>2021-08-03T15:17:13Z</time>
      </trkpt>
      <trkpt lat="42.29054" lon="-0.84473">
        <ele>843.99</ele>
        <time>2021-08-03T15:17:22Z</time>
      </trkpt>
      <trkpt lat="42.29035" lon="-0.84485">
        <ele>844.71</ele>
        <time>2021-08-03T15:17:27Z</time>
      </trkpt>
      <trkpt lat="42.29016" lon="-0.84489">
        <ele>845.56</ele>
        <time>2021-08-03T15:17:32Z</time>
      </trkpt>
      <trkpt lat="42.29007" lon="-0.84488">
        <ele>846.15</ele>
        <time>2021-08-03T15:17:35Z</time>
      </trkpt>
      <trkpt lat="42.28987" lon="-0.8449">
        <ele>846.97</ele>
        <time>2021-08-03T15:17:39Z</time>
      </trkpt>
      <trkpt lat="42.28943" lon="-0.84508">
        <ele>847.9</ele>
        <time>2021-08-03T15:17:46Z</time>
      </trkpt>
      <trkpt lat="42.28921" lon="-0.84508">
        <ele>847.74</ele>
        <time>2021-08-03T15:17:50Z</time>
      </trkpt>
      <trkpt lat="42.28867" lon="-0.84512">
        <ele>848.09</ele>
        <time>2021-08-03T15:17:59Z</time>
      </trkpt>
      <trkpt lat="42.28844" lon="-0.84517">
        <ele>848.12</ele>
        <time>2021-08-03T15:18:03Z</time>
      </trkpt>
      <trkpt lat="42.28808" lon="-0.84516">
        <ele>847.95</ele>
        <time>2021-08-03T15:18:08Z</time>
      </trkpt>
      <trkpt lat="42.28797" lon="-0.84511">
        <ele>847.32</ele>
        <time>2021-08-03T15:18:10Z</time>
      </trkpt>
      <trkpt lat="42.28763" lon="-0.84492">
        <ele>845.44</ele>
        <time>2021-08-03T15:18:15Z</time>
      </trkpt>
      <trkpt lat="42.28747" lon="-0.84487">
        <ele>844.74</ele>
        <time>2021-08-03T15:18:17Z</time>
      </trkpt>
      <trkpt lat="42.28727" lon="-0.84478">
        <ele>843.69</ele>
        <time>2021-08-03T15:18:20Z</time>
      </trkpt>
      <trkpt lat="42.28687" lon="-0.84456">
        <ele>841.7</ele>
        <time>2021-08-03T15:18:28Z</time>
      </trkpt>
      <trkpt lat="42.28683" lon="-0.84461">
        <ele>841.11</ele>
        <time>2021-08-03T15:18:30Z</time>
      </trkpt>
      <trkpt lat="42.28657" lon="-0.84531">
        <ele>837.69</ele>
        <time>2021-08-03T15:18:40Z</time>
      </trkpt>
      <trkpt lat="42.28615" lon="-0.84603">
        <ele>834.56</ele>
        <time>2021-08-03T15:18:49Z</time>
      </trkpt>
      <trkpt lat="42.28588" lon="-0.84606">
        <ele>834.13</ele>
        <time>2021-08-03T15:18:55Z</time>
      </trkpt>
      <trkpt lat="42.28572" lon="-0.84597">
        <ele>833.99</ele>
        <time>2021-08-03T15:18:58Z</time>
      </trkpt>
      <trkpt lat="42.28549" lon="-0.84589">
        <ele>832.48</ele>
        <time>2021-08-03T15:19:02Z</time>
      </trkpt>
      <trkpt lat="42.28496" lon="-0.84564">
        <ele>828.7</ele>
        <time>2021-08-03T15:19:10Z</time>
      </trkpt>
      <trkpt lat="42.28489" lon="-0.84561">
        <ele>828.16</ele>
        <time>2021-08-03T15:19:11Z</time>
      </trkpt>
      <trkpt lat="42.28466" lon="-0.84545">
        <ele>826.7</ele>
        <time>2021-08-03T15:19:15Z</time>
      </trkpt>
      <trkpt lat="42.28439" lon="-0.84508">
        <ele>825.2</ele>
        <time>2021-08-03T15:19:21Z</time>
      </trkpt>
      <trkpt lat="42.28415" lon="-0.84498">
        <ele>824.92</ele>
        <time>2021-08-03T15:19:26Z</time>
      </trkpt>
      <trkpt lat="42.28384" lon="-0.84502">
        <ele>824.83</ele>
        <time>2021-08-03T15:19:32Z</time>
      </trkpt>
      <trkpt lat="42.28367" lon="-0.84514">
        <ele>824.79</ele>
        <time>2021-08-03T15:19:36Z</time>
      </trkpt>
      <trkpt lat="42.28349" lon="-0.84545">
        <ele>825.11</ele>
        <time>2021-08-03T15:19:42Z</time>
      </trkpt>
      <trkpt lat="42.28342" lon="-0.84554">
        <ele>825.19</ele>
        <time>2021-08-03T15:19:44Z</time>
      </trkpt>
      <trkpt lat="42.28304" lon="-0.84584">
        <ele>826.49</ele>
        <time>2021-08-03T15:19:53Z</time>
      </trkpt>
      <trkpt lat="42.28277" lon="-0.8461">
        <ele>828.07</ele>
        <time>2021-08-03T15:19:59Z</time>
      </trkpt>
      <trkpt lat="42.28256" lon="-0.84608">
        <ele>829.88</ele>
        <time>2021-08-03T15:20:04Z</time>
      </trkpt>
      <trkpt lat="42.28206" lon="-0.84591">
        <ele>831.18</ele>
        <time>2021-08-03T15:20:19Z</time>
      </trkpt>
      <trkpt lat="42.28145" lon="-0.84588">
        <ele>831.41</ele>
        <time>2021-08-03T15:20:28Z</time>
      </trkpt>
      <trkpt lat="42.2811" lon="-0.84607">
        <ele>832.57</ele>
        <time>2021-08-03T15:20:33Z</time>
      </trkpt>
      <trkpt lat="42.2807" lon="-0.84683">
        <ele>833.81</ele>
        <time>2021-08-03T15:20:42Z</time>
      </trkpt>
      <trkpt lat="42.28064" lon="-0.84702">
        <ele>833.94</ele>
        <time>2021-08-03T15:20:44Z</time>
      </trkpt>
      <trkpt lat="42.28022" lon="-0.84764">
        <ele>834.54</ele>
        <time>2021-08-03T15:20:51Z</time>
      </trkpt>
      <trkpt lat="42.27991" lon="-0.8477">
        <ele>835.53</ele>
        <time>2021-08-03T15:20:56Z</time>
      </trkpt>
      <trkpt lat="42.27983" lon="-0.84763">
        <ele>836.22</ele>
        <time>2021-08-03T15:20:58Z</time>
      </trkpt>
      <trkpt lat="42.27957" lon="-0.84758">
        <ele>838.02</ele>
        <time>2021-08-03T15:21:03Z</time>
      </trkpt>
      <trkpt lat="42.27943" lon="-0.84776">
        <ele>839.1</ele>
        <time>2021-08-03T15:21:08Z</time>
      </trkpt>
      <trkpt lat="42.27925" lon="-0.84861">
        <ele>840.91</ele>
        <time>2021-08-03T15:21:19Z</time>
      </trkpt>
      <trkpt lat="42.279" lon="-0.8492">
        <ele>841.77</ele>
        <time>2021-08-03T15:21:29Z</time>
      </trkpt>
      <trkpt lat="42.27861" lon="-0.84962">
        <ele>843.41</ele>
        <time>2021-08-03T15:21:37Z</time>
      </trkpt>
      <trkpt lat="42.2786" lon="-0.84981">
        <ele>843.52</ele>
        <time>2021-08-03T15:21:39Z</time>
      </trkpt>
      <trkpt lat="42.27847" lon="-0.85012">
        <ele>843.34</ele>
        <time>2021-08-03T15:21:48Z</time>
      </trkpt>
      <trkpt lat="42.27808" lon="-0.85023">
        <ele>842.87</ele>
        <time>2021-08-03T15:22:00Z</time>
      </trkpt>
      <trkpt lat="42.27785" lon="-0.85032">
        <ele>841.64</ele>
        <time>2021-08-03T15:22:11Z</time>
      </trkpt>
      <trkpt lat="42.27785" lon="-0.85032">
        <ele>840.09</ele>
        <time>2021-08-03T15:22:37Z</time>
      </trkpt>
      <trkpt lat="42.27762" lon="-0.85038">
        <ele>839.89</ele>
        <time>2021-08-03T15:24:05Z</time>
      </trkpt>
      <trkpt lat="42.27724" lon="-0.85038">
        <ele>837.71</ele>
        <time>2021-08-03T15:24:16Z</time>
      </trkpt>
      <trkpt lat="42.27689" lon="-0.85015">
        <ele>834.31</ele>
        <time>2021-08-03T15:24:27Z</time>
      </trkpt>
      <trkpt lat="42.27671" lon="-0.85007">
        <ele>832.68</ele>
        <time>2021-08-03T15:24:34Z</time>
      </trkpt>
      <trkpt lat="42.27649" lon="-0.84997">
        <ele>831.54</ele>
        <time>2021-08-03T15:24:39Z</time>
      </trkpt>
      <trkpt lat="42.27603" lon="-0.84988">
        <ele>828.07</ele>
        <time>2021-08-03T15:24:50Z</time>
      </trkpt>
      <trkpt lat="42.27585" lon="-0.84992">
        <ele>825.92</ele>
        <time>2021-08-03T15:24:56Z</time>
      </trkpt>
      <trkpt lat="42.27562" lon="-0.84995">
        <ele>824.82</ele>
        <time>2021-08-03T15:24:59Z</time>
      </trkpt>
      <trkpt lat="42.27529" lon="-0.84996">
        <ele>824.03</ele>
        <time>2021-08-03T15:25:02Z</time>
      </trkpt>
      <trkpt lat="42.27512" lon="-0.85">
        <ele>823.48</ele>
        <time>2021-08-03T15:25:04Z</time>
      </trkpt>
      <trkpt lat="42.27486" lon="-0.8501">
        <ele>823.02</ele>
        <time>2021-08-03T15:25:10Z</time>
      </trkpt>
      <trkpt lat="42.2746" lon="-0.85009">
        <ele>823.62</ele>
        <time>2021-08-03T15:25:14Z</time>
      </trkpt>
      <trkpt lat="42.27403" lon="-0.84991">
        <ele>825.76</ele>
        <time>2021-08-03T15:25:22Z</time>
      </trkpt>
      <trkpt lat="42.27368" lon="-0.84996">
        <ele>828.81</ele>
        <time>2021-08-03T15:25:31Z</time>
      </trkpt>
      <trkpt lat="42.27331" lon="-0.85001">
        <ele>830.38</ele>
        <time>2021-08-03T15:25:38Z</time>
      </trkpt>
      <trkpt lat="42.27284" lon="-0.85028">
        <ele>831.79</ele>
        <time>2021-08-03T15:25:49Z</time>
      </trkpt>
      <trkpt lat="42.27257" lon="-0.85075">
        <ele>832.37</ele>
        <time>2021-08-03T15:25:54Z</time>
      </trkpt>
      <trkpt lat="42.27217" lon="-0.85092">
        <ele>835.45</ele>
        <time>2021-08-03T15:26:02Z</time>
      </trkpt>
      <trkpt lat="42.27177" lon="-0.85084">
        <ele>836.44</ele>
        <time>2021-08-03T15:26:08Z</time>
      </trkpt>
      <trkpt lat="42.27145" lon="-0.85088">
        <ele>836.81</ele>
        <time>2021-08-03T15:26:13Z</time>
      </trkpt>
      <trkpt lat="42.2712" lon="-0.85101">
        <ele>836.96</ele>
        <time>2021-08-03T15:26:17Z</time>
      </trkpt>
      <trkpt lat="42.27077" lon="-0.85116">
        <ele>836.92</ele>
        <time>2021-08-03T15:26:23Z</time>
      </trkpt>
      <trkpt lat="42.27027" lon="-0.85149">
        <ele>836.76</ele>
        <time>2021-08-03T15:26:29Z</time>
      </trkpt>
      <trkpt lat="42.27" lon="-0.85159">
        <ele>836.46</ele>
        <time>2021-08-03T15:26:32Z</time>
      </trkpt>
      <trkpt lat="42.26969" lon="-0.85181">
        <ele>834.96</ele>
        <time>2021-08-03T15:26:37Z</time>
      </trkpt>
      <trkpt lat="42.26949" lon="-0.85205">
        <ele>832.04</ele>
        <time>2021-08-03T15:26:47Z</time>
      </trkpt>
      <trkpt lat="42.26843" lon="-0.85321">
        <ele>798.4</ele>
      </trkpt>
      <trkpt lat="42.26824" lon="-0.85328">
        <ele>799.6</ele>
      </trkpt>
      <trkpt lat="42.26781" lon="-0.8533">
        <ele>799.1</ele>
      </trkpt>
      <trkpt lat="42.26735" lon="-0.85342">
        <ele>798.5</ele>
      </trkpt>
      <trkpt lat="42.26707" lon="-0.85342">
        <ele>798.9</ele>
      </trkpt>
      <trkpt lat="42.26682" lon="-0.85331">
        <ele>798.5</ele>
      </trkpt>
      <trkpt lat="42.26625" lon="-0.85296">
        <ele>791.3</ele>
      </trkpt>
      <trkpt lat="42.26606" lon="-0.85291">
        <ele>791.1</ele>
      </trkpt>
      <trkpt lat="42.26573" lon="-0.85271">
        <ele>787.4</ele>
      </trkpt>
      <trkpt lat="42.26564" lon="-0.85271">
        <ele>785.9</ele>
      </trkpt>
      <trkpt lat="42.26507" lon="-0.85348">
        <ele>784.6</ele>
      </trkpt>
      <trkpt lat="42.26483" lon="-0.85357">
        <ele>782.7</ele>
      </trkpt>
      <trkpt lat="42.26449" lon="-0.85359">
        <ele>781.9</ele>
      </trkpt>
      <trkpt lat="42.26418" lon="-0.85376">
        <ele>783.1</ele>
      </trkpt>
      <trkpt lat="42.26384" lon="-0.85374">
        <ele>785.4</ele>
      </trkpt>
      <trkpt lat="42.26325" lon="-0.85355">
        <ele>784.9</ele>
      </trkpt>
      <trkpt lat="42.26285" lon="-0.85338">
        <ele>780.3</ele>
      </trkpt>
      <trkpt lat="42.26275" lon="-0.85347">
        <ele>780.8</ele>
      </trkpt>
      <trkpt lat="42.26267" lon="-0.85364">
        <ele>781.6</ele>
      </trkpt>
      <trkpt lat="42.26266" lon="-0.85411">
        <ele>784.7</ele>
      </trkpt>
      <trkpt lat="42.26243" lon="-0.85472">
        <ele>785.4</ele>
      </trkpt>
      <trkpt lat="42.26218" lon="-0.85497">
        <ele>784.4</ele>
      </trkpt>
      <trkpt lat="42.26173" lon="-0.85518">
        <ele>780.5</ele>
      </trkpt>
      <trkpt lat="42.26148" lon="-0.85521">
        <ele>778.2</ele>
      </trkpt>
      <trkpt lat="42.26099" lon="-0.85556">
        <ele>777.6</ele>
      </trkpt>
      <trkpt lat="42.26036" lon="-0.85579">
        <ele>779.7</ele>
      </trkpt>
      <trkpt lat="42.25989" lon="-0.85567">
        <ele>777.4</ele>
      </trkpt>
      <trkpt lat="42.25963" lon="-0.85567">
        <ele>778.8</ele>
      </trkpt>
      <trkpt lat="42.25931" lon="-0.85562">
        <ele>778.9</ele>
      </trkpt>
      <trkpt lat="42.25878" lon="-0.85541">
        <ele>773.8</ele>
      </trkpt>
      <trkpt lat="42.25771" lon="-0.85533">
        <ele>775.5</ele>
      </trkpt>
      <trkpt lat="42.25718" lon="-0.85505">
        <ele>773.6</ele>
      </trkpt>
      <trkpt lat="42.25658" lon="-0.85444">
        <ele>771.9</ele>
      </trkpt>
      <trkpt lat="42.25634" lon="-0.85433">
        <ele>770.5</ele>
      </trkpt>
      <trkpt lat="42.25587" lon="-0.85432">
        <ele>769.9</ele>
      </trkpt>
      <trkpt lat="42.25543" lon="-0.85387">
        <ele>768</ele>
      </trkpt>
      <trkpt lat="42.25514" lon="-0.85367">
        <ele>769.1</ele>
      </trkpt>
      <trkpt lat="42.25446" lon="-0.85351">
        <ele>770.7</ele>
      </trkpt>
      <trkpt lat="42.25408" lon="-0.85347">
        <ele>771.7</ele>
      </trkpt>
      <trkpt lat="42.25351" lon="-0.85392">
        <ele>770</ele>
      </trkpt>
      <trkpt lat="42.25332" lon="-0.85409">
        <ele>770</ele>
      </trkpt>
      <trkpt lat="42.25274" lon="-0.85396">
        <ele>767.2</ele>
      </trkpt>
      <trkpt lat="42.25243" lon="-0.85352">
        <ele>766.1</ele>
      </trkpt>
      <trkpt lat="42.25237" lon="-0.8531">
        <ele>767.8</ele>
      </trkpt>
      <trkpt lat="42.25205" lon="-0.85265">
        <ele>764.3</ele>
      </trkpt>
      <trkpt lat="42.25194" lon="-0.85229">
        <ele>763.9</ele>
      </trkpt>
      <trkpt lat="42.25174" lon="-0.85216">
        <ele>761.1</ele>
      </trkpt>
      <trkpt lat="42.25127" lon="-0.85203">
        <ele>757.6</ele>
      </trkpt>
      <trkpt lat="42.25114" lon="-0.85184">
        <ele>758.1</ele>
      </trkpt>
      <trkpt lat="42.25106" lon="-0.85156">
        <ele>758.6</ele>
      </trkpt>
      <trkpt lat="42.25097" lon="-0.85136">
        <ele>757.3</ele>
      </trkpt>
      <trkpt lat="42.25071" lon="-0.85111">
        <ele>755.5</ele>
      </trkpt>
      <trkpt lat="42.25044" lon="-0.85105">
        <ele>755.3</ele>
      </trkpt>
      <trkpt lat="42.24996" lon="-0.85101">
        <ele>755</ele>
      </trkpt>
      <trkpt lat="42.24958" lon="-0.85109">
        <ele>753.3</ele>
      </trkpt>
      <trkpt lat="42.24939" lon="-0.85122">
        <ele>751.7</ele>
      </trkpt>
      <trkpt lat="42.24933" lon="-0.85126">
        <ele>751.1</ele>
      </trkpt>
      <trkpt lat="42.24928" lon="-0.85133">
        <ele>750.3</ele>
      </trkpt>
      <trkpt lat="42.24902" lon="-0.85135">
        <ele>750.2</ele>
      </trkpt>
      <trkpt lat="42.24872" lon="-0.8513">
        <ele>751.5</ele>
      </trkpt>
      <trkpt lat="42.24839" lon="-0.85136">
        <ele>752.3</ele>
      </trkpt>
      <trkpt lat="42.24726" lon="-0.85189">
        <ele>756.5</ele>
      </trkpt>
      <trkpt lat="42.24687" lon="-0.85203">
        <ele>754.5</ele>
      </trkpt>
      <trkpt lat="42.24642" lon="-0.85197">
        <ele>755.9</ele>
      </trkpt>
      <trkpt lat="42.24623" lon="-0.85197">
        <ele>755.2</ele>
      </trkpt>
      <trkpt lat="42.24586" lon="-0.85203">
        <ele>752.7</ele>
      </trkpt>
      <trkpt lat="42.24564" lon="-0.85198">
        <ele>754.5</ele>
      </trkpt>
      <trkpt lat="42.24554" lon="-0.85193">
        <ele>755.8</ele>
      </trkpt>
      <trkpt lat="42.24547" lon="-0.85192">
        <ele>756.2</ele>
      </trkpt>
      <trkpt lat="42.24531" lon="-0.85195">
        <ele>756.3</ele>
      </trkpt>
      <trkpt lat="42.24515" lon="-0.85203">
        <ele>755.9</ele>
      </trkpt>
      <trkpt lat="42.24507" lon="-0.85211">
        <ele>755.3</ele>
      </trkpt>
      <trkpt lat="42.24492" lon="-0.85237">
        <ele>752.2</ele>
      </trkpt>
      <trkpt lat="42.24484" lon="-0.85259">
        <ele>750.2</ele>
      </trkpt>
      <trkpt lat="42.24477" lon="-0.85285">
        <ele>749.1</ele>
      </trkpt>
      <trkpt lat="42.24472" lon="-0.85313">
        <ele>748.1</ele>
      </trkpt>
      <trkpt lat="42.24468" lon="-0.85323">
        <ele>747.7</ele>
      </trkpt>
      <trkpt lat="42.24456" lon="-0.85333">
        <ele>747.5</ele>
      </trkpt>
      <trkpt lat="42.24451" lon="-0.8534">
        <ele>748.2</ele>
      </trkpt>
      <trkpt lat="42.24446" lon="-0.85341">
        <ele>748.3</ele>
      </trkpt>
      <trkpt lat="42.24442" lon="-0.85337">
        <ele>748</ele>
      </trkpt>
      <trkpt lat="42.2443" lon="-0.8532">
        <ele>748.1</ele>
      </trkpt>
      <trkpt lat="42.24405" lon="-0.85292">
        <ele>747</ele>
      </trkpt>
      <trkpt lat="42.24399" lon="-0.85278">
        <ele>746.2</ele>
      </trkpt>
      <trkpt lat="42.2439" lon="-0.85261">
        <ele>744.9</ele>
      </trkpt>
      <trkpt lat="42.24375" lon="-0.8524">
        <ele>742.7</ele>
      </trkpt>
      <trkpt lat="42.24367" lon="-0.8523">
        <ele>741.7</ele>
      </trkpt>
      <trkpt lat="42.24363" lon="-0.8522">
        <ele>741.3</ele>
      </trkpt>
      <trkpt lat="42.24358" lon="-0.85187">
        <ele>741.4</ele>
      </trkpt>
      <trkpt lat="42.24362" lon="-0.85165">
        <ele>742.6</ele>
      </trkpt>
      <trkpt lat="42.24362" lon="-0.8513">
        <ele>745.1</ele>
      </trkpt>
      <trkpt lat="42.24357" lon="-0.85122">
        <ele>745</ele>
      </trkpt>
      <trkpt lat="42.24331" lon="-0.8511">
        <ele>742.7</ele>
      </trkpt>
      <trkpt lat="42.24315" lon="-0.85106">
        <ele>742.9</ele>
      </trkpt>
      <trkpt lat="42.24286" lon="-0.85105">
        <ele>742.6</ele>
      </trkpt>
      <trkpt lat="42.24277" lon="-0.85108">
        <ele>742.1</ele>
      </trkpt>
      <trkpt lat="42.24265" lon="-0.85117">
        <ele>740.8</ele>
      </trkpt>
      <trkpt lat="42.24253" lon="-0.85118">
        <ele>740.5</ele>
      </trkpt>
      <trkpt lat="42.24224" lon="-0.85112">
        <ele>740.4</ele>
      </trkpt>
      <trkpt lat="42.24214" lon="-0.85109">
        <ele>740.4</ele>
      </trkpt>
      <trkpt lat="42.24209" lon="-0.85105">
        <ele>740.7</ele>
      </trkpt>
      <trkpt lat="42.24182" lon="-0.85076">
        <ele>741.7</ele>
      </trkpt>
      <trkpt lat="42.24179" lon="-0.85068">
        <ele>741.4</ele>
      </trkpt>
      <trkpt lat="42.24176" lon="-0.85056">
        <ele>741.1</ele>
      </trkpt>
      <trkpt lat="42.24176" lon="-0.85046">
        <ele>741</ele>
      </trkpt>
      <trkpt lat="42.24181" lon="-0.8503">
        <ele>741.3</ele>
      </trkpt>
      <trkpt lat="42.24204" lon="-0.8498">
        <ele>742.5</ele>
      </trkpt>
      <trkpt lat="42.24226" lon="-0.84951">
        <ele>742.6</ele>
      </trkpt>
      <trkpt lat="42.24247" lon="-0.84942">
        <ele>744.4</ele>
      </trkpt>
      <trkpt lat="42.24254" lon="-0.84936">
        <ele>744.6</ele>
      </trkpt>
      <trkpt lat="42.24259" lon="-0.84928">
        <ele>744.4</ele>
      </trkpt>
      <trkpt lat="42.24262" lon="-0.84903">
        <ele>743.8</ele>
      </trkpt>
      <trkpt lat="42.24266" lon="-0.84882">
        <ele>744.4</ele>
      </trkpt>
      <trkpt lat="42.24266" lon="-0.84874">
        <ele>744.4</ele>
      </trkpt>
      <trkpt lat="42.24265" lon="-0.84867">
        <ele>744.3</ele>
      </trkpt>
      <trkpt lat="42.24244" lon="-0.84838">
        <ele>740.9</ele>
      </trkpt>
      <trkpt lat="42.2424" lon="-0.84826">
        <ele>740.3</ele>
      </trkpt>
      <trkpt lat="42.24234" lon="-0.84792">
        <ele>740.1</ele>
      </trkpt>
      <trkpt lat="42.24228" lon="-0.84738">
        <ele>741</ele>
      </trkpt>
      <trkpt lat="42.24213" lon="-0.8471">
        <ele>740.5</ele>
      </trkpt>
      <trkpt lat="42.24208" lon="-0.84693">
        <ele>741.1</ele>
      </trkpt>
      <trkpt lat="42.24195" lon="-0.84682">
        <ele>740.4</ele>
      </trkpt>
      <trkpt lat="42.24181" lon="-0.84664">
        <ele>740.3</ele>
      </trkpt>
      <trkpt lat="42.24168" lon="-0.8463">
        <ele>739.5</ele>
      </trkpt>
      <trkpt lat="42.24161" lon="-0.84618">
        <ele>739.4</ele>
      </trkpt>
      <trkpt lat="42.24155" lon="-0.84622">
        <ele>739.2</ele>
      </trkpt>
      <trkpt lat="42.24137" lon="-0.84623">
        <ele>738.7</ele>
      </trkpt>
      <trkpt lat="42.24091" lon="-0.84614">
        <ele>738</ele>
      </trkpt>
      <trkpt lat="42.24083" lon="-0.84614">
        <ele>737.8</ele>
      </trkpt>
      <trkpt lat="42.24058" lon="-0.8462">
        <ele>738.1</ele>
      </trkpt>
      <trkpt lat="42.24028" lon="-0.84635">
        <ele>737.1</ele>
      </trkpt>
      <trkpt lat="42.24004" lon="-0.8464">
        <ele>736.8</ele>
      </trkpt>
      <trkpt lat="42.23997" lon="-0.8464">
        <ele>736.8</ele>
      </trkpt>
      <trkpt lat="42.23962" lon="-0.84627">
        <ele>737.8</ele>
      </trkpt>
      <trkpt lat="42.23946" lon="-0.84627">
        <ele>737.5</ele>
      </trkpt>
      <trkpt lat="42.23922" lon="-0.84625">
        <ele>737.1</ele>
      </trkpt>
      <trkpt lat="42.23902" lon="-0.8462">
        <ele>735.8</ele>
      </trkpt>
      <trkpt lat="42.23897" lon="-0.84616">
        <ele>735.6</ele>
      </trkpt>
      <trkpt lat="42.23893" lon="-0.84601">
        <ele>736.5</ele>
      </trkpt>
      <trkpt lat="42.23888" lon="-0.84575">
        <ele>737.7</ele>
      </trkpt>
      <trkpt lat="42.23884" lon="-0.84545">
        <ele>737.9</ele>
      </trkpt>
      <trkpt lat="42.23873" lon="-0.84504">
        <ele>738.3</ele>
      </trkpt>
      <trkpt lat="42.2387" lon="-0.84483">
        <ele>736.5</ele>
      </trkpt>
      <trkpt lat="42.2387" lon="-0.84462">
        <ele>734.2</ele>
      </trkpt>
      <trkpt lat="42.23868" lon="-0.8445">
        <ele>733.1</ele>
      </trkpt>
      <trkpt lat="42.23861" lon="-0.84438">
        <ele>732.6</ele>
      </trkpt>
      <trkpt lat="42.23834" lon="-0.84416">
        <ele>734.7</ele>
      </trkpt>
      <trkpt lat="42.23808" lon="-0.84381">
        <ele>731.2</ele>
      </trkpt>
      <trkpt lat="42.23786" lon="-0.84364">
        <ele>732.3</ele>
      </trkpt>
      <trkpt lat="42.2375" lon="-0.84328">
        <ele>734.8</ele>
      </trkpt>
      <trkpt lat="42.23731" lon="-0.84305">
        <ele>732.6</ele>
      </trkpt>
      <trkpt lat="42.23714" lon="-0.84278">
        <ele>730.6</ele>
      </trkpt>
      <trkpt lat="42.23693" lon="-0.84233">
        <ele>727.9</ele>
      </trkpt>
      <trkpt lat="42.23646" lon="-0.84161">
        <ele>725.6</ele>
      </trkpt>
      <trkpt lat="42.23639" lon="-0.84146">
        <ele>724.4</ele>
      </trkpt>
      <trkpt lat="42.2358" lon="-0.84099">
        <ele>727.2</ele>
      </trkpt>
      <trkpt lat="42.23515" lon="-0.84028">
        <ele>730.3</ele>
      </trkpt>
      <trkpt lat="42.235" lon="-0.84005">
        <ele>730.8</ele>
      </trkpt>
      <trkpt lat="42.23493" lon="-0.83976">
        <ele>727.4</ele>
      </trkpt>
      <trkpt lat="42.23484" lon="-0.83953">
        <ele>725.3</ele>
      </trkpt>
      <trkpt lat="42.23471" lon="-0.83937">
        <ele>724.7</ele>
      </trkpt>
      <trkpt lat="42.23459" lon="-0.83927">
        <ele>724.8</ele>
      </trkpt>
      <trkpt lat="42.23397" lon="-0.83894">
        <ele>724</ele>
      </trkpt>
      <trkpt lat="42.23388" lon="-0.83885">
        <ele>722.8</ele>
      </trkpt>
      <trkpt lat="42.23374" lon="-0.8388">
        <ele>722.6</ele>
      </trkpt>
      <trkpt lat="42.23362" lon="-0.83884">
        <ele>723.6</ele>
      </trkpt>
      <trkpt lat="42.23355" lon="-0.83887">
        <ele>724</ele>
      </trkpt>
      <trkpt lat="42.23326" lon="-0.83897">
        <ele>724.6</ele>
      </trkpt>
      <trkpt lat="42.23312" lon="-0.83898">
        <ele>724.3</ele>
      </trkpt>
      <trkpt lat="42.233" lon="-0.83894">
        <ele>724.3</ele>
      </trkpt>
      <trkpt lat="42.2325" lon="-0.83851">
        <ele>730.2</ele>
      </trkpt>
      <trkpt lat="42.23237" lon="-0.83847">
        <ele>730.8</ele>
      </trkpt>
      <trkpt lat="42.23217" lon="-0.83833">
        <ele>733</ele>
      </trkpt>
      <trkpt lat="42.23203" lon="-0.83827">
        <ele>733.8</ele>
      </trkpt>
      <trkpt lat="42.23187" lon="-0.83826">
        <ele>733.9</ele>
      </trkpt>
      <trkpt lat="42.23143" lon="-0.83832">
        <ele>734.5</ele>
      </trkpt>
      <trkpt lat="42.23132" lon="-0.83838">
        <ele>734.2</ele>
      </trkpt>
      <trkpt lat="42.2311" lon="-0.83854">
        <ele>733</ele>
      </trkpt>
      <trkpt lat="42.2309" lon="-0.83862">
        <ele>733.3</ele>
      </trkpt>
      <trkpt lat="42.23069" lon="-0.83862">
        <ele>732.7</ele>
      </trkpt>
      <trkpt lat="42.23063" lon="-0.83858">
        <ele>732.8</ele>
      </trkpt>
      <trkpt lat="42.2304" lon="-0.83825">
        <ele>734.9</ele>
      </trkpt>
      <trkpt lat="42.23017" lon="-0.83801">
        <ele>733.2</ele>
      </trkpt>
      <trkpt lat="42.22995" lon="-0.83782">
        <ele>732.3</ele>
      </trkpt>
      <trkpt lat="42.22958" lon="-0.83767">
        <ele>734.1</ele>
      </trkpt>
      <trkpt lat="42.22882" lon="-0.83747">
        <ele>736.3</ele>
      </trkpt>
      <trkpt lat="42.22866" lon="-0.83746">
        <ele>737.1</ele>
      </trkpt>
      <trkpt lat="42.22809" lon="-0.83736">
        <ele>737.6</ele>
      </trkpt>
      <trkpt lat="42.22798" lon="-0.83731">
        <ele>737</ele>
      </trkpt>
      <trkpt lat="42.22787" lon="-0.83722">
        <ele>735.7</ele>
      </trkpt>
      <trkpt lat="42.22767" lon="-0.837">
        <ele>732.9</ele>
      </trkpt>
      <trkpt lat="42.22756" lon="-0.83692">
        <ele>732.5</ele>
      </trkpt>
      <trkpt lat="42.22742" lon="-0.83687">
        <ele>732</ele>
      </trkpt>
      <trkpt lat="42.22715" lon="-0.83683">
        <ele>731</ele>
      </trkpt>
      <trkpt lat="42.2266" lon="-0.83699">
        <ele>730.3</ele>
      </trkpt>
      <trkpt lat="42.22657" lon="-0.83703">
        <ele>730.2</ele>
      </trkpt>
      <trkpt lat="42.22641" lon="-0.83705">
        <ele>729.8</ele>
      </trkpt>
      <trkpt lat="42.22621" lon="-0.83705">
        <ele>729.3</ele>
      </trkpt>
      <trkpt lat="42.22594" lon="-0.83699">
        <ele>729.3</ele>
      </trkpt>
      <trkpt lat="42.22563" lon="-0.83702">
        <ele>730.2</ele>
      </trkpt>
      <trkpt lat="42.22532" lon="-0.83711">
        <ele>731.4</ele>
      </trkpt>
      <trkpt lat="42.22516" lon="-0.83718">
        <ele>731.7</ele>
      </trkpt>
      <trkpt lat="42.22493" lon="-0.83737">
        <ele>731.3</ele>
      </trkpt>
      <trkpt lat="42.22483" lon="-0.83749">
        <ele>731.2</ele>
      </trkpt>
      <trkpt lat="42.22479" lon="-0.83759">
        <ele>730.2</ele>
      </trkpt>
      <trkpt lat="42.22474" lon="-0.83781">
        <ele>727.6</ele>
      </trkpt>
      <trkpt lat="42.22471" lon="-0.83786">
        <ele>727.3</ele>
      </trkpt>
      <trkpt lat="42.22467" lon="-0.8379">
        <ele>727.3</ele>
      </trkpt>
      <trkpt lat="42.22445" lon="-0.83797">
        <ele>729.4</ele>
      </trkpt>
      <trkpt lat="42.22396" lon="-0.83819">
        <ele>731.3</ele>
      </trkpt>
      <trkpt lat="42.22385" lon="-0.83828">
        <ele>730.9</ele>
      </trkpt>
      <trkpt lat="42.22348" lon="-0.83843">
        <ele>732.1</ele>
      </trkpt>
      <trkpt lat="42.2232" lon="-0.83843">
        <ele>730.9</ele>
      </trkpt>
      <trkpt lat="42.22315" lon="-0.83837">
        <ele>730.2</ele>
      </trkpt>
      <trkpt lat="42.2231" lon="-0.83852">
        <ele>729.5</ele>
      </trkpt>
      <trkpt lat="42.22304" lon="-0.83874">
        <ele>729</ele>
      </trkpt>
      <trkpt lat="42.22296" lon="-0.83891">
        <ele>728.3</ele>
      </trkpt>
      <trkpt lat="42.22289" lon="-0.839">
        <ele>727.8</ele>
      </trkpt>
      <trkpt lat="42.22259" lon="-0.83922">
        <ele>726.3</ele>
      </trkpt>
      <trkpt lat="42.22244" lon="-0.8394">
        <ele>726.8</ele>
      </trkpt>
      <trkpt lat="42.22229" lon="-0.83964">
        <ele>727.2</ele>
      </trkpt>
      <trkpt lat="42.22199" lon="-0.83995">
        <ele>725.8</ele>
      </trkpt>
      <trkpt lat="42.22186" lon="-0.84018">
        <ele>725.1</ele>
      </trkpt>
      <trkpt lat="42.22179" lon="-0.84023">
        <ele>724.4</ele>
      </trkpt>
      <trkpt lat="42.2214" lon="-0.84036">
        <ele>722.8</ele>
      </trkpt>
      <trkpt lat="42.22096" lon="-0.84059">
        <ele>723.9</ele>
      </trkpt>
      <trkpt lat="42.22089" lon="-0.84065">
        <ele>724.5</ele>
      </trkpt>
      <trkpt lat="42.22054" lon="-0.84113">
        <ele>727.4</ele>
      </trkpt>
      <trkpt lat="42.21981" lon="-0.8417">
        <ele>728.2</ele>
      </trkpt>
      <trkpt lat="42.21942" lon="-0.84234">
        <ele>761.16</ele>
        <time>2021-08-03T15:50:02Z</time>
      </trkpt>
      <trkpt lat="42.2194" lon="-0.84277">
        <ele>758.97</ele>
        <time>2021-08-03T15:50:06Z</time>
      </trkpt>
      <trkpt lat="42.21917" lon="-0.84336">
        <ele>756.49</ele>
        <time>2021-08-03T15:50:13Z</time>
      </trkpt>
      <trkpt lat="42.21851" lon="-0.84398">
        <ele>754.39</ele>
        <time>2021-08-03T15:50:20Z</time>
      </trkpt>
      <trkpt lat="42.21849" lon="-0.84461">
        <ele>750.75</ele>
        <time>2021-08-03T15:50:26Z</time>
      </trkpt>
      <trkpt lat="42.21877" lon="-0.84509">
        <ele>748.1</ele>
        <time>2021-08-03T15:50:32Z</time>
      </trkpt>
      <trkpt lat="42.2187" lon="-0.84572">
        <ele>745.37</ele>
        <time>2021-08-03T15:50:38Z</time>
      </trkpt>
      <trkpt lat="42.21826" lon="-0.84575">
        <ele>741.61</ele>
        <time>2021-08-03T15:50:43Z</time>
      </trkpt>
      <trkpt lat="42.21789" lon="-0.84547">
        <ele>738.48</ele>
        <time>2021-08-03T15:50:47Z</time>
      </trkpt>
      <trkpt lat="42.21772" lon="-0.84472">
        <ele>735.3</ele>
        <time>2021-08-03T15:50:52Z</time>
      </trkpt>
      <trkpt lat="42.21734" lon="-0.84422">
        <ele>732.63</ele>
        <time>2021-08-03T15:50:57Z</time>
      </trkpt>
      <trkpt lat="42.21706" lon="-0.84413">
        <ele>729.59</ele>
        <time>2021-08-03T15:51:01Z</time>
      </trkpt>
      <trkpt lat="42.2169" lon="-0.84418">
        <ele>727.81</ele>
        <time>2021-08-03T15:51:03Z</time>
      </trkpt>
      <trkpt lat="42.21637" lon="-0.84437">
        <ele>723.63</ele>
        <time>2021-08-03T15:51:09Z</time>
      </trkpt>
      <trkpt lat="42.21568" lon="-0.84465">
        <ele>721.7</ele>
        <time>2021-08-03T15:51:17Z</time>
      </trkpt>
      <trkpt lat="42.2153" lon="-0.8449">
        <ele>721.67</ele>
        <time>2021-08-03T15:51:21Z</time>
      </trkpt>
      <trkpt lat="42.21512" lon="-0.84512">
        <ele>721.68</ele>
        <time>2021-08-03T15:51:25Z</time>
      </trkpt>
      <trkpt lat="42.21504" lon="-0.84529">
        <ele>721.72</ele>
        <time>2021-08-03T15:51:27Z</time>
      </trkpt>
      <trkpt lat="42.21478" lon="-0.84549">
        <ele>722.31</ele>
        <time>2021-08-03T15:51:32Z</time>
      </trkpt>
      <trkpt lat="42.21464" lon="-0.84553">
        <ele>723</ele>
        <time>2021-08-03T15:51:34Z</time>
      </trkpt>
      <trkpt lat="42.21446" lon="-0.84615">
        <ele>725</ele>
        <time>2021-08-03T15:51:41Z</time>
      </trkpt>
      <trkpt lat="42.21451" lon="-0.84638">
        <ele>725.39</ele>
        <time>2021-08-03T15:51:43Z</time>
      </trkpt>
      <trkpt lat="42.21465" lon="-0.84705">
        <ele>726.44</ele>
        <time>2021-08-03T15:51:49Z</time>
      </trkpt>
      <trkpt lat="42.21449" lon="-0.84787">
        <ele>727.89</ele>
        <time>2021-08-03T15:51:56Z</time>
      </trkpt>
      <trkpt lat="42.21399" lon="-0.84796">
        <ele>729.3</ele>
        <time>2021-08-03T15:52:01Z</time>
      </trkpt>
      <trkpt lat="42.21331" lon="-0.84768">
        <ele>730.8</ele>
        <time>2021-08-03T15:52:06Z</time>
      </trkpt>
      <trkpt lat="42.21266" lon="-0.84757">
        <ele>731.43</ele>
        <time>2021-08-03T15:52:11Z</time>
      </trkpt>
      <trkpt lat="42.21202" lon="-0.84731">
        <ele>732.89</ele>
        <time>2021-08-03T15:52:17Z</time>
      </trkpt>
      <trkpt lat="42.2112" lon="-0.84701">
        <ele>733.71</ele>
        <time>2021-08-03T15:52:24Z</time>
      </trkpt>
      <trkpt lat="42.21084" lon="-0.84715">
        <ele>733.01</ele>
        <time>2021-08-03T15:52:28Z</time>
      </trkpt>
      <trkpt lat="42.21032" lon="-0.84783">
        <ele>729.77</ele>
        <time>2021-08-03T15:52:37Z</time>
      </trkpt>
      <trkpt lat="42.21036" lon="-0.84829">
        <ele>728.7</ele>
        <time>2021-08-03T15:52:40Z</time>
      </trkpt>
      <trkpt lat="42.21001" lon="-0.84923">
        <ele>726.16</ele>
        <time>2021-08-03T15:52:48Z</time>
      </trkpt>
      <trkpt lat="42.20973" lon="-0.84956">
        <ele>725.03</ele>
        <time>2021-08-03T15:52:52Z</time>
      </trkpt>
      <trkpt lat="42.2096" lon="-0.84987">
        <ele>723.72</ele>
        <time>2021-08-03T15:52:56Z</time>
      </trkpt>
      <trkpt lat="42.20956" lon="-0.85003">
        <ele>723.05</ele>
        <time>2021-08-03T15:52:58Z</time>
      </trkpt>
      <trkpt lat="42.20943" lon="-0.85031">
        <ele>721.7</ele>
        <time>2021-08-03T15:53:01Z</time>
      </trkpt>
      <trkpt lat="42.20877" lon="-0.85099">
        <ele>719.01</ele>
        <time>2021-08-03T15:53:08Z</time>
      </trkpt>
      <trkpt lat="42.20843" lon="-0.85173">
        <ele>718.26</ele>
        <time>2021-08-03T15:53:13Z</time>
      </trkpt>
      <trkpt lat="42.20788" lon="-0.85247">
        <ele>716.67</ele>
        <time>2021-08-03T15:53:20Z</time>
      </trkpt>
      <trkpt lat="42.20767" lon="-0.8528">
        <ele>716.48</ele>
        <time>2021-08-03T15:53:23Z</time>
      </trkpt>
      <trkpt lat="42.20755" lon="-0.85293">
        <ele>715.59</ele>
        <time>2021-08-03T15:53:27Z</time>
      </trkpt>
      <trkpt lat="42.20743" lon="-0.85316">
        <ele>714.32</ele>
        <time>2021-08-03T15:53:31Z</time>
      </trkpt>
      <trkpt lat="42.20725" lon="-0.85348">
        <ele>712.76</ele>
        <time>2021-08-03T15:53:36Z</time>
      </trkpt>
      <trkpt lat="42.20693" lon="-0.85381">
        <ele>710.71</ele>
        <time>2021-08-03T15:53:41Z</time>
      </trkpt>
      <trkpt lat="42.20681" lon="-0.85417">
        <ele>709.47</ele>
        <time>2021-08-03T15:53:45Z</time>
      </trkpt>
      <trkpt lat="42.20678" lon="-0.85541">
        <ele>708.73</ele>
        <time>2021-08-03T15:53:55Z</time>
      </trkpt>
      <trkpt lat="42.20699" lon="-0.85641">
        <ele>709.16</ele>
        <time>2021-08-03T15:54:02Z</time>
      </trkpt>
      <trkpt lat="42.20682" lon="-0.85695">
        <ele>709.28</ele>
        <time>2021-08-03T15:54:10Z</time>
      </trkpt>
      <trkpt lat="42.20666" lon="-0.8571">
        <ele>709.19</ele>
        <time>2021-08-03T15:54:13Z</time>
      </trkpt>
      <trkpt lat="42.20601" lon="-0.85745">
        <ele>708.51</ele>
        <time>2021-08-03T15:54:23Z</time>
      </trkpt>
      <trkpt lat="42.20588" lon="-0.85754">
        <ele>708.22</ele>
        <time>2021-08-03T15:54:25Z</time>
      </trkpt>
      <trkpt lat="42.20556" lon="-0.85808">
        <ele>707.25</ele>
        <time>2021-08-03T15:54:32Z</time>
      </trkpt>
      <trkpt lat="42.20547" lon="-0.85823">
        <ele>706.91</ele>
        <time>2021-08-03T15:54:34Z</time>
      </trkpt>
      <trkpt lat="42.20485" lon="-0.8588">
        <ele>706.6</ele>
        <time>2021-08-03T15:54:44Z</time>
      </trkpt>
      <trkpt lat="42.20478" lon="-0.85887">
        <ele>706.47</ele>
        <time>2021-08-03T15:54:45Z</time>
      </trkpt>
      <trkpt lat="42.20449" lon="-0.85877">
        <ele>704.21</ele>
        <time>2021-08-03T15:54:51Z</time>
      </trkpt>
      <trkpt lat="42.20429" lon="-0.85861">
        <ele>701.69</ele>
        <time>2021-08-03T15:54:56Z</time>
      </trkpt>
      <trkpt lat="42.20417" lon="-0.8585">
        <ele>699.6</ele>
        <time>2021-08-03T15:55:00Z</time>
      </trkpt>
      <trkpt lat="42.20364" lon="-0.85819">
        <ele>695.62</ele>
        <time>2021-08-03T15:55:07Z</time>
      </trkpt>
      <trkpt lat="42.20321" lon="-0.85791">
        <ele>692.01</ele>
        <time>2021-08-03T15:55:12Z</time>
      </trkpt>
      <trkpt lat="42.20305" lon="-0.85779">
        <ele>690.66</ele>
        <time>2021-08-03T15:55:14Z</time>
      </trkpt>
      <trkpt lat="42.20255" lon="-0.85786">
        <ele>687.69</ele>
        <time>2021-08-03T15:55:21Z</time>
      </trkpt>
      <trkpt lat="42.20246" lon="-0.85809">
        <ele>685.61</ele>
        <time>2021-08-03T15:55:26Z</time>
      </trkpt>
      <trkpt lat="42.20228" lon="-0.8584">
        <ele>684.05</ele>
        <time>2021-08-03T15:55:30Z</time>
      </trkpt>
      <trkpt lat="42.20209" lon="-0.85864">
        <ele>682.46</ele>
        <time>2021-08-03T15:55:33Z</time>
      </trkpt>
      <trkpt lat="42.20185" lon="-0.85868">
        <ele>680.83</ele>
        <time>2021-08-03T15:55:37Z</time>
      </trkpt>
      <trkpt lat="42.20163" lon="-0.85865">
        <ele>678.64</ele>
        <time>2021-08-03T15:55:42Z</time>
      </trkpt>
      <trkpt lat="42.20141" lon="-0.85877">
        <ele>676.96</ele>
        <time>2021-08-03T15:55:46Z</time>
      </trkpt>
      <trkpt lat="42.20112" lon="-0.85925">
        <ele>674.9</ele>
        <time>2021-08-03T15:55:52Z</time>
      </trkpt>
      <trkpt lat="42.20094" lon="-0.85941">
        <ele>673.84</ele>
        <time>2021-08-03T15:55:56Z</time>
      </trkpt>
      <trkpt lat="42.20084" lon="-0.8597">
        <ele>672.55</ele>
        <time>2021-08-03T15:56:02Z</time>
      </trkpt>
      <trkpt lat="42.20122" lon="-0.86007">
        <ele>671.78</ele>
        <time>2021-08-03T15:56:07Z</time>
      </trkpt>
      <trkpt lat="42.20132" lon="-0.8607">
        <ele>669.58</ele>
        <time>2021-08-03T15:56:13Z</time>
      </trkpt>
      <trkpt lat="42.20125" lon="-0.86082">
        <ele>669.06</ele>
        <time>2021-08-03T15:56:14Z</time>
      </trkpt>
      <trkpt lat="42.20107" lon="-0.86112">
        <ele>667.55</ele>
        <time>2021-08-03T15:56:17Z</time>
      </trkpt>
      <trkpt lat="42.20049" lon="-0.86156">
        <ele>664.47</ele>
        <time>2021-08-03T15:56:23Z</time>
      </trkpt>
      <trkpt lat="42.20032" lon="-0.86173">
        <ele>663.42</ele>
        <time>2021-08-03T15:56:25Z</time>
      </trkpt>
      <trkpt lat="42.19992" lon="-0.86193">
        <ele>659.78</ele>
        <time>2021-08-03T15:56:31Z</time>
      </trkpt>
      <trkpt lat="42.19994" lon="-0.86213">
        <ele>658.24</ele>
        <time>2021-08-03T15:56:34Z</time>
      </trkpt>
      <trkpt lat="42.20011" lon="-0.86258">
        <ele>656</ele>
        <time>2021-08-03T15:56:41Z</time>
      </trkpt>
      <trkpt lat="42.20043" lon="-0.86321">
        <ele>654.19</ele>
        <time>2021-08-03T15:56:46Z</time>
      </trkpt>
      <trkpt lat="42.20063" lon="-0.86384">
        <ele>652</ele>
        <time>2021-08-03T15:56:51Z</time>
      </trkpt>
      <trkpt lat="42.20045" lon="-0.86444">
        <ele>650.33</ele>
        <time>2021-08-03T15:56:57Z</time>
      </trkpt>
      <trkpt lat="42.20042" lon="-0.86456">
        <ele>650.11</ele>
        <time>2021-08-03T15:56:58Z</time>
      </trkpt>
      <trkpt lat="42.20034" lon="-0.86497">
        <ele>649.2</ele>
        <time>2021-08-03T15:57:01Z</time>
      </trkpt>
      <trkpt lat="42.20045" lon="-0.86571">
        <ele>646.87</ele>
        <time>2021-08-03T15:57:07Z</time>
      </trkpt>
      <trkpt lat="42.20034" lon="-0.8664">
        <ele>643.78</ele>
        <time>2021-08-03T15:57:14Z</time>
      </trkpt>
      <trkpt lat="42.20021" lon="-0.86645">
        <ele>642.66</ele>
        <time>2021-08-03T15:57:16Z</time>
      </trkpt>
      <trkpt lat="42.19944" lon="-0.86661">
        <ele>639.98</ele>
        <time>2021-08-03T15:57:24Z</time>
      </trkpt>
      <trkpt lat="42.19922" lon="-0.86719">
        <ele>637.98</ele>
        <time>2021-08-03T15:57:31Z</time>
      </trkpt>
      <trkpt lat="42.19931" lon="-0.86728">
        <ele>637.75</ele>
        <time>2021-08-03T15:57:32Z</time>
      </trkpt>
      <trkpt lat="42.20009" lon="-0.86824">
        <ele>635.91</ele>
        <time>2021-08-03T15:57:41Z</time>
      </trkpt>
      <trkpt lat="42.20029" lon="-0.86844">
        <ele>635.26</ele>
        <time>2021-08-03T15:57:43Z</time>
      </trkpt>
      <trkpt lat="42.20062" lon="-0.86863">
        <ele>633.88</ele>
        <time>2021-08-03T15:57:46Z</time>
      </trkpt>
      <trkpt lat="42.20121" lon="-0.86916">
        <ele>630.21</ele>
        <time>2021-08-03T15:57:53Z</time>
      </trkpt>
      <trkpt lat="42.20163" lon="-0.86994">
        <ele>626.63</ele>
        <time>2021-08-03T15:58:00Z</time>
      </trkpt>
      <trkpt lat="42.20181" lon="-0.87033">
        <ele>624.75</ele>
        <time>2021-08-03T15:58:03Z</time>
      </trkpt>
      <trkpt lat="42.20189" lon="-0.87105">
        <ele>620.71</ele>
        <time>2021-08-03T15:58:08Z</time>
      </trkpt>
      <trkpt lat="42.20202" lon="-0.87141">
        <ele>618.33</ele>
        <time>2021-08-03T15:58:11Z</time>
      </trkpt>
      <trkpt lat="42.20245" lon="-0.87218">
        <ele>614.47</ele>
        <time>2021-08-03T15:58:17Z</time>
      </trkpt>
      <trkpt lat="42.20269" lon="-0.87252">
        <ele>612.8</ele>
        <time>2021-08-03T15:58:20Z</time>
      </trkpt>
      <trkpt lat="42.20296" lon="-0.87282">
        <ele>611.22</ele>
        <time>2021-08-03T15:58:23Z</time>
      </trkpt>
      <trkpt lat="42.20304" lon="-0.87342">
        <ele>608.84</ele>
        <time>2021-08-03T15:58:28Z</time>
      </trkpt>
      <trkpt lat="42.20301" lon="-0.87388">
        <ele>607.29</ele>
        <time>2021-08-03T15:58:31Z</time>
      </trkpt>
      <trkpt lat="42.20329" lon="-0.87456">
        <ele>603.93</ele>
        <time>2021-08-03T15:58:36Z</time>
      </trkpt>
      <trkpt lat="42.20379" lon="-0.87503">
        <ele>600.38</ele>
        <time>2021-08-03T15:58:41Z</time>
      </trkpt>
      <trkpt lat="42.20405" lon="-0.87562">
        <ele>597.37</ele>
        <time>2021-08-03T15:58:46Z</time>
      </trkpt>
      <trkpt lat="42.20419" lon="-0.87608">
        <ele>595.26</ele>
        <time>2021-08-03T15:58:51Z</time>
      </trkpt>
      <trkpt lat="42.20422" lon="-0.87664">
        <ele>593.37</ele>
        <time>2021-08-03T15:58:56Z</time>
      </trkpt>
      <trkpt lat="42.20446" lon="-0.8773">
        <ele>592.34</ele>
        <time>2021-08-03T15:59:01Z</time>
      </trkpt>
      <trkpt lat="42.20484" lon="-0.8779">
        <ele>591.3</ele>
        <time>2021-08-03T15:59:06Z</time>
      </trkpt>
      <trkpt lat="42.20502" lon="-0.87863">
        <ele>589.56</ele>
        <time>2021-08-03T15:59:12Z</time>
      </trkpt>
      <trkpt lat="42.20505" lon="-0.87997">
        <ele>588.31</ele>
        <time>2021-08-03T15:59:21Z</time>
      </trkpt>
      <trkpt lat="42.20522" lon="-0.88133">
        <ele>586.76</ele>
        <time>2021-08-03T15:59:29Z</time>
      </trkpt>
      <trkpt lat="42.20539" lon="-0.8823">
        <ele>585.86</ele>
        <time>2021-08-03T15:59:34Z</time>
      </trkpt>
      <trkpt lat="42.20563" lon="-0.88322">
        <ele>584.38</ele>
        <time>2021-08-03T15:59:40Z</time>
      </trkpt>
      <trkpt lat="42.20545" lon="-0.88372">
        <ele>583.35</ele>
        <time>2021-08-03T15:59:44Z</time>
      </trkpt>
      <trkpt lat="42.20543" lon="-0.88422">
        <ele>582.15</ele>
        <time>2021-08-03T15:59:49Z</time>
      </trkpt>
      <trkpt lat="42.20568" lon="-0.88474">
        <ele>581.75</ele>
        <time>2021-08-03T15:59:56Z</time>
      </trkpt>
      <trkpt lat="42.20568" lon="-0.88479">
        <ele>581.26</ele>
        <time>2021-08-03T16:00:03Z</time>
      </trkpt>
      <trkpt lat="42.20568" lon="-0.88486">
        <ele>580.75</ele>
        <time>2021-08-03T16:00:13Z</time>
      </trkpt>
      <trkpt lat="42.20573" lon="-0.88561">
        <ele>580.88</ele>
        <time>2021-08-03T16:00:19Z</time>
      </trkpt>
      <trkpt lat="42.20555" lon="-0.88716">
        <ele>581.65</ele>
        <time>2021-08-03T16:00:26Z</time>
      </trkpt>
      <trkpt lat="42.2056" lon="-0.88906">
        <ele>581.59</ele>
        <time>2021-08-03T16:00:33Z</time>
      </trkpt>
      <trkpt lat="42.20572" lon="-0.89011">
        <ele>581.21</ele>
        <time>2021-08-03T16:00:37Z</time>
      </trkpt>
      <trkpt lat="42.20625" lon="-0.89094">
        <ele>579.58</ele>
        <time>2021-08-03T16:00:43Z</time>
      </trkpt>
      <trkpt lat="42.20678" lon="-0.89148">
        <ele>579.77</ele>
        <time>2021-08-03T16:00:48Z</time>
      </trkpt>
      <trkpt lat="42.20701" lon="-0.89158">
        <ele>580.05</ele>
        <time>2021-08-03T16:00:50Z</time>
      </trkpt>
      <trkpt lat="42.20728" lon="-0.89166">
        <ele>580.19</ele>
        <time>2021-08-03T16:00:52Z</time>
      </trkpt>
      <trkpt lat="42.20759" lon="-0.89215">
        <ele>579.38</ele>
        <time>2021-08-03T16:00:57Z</time>
      </trkpt>
      <trkpt lat="42.20746" lon="-0.89308">
        <ele>577.21</ele>
        <time>2021-08-03T16:01:02Z</time>
      </trkpt>
      <trkpt lat="42.20668" lon="-0.89472">
        <ele>577.47</ele>
        <time>2021-08-03T16:01:11Z</time>
      </trkpt>
      <trkpt lat="42.20658" lon="-0.89489">
        <ele>577.57</ele>
        <time>2021-08-03T16:01:12Z</time>
      </trkpt>
      <trkpt lat="42.2061" lon="-0.89536">
        <ele>577.56</ele>
        <time>2021-08-03T16:01:16Z</time>
      </trkpt>
      <trkpt lat="42.20578" lon="-0.89643">
        <ele>575.51</ele>
        <time>2021-08-03T16:01:22Z</time>
      </trkpt>
      <trkpt lat="42.20583" lon="-0.89688">
        <ele>573.26</ele>
        <time>2021-08-03T16:01:27Z</time>
      </trkpt>
      <trkpt lat="42.20583" lon="-0.89704">
        <ele>570.97</ele>
        <time>2021-08-03T16:01:32Z</time>
      </trkpt>
      <trkpt lat="42.20576" lon="-0.898">
        <ele>570.27</ele>
        <time>2021-08-03T16:01:38Z</time>
      </trkpt>
      <trkpt lat="42.2053" lon="-0.89901">
        <ele>570.05</ele>
        <time>2021-08-03T16:01:44Z</time>
      </trkpt>
      <trkpt lat="42.20522" lon="-0.89957">
        <ele>569.25</ele>
        <time>2021-08-03T16:01:48Z</time>
      </trkpt>
      <trkpt lat="42.20533" lon="-0.90084">
        <ele>567.54</ele>
        <time>2021-08-03T16:01:55Z</time>
      </trkpt>
      <trkpt lat="42.20544" lon="-0.90123">
        <ele>566.99</ele>
        <time>2021-08-03T16:01:57Z</time>
      </trkpt>
      <trkpt lat="42.20544" lon="-0.90197">
        <ele>565.63</ele>
        <time>2021-08-03T16:02:01Z</time>
      </trkpt>
      <trkpt lat="42.20546" lon="-0.90252">
        <ele>564.74</ele>
        <time>2021-08-03T16:02:04Z</time>
      </trkpt>
      <trkpt lat="42.20507" lon="-0.90343">
        <ele>564.54</ele>
        <time>2021-08-03T16:02:10Z</time>
      </trkpt>
      <trkpt lat="42.20469" lon="-0.90453">
        <ele>566.63</ele>
        <time>2021-08-03T16:02:17Z</time>
      </trkpt>
      <trkpt lat="42.20498" lon="-0.90535">
        <ele>567.48</ele>
        <time>2021-08-03T16:02:22Z</time>
      </trkpt>
      <trkpt lat="42.20506" lon="-0.90568">
        <ele>567.51</ele>
        <time>2021-08-03T16:02:24Z</time>
      </trkpt>
      <trkpt lat="42.20527" lon="-0.90654">
        <ele>564.76</ele>
        <time>2021-08-03T16:02:31Z</time>
      </trkpt>
      <trkpt lat="42.20506" lon="-0.90663">
        <ele>563.68</ele>
        <time>2021-08-03T16:02:33Z</time>
      </trkpt>
      <trkpt lat="42.20485" lon="-0.90674">
        <ele>562.78</ele>
        <time>2021-08-03T16:02:35Z</time>
      </trkpt>
      <trkpt lat="42.20442" lon="-0.9075">
        <ele>561.81</ele>
        <time>2021-08-03T16:02:41Z</time>
      </trkpt>
      <trkpt lat="42.2044" lon="-0.90789">
        <ele>561.89</ele>
        <time>2021-08-03T16:02:43Z</time>
      </trkpt>
      <trkpt lat="42.20422" lon="-0.90872">
        <ele>562.44</ele>
        <time>2021-08-03T16:02:48Z</time>
      </trkpt>
      <trkpt lat="42.20396" lon="-0.90921">
        <ele>563.29</ele>
        <time>2021-08-03T16:02:51Z</time>
      </trkpt>
      <trkpt lat="42.2034" lon="-0.90998">
        <ele>562.77</ele>
        <time>2021-08-03T16:02:58Z</time>
      </trkpt>
      <trkpt lat="42.20275" lon="-0.90996">
        <ele>561.58</ele>
        <time>2021-08-03T16:03:02Z</time>
      </trkpt>
      <trkpt lat="42.20219" lon="-0.90989">
        <ele>560.21</ele>
        <time>2021-08-03T16:03:05Z</time>
      </trkpt>
      <trkpt lat="42.20144" lon="-0.90994">
        <ele>558.24</ele>
        <time>2021-08-03T16:03:09Z</time>
      </trkpt>
      <trkpt lat="42.20086" lon="-0.90983">
        <ele>555.75</ele>
        <time>2021-08-03T16:03:12Z</time>
      </trkpt>
      <trkpt lat="42.20032" lon="-0.90998">
        <ele>551.27</ele>
        <time>2021-08-03T16:03:16Z</time>
      </trkpt>
      <trkpt lat="42.20026" lon="-0.91009">
        <ele>549.92</ele>
        <time>2021-08-03T16:03:17Z</time>
      </trkpt>
      <trkpt lat="42.19998" lon="-0.91001">
        <ele>543.55</ele>
        <time>2021-08-03T16:03:23Z</time>
      </trkpt>
      <trkpt lat="42.1999" lon="-0.91006">
        <ele>540.49</ele>
        <time>2021-08-03T16:03:28Z</time>
      </trkpt>
      <trkpt lat="42.19996" lon="-0.90996">
        <ele>539.05</ele>
        <time>2021-08-03T16:03:33Z</time>
      </trkpt>
      <trkpt lat="42.2" lon="-0.91008">
        <ele>538.54</ele>
        <time>2021-08-03T16:03:38Z</time>
      </trkpt>
      <trkpt lat="42.19993" lon="-0.90997">
        <ele>538.31</ele>
        <time>2021-08-03T16:03:43Z</time>
      </trkpt>
      <trkpt lat="42.19992" lon="-0.90997">
        <ele>538.41</ele>
        <time>2021-08-03T16:03:58Z</time>
      </trkpt>
      <trkpt lat="42.19992" lon="-0.90997">
        <ele>538.73</ele>
        <time>2021-08-03T16:04:19Z</time>
      </trkpt>
      <trkpt lat="42.19966" lon="-0.9099">
        <ele>539.28</ele>
        <time>2021-08-03T16:13:10Z</time>
      </trkpt>
      <trkpt lat="42.19985" lon="-0.90993">
        <ele>539.28</ele>
        <time>2021-08-03T16:13:51Z</time>
      </trkpt>
      <trkpt lat="42.19982" lon="-0.90993">
        <ele>539.28</ele>
        <time>2021-08-03T16:16:26Z</time>
      </trkpt>
      <trkpt lat="42.19982" lon="-0.90993">
        <ele>539.28</ele>
        <time>2021-08-03T16:18:18Z</time>
      </trkpt>
      <trkpt lat="42.19981" lon="-0.90992">
        <ele>539.28</ele>
        <time>2021-08-03T16:21:59Z</time>
      </trkpt>
      <trkpt lat="42.19982" lon="-0.90992">
        <ele>539.28</ele>
        <time>2021-08-03T16:26:35Z</time>
      </trkpt>
      <trkpt lat="42.19982" lon="-0.90992">
        <ele>539.28</ele>
        <time>2021-08-03T16:30:08Z</time>
      </trkpt>
      <trkpt lat="42.19982" lon="-0.90991">
        <ele>539.28</ele>
        <time>2021-08-03T16:34:13Z</time>
      </trkpt>
      <trkpt lat="42.19985" lon="-0.90991">
        <ele>539.28</ele>
        <time>2021-08-03T16:35:31Z</time>
      </trkpt>
      <trkpt lat="42.19988" lon="-0.9099">
        <ele>539.35</ele>
        <time>2021-08-03T16:35:37Z</time>
      </trkpt>
      <trkpt lat="42.20009" lon="-0.9101">
        <ele>539.45</ele>
        <time>2021-08-03T16:35:46Z</time>
      </trkpt>
      <trkpt lat="42.20009" lon="-0.91013">
        <ele>539.68</ele>
        <time>2021-08-03T16:35:58Z</time>
      </trkpt>
      <trkpt lat="42.2002" lon="-0.91035">
        <ele>539.9</ele>
        <time>2021-08-03T16:36:10Z</time>
      </trkpt>
      <trkpt lat="42.20023" lon="-0.91052">
        <ele>540.03</ele>
        <time>2021-08-03T16:36:20Z</time>
      </trkpt>
      <trkpt lat="42.20024" lon="-0.91052">
        <ele>539.87</ele>
        <time>2021-08-03T16:36:41Z</time>
      </trkpt>
      <trkpt lat="42.2003" lon="-0.91091">
        <ele>539.85</ele>
        <time>2021-08-03T16:36:47Z</time>
      </trkpt>
      <trkpt lat="42.20035" lon="-0.91103">
        <ele>539.87</ele>
        <time>2021-08-03T16:36:48Z</time>
      </trkpt>
      <trkpt lat="42.2004" lon="-0.91185">
        <ele>541.38</ele>
        <time>2021-08-03T16:36:55Z</time>
      </trkpt>
      <trkpt lat="42.20026" lon="-0.91197">
        <ele>542.76</ele>
        <time>2021-08-03T16:36:58Z</time>
      </trkpt>
      <trkpt lat="42.19931" lon="-0.91247">
        <ele>545.59</ele>
        <time>2021-08-03T16:37:06Z</time>
      </trkpt>
      <trkpt lat="42.19906" lon="-0.91267">
        <ele>546.14</ele>
        <time>2021-08-03T16:37:08Z</time>
      </trkpt>
      <trkpt lat="42.19853" lon="-0.91333">
        <ele>546.73</ele>
        <time>2021-08-03T16:37:13Z</time>
      </trkpt>
      <trkpt lat="42.19807" lon="-0.91376">
        <ele>546.41</ele>
        <time>2021-08-03T16:37:17Z</time>
      </trkpt>
      <trkpt lat="42.19784" lon="-0.91421">
        <ele>545.76</ele>
        <time>2021-08-03T16:37:21Z</time>
      </trkpt>
      <trkpt lat="42.19754" lon="-0.91462">
        <ele>545.02</ele>
        <time>2021-08-03T16:37:25Z</time>
      </trkpt>
      <trkpt lat="42.19657" lon="-0.91556">
        <ele>541.43</ele>
        <time>2021-08-03T16:37:36Z</time>
      </trkpt>
      <trkpt lat="42.19571" lon="-0.91651">
        <ele>540.16</ele>
        <time>2021-08-03T16:37:46Z</time>
      </trkpt>
      <trkpt lat="42.19559" lon="-0.91661">
        <ele>540.62</ele>
        <time>2021-08-03T16:37:51Z</time>
      </trkpt>
      <trkpt lat="42.1956" lon="-0.9166">
        <ele>540.89</ele>
        <time>2021-08-03T16:38:02Z</time>
      </trkpt>
      <trkpt lat="42.19576" lon="-0.91647">
        <ele>540.54</ele>
        <time>2021-08-03T16:38:14Z</time>
      </trkpt>
      <trkpt lat="42.19578" lon="-0.91646">
        <ele>540.35</ele>
        <time>2021-08-03T16:38:20Z</time>
      </trkpt>
      <trkpt lat="42.19556" lon="-0.91666">
        <ele>540.62</ele>
        <time>2021-08-03T16:38:32Z</time>
      </trkpt>
      <trkpt lat="42.19538" lon="-0.91679">
        <ele>541.07</ele>
        <time>2021-08-03T16:38:49Z</time>
      </trkpt>
      <trkpt lat="42.19497" lon="-0.91691">
        <ele>541.29</ele>
        <time>2021-08-03T16:38:58Z</time>
      </trkpt>
      <trkpt lat="42.19462" lon="-0.91695">
        <ele>541.65</ele>
        <time>2021-08-03T16:39:01Z</time>
      </trkpt>
      <trkpt lat="42.19328" lon="-0.91662">
        <ele>542.61</ele>
        <time>2021-08-03T16:39:09Z</time>
      </trkpt>
      <trkpt lat="42.1931" lon="-0.91656">
        <ele>542.61</ele>
        <time>2021-08-03T16:39:10Z</time>
      </trkpt>
      <trkpt lat="42.19239" lon="-0.91635">
        <ele>541.41</ele>
        <time>2021-08-03T16:39:14Z</time>
      </trkpt>
      <trkpt lat="42.19195" lon="-0.91607">
        <ele>539.78</ele>
        <time>2021-08-03T16:39:17Z</time>
      </trkpt>
      <trkpt lat="42.19121" lon="-0.91585">
        <ele>537.04</ele>
        <time>2021-08-03T16:39:22Z</time>
      </trkpt>
      <trkpt lat="42.19037" lon="-0.91613">
        <ele>535.01</ele>
        <time>2021-08-03T16:39:28Z</time>
      </trkpt>
      <trkpt lat="42.19008" lon="-0.91634">
        <ele>534.74</ele>
        <time>2021-08-03T16:39:30Z</time>
      </trkpt>
      <trkpt lat="42.18981" lon="-0.9166">
        <ele>534.54</ele>
        <time>2021-08-03T16:39:32Z</time>
      </trkpt>
      <trkpt lat="42.18937" lon="-0.91689">
        <ele>534.31</ele>
        <time>2021-08-03T16:39:35Z</time>
      </trkpt>
      <trkpt lat="42.18879" lon="-0.91792">
        <ele>532.96</ele>
        <time>2021-08-03T16:39:41Z</time>
      </trkpt>
      <trkpt lat="42.18839" lon="-0.91914">
        <ele>532.09</ele>
        <time>2021-08-03T16:39:46Z</time>
      </trkpt>
      <trkpt lat="42.18812" lon="-0.92021">
        <ele>531.83</ele>
        <time>2021-08-03T16:39:50Z</time>
      </trkpt>
      <trkpt lat="42.18781" lon="-0.92082">
        <ele>531.42</ele>
        <time>2021-08-03T16:39:53Z</time>
      </trkpt>
      <trkpt lat="42.18725" lon="-0.92101">
        <ele>530.32</ele>
        <time>2021-08-03T16:39:57Z</time>
      </trkpt>
      <trkpt lat="42.18692" lon="-0.9209">
        <ele>530.2</ele>
        <time>2021-08-03T16:39:59Z</time>
      </trkpt>
      <trkpt lat="42.18642" lon="-0.92088">
        <ele>531.12</ele>
        <time>2021-08-03T16:40:03Z</time>
      </trkpt>
      <trkpt lat="42.1858" lon="-0.92083">
        <ele>532.35</ele>
        <time>2021-08-03T16:40:07Z</time>
      </trkpt>
      <trkpt lat="42.18469" lon="-0.92117">
        <ele>534.54</ele>
        <time>2021-08-03T16:40:14Z</time>
      </trkpt>
      <trkpt lat="42.18439" lon="-0.92139">
        <ele>535.24</ele>
        <time>2021-08-03T16:40:16Z</time>
      </trkpt>
      <trkpt lat="42.18394" lon="-0.92202">
        <ele>536.13</ele>
        <time>2021-08-03T16:40:20Z</time>
      </trkpt>
      <trkpt lat="42.18343" lon="-0.92295">
        <ele>535.37</ele>
        <time>2021-08-03T16:40:27Z</time>
      </trkpt>
      <trkpt lat="42.18324" lon="-0.92346">
        <ele>533.67</ele>
        <time>2021-08-03T16:40:31Z</time>
      </trkpt>
      <trkpt lat="42.18296" lon="-0.92394">
        <ele>532.55</ele>
        <time>2021-08-03T16:40:35Z</time>
      </trkpt>
      <trkpt lat="42.18223" lon="-0.92549">
        <ele>531.4</ele>
        <time>2021-08-03T16:40:46Z</time>
      </trkpt>
      <trkpt lat="42.18186" lon="-0.92628">
        <ele>531.24</ele>
        <time>2021-08-03T16:40:51Z</time>
      </trkpt>
      <trkpt lat="42.18151" lon="-0.92674">
        <ele>531.07</ele>
        <time>2021-08-03T16:40:55Z</time>
      </trkpt>
      <trkpt lat="42.1813" lon="-0.92688">
        <ele>531</ele>
        <time>2021-08-03T16:40:57Z</time>
      </trkpt>
      <trkpt lat="42.18046" lon="-0.92795">
        <ele>530.2</ele>
        <time>2021-08-03T16:41:07Z</time>
      </trkpt>
      <trkpt lat="42.17993" lon="-0.92891">
        <ele>529.96</ele>
        <time>2021-08-03T16:41:15Z</time>
      </trkpt>
      <trkpt lat="42.17932" lon="-0.93037">
        <ele>529.42</ele>
        <time>2021-08-03T16:41:27Z</time>
      </trkpt>
      <trkpt lat="42.17898" lon="-0.93089">
        <ele>529.51</ele>
        <time>2021-08-03T16:41:31Z</time>
      </trkpt>
      <trkpt lat="42.17849" lon="-0.93147">
        <ele>529.75</ele>
        <time>2021-08-03T16:41:36Z</time>
      </trkpt>
      <trkpt lat="42.17826" lon="-0.93199">
        <ele>529.8</ele>
        <time>2021-08-03T16:41:40Z</time>
      </trkpt>
      <trkpt lat="42.17819" lon="-0.93225">
        <ele>529.8</ele>
        <time>2021-08-03T16:41:42Z</time>
      </trkpt>
      <trkpt lat="42.17795" lon="-0.93258">
        <ele>529.86</ele>
        <time>2021-08-03T16:41:46Z</time>
      </trkpt>
      <trkpt lat="42.17743" lon="-0.93298">
        <ele>530.54</ele>
        <time>2021-08-03T16:41:55Z</time>
      </trkpt>
      <trkpt lat="42.17667" lon="-0.93348">
        <ele>530.11</ele>
        <time>2021-08-03T16:42:02Z</time>
      </trkpt>
      <trkpt lat="42.17612" lon="-0.93402">
        <ele>528.28</ele>
        <time>2021-08-03T16:42:08Z</time>
      </trkpt>
      <trkpt lat="42.17578" lon="-0.93416">
        <ele>527.08</ele>
        <time>2021-08-03T16:42:12Z</time>
      </trkpt>
      <trkpt lat="42.17563" lon="-0.93418">
        <ele>526.7</ele>
        <time>2021-08-03T16:42:14Z</time>
      </trkpt>
      <trkpt lat="42.17532" lon="-0.93433">
        <ele>526.57</ele>
        <time>2021-08-03T16:42:18Z</time>
      </trkpt>
      <trkpt lat="42.17483" lon="-0.93451">
        <ele>527.88</ele>
        <time>2021-08-03T16:42:23Z</time>
      </trkpt>
      <trkpt lat="42.17452" lon="-0.93489">
        <ele>532.12</ele>
        <time>2021-08-03T16:42:28Z</time>
      </trkpt>
      <trkpt lat="42.17436" lon="-0.93513">
        <ele>534.73</ele>
        <time>2021-08-03T16:42:31Z</time>
      </trkpt>
      <trkpt lat="42.17415" lon="-0.93524">
        <ele>537.88</ele>
        <time>2021-08-03T16:42:35Z</time>
      </trkpt>
      <trkpt lat="42.17385" lon="-0.93527">
        <ele>542.06</ele>
        <time>2021-08-03T16:42:41Z</time>
      </trkpt>
      <trkpt lat="42.17352" lon="-0.93531">
        <ele>545.43</ele>
        <time>2021-08-03T16:42:46Z</time>
      </trkpt>
      <trkpt lat="42.17323" lon="-0.93529">
        <ele>548.62</ele>
        <time>2021-08-03T16:42:51Z</time>
      </trkpt>
      <trkpt lat="42.17308" lon="-0.93525">
        <ele>550.22</ele>
        <time>2021-08-03T16:42:54Z</time>
      </trkpt>
      <trkpt lat="42.17301" lon="-0.93547">
        <ele>552.39</ele>
        <time>2021-08-03T16:43:01Z</time>
      </trkpt>
      <trkpt lat="42.17309" lon="-0.9358">
        <ele>554.14</ele>
        <time>2021-08-03T16:43:20Z</time>
      </trkpt>
      <trkpt lat="42.17324" lon="-0.93657">
        <ele>555.39</ele>
        <time>2021-08-03T16:43:28Z</time>
      </trkpt>
      <trkpt lat="42.17341" lon="-0.93738">
        <ele>557.73</ele>
        <time>2021-08-03T16:43:37Z</time>
      </trkpt>
      <trkpt lat="42.17329" lon="-0.93763">
        <ele>559.67</ele>
        <time>2021-08-03T16:43:43Z</time>
      </trkpt>
      <trkpt lat="42.1726" lon="-0.93765">
        <ele>562.98</ele>
        <time>2021-08-03T16:43:52Z</time>
      </trkpt>
      <trkpt lat="42.17197" lon="-0.93755">
        <ele>566.26</ele>
        <time>2021-08-03T16:44:00Z</time>
      </trkpt>
      <trkpt lat="42.17188" lon="-0.93754">
        <ele>566.86</ele>
        <time>2021-08-03T16:44:02Z</time>
      </trkpt>
      <trkpt lat="42.17169" lon="-0.93781">
        <ele>569.36</ele>
        <time>2021-08-03T16:44:09Z</time>
      </trkpt>
      <trkpt lat="42.1717" lon="-0.93787">
        <ele>569.62</ele>
        <time>2021-08-03T16:44:10Z</time>
      </trkpt>
      <trkpt lat="42.17202" lon="-0.9382">
        <ele>571.73</ele>
        <time>2021-08-03T16:44:20Z</time>
      </trkpt>
      <trkpt lat="42.17224" lon="-0.93825">
        <ele>572.68</ele>
        <time>2021-08-03T16:44:24Z</time>
      </trkpt>
      <trkpt lat="42.17258" lon="-0.93871">
        <ele>574.94</ele>
        <time>2021-08-03T16:44:32Z</time>
      </trkpt>
      <trkpt lat="42.17248" lon="-0.93893">
        <ele>575.98</ele>
        <time>2021-08-03T16:44:35Z</time>
      </trkpt>
      <trkpt lat="42.17244" lon="-0.93957">
        <ele>578.35</ele>
        <time>2021-08-03T16:44:44Z</time>
      </trkpt>
      <trkpt lat="42.17291" lon="-0.93966">
        <ele>580.42</ele>
        <time>2021-08-03T16:44:51Z</time>
      </trkpt>
      <trkpt lat="42.17309" lon="-0.93951">
        <ele>581.2</ele>
        <time>2021-08-03T16:44:54Z</time>
      </trkpt>
      <trkpt lat="42.17342" lon="-0.93906">
        <ele>582.89</ele>
        <time>2021-08-03T16:45:00Z</time>
      </trkpt>
      <trkpt lat="42.17369" lon="-0.93884">
        <ele>584.39</ele>
        <time>2021-08-03T16:45:04Z</time>
      </trkpt>
      <trkpt lat="42.17402" lon="-0.93837">
        <ele>586.62</ele>
        <time>2021-08-03T16:45:11Z</time>
      </trkpt>
      <trkpt lat="42.17406" lon="-0.93819">
        <ele>587.07</ele>
        <time>2021-08-03T16:45:13Z</time>
      </trkpt>
      <trkpt lat="42.17411" lon="-0.93802">
        <ele>587.61</ele>
        <time>2021-08-03T16:45:15Z</time>
      </trkpt>
      <trkpt lat="42.17452" lon="-0.93776">
        <ele>590.05</ele>
        <time>2021-08-03T16:45:23Z</time>
      </trkpt>
      <trkpt lat="42.17487" lon="-0.93821">
        <ele>592.25</ele>
        <time>2021-08-03T16:45:30Z</time>
      </trkpt>
      <trkpt lat="42.1751" lon="-0.93865">
        <ele>594.53</ele>
        <time>2021-08-03T16:45:35Z</time>
      </trkpt>
      <trkpt lat="42.17572" lon="-0.93934">
        <ele>598.53</ele>
        <time>2021-08-03T16:45:44Z</time>
      </trkpt>
      <trkpt lat="42.17605" lon="-0.93974">
        <ele>601.66</ele>
        <time>2021-08-03T16:45:49Z</time>
      </trkpt>
      <trkpt lat="42.1761" lon="-0.93984">
        <ele>602.13</ele>
        <time>2021-08-03T16:45:50Z</time>
      </trkpt>
      <trkpt lat="42.17622" lon="-0.94041">
        <ele>604.72</ele>
        <time>2021-08-03T16:45:55Z</time>
      </trkpt>
      <trkpt lat="42.17628" lon="-0.94125">
        <ele>608.25</ele>
        <time>2021-08-03T16:46:03Z</time>
      </trkpt>
      <trkpt lat="42.17659" lon="-0.94162">
        <ele>610.32</ele>
        <time>2021-08-03T16:46:08Z</time>
      </trkpt>
      <trkpt lat="42.17708" lon="-0.94217">
        <ele>613.43</ele>
        <time>2021-08-03T16:46:15Z</time>
      </trkpt>
      <trkpt lat="42.17718" lon="-0.94238">
        <ele>614.33</ele>
        <time>2021-08-03T16:46:17Z</time>
      </trkpt>
      <trkpt lat="42.17729" lon="-0.94287">
        <ele>615.93</ele>
        <time>2021-08-03T16:46:21Z</time>
      </trkpt>
      <trkpt lat="42.17737" lon="-0.94339">
        <ele>618.03</ele>
        <time>2021-08-03T16:46:25Z</time>
      </trkpt>
      <trkpt lat="42.17739" lon="-0.94389">
        <ele>620.62</ele>
        <time>2021-08-03T16:46:30Z</time>
      </trkpt>
      <trkpt lat="42.17744" lon="-0.94417">
        <ele>621.9</ele>
        <time>2021-08-03T16:46:33Z</time>
      </trkpt>
      <trkpt lat="42.17739" lon="-0.94452">
        <ele>623.5</ele>
        <time>2021-08-03T16:46:37Z</time>
      </trkpt>
      <trkpt lat="42.17732" lon="-0.94473">
        <ele>624.2</ele>
        <time>2021-08-03T16:46:40Z</time>
      </trkpt>
      <trkpt lat="42.17711" lon="-0.94506">
        <ele>625.03</ele>
        <time>2021-08-03T16:46:46Z</time>
      </trkpt>
      <trkpt lat="42.1769" lon="-0.94528">
        <ele>625.63</ele>
        <time>2021-08-03T16:46:51Z</time>
      </trkpt>
      <trkpt lat="42.17684" lon="-0.9454">
        <ele>625.81</ele>
        <time>2021-08-03T16:46:53Z</time>
      </trkpt>
      <trkpt lat="42.17678" lon="-0.94575">
        <ele>625.98</ele>
        <time>2021-08-03T16:46:57Z</time>
      </trkpt>
      <trkpt lat="42.17679" lon="-0.94592">
        <ele>626.19</ele>
        <time>2021-08-03T16:46:59Z</time>
      </trkpt>
      <trkpt lat="42.17678" lon="-0.94614">
        <ele>626.27</ele>
        <time>2021-08-03T16:47:02Z</time>
      </trkpt>
      <trkpt lat="42.17693" lon="-0.94665">
        <ele>626.41</ele>
        <time>2021-08-03T16:47:08Z</time>
      </trkpt>
      <trkpt lat="42.17711" lon="-0.94691">
        <ele>626.61</ele>
        <time>2021-08-03T16:47:11Z</time>
      </trkpt>
      <trkpt lat="42.17749" lon="-0.94741">
        <ele>627.52</ele>
        <time>2021-08-03T16:47:18Z</time>
      </trkpt>
      <trkpt lat="42.17826" lon="-0.94778">
        <ele>629.68</ele>
        <time>2021-08-03T16:47:28Z</time>
      </trkpt>
      <trkpt lat="42.17857" lon="-0.94825">
        <ele>631.3</ele>
        <time>2021-08-03T16:47:33Z</time>
      </trkpt>
      <trkpt lat="42.17879" lon="-0.94904">
        <ele>634.41</ele>
        <time>2021-08-03T16:47:39Z</time>
      </trkpt>
      <trkpt lat="42.17874" lon="-0.94963">
        <ele>636.25</ele>
        <time>2021-08-03T16:47:44Z</time>
      </trkpt>
      <trkpt lat="42.17903" lon="-0.95063">
        <ele>639.66</ele>
        <time>2021-08-03T16:47:52Z</time>
      </trkpt>
      <trkpt lat="42.17919" lon="-0.95082">
        <ele>640.84</ele>
        <time>2021-08-03T16:47:54Z</time>
      </trkpt>
      <trkpt lat="42.17966" lon="-0.95151">
        <ele>644.41</ele>
        <time>2021-08-03T16:48:01Z</time>
      </trkpt>
      <trkpt lat="42.17971" lon="-0.95162">
        <ele>644.93</ele>
        <time>2021-08-03T16:48:02Z</time>
      </trkpt>
      <trkpt lat="42.17986" lon="-0.9521">
        <ele>646.56</ele>
        <time>2021-08-03T16:48:07Z</time>
      </trkpt>
      <trkpt lat="42.17978" lon="-0.95247">
        <ele>647.99</ele>
        <time>2021-08-03T16:48:12Z</time>
      </trkpt>
      <trkpt lat="42.17961" lon="-0.9528">
        <ele>649.15</ele>
        <time>2021-08-03T16:48:21Z</time>
      </trkpt>
      <trkpt lat="42.17923" lon="-0.95303">
        <ele>651.14</ele>
        <time>2021-08-03T16:48:29Z</time>
      </trkpt>
      <trkpt lat="42.17895" lon="-0.95339">
        <ele>653.16</ele>
        <time>2021-08-03T16:48:35Z</time>
      </trkpt>
      <trkpt lat="42.1786" lon="-0.9537">
        <ele>655.72</ele>
        <time>2021-08-03T16:48:43Z</time>
      </trkpt>
      <trkpt lat="42.1784" lon="-0.95378">
        <ele>656.75</ele>
        <time>2021-08-03T16:48:49Z</time>
      </trkpt>
      <trkpt lat="42.17825" lon="-0.95358">
        <ele>657.55</ele>
        <time>2021-08-03T16:48:52Z</time>
      </trkpt>
      <trkpt lat="42.17772" lon="-0.95338">
        <ele>659.8</ele>
        <time>2021-08-03T16:48:59Z</time>
      </trkpt>
      <trkpt lat="42.17698" lon="-0.95358">
        <ele>663.44</ele>
        <time>2021-08-03T16:49:07Z</time>
      </trkpt>
      <trkpt lat="42.17648" lon="-0.95367">
        <ele>665.97</ele>
        <time>2021-08-03T16:49:13Z</time>
      </trkpt>
      <trkpt lat="42.17633" lon="-0.95377">
        <ele>666.65</ele>
        <time>2021-08-03T16:49:15Z</time>
      </trkpt>
      <trkpt lat="42.17601" lon="-0.95375">
        <ele>668.51</ele>
        <time>2021-08-03T16:49:19Z</time>
      </trkpt>
      <trkpt lat="42.17552" lon="-0.95402">
        <ele>671.41</ele>
        <time>2021-08-03T16:49:27Z</time>
      </trkpt>
      <trkpt lat="42.17562" lon="-0.95474">
        <ele>673.6</ele>
        <time>2021-08-03T16:49:34Z</time>
      </trkpt>
      <trkpt lat="42.17585" lon="-0.95489">
        <ele>674.58</ele>
        <time>2021-08-03T16:49:37Z</time>
      </trkpt>
      <trkpt lat="42.17644" lon="-0.95507">
        <ele>677.29</ele>
        <time>2021-08-03T16:49:44Z</time>
      </trkpt>
      <trkpt lat="42.17693" lon="-0.95511">
        <ele>680.16</ele>
        <time>2021-08-03T16:49:51Z</time>
      </trkpt>
      <trkpt lat="42.17724" lon="-0.95531">
        <ele>682.35</ele>
        <time>2021-08-03T16:49:57Z</time>
      </trkpt>
      <trkpt lat="42.17769" lon="-0.95539">
        <ele>684.54</ele>
        <time>2021-08-03T16:50:03Z</time>
      </trkpt>
      <trkpt lat="42.17776" lon="-0.95534">
        <ele>684.84</ele>
        <time>2021-08-03T16:50:04Z</time>
      </trkpt>
      <trkpt lat="42.17791" lon="-0.9552">
        <ele>685.55</ele>
        <time>2021-08-03T16:50:06Z</time>
      </trkpt>
      <trkpt lat="42.17832" lon="-0.9553">
        <ele>688.5</ele>
        <time>2021-08-03T16:50:12Z</time>
      </trkpt>
      <trkpt lat="42.17848" lon="-0.95551">
        <ele>689.68</ele>
        <time>2021-08-03T16:50:15Z</time>
      </trkpt>
      <trkpt lat="42.17879" lon="-0.9556">
        <ele>691.33</ele>
        <time>2021-08-03T16:50:19Z</time>
      </trkpt>
      <trkpt lat="42.17894" lon="-0.95561">
        <ele>692.13</ele>
        <time>2021-08-03T16:50:21Z</time>
      </trkpt>
      <trkpt lat="42.17933" lon="-0.95582">
        <ele>694.22</ele>
        <time>2021-08-03T16:50:26Z</time>
      </trkpt>
      <trkpt lat="42.17964" lon="-0.95587">
        <ele>695.84</ele>
        <time>2021-08-03T16:50:30Z</time>
      </trkpt>
      <trkpt lat="42.17996" lon="-0.95584">
        <ele>697.51</ele>
        <time>2021-08-03T16:50:34Z</time>
      </trkpt>
      <trkpt lat="42.18019" lon="-0.95563">
        <ele>699.41</ele>
        <time>2021-08-03T16:50:38Z</time>
      </trkpt>
      <trkpt lat="42.18058" lon="-0.95507">
        <ele>703.45</ele>
        <time>2021-08-03T16:50:45Z</time>
      </trkpt>
      <trkpt lat="42.18064" lon="-0.95472">
        <ele>705.06</ele>
        <time>2021-08-03T16:50:48Z</time>
      </trkpt>
      <trkpt lat="42.18069" lon="-0.95434">
        <ele>706.13</ele>
        <time>2021-08-03T16:50:51Z</time>
      </trkpt>
      <trkpt lat="42.18084" lon="-0.9541">
        <ele>707.02</ele>
        <time>2021-08-03T16:50:54Z</time>
      </trkpt>
      <trkpt lat="42.18097" lon="-0.9536">
        <ele>707.55</ele>
        <time>2021-08-03T16:51:00Z</time>
      </trkpt>
      <trkpt lat="42.18106" lon="-0.9533">
        <ele>707.86</ele>
        <time>2021-08-03T16:51:03Z</time>
      </trkpt>
      <trkpt lat="42.18114" lon="-0.9531">
        <ele>708.36</ele>
        <time>2021-08-03T16:51:05Z</time>
      </trkpt>
      <trkpt lat="42.18153" lon="-0.95239">
        <ele>710.18</ele>
        <time>2021-08-03T16:51:13Z</time>
      </trkpt>
      <trkpt lat="42.18191" lon="-0.9525">
        <ele>711.1</ele>
        <time>2021-08-03T16:51:18Z</time>
      </trkpt>
      <trkpt lat="42.18217" lon="-0.95255">
        <ele>711.58</ele>
        <time>2021-08-03T16:51:22Z</time>
      </trkpt>
      <trkpt lat="42.18233" lon="-0.9525">
        <ele>711.96</ele>
        <time>2021-08-03T16:51:25Z</time>
      </trkpt>
      <trkpt lat="42.18281" lon="-0.9527">
        <ele>712.91</ele>
        <time>2021-08-03T16:51:33Z</time>
      </trkpt>
      <trkpt lat="42.18304" lon="-0.95279">
        <ele>713.28</ele>
        <time>2021-08-03T16:51:36Z</time>
      </trkpt>
      <trkpt lat="42.18343" lon="-0.95282">
        <ele>713.98</ele>
        <time>2021-08-03T16:51:41Z</time>
      </trkpt>
      <trkpt lat="42.18394" lon="-0.95274">
        <ele>714.93</ele>
        <time>2021-08-03T16:51:47Z</time>
      </trkpt>
      <trkpt lat="42.18425" lon="-0.95294">
        <ele>715.55</ele>
        <time>2021-08-03T16:51:51Z</time>
      </trkpt>
      <trkpt lat="42.18479" lon="-0.95343">
        <ele>716.97</ele>
        <time>2021-08-03T16:51:58Z</time>
      </trkpt>
      <trkpt lat="42.1856" lon="-0.95397">
        <ele>719.05</ele>
        <time>2021-08-03T16:52:08Z</time>
      </trkpt>
      <trkpt lat="42.18643" lon="-0.95425">
        <ele>721.12</ele>
        <time>2021-08-03T16:52:18Z</time>
      </trkpt>
      <trkpt lat="42.18666" lon="-0.95446">
        <ele>721.44</ele>
        <time>2021-08-03T16:52:21Z</time>
      </trkpt>
      <trkpt lat="42.18762" lon="-0.95492">
        <ele>718.85</ele>
        <time>2021-08-03T16:52:32Z</time>
      </trkpt>
      <trkpt lat="42.18839" lon="-0.95562">
        <ele>717.05</ele>
        <time>2021-08-03T16:52:42Z</time>
      </trkpt>
      <trkpt lat="42.18923" lon="-0.95622">
        <ele>718.97</ele>
        <time>2021-08-03T16:52:53Z</time>
      </trkpt>
      <trkpt lat="42.18966" lon="-0.9563">
        <ele>720.71</ele>
        <time>2021-08-03T16:52:58Z</time>
      </trkpt>
      <trkpt lat="42.19003" lon="-0.95664">
        <ele>722.81</ele>
        <time>2021-08-03T16:53:03Z</time>
      </trkpt>
      <trkpt lat="42.19015" lon="-0.95683">
        <ele>723.65</ele>
        <time>2021-08-03T16:53:05Z</time>
      </trkpt>
      <trkpt lat="42.19074" lon="-0.95709">
        <ele>725.45</ele>
        <time>2021-08-03T16:53:12Z</time>
      </trkpt>
      <trkpt lat="42.19094" lon="-0.95703">
        <ele>725.73</ele>
        <time>2021-08-03T16:53:14Z</time>
      </trkpt>
      <trkpt lat="42.19126" lon="-0.95695">
        <ele>726.32</ele>
        <time>2021-08-03T16:53:17Z</time>
      </trkpt>
      <trkpt lat="42.19157" lon="-0.95683">
        <ele>727.08</ele>
        <time>2021-08-03T16:53:20Z</time>
      </trkpt>
      <trkpt lat="42.19216" lon="-0.9568">
        <ele>729.54</ele>
        <time>2021-08-03T16:53:26Z</time>
      </trkpt>
      <trkpt lat="42.19286" lon="-0.95718">
        <ele>729.48</ele>
        <time>2021-08-03T16:53:34Z</time>
      </trkpt>
      <trkpt lat="42.19314" lon="-0.95774">
        <ele>728.08</ele>
        <time>2021-08-03T16:53:39Z</time>
      </trkpt>
      <trkpt lat="42.19341" lon="-0.95828">
        <ele>725.99</ele>
        <time>2021-08-03T16:53:44Z</time>
      </trkpt>
      <trkpt lat="42.19367" lon="-0.95868">
        <ele>723.24</ele>
        <time>2021-08-03T16:53:49Z</time>
      </trkpt>
      <trkpt lat="42.1941" lon="-0.95918">
        <ele>720.09</ele>
        <time>2021-08-03T16:53:55Z</time>
      </trkpt>
      <trkpt lat="42.19457" lon="-0.95948">
        <ele>717.69</ele>
        <time>2021-08-03T16:54:01Z</time>
      </trkpt>
      <trkpt lat="42.19479" lon="-0.95973">
        <ele>716.78</ele>
        <time>2021-08-03T16:54:05Z</time>
      </trkpt>
      <trkpt lat="42.19499" lon="-0.95987">
        <ele>716.32</ele>
        <time>2021-08-03T16:54:09Z</time>
      </trkpt>
      <trkpt lat="42.19511" lon="-0.95989">
        <ele>715.99</ele>
        <time>2021-08-03T16:54:11Z</time>
      </trkpt>
      <trkpt lat="42.19571" lon="-0.96006">
        <ele>713.28</ele>
        <time>2021-08-03T16:54:21Z</time>
      </trkpt>
      <trkpt lat="42.19596" lon="-0.9602">
        <ele>711.89</ele>
        <time>2021-08-03T16:54:25Z</time>
      </trkpt>
      <trkpt lat="42.19669" lon="-0.96058">
        <ele>708.07</ele>
        <time>2021-08-03T16:54:35Z</time>
      </trkpt>
      <trkpt lat="42.19677" lon="-0.96062">
        <ele>707.59</ele>
        <time>2021-08-03T16:54:36Z</time>
      </trkpt>
      <trkpt lat="42.19706" lon="-0.96089">
        <ele>705.96</ele>
        <time>2021-08-03T16:54:40Z</time>
      </trkpt>
      <trkpt lat="42.19759" lon="-0.96156">
        <ele>702.12</ele>
        <time>2021-08-03T16:54:48Z</time>
      </trkpt>
      <trkpt lat="42.19784" lon="-0.96172">
        <ele>700.78</ele>
        <time>2021-08-03T16:54:51Z</time>
      </trkpt>
      <trkpt lat="42.19806" lon="-0.96225">
        <ele>697.59</ele>
        <time>2021-08-03T16:54:57Z</time>
      </trkpt>
      <trkpt lat="42.19834" lon="-0.9624">
        <ele>695.86</ele>
        <time>2021-08-03T16:55:01Z</time>
      </trkpt>
      <trkpt lat="42.19888" lon="-0.96289">
        <ele>693.31</ele>
        <time>2021-08-03T16:55:08Z</time>
      </trkpt>
      <trkpt lat="42.19898" lon="-0.96323">
        <ele>691.96</ele>
        <time>2021-08-03T16:55:11Z</time>
      </trkpt>
      <trkpt lat="42.19904" lon="-0.96387">
        <ele>689.92</ele>
        <time>2021-08-03T16:55:16Z</time>
      </trkpt>
      <trkpt lat="42.19927" lon="-0.96413">
        <ele>687.57</ele>
        <time>2021-08-03T16:55:21Z</time>
      </trkpt>
      <trkpt lat="42.19935" lon="-0.9641">
        <ele>687.07</ele>
        <time>2021-08-03T16:55:22Z</time>
      </trkpt>
      <trkpt lat="42.19952" lon="-0.96403">
        <ele>686.2</ele>
        <time>2021-08-03T16:55:24Z</time>
      </trkpt>
      <trkpt lat="42.20009" lon="-0.96393">
        <ele>683.63</ele>
        <time>2021-08-03T16:55:30Z</time>
      </trkpt>
      <trkpt lat="42.20027" lon="-0.96387">
        <ele>682.79</ele>
        <time>2021-08-03T16:55:32Z</time>
      </trkpt>
      <trkpt lat="42.20103" lon="-0.96418">
        <ele>679.05</ele>
        <time>2021-08-03T16:55:40Z</time>
      </trkpt>
      <trkpt lat="42.20111" lon="-0.96422">
        <ele>678.2</ele>
        <time>2021-08-03T16:55:41Z</time>
      </trkpt>
      <trkpt lat="42.20165" lon="-0.96413">
        <ele>675.29</ele>
        <time>2021-08-03T16:55:47Z</time>
      </trkpt>
      <trkpt lat="42.2022" lon="-0.96401">
        <ele>672.46</ele>
        <time>2021-08-03T16:55:53Z</time>
      </trkpt>
      <trkpt lat="42.20248" lon="-0.96411">
        <ele>671.55</ele>
        <time>2021-08-03T16:55:56Z</time>
      </trkpt>
      <trkpt lat="42.20277" lon="-0.96434">
        <ele>669.38</ele>
        <time>2021-08-03T16:56:00Z</time>
      </trkpt>
      <trkpt lat="42.20299" lon="-0.96462">
        <ele>667.21</ele>
        <time>2021-08-03T16:56:04Z</time>
      </trkpt>
      <trkpt lat="42.20309" lon="-0.9648">
        <ele>663.99</ele>
        <time>2021-08-03T16:56:11Z</time>
      </trkpt>
      <trkpt lat="42.20312" lon="-0.96487">
        <ele>662.66</ele>
        <time>2021-08-03T16:56:18Z</time>
      </trkpt>
      <trkpt lat="42.20357" lon="-0.96491">
        <ele>661.95</ele>
        <time>2021-08-03T16:56:24Z</time>
      </trkpt>
      <trkpt lat="42.20406" lon="-0.96482">
        <ele>660.92</ele>
        <time>2021-08-03T16:56:29Z</time>
      </trkpt>
      <trkpt lat="42.20451" lon="-0.96517">
        <ele>659.41</ele>
        <time>2021-08-03T16:56:35Z</time>
      </trkpt>
      <trkpt lat="42.2044" lon="-0.96555">
        <ele>658.93</ele>
        <time>2021-08-03T16:56:38Z</time>
      </trkpt>
      <trkpt lat="42.20424" lon="-0.96616">
        <ele>658.98</ele>
        <time>2021-08-03T16:56:43Z</time>
      </trkpt>
      <trkpt lat="42.20445" lon="-0.96679">
        <ele>659.12</ele>
        <time>2021-08-03T16:56:50Z</time>
      </trkpt>
      <trkpt lat="42.20477" lon="-0.9668">
        <ele>658.02</ele>
        <time>2021-08-03T16:56:55Z</time>
      </trkpt>
      <trkpt lat="42.20525" lon="-0.96647">
        <ele>655.39</ele>
        <time>2021-08-03T16:57:07Z</time>
      </trkpt>
      <trkpt lat="42.20527" lon="-0.96645">
        <ele>654.29</ele>
        <time>2021-08-03T16:57:24Z</time>
      </trkpt>
      <trkpt lat="42.20536" lon="-0.96624">
        <ele>654.41</ele>
        <time>2021-08-03T16:57:51Z</time>
      </trkpt>
      <trkpt lat="42.20541" lon="-0.96596">
        <ele>654.61</ele>
        <time>2021-08-03T16:57:59Z</time>
      </trkpt>
      <trkpt lat="42.20541" lon="-0.96595">
        <ele>654.6</ele>
        <time>2021-08-03T16:58:06Z</time>
      </trkpt>
      <trkpt lat="42.20564" lon="-0.96603">
        <ele>654.81</ele>
        <time>2021-08-03T16:58:11Z</time>
      </trkpt>
      <trkpt lat="42.20602" lon="-0.96624">
        <ele>655.28</ele>
        <time>2021-08-03T16:58:15Z</time>
      </trkpt>
      <trkpt lat="42.20649" lon="-0.96625">
        <ele>655.64</ele>
        <time>2021-08-03T16:58:19Z</time>
      </trkpt>
      <trkpt lat="42.20679" lon="-0.96656">
        <ele>655.81</ele>
        <time>2021-08-03T16:58:23Z</time>
      </trkpt>
      <trkpt lat="42.20697" lon="-0.96747">
        <ele>655.14</ele>
        <time>2021-08-03T16:58:29Z</time>
      </trkpt>
      <trkpt lat="42.20731" lon="-0.96781">
        <ele>653.53</ele>
        <time>2021-08-03T16:58:34Z</time>
      </trkpt>
      <trkpt lat="42.20768" lon="-0.96769">
        <ele>652.22</ele>
        <time>2021-08-03T16:58:38Z</time>
      </trkpt>
      <trkpt lat="42.20792" lon="-0.96768">
        <ele>651.99</ele>
        <time>2021-08-03T16:58:40Z</time>
      </trkpt>
      <trkpt lat="42.20837" lon="-0.96759">
        <ele>651.91</ele>
        <time>2021-08-03T16:58:43Z</time>
      </trkpt>
      <trkpt lat="42.20906" lon="-0.96795">
        <ele>652.63</ele>
        <time>2021-08-03T16:58:48Z</time>
      </trkpt>
      <trkpt lat="42.20929" lon="-0.96826">
        <ele>653.2</ele>
        <time>2021-08-03T16:58:50Z</time>
      </trkpt>
      <trkpt lat="42.20965" lon="-0.96876">
        <ele>654.08</ele>
        <time>2021-08-03T16:58:55Z</time>
      </trkpt>
      <trkpt lat="42.20979" lon="-0.96883">
        <ele>652.43</ele>
        <time>2021-08-03T16:59:03Z</time>
      </trkpt>
      <trkpt lat="42.21005" lon="-0.96876">
        <ele>651.15</ele>
        <time>2021-08-03T16:59:14Z</time>
      </trkpt>
      <trkpt lat="42.21012" lon="-0.96875">
        <ele>651.04</ele>
        <time>2021-08-03T16:59:15Z</time>
      </trkpt>
      <trkpt lat="42.21094" lon="-0.96836">
        <ele>650.5</ele>
        <time>2021-08-03T16:59:22Z</time>
      </trkpt>
      <trkpt lat="42.2115" lon="-0.9685">
        <ele>650.36</ele>
        <time>2021-08-03T16:59:27Z</time>
      </trkpt>
      <trkpt lat="42.21196" lon="-0.96897">
        <ele>650.45</ele>
        <time>2021-08-03T16:59:32Z</time>
      </trkpt>
      <trkpt lat="42.21218" lon="-0.96895">
        <ele>650.47</ele>
        <time>2021-08-03T16:59:34Z</time>
      </trkpt>
      <trkpt lat="42.21308" lon="-0.96896">
        <ele>650.47</ele>
        <time>2021-08-03T16:59:40Z</time>
      </trkpt>
      <trkpt lat="42.21376" lon="-0.96936">
        <ele>648.81</ele>
        <time>2021-08-03T16:59:46Z</time>
      </trkpt>
      <trkpt lat="42.21366" lon="-0.97">
        <ele>645.97</ele>
        <time>2021-08-03T16:59:51Z</time>
      </trkpt>
      <trkpt lat="42.21347" lon="-0.97015">
        <ele>644.62</ele>
        <time>2021-08-03T16:59:53Z</time>
      </trkpt>
      <trkpt lat="42.21305" lon="-0.97061">
        <ele>641.14</ele>
        <time>2021-08-03T16:59:58Z</time>
      </trkpt>
      <trkpt lat="42.21255" lon="-0.97146">
        <ele>637.22</ele>
        <time>2021-08-03T17:00:03Z</time>
      </trkpt>
      <trkpt lat="42.21234" lon="-0.97177">
        <ele>635.87</ele>
        <time>2021-08-03T17:00:05Z</time>
      </trkpt>
      <trkpt lat="42.21224" lon="-0.97259">
        <ele>631.11</ele>
        <time>2021-08-03T17:00:10Z</time>
      </trkpt>
      <trkpt lat="42.21201" lon="-0.97315">
        <ele>627.55</ele>
        <time>2021-08-03T17:00:14Z</time>
      </trkpt>
      <trkpt lat="42.21165" lon="-0.97317">
        <ele>624.39</ele>
        <time>2021-08-03T17:00:18Z</time>
      </trkpt>
      <trkpt lat="42.21157" lon="-0.9735">
        <ele>621.82</ele>
        <time>2021-08-03T17:00:21Z</time>
      </trkpt>
      <trkpt lat="42.21162" lon="-0.97444">
        <ele>618.41</ele>
        <time>2021-08-03T17:00:26Z</time>
      </trkpt>
      <trkpt lat="42.21134" lon="-0.97514">
        <ele>615.1</ele>
        <time>2021-08-03T17:00:31Z</time>
      </trkpt>
      <trkpt lat="42.21098" lon="-0.97596">
        <ele>611.49</ele>
        <time>2021-08-03T17:00:36Z</time>
      </trkpt>
      <trkpt lat="42.21106" lon="-0.97647">
        <ele>608.06</ele>
        <time>2021-08-03T17:00:39Z</time>
      </trkpt>
      <trkpt lat="42.21113" lon="-0.97674">
        <ele>606.22</ele>
        <time>2021-08-03T17:00:41Z</time>
      </trkpt>
      <trkpt lat="42.21095" lon="-0.97739">
        <ele>601.61</ele>
        <time>2021-08-03T17:00:46Z</time>
      </trkpt>
      <trkpt lat="42.21048" lon="-0.97832">
        <ele>596.17</ele>
        <time>2021-08-03T17:00:52Z</time>
      </trkpt>
      <trkpt lat="42.21041" lon="-0.97875">
        <ele>593</ele>
        <time>2021-08-03T17:00:55Z</time>
      </trkpt>
      <trkpt lat="42.2103" lon="-0.97905">
        <ele>591.13</ele>
        <time>2021-08-03T17:00:57Z</time>
      </trkpt>
      <trkpt lat="42.21002" lon="-0.97985">
        <ele>586.29</ele>
        <time>2021-08-03T17:01:02Z</time>
      </trkpt>
      <trkpt lat="42.2098" lon="-0.98029">
        <ele>583.52</ele>
        <time>2021-08-03T17:01:05Z</time>
      </trkpt>
      <trkpt lat="42.20954" lon="-0.98055">
        <ele>579.27</ele>
        <time>2021-08-03T17:01:09Z</time>
      </trkpt>
      <trkpt lat="42.20935" lon="-0.98081">
        <ele>576</ele>
        <time>2021-08-03T17:01:12Z</time>
      </trkpt>
      <trkpt lat="42.2093" lon="-0.98147">
        <ele>572.32</ele>
        <time>2021-08-03T17:01:16Z</time>
      </trkpt>
      <trkpt lat="42.20951" lon="-0.98199">
        <ele>570.47</ele>
        <time>2021-08-03T17:01:19Z</time>
      </trkpt>
      <trkpt lat="42.20966" lon="-0.98314">
        <ele>566.19</ele>
        <time>2021-08-03T17:01:26Z</time>
      </trkpt>
      <trkpt lat="42.2095" lon="-0.98372">
        <ele>564.08</ele>
        <time>2021-08-03T17:01:29Z</time>
      </trkpt>
      <trkpt lat="42.20961" lon="-0.9846">
        <ele>560.61</ele>
        <time>2021-08-03T17:01:34Z</time>
      </trkpt>
      <trkpt lat="42.20961" lon="-0.98478">
        <ele>556.01</ele>
        <time>2021-08-03T17:01:39Z</time>
      </trkpt>
      <trkpt lat="42.20959" lon="-0.98482">
        <ele>554.24</ele>
        <time>2021-08-03T17:01:41Z</time>
      </trkpt>
      <trkpt lat="42.20919" lon="-0.98505">
        <ele>551.56</ele>
        <time>2021-08-03T17:01:47Z</time>
      </trkpt>
      <trkpt lat="42.20914" lon="-0.9852">
        <ele>551.14</ele>
        <time>2021-08-03T17:01:48Z</time>
      </trkpt>
      <trkpt lat="42.20882" lon="-0.98609">
        <ele>549.4</ele>
        <time>2021-08-03T17:01:53Z</time>
      </trkpt>
      <trkpt lat="42.20864" lon="-0.98722">
        <ele>547.44</ele>
        <time>2021-08-03T17:01:58Z</time>
      </trkpt>
      <trkpt lat="42.20855" lon="-0.98804">
        <ele>544.79</ele>
        <time>2021-08-03T17:02:03Z</time>
      </trkpt>
      <trkpt lat="42.20877" lon="-0.98809">
        <ele>543.67</ele>
        <time>2021-08-03T17:02:06Z</time>
      </trkpt>
      <trkpt lat="42.20954" lon="-0.98809">
        <ele>542.84</ele>
        <time>2021-08-03T17:02:14Z</time>
      </trkpt>
      <trkpt lat="42.21018" lon="-0.98818">
        <ele>542.83</ele>
        <time>2021-08-03T17:02:18Z</time>
      </trkpt>
      <trkpt lat="42.21061" lon="-0.98812">
        <ele>542.87</ele>
        <time>2021-08-03T17:02:21Z</time>
      </trkpt>
      <trkpt lat="42.21082" lon="-0.98853">
        <ele>542.11</ele>
        <time>2021-08-03T17:02:27Z</time>
      </trkpt>
      <trkpt lat="42.2106" lon="-0.98866">
        <ele>541.54</ele>
        <time>2021-08-03T17:02:31Z</time>
      </trkpt>
      <trkpt lat="42.21057" lon="-0.98867">
        <ele>541.34</ele>
        <time>2021-08-03T17:02:43Z</time>
      </trkpt>
      <trkpt lat="42.21029" lon="-0.98877">
        <ele>541.59</ele>
        <time>2021-08-03T17:02:58Z</time>
      </trkpt>
      <trkpt lat="42.2099" lon="-0.98906">
        <ele>542.28</ele>
        <time>2021-08-03T17:03:02Z</time>
      </trkpt>
      <trkpt lat="42.20926" lon="-0.98931">
        <ele>545.08</ele>
        <time>2021-08-03T17:03:08Z</time>
      </trkpt>
      <trkpt lat="42.20899" lon="-0.98973">
        <ele>546.78</ele>
        <time>2021-08-03T17:03:12Z</time>
      </trkpt>
      <trkpt lat="42.20863" lon="-0.99009">
        <ele>549.65</ele>
        <time>2021-08-03T17:03:17Z</time>
      </trkpt>
      <trkpt lat="42.20825" lon="-0.99054">
        <ele>552.51</ele>
        <time>2021-08-03T17:03:23Z</time>
      </trkpt>
      <trkpt lat="42.20808" lon="-0.99121">
        <ele>555.58</ele>
        <time>2021-08-03T17:03:29Z</time>
      </trkpt>
      <trkpt lat="42.20768" lon="-0.9917">
        <ele>558.33</ele>
        <time>2021-08-03T17:03:35Z</time>
      </trkpt>
      <trkpt lat="42.20799" lon="-0.99205">
        <ele>559.3</ele>
        <time>2021-08-03T17:03:39Z</time>
      </trkpt>
      <trkpt lat="42.20811" lon="-0.99206">
        <ele>559.53</ele>
        <time>2021-08-03T17:03:40Z</time>
      </trkpt>
      <trkpt lat="42.20833" lon="-0.99206">
        <ele>560.11</ele>
        <time>2021-08-03T17:03:42Z</time>
      </trkpt>
      <trkpt lat="42.20844" lon="-0.99238">
        <ele>560.74</ele>
        <time>2021-08-03T17:03:47Z</time>
      </trkpt>
      <trkpt lat="42.2084" lon="-0.99282">
        <ele>560.06</ele>
        <time>2021-08-03T17:03:55Z</time>
      </trkpt>
      <trkpt lat="42.20844" lon="-0.99292">
        <ele>559.3</ele>
        <time>2021-08-03T17:04:02Z</time>
      </trkpt>
      <trkpt lat="42.20869" lon="-0.99312">
        <ele>559.14</ele>
        <time>2021-08-03T17:04:07Z</time>
      </trkpt>
      <trkpt lat="42.20909" lon="-0.99371">
        <ele>558.82</ele>
        <time>2021-08-03T17:04:14Z</time>
      </trkpt>
      <trkpt lat="42.20888" lon="-0.99403">
        <ele>558.59</ele>
        <time>2021-08-03T17:04:18Z</time>
      </trkpt>
      <trkpt lat="42.2086" lon="-0.99449">
        <ele>558.86</ele>
        <time>2021-08-03T17:04:23Z</time>
      </trkpt>
      <trkpt lat="42.20805" lon="-0.99511">
        <ele>560.94</ele>
        <time>2021-08-03T17:04:29Z</time>
      </trkpt>
      <trkpt lat="42.20793" lon="-0.99515">
        <ele>561.45</ele>
        <time>2021-08-03T17:04:30Z</time>
      </trkpt>
      <trkpt lat="42.20773" lon="-0.99561">
        <ele>564.21</ele>
        <time>2021-08-03T17:04:37Z</time>
      </trkpt>
      <trkpt lat="42.20817" lon="-0.99575">
        <ele>566.25</ele>
        <time>2021-08-03T17:04:42Z</time>
      </trkpt>
      <trkpt lat="42.20821" lon="-0.99572">
        <ele>566.15</ele>
        <time>2021-08-03T17:04:54Z</time>
      </trkpt>
      <trkpt lat="42.20826" lon="-0.9957">
        <ele>565.97</ele>
        <time>2021-08-03T17:04:57Z</time>
      </trkpt>
      <trkpt lat="42.20863" lon="-0.99601">
        <ele>566</ele>
        <time>2021-08-03T17:05:03Z</time>
      </trkpt>
      <trkpt lat="42.20876" lon="-0.99629">
        <ele>565.87</ele>
        <time>2021-08-03T17:05:05Z</time>
      </trkpt>
      <trkpt lat="42.2089" lon="-0.99658">
        <ele>565.45</ele>
        <time>2021-08-03T17:05:07Z</time>
      </trkpt>
      <trkpt lat="42.20924" lon="-0.99783">
        <ele>564.17</ele>
        <time>2021-08-03T17:05:15Z</time>
      </trkpt>
      <trkpt lat="42.2093" lon="-0.99799">
        <ele>561.11</ele>
        <time>2021-08-03T17:05:24Z</time>
      </trkpt>
      <trkpt lat="42.20953" lon="-0.99831">
        <ele>559.75</ele>
        <time>2021-08-03T17:05:37Z</time>
      </trkpt>
      <trkpt lat="42.20969" lon="-0.99853">
        <ele>559.6</ele>
        <time>2021-08-03T17:05:39Z</time>
      </trkpt>
      <trkpt lat="42.20987" lon="-0.99943">
        <ele>557.02</ele>
        <time>2021-08-03T17:05:46Z</time>
      </trkpt>
      <trkpt lat="42.21014" lon="-0.9998">
        <ele>553.81</ele>
        <time>2021-08-03T17:05:51Z</time>
      </trkpt>
      <trkpt lat="42.21025" lon="-0.99978">
        <ele>553.33</ele>
        <time>2021-08-03T17:05:52Z</time>
      </trkpt>
      <trkpt lat="42.211" lon="-0.99994">
        <ele>550.75</ele>
        <time>2021-08-03T17:05:59Z</time>
      </trkpt>
      <trkpt lat="42.21148" lon="-0.99997">
        <ele>549.48</ele>
        <time>2021-08-03T17:06:04Z</time>
      </trkpt>
      <trkpt lat="42.21163" lon="-1.0006">
        <ele>547.63</ele>
        <time>2021-08-03T17:06:09Z</time>
      </trkpt>
      <trkpt lat="42.21205" lon="-1.00168">
        <ele>545.16</ele>
        <time>2021-08-03T17:06:17Z</time>
      </trkpt>
      <trkpt lat="42.21219" lon="-1.00194">
        <ele>544.79</ele>
        <time>2021-08-03T17:06:19Z</time>
      </trkpt>
      <trkpt lat="42.2124" lon="-1.00238">
        <ele>544.4</ele>
        <time>2021-08-03T17:06:22Z</time>
      </trkpt>
      <trkpt lat="42.21287" lon="-1.00303">
        <ele>544.46</ele>
        <time>2021-08-03T17:06:27Z</time>
      </trkpt>
      <trkpt lat="42.21355" lon="-1.00356">
        <ele>545.43</ele>
        <time>2021-08-03T17:06:33Z</time>
      </trkpt>
      <trkpt lat="42.21353" lon="-1.00385">
        <ele>545.88</ele>
        <time>2021-08-03T17:06:38Z</time>
      </trkpt>
      <trkpt lat="42.21308" lon="-1.00373">
        <ele>545.89</ele>
        <time>2021-08-03T17:06:43Z</time>
      </trkpt>
      <trkpt lat="42.21281" lon="-1.00349">
        <ele>546.02</ele>
        <time>2021-08-03T17:06:46Z</time>
      </trkpt>
      <trkpt lat="42.21224" lon="-1.00329">
        <ele>547.6</ele>
        <time>2021-08-03T17:06:53Z</time>
      </trkpt>
      <trkpt lat="42.21157" lon="-1.00312">
        <ele>551.01</ele>
        <time>2021-08-03T17:07:01Z</time>
      </trkpt>
      <trkpt lat="42.21132" lon="-1.00346">
        <ele>553.09</ele>
        <time>2021-08-03T17:07:05Z</time>
      </trkpt>
      <trkpt lat="42.21118" lon="-1.00363">
        <ele>554.37</ele>
        <time>2021-08-03T17:07:07Z</time>
      </trkpt>
      <trkpt lat="42.21106" lon="-1.00369">
        <ele>557.59</ele>
        <time>2021-08-03T17:07:14Z</time>
      </trkpt>
      <trkpt lat="42.21077" lon="-1.00327">
        <ele>559.31</ele>
        <time>2021-08-03T17:07:21Z</time>
      </trkpt>
      <trkpt lat="42.21019" lon="-1.00294">
        <ele>561.95</ele>
        <time>2021-08-03T17:07:28Z</time>
      </trkpt>
      <trkpt lat="42.20995" lon="-1.00313">
        <ele>563.35</ele>
        <time>2021-08-03T17:07:31Z</time>
      </trkpt>
      <trkpt lat="42.20965" lon="-1.0038">
        <ele>567.28</ele>
        <time>2021-08-03T17:07:38Z</time>
      </trkpt>
      <trkpt lat="42.20945" lon="-1.00393">
        <ele>568.38</ele>
        <time>2021-08-03T17:07:40Z</time>
      </trkpt>
      <trkpt lat="42.20882" lon="-1.00402">
        <ele>570.97</ele>
        <time>2021-08-03T17:07:46Z</time>
      </trkpt>
      <trkpt lat="42.20833" lon="-1.00423">
        <ele>573.4</ele>
        <time>2021-08-03T17:07:51Z</time>
      </trkpt>
      <trkpt lat="42.20811" lon="-1.00457">
        <ele>577.22</ele>
        <time>2021-08-03T17:07:56Z</time>
      </trkpt>
      <trkpt lat="42.2081" lon="-1.00492">
        <ele>579.69</ele>
        <time>2021-08-03T17:08:00Z</time>
      </trkpt>
      <trkpt lat="42.20815" lon="-1.00531">
        <ele>580.8</ele>
        <time>2021-08-03T17:08:04Z</time>
      </trkpt>
      <trkpt lat="42.20811" lon="-1.0056">
        <ele>581.05</ele>
        <time>2021-08-03T17:08:07Z</time>
      </trkpt>
      <trkpt lat="42.20771" lon="-1.00604">
        <ele>581.41</ele>
        <time>2021-08-03T17:08:14Z</time>
      </trkpt>
      <trkpt lat="42.20756" lon="-1.00625">
        <ele>581.4</ele>
        <time>2021-08-03T17:08:16Z</time>
      </trkpt>
      <trkpt lat="42.2071" lon="-1.0063">
        <ele>580.91</ele>
        <time>2021-08-03T17:08:22Z</time>
      </trkpt>
      <trkpt lat="42.20691" lon="-1.00635">
        <ele>580.48</ele>
        <time>2021-08-03T17:08:24Z</time>
      </trkpt>
      <trkpt lat="42.20676" lon="-1.00642">
        <ele>579.95</ele>
        <time>2021-08-03T17:08:26Z</time>
      </trkpt>
      <trkpt lat="42.20655" lon="-1.00675">
        <ele>578.08</ele>
        <time>2021-08-03T17:08:31Z</time>
      </trkpt>
      <trkpt lat="42.20656" lon="-1.00706">
        <ele>577.04</ele>
        <time>2021-08-03T17:08:35Z</time>
      </trkpt>
      <trkpt lat="42.20663" lon="-1.00752">
        <ele>577.47</ele>
        <time>2021-08-03T17:08:40Z</time>
      </trkpt>
      <trkpt lat="42.20677" lon="-1.00787">
        <ele>579.65</ele>
        <time>2021-08-03T17:08:45Z</time>
      </trkpt>
      <trkpt lat="42.20697" lon="-1.00811">
        <ele>580.44</ele>
        <time>2021-08-03T17:08:49Z</time>
      </trkpt>
      <trkpt lat="42.20714" lon="-1.00844">
        <ele>581.19</ele>
        <time>2021-08-03T17:08:53Z</time>
      </trkpt>
      <trkpt lat="42.20719" lon="-1.00866">
        <ele>581.8</ele>
        <time>2021-08-03T17:08:55Z</time>
      </trkpt>
      <trkpt lat="42.20719" lon="-1.00895">
        <ele>582.18</ele>
        <time>2021-08-03T17:08:59Z</time>
      </trkpt>
      <trkpt lat="42.20723" lon="-1.00932">
        <ele>582.3</ele>
        <time>2021-08-03T17:09:07Z</time>
      </trkpt>
      <trkpt lat="42.20752" lon="-1.00961">
        <ele>581.01</ele>
        <time>2021-08-03T17:09:13Z</time>
      </trkpt>
      <trkpt lat="42.20791" lon="-1.00965">
        <ele>577.99</ele>
        <time>2021-08-03T17:09:23Z</time>
      </trkpt>
      <trkpt lat="42.20849" lon="-1.00965">
        <ele>576.55</ele>
        <time>2021-08-03T17:09:37Z</time>
      </trkpt>
      <trkpt lat="42.2091" lon="-1.00972">
        <ele>576.03</ele>
        <time>2021-08-03T17:09:45Z</time>
      </trkpt>
      <trkpt lat="42.20936" lon="-1.00964">
        <ele>575.68</ele>
        <time>2021-08-03T17:09:49Z</time>
      </trkpt>
      <trkpt lat="42.20971" lon="-1.00957">
        <ele>575.73</ele>
        <time>2021-08-03T17:09:53Z</time>
      </trkpt>
      <trkpt lat="42.21025" lon="-1.00988">
        <ele>576.75</ele>
        <time>2021-08-03T17:10:01Z</time>
      </trkpt>
      <trkpt lat="42.21053" lon="-1.01013">
        <ele>576.76</ele>
        <time>2021-08-03T17:10:05Z</time>
      </trkpt>
      <trkpt lat="42.21064" lon="-1.01053">
        <ele>576.78</ele>
        <time>2021-08-03T17:10:11Z</time>
      </trkpt>
      <trkpt lat="42.21053" lon="-1.01097">
        <ele>577.63</ele>
        <time>2021-08-03T17:10:15Z</time>
      </trkpt>
      <trkpt lat="42.21069" lon="-1.01191">
        <ele>580.91</ele>
        <time>2021-08-03T17:10:23Z</time>
      </trkpt>
      <trkpt lat="42.21094" lon="-1.01241">
        <ele>584.08</ele>
        <time>2021-08-03T17:10:30Z</time>
      </trkpt>
      <trkpt lat="42.21095" lon="-1.01285">
        <ele>587.76</ele>
        <time>2021-08-03T17:10:36Z</time>
      </trkpt>
      <trkpt lat="42.21081" lon="-1.0128">
        <ele>588.64</ele>
        <time>2021-08-03T17:10:38Z</time>
      </trkpt>
      <trkpt lat="42.21066" lon="-1.01275">
        <ele>589.37</ele>
        <time>2021-08-03T17:10:40Z</time>
      </trkpt>
      <trkpt lat="42.21037" lon="-1.01275">
        <ele>589.68</ele>
        <time>2021-08-03T17:10:43Z</time>
      </trkpt>
      <trkpt lat="42.21011" lon="-1.01274">
        <ele>589.69</ele>
        <time>2021-08-03T17:10:46Z</time>
      </trkpt>
      <trkpt lat="42.20998" lon="-1.01269">
        <ele>589.62</ele>
        <time>2021-08-03T17:10:48Z</time>
      </trkpt>
      <trkpt lat="42.20969" lon="-1.01275">
        <ele>589.59</ele>
        <time>2021-08-03T17:10:53Z</time>
      </trkpt>
      <trkpt lat="42.20948" lon="-1.01292">
        <ele>589.54</ele>
        <time>2021-08-03T17:10:57Z</time>
      </trkpt>
      <trkpt lat="42.20941" lon="-1.01328">
        <ele>589.38</ele>
        <time>2021-08-03T17:11:03Z</time>
      </trkpt>
      <trkpt lat="42.20946" lon="-1.01342">
        <ele>588.86</ele>
        <time>2021-08-03T17:11:06Z</time>
      </trkpt>
      <trkpt lat="42.20926" lon="-1.01383">
        <ele>588.12</ele>
        <time>2021-08-03T17:11:12Z</time>
      </trkpt>
      <trkpt lat="42.20899" lon="-1.0139">
        <ele>586.95</ele>
        <time>2021-08-03T17:11:16Z</time>
      </trkpt>
      <trkpt lat="42.20836" lon="-1.01389">
        <ele>584.8</ele>
        <time>2021-08-03T17:11:23Z</time>
      </trkpt>
      <trkpt lat="42.20788" lon="-1.01391">
        <ele>582.91</ele>
        <time>2021-08-03T17:11:29Z</time>
      </trkpt>
      <trkpt lat="42.20742" lon="-1.01418">
        <ele>581.81</ele>
        <time>2021-08-03T17:11:35Z</time>
      </trkpt>
      <trkpt lat="42.20681" lon="-1.01394">
        <ele>581.18</ele>
        <time>2021-08-03T17:11:42Z</time>
      </trkpt>
      <trkpt lat="42.20654" lon="-1.01388">
        <ele>580.5</ele>
        <time>2021-08-03T17:11:45Z</time>
      </trkpt>
      <trkpt lat="42.20625" lon="-1.01389">
        <ele>580.13</ele>
        <time>2021-08-03T17:11:48Z</time>
      </trkpt>
      <trkpt lat="42.20607" lon="-1.01389">
        <ele>579.68</ele>
        <time>2021-08-03T17:11:50Z</time>
      </trkpt>
      <trkpt lat="42.20563" lon="-1.01415">
        <ele>578.46</ele>
        <time>2021-08-03T17:11:56Z</time>
      </trkpt>
      <trkpt lat="42.20536" lon="-1.01436">
        <ele>578.3</ele>
        <time>2021-08-03T17:11:59Z</time>
      </trkpt>
      <trkpt lat="42.20501" lon="-1.01434">
        <ele>577.57</ele>
        <time>2021-08-03T17:12:03Z</time>
      </trkpt>
      <trkpt lat="42.20472" lon="-1.01412">
        <ele>576.11</ele>
        <time>2021-08-03T17:12:08Z</time>
      </trkpt>
      <trkpt lat="42.20422" lon="-1.01411">
        <ele>572.96</ele>
        <time>2021-08-03T17:12:14Z</time>
      </trkpt>
      <trkpt lat="42.20382" lon="-1.01416">
        <ele>570.63</ele>
        <time>2021-08-03T17:12:19Z</time>
      </trkpt>
      <trkpt lat="42.20338" lon="-1.01432">
        <ele>567.04</ele>
        <time>2021-08-03T17:12:26Z</time>
      </trkpt>
      <trkpt lat="42.20332" lon="-1.01438">
        <ele>566.62</ele>
        <time>2021-08-03T17:12:27Z</time>
      </trkpt>
      <trkpt lat="42.20286" lon="-1.01478">
        <ele>563.9</ele>
        <time>2021-08-03T17:12:32Z</time>
      </trkpt>
      <trkpt lat="42.20219" lon="-1.0148">
        <ele>560.48</ele>
        <time>2021-08-03T17:12:39Z</time>
      </trkpt>
      <trkpt lat="42.20181" lon="-1.01507">
        <ele>559.44</ele>
        <time>2021-08-03T17:12:43Z</time>
      </trkpt>
      <trkpt lat="42.20153" lon="-1.01527">
        <ele>558.91</ele>
        <time>2021-08-03T17:12:47Z</time>
      </trkpt>
      <trkpt lat="42.20092" lon="-1.01528">
        <ele>559.16</ele>
        <time>2021-08-03T17:12:54Z</time>
      </trkpt>
      <trkpt lat="42.20071" lon="-1.01523">
        <ele>559.1</ele>
        <time>2021-08-03T17:12:56Z</time>
      </trkpt>
      <trkpt lat="42.2001" lon="-1.01547">
        <ele>557.97</ele>
        <time>2021-08-03T17:13:02Z</time>
      </trkpt>
      <trkpt lat="42.19945" lon="-1.0162">
        <ele>556.36</ele>
        <time>2021-08-03T17:13:10Z</time>
      </trkpt>
      <trkpt lat="42.19928" lon="-1.01648">
        <ele>555.45</ele>
        <time>2021-08-03T17:13:13Z</time>
      </trkpt>
      <trkpt lat="42.19894" lon="-1.01668">
        <ele>555.12</ele>
        <time>2021-08-03T17:13:17Z</time>
      </trkpt>
      <trkpt lat="42.19876" lon="-1.01672">
        <ele>554.76</ele>
        <time>2021-08-03T17:13:19Z</time>
      </trkpt>
      <trkpt lat="42.19865" lon="-1.01681">
        <ele>553.08</ele>
        <time>2021-08-03T17:13:25Z</time>
      </trkpt>
      <trkpt lat="42.19855" lon="-1.01702">
        <ele>552.5</ele>
        <time>2021-08-03T17:13:29Z</time>
      </trkpt>
      <trkpt lat="42.19825" lon="-1.01717">
        <ele>552.25</ele>
        <time>2021-08-03T17:13:33Z</time>
      </trkpt>
      <trkpt lat="42.19724" lon="-1.01707">
        <ele>550.94</ele>
        <time>2021-08-03T17:13:41Z</time>
      </trkpt>
      <trkpt lat="42.19693" lon="-1.01685">
        <ele>549.85</ele>
        <time>2021-08-03T17:13:45Z</time>
      </trkpt>
      <trkpt lat="42.19647" lon="-1.01705">
        <ele>548.7</ele>
        <time>2021-08-03T17:13:51Z</time>
      </trkpt>
      <trkpt lat="42.19633" lon="-1.01729">
        <ele>548.69</ele>
        <time>2021-08-03T17:13:53Z</time>
      </trkpt>
      <trkpt lat="42.1962" lon="-1.01747">
        <ele>548.74</ele>
        <time>2021-08-03T17:13:55Z</time>
      </trkpt>
      <trkpt lat="42.19571" lon="-1.0177">
        <ele>549.55</ele>
        <time>2021-08-03T17:14:00Z</time>
      </trkpt>
      <trkpt lat="42.1952" lon="-1.01737">
        <ele>551.54</ele>
        <time>2021-08-03T17:14:06Z</time>
      </trkpt>
      <trkpt lat="42.19508" lon="-1.01727">
        <ele>551.65</ele>
        <time>2021-08-03T17:14:07Z</time>
      </trkpt>
      <trkpt lat="42.19442" lon="-1.01695">
        <ele>550.88</ele>
        <time>2021-08-03T17:14:13Z</time>
      </trkpt>
      <trkpt lat="42.19433" lon="-1.01687">
        <ele>550.62</ele>
        <time>2021-08-03T17:14:14Z</time>
      </trkpt>
      <trkpt lat="42.19396" lon="-1.01656">
        <ele>548.81</ele>
        <time>2021-08-03T17:14:18Z</time>
      </trkpt>
      <trkpt lat="42.19309" lon="-1.01599">
        <ele>544.94</ele>
        <time>2021-08-03T17:14:25Z</time>
      </trkpt>
      <trkpt lat="42.19288" lon="-1.01588">
        <ele>544.14</ele>
        <time>2021-08-03T17:14:27Z</time>
      </trkpt>
      <trkpt lat="42.19262" lon="-1.01553">
        <ele>542.29</ele>
        <time>2021-08-03T17:14:31Z</time>
      </trkpt>
    </trkseg>
  </trk>
  <trk>
    <name><![CDATA[TOTAL 4x4 _11]]></name>
    <extensions>
      <line xmlns="http://www.topografix.com/GPX/gpx_style/0/2">
        <color>888800</color>
        <width>4</width>
      </line>
    </extensions>
    <trkseg>
      <trkpt lat="42.19246" lon="-1.01553">
        <ele>536.72</ele>
        <time>2021-08-03T17:23:31Z</time>
      </trkpt>
      <trkpt lat="42.19256" lon="-1.0164">
        <ele>536.59</ele>
        <time>2021-08-03T17:23:42Z</time>
      </trkpt>
      <trkpt lat="42.19278" lon="-1.01723">
        <ele>534.54</ele>
        <time>2021-08-03T17:23:51Z</time>
      </trkpt>
      <trkpt lat="42.19283" lon="-1.01738">
        <ele>533.61</ele>
        <time>2021-08-03T17:23:54Z</time>
      </trkpt>
      <trkpt lat="42.19293" lon="-1.01815">
        <ele>530.48</ele>
        <time>2021-08-03T17:24:03Z</time>
      </trkpt>
      <trkpt lat="42.19307" lon="-1.01852">
        <ele>529.21</ele>
        <time>2021-08-03T17:24:07Z</time>
      </trkpt>
      <trkpt lat="42.19329" lon="-1.01877">
        <ele>527.69</ele>
        <time>2021-08-03T17:24:15Z</time>
      </trkpt>
      <trkpt lat="42.1938" lon="-1.0192">
        <ele>527.78</ele>
        <time>2021-08-03T17:24:21Z</time>
      </trkpt>
      <trkpt lat="42.19459" lon="-1.01972">
        <ele>528.79</ele>
        <time>2021-08-03T17:24:28Z</time>
      </trkpt>
      <trkpt lat="42.19488" lon="-1.02013">
        <ele>528.97</ele>
        <time>2021-08-03T17:24:32Z</time>
      </trkpt>
      <trkpt lat="42.19513" lon="-1.02054">
        <ele>528.49</ele>
        <time>2021-08-03T17:24:37Z</time>
      </trkpt>
      <trkpt lat="42.1954" lon="-1.02095">
        <ele>527.75</ele>
        <time>2021-08-03T17:24:43Z</time>
      </trkpt>
      <trkpt lat="42.19598" lon="-1.02161">
        <ele>529.3</ele>
        <time>2021-08-03T17:24:53Z</time>
      </trkpt>
      <trkpt lat="42.19605" lon="-1.02165">
        <ele>529.66</ele>
        <time>2021-08-03T17:24:55Z</time>
      </trkpt>
      <trkpt lat="42.19629" lon="-1.02167">
        <ele>530.19</ele>
        <time>2021-08-03T17:24:59Z</time>
      </trkpt>
      <trkpt lat="42.19679" lon="-1.02172">
        <ele>528.83</ele>
        <time>2021-08-03T17:25:07Z</time>
      </trkpt>
      <trkpt lat="42.19683" lon="-1.02182">
        <ele>528.04</ele>
        <time>2021-08-03T17:25:09Z</time>
      </trkpt>
      <trkpt lat="42.19688" lon="-1.0219">
        <ele>527.25</ele>
        <time>2021-08-03T17:25:11Z</time>
      </trkpt>
      <trkpt lat="42.19695" lon="-1.02227">
        <ele>525.61</ele>
        <time>2021-08-03T17:25:15Z</time>
      </trkpt>
      <trkpt lat="42.19705" lon="-1.02267">
        <ele>524.96</ele>
        <time>2021-08-03T17:25:18Z</time>
      </trkpt>
      <trkpt lat="42.19734" lon="-1.02301">
        <ele>524.23</ele>
        <time>2021-08-03T17:25:22Z</time>
      </trkpt>
      <trkpt lat="42.19756" lon="-1.02325">
        <ele>524</ele>
        <time>2021-08-03T17:25:26Z</time>
      </trkpt>
      <trkpt lat="42.19797" lon="-1.02384">
        <ele>526.68</ele>
        <time>2021-08-03T17:25:33Z</time>
      </trkpt>
      <trkpt lat="42.19836" lon="-1.0245">
        <ele>529.35</ele>
        <time>2021-08-03T17:25:39Z</time>
      </trkpt>
      <trkpt lat="42.19868" lon="-1.02527">
        <ele>531.3</ele>
        <time>2021-08-03T17:25:44Z</time>
      </trkpt>
      <trkpt lat="42.1988" lon="-1.02587">
        <ele>532.06</ele>
        <time>2021-08-03T17:25:48Z</time>
      </trkpt>
      <trkpt lat="42.19935" lon="-1.02622">
        <ele>533.09</ele>
        <time>2021-08-03T17:25:55Z</time>
      </trkpt>
      <trkpt lat="42.1995" lon="-1.02641">
        <ele>534.39</ele>
        <time>2021-08-03T17:25:58Z</time>
      </trkpt>
      <trkpt lat="42.19972" lon="-1.02677">
        <ele>535.98</ele>
        <time>2021-08-03T17:26:03Z</time>
      </trkpt>
      <trkpt lat="42.20018" lon="-1.02711">
        <ele>537.68</ele>
        <time>2021-08-03T17:26:10Z</time>
      </trkpt>
      <trkpt lat="42.20048" lon="-1.02769">
        <ele>539.14</ele>
        <time>2021-08-03T17:26:19Z</time>
      </trkpt>
      <trkpt lat="42.20067" lon="-1.0277">
        <ele>539.68</ele>
        <time>2021-08-03T17:26:24Z</time>
      </trkpt>
      <trkpt lat="42.20111" lon="-1.02783">
        <ele>540.74</ele>
        <time>2021-08-03T17:26:35Z</time>
      </trkpt>
      <trkpt lat="42.20151" lon="-1.02802">
        <ele>541.97</ele>
        <time>2021-08-03T17:26:47Z</time>
      </trkpt>
      <trkpt lat="42.20185" lon="-1.02803">
        <ele>543.61</ele>
        <time>2021-08-03T17:27:00Z</time>
      </trkpt>
      <trkpt lat="42.20217" lon="-1.02831">
        <ele>545.38</ele>
        <time>2021-08-03T17:27:14Z</time>
      </trkpt>
      <trkpt lat="42.20242" lon="-1.02861">
        <ele>548.41</ele>
        <time>2021-08-03T17:27:26Z</time>
      </trkpt>
      <trkpt lat="42.20266" lon="-1.02879">
        <ele>551.54</ele>
        <time>2021-08-03T17:27:34Z</time>
      </trkpt>
      <trkpt lat="42.20274" lon="-1.02906">
        <ele>554.87</ele>
        <time>2021-08-03T17:27:42Z</time>
      </trkpt>
      <trkpt lat="42.20268" lon="-1.02924">
        <ele>556.77</ele>
        <time>2021-08-03T17:27:47Z</time>
      </trkpt>
      <trkpt lat="42.20232" lon="-1.02957">
        <ele>560.25</ele>
        <time>2021-08-03T17:27:57Z</time>
      </trkpt>
      <trkpt lat="42.20216" lon="-1.02984">
        <ele>561.88</ele>
        <time>2021-08-03T17:28:03Z</time>
      </trkpt>
      <trkpt lat="42.20215" lon="-1.03036">
        <ele>563.24</ele>
        <time>2021-08-03T17:28:10Z</time>
      </trkpt>
      <trkpt lat="42.20209" lon="-1.0308">
        <ele>564.76</ele>
        <time>2021-08-03T17:28:18Z</time>
      </trkpt>
      <trkpt lat="42.20207" lon="-1.03081">
        <ele>564.89</ele>
        <time>2021-08-03T17:28:19Z</time>
      </trkpt>
      <trkpt lat="42.20191" lon="-1.03097">
        <ele>565.62</ele>
        <time>2021-08-03T17:28:25Z</time>
      </trkpt>
      <trkpt lat="42.20149" lon="-1.03157">
        <ele>564.58</ele>
        <time>2021-08-03T17:28:35Z</time>
      </trkpt>
      <trkpt lat="42.2013" lon="-1.03237">
        <ele>564.18</ele>
        <time>2021-08-03T17:28:44Z</time>
      </trkpt>
      <trkpt lat="42.2013" lon="-1.03287">
        <ele>563.66</ele>
        <time>2021-08-03T17:28:49Z</time>
      </trkpt>
      <trkpt lat="42.20157" lon="-1.03324">
        <ele>563.14</ele>
        <time>2021-08-03T17:28:55Z</time>
      </trkpt>
      <trkpt lat="42.20213" lon="-1.03344">
        <ele>563.32</ele>
        <time>2021-08-03T17:29:02Z</time>
      </trkpt>
      <trkpt lat="42.20232" lon="-1.03345">
        <ele>563.34</ele>
        <time>2021-08-03T17:29:05Z</time>
      </trkpt>
      <trkpt lat="42.20258" lon="-1.03359">
        <ele>562.32</ele>
        <time>2021-08-03T17:29:10Z</time>
      </trkpt>
      <trkpt lat="42.20302" lon="-1.034">
        <ele>558.97</ele>
        <time>2021-08-03T17:29:19Z</time>
      </trkpt>
      <trkpt lat="42.20308" lon="-1.03402">
        <ele>558.66</ele>
        <time>2021-08-03T17:29:20Z</time>
      </trkpt>
      <trkpt lat="42.20327" lon="-1.03406">
        <ele>558.11</ele>
        <time>2021-08-03T17:29:23Z</time>
      </trkpt>
      <trkpt lat="42.20346" lon="-1.03414">
        <ele>557.49</ele>
        <time>2021-08-03T17:29:26Z</time>
      </trkpt>
      <trkpt lat="42.20368" lon="-1.0342">
        <ele>556.8</ele>
        <time>2021-08-03T17:29:29Z</time>
      </trkpt>
      <trkpt lat="42.20398" lon="-1.03462">
        <ele>555.97</ele>
        <time>2021-08-03T17:29:36Z</time>
      </trkpt>
      <trkpt lat="42.20373" lon="-1.03478">
        <ele>553.68</ele>
        <time>2021-08-03T17:29:42Z</time>
      </trkpt>
      <trkpt lat="42.20326" lon="-1.03466">
        <ele>550.43</ele>
        <time>2021-08-03T17:29:48Z</time>
      </trkpt>
      <trkpt lat="42.20301" lon="-1.03484">
        <ele>547.9</ele>
        <time>2021-08-03T17:29:53Z</time>
      </trkpt>
      <trkpt lat="42.20276" lon="-1.0353">
        <ele>545.64</ele>
        <time>2021-08-03T17:29:58Z</time>
      </trkpt>
      <trkpt lat="42.2024" lon="-1.03575">
        <ele>541.83</ele>
        <time>2021-08-03T17:30:04Z</time>
      </trkpt>
      <trkpt lat="42.2023" lon="-1.03586">
        <ele>540.39</ele>
        <time>2021-08-03T17:30:06Z</time>
      </trkpt>
      <trkpt lat="42.20238" lon="-1.03616">
        <ele>536.97</ele>
        <time>2021-08-03T17:30:11Z</time>
      </trkpt>
      <trkpt lat="42.20246" lon="-1.03617">
        <ele>536.27</ele>
        <time>2021-08-03T17:30:12Z</time>
      </trkpt>
      <trkpt lat="42.20314" lon="-1.03629">
        <ele>532.71</ele>
        <time>2021-08-03T17:30:20Z</time>
      </trkpt>
      <trkpt lat="42.20332" lon="-1.03642">
        <ele>531.19</ele>
        <time>2021-08-03T17:30:24Z</time>
      </trkpt>
      <trkpt lat="42.20336" lon="-1.03648">
        <ele>527.42</ele>
        <time>2021-08-03T17:30:30Z</time>
      </trkpt>
      <trkpt lat="42.20342" lon="-1.03658">
        <ele>525.68</ele>
        <time>2021-08-03T17:30:36Z</time>
      </trkpt>
      <trkpt lat="42.20352" lon="-1.03689">
        <ele>524.79</ele>
        <time>2021-08-03T17:30:40Z</time>
      </trkpt>
      <trkpt lat="42.20361" lon="-1.03726">
        <ele>523.61</ele>
        <time>2021-08-03T17:30:43Z</time>
      </trkpt>
      <trkpt lat="42.2038" lon="-1.0377">
        <ele>522.56</ele>
        <time>2021-08-03T17:30:46Z</time>
      </trkpt>
      <trkpt lat="42.20378" lon="-1.03857">
        <ele>519.42</ele>
        <time>2021-08-03T17:30:52Z</time>
      </trkpt>
      <trkpt lat="42.20371" lon="-1.0388">
        <ele>518.74</ele>
        <time>2021-08-03T17:30:54Z</time>
      </trkpt>
      <trkpt lat="42.20376" lon="-1.03908">
        <ele>516.65</ele>
        <time>2021-08-03T17:30:59Z</time>
      </trkpt>
      <trkpt lat="42.20387" lon="-1.03904">
        <ele>515.18</ele>
        <time>2021-08-03T17:31:03Z</time>
      </trkpt>
      <trkpt lat="42.20428" lon="-1.0389">
        <ele>512.31</ele>
        <time>2021-08-03T17:31:15Z</time>
      </trkpt>
      <trkpt lat="42.20431" lon="-1.0389">
        <ele>512.16</ele>
        <time>2021-08-03T17:31:16Z</time>
      </trkpt>
      <trkpt lat="42.20467" lon="-1.03905">
        <ele>511.12</ele>
        <time>2021-08-03T17:31:22Z</time>
      </trkpt>
      <trkpt lat="42.2049" lon="-1.03925">
        <ele>509.99</ele>
        <time>2021-08-03T17:31:26Z</time>
      </trkpt>
      <trkpt lat="42.20554" lon="-1.03956">
        <ele>507.23</ele>
        <time>2021-08-03T17:31:34Z</time>
      </trkpt>
      <trkpt lat="42.20628" lon="-1.03989">
        <ele>505.76</ele>
        <time>2021-08-03T17:31:43Z</time>
      </trkpt>
      <trkpt lat="42.20675" lon="-1.04002">
        <ele>505.67</ele>
        <time>2021-08-03T17:31:47Z</time>
      </trkpt>
      <trkpt lat="42.20716" lon="-1.03991">
        <ele>505.47</ele>
        <time>2021-08-03T17:31:51Z</time>
      </trkpt>
      <trkpt lat="42.20775" lon="-1.03954">
        <ele>505.06</ele>
        <time>2021-08-03T17:31:57Z</time>
      </trkpt>
      <trkpt lat="42.20801" lon="-1.03928">
        <ele>505.21</ele>
        <time>2021-08-03T17:32:00Z</time>
      </trkpt>
      <trkpt lat="42.20852" lon="-1.03901">
        <ele>506.45</ele>
        <time>2021-08-03T17:32:05Z</time>
      </trkpt>
      <trkpt lat="42.20968" lon="-1.03876">
        <ele>508.35</ele>
        <time>2021-08-03T17:32:16Z</time>
      </trkpt>
      <trkpt lat="42.2102" lon="-1.03852">
        <ele>508.7</ele>
        <time>2021-08-03T17:32:22Z</time>
      </trkpt>
      <trkpt lat="42.2104" lon="-1.03867">
        <ele>508.81</ele>
        <time>2021-08-03T17:32:27Z</time>
      </trkpt>
      <trkpt lat="42.21073" lon="-1.03911">
        <ele>508.32</ele>
        <time>2021-08-03T17:32:32Z</time>
      </trkpt>
      <trkpt lat="42.21097" lon="-1.03952">
        <ele>506.42</ele>
        <time>2021-08-03T17:32:37Z</time>
      </trkpt>
      <trkpt lat="42.2111" lon="-1.03993">
        <ele>505.46</ele>
        <time>2021-08-03T17:32:40Z</time>
      </trkpt>
      <trkpt lat="42.21123" lon="-1.04038">
        <ele>504.74</ele>
        <time>2021-08-03T17:32:43Z</time>
      </trkpt>
      <trkpt lat="42.2117" lon="-1.04088">
        <ele>505.13</ele>
        <time>2021-08-03T17:32:48Z</time>
      </trkpt>
      <trkpt lat="42.21203" lon="-1.04101">
        <ele>506.29</ele>
        <time>2021-08-03T17:32:51Z</time>
      </trkpt>
      <trkpt lat="42.21233" lon="-1.04138">
        <ele>509.72</ele>
        <time>2021-08-03T17:32:56Z</time>
      </trkpt>
      <trkpt lat="42.21249" lon="-1.04201">
        <ele>514.02</ele>
        <time>2021-08-03T17:33:02Z</time>
      </trkpt>
      <trkpt lat="42.213" lon="-1.04265">
        <ele>517.81</ele>
        <time>2021-08-03T17:33:08Z</time>
      </trkpt>
      <trkpt lat="42.21325" lon="-1.04276">
        <ele>519.01</ele>
        <time>2021-08-03T17:33:10Z</time>
      </trkpt>
      <trkpt lat="42.21359" lon="-1.0429">
        <ele>520.19</ele>
        <time>2021-08-03T17:33:13Z</time>
      </trkpt>
      <trkpt lat="42.2141" lon="-1.0437">
        <ele>522.15</ele>
        <time>2021-08-03T17:33:20Z</time>
      </trkpt>
      <trkpt lat="42.21472" lon="-1.04408">
        <ele>523.49</ele>
        <time>2021-08-03T17:33:26Z</time>
      </trkpt>
      <trkpt lat="42.21488" lon="-1.04422">
        <ele>523.87</ele>
        <time>2021-08-03T17:33:28Z</time>
      </trkpt>
      <trkpt lat="42.21522" lon="-1.04467">
        <ele>524.61</ele>
        <time>2021-08-03T17:33:32Z</time>
      </trkpt>
      <trkpt lat="42.21568" lon="-1.04485">
        <ele>525.82</ele>
        <time>2021-08-03T17:33:36Z</time>
      </trkpt>
      <trkpt lat="42.2163" lon="-1.04516">
        <ele>528.03</ele>
        <time>2021-08-03T17:33:42Z</time>
      </trkpt>
      <trkpt lat="42.21643" lon="-1.04568">
        <ele>529.52</ele>
        <time>2021-08-03T17:33:47Z</time>
      </trkpt>
      <trkpt lat="42.21636" lon="-1.04643">
        <ele>532.09</ele>
        <time>2021-08-03T17:33:53Z</time>
      </trkpt>
      <trkpt lat="42.21655" lon="-1.04762">
        <ele>535.9</ele>
        <time>2021-08-03T17:34:01Z</time>
      </trkpt>
      <trkpt lat="42.21708" lon="-1.04876">
        <ele>537.72</ele>
        <time>2021-08-03T17:34:09Z</time>
      </trkpt>
      <trkpt lat="42.2175" lon="-1.04955">
        <ele>539.78</ele>
        <time>2021-08-03T17:34:16Z</time>
      </trkpt>
      <trkpt lat="42.21759" lon="-1.05012">
        <ele>541.49</ele>
        <time>2021-08-03T17:34:21Z</time>
      </trkpt>
      <trkpt lat="42.21774" lon="-1.05044">
        <ele>542.66</ele>
        <time>2021-08-03T17:34:24Z</time>
      </trkpt>
      <trkpt lat="42.21792" lon="-1.05078">
        <ele>544.75</ele>
        <time>2021-08-03T17:34:27Z</time>
      </trkpt>
      <trkpt lat="42.21839" lon="-1.05122">
        <ele>548.96</ele>
        <time>2021-08-03T17:34:32Z</time>
      </trkpt>
      <trkpt lat="42.21872" lon="-1.0514">
        <ele>552.99</ele>
        <time>2021-08-03T17:34:36Z</time>
      </trkpt>
      <trkpt lat="42.21875" lon="-1.05143">
        <ele>553.94</ele>
        <time>2021-08-03T17:34:37Z</time>
      </trkpt>
      <trkpt lat="42.21885" lon="-1.0517">
        <ele>556.95</ele>
        <time>2021-08-03T17:34:41Z</time>
      </trkpt>
      <trkpt lat="42.21913" lon="-1.05233">
        <ele>560.57</ele>
        <time>2021-08-03T17:34:47Z</time>
      </trkpt>
      <trkpt lat="42.21927" lon="-1.05294">
        <ele>563.86</ele>
        <time>2021-08-03T17:34:52Z</time>
      </trkpt>
      <trkpt lat="42.21953" lon="-1.05366">
        <ele>568.32</ele>
        <time>2021-08-03T17:34:58Z</time>
      </trkpt>
      <trkpt lat="42.21994" lon="-1.05413">
        <ele>572.15</ele>
        <time>2021-08-03T17:35:03Z</time>
      </trkpt>
      <trkpt lat="42.22043" lon="-1.05467">
        <ele>576.28</ele>
        <time>2021-08-03T17:35:08Z</time>
      </trkpt>
      <trkpt lat="42.22086" lon="-1.05507">
        <ele>580</ele>
        <time>2021-08-03T17:35:12Z</time>
      </trkpt>
      <trkpt lat="42.2211" lon="-1.05552">
        <ele>583.65</ele>
        <time>2021-08-03T17:35:16Z</time>
      </trkpt>
      <trkpt lat="42.22142" lon="-1.05617">
        <ele>587.9</ele>
        <time>2021-08-03T17:35:21Z</time>
      </trkpt>
      <trkpt lat="42.22147" lon="-1.05631">
        <ele>589.8</ele>
        <time>2021-08-03T17:35:22Z</time>
      </trkpt>
      <trkpt lat="42.22155" lon="-1.05659">
        <ele>591.74</ele>
        <time>2021-08-03T17:35:24Z</time>
      </trkpt>
      <trkpt lat="42.22209" lon="-1.05689">
        <ele>595.63</ele>
        <time>2021-08-03T17:35:30Z</time>
      </trkpt>
      <trkpt lat="42.22219" lon="-1.05695">
        <ele>596.28</ele>
        <time>2021-08-03T17:35:31Z</time>
      </trkpt>
      <trkpt lat="42.22265" lon="-1.05718">
        <ele>598.56</ele>
        <time>2021-08-03T17:35:35Z</time>
      </trkpt>
      <trkpt lat="42.22315" lon="-1.05778">
        <ele>601.16</ele>
        <time>2021-08-03T17:35:41Z</time>
      </trkpt>
      <trkpt lat="42.22319" lon="-1.05791">
        <ele>601.75</ele>
        <time>2021-08-03T17:35:42Z</time>
      </trkpt>
      <trkpt lat="42.22325" lon="-1.05814">
        <ele>603.05</ele>
        <time>2021-08-03T17:35:44Z</time>
      </trkpt>
      <trkpt lat="42.22321" lon="-1.05874">
        <ele>606.18</ele>
        <time>2021-08-03T17:35:49Z</time>
      </trkpt>
      <trkpt lat="42.22312" lon="-1.05898">
        <ele>606.57</ele>
        <time>2021-08-03T17:35:51Z</time>
      </trkpt>
      <trkpt lat="42.22309" lon="-1.05992">
        <ele>605.29</ele>
        <time>2021-08-03T17:35:57Z</time>
      </trkpt>
      <trkpt lat="42.22316" lon="-1.06023">
        <ele>603.98</ele>
        <time>2021-08-03T17:35:59Z</time>
      </trkpt>
      <trkpt lat="42.22311" lon="-1.06109">
        <ele>599.96</ele>
        <time>2021-08-03T17:36:04Z</time>
      </trkpt>
      <trkpt lat="42.22305" lon="-1.06124">
        <ele>599.17</ele>
        <time>2021-08-03T17:36:05Z</time>
      </trkpt>
      <trkpt lat="42.22278" lon="-1.062">
        <ele>595.03</ele>
        <time>2021-08-03T17:36:10Z</time>
      </trkpt>
      <trkpt lat="42.22279" lon="-1.06252">
        <ele>590.41</ele>
        <time>2021-08-03T17:36:14Z</time>
      </trkpt>
      <trkpt lat="42.2229" lon="-1.06319">
        <ele>586.24</ele>
        <time>2021-08-03T17:36:18Z</time>
      </trkpt>
      <trkpt lat="42.22299" lon="-1.06371">
        <ele>582.86</ele>
        <time>2021-08-03T17:36:21Z</time>
      </trkpt>
      <trkpt lat="42.22307" lon="-1.06424">
        <ele>579.38</ele>
        <time>2021-08-03T17:36:24Z</time>
      </trkpt>
      <trkpt lat="42.22333" lon="-1.06487">
        <ele>575.17</ele>
        <time>2021-08-03T17:36:28Z</time>
      </trkpt>
      <trkpt lat="42.2236" lon="-1.06535">
        <ele>571.53</ele>
        <time>2021-08-03T17:36:32Z</time>
      </trkpt>
      <trkpt lat="42.22402" lon="-1.066">
        <ele>568.45</ele>
        <time>2021-08-03T17:36:38Z</time>
      </trkpt>
      <trkpt lat="42.22401" lon="-1.06665">
        <ele>565.96</ele>
        <time>2021-08-03T17:36:43Z</time>
      </trkpt>
      <trkpt lat="42.22407" lon="-1.06697">
        <ele>564.04</ele>
        <time>2021-08-03T17:36:46Z</time>
      </trkpt>
      <trkpt lat="42.22431" lon="-1.06773">
        <ele>560.57</ele>
        <time>2021-08-03T17:36:51Z</time>
      </trkpt>
      <trkpt lat="42.22448" lon="-1.06821">
        <ele>558.54</ele>
        <time>2021-08-03T17:36:54Z</time>
      </trkpt>
      <trkpt lat="42.22456" lon="-1.06868">
        <ele>556.7</ele>
        <time>2021-08-03T17:36:57Z</time>
      </trkpt>
      <trkpt lat="42.22437" lon="-1.0692">
        <ele>553.14</ele>
        <time>2021-08-03T17:37:02Z</time>
      </trkpt>
      <trkpt lat="42.22416" lon="-1.06999">
        <ele>550.84</ele>
        <time>2021-08-03T17:37:09Z</time>
      </trkpt>
      <trkpt lat="42.22446" lon="-1.07074">
        <ele>550.87</ele>
        <time>2021-08-03T17:37:14Z</time>
      </trkpt>
      <trkpt lat="42.22464" lon="-1.07159">
        <ele>551.3</ele>
        <time>2021-08-03T17:37:20Z</time>
      </trkpt>
      <trkpt lat="42.22474" lon="-1.07167">
        <ele>551.22</ele>
        <time>2021-08-03T17:37:21Z</time>
      </trkpt>
      <trkpt lat="42.22498" lon="-1.07196">
        <ele>550.8</ele>
        <time>2021-08-03T17:37:24Z</time>
      </trkpt>
      <trkpt lat="42.22501" lon="-1.07212">
        <ele>550.69</ele>
        <time>2021-08-03T17:37:25Z</time>
      </trkpt>
      <trkpt lat="42.225" lon="-1.0723">
        <ele>550.61</ele>
        <time>2021-08-03T17:37:26Z</time>
      </trkpt>
      <trkpt lat="42.22482" lon="-1.07292">
        <ele>550.09</ele>
        <time>2021-08-03T17:37:31Z</time>
      </trkpt>
      <trkpt lat="42.22474" lon="-1.0736">
        <ele>549.51</ele>
        <time>2021-08-03T17:37:37Z</time>
      </trkpt>
      <trkpt lat="42.22481" lon="-1.07371">
        <ele>549.54</ele>
        <time>2021-08-03T17:37:38Z</time>
      </trkpt>
      <trkpt lat="42.22508" lon="-1.07408">
        <ele>549.82</ele>
        <time>2021-08-03T17:37:41Z</time>
      </trkpt>
      <trkpt lat="42.22538" lon="-1.07475">
        <ele>551.08</ele>
        <time>2021-08-03T17:37:45Z</time>
      </trkpt>
      <trkpt lat="42.22573" lon="-1.07556">
        <ele>552.49</ele>
        <time>2021-08-03T17:37:51Z</time>
      </trkpt>
      <trkpt lat="42.22593" lon="-1.07602">
        <ele>552.9</ele>
        <time>2021-08-03T17:37:55Z</time>
      </trkpt>
      <trkpt lat="42.22609" lon="-1.07667">
        <ele>554</ele>
        <time>2021-08-03T17:38:01Z</time>
      </trkpt>
      <trkpt lat="42.22601" lon="-1.07677">
        <ele>554.15</ele>
        <time>2021-08-03T17:38:02Z</time>
      </trkpt>
      <trkpt lat="42.22582" lon="-1.07695">
        <ele>554.55</ele>
        <time>2021-08-03T17:38:04Z</time>
      </trkpt>
      <trkpt lat="42.22528" lon="-1.07725">
        <ele>555.42</ele>
        <time>2021-08-03T17:38:09Z</time>
      </trkpt>
      <trkpt lat="42.22487" lon="-1.07764">
        <ele>555.85</ele>
        <time>2021-08-03T17:38:13Z</time>
      </trkpt>
      <trkpt lat="42.22382" lon="-1.07887">
        <ele>557.67</ele>
        <time>2021-08-03T17:38:24Z</time>
      </trkpt>
      <trkpt lat="42.22325" lon="-1.07911">
        <ele>559.07</ele>
        <time>2021-08-03T17:38:29Z</time>
      </trkpt>
      <trkpt lat="42.22302" lon="-1.07911">
        <ele>559.86</ele>
        <time>2021-08-03T17:38:31Z</time>
      </trkpt>
      <trkpt lat="42.2225" lon="-1.07956">
        <ele>563.07</ele>
        <time>2021-08-03T17:38:37Z</time>
      </trkpt>
      <trkpt lat="42.2225" lon="-1.08006">
        <ele>563.59</ele>
        <time>2021-08-03T17:38:41Z</time>
      </trkpt>
      <trkpt lat="42.22266" lon="-1.08076">
        <ele>562.08</ele>
        <time>2021-08-03T17:38:45Z</time>
      </trkpt>
      <trkpt lat="42.22282" lon="-1.08128">
        <ele>560.69</ele>
        <time>2021-08-03T17:38:48Z</time>
      </trkpt>
      <trkpt lat="42.22295" lon="-1.08209">
        <ele>559.32</ele>
        <time>2021-08-03T17:38:52Z</time>
      </trkpt>
      <trkpt lat="42.22322" lon="-1.08327">
        <ele>558.12</ele>
        <time>2021-08-03T17:38:58Z</time>
      </trkpt>
      <trkpt lat="42.22317" lon="-1.08414">
        <ele>556.17</ele>
        <time>2021-08-03T17:39:03Z</time>
      </trkpt>
      <trkpt lat="42.22315" lon="-1.08514">
        <ele>554.25</ele>
        <time>2021-08-03T17:39:09Z</time>
      </trkpt>
      <trkpt lat="42.22328" lon="-1.08598">
        <ele>552.81</ele>
        <time>2021-08-03T17:39:15Z</time>
      </trkpt>
      <trkpt lat="42.22294" lon="-1.08675">
        <ele>549.16</ele>
        <time>2021-08-03T17:39:21Z</time>
      </trkpt>
      <trkpt lat="42.22285" lon="-1.08744">
        <ele>545.47</ele>
        <time>2021-08-03T17:39:26Z</time>
      </trkpt>
      <trkpt lat="42.22298" lon="-1.0879">
        <ele>543.6</ele>
        <time>2021-08-03T17:39:29Z</time>
      </trkpt>
      <trkpt lat="42.22326" lon="-1.08924">
        <ele>539.99</ele>
        <time>2021-08-03T17:39:36Z</time>
      </trkpt>
      <trkpt lat="42.22377" lon="-1.09067">
        <ele>537.42</ele>
        <time>2021-08-03T17:39:44Z</time>
      </trkpt>
      <trkpt lat="42.22389" lon="-1.09117">
        <ele>537.27</ele>
        <time>2021-08-03T17:39:47Z</time>
      </trkpt>
      <trkpt lat="42.22394" lon="-1.09207">
        <ele>536.65</ele>
        <time>2021-08-03T17:39:52Z</time>
      </trkpt>
      <trkpt lat="42.22415" lon="-1.0926">
        <ele>533.56</ele>
        <time>2021-08-03T17:39:58Z</time>
      </trkpt>
      <trkpt lat="42.22435" lon="-1.09294">
        <ele>530.31</ele>
        <time>2021-08-03T17:40:05Z</time>
      </trkpt>
      <trkpt lat="42.22442" lon="-1.09327">
        <ele>529.69</ele>
        <time>2021-08-03T17:40:09Z</time>
      </trkpt>
      <trkpt lat="42.22417" lon="-1.09395">
        <ele>530.02</ele>
        <time>2021-08-03T17:40:18Z</time>
      </trkpt>
      <trkpt lat="42.22405" lon="-1.09404">
        <ele>530.08</ele>
        <time>2021-08-03T17:40:20Z</time>
      </trkpt>
      <trkpt lat="42.22309" lon="-1.09465">
        <ele>528.49</ele>
        <time>2021-08-03T17:40:34Z</time>
      </trkpt>
      <trkpt lat="42.22245" lon="-1.0953">
        <ele>525.62</ele>
        <time>2021-08-03T17:40:48Z</time>
      </trkpt>
      <trkpt lat="42.22218" lon="-1.09565">
        <ele>524.04</ele>
        <time>2021-08-03T17:40:54Z</time>
      </trkpt>
      <trkpt lat="42.22211" lon="-1.09583">
        <ele>522.8</ele>
        <time>2021-08-03T17:40:58Z</time>
      </trkpt>
      <trkpt lat="42.22211" lon="-1.0959">
        <ele>521.52</ele>
        <time>2021-08-03T17:41:02Z</time>
      </trkpt>
      <trkpt lat="42.22212" lon="-1.09594">
        <ele>519.59</ele>
        <time>2021-08-03T17:41:17Z</time>
      </trkpt>
      <trkpt lat="42.22217" lon="-1.09605">
        <ele>519.26</ele>
        <time>2021-08-03T17:41:50Z</time>
      </trkpt>
      <trkpt lat="42.2224" lon="-1.09679">
        <ele>519.81</ele>
        <time>2021-08-03T17:41:57Z</time>
      </trkpt>
      <trkpt lat="42.22278" lon="-1.09711">
        <ele>520.19</ele>
        <time>2021-08-03T17:42:02Z</time>
      </trkpt>
      <trkpt lat="42.22362" lon="-1.09739">
        <ele>522.05</ele>
        <time>2021-08-03T17:42:13Z</time>
      </trkpt>
      <trkpt lat="42.22384" lon="-1.09753">
        <ele>522.35</ele>
        <time>2021-08-03T17:42:16Z</time>
      </trkpt>
      <trkpt lat="42.22443" lon="-1.0978">
        <ele>521.33</ele>
        <time>2021-08-03T17:42:26Z</time>
      </trkpt>
      <trkpt lat="42.22465" lon="-1.09767">
        <ele>520.24</ele>
        <time>2021-08-03T17:42:32Z</time>
      </trkpt>
      <trkpt lat="42.22502" lon="-1.09707">
        <ele>520.14</ele>
        <time>2021-08-03T17:42:43Z</time>
      </trkpt>
      <trkpt lat="42.2251" lon="-1.09702">
        <ele>520.46</ele>
        <time>2021-08-03T17:42:46Z</time>
      </trkpt>
      <trkpt lat="42.22517" lon="-1.097">
        <ele>520.82</ele>
        <time>2021-08-03T17:43:01Z</time>
      </trkpt>
      <trkpt lat="42.22518" lon="-1.097">
        <ele>520.84</ele>
        <time>2021-08-03T17:43:10Z</time>
      </trkpt>
      <trkpt lat="42.22519" lon="-1.09664">
        <ele>520.96</ele>
        <time>2021-08-03T17:43:18Z</time>
      </trkpt>
      <trkpt lat="42.22522" lon="-1.09617">
        <ele>519.74</ele>
        <time>2021-08-03T17:43:25Z</time>
      </trkpt>
      <trkpt lat="42.2252" lon="-1.09589">
        <ele>516.53</ele>
        <time>2021-08-03T17:43:35Z</time>
      </trkpt>
      <trkpt lat="42.22526" lon="-1.09595">
        <ele>515.24</ele>
        <time>2021-08-03T17:43:46Z</time>
      </trkpt>
      <trkpt lat="42.22529" lon="-1.09599">
        <ele>515.23</ele>
        <time>2021-08-03T17:43:51Z</time>
      </trkpt>
      <trkpt lat="42.2253" lon="-1.09594">
        <ele>515.28</ele>
        <time>2021-08-03T17:44:06Z</time>
      </trkpt>
      <trkpt lat="42.2253" lon="-1.09594">
        <ele>515.48</ele>
        <time>2021-08-03T17:44:24Z</time>
      </trkpt>
      <trkpt lat="42.22528" lon="-1.09579">
        <ele>514.26</ele>
        <time>2021-08-03T18:06:25Z</time>
      </trkpt>
      <trkpt lat="42.22526" lon="-1.09569">
        <ele>514.26</ele>
        <time>2021-08-03T18:06:27Z</time>
      </trkpt>
      <trkpt lat="42.22518" lon="-1.09518">
        <ele>513.42</ele>
        <time>2021-08-03T18:06:32Z</time>
      </trkpt>
      <trkpt lat="42.22539" lon="-1.09446">
        <ele>510.58</ele>
        <time>2021-08-03T18:06:39Z</time>
      </trkpt>
      <trkpt lat="42.22566" lon="-1.09433">
        <ele>509.35</ele>
        <time>2021-08-03T18:06:42Z</time>
      </trkpt>
      <trkpt lat="42.22587" lon="-1.09431">
        <ele>508.92</ele>
        <time>2021-08-03T18:06:44Z</time>
      </trkpt>
      <trkpt lat="42.22676" lon="-1.09432">
        <ele>508.14</ele>
        <time>2021-08-03T18:06:54Z</time>
      </trkpt>
      <trkpt lat="42.22682" lon="-1.09433">
        <ele>508.2</ele>
        <time>2021-08-03T18:06:55Z</time>
      </trkpt>
      <trkpt lat="42.22703" lon="-1.09452">
        <ele>508.64</ele>
        <time>2021-08-03T18:07:00Z</time>
      </trkpt>
      <trkpt lat="42.2273" lon="-1.09475">
        <ele>509.49</ele>
        <time>2021-08-03T18:07:06Z</time>
      </trkpt>
      <trkpt lat="42.22747" lon="-1.09479">
        <ele>510.05</ele>
        <time>2021-08-03T18:07:08Z</time>
      </trkpt>
      <trkpt lat="42.2279" lon="-1.09506">
        <ele>511.56</ele>
        <time>2021-08-03T18:07:13Z</time>
      </trkpt>
      <trkpt lat="42.22845" lon="-1.09575">
        <ele>512.99</ele>
        <time>2021-08-03T18:07:21Z</time>
      </trkpt>
      <trkpt lat="42.22855" lon="-1.09576">
        <ele>513.16</ele>
        <time>2021-08-03T18:07:22Z</time>
      </trkpt>
      <trkpt lat="42.22878" lon="-1.09575">
        <ele>513.61</ele>
        <time>2021-08-03T18:07:24Z</time>
      </trkpt>
      <trkpt lat="42.22931" lon="-1.09552">
        <ele>515.13</ele>
        <time>2021-08-03T18:07:30Z</time>
      </trkpt>
      <trkpt lat="42.22972" lon="-1.09575">
        <ele>517.61</ele>
        <time>2021-08-03T18:07:36Z</time>
      </trkpt>
      <trkpt lat="42.22975" lon="-1.09586">
        <ele>518.03</ele>
        <time>2021-08-03T18:07:37Z</time>
      </trkpt>
      <trkpt lat="42.22981" lon="-1.09611">
        <ele>519.08</ele>
        <time>2021-08-03T18:07:39Z</time>
      </trkpt>
      <trkpt lat="42.23032" lon="-1.09654">
        <ele>521.91</ele>
        <time>2021-08-03T18:07:46Z</time>
      </trkpt>
      <trkpt lat="42.23059" lon="-1.0964">
        <ele>522.7</ele>
        <time>2021-08-03T18:07:50Z</time>
      </trkpt>
      <trkpt lat="42.23067" lon="-1.09639">
        <ele>523.17</ele>
        <time>2021-08-03T18:07:57Z</time>
      </trkpt>
      <trkpt lat="42.23097" lon="-1.09624">
        <ele>523.73</ele>
        <time>2021-08-03T18:08:04Z</time>
      </trkpt>
      <trkpt lat="42.23135" lon="-1.09598">
        <ele>524.19</ele>
        <time>2021-08-03T18:08:08Z</time>
      </trkpt>
      <trkpt lat="42.23201" lon="-1.09613">
        <ele>524.89</ele>
        <time>2021-08-03T18:08:14Z</time>
      </trkpt>
      <trkpt lat="42.2321" lon="-1.09623">
        <ele>524.89</ele>
        <time>2021-08-03T18:08:15Z</time>
      </trkpt>
      <trkpt lat="42.23227" lon="-1.0964">
        <ele>524.85</ele>
        <time>2021-08-03T18:08:17Z</time>
      </trkpt>
      <trkpt lat="42.23254" lon="-1.09661">
        <ele>524.66</ele>
        <time>2021-08-03T18:08:20Z</time>
      </trkpt>
      <trkpt lat="42.23287" lon="-1.09721">
        <ele>523.81</ele>
        <time>2021-08-03T18:08:26Z</time>
      </trkpt>
      <trkpt lat="42.23325" lon="-1.09757">
        <ele>522.75</ele>
        <time>2021-08-03T18:08:31Z</time>
      </trkpt>
      <trkpt lat="42.23324" lon="-1.09792">
        <ele>521.4</ele>
        <time>2021-08-03T18:08:35Z</time>
      </trkpt>
      <trkpt lat="42.23306" lon="-1.09857">
        <ele>519.05</ele>
        <time>2021-08-03T18:08:40Z</time>
      </trkpt>
      <trkpt lat="42.23315" lon="-1.09888">
        <ele>517.8</ele>
        <time>2021-08-03T18:08:42Z</time>
      </trkpt>
      <trkpt lat="42.2336" lon="-1.09981">
        <ele>514.01</ele>
        <time>2021-08-03T18:08:49Z</time>
      </trkpt>
      <trkpt lat="42.23369" lon="-1.10037">
        <ele>512.95</ele>
        <time>2021-08-03T18:08:53Z</time>
      </trkpt>
      <trkpt lat="42.23369" lon="-1.10082">
        <ele>513.16</ele>
        <time>2021-08-03T18:08:56Z</time>
      </trkpt>
      <trkpt lat="42.23383" lon="-1.10135">
        <ele>514.04</ele>
        <time>2021-08-03T18:09:00Z</time>
      </trkpt>
      <trkpt lat="42.23395" lon="-1.10179">
        <ele>515.59</ele>
        <time>2021-08-03T18:09:04Z</time>
      </trkpt>
      <trkpt lat="42.23406" lon="-1.10201">
        <ele>516.63</ele>
        <time>2021-08-03T18:09:11Z</time>
      </trkpt>
      <trkpt lat="42.23413" lon="-1.10202">
        <ele>516.41</ele>
        <time>2021-08-03T18:09:30Z</time>
      </trkpt>
      <trkpt lat="42.23466" lon="-1.10217">
        <ele>517.14</ele>
        <time>2021-08-03T18:09:37Z</time>
      </trkpt>
      <trkpt lat="42.23496" lon="-1.1023">
        <ele>518.03</ele>
        <time>2021-08-03T18:09:40Z</time>
      </trkpt>
      <trkpt lat="42.23565" lon="-1.10262">
        <ele>519.53</ele>
        <time>2021-08-03T18:09:47Z</time>
      </trkpt>
      <trkpt lat="42.23593" lon="-1.10292">
        <ele>520.44</ele>
        <time>2021-08-03T18:09:50Z</time>
      </trkpt>
      <trkpt lat="42.23638" lon="-1.10342">
        <ele>521.89</ele>
        <time>2021-08-03T18:09:56Z</time>
      </trkpt>
      <trkpt lat="42.23692" lon="-1.10387">
        <ele>524.01</ele>
        <time>2021-08-03T18:10:02Z</time>
      </trkpt>
      <trkpt lat="42.23741" lon="-1.10455">
        <ele>526.11</ele>
        <time>2021-08-03T18:10:08Z</time>
      </trkpt>
      <trkpt lat="42.23784" lon="-1.10498">
        <ele>527.1</ele>
        <time>2021-08-03T18:10:13Z</time>
      </trkpt>
      <trkpt lat="42.23808" lon="-1.1053">
        <ele>527.35</ele>
        <time>2021-08-03T18:10:16Z</time>
      </trkpt>
      <trkpt lat="42.23854" lon="-1.10567">
        <ele>526.54</ele>
        <time>2021-08-03T18:10:21Z</time>
      </trkpt>
      <trkpt lat="42.23885" lon="-1.10594">
        <ele>525.57</ele>
        <time>2021-08-03T18:10:24Z</time>
      </trkpt>
      <trkpt lat="42.2393" lon="-1.10654">
        <ele>525.15</ele>
        <time>2021-08-03T18:10:30Z</time>
      </trkpt>
      <trkpt lat="42.23934" lon="-1.10656">
        <ele>525.04</ele>
        <time>2021-08-03T18:10:31Z</time>
      </trkpt>
      <trkpt lat="42.23935" lon="-1.10657">
        <ele>522.5</ele>
        <time>2021-08-03T18:10:40Z</time>
      </trkpt>
      <trkpt lat="42.23936" lon="-1.10656">
        <ele>521.65</ele>
        <time>2021-08-03T18:10:45Z</time>
      </trkpt>
      <trkpt lat="42.23947" lon="-1.10646">
        <ele>521.16</ele>
        <time>2021-08-03T18:10:59Z</time>
      </trkpt>
      <trkpt lat="42.23967" lon="-1.10636">
        <ele>521.23</ele>
        <time>2021-08-03T18:11:03Z</time>
      </trkpt>
      <trkpt lat="42.23991" lon="-1.10626">
        <ele>521.26</ele>
        <time>2021-08-03T18:11:07Z</time>
      </trkpt>
      <trkpt lat="42.24" lon="-1.10618">
        <ele>521.06</ele>
        <time>2021-08-03T18:11:09Z</time>
      </trkpt>
      <trkpt lat="42.24016" lon="-1.10607">
        <ele>520.56</ele>
        <time>2021-08-03T18:11:12Z</time>
      </trkpt>
      <trkpt lat="42.24053" lon="-1.10627">
        <ele>519.52</ele>
        <time>2021-08-03T18:11:19Z</time>
      </trkpt>
      <trkpt lat="42.24053" lon="-1.10653">
        <ele>519.33</ele>
        <time>2021-08-03T18:11:21Z</time>
      </trkpt>
      <trkpt lat="42.24054" lon="-1.10784">
        <ele>517.59</ele>
        <time>2021-08-03T18:11:29Z</time>
      </trkpt>
      <trkpt lat="42.24052" lon="-1.10822">
        <ele>515.86</ele>
        <time>2021-08-03T18:11:32Z</time>
      </trkpt>
      <trkpt lat="42.2405" lon="-1.10845">
        <ele>515.11</ele>
        <time>2021-08-03T18:11:34Z</time>
      </trkpt>
      <trkpt lat="42.2405" lon="-1.10857">
        <ele>514.97</ele>
        <time>2021-08-03T18:11:35Z</time>
      </trkpt>
      <trkpt lat="42.24066" lon="-1.1098">
        <ele>516.77</ele>
        <time>2021-08-03T18:11:42Z</time>
      </trkpt>
      <trkpt lat="42.24084" lon="-1.11112">
        <ele>518.56</ele>
        <time>2021-08-03T18:11:49Z</time>
      </trkpt>
      <trkpt lat="42.24104" lon="-1.1114">
        <ele>518.12</ele>
        <time>2021-08-03T18:11:53Z</time>
      </trkpt>
      <trkpt lat="42.24124" lon="-1.11143">
        <ele>517.99</ele>
        <time>2021-08-03T18:11:55Z</time>
      </trkpt>
      <trkpt lat="42.24167" lon="-1.11164">
        <ele>518.25</ele>
        <time>2021-08-03T18:11:59Z</time>
      </trkpt>
      <trkpt lat="42.2423" lon="-1.11193">
        <ele>519.63</ele>
        <time>2021-08-03T18:12:05Z</time>
      </trkpt>
      <trkpt lat="42.24267" lon="-1.11218">
        <ele>520.57</ele>
        <time>2021-08-03T18:12:09Z</time>
      </trkpt>
      <trkpt lat="42.24303" lon="-1.11257">
        <ele>521.18</ele>
        <time>2021-08-03T18:12:14Z</time>
      </trkpt>
      <trkpt lat="42.24373" lon="-1.11318">
        <ele>522.48</ele>
        <time>2021-08-03T18:12:21Z</time>
      </trkpt>
      <trkpt lat="42.24478" lon="-1.11396">
        <ele>525.19</ele>
        <time>2021-08-03T18:12:29Z</time>
      </trkpt>
      <trkpt lat="42.24575" lon="-1.11469">
        <ele>528.24</ele>
        <time>2021-08-03T18:12:36Z</time>
      </trkpt>
      <trkpt lat="42.24692" lon="-1.11594">
        <ele>530.58</ele>
        <time>2021-08-03T18:12:45Z</time>
      </trkpt>
      <trkpt lat="42.2479" lon="-1.11677">
        <ele>533.93</ele>
        <time>2021-08-03T18:12:52Z</time>
      </trkpt>
      <trkpt lat="42.24805" lon="-1.11685">
        <ele>534.13</ele>
        <time>2021-08-03T18:12:53Z</time>
      </trkpt>
      <trkpt lat="42.24964" lon="-1.1177">
        <ele>537.24</ele>
        <time>2021-08-03T18:13:03Z</time>
      </trkpt>
      <trkpt lat="42.25043" lon="-1.11812">
        <ele>538.06</ele>
        <time>2021-08-03T18:13:09Z</time>
      </trkpt>
      <trkpt lat="42.25097" lon="-1.11814">
        <ele>538.5</ele>
        <time>2021-08-03T18:13:13Z</time>
      </trkpt>
      <trkpt lat="42.2515" lon="-1.11797">
        <ele>539.32</ele>
        <time>2021-08-03T18:13:17Z</time>
      </trkpt>
      <trkpt lat="42.25212" lon="-1.11819">
        <ele>540.44</ele>
        <time>2021-08-03T18:13:22Z</time>
      </trkpt>
      <trkpt lat="42.25236" lon="-1.1184">
        <ele>540.99</ele>
        <time>2021-08-03T18:13:24Z</time>
      </trkpt>
      <trkpt lat="42.25348" lon="-1.11881">
        <ele>543.68</ele>
        <time>2021-08-03T18:13:32Z</time>
      </trkpt>
      <trkpt lat="42.25415" lon="-1.11884">
        <ele>545.5</ele>
        <time>2021-08-03T18:13:37Z</time>
      </trkpt>
      <trkpt lat="42.25475" lon="-1.11925">
        <ele>546.33</ele>
        <time>2021-08-03T18:13:43Z</time>
      </trkpt>
      <trkpt lat="42.25533" lon="-1.11954">
        <ele>543.83</ele>
        <time>2021-08-03T18:13:49Z</time>
      </trkpt>
      <trkpt lat="42.25562" lon="-1.11946">
        <ele>543.12</ele>
        <time>2021-08-03T18:13:51Z</time>
      </trkpt>
      <trkpt lat="42.2559" lon="-1.11935">
        <ele>542.65</ele>
        <time>2021-08-03T18:13:53Z</time>
      </trkpt>
      <trkpt lat="42.257" lon="-1.1193">
        <ele>543.48</ele>
        <time>2021-08-03T18:14:01Z</time>
      </trkpt>
      <trkpt lat="42.25721" lon="-1.11928">
        <ele>544.13</ele>
        <time>2021-08-03T18:14:03Z</time>
      </trkpt>
      <trkpt lat="42.25763" lon="-1.11986">
        <ele>544.61</ele>
        <time>2021-08-03T18:14:09Z</time>
      </trkpt>
      <trkpt lat="42.25771" lon="-1.12082">
        <ele>544.78</ele>
        <time>2021-08-03T18:14:14Z</time>
      </trkpt>
      <trkpt lat="42.25768" lon="-1.12103">
        <ele>544.83</ele>
        <time>2021-08-03T18:14:15Z</time>
      </trkpt>
      <trkpt lat="42.25758" lon="-1.12179">
        <ele>545.17</ele>
        <time>2021-08-03T18:14:19Z</time>
      </trkpt>
      <trkpt lat="42.25723" lon="-1.12242">
        <ele>545.47</ele>
        <time>2021-08-03T18:14:24Z</time>
      </trkpt>
      <trkpt lat="42.2561" lon="-1.12315">
        <ele>548.65</ele>
        <time>2021-08-03T18:14:32Z</time>
      </trkpt>
      <trkpt lat="42.25568" lon="-1.1234">
        <ele>552.26</ele>
        <time>2021-08-03T18:14:35Z</time>
      </trkpt>
      <trkpt lat="42.25509" lon="-1.1242">
        <ele>556.46</ele>
        <time>2021-08-03T18:14:41Z</time>
      </trkpt>
      <trkpt lat="42.25502" lon="-1.12456">
        <ele>557.38</ele>
        <time>2021-08-03T18:14:43Z</time>
      </trkpt>
      <trkpt lat="42.25484" lon="-1.12601">
        <ele>559.58</ele>
        <time>2021-08-03T18:14:51Z</time>
      </trkpt>
      <trkpt lat="42.25448" lon="-1.12633">
        <ele>558.35</ele>
        <time>2021-08-03T18:14:56Z</time>
      </trkpt>
      <trkpt lat="42.25432" lon="-1.12638">
        <ele>557.35</ele>
        <time>2021-08-03T18:14:58Z</time>
      </trkpt>
      <trkpt lat="42.2542" lon="-1.12643">
        <ele>555.88</ele>
        <time>2021-08-03T18:15:00Z</time>
      </trkpt>
      <trkpt lat="42.25406" lon="-1.12657">
        <ele>552.05</ele>
        <time>2021-08-03T18:15:04Z</time>
      </trkpt>
      <trkpt lat="42.25401" lon="-1.12665">
        <ele>550.47</ele>
        <time>2021-08-03T18:15:06Z</time>
      </trkpt>
      <trkpt lat="42.25391" lon="-1.12689">
        <ele>548.01</ele>
        <time>2021-08-03T18:15:10Z</time>
      </trkpt>
      <trkpt lat="42.25387" lon="-1.12725">
        <ele>544.26</ele>
        <time>2021-08-03T18:15:19Z</time>
      </trkpt>
      <trkpt lat="42.25383" lon="-1.12789">
        <ele>542.59</ele>
        <time>2021-08-03T18:15:27Z</time>
      </trkpt>
      <trkpt lat="42.25395" lon="-1.12879">
        <ele>539.55</ele>
        <time>2021-08-03T18:15:37Z</time>
      </trkpt>
      <trkpt lat="42.25409" lon="-1.1295">
        <ele>536.32</ele>
        <time>2021-08-03T18:15:45Z</time>
      </trkpt>
      <trkpt lat="42.25417" lon="-1.13">
        <ele>532.95</ele>
        <time>2021-08-03T18:15:53Z</time>
      </trkpt>
      <trkpt lat="42.2542" lon="-1.13023">
        <ele>530.84</ele>
        <time>2021-08-03T18:16:03Z</time>
      </trkpt>
      <trkpt lat="42.25419" lon="-1.13074">
        <ele>530.46</ele>
        <time>2021-08-03T18:16:13Z</time>
      </trkpt>
      <trkpt lat="42.25414" lon="-1.13148">
        <ele>531.23</ele>
        <time>2021-08-03T18:16:23Z</time>
      </trkpt>
      <trkpt lat="42.25392" lon="-1.13285">
        <ele>532.4</ele>
        <time>2021-08-03T18:16:31Z</time>
      </trkpt>
      <trkpt lat="42.25384" lon="-1.13328">
        <ele>532.66</ele>
        <time>2021-08-03T18:16:33Z</time>
      </trkpt>
      <trkpt lat="42.25337" lon="-1.13398">
        <ele>532.64</ele>
        <time>2021-08-03T18:16:38Z</time>
      </trkpt>
      <trkpt lat="42.25293" lon="-1.13428">
        <ele>532.61</ele>
        <time>2021-08-03T18:16:41Z</time>
      </trkpt>
      <trkpt lat="42.25255" lon="-1.13481">
        <ele>533.51</ele>
        <time>2021-08-03T18:16:45Z</time>
      </trkpt>
      <trkpt lat="42.25203" lon="-1.1358">
        <ele>537.69</ele>
        <time>2021-08-03T18:16:51Z</time>
      </trkpt>
      <trkpt lat="42.25175" lon="-1.13629">
        <ele>539.49</ele>
        <time>2021-08-03T18:16:54Z</time>
      </trkpt>
      <trkpt lat="42.25125" lon="-1.13675">
        <ele>540.39</ele>
        <time>2021-08-03T18:16:58Z</time>
      </trkpt>
      <trkpt lat="42.2509" lon="-1.137">
        <ele>540.3</ele>
        <time>2021-08-03T18:17:01Z</time>
      </trkpt>
      <trkpt lat="42.25079" lon="-1.13746">
        <ele>538.32</ele>
        <time>2021-08-03T18:17:05Z</time>
      </trkpt>
      <trkpt lat="42.25085" lon="-1.13777">
        <ele>537.06</ele>
        <time>2021-08-03T18:17:07Z</time>
      </trkpt>
      <trkpt lat="42.25084" lon="-1.1393">
        <ele>534.94</ele>
        <time>2021-08-03T18:17:15Z</time>
      </trkpt>
      <trkpt lat="42.25069" lon="-1.14">
        <ele>533.94</ele>
        <time>2021-08-03T18:17:19Z</time>
      </trkpt>
      <trkpt lat="42.25072" lon="-1.14108">
        <ele>533.97</ele>
        <time>2021-08-03T18:17:25Z</time>
      </trkpt>
      <trkpt lat="42.25078" lon="-1.14179">
        <ele>535.13</ele>
        <time>2021-08-03T18:17:31Z</time>
      </trkpt>
      <trkpt lat="42.25077" lon="-1.14185">
        <ele>535.42</ele>
        <time>2021-08-03T18:17:38Z</time>
      </trkpt>
      <trkpt lat="42.25078" lon="-1.14186">
        <ele>535.74</ele>
        <time>2021-08-03T18:18:13Z</time>
      </trkpt>
      <trkpt lat="42.25079" lon="-1.1419">
        <ele>536.02</ele>
        <time>2021-08-03T18:18:48Z</time>
      </trkpt>
      <trkpt lat="42.25089" lon="-1.14274">
        <ele>535.88</ele>
        <time>2021-08-03T18:18:55Z</time>
      </trkpt>
      <trkpt lat="42.25104" lon="-1.14455">
        <ele>532.73</ele>
        <time>2021-08-03T18:19:06Z</time>
      </trkpt>
      <trkpt lat="42.25114" lon="-1.14597">
        <ele>531.49</ele>
        <time>2021-08-03T18:19:17Z</time>
      </trkpt>
      <trkpt lat="42.25157" lon="-1.14687">
        <ele>528.09</ele>
        <time>2021-08-03T18:19:25Z</time>
      </trkpt>
      <trkpt lat="42.25179" lon="-1.14724">
        <ele>524.79</ele>
        <time>2021-08-03T18:19:30Z</time>
      </trkpt>
      <trkpt lat="42.25249" lon="-1.14838">
        <ele>522.62</ele>
        <time>2021-08-03T18:19:44Z</time>
      </trkpt>
      <trkpt lat="42.25312" lon="-1.14894">
        <ele>524.17</ele>
        <time>2021-08-03T18:19:52Z</time>
      </trkpt>
      <trkpt lat="42.25407" lon="-1.15055">
        <ele>526.32</ele>
        <time>2021-08-03T18:20:02Z</time>
      </trkpt>
      <trkpt lat="42.25478" lon="-1.15214">
        <ele>527.29</ele>
        <time>2021-08-03T18:20:09Z</time>
      </trkpt>
      <trkpt lat="42.25558" lon="-1.15411">
        <ele>527.76</ele>
        <time>2021-08-03T18:20:18Z</time>
      </trkpt>
      <trkpt lat="42.25577" lon="-1.1546">
        <ele>527.84</ele>
        <time>2021-08-03T18:20:21Z</time>
      </trkpt>
      <trkpt lat="42.25578" lon="-1.15475">
        <ele>527.86</ele>
        <time>2021-08-03T18:20:22Z</time>
      </trkpt>
      <trkpt lat="42.25575" lon="-1.15488">
        <ele>527.93</ele>
        <time>2021-08-03T18:20:23Z</time>
      </trkpt>
      <trkpt lat="42.25558" lon="-1.15533">
        <ele>528.38</ele>
        <time>2021-08-03T18:20:26Z</time>
      </trkpt>
      <trkpt lat="42.25526" lon="-1.15686">
        <ele>532.01</ele>
        <time>2021-08-03T18:20:35Z</time>
      </trkpt>
      <trkpt lat="42.25517" lon="-1.15754">
        <ele>535.25</ele>
        <time>2021-08-03T18:20:40Z</time>
      </trkpt>
      <trkpt lat="42.25504" lon="-1.15836">
        <ele>538.53</ele>
        <time>2021-08-03T18:20:46Z</time>
      </trkpt>
      <trkpt lat="42.25493" lon="-1.15908">
        <ele>538.93</ele>
        <time>2021-08-03T18:20:53Z</time>
      </trkpt>
      <trkpt lat="42.25491" lon="-1.15919">
        <ele>538.32</ele>
        <time>2021-08-03T18:20:55Z</time>
      </trkpt>
      <trkpt lat="42.25501" lon="-1.15998">
        <ele>536.41</ele>
        <time>2021-08-03T18:21:01Z</time>
      </trkpt>
      <trkpt lat="42.25543" lon="-1.1619">
        <ele>532.83</ele>
        <time>2021-08-03T18:21:10Z</time>
      </trkpt>
      <trkpt lat="42.25561" lon="-1.16236">
        <ele>531.81</ele>
        <time>2021-08-03T18:21:13Z</time>
      </trkpt>
      <trkpt lat="42.25553" lon="-1.16309">
        <ele>529.75</ele>
        <time>2021-08-03T18:21:18Z</time>
      </trkpt>
      <trkpt lat="42.25504" lon="-1.1648">
        <ele>526.27</ele>
        <time>2021-08-03T18:21:26Z</time>
      </trkpt>
      <trkpt lat="42.25484" lon="-1.16577">
        <ele>525.55</ele>
        <time>2021-08-03T18:21:30Z</time>
      </trkpt>
      <trkpt lat="42.25465" lon="-1.1663">
        <ele>525.51</ele>
        <time>2021-08-03T18:21:33Z</time>
      </trkpt>
      <trkpt lat="42.25482" lon="-1.1668">
        <ele>528.03</ele>
        <time>2021-08-03T18:21:38Z</time>
      </trkpt>
      <trkpt lat="42.25547" lon="-1.1674">
        <ele>532.41</ele>
        <time>2021-08-03T18:21:44Z</time>
      </trkpt>
      <trkpt lat="42.25573" lon="-1.16765">
        <ele>533.71</ele>
        <time>2021-08-03T18:21:46Z</time>
      </trkpt>
      <trkpt lat="42.25626" lon="-1.16864">
        <ele>536.68</ele>
        <time>2021-08-03T18:21:52Z</time>
      </trkpt>
      <trkpt lat="42.25723" lon="-1.17076">
        <ele>538.38</ele>
        <time>2021-08-03T18:22:02Z</time>
      </trkpt>
      <trkpt lat="42.2582" lon="-1.17292">
        <ele>541.53</ele>
        <time>2021-08-03T18:22:12Z</time>
      </trkpt>
      <trkpt lat="42.25855" lon="-1.17474">
        <ele>544.7</ele>
        <time>2021-08-03T18:22:20Z</time>
      </trkpt>
      <trkpt lat="42.25878" lon="-1.17599">
        <ele>548.4</ele>
        <time>2021-08-03T18:22:26Z</time>
      </trkpt>
      <trkpt lat="42.25903" lon="-1.17644">
        <ele>551.54</ele>
        <time>2021-08-03T18:22:30Z</time>
      </trkpt>
      <trkpt lat="42.2596" lon="-1.177">
        <ele>555.68</ele>
        <time>2021-08-03T18:22:36Z</time>
      </trkpt>
      <trkpt lat="42.25994" lon="-1.17756">
        <ele>559.45</ele>
        <time>2021-08-03T18:22:42Z</time>
      </trkpt>
      <trkpt lat="42.26004" lon="-1.17783">
        <ele>559.68</ele>
        <time>2021-08-03T18:22:48Z</time>
      </trkpt>
      <trkpt lat="42.26021" lon="-1.17896">
        <ele>558.77</ele>
        <time>2021-08-03T18:22:58Z</time>
      </trkpt>
      <trkpt lat="42.26023" lon="-1.17915">
        <ele>558.59</ele>
        <time>2021-08-03T18:23:00Z</time>
      </trkpt>
      <trkpt lat="42.26027" lon="-1.17985">
        <ele>558.26</ele>
        <time>2021-08-03T18:23:05Z</time>
      </trkpt>
      <trkpt lat="42.26051" lon="-1.18066">
        <ele>558.26</ele>
        <time>2021-08-03T18:23:10Z</time>
      </trkpt>
      <trkpt lat="42.26062" lon="-1.18172">
        <ele>557.96</ele>
        <time>2021-08-03T18:23:16Z</time>
      </trkpt>
      <trkpt lat="42.26054" lon="-1.18224">
        <ele>557.47</ele>
        <time>2021-08-03T18:23:19Z</time>
      </trkpt>
      <trkpt lat="42.2608" lon="-1.18305">
        <ele>555.16</ele>
        <time>2021-08-03T18:23:25Z</time>
      </trkpt>
      <trkpt lat="42.26101" lon="-1.18321">
        <ele>554.05</ele>
        <time>2021-08-03T18:23:27Z</time>
      </trkpt>
      <trkpt lat="42.26125" lon="-1.18367">
        <ele>551.09</ele>
        <time>2021-08-03T18:23:31Z</time>
      </trkpt>
      <trkpt lat="42.26142" lon="-1.18435">
        <ele>547.64</ele>
        <time>2021-08-03T18:23:36Z</time>
      </trkpt>
      <trkpt lat="42.26166" lon="-1.18494">
        <ele>545.48</ele>
        <time>2021-08-03T18:23:42Z</time>
      </trkpt>
      <trkpt lat="42.26206" lon="-1.1853">
        <ele>545.54</ele>
        <time>2021-08-03T18:23:49Z</time>
      </trkpt>
      <trkpt lat="42.26219" lon="-1.18549">
        <ele>545.63</ele>
        <time>2021-08-03T18:23:52Z</time>
      </trkpt>
      <trkpt lat="42.26239" lon="-1.18581">
        <ele>544.83</ele>
        <time>2021-08-03T18:24:00Z</time>
      </trkpt>
      <trkpt lat="42.26248" lon="-1.18599">
        <ele>544.69</ele>
        <time>2021-08-03T18:24:03Z</time>
      </trkpt>
      <trkpt lat="42.26264" lon="-1.18638">
        <ele>546.14</ele>
        <time>2021-08-03T18:24:12Z</time>
      </trkpt>
      <trkpt lat="42.26271" lon="-1.18658">
        <ele>546.68</ele>
        <time>2021-08-03T18:24:19Z</time>
      </trkpt>
      <trkpt lat="42.26268" lon="-1.18688">
        <ele>545.67</ele>
        <time>2021-08-03T18:24:27Z</time>
      </trkpt>
      <trkpt lat="42.26278" lon="-1.18696">
        <ele>544.19</ele>
        <time>2021-08-03T18:24:53Z</time>
      </trkpt>
      <trkpt lat="42.26308" lon="-1.18699">
        <ele>544.58</ele>
        <time>2021-08-03T18:25:03Z</time>
      </trkpt>
      <trkpt lat="42.2633" lon="-1.18688">
        <ele>544.67</ele>
        <time>2021-08-03T18:25:07Z</time>
      </trkpt>
      <trkpt lat="42.26404" lon="-1.18647">
        <ele>543.83</ele>
        <time>2021-08-03T18:25:18Z</time>
      </trkpt>
      <trkpt lat="42.26491" lon="-1.18638">
        <ele>542.13</ele>
        <time>2021-08-03T18:25:29Z</time>
      </trkpt>
      <trkpt lat="42.2649" lon="-1.18639">
        <ele>539.84</ele>
        <time>2021-08-03T18:25:38Z</time>
      </trkpt>
      <trkpt lat="42.26491" lon="-1.18639">
        <ele>539.45</ele>
        <time>2021-08-03T18:25:44Z</time>
      </trkpt>
      <trkpt lat="42.26484" lon="-1.1866">
        <ele>539</ele>
        <time>2021-08-03T18:25:51Z</time>
      </trkpt>
      <trkpt lat="42.26469" lon="-1.18668">
        <ele>539.01</ele>
        <time>2021-08-03T18:25:53Z</time>
      </trkpt>
      <trkpt lat="42.26409" lon="-1.18705">
        <ele>538.89</ele>
        <time>2021-08-03T18:26:00Z</time>
      </trkpt>
      <trkpt lat="42.26391" lon="-1.18753">
        <ele>538.53</ele>
        <time>2021-08-03T18:26:05Z</time>
      </trkpt>
      <trkpt lat="42.26371" lon="-1.18814">
        <ele>538.43</ele>
        <time>2021-08-03T18:26:10Z</time>
      </trkpt>
      <trkpt lat="42.26267" lon="-1.18937">
        <ele>536.59</ele>
        <time>2021-08-03T18:26:23Z</time>
      </trkpt>
      <trkpt lat="42.26245" lon="-1.18953">
        <ele>535.56</ele>
        <time>2021-08-03T18:26:26Z</time>
      </trkpt>
      <trkpt lat="42.26237" lon="-1.18998">
        <ele>533.05</ele>
        <time>2021-08-03T18:26:32Z</time>
      </trkpt>
      <trkpt lat="42.26235" lon="-1.19064">
        <ele>531.38</ele>
        <time>2021-08-03T18:26:38Z</time>
      </trkpt>
      <trkpt lat="42.26214" lon="-1.19136">
        <ele>530.6</ele>
        <time>2021-08-03T18:26:44Z</time>
      </trkpt>
      <trkpt lat="42.26206" lon="-1.19198">
        <ele>529.91</ele>
        <time>2021-08-03T18:26:53Z</time>
      </trkpt>
      <trkpt lat="42.26199" lon="-1.19249">
        <ele>529.75</ele>
        <time>2021-08-03T18:27:01Z</time>
      </trkpt>
      <trkpt lat="42.26179" lon="-1.19384">
        <ele>531.05</ele>
        <time>2021-08-03T18:27:10Z</time>
      </trkpt>
      <trkpt lat="42.26165" lon="-1.19451">
        <ele>532.68</ele>
        <time>2021-08-03T18:27:16Z</time>
      </trkpt>
      <trkpt lat="42.26168" lon="-1.19484">
        <ele>533.72</ele>
        <time>2021-08-03T18:27:20Z</time>
      </trkpt>
      <trkpt lat="42.26183" lon="-1.1957">
        <ele>535.4</ele>
        <time>2021-08-03T18:27:28Z</time>
      </trkpt>
      <trkpt lat="42.26174" lon="-1.19649">
        <ele>538.6</ele>
        <time>2021-08-03T18:27:35Z</time>
      </trkpt>
      <trkpt lat="42.26172" lon="-1.19652">
        <ele>539.23</ele>
        <time>2021-08-03T18:27:36Z</time>
      </trkpt>
      <trkpt lat="42.26169" lon="-1.19662">
        <ele>541.76</ele>
        <time>2021-08-03T18:27:41Z</time>
      </trkpt>
      <trkpt lat="42.26179" lon="-1.19676">
        <ele>543.21</ele>
        <time>2021-08-03T18:27:45Z</time>
      </trkpt>
      <trkpt lat="42.26224" lon="-1.19713">
        <ele>545.74</ele>
        <time>2021-08-03T18:27:55Z</time>
      </trkpt>
      <trkpt lat="42.26246" lon="-1.19699">
        <ele>546.5</ele>
        <time>2021-08-03T18:28:00Z</time>
      </trkpt>
      <trkpt lat="42.26299" lon="-1.19611">
        <ele>547.72</ele>
        <time>2021-08-03T18:28:14Z</time>
      </trkpt>
      <trkpt lat="42.26357" lon="-1.19525">
        <ele>548.37</ele>
        <time>2021-08-03T18:28:28Z</time>
      </trkpt>
      <trkpt lat="42.26456" lon="-1.19456">
        <ele>549.49</ele>
        <time>2021-08-03T18:28:43Z</time>
      </trkpt>
      <trkpt lat="42.26486" lon="-1.19436">
        <ele>550.05</ele>
        <time>2021-08-03T18:28:46Z</time>
      </trkpt>
      <trkpt lat="42.26578" lon="-1.19424">
        <ele>551.87</ele>
        <time>2021-08-03T18:28:53Z</time>
      </trkpt>
      <trkpt lat="42.26707" lon="-1.19421">
        <ele>554.16</ele>
        <time>2021-08-03T18:29:02Z</time>
      </trkpt>
      <trkpt lat="42.26748" lon="-1.19441">
        <ele>554.56</ele>
        <time>2021-08-03T18:29:06Z</time>
      </trkpt>
      <trkpt lat="42.26856" lon="-1.1954">
        <ele>556.12</ele>
        <time>2021-08-03T18:29:15Z</time>
      </trkpt>
      <trkpt lat="42.26955" lon="-1.1958">
        <ele>557.09</ele>
        <time>2021-08-03T18:29:23Z</time>
      </trkpt>
      <trkpt lat="42.26968" lon="-1.19583">
        <ele>557.24</ele>
        <time>2021-08-03T18:29:24Z</time>
      </trkpt>
      <trkpt lat="42.2704" lon="-1.1962">
        <ele>557.18</ele>
        <time>2021-08-03T18:29:32Z</time>
      </trkpt>
      <trkpt lat="42.27124" lon="-1.1966">
        <ele>556.83</ele>
        <time>2021-08-03T18:29:41Z</time>
      </trkpt>
      <trkpt lat="42.27178" lon="-1.19744">
        <ele>557.25</ele>
        <time>2021-08-03T18:29:49Z</time>
      </trkpt>
      <trkpt lat="42.27221" lon="-1.19802">
        <ele>557.52</ele>
        <time>2021-08-03T18:29:56Z</time>
      </trkpt>
      <trkpt lat="42.27271" lon="-1.19854">
        <ele>556.63</ele>
        <time>2021-08-03T18:30:09Z</time>
      </trkpt>
      <trkpt lat="42.27316" lon="-1.19903">
        <ele>556.05</ele>
        <time>2021-08-03T18:30:27Z</time>
      </trkpt>
      <trkpt lat="42.27364" lon="-1.19952">
        <ele>556.54</ele>
        <time>2021-08-03T18:30:36Z</time>
      </trkpt>
      <trkpt lat="42.2745" lon="-1.2004">
        <ele>558.81</ele>
        <time>2021-08-03T18:30:44Z</time>
      </trkpt>
      <trkpt lat="42.27474" lon="-1.20065">
        <ele>559.66</ele>
        <time>2021-08-03T18:30:46Z</time>
      </trkpt>
      <trkpt lat="42.27537" lon="-1.20177">
        <ele>563.39</ele>
        <time>2021-08-03T18:30:53Z</time>
      </trkpt>
      <trkpt lat="42.27594" lon="-1.20246">
        <ele>564.62</ele>
        <time>2021-08-03T18:30:59Z</time>
      </trkpt>
      <trkpt lat="42.27669" lon="-1.20333">
        <ele>563.71</ele>
        <time>2021-08-03T18:31:08Z</time>
      </trkpt>
      <trkpt lat="42.27809" lon="-1.20466">
        <ele>567.03</ele>
        <time>2021-08-03T18:31:21Z</time>
      </trkpt>
      <trkpt lat="42.2791" lon="-1.20557">
        <ele>570.39</ele>
        <time>2021-08-03T18:31:30Z</time>
      </trkpt>
      <trkpt lat="42.2799" lon="-1.20645">
        <ele>573.4</ele>
        <time>2021-08-03T18:31:37Z</time>
      </trkpt>
      <trkpt lat="42.28024" lon="-1.20685">
        <ele>574.54</ele>
        <time>2021-08-03T18:31:40Z</time>
      </trkpt>
      <trkpt lat="42.28093" lon="-1.20809">
        <ele>578.2</ele>
        <time>2021-08-03T18:31:48Z</time>
      </trkpt>
      <trkpt lat="42.28143" lon="-1.20892">
        <ele>581.3</ele>
        <time>2021-08-03T18:31:54Z</time>
      </trkpt>
      <trkpt lat="42.28152" lon="-1.20905">
        <ele>581.61</ele>
        <time>2021-08-03T18:31:55Z</time>
      </trkpt>
      <trkpt lat="42.2824" lon="-1.2097">
        <ele>582.66</ele>
        <time>2021-08-03T18:32:02Z</time>
      </trkpt>
      <trkpt lat="42.28383" lon="-1.21057">
        <ele>584.2</ele>
        <time>2021-08-03T18:32:13Z</time>
      </trkpt>
      <trkpt lat="42.28484" lon="-1.21122">
        <ele>585.92</ele>
        <time>2021-08-03T18:32:21Z</time>
      </trkpt>
      <trkpt lat="42.28533" lon="-1.21212">
        <ele>587.98</ele>
        <time>2021-08-03T18:32:28Z</time>
      </trkpt>
      <trkpt lat="42.28571" lon="-1.21232">
        <ele>588.02</ele>
        <time>2021-08-03T18:32:33Z</time>
      </trkpt>
      <trkpt lat="42.28595" lon="-1.21248">
        <ele>587.08</ele>
        <time>2021-08-03T18:32:38Z</time>
      </trkpt>
      <trkpt lat="42.28595" lon="-1.2127">
        <ele>586.66</ele>
        <time>2021-08-03T18:32:40Z</time>
      </trkpt>
      <trkpt lat="42.28585" lon="-1.21372">
        <ele>583.33</ele>
        <time>2021-08-03T18:32:47Z</time>
      </trkpt>
      <trkpt lat="42.28577" lon="-1.21459">
        <ele>580.23</ele>
        <time>2021-08-03T18:32:53Z</time>
      </trkpt>
      <trkpt lat="42.28566" lon="-1.21556">
        <ele>576.99</ele>
        <time>2021-08-03T18:33:01Z</time>
      </trkpt>
      <trkpt lat="42.28568" lon="-1.21584">
        <ele>574.76</ele>
        <time>2021-08-03T18:33:08Z</time>
      </trkpt>
      <trkpt lat="42.28566" lon="-1.21602">
        <ele>573.69</ele>
        <time>2021-08-03T18:33:19Z</time>
      </trkpt>
      <trkpt lat="42.28561" lon="-1.21647">
        <ele>573.79</ele>
        <time>2021-08-03T18:33:24Z</time>
      </trkpt>
      <trkpt lat="42.28577" lon="-1.21746">
        <ele>574.21</ele>
        <time>2021-08-03T18:33:32Z</time>
      </trkpt>
      <trkpt lat="42.2858" lon="-1.21793">
        <ele>574.17</ele>
        <time>2021-08-03T18:33:35Z</time>
      </trkpt>
      <trkpt lat="42.28597" lon="-1.21867">
        <ele>573.23</ele>
        <time>2021-08-03T18:33:40Z</time>
      </trkpt>
      <trkpt lat="42.28619" lon="-1.21936">
        <ele>572.01</ele>
        <time>2021-08-03T18:33:45Z</time>
      </trkpt>
      <trkpt lat="42.28645" lon="-1.21974">
        <ele>571.3</ele>
        <time>2021-08-03T18:33:49Z</time>
      </trkpt>
      <trkpt lat="42.28662" lon="-1.21987">
        <ele>570.93</ele>
        <time>2021-08-03T18:33:51Z</time>
      </trkpt>
      <trkpt lat="42.28737" lon="-1.21989">
        <ele>570.33</ele>
        <time>2021-08-03T18:33:59Z</time>
      </trkpt>
      <trkpt lat="42.2876" lon="-1.21983">
        <ele>570.54</ele>
        <time>2021-08-03T18:34:02Z</time>
      </trkpt>
      <trkpt lat="42.28772" lon="-1.21985">
        <ele>571.08</ele>
        <time>2021-08-03T18:34:06Z</time>
      </trkpt>
      <trkpt lat="42.28775" lon="-1.21987">
        <ele>572.26</ele>
        <time>2021-08-03T18:34:27Z</time>
      </trkpt>
      <trkpt lat="42.28778" lon="-1.21994">
        <ele>572.27</ele>
        <time>2021-08-03T18:37:11Z</time>
      </trkpt>
      <trkpt lat="42.28783" lon="-1.22006">
        <ele>572.27</ele>
        <time>2021-08-03T18:37:13Z</time>
      </trkpt>
      <trkpt lat="42.28791" lon="-1.22024">
        <ele>572.24</ele>
        <time>2021-08-03T18:37:15Z</time>
      </trkpt>
      <trkpt lat="42.28783" lon="-1.22086">
        <ele>571.1</ele>
        <time>2021-08-03T18:37:21Z</time>
      </trkpt>
      <trkpt lat="42.28791" lon="-1.2211">
        <ele>569.75</ele>
        <time>2021-08-03T18:37:26Z</time>
      </trkpt>
      <trkpt lat="42.28797" lon="-1.2211">
        <ele>569.45</ele>
        <time>2021-08-03T18:37:27Z</time>
      </trkpt>
      <trkpt lat="42.28815" lon="-1.22109">
        <ele>568.75</ele>
        <time>2021-08-03T18:37:30Z</time>
      </trkpt>
      <trkpt lat="42.28835" lon="-1.22116">
        <ele>568.24</ele>
        <time>2021-08-03T18:37:33Z</time>
      </trkpt>
      <trkpt lat="42.28882" lon="-1.22125">
        <ele>565.66</ele>
        <time>2021-08-03T18:37:41Z</time>
      </trkpt>
      <trkpt lat="42.28892" lon="-1.22126">
        <ele>563.47</ele>
        <time>2021-08-03T18:37:53Z</time>
      </trkpt>
      <trkpt lat="42.28926" lon="-1.22137">
        <ele>563.48</ele>
        <time>2021-08-03T18:37:57Z</time>
      </trkpt>
      <trkpt lat="42.2898" lon="-1.22191">
        <ele>563.19</ele>
        <time>2021-08-03T18:38:04Z</time>
      </trkpt>
      <trkpt lat="42.29014" lon="-1.22204">
        <ele>561.77</ele>
        <time>2021-08-03T18:38:10Z</time>
      </trkpt>
      <trkpt lat="42.29025" lon="-1.22222">
        <ele>559.48</ele>
        <time>2021-08-03T18:38:18Z</time>
      </trkpt>
      <trkpt lat="42.29032" lon="-1.22233">
        <ele>559.12</ele>
        <time>2021-08-03T18:38:20Z</time>
      </trkpt>
      <trkpt lat="42.29044" lon="-1.22262">
        <ele>558.45</ele>
        <time>2021-08-03T18:38:24Z</time>
      </trkpt>
      <trkpt lat="42.29051" lon="-1.223">
        <ele>556.58</ele>
        <time>2021-08-03T18:38:32Z</time>
      </trkpt>
      <trkpt lat="42.29068" lon="-1.2241">
        <ele>554.38</ele>
        <time>2021-08-03T18:38:43Z</time>
      </trkpt>
      <trkpt lat="42.29089" lon="-1.22553">
        <ele>552.54</ele>
        <time>2021-08-03T18:38:54Z</time>
      </trkpt>
      <trkpt lat="42.29105" lon="-1.22648">
        <ele>551.41</ele>
        <time>2021-08-03T18:39:01Z</time>
      </trkpt>
      <trkpt lat="42.29118" lon="-1.22687">
        <ele>548.35</ele>
        <time>2021-08-03T18:39:11Z</time>
      </trkpt>
      <trkpt lat="42.29148" lon="-1.22765">
        <ele>546.61</ele>
        <time>2021-08-03T18:39:25Z</time>
      </trkpt>
      <trkpt lat="42.29157" lon="-1.22791">
        <ele>546.34</ele>
        <time>2021-08-03T18:39:28Z</time>
      </trkpt>
      <trkpt lat="42.29162" lon="-1.22822">
        <ele>546.3</ele>
        <time>2021-08-03T18:39:31Z</time>
      </trkpt>
      <trkpt lat="42.29163" lon="-1.22898">
        <ele>545.59</ele>
        <time>2021-08-03T18:39:41Z</time>
      </trkpt>
      <trkpt lat="42.29167" lon="-1.23">
        <ele>545.46</ele>
        <time>2021-08-03T18:39:51Z</time>
      </trkpt>
      <trkpt lat="42.29167" lon="-1.23064">
        <ele>545.4</ele>
        <time>2021-08-03T18:39:57Z</time>
      </trkpt>
      <trkpt lat="42.29175" lon="-1.23142">
        <ele>545.15</ele>
        <time>2021-08-03T18:40:05Z</time>
      </trkpt>
      <trkpt lat="42.2919" lon="-1.23216">
        <ele>544.76</ele>
        <time>2021-08-03T18:40:13Z</time>
      </trkpt>
      <trkpt lat="42.29191" lon="-1.23274">
        <ele>544.68</ele>
        <time>2021-08-03T18:40:19Z</time>
      </trkpt>
      <trkpt lat="42.29216" lon="-1.23355">
        <ele>544.45</ele>
        <time>2021-08-03T18:40:29Z</time>
      </trkpt>
      <trkpt lat="42.29234" lon="-1.23423">
        <ele>544.33</ele>
        <time>2021-08-03T18:40:40Z</time>
      </trkpt>
      <trkpt lat="42.29243" lon="-1.2347">
        <ele>544.38</ele>
        <time>2021-08-03T18:40:50Z</time>
      </trkpt>
      <trkpt lat="42.2926" lon="-1.23544">
        <ele>545.24</ele>
        <time>2021-08-03T18:41:00Z</time>
      </trkpt>
      <trkpt lat="42.29273" lon="-1.236">
        <ele>545.78</ele>
        <time>2021-08-03T18:41:04Z</time>
      </trkpt>
      <trkpt lat="42.29311" lon="-1.23676">
        <ele>546.8</ele>
        <time>2021-08-03T18:41:09Z</time>
      </trkpt>
      <trkpt lat="42.29339" lon="-1.2372">
        <ele>547.19</ele>
        <time>2021-08-03T18:41:13Z</time>
      </trkpt>
      <trkpt lat="42.2934" lon="-1.23801">
        <ele>547.26</ele>
        <time>2021-08-03T18:41:19Z</time>
      </trkpt>
      <trkpt lat="42.29331" lon="-1.23839">
        <ele>547.24</ele>
        <time>2021-08-03T18:41:21Z</time>
      </trkpt>
      <trkpt lat="42.29334" lon="-1.23934">
        <ele>547.34</ele>
        <time>2021-08-03T18:41:26Z</time>
      </trkpt>
      <trkpt lat="42.2935" lon="-1.24047">
        <ele>547.03</ele>
        <time>2021-08-03T18:41:33Z</time>
      </trkpt>
      <trkpt lat="42.29354" lon="-1.24066">
        <ele>546.58</ele>
        <time>2021-08-03T18:41:35Z</time>
      </trkpt>
      <trkpt lat="42.29379" lon="-1.24147">
        <ele>543.04</ele>
        <time>2021-08-03T18:41:45Z</time>
      </trkpt>
      <trkpt lat="42.29382" lon="-1.24156">
        <ele>542.63</ele>
        <time>2021-08-03T18:41:46Z</time>
      </trkpt>
      <trkpt lat="42.29431" lon="-1.24228">
        <ele>540.3</ele>
        <time>2021-08-03T18:41:53Z</time>
      </trkpt>
      <trkpt lat="42.29441" lon="-1.24239">
        <ele>539.96</ele>
        <time>2021-08-03T18:41:54Z</time>
      </trkpt>
      <trkpt lat="42.29497" lon="-1.2433">
        <ele>538.56</ele>
        <time>2021-08-03T18:42:01Z</time>
      </trkpt>
      <trkpt lat="42.29524" lon="-1.24369">
        <ele>537.88</ele>
        <time>2021-08-03T18:42:06Z</time>
      </trkpt>
      <trkpt lat="42.29582" lon="-1.24412">
        <ele>536.86</ele>
        <time>2021-08-03T18:42:17Z</time>
      </trkpt>
      <trkpt lat="42.29589" lon="-1.24461">
        <ele>537.24</ele>
        <time>2021-08-03T18:42:24Z</time>
      </trkpt>
      <trkpt lat="42.29589" lon="-1.24474">
        <ele>537.31</ele>
        <time>2021-08-03T18:42:25Z</time>
      </trkpt>
      <trkpt lat="42.29594" lon="-1.24529">
        <ele>537.54</ele>
        <time>2021-08-03T18:42:29Z</time>
      </trkpt>
      <trkpt lat="42.29612" lon="-1.24608">
        <ele>536.16</ele>
        <time>2021-08-03T18:42:37Z</time>
      </trkpt>
      <trkpt lat="42.29615" lon="-1.24625">
        <ele>534.14</ele>
        <time>2021-08-03T18:42:44Z</time>
      </trkpt>
      <trkpt lat="42.29616" lon="-1.24658">
        <ele>533.32</ele>
        <time>2021-08-03T18:42:56Z</time>
      </trkpt>
      <trkpt lat="42.29632" lon="-1.24717">
        <ele>533.22</ele>
        <time>2021-08-03T18:43:02Z</time>
      </trkpt>
      <trkpt lat="42.29624" lon="-1.24791">
        <ele>532.35</ele>
        <time>2021-08-03T18:43:08Z</time>
      </trkpt>
      <trkpt lat="42.29598" lon="-1.24859">
        <ele>530.51</ele>
        <time>2021-08-03T18:43:14Z</time>
      </trkpt>
      <trkpt lat="42.29607" lon="-1.24922">
        <ele>528.18</ele>
        <time>2021-08-03T18:43:21Z</time>
      </trkpt>
      <trkpt lat="42.29614" lon="-1.24933">
        <ele>526.16</ele>
        <time>2021-08-03T18:43:28Z</time>
      </trkpt>
      <trkpt lat="42.29603" lon="-1.24957">
        <ele>525.44</ele>
        <time>2021-08-03T18:43:32Z</time>
      </trkpt>
      <trkpt lat="42.29532" lon="-1.25065">
        <ele>525.34</ele>
        <time>2021-08-03T18:43:40Z</time>
      </trkpt>
      <trkpt lat="42.29432" lon="-1.25213">
        <ele>525.66</ele>
        <time>2021-08-03T18:43:47Z</time>
      </trkpt>
      <trkpt lat="42.2924" lon="-1.25511">
        <ele>523.02</ele>
        <time>2021-08-03T18:43:58Z</time>
      </trkpt>
      <trkpt lat="42.29085" lon="-1.25837">
        <ele>522.53</ele>
        <time>2021-08-03T18:44:08Z</time>
      </trkpt>
      <trkpt lat="42.29" lon="-1.25986">
        <ele>519.9</ele>
        <time>2021-08-03T18:44:14Z</time>
      </trkpt>
      <trkpt lat="42.28874" lon="-1.26138">
        <ele>516.63</ele>
        <time>2021-08-03T18:44:22Z</time>
      </trkpt>
      <trkpt lat="42.2873" lon="-1.26312">
        <ele>513.53</ele>
        <time>2021-08-03T18:44:32Z</time>
      </trkpt>
      <trkpt lat="42.28628" lon="-1.26432">
        <ele>511.13</ele>
        <time>2021-08-03T18:44:40Z</time>
      </trkpt>
      <trkpt lat="42.28528" lon="-1.26552">
        <ele>508.66</ele>
        <time>2021-08-03T18:44:49Z</time>
      </trkpt>
      <trkpt lat="42.28433" lon="-1.26666">
        <ele>506.05</ele>
        <time>2021-08-03T18:45:00Z</time>
      </trkpt>
      <trkpt lat="42.28368" lon="-1.26766">
        <ele>504.09</ele>
        <time>2021-08-03T18:45:10Z</time>
      </trkpt>
      <trkpt lat="42.2832" lon="-1.26846">
        <ele>501.87</ele>
        <time>2021-08-03T18:45:21Z</time>
      </trkpt>
      <trkpt lat="42.28271" lon="-1.26917">
        <ele>500.52</ele>
        <time>2021-08-03T18:45:32Z</time>
      </trkpt>
      <trkpt lat="42.28226" lon="-1.26981">
        <ele>499.86</ele>
        <time>2021-08-03T18:45:42Z</time>
      </trkpt>
      <trkpt lat="42.2819" lon="-1.27031">
        <ele>499.47</ele>
        <time>2021-08-03T18:45:53Z</time>
      </trkpt>
      <trkpt lat="42.28184" lon="-1.27051">
        <ele>499.31</ele>
        <time>2021-08-03T18:46:00Z</time>
      </trkpt>
      <trkpt lat="42.28223" lon="-1.27103">
        <ele>499.76</ele>
        <time>2021-08-03T18:46:11Z</time>
      </trkpt>
      <trkpt lat="42.28258" lon="-1.27151">
        <ele>500.08</ele>
        <time>2021-08-03T18:46:22Z</time>
      </trkpt>
      <trkpt lat="42.28255" lon="-1.27169">
        <ele>500.47</ele>
        <time>2021-08-03T18:46:28Z</time>
      </trkpt>
      <trkpt lat="42.28236" lon="-1.27195">
        <ele>500.6</ele>
        <time>2021-08-03T18:46:39Z</time>
      </trkpt>
      <trkpt lat="42.28228" lon="-1.2721">
        <ele>500.51</ele>
        <time>2021-08-03T18:46:50Z</time>
      </trkpt>
      <trkpt lat="42.2822" lon="-1.27215">
        <ele>500.52</ele>
        <time>2021-08-03T18:46:54Z</time>
      </trkpt>
      <trkpt lat="42.28224" lon="-1.27266">
        <ele>500.31</ele>
        <time>2021-08-03T18:47:07Z</time>
      </trkpt>
      <trkpt lat="42.2823" lon="-1.27315">
        <ele>499.66</ele>
        <time>2021-08-03T18:47:22Z</time>
      </trkpt>
      <trkpt lat="42.28222" lon="-1.2735">
        <ele>499.31</ele>
        <time>2021-08-03T18:47:38Z</time>
      </trkpt>
      <trkpt lat="42.28218" lon="-1.2736">
        <ele>498.88</ele>
        <time>2021-08-03T18:47:51Z</time>
      </trkpt>
      <trkpt lat="42.28218" lon="-1.27353">
        <ele>498.69</ele>
        <time>2021-08-03T18:47:59Z</time>
      </trkpt>
      <trkpt lat="42.28227" lon="-1.27346">
        <ele>498.94</ele>
        <time>2021-08-03T18:48:10Z</time>
      </trkpt>
      <trkpt lat="42.28229" lon="-1.2734">
        <ele>499</ele>
        <time>2021-08-03T18:48:14Z</time>
      </trkpt>
      <trkpt lat="42.28236" lon="-1.27316">
        <ele>499.25</ele>
        <time>2021-08-03T18:48:30Z</time>
      </trkpt>
      <trkpt lat="42.28231" lon="-1.27309">
        <ele>499.37</ele>
        <time>2021-08-03T18:48:51Z</time>
      </trkpt>
      <trkpt lat="42.28229" lon="-1.27345">
        <ele>499.3</ele>
        <time>2021-08-03T18:49:02Z</time>
      </trkpt>
      <trkpt lat="42.28226" lon="-1.27356">
        <ele>498.83</ele>
        <time>2021-08-03T18:49:13Z</time>
      </trkpt>
      <trkpt lat="42.28224" lon="-1.27348">
        <ele>498.69</ele>
        <time>2021-08-03T18:49:23Z</time>
      </trkpt>
      <trkpt lat="42.28218" lon="-1.27351">
        <ele>498.67</ele>
        <time>2021-08-03T18:49:41Z</time>
      </trkpt>
      <trkpt lat="42.28221" lon="-1.2735">
        <ele>498.6</ele>
        <time>2021-08-03T18:49:55Z</time>
      </trkpt>
      <trkpt lat="42.28222" lon="-1.2735">
        <ele>498.58</ele>
        <time>2021-08-03T18:49:56Z</time>
      </trkpt>
      <trkpt lat="42.28225" lon="-1.2735">
        <ele>498.52</ele>
        <time>2021-08-03T18:50:01Z</time>
      </trkpt>
      <trkpt lat="42.28228" lon="-1.27351">
        <ele>499.11</ele>
        <time>2021-08-03T18:50:23Z</time>
      </trkpt>
      <trkpt lat="42.28229" lon="-1.27351">
        <ele>499.15</ele>
        <time>2021-08-03T18:50:29Z</time>
      </trkpt>
      <trkpt lat="42.28196" lon="-1.27289">
        <ele>500.75</ele>
        <time>2021-08-03T18:51:01Z</time>
      </trkpt>
      <trkpt lat="42.2822" lon="-1.27347">
        <ele>500.75</ele>
        <time>2021-08-03T18:51:18Z</time>
      </trkpt>
    </trkseg>
  </trk>
  <trk>
    <name><![CDATA[J4]]></name>
    <extensions>
      <line xmlns="http://www.topografix.com/GPX/gpx_style/0/2">
        <color>0000FF</color>
        <width>4</width>
      </line>
    </extensions>
    <trkseg>
      <trkpt lat="42.28826" lon="0.5343">
        <ele>750.13</ele>
        <time>2021-08-02T08:42:58Z</time>
      </trkpt>
      <trkpt lat="42.28826" lon="0.5343">
        <ele>750.13</ele>
        <time>2021-08-02T08:42:58Z</time>
      </trkpt>
      <trkpt lat="42.28819" lon="0.53433">
        <ele>749.77</ele>
        <time>2021-08-02T08:42:59Z</time>
      </trkpt>
      <trkpt lat="42.2875" lon="0.53442">
        <ele>748.95</ele>
        <time>2021-08-02T08:43:05Z</time>
      </trkpt>
      <trkpt lat="42.28596" lon="0.53457">
        <ele>749</ele>
        <time>2021-08-02T08:43:13Z</time>
      </trkpt>
      <trkpt lat="42.28555" lon="0.53463">
        <ele>748.12</ele>
        <time>2021-08-02T08:43:15Z</time>
      </trkpt>
      <trkpt lat="42.28484" lon="0.53514">
        <ele>744.16</ele>
        <time>2021-08-02T08:43:19Z</time>
      </trkpt>
      <trkpt lat="42.28453" lon="0.53547">
        <ele>741.51</ele>
        <time>2021-08-02T08:43:21Z</time>
      </trkpt>
      <trkpt lat="42.28402" lon="0.53572">
        <ele>736.49</ele>
        <time>2021-08-02T08:43:24Z</time>
      </trkpt>
      <trkpt lat="42.28366" lon="0.53569">
        <ele>732.41</ele>
        <time>2021-08-02T08:43:26Z</time>
      </trkpt>
      <trkpt lat="42.28336" lon="0.53552">
        <ele>728.32</ele>
        <time>2021-08-02T08:43:28Z</time>
      </trkpt>
      <trkpt lat="42.28313" lon="0.53524">
        <ele>724.24</ele>
        <time>2021-08-02T08:43:30Z</time>
      </trkpt>
      <trkpt lat="42.28294" lon="0.5349">
        <ele>720.32</ele>
        <time>2021-08-02T08:43:32Z</time>
      </trkpt>
      <trkpt lat="42.28286" lon="0.5347">
        <ele>718.47</ele>
        <time>2021-08-02T08:43:33Z</time>
      </trkpt>
      <trkpt lat="42.28263" lon="0.53405">
        <ele>713.35</ele>
        <time>2021-08-02T08:43:36Z</time>
      </trkpt>
      <trkpt lat="42.28237" lon="0.53342">
        <ele>709.08</ele>
        <time>2021-08-02T08:43:39Z</time>
      </trkpt>
      <trkpt lat="42.28211" lon="0.53278">
        <ele>705.18</ele>
        <time>2021-08-02T08:43:42Z</time>
      </trkpt>
      <trkpt lat="42.28186" lon="0.53218">
        <ele>700.95</ele>
        <time>2021-08-02T08:43:45Z</time>
      </trkpt>
      <trkpt lat="42.28163" lon="0.5316">
        <ele>696.73</ele>
        <time>2021-08-02T08:43:48Z</time>
      </trkpt>
      <trkpt lat="42.28138" lon="0.53101">
        <ele>692.76</ele>
        <time>2021-08-02T08:43:51Z</time>
      </trkpt>
      <trkpt lat="42.28114" lon="0.53042">
        <ele>689.43</ele>
        <time>2021-08-02T08:43:54Z</time>
      </trkpt>
      <trkpt lat="42.28098" lon="0.53005">
        <ele>687.32</ele>
        <time>2021-08-02T08:43:56Z</time>
      </trkpt>
      <trkpt lat="42.28056" lon="0.52947">
        <ele>683.2</ele>
        <time>2021-08-02T08:44:00Z</time>
      </trkpt>
      <trkpt lat="42.27976" lon="0.52922">
        <ele>680.54</ele>
        <time>2021-08-02T08:44:05Z</time>
      </trkpt>
      <trkpt lat="42.27929" lon="0.5294">
        <ele>680.01</ele>
        <time>2021-08-02T08:44:08Z</time>
      </trkpt>
      <trkpt lat="42.2787" lon="0.52979">
        <ele>679.11</ele>
        <time>2021-08-02T08:44:12Z</time>
      </trkpt>
      <trkpt lat="42.27807" lon="0.5306">
        <ele>678.73</ele>
        <time>2021-08-02T08:44:17Z</time>
      </trkpt>
      <trkpt lat="42.27741" lon="0.53191">
        <ele>678.77</ele>
        <time>2021-08-02T08:44:24Z</time>
      </trkpt>
      <trkpt lat="42.27657" lon="0.5323">
        <ele>678.7</ele>
        <time>2021-08-02T08:44:30Z</time>
      </trkpt>
      <trkpt lat="42.27625" lon="0.5322">
        <ele>678.66</ele>
        <time>2021-08-02T08:44:32Z</time>
      </trkpt>
      <trkpt lat="42.27474" lon="0.5316">
        <ele>678.84</ele>
        <time>2021-08-02T08:44:41Z</time>
      </trkpt>
      <trkpt lat="42.27418" lon="0.53106">
        <ele>677.78</ele>
        <time>2021-08-02T08:44:45Z</time>
      </trkpt>
      <trkpt lat="42.27269" lon="0.5287">
        <ele>674.31</ele>
        <time>2021-08-02T08:44:57Z</time>
      </trkpt>
      <trkpt lat="42.27142" lon="0.52675">
        <ele>672.03</ele>
        <time>2021-08-02T08:45:07Z</time>
      </trkpt>
      <trkpt lat="42.2702" lon="0.52552">
        <ele>669.85</ele>
        <time>2021-08-02T08:45:15Z</time>
      </trkpt>
      <trkpt lat="42.26912" lon="0.52405">
        <ele>671.43</ele>
        <time>2021-08-02T08:45:23Z</time>
      </trkpt>
      <trkpt lat="42.26833" lon="0.52346">
        <ele>672.17</ele>
        <time>2021-08-02T08:45:28Z</time>
      </trkpt>
      <trkpt lat="42.26747" lon="0.52327">
        <ele>672.36</ele>
        <time>2021-08-02T08:45:33Z</time>
      </trkpt>
      <trkpt lat="42.2663" lon="0.52238">
        <ele>673.42</ele>
        <time>2021-08-02T08:45:41Z</time>
      </trkpt>
      <trkpt lat="42.26604" lon="0.5221">
        <ele>673.54</ele>
        <time>2021-08-02T08:45:43Z</time>
      </trkpt>
      <trkpt lat="42.26536" lon="0.52066">
        <ele>673.39</ele>
        <time>2021-08-02T08:45:50Z</time>
      </trkpt>
      <trkpt lat="42.26496" lon="0.51984">
        <ele>673.05</ele>
        <time>2021-08-02T08:45:54Z</time>
      </trkpt>
      <trkpt lat="42.26324" lon="0.51791">
        <ele>669.87</ele>
        <time>2021-08-02T08:46:06Z</time>
      </trkpt>
      <trkpt lat="42.26263" lon="0.51726">
        <ele>667.48</ele>
        <time>2021-08-02T08:46:10Z</time>
      </trkpt>
      <trkpt lat="42.2619" lon="0.51695">
        <ele>665.18</ele>
        <time>2021-08-02T08:46:14Z</time>
      </trkpt>
      <trkpt lat="42.26071" lon="0.51708">
        <ele>662.25</ele>
        <time>2021-08-02T08:46:20Z</time>
      </trkpt>
      <trkpt lat="42.25955" lon="0.51775">
        <ele>658.37</ele>
        <time>2021-08-02T08:46:27Z</time>
      </trkpt>
      <trkpt lat="42.2594" lon="0.51784">
        <ele>657.78</ele>
        <time>2021-08-02T08:46:28Z</time>
      </trkpt>
      <trkpt lat="42.25869" lon="0.51785">
        <ele>656.15</ele>
        <time>2021-08-02T08:46:32Z</time>
      </trkpt>
      <trkpt lat="42.25781" lon="0.51748">
        <ele>655.3</ele>
        <time>2021-08-02T08:46:37Z</time>
      </trkpt>
      <trkpt lat="42.2567" lon="0.51659">
        <ele>652.63</ele>
        <time>2021-08-02T08:46:45Z</time>
      </trkpt>
      <trkpt lat="42.25657" lon="0.51628">
        <ele>648.14</ele>
        <time>2021-08-02T08:46:49Z</time>
      </trkpt>
      <trkpt lat="42.25655" lon="0.5158">
        <ele>642.58</ele>
        <time>2021-08-02T08:46:55Z</time>
      </trkpt>
      <trkpt lat="42.25654" lon="0.51564">
        <ele>641.55</ele>
        <time>2021-08-02T08:46:57Z</time>
      </trkpt>
      <trkpt lat="42.25663" lon="0.51513">
        <ele>640.38</ele>
        <time>2021-08-02T08:47:02Z</time>
      </trkpt>
      <trkpt lat="42.25697" lon="0.51388">
        <ele>640.25</ele>
        <time>2021-08-02T08:47:13Z</time>
      </trkpt>
      <trkpt lat="42.25714" lon="0.51352">
        <ele>640.28</ele>
        <time>2021-08-02T08:47:18Z</time>
      </trkpt>
      <trkpt lat="42.25701" lon="0.51331">
        <ele>640.28</ele>
        <time>2021-08-02T08:47:24Z</time>
      </trkpt>
      <trkpt lat="42.25689" lon="0.5134">
        <ele>640.3</ele>
        <time>2021-08-02T08:47:26Z</time>
      </trkpt>
      <trkpt lat="42.25638" lon="0.51403">
        <ele>643.5</ele>
        <time>2021-08-02T08:47:35Z</time>
      </trkpt>
      <trkpt lat="42.25622" lon="0.51428">
        <ele>645.69</ele>
        <time>2021-08-02T08:47:38Z</time>
      </trkpt>
      <trkpt lat="42.25585" lon="0.51441">
        <ele>650.18</ele>
        <time>2021-08-02T08:47:43Z</time>
      </trkpt>
      <trkpt lat="42.25557" lon="0.51439">
        <ele>652.95</ele>
        <time>2021-08-02T08:47:46Z</time>
      </trkpt>
      <trkpt lat="42.25513" lon="0.51425">
        <ele>657.76</ele>
        <time>2021-08-02T08:47:51Z</time>
      </trkpt>
      <trkpt lat="42.2549" lon="0.51385">
        <ele>661.92</ele>
        <time>2021-08-02T08:47:56Z</time>
      </trkpt>
      <trkpt lat="42.25474" lon="0.51368">
        <ele>665.01</ele>
        <time>2021-08-02T08:48:00Z</time>
      </trkpt>
      <trkpt lat="42.2545" lon="0.51395">
        <ele>668.39</ele>
        <time>2021-08-02T08:48:05Z</time>
      </trkpt>
      <trkpt lat="42.25446" lon="0.51403">
        <ele>669.09</ele>
        <time>2021-08-02T08:48:06Z</time>
      </trkpt>
      <trkpt lat="42.25419" lon="0.51445">
        <ele>672.84</ele>
        <time>2021-08-02T08:48:11Z</time>
      </trkpt>
      <trkpt lat="42.25412" lon="0.5145">
        <ele>673.34</ele>
        <time>2021-08-02T08:48:12Z</time>
      </trkpt>
      <trkpt lat="42.25405" lon="0.51453">
        <ele>673.75</ele>
        <time>2021-08-02T08:48:13Z</time>
      </trkpt>
      <trkpt lat="42.25398" lon="0.51454">
        <ele>674.04</ele>
        <time>2021-08-02T08:48:14Z</time>
      </trkpt>
      <trkpt lat="42.25391" lon="0.51454">
        <ele>674.35</ele>
        <time>2021-08-02T08:48:15Z</time>
      </trkpt>
      <trkpt lat="42.25384" lon="0.51454">
        <ele>674.76</ele>
        <time>2021-08-02T08:48:16Z</time>
      </trkpt>
      <trkpt lat="42.25377" lon="0.51451">
        <ele>675.21</ele>
        <time>2021-08-02T08:48:17Z</time>
      </trkpt>
      <trkpt lat="42.25359" lon="0.51432">
        <ele>676.59</ele>
        <time>2021-08-02T08:48:20Z</time>
      </trkpt>
      <trkpt lat="42.25322" lon="0.51376">
        <ele>680.25</ele>
        <time>2021-08-02T08:48:26Z</time>
      </trkpt>
      <trkpt lat="42.25303" lon="0.51351">
        <ele>681.65</ele>
        <time>2021-08-02T08:48:29Z</time>
      </trkpt>
      <trkpt lat="42.25288" lon="0.51309">
        <ele>682.97</ele>
        <time>2021-08-02T08:48:33Z</time>
      </trkpt>
      <trkpt lat="42.25258" lon="0.51277">
        <ele>684.28</ele>
        <time>2021-08-02T08:48:39Z</time>
      </trkpt>
      <trkpt lat="42.2525" lon="0.51281">
        <ele>684.34</ele>
        <time>2021-08-02T08:48:40Z</time>
      </trkpt>
      <trkpt lat="42.25205" lon="0.51286">
        <ele>685.4</ele>
        <time>2021-08-02T08:48:45Z</time>
      </trkpt>
      <trkpt lat="42.25165" lon="0.51233">
        <ele>688.89</ele>
        <time>2021-08-02T08:48:52Z</time>
      </trkpt>
      <trkpt lat="42.25162" lon="0.51218">
        <ele>690.17</ele>
        <time>2021-08-02T08:48:54Z</time>
      </trkpt>
      <trkpt lat="42.25161" lon="0.51214">
        <ele>690.95</ele>
        <time>2021-08-02T08:48:56Z</time>
      </trkpt>
      <trkpt lat="42.25163" lon="0.51189">
        <ele>691.18</ele>
        <time>2021-08-02T08:49:01Z</time>
      </trkpt>
      <trkpt lat="42.25141" lon="0.51135">
        <ele>690.5</ele>
        <time>2021-08-02T08:49:08Z</time>
      </trkpt>
      <trkpt lat="42.25142" lon="0.51126">
        <ele>690.33</ele>
        <time>2021-08-02T08:49:09Z</time>
      </trkpt>
      <trkpt lat="42.25118" lon="0.51057">
        <ele>688.9</ele>
        <time>2021-08-02T08:49:16Z</time>
      </trkpt>
      <trkpt lat="42.25094" lon="0.51032">
        <ele>688.64</ele>
        <time>2021-08-02T08:49:19Z</time>
      </trkpt>
      <trkpt lat="42.25052" lon="0.50984">
        <ele>688.58</ele>
        <time>2021-08-02T08:49:25Z</time>
      </trkpt>
      <trkpt lat="42.25042" lon="0.50924">
        <ele>687.19</ele>
        <time>2021-08-02T08:49:31Z</time>
      </trkpt>
      <trkpt lat="42.25049" lon="0.50863">
        <ele>685.44</ele>
        <time>2021-08-02T08:49:36Z</time>
      </trkpt>
      <trkpt lat="42.25048" lon="0.50797">
        <ele>683.22</ele>
        <time>2021-08-02T08:49:41Z</time>
      </trkpt>
      <trkpt lat="42.25045" lon="0.50783">
        <ele>683.02</ele>
        <time>2021-08-02T08:49:42Z</time>
      </trkpt>
      <trkpt lat="42.25039" lon="0.50755">
        <ele>682.56</ele>
        <time>2021-08-02T08:49:44Z</time>
      </trkpt>
      <trkpt lat="42.25014" lon="0.50714">
        <ele>680.72</ele>
        <time>2021-08-02T08:49:48Z</time>
      </trkpt>
      <trkpt lat="42.24975" lon="0.50668">
        <ele>679.01</ele>
        <time>2021-08-02T08:49:53Z</time>
      </trkpt>
      <trkpt lat="42.24944" lon="0.50598">
        <ele>676.46</ele>
        <time>2021-08-02T08:49:58Z</time>
      </trkpt>
      <trkpt lat="42.24929" lon="0.50573">
        <ele>674.91</ele>
        <time>2021-08-02T08:50:00Z</time>
      </trkpt>
      <trkpt lat="42.24916" lon="0.5052">
        <ele>670.92</ele>
        <time>2021-08-02T08:50:04Z</time>
      </trkpt>
      <trkpt lat="42.24927" lon="0.50453">
        <ele>664.84</ele>
        <time>2021-08-02T08:50:09Z</time>
      </trkpt>
      <trkpt lat="42.24943" lon="0.50377">
        <ele>658.79</ele>
        <time>2021-08-02T08:50:14Z</time>
      </trkpt>
      <trkpt lat="42.24945" lon="0.50363">
        <ele>657.39</ele>
        <time>2021-08-02T08:50:15Z</time>
      </trkpt>
      <trkpt lat="42.24962" lon="0.50312">
        <ele>652.02</ele>
        <time>2021-08-02T08:50:19Z</time>
      </trkpt>
      <trkpt lat="42.2497" lon="0.50293">
        <ele>649.47</ele>
        <time>2021-08-02T08:50:21Z</time>
      </trkpt>
      <trkpt lat="42.24969" lon="0.50255">
        <ele>644.56</ele>
        <time>2021-08-02T08:50:25Z</time>
      </trkpt>
      <trkpt lat="42.24939" lon="0.50256">
        <ele>640.88</ele>
        <time>2021-08-02T08:50:29Z</time>
      </trkpt>
      <trkpt lat="42.24914" lon="0.5027">
        <ele>639.62</ele>
        <time>2021-08-02T08:50:32Z</time>
      </trkpt>
      <trkpt lat="42.24906" lon="0.50275">
        <ele>639.51</ele>
        <time>2021-08-02T08:50:33Z</time>
      </trkpt>
      <trkpt lat="42.24881" lon="0.50281">
        <ele>640.06</ele>
        <time>2021-08-02T08:50:36Z</time>
      </trkpt>
      <trkpt lat="42.24851" lon="0.50296">
        <ele>642.36</ele>
        <time>2021-08-02T08:50:40Z</time>
      </trkpt>
      <trkpt lat="42.24796" lon="0.50307">
        <ele>646.91</ele>
        <time>2021-08-02T08:50:46Z</time>
      </trkpt>
      <trkpt lat="42.24788" lon="0.50306">
        <ele>647.68</ele>
        <time>2021-08-02T08:50:47Z</time>
      </trkpt>
      <trkpt lat="42.24756" lon="0.50288">
        <ele>650.41</ele>
        <time>2021-08-02T08:50:52Z</time>
      </trkpt>
      <trkpt lat="42.24755" lon="0.50255">
        <ele>650.54</ele>
        <time>2021-08-02T08:50:55Z</time>
      </trkpt>
      <trkpt lat="42.24735" lon="0.50209">
        <ele>647.56</ele>
        <time>2021-08-02T08:51:01Z</time>
      </trkpt>
      <trkpt lat="42.24704" lon="0.50245">
        <ele>644.32</ele>
        <time>2021-08-02T08:51:06Z</time>
      </trkpt>
      <trkpt lat="42.24693" lon="0.50305">
        <ele>643.06</ele>
        <time>2021-08-02T08:51:11Z</time>
      </trkpt>
      <trkpt lat="42.24683" lon="0.50368">
        <ele>643.66</ele>
        <time>2021-08-02T08:51:16Z</time>
      </trkpt>
      <trkpt lat="42.24664" lon="0.50409">
        <ele>646.02</ele>
        <time>2021-08-02T08:51:20Z</time>
      </trkpt>
      <trkpt lat="42.24626" lon="0.50415">
        <ele>649.8</ele>
        <time>2021-08-02T08:51:25Z</time>
      </trkpt>
      <trkpt lat="42.24616" lon="0.5041">
        <ele>650.51</ele>
        <time>2021-08-02T08:51:26Z</time>
      </trkpt>
      <trkpt lat="42.24594" lon="0.504">
        <ele>652.21</ele>
        <time>2021-08-02T08:51:28Z</time>
      </trkpt>
      <trkpt lat="42.24548" lon="0.50402">
        <ele>655.69</ele>
        <time>2021-08-02T08:51:32Z</time>
      </trkpt>
      <trkpt lat="42.24485" lon="0.50419">
        <ele>660.02</ele>
        <time>2021-08-02T08:51:37Z</time>
      </trkpt>
      <trkpt lat="42.24449" lon="0.50418">
        <ele>664.03</ele>
        <time>2021-08-02T08:51:43Z</time>
      </trkpt>
      <trkpt lat="42.24428" lon="0.5039">
        <ele>667.01</ele>
        <time>2021-08-02T08:51:50Z</time>
      </trkpt>
      <trkpt lat="42.24431" lon="0.50383">
        <ele>667.28</ele>
        <time>2021-08-02T08:51:51Z</time>
      </trkpt>
      <trkpt lat="42.24436" lon="0.50377">
        <ele>667.5</ele>
        <time>2021-08-02T08:51:52Z</time>
      </trkpt>
      <trkpt lat="42.24443" lon="0.5037">
        <ele>667.68</ele>
        <time>2021-08-02T08:51:53Z</time>
      </trkpt>
      <trkpt lat="42.24452" lon="0.50362">
        <ele>667.88</ele>
        <time>2021-08-02T08:51:54Z</time>
      </trkpt>
      <trkpt lat="42.24502" lon="0.50306">
        <ele>669.76</ele>
        <time>2021-08-02T08:52:00Z</time>
      </trkpt>
      <trkpt lat="42.24517" lon="0.5026">
        <ele>671.16</ele>
        <time>2021-08-02T08:52:04Z</time>
      </trkpt>
      <trkpt lat="42.24538" lon="0.5022">
        <ele>672.19</ele>
        <time>2021-08-02T08:52:08Z</time>
      </trkpt>
      <trkpt lat="42.24608" lon="0.50096">
        <ele>674.1</ele>
        <time>2021-08-02T08:52:17Z</time>
      </trkpt>
      <trkpt lat="42.24614" lon="0.50085">
        <ele>674.31</ele>
        <time>2021-08-02T08:52:18Z</time>
      </trkpt>
      <trkpt lat="42.24634" lon="0.50034">
        <ele>675.42</ele>
        <time>2021-08-02T08:52:22Z</time>
      </trkpt>
      <trkpt lat="42.24667" lon="0.5">
        <ele>677.07</ele>
        <time>2021-08-02T08:52:27Z</time>
      </trkpt>
      <trkpt lat="42.24683" lon="0.49993">
        <ele>678.11</ele>
        <time>2021-08-02T08:52:29Z</time>
      </trkpt>
      <trkpt lat="42.24709" lon="0.49945">
        <ele>682.17</ele>
        <time>2021-08-02T08:52:35Z</time>
      </trkpt>
      <trkpt lat="42.24716" lon="0.49924">
        <ele>683.4</ele>
        <time>2021-08-02T08:52:37Z</time>
      </trkpt>
      <trkpt lat="42.24732" lon="0.49889">
        <ele>687.36</ele>
        <time>2021-08-02T08:52:44Z</time>
      </trkpt>
      <trkpt lat="42.24745" lon="0.49859">
        <ele>689.72</ele>
        <time>2021-08-02T08:52:56Z</time>
      </trkpt>
      <trkpt lat="42.24749" lon="0.49851">
        <ele>689.9</ele>
        <time>2021-08-02T08:52:57Z</time>
      </trkpt>
      <trkpt lat="42.24741" lon="0.49782">
        <ele>691.61</ele>
        <time>2021-08-02T08:53:03Z</time>
      </trkpt>
      <trkpt lat="42.24743" lon="0.49728">
        <ele>692.47</ele>
        <time>2021-08-02T08:53:07Z</time>
      </trkpt>
      <trkpt lat="42.2475" lon="0.49699">
        <ele>692.98</ele>
        <time>2021-08-02T08:53:09Z</time>
      </trkpt>
      <trkpt lat="42.24808" lon="0.49605">
        <ele>694.02</ele>
        <time>2021-08-02T08:53:16Z</time>
      </trkpt>
      <trkpt lat="42.24834" lon="0.49557">
        <ele>693.81</ele>
        <time>2021-08-02T08:53:20Z</time>
      </trkpt>
      <trkpt lat="42.24859" lon="0.49504">
        <ele>691.74</ele>
        <time>2021-08-02T08:53:25Z</time>
      </trkpt>
      <trkpt lat="42.24882" lon="0.49448">
        <ele>689.9</ele>
        <time>2021-08-02T08:53:30Z</time>
      </trkpt>
      <trkpt lat="42.2489" lon="0.49492">
        <ele>688.47</ele>
        <time>2021-08-02T08:53:35Z</time>
      </trkpt>
      <trkpt lat="42.24884" lon="0.49579">
        <ele>689.61</ele>
        <time>2021-08-02T08:53:40Z</time>
      </trkpt>
      <trkpt lat="42.24909" lon="0.49629">
        <ele>693.54</ele>
        <time>2021-08-02T08:53:46Z</time>
      </trkpt>
      <trkpt lat="42.24932" lon="0.49582">
        <ele>695.95</ele>
        <time>2021-08-02T08:53:50Z</time>
      </trkpt>
      <trkpt lat="42.24964" lon="0.49506">
        <ele>700.15</ele>
        <time>2021-08-02T08:53:55Z</time>
      </trkpt>
      <trkpt lat="42.24971" lon="0.49489">
        <ele>701.22</ele>
        <time>2021-08-02T08:53:56Z</time>
      </trkpt>
      <trkpt lat="42.24985" lon="0.49397">
        <ele>706.07</ele>
        <time>2021-08-02T08:54:01Z</time>
      </trkpt>
      <trkpt lat="42.24981" lon="0.49343">
        <ele>708.9</ele>
        <time>2021-08-02T08:54:04Z</time>
      </trkpt>
      <trkpt lat="42.2496" lon="0.49271">
        <ele>713.16</ele>
        <time>2021-08-02T08:54:09Z</time>
      </trkpt>
      <trkpt lat="42.24961" lon="0.49213">
        <ele>716.66</ele>
        <time>2021-08-02T08:54:13Z</time>
      </trkpt>
      <trkpt lat="42.24969" lon="0.49186">
        <ele>718.78</ele>
        <time>2021-08-02T08:54:15Z</time>
      </trkpt>
      <trkpt lat="42.24977" lon="0.49162">
        <ele>720.87</ele>
        <time>2021-08-02T08:54:17Z</time>
      </trkpt>
      <trkpt lat="42.24984" lon="0.49119">
        <ele>724.38</ele>
        <time>2021-08-02T08:54:21Z</time>
      </trkpt>
      <trkpt lat="42.24996" lon="0.49064">
        <ele>728.42</ele>
        <time>2021-08-02T08:54:29Z</time>
      </trkpt>
      <trkpt lat="42.24997" lon="0.4905">
        <ele>729.13</ele>
        <time>2021-08-02T08:54:31Z</time>
      </trkpt>
      <trkpt lat="42.25007" lon="0.48959">
        <ele>732.51</ele>
        <time>2021-08-02T08:54:43Z</time>
      </trkpt>
      <trkpt lat="42.25008" lon="0.4895">
        <ele>733.23</ele>
        <time>2021-08-02T08:54:44Z</time>
      </trkpt>
      <trkpt lat="42.24984" lon="0.48877">
        <ele>736.37</ele>
        <time>2021-08-02T08:54:51Z</time>
      </trkpt>
      <trkpt lat="42.24975" lon="0.48869">
        <ele>736.98</ele>
        <time>2021-08-02T08:54:52Z</time>
      </trkpt>
      <trkpt lat="42.24956" lon="0.48852">
        <ele>738.25</ele>
        <time>2021-08-02T08:54:54Z</time>
      </trkpt>
      <trkpt lat="42.2494" lon="0.48797">
        <ele>741.88</ele>
        <time>2021-08-02T08:54:59Z</time>
      </trkpt>
      <trkpt lat="42.24945" lon="0.48772">
        <ele>743.7</ele>
        <time>2021-08-02T08:55:01Z</time>
      </trkpt>
      <trkpt lat="42.24959" lon="0.4872">
        <ele>746.57</ele>
        <time>2021-08-02T08:55:05Z</time>
      </trkpt>
      <trkpt lat="42.24952" lon="0.4865">
        <ele>750.71</ele>
        <time>2021-08-02T08:55:11Z</time>
      </trkpt>
      <trkpt lat="42.2494" lon="0.48596">
        <ele>754.11</ele>
        <time>2021-08-02T08:55:15Z</time>
      </trkpt>
      <trkpt lat="42.24946" lon="0.48559">
        <ele>756.61</ele>
        <time>2021-08-02T08:55:18Z</time>
      </trkpt>
      <trkpt lat="42.24962" lon="0.48497">
        <ele>761.12</ele>
        <time>2021-08-02T08:55:23Z</time>
      </trkpt>
      <trkpt lat="42.24982" lon="0.48463">
        <ele>763.53</ele>
        <time>2021-08-02T08:55:26Z</time>
      </trkpt>
      <trkpt lat="42.25023" lon="0.48417">
        <ele>767.17</ele>
        <time>2021-08-02T08:55:32Z</time>
      </trkpt>
      <trkpt lat="42.25059" lon="0.48337">
        <ele>770.7</ele>
        <time>2021-08-02T08:55:38Z</time>
      </trkpt>
      <trkpt lat="42.25095" lon="0.48266">
        <ele>774.02</ele>
        <time>2021-08-02T08:55:45Z</time>
      </trkpt>
      <trkpt lat="42.25097" lon="0.4826">
        <ele>774.5</ele>
        <time>2021-08-02T08:55:46Z</time>
      </trkpt>
      <trkpt lat="42.25099" lon="0.48248">
        <ele>775.56</ele>
        <time>2021-08-02T08:55:48Z</time>
      </trkpt>
      <trkpt lat="42.25099" lon="0.48243">
        <ele>776.03</ele>
        <time>2021-08-02T08:55:49Z</time>
      </trkpt>
      <trkpt lat="42.251" lon="0.48237">
        <ele>776.39</ele>
        <time>2021-08-02T08:55:50Z</time>
      </trkpt>
      <trkpt lat="42.25133" lon="0.48226">
        <ele>777.6</ele>
        <time>2021-08-02T08:55:55Z</time>
      </trkpt>
      <trkpt lat="42.25176" lon="0.48245">
        <ele>779.54</ele>
        <time>2021-08-02T08:56:00Z</time>
      </trkpt>
      <trkpt lat="42.25212" lon="0.48279">
        <ele>781.21</ele>
        <time>2021-08-02T08:56:04Z</time>
      </trkpt>
      <trkpt lat="42.25232" lon="0.48309">
        <ele>781.81</ele>
        <time>2021-08-02T08:56:07Z</time>
      </trkpt>
      <trkpt lat="42.25311" lon="0.48347">
        <ele>783.47</ele>
        <time>2021-08-02T08:56:15Z</time>
      </trkpt>
      <trkpt lat="42.25335" lon="0.48352">
        <ele>784.17</ele>
        <time>2021-08-02T08:56:17Z</time>
      </trkpt>
      <trkpt lat="42.25442" lon="0.48369">
        <ele>783.94</ele>
        <time>2021-08-02T08:56:27Z</time>
      </trkpt>
      <trkpt lat="42.25544" lon="0.48378">
        <ele>781.99</ele>
        <time>2021-08-02T08:56:37Z</time>
      </trkpt>
      <trkpt lat="42.25608" lon="0.48383">
        <ele>778.88</ele>
        <time>2021-08-02T08:56:43Z</time>
      </trkpt>
      <trkpt lat="42.25618" lon="0.48384">
        <ele>778.05</ele>
        <time>2021-08-02T08:56:44Z</time>
      </trkpt>
      <trkpt lat="42.25653" lon="0.48377">
        <ele>775.26</ele>
        <time>2021-08-02T08:56:48Z</time>
      </trkpt>
      <trkpt lat="42.25691" lon="0.48357">
        <ele>771.47</ele>
        <time>2021-08-02T08:56:57Z</time>
      </trkpt>
      <trkpt lat="42.25717" lon="0.48354">
        <ele>772.55</ele>
        <time>2021-08-02T08:57:03Z</time>
      </trkpt>
      <trkpt lat="42.25765" lon="0.48341">
        <ele>776.28</ele>
        <time>2021-08-02T08:57:10Z</time>
      </trkpt>
      <trkpt lat="42.25803" lon="0.48343">
        <ele>779.51</ele>
        <time>2021-08-02T08:57:15Z</time>
      </trkpt>
      <trkpt lat="42.25813" lon="0.48345">
        <ele>780.24</ele>
        <time>2021-08-02T08:57:16Z</time>
      </trkpt>
      <trkpt lat="42.25828" lon="0.48372">
        <ele>782.91</ele>
        <time>2021-08-02T08:57:20Z</time>
      </trkpt>
      <trkpt lat="42.25825" lon="0.4838">
        <ele>783.57</ele>
        <time>2021-08-02T08:57:21Z</time>
      </trkpt>
      <trkpt lat="42.25821" lon="0.48389">
        <ele>784.28</ele>
        <time>2021-08-02T08:57:22Z</time>
      </trkpt>
      <trkpt lat="42.25829" lon="0.48419">
        <ele>787.56</ele>
        <time>2021-08-02T08:57:26Z</time>
      </trkpt>
      <trkpt lat="42.25856" lon="0.48407">
        <ele>791.32</ele>
        <time>2021-08-02T08:57:30Z</time>
      </trkpt>
      <trkpt lat="42.25861" lon="0.48384">
        <ele>793.19</ele>
        <time>2021-08-02T08:57:32Z</time>
      </trkpt>
      <trkpt lat="42.25891" lon="0.48318">
        <ele>798.64</ele>
        <time>2021-08-02T08:57:38Z</time>
      </trkpt>
      <trkpt lat="42.25901" lon="0.48311">
        <ele>799.56</ele>
        <time>2021-08-02T08:57:39Z</time>
      </trkpt>
      <trkpt lat="42.25932" lon="0.48295">
        <ele>802.68</ele>
        <time>2021-08-02T08:57:42Z</time>
      </trkpt>
      <trkpt lat="42.25963" lon="0.48291">
        <ele>806.15</ele>
        <time>2021-08-02T08:57:45Z</time>
      </trkpt>
      <trkpt lat="42.25984" lon="0.48269">
        <ele>809.78</ele>
        <time>2021-08-02T08:57:48Z</time>
      </trkpt>
      <trkpt lat="42.25987" lon="0.4824">
        <ele>812.31</ele>
        <time>2021-08-02T08:57:50Z</time>
      </trkpt>
      <trkpt lat="42.2601" lon="0.48167">
        <ele>817.67</ele>
        <time>2021-08-02T08:57:55Z</time>
      </trkpt>
      <trkpt lat="42.26019" lon="0.48155">
        <ele>818.76</ele>
        <time>2021-08-02T08:57:56Z</time>
      </trkpt>
      <trkpt lat="42.26051" lon="0.48126">
        <ele>823.48</ele>
        <time>2021-08-02T08:57:59Z</time>
      </trkpt>
      <trkpt lat="42.26063" lon="0.48118">
        <ele>823.48</ele>
        <time>2021-08-02T08:58:00Z</time>
      </trkpt>
      <trkpt lat="42.26088" lon="0.48103">
        <ele>827.59</ele>
        <time>2021-08-02T08:58:02Z</time>
      </trkpt>
      <trkpt lat="42.26125" lon="0.48081">
        <ele>831.82</ele>
        <time>2021-08-02T08:58:05Z</time>
      </trkpt>
      <trkpt lat="42.26136" lon="0.48073">
        <ele>833.24</ele>
        <time>2021-08-02T08:58:06Z</time>
      </trkpt>
      <trkpt lat="42.26168" lon="0.48047">
        <ele>837.84</ele>
        <time>2021-08-02T08:58:09Z</time>
      </trkpt>
      <trkpt lat="42.26191" lon="0.48036">
        <ele>840.99</ele>
        <time>2021-08-02T08:58:11Z</time>
      </trkpt>
      <trkpt lat="42.26228" lon="0.48017">
        <ele>845.37</ele>
        <time>2021-08-02T08:58:14Z</time>
      </trkpt>
      <trkpt lat="42.26266" lon="0.48002">
        <ele>849.78</ele>
        <time>2021-08-02T08:58:17Z</time>
      </trkpt>
      <trkpt lat="42.26292" lon="0.47991">
        <ele>852.91</ele>
        <time>2021-08-02T08:58:19Z</time>
      </trkpt>
      <trkpt lat="42.26305" lon="0.47985">
        <ele>854.43</ele>
        <time>2021-08-02T08:58:20Z</time>
      </trkpt>
      <trkpt lat="42.26337" lon="0.47954">
        <ele>859.13</ele>
        <time>2021-08-02T08:58:23Z</time>
      </trkpt>
      <trkpt lat="42.26352" lon="0.47924">
        <ele>862.35</ele>
        <time>2021-08-02T08:58:25Z</time>
      </trkpt>
      <trkpt lat="42.26365" lon="0.47891">
        <ele>865.49</ele>
        <time>2021-08-02T08:58:27Z</time>
      </trkpt>
      <trkpt lat="42.26392" lon="0.47851">
        <ele>870.12</ele>
        <time>2021-08-02T08:58:30Z</time>
      </trkpt>
      <trkpt lat="42.26413" lon="0.47833">
        <ele>873.27</ele>
        <time>2021-08-02T08:58:32Z</time>
      </trkpt>
      <trkpt lat="42.26437" lon="0.47829">
        <ele>876.43</ele>
        <time>2021-08-02T08:58:34Z</time>
      </trkpt>
      <trkpt lat="42.26461" lon="0.47831">
        <ele>879.68</ele>
        <time>2021-08-02T08:58:36Z</time>
      </trkpt>
      <trkpt lat="42.26487" lon="0.4783">
        <ele>882.92</ele>
        <time>2021-08-02T08:58:38Z</time>
      </trkpt>
      <trkpt lat="42.26526" lon="0.47824">
        <ele>888.02</ele>
        <time>2021-08-02T08:58:41Z</time>
      </trkpt>
      <trkpt lat="42.26552" lon="0.47818">
        <ele>891.6</ele>
        <time>2021-08-02T08:58:43Z</time>
      </trkpt>
      <trkpt lat="42.26577" lon="0.47813">
        <ele>895.25</ele>
        <time>2021-08-02T08:58:45Z</time>
      </trkpt>
      <trkpt lat="42.266" lon="0.47809">
        <ele>899.04</ele>
        <time>2021-08-02T08:58:47Z</time>
      </trkpt>
      <trkpt lat="42.26623" lon="0.47793">
        <ele>904.38</ele>
        <time>2021-08-02T08:58:50Z</time>
      </trkpt>
      <trkpt lat="42.26621" lon="0.47769">
        <ele>908.39</ele>
        <time>2021-08-02T08:58:53Z</time>
      </trkpt>
      <trkpt lat="42.26595" lon="0.47745">
        <ele>911.48</ele>
        <time>2021-08-02T08:58:58Z</time>
      </trkpt>
      <trkpt lat="42.26591" lon="0.47736">
        <ele>911.91</ele>
        <time>2021-08-02T08:58:59Z</time>
      </trkpt>
      <trkpt lat="42.26559" lon="0.47621">
        <ele>913.43</ele>
        <time>2021-08-02T08:59:08Z</time>
      </trkpt>
      <trkpt lat="42.26553" lon="0.47597">
        <ele>913.49</ele>
        <time>2021-08-02T08:59:10Z</time>
      </trkpt>
      <trkpt lat="42.26556" lon="0.4754">
        <ele>913.26</ele>
        <time>2021-08-02T08:59:15Z</time>
      </trkpt>
      <trkpt lat="42.26573" lon="0.47488">
        <ele>912.25</ele>
        <time>2021-08-02T08:59:19Z</time>
      </trkpt>
      <trkpt lat="42.26617" lon="0.4743">
        <ele>910.55</ele>
        <time>2021-08-02T08:59:25Z</time>
      </trkpt>
      <trkpt lat="42.2664" lon="0.47397">
        <ele>907.07</ele>
        <time>2021-08-02T08:59:31Z</time>
      </trkpt>
      <trkpt lat="42.26625" lon="0.47356">
        <ele>905.06</ele>
        <time>2021-08-02T08:59:35Z</time>
      </trkpt>
      <trkpt lat="42.26646" lon="0.47312">
        <ele>906.15</ele>
        <time>2021-08-02T08:59:40Z</time>
      </trkpt>
      <trkpt lat="42.26661" lon="0.47298">
        <ele>906.97</ele>
        <time>2021-08-02T08:59:42Z</time>
      </trkpt>
      <trkpt lat="42.26687" lon="0.47255">
        <ele>908.98</ele>
        <time>2021-08-02T08:59:46Z</time>
      </trkpt>
      <trkpt lat="42.26709" lon="0.47188">
        <ele>913.06</ele>
        <time>2021-08-02T08:59:51Z</time>
      </trkpt>
      <trkpt lat="42.26718" lon="0.47141">
        <ele>916.25</ele>
        <time>2021-08-02T08:59:54Z</time>
      </trkpt>
      <trkpt lat="42.26738" lon="0.47082">
        <ele>921.06</ele>
        <time>2021-08-02T08:59:58Z</time>
      </trkpt>
      <trkpt lat="42.26762" lon="0.47058">
        <ele>924.27</ele>
        <time>2021-08-02T09:00:01Z</time>
      </trkpt>
      <trkpt lat="42.26789" lon="0.47055">
        <ele>927.78</ele>
        <time>2021-08-02T09:00:04Z</time>
      </trkpt>
      <trkpt lat="42.26815" lon="0.47026">
        <ele>933.17</ele>
        <time>2021-08-02T09:00:11Z</time>
      </trkpt>
      <trkpt lat="42.26819" lon="0.47006">
        <ele>934.4</ele>
        <time>2021-08-02T09:00:13Z</time>
      </trkpt>
      <trkpt lat="42.26843" lon="0.46937">
        <ele>937.66</ele>
        <time>2021-08-02T09:00:18Z</time>
      </trkpt>
      <trkpt lat="42.26853" lon="0.46873">
        <ele>939.9</ele>
        <time>2021-08-02T09:00:22Z</time>
      </trkpt>
      <trkpt lat="42.26884" lon="0.46824">
        <ele>944.11</ele>
        <time>2021-08-02T09:00:28Z</time>
      </trkpt>
      <trkpt lat="42.26909" lon="0.46806">
        <ele>947.87</ele>
        <time>2021-08-02T09:00:32Z</time>
      </trkpt>
      <trkpt lat="42.26955" lon="0.46786">
        <ele>952.56</ele>
        <time>2021-08-02T09:00:37Z</time>
      </trkpt>
      <trkpt lat="42.2698" lon="0.46767">
        <ele>955.44</ele>
        <time>2021-08-02T09:00:40Z</time>
      </trkpt>
      <trkpt lat="42.27012" lon="0.46729">
        <ele>960.85</ele>
        <time>2021-08-02T09:00:46Z</time>
      </trkpt>
      <trkpt lat="42.2701" lon="0.46705">
        <ele>962.55</ele>
        <time>2021-08-02T09:00:48Z</time>
      </trkpt>
      <trkpt lat="42.27003" lon="0.46653">
        <ele>965.64</ele>
        <time>2021-08-02T09:00:52Z</time>
      </trkpt>
      <trkpt lat="42.27007" lon="0.46608">
        <ele>970.14</ele>
        <time>2021-08-02T09:00:57Z</time>
      </trkpt>
      <trkpt lat="42.2701" lon="0.46599">
        <ele>971.03</ele>
        <time>2021-08-02T09:00:58Z</time>
      </trkpt>
      <trkpt lat="42.2704" lon="0.46539">
        <ele>973.96</ele>
        <time>2021-08-02T09:01:03Z</time>
      </trkpt>
      <trkpt lat="42.27068" lon="0.4642">
        <ele>973.73</ele>
        <time>2021-08-02T09:01:11Z</time>
      </trkpt>
      <trkpt lat="42.27084" lon="0.46397">
        <ele>973.31</ele>
        <time>2021-08-02T09:01:14Z</time>
      </trkpt>
      <trkpt lat="42.27106" lon="0.46348">
        <ele>972.14</ele>
        <time>2021-08-02T09:01:19Z</time>
      </trkpt>
      <trkpt lat="42.27102" lon="0.46283">
        <ele>970.52</ele>
        <time>2021-08-02T09:01:24Z</time>
      </trkpt>
      <trkpt lat="42.27097" lon="0.46198">
        <ele>967.33</ele>
        <time>2021-08-02T09:01:30Z</time>
      </trkpt>
      <trkpt lat="42.27089" lon="0.46183">
        <ele>966.63</ele>
        <time>2021-08-02T09:01:32Z</time>
      </trkpt>
      <trkpt lat="42.27074" lon="0.46172">
        <ele>966.4</ele>
        <time>2021-08-02T09:01:34Z</time>
      </trkpt>
      <trkpt lat="42.27058" lon="0.4616">
        <ele>966.37</ele>
        <time>2021-08-02T09:01:36Z</time>
      </trkpt>
      <trkpt lat="42.27041" lon="0.46149">
        <ele>966.69</ele>
        <time>2021-08-02T09:01:38Z</time>
      </trkpt>
      <trkpt lat="42.27017" lon="0.46091">
        <ele>967.35</ele>
        <time>2021-08-02T09:01:46Z</time>
      </trkpt>
      <trkpt lat="42.27017" lon="0.46079">
        <ele>967.34</ele>
        <time>2021-08-02T09:01:47Z</time>
      </trkpt>
      <trkpt lat="42.2702" lon="0.46039">
        <ele>967.5</ele>
        <time>2021-08-02T09:01:50Z</time>
      </trkpt>
      <trkpt lat="42.27013" lon="0.45997">
        <ele>968.33</ele>
        <time>2021-08-02T09:01:53Z</time>
      </trkpt>
      <trkpt lat="42.27012" lon="0.45909">
        <ele>969.22</ele>
        <time>2021-08-02T09:01:58Z</time>
      </trkpt>
      <trkpt lat="42.26999" lon="0.4584">
        <ele>969.73</ele>
        <time>2021-08-02T09:02:02Z</time>
      </trkpt>
      <trkpt lat="42.26952" lon="0.45774">
        <ele>971.54</ele>
        <time>2021-08-02T09:02:08Z</time>
      </trkpt>
      <trkpt lat="42.26933" lon="0.45736">
        <ele>974.99</ele>
        <time>2021-08-02T09:02:13Z</time>
      </trkpt>
      <trkpt lat="42.26932" lon="0.45717">
        <ele>976.13</ele>
        <time>2021-08-02T09:02:15Z</time>
      </trkpt>
      <trkpt lat="42.2693" lon="0.457">
        <ele>977.41</ele>
        <time>2021-08-02T09:02:17Z</time>
      </trkpt>
      <trkpt lat="42.26945" lon="0.45609">
        <ele>980.2</ele>
        <time>2021-08-02T09:02:25Z</time>
      </trkpt>
      <trkpt lat="42.26965" lon="0.45559">
        <ele>976.93</ele>
        <time>2021-08-02T09:02:30Z</time>
      </trkpt>
      <trkpt lat="42.26978" lon="0.45528">
        <ele>973.86</ele>
        <time>2021-08-02T09:02:33Z</time>
      </trkpt>
      <trkpt lat="42.26992" lon="0.45488">
        <ele>970.73</ele>
        <time>2021-08-02T09:02:36Z</time>
      </trkpt>
      <trkpt lat="42.27009" lon="0.4545">
        <ele>967.26</ele>
        <time>2021-08-02T09:02:39Z</time>
      </trkpt>
      <trkpt lat="42.2702" lon="0.45429">
        <ele>965.07</ele>
        <time>2021-08-02T09:02:41Z</time>
      </trkpt>
      <trkpt lat="42.27055" lon="0.45398">
        <ele>960.33</ele>
        <time>2021-08-02T09:02:46Z</time>
      </trkpt>
      <trkpt lat="42.27064" lon="0.45395">
        <ele>959.44</ele>
        <time>2021-08-02T09:02:47Z</time>
      </trkpt>
      <trkpt lat="42.27095" lon="0.45389">
        <ele>957.24</ele>
        <time>2021-08-02T09:02:50Z</time>
      </trkpt>
      <trkpt lat="42.27125" lon="0.45367">
        <ele>954.15</ele>
        <time>2021-08-02T09:02:54Z</time>
      </trkpt>
      <trkpt lat="42.27165" lon="0.45344">
        <ele>949.45</ele>
        <time>2021-08-02T09:02:59Z</time>
      </trkpt>
      <trkpt lat="42.27174" lon="0.45342">
        <ele>948.66</ele>
        <time>2021-08-02T09:03:00Z</time>
      </trkpt>
      <trkpt lat="42.27215" lon="0.45354">
        <ele>944.31</ele>
        <time>2021-08-02T09:03:05Z</time>
      </trkpt>
      <trkpt lat="42.27233" lon="0.45329">
        <ele>940.85</ele>
        <time>2021-08-02T09:03:10Z</time>
      </trkpt>
      <trkpt lat="42.27231" lon="0.45321">
        <ele>940.27</ele>
        <time>2021-08-02T09:03:11Z</time>
      </trkpt>
      <trkpt lat="42.27228" lon="0.45251">
        <ele>939.1</ele>
        <time>2021-08-02T09:03:17Z</time>
      </trkpt>
      <trkpt lat="42.27226" lon="0.45224">
        <ele>939.39</ele>
        <time>2021-08-02T09:03:19Z</time>
      </trkpt>
      <trkpt lat="42.27247" lon="0.4516">
        <ele>940.07</ele>
        <time>2021-08-02T09:03:25Z</time>
      </trkpt>
      <trkpt lat="42.27301" lon="0.45073">
        <ele>940.13</ele>
        <time>2021-08-02T09:03:33Z</time>
      </trkpt>
      <trkpt lat="42.2731" lon="0.45047">
        <ele>939.77</ele>
        <time>2021-08-02T09:03:35Z</time>
      </trkpt>
      <trkpt lat="42.27357" lon="0.4495">
        <ele>936.99</ele>
        <time>2021-08-02T09:03:42Z</time>
      </trkpt>
      <trkpt lat="42.27377" lon="0.44859">
        <ele>932.92</ele>
        <time>2021-08-02T09:03:48Z</time>
      </trkpt>
      <trkpt lat="42.27405" lon="0.44801">
        <ele>929.65</ele>
        <time>2021-08-02T09:03:53Z</time>
      </trkpt>
      <trkpt lat="42.27422" lon="0.44779">
        <ele>928.36</ele>
        <time>2021-08-02T09:03:55Z</time>
      </trkpt>
      <trkpt lat="42.27482" lon="0.44752">
        <ele>925.26</ele>
        <time>2021-08-02T09:04:02Z</time>
      </trkpt>
      <trkpt lat="42.27497" lon="0.44764">
        <ele>925.08</ele>
        <time>2021-08-02T09:04:04Z</time>
      </trkpt>
      <trkpt lat="42.27511" lon="0.44776">
        <ele>925.04</ele>
        <time>2021-08-02T09:04:06Z</time>
      </trkpt>
      <trkpt lat="42.27529" lon="0.44789">
        <ele>925.11</ele>
        <time>2021-08-02T09:04:09Z</time>
      </trkpt>
      <trkpt lat="42.27545" lon="0.44808">
        <ele>925.44</ele>
        <time>2021-08-02T09:04:13Z</time>
      </trkpt>
      <trkpt lat="42.27591" lon="0.44878">
        <ele>927.45</ele>
        <time>2021-08-02T09:04:22Z</time>
      </trkpt>
      <trkpt lat="42.27602" lon="0.44893">
        <ele>927.97</ele>
        <time>2021-08-02T09:04:24Z</time>
      </trkpt>
      <trkpt lat="42.2763" lon="0.44871">
        <ele>929.01</ele>
        <time>2021-08-02T09:04:30Z</time>
      </trkpt>
      <trkpt lat="42.27628" lon="0.44853">
        <ele>929.19</ele>
        <time>2021-08-02T09:04:31Z</time>
      </trkpt>
      <trkpt lat="42.27627" lon="0.44806">
        <ele>929.71</ele>
        <time>2021-08-02T09:04:34Z</time>
      </trkpt>
      <trkpt lat="42.27624" lon="0.44747">
        <ele>930.68</ele>
        <time>2021-08-02T09:04:38Z</time>
      </trkpt>
      <trkpt lat="42.27626" lon="0.44721">
        <ele>930.75</ele>
        <time>2021-08-02T09:04:40Z</time>
      </trkpt>
      <trkpt lat="42.276" lon="0.44669">
        <ele>930.37</ele>
        <time>2021-08-02T09:04:46Z</time>
      </trkpt>
      <trkpt lat="42.27597" lon="0.44611">
        <ele>929.36</ele>
        <time>2021-08-02T09:04:52Z</time>
      </trkpt>
      <trkpt lat="42.27613" lon="0.44557">
        <ele>927.99</ele>
        <time>2021-08-02T09:04:57Z</time>
      </trkpt>
      <trkpt lat="42.2762" lon="0.445">
        <ele>926.5</ele>
        <time>2021-08-02T09:05:02Z</time>
      </trkpt>
      <trkpt lat="42.27603" lon="0.44434">
        <ele>924.78</ele>
        <time>2021-08-02T09:05:10Z</time>
      </trkpt>
      <trkpt lat="42.27578" lon="0.44417">
        <ele>924.86</ele>
        <time>2021-08-02T09:05:13Z</time>
      </trkpt>
      <trkpt lat="42.27533" lon="0.44363">
        <ele>926.2</ele>
        <time>2021-08-02T09:05:20Z</time>
      </trkpt>
      <trkpt lat="42.27539" lon="0.44302">
        <ele>927.22</ele>
        <time>2021-08-02T09:05:26Z</time>
      </trkpt>
      <trkpt lat="42.27568" lon="0.44244">
        <ele>928.46</ele>
        <time>2021-08-02T09:05:31Z</time>
      </trkpt>
      <trkpt lat="42.27567" lon="0.44179">
        <ele>932.08</ele>
        <time>2021-08-02T09:05:38Z</time>
      </trkpt>
      <trkpt lat="42.27536" lon="0.44117">
        <ele>936.09</ele>
        <time>2021-08-02T09:05:45Z</time>
      </trkpt>
      <trkpt lat="42.27492" lon="0.44007">
        <ele>938.35</ele>
        <time>2021-08-02T09:05:54Z</time>
      </trkpt>
      <trkpt lat="42.27472" lon="0.43958">
        <ele>937.96</ele>
        <time>2021-08-02T09:05:59Z</time>
      </trkpt>
      <trkpt lat="42.27473" lon="0.4392">
        <ele>937.78</ele>
        <time>2021-08-02T09:06:03Z</time>
      </trkpt>
      <trkpt lat="42.2748" lon="0.43892">
        <ele>937.68</ele>
        <time>2021-08-02T09:06:06Z</time>
      </trkpt>
      <trkpt lat="42.27499" lon="0.43855">
        <ele>937.42</ele>
        <time>2021-08-02T09:06:10Z</time>
      </trkpt>
      <trkpt lat="42.27505" lon="0.43792">
        <ele>937.43</ele>
        <time>2021-08-02T09:06:16Z</time>
      </trkpt>
      <trkpt lat="42.27467" lon="0.43703">
        <ele>935.4</ele>
        <time>2021-08-02T09:06:25Z</time>
      </trkpt>
      <trkpt lat="42.2743" lon="0.43653">
        <ele>933.5</ele>
        <time>2021-08-02T09:06:30Z</time>
      </trkpt>
      <trkpt lat="42.27366" lon="0.43601">
        <ele>930.62</ele>
        <time>2021-08-02T09:06:37Z</time>
      </trkpt>
      <trkpt lat="42.2734" lon="0.43549">
        <ele>927.5</ele>
        <time>2021-08-02T09:06:43Z</time>
      </trkpt>
      <trkpt lat="42.27322" lon="0.43459">
        <ele>923.81</ele>
        <time>2021-08-02T09:06:51Z</time>
      </trkpt>
      <trkpt lat="42.27278" lon="0.43401">
        <ele>920</ele>
        <time>2021-08-02T09:06:58Z</time>
      </trkpt>
      <trkpt lat="42.27273" lon="0.43388">
        <ele>919.57</ele>
        <time>2021-08-02T09:06:59Z</time>
      </trkpt>
      <trkpt lat="42.27261" lon="0.43347">
        <ele>918.26</ele>
        <time>2021-08-02T09:07:02Z</time>
      </trkpt>
      <trkpt lat="42.27268" lon="0.43294">
        <ele>916.04</ele>
        <time>2021-08-02T09:07:06Z</time>
      </trkpt>
      <trkpt lat="42.27257" lon="0.43213">
        <ele>912.41</ele>
        <time>2021-08-02T09:07:12Z</time>
      </trkpt>
      <trkpt lat="42.2724" lon="0.43179">
        <ele>911.03</ele>
        <time>2021-08-02T09:07:15Z</time>
      </trkpt>
      <trkpt lat="42.27219" lon="0.43147">
        <ele>909.65</ele>
        <time>2021-08-02T09:07:18Z</time>
      </trkpt>
      <trkpt lat="42.27197" lon="0.43092">
        <ele>907.7</ele>
        <time>2021-08-02T09:07:22Z</time>
      </trkpt>
      <trkpt lat="42.27193" lon="0.43039">
        <ele>905.17</ele>
        <time>2021-08-02T09:07:26Z</time>
      </trkpt>
      <trkpt lat="42.27167" lon="0.42928">
        <ele>901.55</ele>
        <time>2021-08-02T09:07:34Z</time>
      </trkpt>
      <trkpt lat="42.27163" lon="0.42915">
        <ele>901.4</ele>
        <time>2021-08-02T09:07:35Z</time>
      </trkpt>
      <trkpt lat="42.27154" lon="0.42893">
        <ele>901.14</ele>
        <time>2021-08-02T09:07:37Z</time>
      </trkpt>
      <trkpt lat="42.27147" lon="0.42841">
        <ele>900.71</ele>
        <time>2021-08-02T09:07:41Z</time>
      </trkpt>
      <trkpt lat="42.27145" lon="0.42815">
        <ele>900.19</ele>
        <time>2021-08-02T09:07:43Z</time>
      </trkpt>
      <trkpt lat="42.27102" lon="0.42775">
        <ele>897.92</ele>
        <time>2021-08-02T09:07:48Z</time>
      </trkpt>
      <trkpt lat="42.27045" lon="0.42739">
        <ele>896.19</ele>
        <time>2021-08-02T09:07:54Z</time>
      </trkpt>
      <trkpt lat="42.27034" lon="0.42692">
        <ele>893.82</ele>
        <time>2021-08-02T09:07:59Z</time>
      </trkpt>
      <trkpt lat="42.27021" lon="0.42606">
        <ele>890.3</ele>
        <time>2021-08-02T09:08:06Z</time>
      </trkpt>
      <trkpt lat="42.26981" lon="0.42577">
        <ele>887.83</ele>
        <time>2021-08-02T09:08:10Z</time>
      </trkpt>
      <trkpt lat="42.26945" lon="0.42558">
        <ele>885.42</ele>
        <time>2021-08-02T09:08:14Z</time>
      </trkpt>
      <trkpt lat="42.26912" lon="0.42523">
        <ele>883.34</ele>
        <time>2021-08-02T09:08:18Z</time>
      </trkpt>
      <trkpt lat="42.26875" lon="0.42474">
        <ele>881.14</ele>
        <time>2021-08-02T09:08:22Z</time>
      </trkpt>
      <trkpt lat="42.26825" lon="0.42422">
        <ele>876.62</ele>
        <time>2021-08-02T09:08:27Z</time>
      </trkpt>
      <trkpt lat="42.26779" lon="0.4235">
        <ele>872.08</ele>
        <time>2021-08-02T09:08:33Z</time>
      </trkpt>
      <trkpt lat="42.2673" lon="0.42299">
        <ele>868.64</ele>
        <time>2021-08-02T09:08:38Z</time>
      </trkpt>
      <trkpt lat="42.26684" lon="0.42255">
        <ele>865.09</ele>
        <time>2021-08-02T09:08:42Z</time>
      </trkpt>
      <trkpt lat="42.26647" lon="0.42224">
        <ele>861.83</ele>
        <time>2021-08-02T09:08:45Z</time>
      </trkpt>
      <trkpt lat="42.26603" lon="0.42171">
        <ele>857.21</ele>
        <time>2021-08-02T09:08:49Z</time>
      </trkpt>
      <trkpt lat="42.2657" lon="0.4213">
        <ele>853.4</ele>
        <time>2021-08-02T09:08:52Z</time>
      </trkpt>
      <trkpt lat="42.26558" lon="0.42117">
        <ele>852.24</ele>
        <time>2021-08-02T09:08:53Z</time>
      </trkpt>
      <trkpt lat="42.26506" lon="0.42089">
        <ele>847.23</ele>
        <time>2021-08-02T09:08:57Z</time>
      </trkpt>
      <trkpt lat="42.26469" lon="0.4205">
        <ele>841.71</ele>
        <time>2021-08-02T09:09:01Z</time>
      </trkpt>
      <trkpt lat="42.26454" lon="0.42023">
        <ele>839.14</ele>
        <time>2021-08-02T09:09:03Z</time>
      </trkpt>
      <trkpt lat="42.26411" lon="0.41989">
        <ele>834.49</ele>
        <time>2021-08-02T09:09:07Z</time>
      </trkpt>
      <trkpt lat="42.26372" lon="0.41984">
        <ele>831</ele>
        <time>2021-08-02T09:09:10Z</time>
      </trkpt>
      <trkpt lat="42.26333" lon="0.41982">
        <ele>827.8</ele>
        <time>2021-08-02T09:09:13Z</time>
      </trkpt>
      <trkpt lat="42.263" lon="0.41981">
        <ele>825.23</ele>
        <time>2021-08-02T09:09:16Z</time>
      </trkpt>
      <trkpt lat="42.26258" lon="0.41953">
        <ele>820.99</ele>
        <time>2021-08-02T09:09:21Z</time>
      </trkpt>
      <trkpt lat="42.26245" lon="0.41915">
        <ele>817.99</ele>
        <time>2021-08-02T09:09:25Z</time>
      </trkpt>
      <trkpt lat="42.26246" lon="0.41893">
        <ele>816.65</ele>
        <time>2021-08-02T09:09:27Z</time>
      </trkpt>
      <trkpt lat="42.26255" lon="0.4182">
        <ele>812.55</ele>
        <time>2021-08-02T09:09:34Z</time>
      </trkpt>
      <trkpt lat="42.26257" lon="0.41766">
        <ele>809.35</ele>
        <time>2021-08-02T09:09:39Z</time>
      </trkpt>
      <trkpt lat="42.26259" lon="0.41725">
        <ele>806.21</ele>
        <time>2021-08-02T09:09:43Z</time>
      </trkpt>
      <trkpt lat="42.26246" lon="0.41684">
        <ele>802</ele>
        <time>2021-08-02T09:09:48Z</time>
      </trkpt>
      <trkpt lat="42.26251" lon="0.41654">
        <ele>798.14</ele>
        <time>2021-08-02T09:09:53Z</time>
      </trkpt>
      <trkpt lat="42.26264" lon="0.41666">
        <ele>796.53</ele>
        <time>2021-08-02T09:09:55Z</time>
      </trkpt>
      <trkpt lat="42.26294" lon="0.41668">
        <ele>792.6</ele>
        <time>2021-08-02T09:10:02Z</time>
      </trkpt>
      <trkpt lat="42.26281" lon="0.4161">
        <ele>789.48</ele>
        <time>2021-08-02T09:10:08Z</time>
      </trkpt>
      <trkpt lat="42.26277" lon="0.41591">
        <ele>788.09</ele>
        <time>2021-08-02T09:10:10Z</time>
      </trkpt>
      <trkpt lat="42.26272" lon="0.41524">
        <ele>783.74</ele>
        <time>2021-08-02T09:10:16Z</time>
      </trkpt>
      <trkpt lat="42.26265" lon="0.41448">
        <ele>780.15</ele>
        <time>2021-08-02T09:10:21Z</time>
      </trkpt>
      <trkpt lat="42.26256" lon="0.41381">
        <ele>777.13</ele>
        <time>2021-08-02T09:10:25Z</time>
      </trkpt>
      <trkpt lat="42.2625" lon="0.41313">
        <ele>773.39</ele>
        <time>2021-08-02T09:10:29Z</time>
      </trkpt>
      <trkpt lat="42.26246" lon="0.41251">
        <ele>769.44</ele>
        <time>2021-08-02T09:10:33Z</time>
      </trkpt>
      <trkpt lat="42.26246" lon="0.41238">
        <ele>768.4</ele>
        <time>2021-08-02T09:10:34Z</time>
      </trkpt>
      <trkpt lat="42.26255" lon="0.41203">
        <ele>763.87</ele>
        <time>2021-08-02T09:10:38Z</time>
      </trkpt>
      <trkpt lat="42.26281" lon="0.41212">
        <ele>760.35</ele>
        <time>2021-08-02T09:10:41Z</time>
      </trkpt>
      <trkpt lat="42.26301" lon="0.41222">
        <ele>757.57</ele>
        <time>2021-08-02T09:10:44Z</time>
      </trkpt>
      <trkpt lat="42.26326" lon="0.41193">
        <ele>753.43</ele>
        <time>2021-08-02T09:10:50Z</time>
      </trkpt>
      <trkpt lat="42.26317" lon="0.41145">
        <ele>750.98</ele>
        <time>2021-08-02T09:10:54Z</time>
      </trkpt>
      <trkpt lat="42.26315" lon="0.41063">
        <ele>746.31</ele>
        <time>2021-08-02T09:11:01Z</time>
      </trkpt>
      <trkpt lat="42.2632" lon="0.41003">
        <ele>742.68</ele>
        <time>2021-08-02T09:11:06Z</time>
      </trkpt>
      <trkpt lat="42.26322" lon="0.40956">
        <ele>739.85</ele>
        <time>2021-08-02T09:11:10Z</time>
      </trkpt>
      <trkpt lat="42.2632" lon="0.4094">
        <ele>738.59</ele>
        <time>2021-08-02T09:11:12Z</time>
      </trkpt>
      <trkpt lat="42.26315" lon="0.4092">
        <ele>735.09</ele>
        <time>2021-08-02T09:11:17Z</time>
      </trkpt>
      <trkpt lat="42.26314" lon="0.40912">
        <ele>732.06</ele>
        <time>2021-08-02T09:11:27Z</time>
      </trkpt>
      <trkpt lat="42.26314" lon="0.40905">
        <ele>731.3</ele>
        <time>2021-08-02T09:11:39Z</time>
      </trkpt>
      <trkpt lat="42.26304" lon="0.40897">
        <ele>731.19</ele>
        <time>2021-08-02T09:11:45Z</time>
      </trkpt>
      <trkpt lat="42.26313" lon="0.4091">
        <ele>731.09</ele>
        <time>2021-08-02T09:11:48Z</time>
      </trkpt>
      <trkpt lat="42.26324" lon="0.40906">
        <ele>731.04</ele>
        <time>2021-08-02T09:11:54Z</time>
      </trkpt>
      <trkpt lat="42.26331" lon="0.40788">
        <ele>730.29</ele>
        <time>2021-08-02T09:12:05Z</time>
      </trkpt>
      <trkpt lat="42.26331" lon="0.40688">
        <ele>726.73</ele>
        <time>2021-08-02T09:12:13Z</time>
      </trkpt>
      <trkpt lat="42.26332" lon="0.40618">
        <ele>723.32</ele>
        <time>2021-08-02T09:12:18Z</time>
      </trkpt>
      <trkpt lat="42.26331" lon="0.40549">
        <ele>719.55</ele>
        <time>2021-08-02T09:12:23Z</time>
      </trkpt>
      <trkpt lat="42.26331" lon="0.40534">
        <ele>718.63</ele>
        <time>2021-08-02T09:12:24Z</time>
      </trkpt>
      <trkpt lat="42.2634" lon="0.40481">
        <ele>715.15</ele>
        <time>2021-08-02T09:12:28Z</time>
      </trkpt>
      <trkpt lat="42.26337" lon="0.40426">
        <ele>710.76</ele>
        <time>2021-08-02T09:12:33Z</time>
      </trkpt>
      <trkpt lat="42.26306" lon="0.40394">
        <ele>707</ele>
        <time>2021-08-02T09:12:37Z</time>
      </trkpt>
      <trkpt lat="42.26285" lon="0.40348">
        <ele>703.12</ele>
        <time>2021-08-02T09:12:41Z</time>
      </trkpt>
      <trkpt lat="42.2628" lon="0.40295">
        <ele>699.33</ele>
        <time>2021-08-02T09:12:45Z</time>
      </trkpt>
      <trkpt lat="42.26266" lon="0.40233">
        <ele>696.27</ele>
        <time>2021-08-02T09:12:50Z</time>
      </trkpt>
      <trkpt lat="42.26252" lon="0.40172">
        <ele>692.65</ele>
        <time>2021-08-02T09:12:55Z</time>
      </trkpt>
      <trkpt lat="42.26259" lon="0.40114">
        <ele>688.57</ele>
        <time>2021-08-02T09:13:00Z</time>
      </trkpt>
      <trkpt lat="42.26264" lon="0.40087">
        <ele>685.88</ele>
        <time>2021-08-02T09:13:03Z</time>
      </trkpt>
      <trkpt lat="42.26254" lon="0.40052">
        <ele>681.4</ele>
        <time>2021-08-02T09:13:08Z</time>
      </trkpt>
      <trkpt lat="42.26247" lon="0.40012">
        <ele>677.86</ele>
        <time>2021-08-02T09:13:13Z</time>
      </trkpt>
      <trkpt lat="42.26285" lon="0.3997">
        <ele>674.56</ele>
        <time>2021-08-02T09:13:19Z</time>
      </trkpt>
      <trkpt lat="42.2631" lon="0.39942">
        <ele>672.45</ele>
        <time>2021-08-02T09:13:24Z</time>
      </trkpt>
      <trkpt lat="42.26345" lon="0.39855">
        <ele>669.38</ele>
        <time>2021-08-02T09:13:32Z</time>
      </trkpt>
      <trkpt lat="42.26351" lon="0.39831">
        <ele>668.41</ele>
        <time>2021-08-02T09:13:34Z</time>
      </trkpt>
      <trkpt lat="42.2637" lon="0.39793">
        <ele>665.56</ele>
        <time>2021-08-02T09:13:38Z</time>
      </trkpt>
      <trkpt lat="42.26388" lon="0.3977">
        <ele>662.46</ele>
        <time>2021-08-02T09:13:43Z</time>
      </trkpt>
      <trkpt lat="42.26414" lon="0.39776">
        <ele>660.52</ele>
        <time>2021-08-02T09:13:47Z</time>
      </trkpt>
      <trkpt lat="42.26497" lon="0.39769">
        <ele>656.87</ele>
        <time>2021-08-02T09:13:55Z</time>
      </trkpt>
      <trkpt lat="42.26554" lon="0.39771">
        <ele>653.7</ele>
        <time>2021-08-02T09:14:00Z</time>
      </trkpt>
      <trkpt lat="42.26576" lon="0.39774">
        <ele>652.19</ele>
        <time>2021-08-02T09:14:02Z</time>
      </trkpt>
      <trkpt lat="42.26612" lon="0.398">
        <ele>648.34</ele>
        <time>2021-08-02T09:14:06Z</time>
      </trkpt>
      <trkpt lat="42.26652" lon="0.39804">
        <ele>642.94</ele>
        <time>2021-08-02T09:14:11Z</time>
      </trkpt>
      <trkpt lat="42.26685" lon="0.39793">
        <ele>640.15</ele>
        <time>2021-08-02T09:14:14Z</time>
      </trkpt>
      <trkpt lat="42.26706" lon="0.39787">
        <ele>638.4</ele>
        <time>2021-08-02T09:14:16Z</time>
      </trkpt>
      <trkpt lat="42.26767" lon="0.39748">
        <ele>635.81</ele>
        <time>2021-08-02T09:14:22Z</time>
      </trkpt>
      <trkpt lat="42.26814" lon="0.39707">
        <ele>634.7</ele>
        <time>2021-08-02T09:14:27Z</time>
      </trkpt>
      <trkpt lat="42.26859" lon="0.39744">
        <ele>632.33</ele>
        <time>2021-08-02T09:14:33Z</time>
      </trkpt>
      <trkpt lat="42.26866" lon="0.39759">
        <ele>631.95</ele>
        <time>2021-08-02T09:14:34Z</time>
      </trkpt>
      <trkpt lat="42.26902" lon="0.39853">
        <ele>627.63</ele>
        <time>2021-08-02T09:14:40Z</time>
      </trkpt>
      <trkpt lat="42.26922" lon="0.39924">
        <ele>624.04</ele>
        <time>2021-08-02T09:14:44Z</time>
      </trkpt>
      <trkpt lat="42.26957" lon="0.39996">
        <ele>619.18</ele>
        <time>2021-08-02T09:14:49Z</time>
      </trkpt>
      <trkpt lat="42.2697" lon="0.40032">
        <ele>616.86</ele>
        <time>2021-08-02T09:14:53Z</time>
      </trkpt>
      <trkpt lat="42.26991" lon="0.40069">
        <ele>616.36</ele>
        <time>2021-08-02T09:14:57Z</time>
      </trkpt>
      <trkpt lat="42.27027" lon="0.40107">
        <ele>616.58</ele>
        <time>2021-08-02T09:15:02Z</time>
      </trkpt>
      <trkpt lat="42.27062" lon="0.40129">
        <ele>616.9</ele>
        <time>2021-08-02T09:15:06Z</time>
      </trkpt>
      <trkpt lat="42.27087" lon="0.40173">
        <ele>617.28</ele>
        <time>2021-08-02T09:15:11Z</time>
      </trkpt>
      <trkpt lat="42.27122" lon="0.40231">
        <ele>617.02</ele>
        <time>2021-08-02T09:15:18Z</time>
      </trkpt>
      <trkpt lat="42.27161" lon="0.40234">
        <ele>615.38</ele>
        <time>2021-08-02T09:15:22Z</time>
      </trkpt>
      <trkpt lat="42.27199" lon="0.40224">
        <ele>613.59</ele>
        <time>2021-08-02T09:15:26Z</time>
      </trkpt>
      <trkpt lat="42.27223" lon="0.40205">
        <ele>612.81</ele>
        <time>2021-08-02T09:15:30Z</time>
      </trkpt>
      <trkpt lat="42.27264" lon="0.40204">
        <ele>612.27</ele>
        <time>2021-08-02T09:15:37Z</time>
      </trkpt>
      <trkpt lat="42.27276" lon="0.40197">
        <ele>614.79</ele>
        <time>2021-08-02T09:15:44Z</time>
      </trkpt>
      <trkpt lat="42.27265" lon="0.40187">
        <ele>615.29</ele>
        <time>2021-08-02T09:15:45Z</time>
      </trkpt>
      <trkpt lat="42.27223" lon="0.40149">
        <ele>617.54</ele>
        <time>2021-08-02T09:15:49Z</time>
      </trkpt>
      <trkpt lat="42.27187" lon="0.401">
        <ele>620.22</ele>
        <time>2021-08-02T09:15:53Z</time>
      </trkpt>
      <trkpt lat="42.27155" lon="0.40043">
        <ele>623.05</ele>
        <time>2021-08-02T09:15:57Z</time>
      </trkpt>
      <trkpt lat="42.27143" lon="0.39986">
        <ele>625.52</ele>
        <time>2021-08-02T09:16:01Z</time>
      </trkpt>
    </trkseg>
  </trk>
  <trk>
    <name><![CDATA[TOTAL 4x4 _13]]></name>
    <extensions>
      <line xmlns="http://www.topografix.com/GPX/gpx_style/0/2">
        <color>00FF00</color>
        <width>4</width>
      </line>
    </extensions>
    <trkseg>
      <trkpt lat="42.32735" lon="-0.25962">
        <ele>986.98</ele>
        <time>2021-08-02T16:57:16Z</time>
      </trkpt>
      <trkpt lat="42.32739" lon="-0.2596">
        <ele>974.9</ele>
      </trkpt>
      <trkpt lat="42.32742" lon="-0.25968">
        <ele>976.5</ele>
      </trkpt>
      <trkpt lat="42.32745" lon="-0.25971">
        <ele>977.4</ele>
      </trkpt>
      <trkpt lat="42.3275" lon="-0.25972">
        <ele>978.3</ele>
      </trkpt>
      <trkpt lat="42.32767" lon="-0.25971">
        <ele>978.7</ele>
      </trkpt>
      <trkpt lat="42.32774" lon="-0.25972">
        <ele>979.1</ele>
      </trkpt>
      <trkpt lat="42.3278" lon="-0.25975">
        <ele>979.7</ele>
      </trkpt>
      <trkpt lat="42.32789" lon="-0.25982">
        <ele>981.1</ele>
      </trkpt>
      <trkpt lat="42.32799" lon="-0.26005">
        <ele>985.5</ele>
      </trkpt>
      <trkpt lat="42.32809" lon="-0.26019">
        <ele>989.3</ele>
      </trkpt>
      <trkpt lat="42.32877" lon="-0.26055">
        <ele>1000.3</ele>
      </trkpt>
      <trkpt lat="42.32926" lon="-0.26084">
        <ele>1011.6</ele>
      </trkpt>
      <trkpt lat="42.32932" lon="-0.26086">
        <ele>1013.2</ele>
      </trkpt>
      <trkpt lat="42.32946" lon="-0.26086">
        <ele>1015.2</ele>
      </trkpt>
      <trkpt lat="42.32956" lon="-0.26082">
        <ele>1015.2</ele>
      </trkpt>
      <trkpt lat="42.32975" lon="-0.26069">
        <ele>1013.9</ele>
      </trkpt>
      <trkpt lat="42.33002" lon="-0.26044">
        <ele>1010.2</ele>
      </trkpt>
      <trkpt lat="42.33016" lon="-0.26038">
        <ele>1008.6</ele>
      </trkpt>
      <trkpt lat="42.33024" lon="-0.26038">
        <ele>1008.8</ele>
      </trkpt>
      <trkpt lat="42.33058" lon="-0.26045">
        <ele>1011.7</ele>
      </trkpt>
      <trkpt lat="42.33087" lon="-0.26054">
        <ele>1015</ele>
      </trkpt>
      <trkpt lat="42.331" lon="-0.26062">
        <ele>1016.2</ele>
      </trkpt>
      <trkpt lat="42.33114" lon="-0.26078">
        <ele>1019.8</ele>
      </trkpt>
      <trkpt lat="42.33138" lon="-0.26082">
        <ele>1017.7</ele>
      </trkpt>
      <trkpt lat="42.33145" lon="-0.26085">
        <ele>1017.7</ele>
      </trkpt>
      <trkpt lat="42.33149" lon="-0.2609">
        <ele>1018.7</ele>
      </trkpt>
      <trkpt lat="42.33168" lon="-0.26117">
        <ele>1024.6</ele>
      </trkpt>
      <trkpt lat="42.33194" lon="-0.26138">
        <ele>1023.7</ele>
      </trkpt>
      <trkpt lat="42.33201" lon="-0.26146">
        <ele>1023.8</ele>
      </trkpt>
      <trkpt lat="42.33203" lon="-0.26148">
        <ele>1023.7</ele>
      </trkpt>
      <trkpt lat="42.33208" lon="-0.26153">
        <ele>1023.5</ele>
      </trkpt>
      <trkpt lat="42.33216" lon="-0.26168">
        <ele>1024.8</ele>
      </trkpt>
      <trkpt lat="42.33223" lon="-0.26189">
        <ele>1028.5</ele>
      </trkpt>
      <trkpt lat="42.33229" lon="-0.26219">
        <ele>1035.3</ele>
      </trkpt>
      <trkpt lat="42.33236" lon="-0.26231">
        <ele>1036.6</ele>
      </trkpt>
      <trkpt lat="42.3325" lon="-0.2624">
        <ele>1035</ele>
      </trkpt>
      <trkpt lat="42.33327" lon="-0.26276">
        <ele>1047.8</ele>
      </trkpt>
      <trkpt lat="42.33349" lon="-0.26294">
        <ele>1059.4</ele>
      </trkpt>
      <trkpt lat="42.33352" lon="-0.26295">
        <ele>1060.7</ele>
      </trkpt>
      <trkpt lat="42.33356" lon="-0.26294">
        <ele>1061.7</ele>
      </trkpt>
      <trkpt lat="42.3336" lon="-0.2629">
        <ele>1061.8</ele>
      </trkpt>
      <trkpt lat="42.33364" lon="-0.26285">
        <ele>1061.8</ele>
      </trkpt>
      <trkpt lat="42.33366" lon="-0.26279">
        <ele>1060.8</ele>
      </trkpt>
      <trkpt lat="42.33368" lon="-0.26271">
        <ele>1059.4</ele>
      </trkpt>
      <trkpt lat="42.33375" lon="-0.26195">
        <ele>1051.1</ele>
      </trkpt>
      <trkpt lat="42.33384" lon="-0.2615">
        <ele>1052.5</ele>
      </trkpt>
      <trkpt lat="42.33382" lon="-0.26077">
        <ele>1048.2</ele>
      </trkpt>
      <trkpt lat="42.33385" lon="-0.26032">
        <ele>1049.2</ele>
      </trkpt>
      <trkpt lat="42.33387" lon="-0.2597">
        <ele>1046.8</ele>
      </trkpt>
      <trkpt lat="42.33389" lon="-0.25946">
        <ele>1045.4</ele>
      </trkpt>
      <trkpt lat="42.33392" lon="-0.25934">
        <ele>1045.9</ele>
      </trkpt>
      <trkpt lat="42.33396" lon="-0.25923">
        <ele>1047</ele>
      </trkpt>
      <trkpt lat="42.33414" lon="-0.25898">
        <ele>1051.7</ele>
      </trkpt>
      <trkpt lat="42.33464" lon="-0.25861">
        <ele>1058.8</ele>
      </trkpt>
      <trkpt lat="42.33499" lon="-0.25826">
        <ele>1058.7</ele>
      </trkpt>
      <trkpt lat="42.33528" lon="-0.25794">
        <ele>1059.8</ele>
      </trkpt>
      <trkpt lat="42.3355" lon="-0.2576">
        <ele>1059.9</ele>
      </trkpt>
      <trkpt lat="42.33573" lon="-0.25717">
        <ele>1060.5</ele>
      </trkpt>
      <trkpt lat="42.33599" lon="-0.2566">
        <ele>1058.9</ele>
      </trkpt>
      <trkpt lat="42.33627" lon="-0.25612">
        <ele>1060.9</ele>
      </trkpt>
      <trkpt lat="42.33657" lon="-0.25555">
        <ele>1061.9</ele>
      </trkpt>
      <trkpt lat="42.33677" lon="-0.25524">
        <ele>1063.6</ele>
      </trkpt>
      <trkpt lat="42.33771" lon="-0.25418">
        <ele>1072.8</ele>
      </trkpt>
      <trkpt lat="42.3378" lon="-0.25409">
        <ele>1075.9</ele>
      </trkpt>
      <trkpt lat="42.33794" lon="-0.25398">
        <ele>1081.4</ele>
      </trkpt>
      <trkpt lat="42.33803" lon="-0.25388">
        <ele>1084.3</ele>
      </trkpt>
      <trkpt lat="42.33809" lon="-0.2537">
        <ele>1084.5</ele>
      </trkpt>
      <trkpt lat="42.33811" lon="-0.25311">
        <ele>1078.9</ele>
      </trkpt>
      <trkpt lat="42.33816" lon="-0.25288">
        <ele>1078.9</ele>
      </trkpt>
      <trkpt lat="42.3382" lon="-0.25277">
        <ele>1078.9</ele>
      </trkpt>
      <trkpt lat="42.33828" lon="-0.25263">
        <ele>1078.9</ele>
      </trkpt>
      <trkpt lat="42.3385" lon="-0.25243">
        <ele>1083.9</ele>
      </trkpt>
      <trkpt lat="42.33873" lon="-0.25199">
        <ele>1086.7</ele>
      </trkpt>
      <trkpt lat="42.33883" lon="-0.25184">
        <ele>1086.4</ele>
      </trkpt>
      <trkpt lat="42.3389" lon="-0.25178">
        <ele>1086.4</ele>
      </trkpt>
      <trkpt lat="42.33897" lon="-0.25173">
        <ele>1086.4</ele>
      </trkpt>
      <trkpt lat="42.33948" lon="-0.25149">
        <ele>1091.5</ele>
      </trkpt>
      <trkpt lat="42.3396" lon="-0.25149">
        <ele>1092.9</ele>
      </trkpt>
      <trkpt lat="42.33984" lon="-0.25154">
        <ele>1096</ele>
      </trkpt>
      <trkpt lat="42.33993" lon="-0.25152">
        <ele>1096.9</ele>
      </trkpt>
      <trkpt lat="42.34024" lon="-0.25119">
        <ele>1097.5</ele>
      </trkpt>
      <trkpt lat="42.3404" lon="-0.25113">
        <ele>1098.4</ele>
      </trkpt>
      <trkpt lat="42.34054" lon="-0.25112">
        <ele>1099.7</ele>
      </trkpt>
      <trkpt lat="42.34099" lon="-0.25127">
        <ele>1107.9</ele>
      </trkpt>
      <trkpt lat="42.34111" lon="-0.25126">
        <ele>1109.5</ele>
      </trkpt>
      <trkpt lat="42.34125" lon="-0.25121">
        <ele>1110.6</ele>
      </trkpt>
      <trkpt lat="42.34181" lon="-0.25086">
        <ele>1112.3</ele>
      </trkpt>
      <trkpt lat="42.34195" lon="-0.25075">
        <ele>1115.4</ele>
      </trkpt>
      <trkpt lat="42.34204" lon="-0.25067">
        <ele>1117.4</ele>
      </trkpt>
      <trkpt lat="42.34243" lon="-0.25016">
        <ele>1121.8</ele>
      </trkpt>
      <trkpt lat="42.3427" lon="-0.24969">
        <ele>1125.9</ele>
      </trkpt>
      <trkpt lat="42.34282" lon="-0.24938">
        <ele>1126</ele>
      </trkpt>
      <trkpt lat="42.34294" lon="-0.24916">
        <ele>1126</ele>
      </trkpt>
      <trkpt lat="42.3433" lon="-0.24875">
        <ele>1128</ele>
      </trkpt>
      <trkpt lat="42.34352" lon="-0.24855">
        <ele>1128.2</ele>
      </trkpt>
      <trkpt lat="42.34377" lon="-0.24837">
        <ele>1128.6</ele>
      </trkpt>
      <trkpt lat="42.34404" lon="-0.24825">
        <ele>1132.4</ele>
      </trkpt>
      <trkpt lat="42.34498" lon="-0.24799">
        <ele>1138.9</ele>
      </trkpt>
      <trkpt lat="42.34557" lon="-0.24761">
        <ele>1143.1</ele>
      </trkpt>
      <trkpt lat="42.34566" lon="-0.2476">
        <ele>1143.6</ele>
      </trkpt>
      <trkpt lat="42.34579" lon="-0.24764">
        <ele>1144.9</ele>
      </trkpt>
      <trkpt lat="42.34589" lon="-0.24762">
        <ele>1146</ele>
      </trkpt>
      <trkpt lat="42.34602" lon="-0.2475">
        <ele>1146.9</ele>
      </trkpt>
      <trkpt lat="42.34625" lon="-0.2472">
        <ele>1149.4</ele>
      </trkpt>
      <trkpt lat="42.34637" lon="-0.2471">
        <ele>1150</ele>
      </trkpt>
      <trkpt lat="42.34649" lon="-0.24707">
        <ele>1150.6</ele>
      </trkpt>
      <trkpt lat="42.3466" lon="-0.24707">
        <ele>1151.4</ele>
      </trkpt>
      <trkpt lat="42.34699" lon="-0.24717">
        <ele>1154.4</ele>
      </trkpt>
      <trkpt lat="42.34722" lon="-0.24712">
        <ele>1154.7</ele>
      </trkpt>
      <trkpt lat="42.34737" lon="-0.24705">
        <ele>1154.6</ele>
      </trkpt>
      <trkpt lat="42.34746" lon="-0.24698">
        <ele>1154.2</ele>
      </trkpt>
      <trkpt lat="42.34779" lon="-0.24665">
        <ele>1156.9</ele>
      </trkpt>
      <trkpt lat="42.34796" lon="-0.24643">
        <ele>1159.7</ele>
      </trkpt>
      <trkpt lat="42.34818" lon="-0.24607">
        <ele>1160.4</ele>
      </trkpt>
      <trkpt lat="42.34823" lon="-0.24595">
        <ele>1159.8</ele>
      </trkpt>
      <trkpt lat="42.34837" lon="-0.24554">
        <ele>1157.8</ele>
      </trkpt>
      <trkpt lat="42.34845" lon="-0.24543">
        <ele>1158</ele>
      </trkpt>
      <trkpt lat="42.3485" lon="-0.24539">
        <ele>1158.3</ele>
      </trkpt>
      <trkpt lat="42.3486" lon="-0.24536">
        <ele>1159.1</ele>
      </trkpt>
      <trkpt lat="42.34939" lon="-0.24527">
        <ele>1166.3</ele>
      </trkpt>
      <trkpt lat="42.34958" lon="-0.24521">
        <ele>1167.4</ele>
      </trkpt>
      <trkpt lat="42.34978" lon="-0.24509">
        <ele>1167.3</ele>
      </trkpt>
      <trkpt lat="42.34983" lon="-0.24508">
        <ele>1167.7</ele>
      </trkpt>
      <trkpt lat="42.35049" lon="-0.24509">
        <ele>1174.3</ele>
      </trkpt>
      <trkpt lat="42.35074" lon="-0.24505">
        <ele>1175.9</ele>
      </trkpt>
      <trkpt lat="42.35115" lon="-0.2449">
        <ele>1179.2</ele>
      </trkpt>
      <trkpt lat="42.35128" lon="-0.24481">
        <ele>1180.3</ele>
      </trkpt>
      <trkpt lat="42.35145" lon="-0.24461">
        <ele>1181.4</ele>
      </trkpt>
      <trkpt lat="42.35162" lon="-0.24435">
        <ele>1181.5</ele>
      </trkpt>
      <trkpt lat="42.3518" lon="-0.24409">
        <ele>1182.2</ele>
      </trkpt>
      <trkpt lat="42.35196" lon="-0.24379">
        <ele>1184</ele>
      </trkpt>
      <trkpt lat="42.35206" lon="-0.2437">
        <ele>1184.5</ele>
      </trkpt>
      <trkpt lat="42.35214" lon="-0.24367">
        <ele>1184.8</ele>
      </trkpt>
      <trkpt lat="42.3523" lon="-0.24366">
        <ele>1185.2</ele>
      </trkpt>
      <trkpt lat="42.35295" lon="-0.24374">
        <ele>1189.8</ele>
      </trkpt>
      <trkpt lat="42.35304" lon="-0.24373">
        <ele>1190.5</ele>
      </trkpt>
      <trkpt lat="42.35319" lon="-0.24365">
        <ele>1191.6</ele>
      </trkpt>
      <trkpt lat="42.35342" lon="-0.24333">
        <ele>1194</ele>
      </trkpt>
      <trkpt lat="42.35348" lon="-0.24321">
        <ele>1195.1</ele>
      </trkpt>
      <trkpt lat="42.35352" lon="-0.24294">
        <ele>1195.6</ele>
      </trkpt>
      <trkpt lat="42.35354" lon="-0.2426">
        <ele>1195.4</ele>
      </trkpt>
      <trkpt lat="42.35366" lon="-0.24173">
        <ele>1193.9</ele>
      </trkpt>
      <trkpt lat="42.3537" lon="-0.24152">
        <ele>1193.9</ele>
      </trkpt>
      <trkpt lat="42.35378" lon="-0.24145">
        <ele>1194.2</ele>
      </trkpt>
      <trkpt lat="42.35392" lon="-0.24142">
        <ele>1194.8</ele>
      </trkpt>
      <trkpt lat="42.35446" lon="-0.24152">
        <ele>1197.8</ele>
      </trkpt>
      <trkpt lat="42.35456" lon="-0.24149">
        <ele>1198.4</ele>
      </trkpt>
      <trkpt lat="42.35461" lon="-0.24142">
        <ele>1198.6</ele>
      </trkpt>
      <trkpt lat="42.35476" lon="-0.24107">
        <ele>1198.5</ele>
      </trkpt>
      <trkpt lat="42.35498" lon="-0.24048">
        <ele>1199</ele>
      </trkpt>
      <trkpt lat="42.35508" lon="-0.24029">
        <ele>1200.1</ele>
      </trkpt>
      <trkpt lat="42.3552" lon="-0.24017">
        <ele>1201.3</ele>
      </trkpt>
      <trkpt lat="42.35566" lon="-0.23983">
        <ele>1204.3</ele>
      </trkpt>
      <trkpt lat="42.35582" lon="-0.23968">
        <ele>1204.4</ele>
      </trkpt>
      <trkpt lat="42.35587" lon="-0.23957">
        <ele>1204.6</ele>
      </trkpt>
      <trkpt lat="42.35588" lon="-0.2395">
        <ele>1204.5</ele>
      </trkpt>
      <trkpt lat="42.35583" lon="-0.23901">
        <ele>1202.4</ele>
      </trkpt>
      <trkpt lat="42.35584" lon="-0.23869">
        <ele>1203.3</ele>
      </trkpt>
      <trkpt lat="42.35593" lon="-0.23798">
        <ele>1206.9</ele>
      </trkpt>
      <trkpt lat="42.356" lon="-0.23773">
        <ele>1208.2</ele>
      </trkpt>
      <trkpt lat="42.35605" lon="-0.23765">
        <ele>1208.7</ele>
      </trkpt>
      <trkpt lat="42.35628" lon="-0.23742">
        <ele>1209.6</ele>
      </trkpt>
      <trkpt lat="42.35645" lon="-0.23721">
        <ele>1209.7</ele>
      </trkpt>
      <trkpt lat="42.35684" lon="-0.2366">
        <ele>1209.1</ele>
      </trkpt>
      <trkpt lat="42.35687" lon="-0.23656">
        <ele>1209.4</ele>
      </trkpt>
      <trkpt lat="42.35695" lon="-0.23655">
        <ele>1209.7</ele>
      </trkpt>
      <trkpt lat="42.35699" lon="-0.23657">
        <ele>1209.8</ele>
      </trkpt>
      <trkpt lat="42.35702" lon="-0.23659">
        <ele>1209.9</ele>
      </trkpt>
      <trkpt lat="42.35731" lon="-0.2371">
        <ele>1212.2</ele>
      </trkpt>
      <trkpt lat="42.35746" lon="-0.23727">
        <ele>1213.3</ele>
      </trkpt>
      <trkpt lat="42.35755" lon="-0.23733">
        <ele>1213.2</ele>
      </trkpt>
      <trkpt lat="42.35762" lon="-0.23735">
        <ele>1212.6</ele>
      </trkpt>
      <trkpt lat="42.35767" lon="-0.23734">
        <ele>1212.2</ele>
      </trkpt>
      <trkpt lat="42.3577" lon="-0.23733">
        <ele>1211.9</ele>
      </trkpt>
      <trkpt lat="42.35776" lon="-0.23727">
        <ele>1211.3</ele>
      </trkpt>
      <trkpt lat="42.3578" lon="-0.23712">
        <ele>1210.6</ele>
      </trkpt>
      <trkpt lat="42.35782" lon="-0.23643">
        <ele>1208.5</ele>
      </trkpt>
      <trkpt lat="42.35784" lon="-0.23625">
        <ele>1207.7</ele>
      </trkpt>
      <trkpt lat="42.3579" lon="-0.23607">
        <ele>1206.2</ele>
      </trkpt>
      <trkpt lat="42.35794" lon="-0.23601">
        <ele>1205.4</ele>
      </trkpt>
      <trkpt lat="42.35799" lon="-0.23597">
        <ele>1204.4</ele>
      </trkpt>
      <trkpt lat="42.35809" lon="-0.23595">
        <ele>1202.8</ele>
      </trkpt>
      <trkpt lat="42.35819" lon="-0.23601">
        <ele>1201.6</ele>
      </trkpt>
      <trkpt lat="42.35836" lon="-0.23634">
        <ele>1201.8</ele>
      </trkpt>
      <trkpt lat="42.3585" lon="-0.23645">
        <ele>1200.1</ele>
      </trkpt>
      <trkpt lat="42.3586" lon="-0.2365">
        <ele>1198.7</ele>
      </trkpt>
      <trkpt lat="42.3587" lon="-0.23653">
        <ele>1197.2</ele>
      </trkpt>
      <trkpt lat="42.35887" lon="-0.23654">
        <ele>1194.2</ele>
      </trkpt>
      <trkpt lat="42.3593" lon="-0.23642">
        <ele>1185.4</ele>
      </trkpt>
      <trkpt lat="42.35936" lon="-0.23642">
        <ele>1184.4</ele>
      </trkpt>
      <trkpt lat="42.35945" lon="-0.23645">
        <ele>1183.1</ele>
      </trkpt>
      <trkpt lat="42.35953" lon="-0.23657">
        <ele>1182.7</ele>
      </trkpt>
      <trkpt lat="42.36003" lon="-0.23786">
        <ele>1171.2</ele>
      </trkpt>
      <trkpt lat="42.3601" lon="-0.23857">
        <ele>1166.8</ele>
      </trkpt>
      <trkpt lat="42.36015" lon="-0.23927">
        <ele>1162</ele>
      </trkpt>
      <trkpt lat="42.36019" lon="-0.23947">
        <ele>1160.6</ele>
      </trkpt>
      <trkpt lat="42.36029" lon="-0.2398">
        <ele>1157.5</ele>
      </trkpt>
      <trkpt lat="42.36035" lon="-0.24018">
        <ele>1155.4</ele>
      </trkpt>
      <trkpt lat="42.36041" lon="-0.24028">
        <ele>1154.1</ele>
      </trkpt>
      <trkpt lat="42.36065" lon="-0.24042">
        <ele>1149</ele>
      </trkpt>
      <trkpt lat="42.36095" lon="-0.24085">
        <ele>1142.9</ele>
      </trkpt>
      <trkpt lat="42.36101" lon="-0.24099">
        <ele>1143</ele>
      </trkpt>
      <trkpt lat="42.36111" lon="-0.24146">
        <ele>1145</ele>
      </trkpt>
      <trkpt lat="42.36118" lon="-0.2416">
        <ele>1144.6</ele>
      </trkpt>
      <trkpt lat="42.36158" lon="-0.24191">
        <ele>1139</ele>
      </trkpt>
      <trkpt lat="42.36179" lon="-0.24191">
        <ele>1135</ele>
      </trkpt>
      <trkpt lat="42.36191" lon="-0.24196">
        <ele>1133.5</ele>
      </trkpt>
      <trkpt lat="42.36196" lon="-0.24202">
        <ele>1133.3</ele>
      </trkpt>
      <trkpt lat="42.36213" lon="-0.2423">
        <ele>1133.3</ele>
      </trkpt>
      <trkpt lat="42.36218" lon="-0.24235">
        <ele>1132.9</ele>
      </trkpt>
      <trkpt lat="42.36231" lon="-0.24241">
        <ele>1130.9</ele>
      </trkpt>
      <trkpt lat="42.36249" lon="-0.24246">
        <ele>1127.8</ele>
      </trkpt>
      <trkpt lat="42.36263" lon="-0.24253">
        <ele>1126</ele>
      </trkpt>
      <trkpt lat="42.36293" lon="-0.24284">
        <ele>1123.9</ele>
      </trkpt>
      <trkpt lat="42.36307" lon="-0.24296">
        <ele>1122.7</ele>
      </trkpt>
      <trkpt lat="42.36361" lon="-0.24318">
        <ele>1116.4</ele>
      </trkpt>
      <trkpt lat="42.36385" lon="-0.24319">
        <ele>1113.1</ele>
      </trkpt>
      <trkpt lat="42.36398" lon="-0.24323">
        <ele>1111.7</ele>
      </trkpt>
      <trkpt lat="42.3641" lon="-0.24334">
        <ele>1110.9</ele>
      </trkpt>
      <trkpt lat="42.36457" lon="-0.24397">
        <ele>1106.2</ele>
      </trkpt>
      <trkpt lat="42.36484" lon="-0.24416">
        <ele>1106.3</ele>
      </trkpt>
      <trkpt lat="42.36504" lon="-0.24426">
        <ele>1104.3</ele>
      </trkpt>
      <trkpt lat="42.36578" lon="-0.24449">
        <ele>1097.4</ele>
      </trkpt>
      <trkpt lat="42.36595" lon="-0.2445">
        <ele>1096</ele>
      </trkpt>
      <trkpt lat="42.36604" lon="-0.24444">
        <ele>1095.8</ele>
      </trkpt>
      <trkpt lat="42.3661" lon="-0.24438">
        <ele>1095.8</ele>
      </trkpt>
      <trkpt lat="42.36639" lon="-0.24378">
        <ele>1088.4</ele>
      </trkpt>
      <trkpt lat="42.36647" lon="-0.24371">
        <ele>1086.7</ele>
      </trkpt>
      <trkpt lat="42.36657" lon="-0.24371">
        <ele>1085.8</ele>
      </trkpt>
      <trkpt lat="42.36661" lon="-0.24374">
        <ele>1085.9</ele>
      </trkpt>
      <trkpt lat="42.36667" lon="-0.2439">
        <ele>1087.4</ele>
      </trkpt>
      <trkpt lat="42.36713" lon="-0.24596">
        <ele>1071.5</ele>
      </trkpt>
      <trkpt lat="42.36715" lon="-0.24603">
        <ele>1070.8</ele>
      </trkpt>
      <trkpt lat="42.36721" lon="-0.24612">
        <ele>1069.7</ele>
      </trkpt>
      <trkpt lat="42.36729" lon="-0.24613">
        <ele>1069.1</ele>
      </trkpt>
      <trkpt lat="42.36737" lon="-0.24607">
        <ele>1069.1</ele>
      </trkpt>
      <trkpt lat="42.3678" lon="-0.24533">
        <ele>1067.9</ele>
      </trkpt>
      <trkpt lat="42.3679" lon="-0.24523">
        <ele>1066.8</ele>
      </trkpt>
      <trkpt lat="42.36846" lon="-0.24503">
        <ele>1059.4</ele>
      </trkpt>
      <trkpt lat="42.36861" lon="-0.24501">
        <ele>1057.6</ele>
      </trkpt>
      <trkpt lat="42.36875" lon="-0.24506">
        <ele>1055.8</ele>
      </trkpt>
      <trkpt lat="42.36882" lon="-0.2451">
        <ele>1054.9</ele>
      </trkpt>
      <trkpt lat="42.36887" lon="-0.24518">
        <ele>1054.1</ele>
      </trkpt>
      <trkpt lat="42.36891" lon="-0.24526">
        <ele>1053.4</ele>
      </trkpt>
      <trkpt lat="42.36915" lon="-0.24616">
        <ele>1046.4</ele>
      </trkpt>
      <trkpt lat="42.36918" lon="-0.2462">
        <ele>1045.7</ele>
      </trkpt>
      <trkpt lat="42.36922" lon="-0.24622">
        <ele>1045</ele>
      </trkpt>
      <trkpt lat="42.36932" lon="-0.24621">
        <ele>1043.7</ele>
      </trkpt>
      <trkpt lat="42.36937" lon="-0.24618">
        <ele>1043.2</ele>
      </trkpt>
      <trkpt lat="42.3698" lon="-0.24575">
        <ele>1038.5</ele>
      </trkpt>
      <trkpt lat="42.36993" lon="-0.24559">
        <ele>1036.5</ele>
      </trkpt>
      <trkpt lat="42.37002" lon="-0.24541">
        <ele>1035.2</ele>
      </trkpt>
      <trkpt lat="42.3702" lon="-0.24483">
        <ele>1031.9</ele>
      </trkpt>
      <trkpt lat="42.3703" lon="-0.24469">
        <ele>1029.9</ele>
      </trkpt>
      <trkpt lat="42.37047" lon="-0.24449">
        <ele>1027.1</ele>
      </trkpt>
      <trkpt lat="42.37061" lon="-0.24428">
        <ele>1025.2</ele>
      </trkpt>
      <trkpt lat="42.37065" lon="-0.24423">
        <ele>1024.8</ele>
      </trkpt>
      <trkpt lat="42.37075" lon="-0.2442">
        <ele>1023.8</ele>
      </trkpt>
      <trkpt lat="42.3708" lon="-0.24421">
        <ele>1023.3</ele>
      </trkpt>
      <trkpt lat="42.3709" lon="-0.24431">
        <ele>1021.9</ele>
      </trkpt>
      <trkpt lat="42.37131" lon="-0.24511">
        <ele>1014.6</ele>
      </trkpt>
      <trkpt lat="42.37153" lon="-0.24561">
        <ele>1011.1</ele>
      </trkpt>
      <trkpt lat="42.37162" lon="-0.24575">
        <ele>1009.7</ele>
      </trkpt>
      <trkpt lat="42.37173" lon="-0.24581">
        <ele>1008.5</ele>
      </trkpt>
      <trkpt lat="42.37215" lon="-0.2459">
        <ele>1004.6</ele>
      </trkpt>
      <trkpt lat="42.37236" lon="-0.24591">
        <ele>1002.8</ele>
      </trkpt>
      <trkpt lat="42.37271" lon="-0.24589">
        <ele>999.2</ele>
      </trkpt>
      <trkpt lat="42.3729" lon="-0.24582">
        <ele>997.2</ele>
      </trkpt>
      <trkpt lat="42.37303" lon="-0.24569">
        <ele>995.7</ele>
      </trkpt>
      <trkpt lat="42.3732" lon="-0.24542">
        <ele>993.9</ele>
      </trkpt>
      <trkpt lat="42.37329" lon="-0.24524">
        <ele>993.2</ele>
      </trkpt>
      <trkpt lat="42.37348" lon="-0.24477">
        <ele>990.8</ele>
      </trkpt>
      <trkpt lat="42.37356" lon="-0.2446">
        <ele>989.5</ele>
      </trkpt>
      <trkpt lat="42.37362" lon="-0.24453">
        <ele>988.8</ele>
      </trkpt>
      <trkpt lat="42.37375" lon="-0.24441">
        <ele>987.2</ele>
      </trkpt>
      <trkpt lat="42.37407" lon="-0.24422">
        <ele>983.9</ele>
      </trkpt>
      <trkpt lat="42.37418" lon="-0.24419">
        <ele>982.9</ele>
      </trkpt>
      <trkpt lat="42.37427" lon="-0.24422">
        <ele>981.6</ele>
      </trkpt>
      <trkpt lat="42.3746" lon="-0.24446">
        <ele>977.6</ele>
      </trkpt>
      <trkpt lat="42.37474" lon="-0.24452">
        <ele>975.9</ele>
      </trkpt>
      <trkpt lat="42.37523" lon="-0.24469">
        <ele>969.9</ele>
      </trkpt>
      <trkpt lat="42.37538" lon="-0.24478">
        <ele>968.1</ele>
      </trkpt>
      <trkpt lat="42.37551" lon="-0.24496">
        <ele>966.6</ele>
      </trkpt>
      <trkpt lat="42.37575" lon="-0.24546">
        <ele>960.6</ele>
      </trkpt>
      <trkpt lat="42.37579" lon="-0.24558">
        <ele>959.3</ele>
      </trkpt>
      <trkpt lat="42.37584" lon="-0.24569">
        <ele>957.8</ele>
      </trkpt>
      <trkpt lat="42.37589" lon="-0.2458">
        <ele>957</ele>
      </trkpt>
      <trkpt lat="42.376" lon="-0.24594">
        <ele>955.5</ele>
      </trkpt>
      <trkpt lat="42.37613" lon="-0.24601">
        <ele>954.2</ele>
      </trkpt>
      <trkpt lat="42.37627" lon="-0.24605">
        <ele>953.1</ele>
      </trkpt>
      <trkpt lat="42.37671" lon="-0.24612">
        <ele>949.7</ele>
      </trkpt>
      <trkpt lat="42.37712" lon="-0.24612">
        <ele>948</ele>
      </trkpt>
      <trkpt lat="42.37741" lon="-0.24605">
        <ele>948.2</ele>
      </trkpt>
      <trkpt lat="42.3775" lon="-0.24605">
        <ele>947.8</ele>
      </trkpt>
      <trkpt lat="42.37764" lon="-0.24608">
        <ele>947.9</ele>
      </trkpt>
      <trkpt lat="42.37771" lon="-0.24611">
        <ele>947.6</ele>
      </trkpt>
      <trkpt lat="42.37781" lon="-0.24618">
        <ele>946.6</ele>
      </trkpt>
      <trkpt lat="42.37793" lon="-0.24634">
        <ele>943.6</ele>
      </trkpt>
      <trkpt lat="42.37818" lon="-0.24662">
        <ele>937.9</ele>
      </trkpt>
      <trkpt lat="42.37829" lon="-0.24677">
        <ele>934.5</ele>
      </trkpt>
      <trkpt lat="42.37846" lon="-0.24693">
        <ele>931.6</ele>
      </trkpt>
      <trkpt lat="42.37859" lon="-0.247">
        <ele>931</ele>
      </trkpt>
      <trkpt lat="42.37909" lon="-0.24711">
        <ele>932.8</ele>
      </trkpt>
      <trkpt lat="42.37918" lon="-0.24722">
        <ele>931.6</ele>
      </trkpt>
      <trkpt lat="42.37924" lon="-0.24741">
        <ele>929.2</ele>
      </trkpt>
      <trkpt lat="42.37927" lon="-0.2481">
        <ele>919.7</ele>
      </trkpt>
      <trkpt lat="42.37929" lon="-0.24827">
        <ele>917.5</ele>
      </trkpt>
      <trkpt lat="42.37933" lon="-0.24838">
        <ele>916.5</ele>
      </trkpt>
      <trkpt lat="42.37948" lon="-0.24861">
        <ele>914.9</ele>
      </trkpt>
      <trkpt lat="42.37973" lon="-0.2488">
        <ele>915</ele>
      </trkpt>
      <trkpt lat="42.37977" lon="-0.24885">
        <ele>914.6</ele>
      </trkpt>
      <trkpt lat="42.37985" lon="-0.24904">
        <ele>912.5</ele>
      </trkpt>
      <trkpt lat="42.37988" lon="-0.24914">
        <ele>911.1</ele>
      </trkpt>
      <trkpt lat="42.37991" lon="-0.24964">
        <ele>907.1</ele>
      </trkpt>
      <trkpt lat="42.37987" lon="-0.24982">
        <ele>905.2</ele>
      </trkpt>
      <trkpt lat="42.37973" lon="-0.2502">
        <ele>900.4</ele>
      </trkpt>
      <trkpt lat="42.37972" lon="-0.25029">
        <ele>899.4</ele>
      </trkpt>
      <trkpt lat="42.37974" lon="-0.25044">
        <ele>898.1</ele>
      </trkpt>
      <trkpt lat="42.37981" lon="-0.25058">
        <ele>897.2</ele>
      </trkpt>
      <trkpt lat="42.37986" lon="-0.25063">
        <ele>897.1</ele>
      </trkpt>
      <trkpt lat="42.37996" lon="-0.25065">
        <ele>897.7</ele>
      </trkpt>
      <trkpt lat="42.38011" lon="-0.25063">
        <ele>898.4</ele>
      </trkpt>
      <trkpt lat="42.38019" lon="-0.25068">
        <ele>898</ele>
      </trkpt>
      <trkpt lat="42.38022" lon="-0.25074">
        <ele>897.5</ele>
      </trkpt>
      <trkpt lat="42.38024" lon="-0.25081">
        <ele>896.8</ele>
      </trkpt>
      <trkpt lat="42.38027" lon="-0.25129">
        <ele>893</ele>
      </trkpt>
      <trkpt lat="42.38042" lon="-0.25191">
        <ele>889.2</ele>
      </trkpt>
      <trkpt lat="42.38043" lon="-0.25203">
        <ele>888.6</ele>
      </trkpt>
      <trkpt lat="42.38043" lon="-0.25237">
        <ele>886.7</ele>
      </trkpt>
      <trkpt lat="42.38039" lon="-0.2528">
        <ele>884</ele>
      </trkpt>
      <trkpt lat="42.38043" lon="-0.25327">
        <ele>880.9</ele>
      </trkpt>
      <trkpt lat="42.38041" lon="-0.25369">
        <ele>877.9</ele>
      </trkpt>
      <trkpt lat="42.38036" lon="-0.2539">
        <ele>876.3</ele>
      </trkpt>
      <trkpt lat="42.38003" lon="-0.25448">
        <ele>871.3</ele>
      </trkpt>
      <trkpt lat="42.37996" lon="-0.2547">
        <ele>870.3</ele>
      </trkpt>
      <trkpt lat="42.37996" lon="-0.25476">
        <ele>870</ele>
      </trkpt>
      <trkpt lat="42.38002" lon="-0.2549">
        <ele>868.8</ele>
      </trkpt>
      <trkpt lat="42.3803" lon="-0.25519">
        <ele>870</ele>
      </trkpt>
      <trkpt lat="42.38036" lon="-0.25528">
        <ele>870.2</ele>
      </trkpt>
      <trkpt lat="42.3804" lon="-0.2554">
        <ele>870.2</ele>
      </trkpt>
      <trkpt lat="42.38046" lon="-0.25578">
        <ele>869.5</ele>
      </trkpt>
      <trkpt lat="42.38044" lon="-0.25631">
        <ele>866.5</ele>
      </trkpt>
      <trkpt lat="42.38056" lon="-0.25711">
        <ele>861.3</ele>
      </trkpt>
      <trkpt lat="42.38074" lon="-0.25764">
        <ele>856.8</ele>
      </trkpt>
      <trkpt lat="42.38091" lon="-0.25807">
        <ele>857.4</ele>
      </trkpt>
      <trkpt lat="42.38098" lon="-0.25849">
        <ele>858.1</ele>
      </trkpt>
      <trkpt lat="42.3812" lon="-0.25892">
        <ele>857.3</ele>
      </trkpt>
      <trkpt lat="42.38123" lon="-0.25899">
        <ele>857.2</ele>
      </trkpt>
      <trkpt lat="42.38128" lon="-0.25914">
        <ele>857.2</ele>
      </trkpt>
      <trkpt lat="42.38157" lon="-0.25992">
        <ele>854.4</ele>
      </trkpt>
      <trkpt lat="42.38167" lon="-0.26014">
        <ele>853.5</ele>
      </trkpt>
      <trkpt lat="42.38203" lon="-0.26056">
        <ele>850.5</ele>
      </trkpt>
      <trkpt lat="42.38226" lon="-0.26089">
        <ele>848.6</ele>
      </trkpt>
      <trkpt lat="42.38244" lon="-0.26107">
        <ele>847.5</ele>
      </trkpt>
      <trkpt lat="42.38263" lon="-0.26118">
        <ele>847.4</ele>
      </trkpt>
      <trkpt lat="42.3827" lon="-0.2612">
        <ele>847.6</ele>
      </trkpt>
      <trkpt lat="42.38303" lon="-0.26123">
        <ele>847.8</ele>
      </trkpt>
      <trkpt lat="42.38361" lon="-0.26145">
        <ele>849.9</ele>
      </trkpt>
      <trkpt lat="42.38375" lon="-0.26155">
        <ele>850.8</ele>
      </trkpt>
      <trkpt lat="42.38393" lon="-0.26176">
        <ele>853.9</ele>
      </trkpt>
      <trkpt lat="42.384" lon="-0.2618">
        <ele>854.5</ele>
      </trkpt>
      <trkpt lat="42.38409" lon="-0.2618">
        <ele>854.2</ele>
      </trkpt>
      <trkpt lat="42.38424" lon="-0.26176">
        <ele>852.8</ele>
      </trkpt>
      <trkpt lat="42.38432" lon="-0.26176">
        <ele>852.5</ele>
      </trkpt>
      <trkpt lat="42.38488" lon="-0.26196">
        <ele>854.8</ele>
      </trkpt>
      <trkpt lat="42.38505" lon="-0.26196">
        <ele>854.2</ele>
      </trkpt>
      <trkpt lat="42.38539" lon="-0.26187">
        <ele>851.7</ele>
      </trkpt>
      <trkpt lat="42.3855" lon="-0.26186">
        <ele>851.3</ele>
      </trkpt>
      <trkpt lat="42.38573" lon="-0.26188">
        <ele>851.3</ele>
      </trkpt>
      <trkpt lat="42.38592" lon="-0.26193">
        <ele>851.2</ele>
      </trkpt>
      <trkpt lat="42.38598" lon="-0.26196">
        <ele>851.1</ele>
      </trkpt>
      <trkpt lat="42.38609" lon="-0.26208">
        <ele>852.2</ele>
      </trkpt>
      <trkpt lat="42.3862" lon="-0.26225">
        <ele>854.1</ele>
      </trkpt>
      <trkpt lat="42.38628" lon="-0.26251">
        <ele>857.7</ele>
      </trkpt>
      <trkpt lat="42.38633" lon="-0.26261">
        <ele>858</ele>
      </trkpt>
      <trkpt lat="42.38643" lon="-0.26273">
        <ele>858</ele>
      </trkpt>
      <trkpt lat="42.38651" lon="-0.2628">
        <ele>857.7</ele>
      </trkpt>
      <trkpt lat="42.38662" lon="-0.26286">
        <ele>857</ele>
      </trkpt>
      <trkpt lat="42.38672" lon="-0.26291">
        <ele>856.2</ele>
      </trkpt>
      <trkpt lat="42.38707" lon="-0.26306">
        <ele>853.4</ele>
      </trkpt>
      <trkpt lat="42.3877" lon="-0.26324">
        <ele>847.7</ele>
      </trkpt>
      <trkpt lat="42.38776" lon="-0.26327">
        <ele>847.3</ele>
      </trkpt>
      <trkpt lat="42.38781" lon="-0.26332">
        <ele>847.3</ele>
      </trkpt>
      <trkpt lat="42.38788" lon="-0.2635">
        <ele>846.7</ele>
      </trkpt>
      <trkpt lat="42.3879" lon="-0.26361">
        <ele>846.6</ele>
      </trkpt>
      <trkpt lat="42.388" lon="-0.26545">
        <ele>839.6</ele>
      </trkpt>
      <trkpt lat="42.38799" lon="-0.26584">
        <ele>837.3</ele>
      </trkpt>
      <trkpt lat="42.38792" lon="-0.26658">
        <ele>837.1</ele>
      </trkpt>
      <trkpt lat="42.38792" lon="-0.26673">
        <ele>837.7</ele>
      </trkpt>
      <trkpt lat="42.38796" lon="-0.26692">
        <ele>839.3</ele>
      </trkpt>
      <trkpt lat="42.388" lon="-0.26698">
        <ele>839.6</ele>
      </trkpt>
      <trkpt lat="42.38814" lon="-0.26706">
        <ele>838.9</ele>
      </trkpt>
      <trkpt lat="42.38855" lon="-0.2671">
        <ele>835.2</ele>
      </trkpt>
      <trkpt lat="42.38881" lon="-0.26707">
        <ele>832.2</ele>
      </trkpt>
      <trkpt lat="42.38896" lon="-0.26707">
        <ele>830.8</ele>
      </trkpt>
      <trkpt lat="42.38904" lon="-0.26711">
        <ele>830.6</ele>
      </trkpt>
      <trkpt lat="42.38921" lon="-0.26727">
        <ele>830.6</ele>
      </trkpt>
      <trkpt lat="42.38932" lon="-0.26745">
        <ele>830.4</ele>
      </trkpt>
      <trkpt lat="42.38977" lon="-0.26885">
        <ele>823</ele>
      </trkpt>
      <trkpt lat="42.38989" lon="-0.26932">
        <ele>819.9</ele>
      </trkpt>
      <trkpt lat="42.39003" lon="-0.26957">
        <ele>816.4</ele>
      </trkpt>
      <trkpt lat="42.39007" lon="-0.26969">
        <ele>815</ele>
      </trkpt>
      <trkpt lat="42.3901" lon="-0.2698">
        <ele>813.7</ele>
      </trkpt>
      <trkpt lat="42.39011" lon="-0.26993">
        <ele>812.9</ele>
      </trkpt>
      <trkpt lat="42.3901" lon="-0.27006">
        <ele>812</ele>
      </trkpt>
      <trkpt lat="42.39007" lon="-0.27019">
        <ele>811</ele>
      </trkpt>
      <trkpt lat="42.39002" lon="-0.27029">
        <ele>810.8</ele>
      </trkpt>
      <trkpt lat="42.38997" lon="-0.27035">
        <ele>810.9</ele>
      </trkpt>
      <trkpt lat="42.38975" lon="-0.27055">
        <ele>812.4</ele>
      </trkpt>
      <trkpt lat="42.3897" lon="-0.27071">
        <ele>811.7</ele>
      </trkpt>
      <trkpt lat="42.38971" lon="-0.27092">
        <ele>809.3</ele>
      </trkpt>
      <trkpt lat="42.3898" lon="-0.2714">
        <ele>802.2</ele>
      </trkpt>
      <trkpt lat="42.38978" lon="-0.27205">
        <ele>797.4</ele>
      </trkpt>
      <trkpt lat="42.38978" lon="-0.27219">
        <ele>796.5</ele>
      </trkpt>
      <trkpt lat="42.3898" lon="-0.27229">
        <ele>795.6</ele>
      </trkpt>
      <trkpt lat="42.38983" lon="-0.27233">
        <ele>795</ele>
      </trkpt>
      <trkpt lat="42.39011" lon="-0.27249">
        <ele>792.2</ele>
      </trkpt>
      <trkpt lat="42.3904" lon="-0.27267">
        <ele>792.5</ele>
      </trkpt>
      <trkpt lat="42.3905" lon="-0.27278">
        <ele>792.6</ele>
      </trkpt>
      <trkpt lat="42.39054" lon="-0.27287">
        <ele>792.6</ele>
      </trkpt>
      <trkpt lat="42.3906" lon="-0.27318">
        <ele>792.7</ele>
      </trkpt>
      <trkpt lat="42.39078" lon="-0.27369">
        <ele>792.6</ele>
      </trkpt>
      <trkpt lat="42.39083" lon="-0.27389">
        <ele>792.3</ele>
      </trkpt>
      <trkpt lat="42.39085" lon="-0.27413">
        <ele>792.5</ele>
      </trkpt>
      <trkpt lat="42.3909" lon="-0.27419">
        <ele>793.7</ele>
      </trkpt>
      <trkpt lat="42.39099" lon="-0.27423">
        <ele>795.9</ele>
      </trkpt>
      <trkpt lat="42.39098" lon="-0.27409">
        <ele>795.9</ele>
      </trkpt>
      <trkpt lat="42.39099" lon="-0.27393">
        <ele>796.2</ele>
      </trkpt>
      <trkpt lat="42.39113" lon="-0.27293">
        <ele>799.1</ele>
      </trkpt>
    </trkseg>
  </trk>
  <trk>
    <name><![CDATA[TOTAL 4x4 _14]]></name>
    <extensions>
      <line xmlns="http://www.topografix.com/GPX/gpx_style/0/2">
        <color>FF0000</color>
        <width>4</width>
      </line>
    </extensions>
    <trkseg>
      <trkpt lat="42.30727" lon="0.04167">
        <ele>862.45</ele>
        <time>2021-08-02T15:14:44Z</time>
      </trkpt>
      <trkpt lat="42.30737" lon="0.04136">
        <ele>859.31</ele>
        <time>2021-08-02T15:14:52Z</time>
      </trkpt>
      <trkpt lat="42.30755" lon="0.04054">
        <ele>859.42</ele>
        <time>2021-08-02T15:15:00Z</time>
      </trkpt>
      <trkpt lat="42.30774" lon="0.03948">
        <ele>862.71</ele>
        <time>2021-08-02T15:15:06Z</time>
      </trkpt>
      <trkpt lat="42.30781" lon="0.0386">
        <ele>866.23</ele>
        <time>2021-08-02T15:15:10Z</time>
      </trkpt>
      <trkpt lat="42.30819" lon="0.03725">
        <ele>870.3</ele>
        <time>2021-08-02T15:15:16Z</time>
      </trkpt>
      <trkpt lat="42.30826" lon="0.03706">
        <ele>870.96</ele>
        <time>2021-08-02T15:15:17Z</time>
      </trkpt>
      <trkpt lat="42.30863" lon="0.03617">
        <ele>872.53</ele>
        <time>2021-08-02T15:15:22Z</time>
      </trkpt>
      <trkpt lat="42.30865" lon="0.03482">
        <ele>873.19</ele>
        <time>2021-08-02T15:15:29Z</time>
      </trkpt>
      <trkpt lat="42.30864" lon="0.03442">
        <ele>873.46</ele>
        <time>2021-08-02T15:15:31Z</time>
      </trkpt>
      <trkpt lat="42.30845" lon="0.03372">
        <ele>873.78</ele>
        <time>2021-08-02T15:15:35Z</time>
      </trkpt>
      <trkpt lat="42.30821" lon="0.03232">
        <ele>874.43</ele>
        <time>2021-08-02T15:15:42Z</time>
      </trkpt>
      <trkpt lat="42.30816" lon="0.03144">
        <ele>875.64</ele>
        <time>2021-08-02T15:15:47Z</time>
      </trkpt>
      <trkpt lat="42.30836" lon="0.03042">
        <ele>877.34</ele>
        <time>2021-08-02T15:15:53Z</time>
      </trkpt>
      <trkpt lat="42.30827" lon="0.02954">
        <ele>877.43</ele>
        <time>2021-08-02T15:15:58Z</time>
      </trkpt>
      <trkpt lat="42.30822" lon="0.02937">
        <ele>877.34</ele>
        <time>2021-08-02T15:15:59Z</time>
      </trkpt>
      <trkpt lat="42.30811" lon="0.02905">
        <ele>877.08</ele>
        <time>2021-08-02T15:16:01Z</time>
      </trkpt>
      <trkpt lat="42.30814" lon="0.02841">
        <ele>875.98</ele>
        <time>2021-08-02T15:16:05Z</time>
      </trkpt>
      <trkpt lat="42.30851" lon="0.02678">
        <ele>874.6</ele>
        <time>2021-08-02T15:16:14Z</time>
      </trkpt>
      <trkpt lat="42.30851" lon="0.02644">
        <ele>871.11</ele>
        <time>2021-08-02T15:16:20Z</time>
      </trkpt>
      <trkpt lat="42.30847" lon="0.02582">
        <ele>868.79</ele>
        <time>2021-08-02T15:16:26Z</time>
      </trkpt>
      <trkpt lat="42.30845" lon="0.02536">
        <ele>869.23</ele>
        <time>2021-08-02T15:16:29Z</time>
      </trkpt>
      <trkpt lat="42.3086" lon="0.02463">
        <ele>870.6</ele>
        <time>2021-08-02T15:16:33Z</time>
      </trkpt>
      <trkpt lat="42.309" lon="0.02382">
        <ele>871.84</ele>
        <time>2021-08-02T15:16:38Z</time>
      </trkpt>
      <trkpt lat="42.30967" lon="0.02323">
        <ele>874</ele>
        <time>2021-08-02T15:16:43Z</time>
      </trkpt>
      <trkpt lat="42.31031" lon="0.02234">
        <ele>876.5</ele>
        <time>2021-08-02T15:16:49Z</time>
      </trkpt>
      <trkpt lat="42.31062" lon="0.02154">
        <ele>877.92</ele>
        <time>2021-08-02T15:16:53Z</time>
      </trkpt>
      <trkpt lat="42.31099" lon="0.02095">
        <ele>878.88</ele>
        <time>2021-08-02T15:16:57Z</time>
      </trkpt>
      <trkpt lat="42.31134" lon="0.02085">
        <ele>880.53</ele>
        <time>2021-08-02T15:17:01Z</time>
      </trkpt>
      <trkpt lat="42.31219" lon="0.02053">
        <ele>882.09</ele>
        <time>2021-08-02T15:17:08Z</time>
      </trkpt>
      <trkpt lat="42.31273" lon="0.02032">
        <ele>884.69</ele>
        <time>2021-08-02T15:17:12Z</time>
      </trkpt>
      <trkpt lat="42.31362" lon="0.01996">
        <ele>888.91</ele>
        <time>2021-08-02T15:17:19Z</time>
      </trkpt>
      <trkpt lat="42.31406" lon="0.01893">
        <ele>889.79</ele>
        <time>2021-08-02T15:17:25Z</time>
      </trkpt>
      <trkpt lat="42.31411" lon="0.01854">
        <ele>889.37</ele>
        <time>2021-08-02T15:17:27Z</time>
      </trkpt>
      <trkpt lat="42.31459" lon="0.01769">
        <ele>888.07</ele>
        <time>2021-08-02T15:17:34Z</time>
      </trkpt>
      <trkpt lat="42.31483" lon="0.01759">
        <ele>888.2</ele>
        <time>2021-08-02T15:17:37Z</time>
      </trkpt>
      <trkpt lat="42.31507" lon="0.01737">
        <ele>887.49</ele>
        <time>2021-08-02T15:17:41Z</time>
      </trkpt>
      <trkpt lat="42.31585" lon="0.01707">
        <ele>887.09</ele>
        <time>2021-08-02T15:17:49Z</time>
      </trkpt>
      <trkpt lat="42.31671" lon="0.01677">
        <ele>888.87</ele>
        <time>2021-08-02T15:17:56Z</time>
      </trkpt>
      <trkpt lat="42.31706" lon="0.01607">
        <ele>890.36</ele>
        <time>2021-08-02T15:18:02Z</time>
      </trkpt>
      <trkpt lat="42.31717" lon="0.01553">
        <ele>889.88</ele>
        <time>2021-08-02T15:18:06Z</time>
      </trkpt>
      <trkpt lat="42.31735" lon="0.01516">
        <ele>888.56</ele>
        <time>2021-08-02T15:18:10Z</time>
      </trkpt>
      <trkpt lat="42.31767" lon="0.01489">
        <ele>887.78</ele>
        <time>2021-08-02T15:18:17Z</time>
      </trkpt>
      <trkpt lat="42.31776" lon="0.0148">
        <ele>887.65</ele>
        <time>2021-08-02T15:18:20Z</time>
      </trkpt>
      <trkpt lat="42.31792" lon="0.01462">
        <ele>887.67</ele>
        <time>2021-08-02T15:18:23Z</time>
      </trkpt>
      <trkpt lat="42.31827" lon="0.01454">
        <ele>888.06</ele>
        <time>2021-08-02T15:18:27Z</time>
      </trkpt>
      <trkpt lat="42.31905" lon="0.01456">
        <ele>890.59</ele>
        <time>2021-08-02T15:18:35Z</time>
      </trkpt>
      <trkpt lat="42.31972" lon="0.01476">
        <ele>891.17</ele>
        <time>2021-08-02T15:18:42Z</time>
      </trkpt>
      <trkpt lat="42.3206" lon="0.01483">
        <ele>892.24</ele>
        <time>2021-08-02T15:18:50Z</time>
      </trkpt>
      <trkpt lat="42.32095" lon="0.01467">
        <ele>892.72</ele>
        <time>2021-08-02T15:18:54Z</time>
      </trkpt>
      <trkpt lat="42.32148" lon="0.01419">
        <ele>893.6</ele>
        <time>2021-08-02T15:19:00Z</time>
      </trkpt>
      <trkpt lat="42.32255" lon="0.01392">
        <ele>896.03</ele>
        <time>2021-08-02T15:19:09Z</time>
      </trkpt>
      <trkpt lat="42.32345" lon="0.01376">
        <ele>898.41</ele>
        <time>2021-08-02T15:19:16Z</time>
      </trkpt>
      <trkpt lat="42.32382" lon="0.01364">
        <ele>898.85</ele>
        <time>2021-08-02T15:19:19Z</time>
      </trkpt>
      <trkpt lat="42.32458" lon="0.01386">
        <ele>899.62</ele>
        <time>2021-08-02T15:19:25Z</time>
      </trkpt>
      <trkpt lat="42.32534" lon="0.01439">
        <ele>901.77</ele>
        <time>2021-08-02T15:19:31Z</time>
      </trkpt>
      <trkpt lat="42.3259" lon="0.01443">
        <ele>903.13</ele>
        <time>2021-08-02T15:19:35Z</time>
      </trkpt>
      <trkpt lat="42.32661" lon="0.01419">
        <ele>904.46</ele>
        <time>2021-08-02T15:19:40Z</time>
      </trkpt>
      <trkpt lat="42.3275" lon="0.01412">
        <ele>907.4</ele>
        <time>2021-08-02T15:19:47Z</time>
      </trkpt>
      <trkpt lat="42.32828" lon="0.01381">
        <ele>911.26</ele>
        <time>2021-08-02T15:19:53Z</time>
      </trkpt>
      <trkpt lat="42.32842" lon="0.01377">
        <ele>911.96</ele>
        <time>2021-08-02T15:19:54Z</time>
      </trkpt>
      <trkpt lat="42.32916" lon="0.01372">
        <ele>914.74</ele>
        <time>2021-08-02T15:20:00Z</time>
      </trkpt>
      <trkpt lat="42.32978" lon="0.01347">
        <ele>917.07</ele>
        <time>2021-08-02T15:20:05Z</time>
      </trkpt>
      <trkpt lat="42.33024" lon="0.01308">
        <ele>918.36</ele>
        <time>2021-08-02T15:20:09Z</time>
      </trkpt>
      <trkpt lat="42.33065" lon="0.01255">
        <ele>919.54</ele>
        <time>2021-08-02T15:20:13Z</time>
      </trkpt>
      <trkpt lat="42.33115" lon="0.01219">
        <ele>920.38</ele>
        <time>2021-08-02T15:20:17Z</time>
      </trkpt>
      <trkpt lat="42.33197" lon="0.01189">
        <ele>921.73</ele>
        <time>2021-08-02T15:20:23Z</time>
      </trkpt>
      <trkpt lat="42.33249" lon="0.0113">
        <ele>922.72</ele>
        <time>2021-08-02T15:20:29Z</time>
      </trkpt>
      <trkpt lat="42.33251" lon="0.01113">
        <ele>922.88</ele>
        <time>2021-08-02T15:20:30Z</time>
      </trkpt>
      <trkpt lat="42.3326" lon="0.01028">
        <ele>924.23</ele>
        <time>2021-08-02T15:20:35Z</time>
      </trkpt>
      <trkpt lat="42.33301" lon="0.00978">
        <ele>926.02</ele>
        <time>2021-08-02T15:20:40Z</time>
      </trkpt>
      <trkpt lat="42.33312" lon="0.00967">
        <ele>926.35</ele>
        <time>2021-08-02T15:20:41Z</time>
      </trkpt>
      <trkpt lat="42.33346" lon="0.00929">
        <ele>927.8</ele>
        <time>2021-08-02T15:20:44Z</time>
      </trkpt>
      <trkpt lat="42.33385" lon="0.00906">
        <ele>929.27</ele>
        <time>2021-08-02T15:20:47Z</time>
      </trkpt>
      <trkpt lat="42.33421" lon="0.00882">
        <ele>931.32</ele>
        <time>2021-08-02T15:20:50Z</time>
      </trkpt>
      <trkpt lat="42.33457" lon="0.00863">
        <ele>933.38</ele>
        <time>2021-08-02T15:20:53Z</time>
      </trkpt>
      <trkpt lat="42.33495" lon="0.00859">
        <ele>935.32</ele>
        <time>2021-08-02T15:20:56Z</time>
      </trkpt>
      <trkpt lat="42.3356" lon="0.00828">
        <ele>939.23</ele>
        <time>2021-08-02T15:21:02Z</time>
      </trkpt>
      <trkpt lat="42.33598" lon="0.00768">
        <ele>943.22</ele>
        <time>2021-08-02T15:21:09Z</time>
      </trkpt>
      <trkpt lat="42.33616" lon="0.00699">
        <ele>947.57</ele>
        <time>2021-08-02T15:21:15Z</time>
      </trkpt>
      <trkpt lat="42.33647" lon="0.00696">
        <ele>950.71</ele>
        <time>2021-08-02T15:21:18Z</time>
      </trkpt>
      <trkpt lat="42.33661" lon="0.00671">
        <ele>954.26</ele>
        <time>2021-08-02T15:21:21Z</time>
      </trkpt>
      <trkpt lat="42.33645" lon="0.00635">
        <ele>958.14</ele>
        <time>2021-08-02T15:21:24Z</time>
      </trkpt>
      <trkpt lat="42.33635" lon="0.00605">
        <ele>960.8</ele>
        <time>2021-08-02T15:21:26Z</time>
      </trkpt>
      <trkpt lat="42.33623" lon="0.00554">
        <ele>965.4</ele>
        <time>2021-08-02T15:21:29Z</time>
      </trkpt>
      <trkpt lat="42.33617" lon="0.00537">
        <ele>966.93</ele>
        <time>2021-08-02T15:21:30Z</time>
      </trkpt>
      <trkpt lat="42.33597" lon="0.00486">
        <ele>971.76</ele>
        <time>2021-08-02T15:21:33Z</time>
      </trkpt>
      <trkpt lat="42.33595" lon="0.00448">
        <ele>975.18</ele>
        <time>2021-08-02T15:21:35Z</time>
      </trkpt>
      <trkpt lat="42.33595" lon="0.00384">
        <ele>980.65</ele>
        <time>2021-08-02T15:21:38Z</time>
      </trkpt>
      <trkpt lat="42.33606" lon="0.00321">
        <ele>986</ele>
        <time>2021-08-02T15:21:41Z</time>
      </trkpt>
      <trkpt lat="42.33625" lon="0.00291">
        <ele>989.47</ele>
        <time>2021-08-02T15:21:43Z</time>
      </trkpt>
      <trkpt lat="42.33639" lon="0.00281">
        <ele>991.19</ele>
        <time>2021-08-02T15:21:44Z</time>
      </trkpt>
      <trkpt lat="42.33693" lon="0.00222">
        <ele>997.91</ele>
        <time>2021-08-02T15:21:48Z</time>
      </trkpt>
      <trkpt lat="42.33719" lon="0.00187">
        <ele>1000.96</ele>
        <time>2021-08-02T15:21:50Z</time>
      </trkpt>
      <trkpt lat="42.33746" lon="0.00155">
        <ele>1004.01</ele>
        <time>2021-08-02T15:21:52Z</time>
      </trkpt>
      <trkpt lat="42.33776" lon="0.00126">
        <ele>1007.4</ele>
        <time>2021-08-02T15:21:54Z</time>
      </trkpt>
      <trkpt lat="42.33807" lon="0.00097">
        <ele>1011.51</ele>
        <time>2021-08-02T15:21:56Z</time>
      </trkpt>
      <trkpt lat="42.33841" lon="0.00069">
        <ele>1015.78</ele>
        <time>2021-08-02T15:21:58Z</time>
      </trkpt>
      <trkpt lat="42.33876" lon="0.0004">
        <ele>1020.14</ele>
        <time>2021-08-02T15:22:00Z</time>
      </trkpt>
      <trkpt lat="42.33912" lon="0.00011">
        <ele>1024.29</ele>
        <time>2021-08-02T15:22:02Z</time>
      </trkpt>
      <trkpt lat="42.33944" lon="-0.00017">
        <ele>1028.3</ele>
        <time>2021-08-02T15:22:04Z</time>
      </trkpt>
      <trkpt lat="42.33958" lon="-0.0003">
        <ele>1030.23</ele>
        <time>2021-08-02T15:22:05Z</time>
      </trkpt>
      <trkpt lat="42.33986" lon="-0.00076">
        <ele>1035.74</ele>
        <time>2021-08-02T15:22:08Z</time>
      </trkpt>
      <trkpt lat="42.33994" lon="-0.00119">
        <ele>1038.97</ele>
        <time>2021-08-02T15:22:10Z</time>
      </trkpt>
      <trkpt lat="42.33996" lon="-0.00141">
        <ele>1040.2</ele>
        <time>2021-08-02T15:22:11Z</time>
      </trkpt>
      <trkpt lat="42.34002" lon="-0.00181">
        <ele>1042.15</ele>
        <time>2021-08-02T15:22:13Z</time>
      </trkpt>
      <trkpt lat="42.34011" lon="-0.00225">
        <ele>1043.52</ele>
        <time>2021-08-02T15:22:16Z</time>
      </trkpt>
      <trkpt lat="42.34054" lon="-0.0025">
        <ele>1042.23</ele>
        <time>2021-08-02T15:22:20Z</time>
      </trkpt>
      <trkpt lat="42.34068" lon="-0.00247">
        <ele>1041.65</ele>
        <time>2021-08-02T15:22:21Z</time>
      </trkpt>
      <trkpt lat="42.34097" lon="-0.0024">
        <ele>1040.92</ele>
        <time>2021-08-02T15:22:23Z</time>
      </trkpt>
      <trkpt lat="42.34142" lon="-0.00243">
        <ele>1040.73</ele>
        <time>2021-08-02T15:22:26Z</time>
      </trkpt>
      <trkpt lat="42.3424" lon="-0.00225">
        <ele>1043.88</ele>
        <time>2021-08-02T15:22:33Z</time>
      </trkpt>
      <trkpt lat="42.34254" lon="-0.00228">
        <ele>1044.93</ele>
        <time>2021-08-02T15:22:34Z</time>
      </trkpt>
      <trkpt lat="42.34319" lon="-0.00243">
        <ele>1049.07</ele>
        <time>2021-08-02T15:22:38Z</time>
      </trkpt>
      <trkpt lat="42.34372" lon="-0.0025">
        <ele>1052.76</ele>
        <time>2021-08-02T15:22:41Z</time>
      </trkpt>
      <trkpt lat="42.34422" lon="-0.00261">
        <ele>1056.6</ele>
        <time>2021-08-02T15:22:44Z</time>
      </trkpt>
      <trkpt lat="42.3447" lon="-0.00277">
        <ele>1059.91</ele>
        <time>2021-08-02T15:22:47Z</time>
      </trkpt>
      <trkpt lat="42.3452" lon="-0.00291">
        <ele>1062.95</ele>
        <time>2021-08-02T15:22:50Z</time>
      </trkpt>
      <trkpt lat="42.34569" lon="-0.00306">
        <ele>1066.1</ele>
        <time>2021-08-02T15:22:53Z</time>
      </trkpt>
      <trkpt lat="42.34636" lon="-0.00321">
        <ele>1070.02</ele>
        <time>2021-08-02T15:22:57Z</time>
      </trkpt>
      <trkpt lat="42.34703" lon="-0.00339">
        <ele>1073.63</ele>
        <time>2021-08-02T15:23:01Z</time>
      </trkpt>
      <trkpt lat="42.34735" lon="-0.00348">
        <ele>1075.31</ele>
        <time>2021-08-02T15:23:03Z</time>
      </trkpt>
      <trkpt lat="42.34814" lon="-0.0035">
        <ele>1079.29</ele>
        <time>2021-08-02T15:23:08Z</time>
      </trkpt>
      <trkpt lat="42.34863" lon="-0.00345">
        <ele>1082.34</ele>
        <time>2021-08-02T15:23:11Z</time>
      </trkpt>
      <trkpt lat="42.34913" lon="-0.00341">
        <ele>1086.07</ele>
        <time>2021-08-02T15:23:14Z</time>
      </trkpt>
      <trkpt lat="42.3498" lon="-0.00345">
        <ele>1091.34</ele>
        <time>2021-08-02T15:23:18Z</time>
      </trkpt>
      <trkpt lat="42.34998" lon="-0.00341">
        <ele>1092.69</ele>
        <time>2021-08-02T15:23:19Z</time>
      </trkpt>
      <trkpt lat="42.35072" lon="-0.00321">
        <ele>1098.6</ele>
        <time>2021-08-02T15:23:23Z</time>
      </trkpt>
      <trkpt lat="42.35112" lon="-0.00315">
        <ele>1101.99</ele>
        <time>2021-08-02T15:23:25Z</time>
      </trkpt>
      <trkpt lat="42.35152" lon="-0.00313">
        <ele>1105.27</ele>
        <time>2021-08-02T15:23:27Z</time>
      </trkpt>
      <trkpt lat="42.3519" lon="-0.00313">
        <ele>1108.91</ele>
        <time>2021-08-02T15:23:29Z</time>
      </trkpt>
      <trkpt lat="42.35247" lon="-0.00311">
        <ele>1115.03</ele>
        <time>2021-08-02T15:23:32Z</time>
      </trkpt>
      <trkpt lat="42.35282" lon="-0.00326">
        <ele>1119.37</ele>
        <time>2021-08-02T15:23:34Z</time>
      </trkpt>
      <trkpt lat="42.35312" lon="-0.00344">
        <ele>1123.62</ele>
        <time>2021-08-02T15:23:36Z</time>
      </trkpt>
      <trkpt lat="42.35345" lon="-0.00388">
        <ele>1129.24</ele>
        <time>2021-08-02T15:23:39Z</time>
      </trkpt>
      <trkpt lat="42.35352" lon="-0.0041">
        <ele>1130.8</ele>
        <time>2021-08-02T15:23:40Z</time>
      </trkpt>
      <trkpt lat="42.35388" lon="-0.0051">
        <ele>1137.94</ele>
        <time>2021-08-02T15:23:45Z</time>
      </trkpt>
      <trkpt lat="42.35401" lon="-0.00568">
        <ele>1143.32</ele>
        <time>2021-08-02T15:23:49Z</time>
      </trkpt>
      <trkpt lat="42.35428" lon="-0.00606">
        <ele>1146.4</ele>
        <time>2021-08-02T15:23:53Z</time>
      </trkpt>
      <trkpt lat="42.35515" lon="-0.00635">
        <ele>1143.52</ele>
        <time>2021-08-02T15:23:59Z</time>
      </trkpt>
      <trkpt lat="42.35562" lon="-0.00651">
        <ele>1140.09</ele>
        <time>2021-08-02T15:24:02Z</time>
      </trkpt>
      <trkpt lat="42.35588" lon="-0.00656">
        <ele>1137.26</ele>
        <time>2021-08-02T15:24:04Z</time>
      </trkpt>
      <trkpt lat="42.35616" lon="-0.00674">
        <ele>1132.23</ele>
        <time>2021-08-02T15:24:07Z</time>
      </trkpt>
      <trkpt lat="42.35623" lon="-0.00697">
        <ele>1128.97</ele>
        <time>2021-08-02T15:24:09Z</time>
      </trkpt>
      <trkpt lat="42.35625" lon="-0.00731">
        <ele>1124.96</ele>
        <time>2021-08-02T15:24:12Z</time>
      </trkpt>
      <trkpt lat="42.35624" lon="-0.00738">
        <ele>1120.59</ele>
        <time>2021-08-02T15:24:17Z</time>
      </trkpt>
      <trkpt lat="42.35624" lon="-0.00739">
        <ele>1117.52</ele>
        <time>2021-08-02T15:24:24Z</time>
      </trkpt>
      <trkpt lat="42.35623" lon="-0.00744">
        <ele>1116.89</ele>
        <time>2021-08-02T15:24:29Z</time>
      </trkpt>
      <trkpt lat="42.35647" lon="-0.00758">
        <ele>1116.25</ele>
        <time>2021-08-02T15:24:34Z</time>
      </trkpt>
      <trkpt lat="42.35679" lon="-0.00752">
        <ele>1115.82</ele>
        <time>2021-08-02T15:24:37Z</time>
      </trkpt>
      <trkpt lat="42.35718" lon="-0.00727">
        <ele>1115.01</ele>
        <time>2021-08-02T15:24:41Z</time>
      </trkpt>
      <trkpt lat="42.35745" lon="-0.00738">
        <ele>1114.45</ele>
        <time>2021-08-02T15:24:45Z</time>
      </trkpt>
      <trkpt lat="42.35778" lon="-0.00825">
        <ele>1112.42</ele>
        <time>2021-08-02T15:24:53Z</time>
      </trkpt>
      <trkpt lat="42.3579" lon="-0.00842">
        <ele>1110.05</ele>
        <time>2021-08-02T15:24:57Z</time>
      </trkpt>
      <trkpt lat="42.35802" lon="-0.00837">
        <ele>1107.42</ele>
        <time>2021-08-02T15:25:01Z</time>
      </trkpt>
      <trkpt lat="42.35824" lon="-0.00831">
        <ele>1104.46</ele>
        <time>2021-08-02T15:25:11Z</time>
      </trkpt>
      <trkpt lat="42.35865" lon="-0.00833">
        <ele>1104.28</ele>
        <time>2021-08-02T15:25:17Z</time>
      </trkpt>
      <trkpt lat="42.3593" lon="-0.00808">
        <ele>1105.43</ele>
        <time>2021-08-02T15:25:23Z</time>
      </trkpt>
      <trkpt lat="42.35944" lon="-0.00803">
        <ele>1106.72</ele>
        <time>2021-08-02T15:25:29Z</time>
      </trkpt>
      <trkpt lat="42.35955" lon="-0.00799">
        <ele>1106.77</ele>
        <time>2021-08-02T15:25:33Z</time>
      </trkpt>
      <trkpt lat="42.3597" lon="-0.00805">
        <ele>1106.65</ele>
        <time>2021-08-02T15:25:37Z</time>
      </trkpt>
      <trkpt lat="42.36032" lon="-0.00842">
        <ele>1106.74</ele>
        <time>2021-08-02T15:25:48Z</time>
      </trkpt>
      <trkpt lat="42.36045" lon="-0.00849">
        <ele>1106.76</ele>
        <time>2021-08-02T15:25:50Z</time>
      </trkpt>
      <trkpt lat="42.36077" lon="-0.00853">
        <ele>1107.06</ele>
        <time>2021-08-02T15:25:58Z</time>
      </trkpt>
      <trkpt lat="42.36075" lon="-0.00853">
        <ele>1107.16</ele>
        <time>2021-08-02T15:26:02Z</time>
      </trkpt>
      <trkpt lat="42.36113" lon="-0.00859">
        <ele>1108.69</ele>
        <time>2021-08-02T15:26:14Z</time>
      </trkpt>
      <trkpt lat="42.36118" lon="-0.0087">
        <ele>1109.68</ele>
        <time>2021-08-02T15:26:18Z</time>
      </trkpt>
      <trkpt lat="42.3616" lon="-0.00926">
        <ele>1111.88</ele>
        <time>2021-08-02T15:26:27Z</time>
      </trkpt>
      <trkpt lat="42.36171" lon="-0.00957">
        <ele>1113.26</ele>
        <time>2021-08-02T15:26:35Z</time>
      </trkpt>
      <trkpt lat="42.36181" lon="-0.00971">
        <ele>1114.65</ele>
        <time>2021-08-02T15:26:48Z</time>
      </trkpt>
      <trkpt lat="42.36223" lon="-0.00978">
        <ele>1116</ele>
        <time>2021-08-02T15:26:56Z</time>
      </trkpt>
      <trkpt lat="42.36241" lon="-0.00969">
        <ele>1117.22</ele>
        <time>2021-08-02T15:27:02Z</time>
      </trkpt>
      <trkpt lat="42.36268" lon="-0.00983">
        <ele>1118.05</ele>
        <time>2021-08-02T15:27:09Z</time>
      </trkpt>
      <trkpt lat="42.36317" lon="-0.00999">
        <ele>1120.04</ele>
        <time>2021-08-02T15:27:21Z</time>
      </trkpt>
      <trkpt lat="42.36323" lon="-0.0103">
        <ele>1121.48</ele>
        <time>2021-08-02T15:27:30Z</time>
      </trkpt>
      <trkpt lat="42.36309" lon="-0.01068">
        <ele>1120.24</ele>
        <time>2021-08-02T15:27:42Z</time>
      </trkpt>
      <trkpt lat="42.36297" lon="-0.01103">
        <ele>1117.45</ele>
        <time>2021-08-02T15:27:54Z</time>
      </trkpt>
      <trkpt lat="42.36297" lon="-0.01105">
        <ele>1115.62</ele>
        <time>2021-08-02T15:28:10Z</time>
      </trkpt>
      <trkpt lat="42.36295" lon="-0.01131">
        <ele>1113.97</ele>
        <time>2021-08-02T15:28:28Z</time>
      </trkpt>
      <trkpt lat="42.363" lon="-0.01165">
        <ele>1111.75</ele>
        <time>2021-08-02T15:28:38Z</time>
      </trkpt>
      <trkpt lat="42.36322" lon="-0.01206">
        <ele>1108.68</ele>
        <time>2021-08-02T15:28:47Z</time>
      </trkpt>
      <trkpt lat="42.36326" lon="-0.0124">
        <ele>1105.28</ele>
        <time>2021-08-02T15:28:56Z</time>
      </trkpt>
      <trkpt lat="42.36327" lon="-0.01245">
        <ele>1104.99</ele>
        <time>2021-08-02T15:28:57Z</time>
      </trkpt>
      <trkpt lat="42.36342" lon="-0.01286">
        <ele>1101.71</ele>
        <time>2021-08-02T15:29:08Z</time>
      </trkpt>
      <trkpt lat="42.36345" lon="-0.01292">
        <ele>1101.49</ele>
        <time>2021-08-02T15:29:09Z</time>
      </trkpt>
      <trkpt lat="42.36351" lon="-0.01321">
        <ele>1100.45</ele>
        <time>2021-08-02T15:29:14Z</time>
      </trkpt>
      <trkpt lat="42.36353" lon="-0.01376">
        <ele>1097.67</ele>
        <time>2021-08-02T15:29:23Z</time>
      </trkpt>
      <trkpt lat="42.36355" lon="-0.0141">
        <ele>1094.77</ele>
        <time>2021-08-02T15:29:34Z</time>
      </trkpt>
      <trkpt lat="42.36365" lon="-0.01469">
        <ele>1091.67</ele>
        <time>2021-08-02T15:29:47Z</time>
      </trkpt>
      <trkpt lat="42.36382" lon="-0.01512">
        <ele>1088.59</ele>
        <time>2021-08-02T15:29:59Z</time>
      </trkpt>
      <trkpt lat="42.36398" lon="-0.01536">
        <ele>1086.21</ele>
        <time>2021-08-02T15:30:08Z</time>
      </trkpt>
      <trkpt lat="42.36406" lon="-0.01536">
        <ele>1085.83</ele>
        <time>2021-08-02T15:30:10Z</time>
      </trkpt>
      <trkpt lat="42.36437" lon="-0.01536">
        <ele>1083.95</ele>
        <time>2021-08-02T15:30:21Z</time>
      </trkpt>
      <trkpt lat="42.36445" lon="-0.01546">
        <ele>1083.28</ele>
        <time>2021-08-02T15:30:25Z</time>
      </trkpt>
      <trkpt lat="42.36448" lon="-0.01565">
        <ele>1082.42</ele>
        <time>2021-08-02T15:30:29Z</time>
      </trkpt>
      <trkpt lat="42.36444" lon="-0.01616">
        <ele>1081.05</ele>
        <time>2021-08-02T15:30:37Z</time>
      </trkpt>
      <trkpt lat="42.36437" lon="-0.01665">
        <ele>1077.9</ele>
        <time>2021-08-02T15:30:48Z</time>
      </trkpt>
      <trkpt lat="42.36437" lon="-0.01671">
        <ele>1077.71</ele>
        <time>2021-08-02T15:30:49Z</time>
      </trkpt>
      <trkpt lat="42.36441" lon="-0.01716">
        <ele>1076.1</ele>
        <time>2021-08-02T15:30:56Z</time>
      </trkpt>
      <trkpt lat="42.36434" lon="-0.01767">
        <ele>1074.86</ele>
        <time>2021-08-02T15:31:03Z</time>
      </trkpt>
      <trkpt lat="42.36434" lon="-0.01792">
        <ele>1074.3</ele>
        <time>2021-08-02T15:31:06Z</time>
      </trkpt>
      <trkpt lat="42.36422" lon="-0.01835">
        <ele>1074.1</ele>
        <time>2021-08-02T15:31:11Z</time>
      </trkpt>
      <trkpt lat="42.36398" lon="-0.01864">
        <ele>1074.02</ele>
        <time>2021-08-02T15:31:15Z</time>
      </trkpt>
      <trkpt lat="42.36384" lon="-0.01872">
        <ele>1073.84</ele>
        <time>2021-08-02T15:31:17Z</time>
      </trkpt>
      <trkpt lat="42.36346" lon="-0.01931">
        <ele>1072.85</ele>
        <time>2021-08-02T15:31:25Z</time>
      </trkpt>
      <trkpt lat="42.36332" lon="-0.01951">
        <ele>1072.45</ele>
        <time>2021-08-02T15:31:31Z</time>
      </trkpt>
      <trkpt lat="42.36329" lon="-0.01964">
        <ele>1072.01</ele>
        <time>2021-08-02T15:31:33Z</time>
      </trkpt>
      <trkpt lat="42.3632" lon="-0.01986">
        <ele>1070.41</ele>
        <time>2021-08-02T15:31:37Z</time>
      </trkpt>
      <trkpt lat="42.36318" lon="-0.02042">
        <ele>1067.06</ele>
        <time>2021-08-02T15:31:46Z</time>
      </trkpt>
      <trkpt lat="42.36321" lon="-0.0208">
        <ele>1063.84</ele>
        <time>2021-08-02T15:31:53Z</time>
      </trkpt>
      <trkpt lat="42.36326" lon="-0.02112">
        <ele>1060.74</ele>
        <time>2021-08-02T15:31:58Z</time>
      </trkpt>
      <trkpt lat="42.3633" lon="-0.02145">
        <ele>1057.11</ele>
        <time>2021-08-02T15:32:03Z</time>
      </trkpt>
      <trkpt lat="42.36331" lon="-0.02168">
        <ele>1053.52</ele>
        <time>2021-08-02T15:32:08Z</time>
      </trkpt>
      <trkpt lat="42.36331" lon="-0.02167">
        <ele>1050.21</ele>
        <time>2021-08-02T15:32:14Z</time>
      </trkpt>
      <trkpt lat="42.36333" lon="-0.02178">
        <ele>1048.06</ele>
        <time>2021-08-02T15:32:26Z</time>
      </trkpt>
      <trkpt lat="42.36349" lon="-0.02184">
        <ele>1046.85</ele>
        <time>2021-08-02T15:32:31Z</time>
      </trkpt>
      <trkpt lat="42.3638" lon="-0.02159">
        <ele>1043.54</ele>
        <time>2021-08-02T15:32:41Z</time>
      </trkpt>
      <trkpt lat="42.36386" lon="-0.02158">
        <ele>1042.75</ele>
        <time>2021-08-02T15:32:43Z</time>
      </trkpt>
      <trkpt lat="42.36391" lon="-0.02168">
        <ele>1039.15</ele>
        <time>2021-08-02T15:32:53Z</time>
      </trkpt>
      <trkpt lat="42.36405" lon="-0.02193">
        <ele>1036.8</ele>
        <time>2021-08-02T15:33:04Z</time>
      </trkpt>
      <trkpt lat="42.36422" lon="-0.02223">
        <ele>1033.67</ele>
        <time>2021-08-02T15:33:14Z</time>
      </trkpt>
      <trkpt lat="42.36445" lon="-0.02268">
        <ele>1030.48</ele>
        <time>2021-08-02T15:33:24Z</time>
      </trkpt>
      <trkpt lat="42.36462" lon="-0.02287">
        <ele>1028.9</ele>
        <time>2021-08-02T15:33:29Z</time>
      </trkpt>
      <trkpt lat="42.36477" lon="-0.02289">
        <ele>1026.59</ele>
        <time>2021-08-02T15:33:37Z</time>
      </trkpt>
      <trkpt lat="42.36485" lon="-0.02286">
        <ele>1026.03</ele>
        <time>2021-08-02T15:33:39Z</time>
      </trkpt>
      <trkpt lat="42.3652" lon="-0.02314">
        <ele>1023.39</ele>
        <time>2021-08-02T15:33:47Z</time>
      </trkpt>
      <trkpt lat="42.36521" lon="-0.02361">
        <ele>1020.57</ele>
        <time>2021-08-02T15:33:52Z</time>
      </trkpt>
      <trkpt lat="42.36538" lon="-0.02391">
        <ele>1017.91</ele>
        <time>2021-08-02T15:33:57Z</time>
      </trkpt>
      <trkpt lat="42.36538" lon="-0.02399">
        <ele>1017.49</ele>
        <time>2021-08-02T15:33:58Z</time>
      </trkpt>
      <trkpt lat="42.36537" lon="-0.02479">
        <ele>1016.73</ele>
        <time>2021-08-02T15:34:05Z</time>
      </trkpt>
      <trkpt lat="42.36531" lon="-0.02516">
        <ele>1016.65</ele>
        <time>2021-08-02T15:34:09Z</time>
      </trkpt>
      <trkpt lat="42.36525" lon="-0.02527">
        <ele>1016.17</ele>
        <time>2021-08-02T15:34:17Z</time>
      </trkpt>
      <trkpt lat="42.36522" lon="-0.02536">
        <ele>1015.96</ele>
        <time>2021-08-02T15:35:01Z</time>
      </trkpt>
      <trkpt lat="42.36518" lon="-0.02552">
        <ele>1016.12</ele>
        <time>2021-08-02T15:35:08Z</time>
      </trkpt>
      <trkpt lat="42.36517" lon="-0.0256">
        <ele>1016.15</ele>
        <time>2021-08-02T15:36:17Z</time>
      </trkpt>
      <trkpt lat="42.36517" lon="-0.0256">
        <ele>1016.3</ele>
        <time>2021-08-02T15:36:44Z</time>
      </trkpt>
      <trkpt lat="42.3653" lon="-0.02575">
        <ele>1015.68</ele>
        <time>2021-08-02T15:49:25Z</time>
      </trkpt>
      <trkpt lat="42.36528" lon="-0.02575">
        <ele>1015.68</ele>
        <time>2021-08-02T15:49:27Z</time>
      </trkpt>
      <trkpt lat="42.3652" lon="-0.02577">
        <ele>1015.68</ele>
        <time>2021-08-02T15:49:31Z</time>
      </trkpt>
      <trkpt lat="42.36514" lon="-0.02602">
        <ele>1013.83</ele>
        <time>2021-08-02T15:49:36Z</time>
      </trkpt>
      <trkpt lat="42.36489" lon="-0.02648">
        <ele>1013.07</ele>
        <time>2021-08-02T15:49:43Z</time>
      </trkpt>
      <trkpt lat="42.36471" lon="-0.02726">
        <ele>1015.03</ele>
        <time>2021-08-02T15:49:53Z</time>
      </trkpt>
      <trkpt lat="42.36471" lon="-0.02767">
        <ele>1013.02</ele>
        <time>2021-08-02T15:50:03Z</time>
      </trkpt>
      <trkpt lat="42.36473" lon="-0.0282">
        <ele>1009.86</ele>
        <time>2021-08-02T15:50:14Z</time>
      </trkpt>
      <trkpt lat="42.36475" lon="-0.02844">
        <ele>1008.22</ele>
        <time>2021-08-02T15:50:21Z</time>
      </trkpt>
      <trkpt lat="42.36474" lon="-0.02867">
        <ele>1007.77</ele>
        <time>2021-08-02T15:50:25Z</time>
      </trkpt>
      <trkpt lat="42.36496" lon="-0.02898">
        <ele>1005.82</ele>
        <time>2021-08-02T15:50:33Z</time>
      </trkpt>
      <trkpt lat="42.36524" lon="-0.02862">
        <ele>1002.19</ele>
        <time>2021-08-02T15:50:40Z</time>
      </trkpt>
      <trkpt lat="42.36533" lon="-0.02877">
        <ele>999.83</ele>
        <time>2021-08-02T15:50:44Z</time>
      </trkpt>
      <trkpt lat="42.36536" lon="-0.0292">
        <ele>998.12</ele>
        <time>2021-08-02T15:50:48Z</time>
      </trkpt>
      <trkpt lat="42.36538" lon="-0.02937">
        <ele>994.78</ele>
        <time>2021-08-02T15:50:54Z</time>
      </trkpt>
      <trkpt lat="42.36534" lon="-0.02956">
        <ele>991.62</ele>
        <time>2021-08-02T15:51:02Z</time>
      </trkpt>
      <trkpt lat="42.36526" lon="-0.02961">
        <ele>989.09</ele>
        <time>2021-08-02T15:51:19Z</time>
      </trkpt>
      <trkpt lat="42.36494" lon="-0.02975">
        <ele>990.35</ele>
        <time>2021-08-02T15:51:29Z</time>
      </trkpt>
      <trkpt lat="42.36472" lon="-0.03005">
        <ele>991.8</ele>
        <time>2021-08-02T15:51:36Z</time>
      </trkpt>
      <trkpt lat="42.36467" lon="-0.03033">
        <ele>992.87</ele>
        <time>2021-08-02T15:51:42Z</time>
      </trkpt>
      <trkpt lat="42.3647" lon="-0.03077">
        <ele>996.14</ele>
        <time>2021-08-02T15:51:54Z</time>
      </trkpt>
      <trkpt lat="42.36474" lon="-0.03091">
        <ele>997.1</ele>
      </trkpt>
      <trkpt lat="42.36497" lon="-0.03131">
        <ele>1000.1</ele>
      </trkpt>
      <trkpt lat="42.36521" lon="-0.03145">
        <ele>1001.8</ele>
      </trkpt>
      <trkpt lat="42.36549" lon="-0.03156">
        <ele>1003.7</ele>
      </trkpt>
      <trkpt lat="42.36566" lon="-0.03149">
        <ele>1004</ele>
      </trkpt>
      <trkpt lat="42.36587" lon="-0.03135">
        <ele>1003.7</ele>
      </trkpt>
      <trkpt lat="42.36608" lon="-0.03132">
        <ele>1003.6</ele>
      </trkpt>
      <trkpt lat="42.36624" lon="-0.0314">
        <ele>1004.3</ele>
      </trkpt>
      <trkpt lat="42.36645" lon="-0.03158">
        <ele>1006</ele>
      </trkpt>
      <trkpt lat="42.36657" lon="-0.03193">
        <ele>1007.6</ele>
      </trkpt>
      <trkpt lat="42.36659" lon="-0.03215">
        <ele>1008.1</ele>
      </trkpt>
      <trkpt lat="42.36655" lon="-0.03234">
        <ele>1008.6</ele>
      </trkpt>
      <trkpt lat="42.36647" lon="-0.03246">
        <ele>1008.9</ele>
      </trkpt>
      <trkpt lat="42.36631" lon="-0.03253">
        <ele>1009.1</ele>
      </trkpt>
      <trkpt lat="42.36616" lon="-0.03259">
        <ele>1009.1</ele>
      </trkpt>
      <trkpt lat="42.36623" lon="-0.03263">
        <ele>1009.2</ele>
      </trkpt>
      <trkpt lat="42.36646" lon="-0.03258">
        <ele>1009.2</ele>
      </trkpt>
      <trkpt lat="42.36651" lon="-0.03263">
        <ele>1009.4</ele>
      </trkpt>
      <trkpt lat="42.36676" lon="-0.03356">
        <ele>1013.5</ele>
      </trkpt>
      <trkpt lat="42.36689" lon="-0.03355">
        <ele>1015.2</ele>
      </trkpt>
      <trkpt lat="42.36718" lon="-0.03343">
        <ele>1018.6</ele>
      </trkpt>
      <trkpt lat="42.36745" lon="-0.0331">
        <ele>1019.2</ele>
      </trkpt>
      <trkpt lat="42.36764" lon="-0.03299">
        <ele>1020.8</ele>
      </trkpt>
      <trkpt lat="42.36807" lon="-0.03255">
        <ele>1020.9</ele>
      </trkpt>
      <trkpt lat="42.36869" lon="-0.03214">
        <ele>1024.5</ele>
      </trkpt>
      <trkpt lat="42.36888" lon="-0.03182">
        <ele>1023.2</ele>
      </trkpt>
      <trkpt lat="42.36912" lon="-0.03146">
        <ele>1021</ele>
      </trkpt>
      <trkpt lat="42.36932" lon="-0.03142">
        <ele>1021.5</ele>
      </trkpt>
      <trkpt lat="42.36949" lon="-0.0315">
        <ele>1023.4</ele>
      </trkpt>
      <trkpt lat="42.36992" lon="-0.03152">
        <ele>1025.4</ele>
      </trkpt>
      <trkpt lat="42.37004" lon="-0.03151">
        <ele>1025.8</ele>
      </trkpt>
      <trkpt lat="42.3701" lon="-0.03147">
        <ele>1025.4</ele>
      </trkpt>
      <trkpt lat="42.37012" lon="-0.0314">
        <ele>1024.4</ele>
      </trkpt>
      <trkpt lat="42.37009" lon="-0.03129">
        <ele>1022.5</ele>
      </trkpt>
      <trkpt lat="42.37008" lon="-0.03117">
        <ele>1020.5</ele>
      </trkpt>
      <trkpt lat="42.37001" lon="-0.03089">
        <ele>1015.9</ele>
      </trkpt>
      <trkpt lat="42.37002" lon="-0.03082">
        <ele>1014.8</ele>
      </trkpt>
      <trkpt lat="42.37007" lon="-0.03078">
        <ele>1014.1</ele>
      </trkpt>
      <trkpt lat="42.37013" lon="-0.03079">
        <ele>1014.3</ele>
      </trkpt>
      <trkpt lat="42.37023" lon="-0.03086">
        <ele>1015.7</ele>
      </trkpt>
      <trkpt lat="42.37035" lon="-0.0309">
        <ele>1016.6</ele>
      </trkpt>
      <trkpt lat="42.37049" lon="-0.03091">
        <ele>1017</ele>
      </trkpt>
      <trkpt lat="42.37068" lon="-0.03088">
        <ele>1016.7</ele>
      </trkpt>
      <trkpt lat="42.37098" lon="-0.03104">
        <ele>1021.3</ele>
      </trkpt>
      <trkpt lat="42.37106" lon="-0.03112">
        <ele>1023.3</ele>
      </trkpt>
      <trkpt lat="42.37116" lon="-0.03131">
        <ele>1027.1</ele>
      </trkpt>
      <trkpt lat="42.37122" lon="-0.03135">
        <ele>1028</ele>
      </trkpt>
      <trkpt lat="42.37145" lon="-0.0314">
        <ele>1029.5</ele>
      </trkpt>
      <trkpt lat="42.37152" lon="-0.03144">
        <ele>1030.2</ele>
      </trkpt>
      <trkpt lat="42.37157" lon="-0.03144">
        <ele>1030.3</ele>
      </trkpt>
      <trkpt lat="42.3716" lon="-0.03139">
        <ele>1029.8</ele>
      </trkpt>
      <trkpt lat="42.37155" lon="-0.03112">
        <ele>1026.4</ele>
      </trkpt>
      <trkpt lat="42.37154" lon="-0.03075">
        <ele>1021.9</ele>
      </trkpt>
      <trkpt lat="42.37147" lon="-0.03029">
        <ele>1016</ele>
      </trkpt>
      <trkpt lat="42.37152" lon="-0.03011">
        <ele>1015</ele>
      </trkpt>
      <trkpt lat="42.3716" lon="-0.03003">
        <ele>1015.8</ele>
      </trkpt>
      <trkpt lat="42.37174" lon="-0.02994">
        <ele>1017.7</ele>
      </trkpt>
      <trkpt lat="42.37185" lon="-0.02984">
        <ele>1018.5</ele>
      </trkpt>
      <trkpt lat="42.37197" lon="-0.02979">
        <ele>1020.4</ele>
      </trkpt>
      <trkpt lat="42.37207" lon="-0.0297">
        <ele>1021.2</ele>
      </trkpt>
      <trkpt lat="42.3722" lon="-0.02915">
        <ele>1015</ele>
      </trkpt>
      <trkpt lat="42.37243" lon="-0.02904">
        <ele>1019</ele>
      </trkpt>
      <trkpt lat="42.37257" lon="-0.02909">
        <ele>1021.6</ele>
      </trkpt>
      <trkpt lat="42.37285" lon="-0.02931">
        <ele>1026.1</ele>
      </trkpt>
      <trkpt lat="42.37309" lon="-0.02937">
        <ele>1028.1</ele>
      </trkpt>
      <trkpt lat="42.37338" lon="-0.02948">
        <ele>1031.2</ele>
      </trkpt>
      <trkpt lat="42.37351" lon="-0.02942">
        <ele>1033.1</ele>
      </trkpt>
      <trkpt lat="42.37357" lon="-0.02927">
        <ele>1033</ele>
      </trkpt>
      <trkpt lat="42.37368" lon="-0.02867">
        <ele>1033.3</ele>
      </trkpt>
      <trkpt lat="42.37373" lon="-0.02848">
        <ele>1033.3</ele>
      </trkpt>
      <trkpt lat="42.37383" lon="-0.02839">
        <ele>1033.9</ele>
      </trkpt>
      <trkpt lat="42.37393" lon="-0.02839">
        <ele>1034.7</ele>
      </trkpt>
      <trkpt lat="42.37397" lon="-0.02846">
        <ele>1035.5</ele>
      </trkpt>
      <trkpt lat="42.37408" lon="-0.02852">
        <ele>1037.1</ele>
      </trkpt>
      <trkpt lat="42.37426" lon="-0.02845">
        <ele>1036.3</ele>
      </trkpt>
      <trkpt lat="42.37458" lon="-0.02841">
        <ele>1032.1</ele>
      </trkpt>
      <trkpt lat="42.37512" lon="-0.02861">
        <ele>1032.7</ele>
      </trkpt>
      <trkpt lat="42.37534" lon="-0.02873">
        <ele>1035.4</ele>
      </trkpt>
      <trkpt lat="42.37568" lon="-0.02873">
        <ele>1034</ele>
      </trkpt>
      <trkpt lat="42.3761" lon="-0.02861">
        <ele>1033.4</ele>
      </trkpt>
      <trkpt lat="42.37626" lon="-0.0285">
        <ele>1032.4</ele>
      </trkpt>
      <trkpt lat="42.37648" lon="-0.02823">
        <ele>1029.2</ele>
      </trkpt>
      <trkpt lat="42.37657" lon="-0.028">
        <ele>1026.7</ele>
      </trkpt>
      <trkpt lat="42.37665" lon="-0.02792">
        <ele>1026.3</ele>
      </trkpt>
      <trkpt lat="42.37676" lon="-0.02771">
        <ele>1024.9</ele>
      </trkpt>
      <trkpt lat="42.37684" lon="-0.0274">
        <ele>1022.7</ele>
      </trkpt>
      <trkpt lat="42.37687" lon="-0.02711">
        <ele>1022.4</ele>
      </trkpt>
      <trkpt lat="42.37709" lon="-0.02673">
        <ele>1024.4</ele>
      </trkpt>
      <trkpt lat="42.37723" lon="-0.02633">
        <ele>1025.2</ele>
      </trkpt>
      <trkpt lat="42.37736" lon="-0.02619">
        <ele>1026.5</ele>
      </trkpt>
      <trkpt lat="42.3775" lon="-0.02612">
        <ele>1028</ele>
      </trkpt>
      <trkpt lat="42.37768" lon="-0.02597">
        <ele>1030.6</ele>
      </trkpt>
      <trkpt lat="42.37788" lon="-0.02578">
        <ele>1032.8</ele>
      </trkpt>
      <trkpt lat="42.37802" lon="-0.02561">
        <ele>1032.7</ele>
      </trkpt>
      <trkpt lat="42.37823" lon="-0.02553">
        <ele>1033.8</ele>
      </trkpt>
      <trkpt lat="42.3783" lon="-0.02553">
        <ele>1034.5</ele>
      </trkpt>
      <trkpt lat="42.37834" lon="-0.02556">
        <ele>1035.4</ele>
      </trkpt>
      <trkpt lat="42.37879" lon="-0.02573">
        <ele>1036.4</ele>
      </trkpt>
      <trkpt lat="42.37883" lon="-0.02578">
        <ele>1037</ele>
      </trkpt>
      <trkpt lat="42.37894" lon="-0.02582">
        <ele>1037.1</ele>
      </trkpt>
      <trkpt lat="42.37914" lon="-0.02587">
        <ele>1037</ele>
      </trkpt>
      <trkpt lat="42.37934" lon="-0.02611">
        <ele>1040.7</ele>
      </trkpt>
      <trkpt lat="42.37944" lon="-0.02629">
        <ele>1044</ele>
      </trkpt>
      <trkpt lat="42.37952" lon="-0.02634">
        <ele>1044.4</ele>
      </trkpt>
      <trkpt lat="42.37966" lon="-0.02637">
        <ele>1043.7</ele>
      </trkpt>
      <trkpt lat="42.37975" lon="-0.02635">
        <ele>1042.3</ele>
      </trkpt>
      <trkpt lat="42.37989" lon="-0.02643">
        <ele>1042.9</ele>
      </trkpt>
      <trkpt lat="42.38023" lon="-0.02648">
        <ele>1041.4</ele>
      </trkpt>
      <trkpt lat="42.38039" lon="-0.02667">
        <ele>1044.4</ele>
      </trkpt>
      <trkpt lat="42.38045" lon="-0.02669">
        <ele>1044.3</ele>
      </trkpt>
      <trkpt lat="42.38055" lon="-0.02678">
        <ele>1045.8</ele>
      </trkpt>
      <trkpt lat="42.38059" lon="-0.0269">
        <ele>1048.6</ele>
      </trkpt>
      <trkpt lat="42.38068" lon="-0.02699">
        <ele>1049.8</ele>
      </trkpt>
      <trkpt lat="42.38089" lon="-0.02703">
        <ele>1047.8</ele>
      </trkpt>
      <trkpt lat="42.38109" lon="-0.02715">
        <ele>1047</ele>
      </trkpt>
      <trkpt lat="42.38138" lon="-0.02727">
        <ele>1043.8</ele>
      </trkpt>
      <trkpt lat="42.38153" lon="-0.02742">
        <ele>1043</ele>
      </trkpt>
      <trkpt lat="42.3816" lon="-0.02767">
        <ele>1043.8</ele>
      </trkpt>
      <trkpt lat="42.38169" lon="-0.02781">
        <ele>1043.1</ele>
      </trkpt>
      <trkpt lat="42.38173" lon="-0.02802">
        <ele>1044.1</ele>
      </trkpt>
      <trkpt lat="42.38179" lon="-0.02865">
        <ele>1049.8</ele>
      </trkpt>
      <trkpt lat="42.38182" lon="-0.02879">
        <ele>1051.2</ele>
      </trkpt>
      <trkpt lat="42.38187" lon="-0.02894">
        <ele>1052.3</ele>
      </trkpt>
      <trkpt lat="42.38193" lon="-0.02902">
        <ele>1052.1</ele>
      </trkpt>
      <trkpt lat="42.38199" lon="-0.02905">
        <ele>1051.2</ele>
      </trkpt>
      <trkpt lat="42.38221" lon="-0.02942">
        <ele>1051.2</ele>
      </trkpt>
      <trkpt lat="42.38225" lon="-0.02959">
        <ele>1052.6</ele>
      </trkpt>
      <trkpt lat="42.38226" lon="-0.0297">
        <ele>1054</ele>
      </trkpt>
      <trkpt lat="42.38222" lon="-0.02982">
        <ele>1056.5</ele>
      </trkpt>
      <trkpt lat="42.38218" lon="-0.02992">
        <ele>1058.8</ele>
      </trkpt>
      <trkpt lat="42.38215" lon="-0.03006">
        <ele>1061.1</ele>
      </trkpt>
      <trkpt lat="42.38217" lon="-0.03015">
        <ele>1061.5</ele>
      </trkpt>
      <trkpt lat="42.38216" lon="-0.03034">
        <ele>1063.4</ele>
      </trkpt>
      <trkpt lat="42.38217" lon="-0.03051">
        <ele>1064.8</ele>
      </trkpt>
      <trkpt lat="42.38206" lon="-0.03093">
        <ele>1069.9</ele>
      </trkpt>
      <trkpt lat="42.38207" lon="-0.03098">
        <ele>1070.1</ele>
      </trkpt>
      <trkpt lat="42.3821" lon="-0.03102">
        <ele>1070</ele>
      </trkpt>
      <trkpt lat="42.38212" lon="-0.03121">
        <ele>1071.2</ele>
      </trkpt>
      <trkpt lat="42.3821" lon="-0.03134">
        <ele>1072.2</ele>
      </trkpt>
      <trkpt lat="42.38208" lon="-0.03158">
        <ele>1073.9</ele>
      </trkpt>
      <trkpt lat="42.38204" lon="-0.03172">
        <ele>1074.7</ele>
      </trkpt>
      <trkpt lat="42.38194" lon="-0.0319">
        <ele>1075</ele>
      </trkpt>
      <trkpt lat="42.38174" lon="-0.03212">
        <ele>1074.3</ele>
      </trkpt>
      <trkpt lat="42.38154" lon="-0.03227">
        <ele>1075.4</ele>
      </trkpt>
      <trkpt lat="42.3815" lon="-0.03237">
        <ele>1075.5</ele>
      </trkpt>
      <trkpt lat="42.38146" lon="-0.03248">
        <ele>1075.6</ele>
      </trkpt>
      <trkpt lat="42.38146" lon="-0.03261">
        <ele>1076.2</ele>
      </trkpt>
      <trkpt lat="42.38152" lon="-0.03267">
        <ele>1076.1</ele>
      </trkpt>
      <trkpt lat="42.38184" lon="-0.03274">
        <ele>1076.8</ele>
      </trkpt>
      <trkpt lat="42.38195" lon="-0.03279">
        <ele>1078.1</ele>
      </trkpt>
      <trkpt lat="42.38202" lon="-0.03287">
        <ele>1079.2</ele>
      </trkpt>
      <trkpt lat="42.38208" lon="-0.03299">
        <ele>1080.4</ele>
      </trkpt>
      <trkpt lat="42.38213" lon="-0.03324">
        <ele>1082.1</ele>
      </trkpt>
      <trkpt lat="42.38217" lon="-0.03333">
        <ele>1082.8</ele>
      </trkpt>
      <trkpt lat="42.38221" lon="-0.03336">
        <ele>1083.2</ele>
      </trkpt>
      <trkpt lat="42.38226" lon="-0.03334">
        <ele>1083.2</ele>
      </trkpt>
      <trkpt lat="42.38237" lon="-0.03298">
        <ele>1082.3</ele>
      </trkpt>
      <trkpt lat="42.38242" lon="-0.0326">
        <ele>1081.4</ele>
      </trkpt>
      <trkpt lat="42.38247" lon="-0.03244">
        <ele>1081.1</ele>
      </trkpt>
      <trkpt lat="42.38253" lon="-0.03229">
        <ele>1080.3</ele>
      </trkpt>
      <trkpt lat="42.38272" lon="-0.03203">
        <ele>1080</ele>
      </trkpt>
      <trkpt lat="42.3828" lon="-0.03185">
        <ele>1079.6</ele>
      </trkpt>
      <trkpt lat="42.38287" lon="-0.0315">
        <ele>1077.1</ele>
      </trkpt>
      <trkpt lat="42.38315" lon="-0.03105">
        <ele>1075.2</ele>
      </trkpt>
      <trkpt lat="42.3832" lon="-0.03103">
        <ele>1075.7</ele>
      </trkpt>
      <trkpt lat="42.38326" lon="-0.03103">
        <ele>1076.5</ele>
      </trkpt>
      <trkpt lat="42.38331" lon="-0.03109">
        <ele>1078.1</ele>
      </trkpt>
      <trkpt lat="42.38332" lon="-0.03117">
        <ele>1079.3</ele>
      </trkpt>
      <trkpt lat="42.38336" lon="-0.03127">
        <ele>1080.6</ele>
      </trkpt>
      <trkpt lat="42.38343" lon="-0.03131">
        <ele>1080.7</ele>
      </trkpt>
      <trkpt lat="42.38352" lon="-0.03141">
        <ele>1081.3</ele>
      </trkpt>
      <trkpt lat="42.38352" lon="-0.03158">
        <ele>1083.2</ele>
      </trkpt>
      <trkpt lat="42.3835" lon="-0.03173">
        <ele>1084.5</ele>
      </trkpt>
      <trkpt lat="42.38325" lon="-0.03217">
        <ele>1086.4</ele>
      </trkpt>
      <trkpt lat="42.38316" lon="-0.03228">
        <ele>1085.9</ele>
      </trkpt>
      <trkpt lat="42.38306" lon="-0.03246">
        <ele>1085.8</ele>
      </trkpt>
      <trkpt lat="42.38303" lon="-0.03267">
        <ele>1086.6</ele>
      </trkpt>
      <trkpt lat="42.38305" lon="-0.03294">
        <ele>1088.1</ele>
      </trkpt>
      <trkpt lat="42.38308" lon="-0.03313">
        <ele>1089.3</ele>
      </trkpt>
      <trkpt lat="42.38313" lon="-0.03317">
        <ele>1090</ele>
      </trkpt>
      <trkpt lat="42.38326" lon="-0.03321">
        <ele>1091.5</ele>
      </trkpt>
      <trkpt lat="42.38335" lon="-0.03321">
        <ele>1092</ele>
      </trkpt>
      <trkpt lat="42.38344" lon="-0.03325">
        <ele>1090.9</ele>
      </trkpt>
      <trkpt lat="42.38346" lon="-0.03329">
        <ele>1090.9</ele>
      </trkpt>
      <trkpt lat="42.38344" lon="-0.03336">
        <ele>1091.7</ele>
      </trkpt>
      <trkpt lat="42.38352" lon="-0.03376">
        <ele>1094.1</ele>
      </trkpt>
      <trkpt lat="42.38349" lon="-0.03395">
        <ele>1096.2</ele>
      </trkpt>
      <trkpt lat="42.38348" lon="-0.03439">
        <ele>1100.2</ele>
      </trkpt>
      <trkpt lat="42.38367" lon="-0.03502">
        <ele>1102.9</ele>
      </trkpt>
      <trkpt lat="42.38381" lon="-0.03521">
        <ele>1101.8</ele>
      </trkpt>
      <trkpt lat="42.38384" lon="-0.03528">
        <ele>1101.7</ele>
      </trkpt>
      <trkpt lat="42.3839" lon="-0.0357">
        <ele>1103.1</ele>
      </trkpt>
      <trkpt lat="42.38392" lon="-0.03604">
        <ele>1108.5</ele>
      </trkpt>
      <trkpt lat="42.38396" lon="-0.0361">
        <ele>1109.2</ele>
      </trkpt>
      <trkpt lat="42.38396" lon="-0.03614">
        <ele>1110.2</ele>
      </trkpt>
      <trkpt lat="42.38393" lon="-0.03618">
        <ele>1111.7</ele>
      </trkpt>
      <trkpt lat="42.38393" lon="-0.0362">
        <ele>1112.2</ele>
      </trkpt>
      <trkpt lat="42.38394" lon="-0.03621">
        <ele>1112.2</ele>
      </trkpt>
      <trkpt lat="42.38408" lon="-0.03632">
        <ele>1112.3</ele>
      </trkpt>
      <trkpt lat="42.38421" lon="-0.03655">
        <ele>1115.4</ele>
      </trkpt>
      <trkpt lat="42.3846" lon="-0.03673">
        <ele>1112.5</ele>
      </trkpt>
      <trkpt lat="42.38468" lon="-0.03682">
        <ele>1112.8</ele>
      </trkpt>
      <trkpt lat="42.3848" lon="-0.03716">
        <ele>1117.2</ele>
      </trkpt>
      <trkpt lat="42.38489" lon="-0.03727">
        <ele>1117.7</ele>
      </trkpt>
      <trkpt lat="42.38497" lon="-0.03742">
        <ele>1119</ele>
      </trkpt>
      <trkpt lat="42.38505" lon="-0.03753">
        <ele>1121.1</ele>
      </trkpt>
      <trkpt lat="42.38511" lon="-0.03763">
        <ele>1124</ele>
      </trkpt>
      <trkpt lat="42.38517" lon="-0.03781">
        <ele>1129.1</ele>
      </trkpt>
      <trkpt lat="42.38522" lon="-0.03786">
        <ele>1130.8</ele>
      </trkpt>
      <trkpt lat="42.38528" lon="-0.03786">
        <ele>1131.3</ele>
      </trkpt>
      <trkpt lat="42.38542" lon="-0.03777">
        <ele>1130</ele>
      </trkpt>
      <trkpt lat="42.38569" lon="-0.03763">
        <ele>1127.9</ele>
      </trkpt>
      <trkpt lat="42.3858" lon="-0.03759">
        <ele>1127.5</ele>
      </trkpt>
      <trkpt lat="42.38591" lon="-0.03763">
        <ele>1129.6</ele>
      </trkpt>
      <trkpt lat="42.38622" lon="-0.0376">
        <ele>1131.7</ele>
      </trkpt>
      <trkpt lat="42.38644" lon="-0.03745">
        <ele>1131</ele>
      </trkpt>
      <trkpt lat="42.38659" lon="-0.0375">
        <ele>1133.2</ele>
      </trkpt>
      <trkpt lat="42.38669" lon="-0.0376">
        <ele>1135.7</ele>
      </trkpt>
      <trkpt lat="42.38676" lon="-0.03774">
        <ele>1137.5</ele>
      </trkpt>
      <trkpt lat="42.38701" lon="-0.03803">
        <ele>1139</ele>
      </trkpt>
      <trkpt lat="42.38723" lon="-0.03832">
        <ele>1139.7</ele>
      </trkpt>
      <trkpt lat="42.38728" lon="-0.03847">
        <ele>1139.9</ele>
      </trkpt>
      <trkpt lat="42.38726" lon="-0.03861">
        <ele>1141.2</ele>
      </trkpt>
      <trkpt lat="42.38715" lon="-0.03903">
        <ele>1146.8</ele>
      </trkpt>
      <trkpt lat="42.38716" lon="-0.03925">
        <ele>1148</ele>
      </trkpt>
      <trkpt lat="42.38726" lon="-0.03933">
        <ele>1145.9</ele>
      </trkpt>
      <trkpt lat="42.38754" lon="-0.03938">
        <ele>1139.6</ele>
      </trkpt>
      <trkpt lat="42.38761" lon="-0.03943">
        <ele>1139</ele>
      </trkpt>
      <trkpt lat="42.38763" lon="-0.03955">
        <ele>1139.4</ele>
      </trkpt>
      <trkpt lat="42.38758" lon="-0.03973">
        <ele>1140.9</ele>
      </trkpt>
      <trkpt lat="42.38757" lon="-0.03995">
        <ele>1142.1</ele>
      </trkpt>
      <trkpt lat="42.38774" lon="-0.04085">
        <ele>1157</ele>
      </trkpt>
      <trkpt lat="42.38796" lon="-0.04121">
        <ele>1164.2</ele>
      </trkpt>
      <trkpt lat="42.38819" lon="-0.04136">
        <ele>1164.8</ele>
      </trkpt>
      <trkpt lat="42.38844" lon="-0.04128">
        <ele>1158.5</ele>
      </trkpt>
      <trkpt lat="42.38855" lon="-0.0413">
        <ele>1157.2</ele>
      </trkpt>
      <trkpt lat="42.38858" lon="-0.04137">
        <ele>1158.6</ele>
      </trkpt>
      <trkpt lat="42.38863" lon="-0.04183">
        <ele>1171.5</ele>
      </trkpt>
      <trkpt lat="42.38868" lon="-0.04199">
        <ele>1175.9</ele>
      </trkpt>
      <trkpt lat="42.38868" lon="-0.04211">
        <ele>1179.7</ele>
      </trkpt>
      <trkpt lat="42.38873" lon="-0.04228">
        <ele>1184.6</ele>
      </trkpt>
      <trkpt lat="42.38881" lon="-0.04241">
        <ele>1188</ele>
      </trkpt>
      <trkpt lat="42.38888" lon="-0.04244">
        <ele>1188.4</ele>
      </trkpt>
      <trkpt lat="42.38909" lon="-0.0424">
        <ele>1185.1</ele>
      </trkpt>
      <trkpt lat="42.38923" lon="-0.0423">
        <ele>1181.8</ele>
      </trkpt>
      <trkpt lat="42.38955" lon="-0.04216">
        <ele>1181.9</ele>
      </trkpt>
      <trkpt lat="42.38977" lon="-0.042">
        <ele>1179.8</ele>
      </trkpt>
      <trkpt lat="42.38993" lon="-0.04183">
        <ele>1176.5</ele>
      </trkpt>
      <trkpt lat="42.39017" lon="-0.0418">
        <ele>1177.5</ele>
      </trkpt>
      <trkpt lat="42.39122" lon="-0.0419">
        <ele>1186.6</ele>
      </trkpt>
      <trkpt lat="42.39143" lon="-0.04186">
        <ele>1186</ele>
      </trkpt>
      <trkpt lat="42.39157" lon="-0.04186">
        <ele>1186.7</ele>
      </trkpt>
      <trkpt lat="42.3918" lon="-0.04181">
        <ele>1186.2</ele>
      </trkpt>
      <trkpt lat="42.3919" lon="-0.04185">
        <ele>1188.8</ele>
      </trkpt>
      <trkpt lat="42.39203" lon="-0.04186">
        <ele>1190.4</ele>
      </trkpt>
      <trkpt lat="42.39213" lon="-0.04181">
        <ele>1189.1</ele>
      </trkpt>
      <trkpt lat="42.39268" lon="-0.04175">
        <ele>1190.4</ele>
      </trkpt>
      <trkpt lat="42.39274" lon="-0.04169">
        <ele>1188.1</ele>
      </trkpt>
      <trkpt lat="42.39309" lon="-0.04158">
        <ele>1185.3</ele>
      </trkpt>
      <trkpt lat="42.39313" lon="-0.04153">
        <ele>1183.5</ele>
      </trkpt>
      <trkpt lat="42.39333" lon="-0.04142">
        <ele>1180.2</ele>
      </trkpt>
      <trkpt lat="42.39341" lon="-0.0414">
        <ele>1179</ele>
      </trkpt>
      <trkpt lat="42.39349" lon="-0.04142">
        <ele>1179.3</ele>
      </trkpt>
      <trkpt lat="42.39357" lon="-0.04146">
        <ele>1180.3</ele>
      </trkpt>
      <trkpt lat="42.39373" lon="-0.04159">
        <ele>1183.9</ele>
      </trkpt>
      <trkpt lat="42.39385" lon="-0.04163">
        <ele>1184.4</ele>
      </trkpt>
      <trkpt lat="42.39391" lon="-0.04168">
        <ele>1185.6</ele>
      </trkpt>
      <trkpt lat="42.394" lon="-0.0417">
        <ele>1185.4</ele>
      </trkpt>
      <trkpt lat="42.39404" lon="-0.04168">
        <ele>1184.4</ele>
      </trkpt>
      <trkpt lat="42.3941" lon="-0.04171">
        <ele>1184.8</ele>
      </trkpt>
      <trkpt lat="42.39422" lon="-0.04186">
        <ele>1187</ele>
      </trkpt>
      <trkpt lat="42.39429" lon="-0.04191">
        <ele>1186.7</ele>
      </trkpt>
      <trkpt lat="42.39441" lon="-0.04209">
        <ele>1188.4</ele>
      </trkpt>
      <trkpt lat="42.39449" lon="-0.04216">
        <ele>1188.1</ele>
      </trkpt>
      <trkpt lat="42.39465" lon="-0.04225">
        <ele>1186.1</ele>
      </trkpt>
      <trkpt lat="42.39486" lon="-0.0426">
        <ele>1187.6</ele>
      </trkpt>
      <trkpt lat="42.39498" lon="-0.04273">
        <ele>1185.9</ele>
      </trkpt>
      <trkpt lat="42.39505" lon="-0.04278">
        <ele>1185</ele>
      </trkpt>
      <trkpt lat="42.39513" lon="-0.04289">
        <ele>1184.8</ele>
      </trkpt>
      <trkpt lat="42.39514" lon="-0.04293">
        <ele>1185.1</ele>
      </trkpt>
      <trkpt lat="42.39534" lon="-0.04346">
        <ele>1185.5</ele>
      </trkpt>
      <trkpt lat="42.3954" lon="-0.04381">
        <ele>1185.2</ele>
      </trkpt>
      <trkpt lat="42.39543" lon="-0.04422">
        <ele>1185.8</ele>
      </trkpt>
      <trkpt lat="42.39546" lon="-0.04438">
        <ele>1185.7</ele>
      </trkpt>
      <trkpt lat="42.39549" lon="-0.04449">
        <ele>1185.5</ele>
      </trkpt>
      <trkpt lat="42.39555" lon="-0.0446">
        <ele>1184.6</ele>
      </trkpt>
      <trkpt lat="42.3956" lon="-0.04466">
        <ele>1183.7</ele>
      </trkpt>
      <trkpt lat="42.39573" lon="-0.04499">
        <ele>1183</ele>
      </trkpt>
      <trkpt lat="42.39576" lon="-0.04502">
        <ele>1182.7</ele>
      </trkpt>
      <trkpt lat="42.39588" lon="-0.04507">
        <ele>1181.4</ele>
      </trkpt>
      <trkpt lat="42.39598" lon="-0.04507">
        <ele>1180.9</ele>
      </trkpt>
      <trkpt lat="42.39604" lon="-0.04504">
        <ele>1180.4</ele>
      </trkpt>
      <trkpt lat="42.39616" lon="-0.04503">
        <ele>1179.7</ele>
      </trkpt>
      <trkpt lat="42.39651" lon="-0.04494">
        <ele>1177.8</ele>
      </trkpt>
      <trkpt lat="42.39662" lon="-0.04488">
        <ele>1177.6</ele>
      </trkpt>
      <trkpt lat="42.39665" lon="-0.04484">
        <ele>1177.6</ele>
      </trkpt>
      <trkpt lat="42.39676" lon="-0.0448">
        <ele>1178.1</ele>
      </trkpt>
      <trkpt lat="42.39704" lon="-0.04482">
        <ele>1178.9</ele>
      </trkpt>
      <trkpt lat="42.39733" lon="-0.04479">
        <ele>1180.2</ele>
      </trkpt>
      <trkpt lat="42.39772" lon="-0.04502">
        <ele>1181.6</ele>
      </trkpt>
      <trkpt lat="42.39801" lon="-0.04517">
        <ele>1184.4</ele>
      </trkpt>
      <trkpt lat="42.39819" lon="-0.04522">
        <ele>1186</ele>
      </trkpt>
      <trkpt lat="42.39845" lon="-0.0455">
        <ele>1187.3</ele>
      </trkpt>
      <trkpt lat="42.39872" lon="-0.04558">
        <ele>1191</ele>
      </trkpt>
      <trkpt lat="42.39908" lon="-0.04579">
        <ele>1194.3</ele>
      </trkpt>
      <trkpt lat="42.39941" lon="-0.04607">
        <ele>1196.7</ele>
      </trkpt>
      <trkpt lat="42.39947" lon="-0.04614">
        <ele>1197</ele>
      </trkpt>
      <trkpt lat="42.39955" lon="-0.04633">
        <ele>1196.7</ele>
      </trkpt>
      <trkpt lat="42.39961" lon="-0.0464">
        <ele>1196.9</ele>
      </trkpt>
      <trkpt lat="42.39968" lon="-0.04646">
        <ele>1197.4</ele>
      </trkpt>
      <trkpt lat="42.39978" lon="-0.04644">
        <ele>1198.9</ele>
      </trkpt>
      <trkpt lat="42.39982" lon="-0.04641">
        <ele>1199.7</ele>
      </trkpt>
      <trkpt lat="42.3994" lon="-0.04591">
        <ele>1197.8</ele>
      </trkpt>
      <trkpt lat="42.39982" lon="-0.04641">
        <ele>1199.7</ele>
      </trkpt>
      <trkpt lat="42.3999" lon="-0.04646">
        <ele>1200.4</ele>
      </trkpt>
      <trkpt lat="42.40049" lon="-0.04676">
        <ele>1205.3</ele>
      </trkpt>
      <trkpt lat="42.40073" lon="-0.04698">
        <ele>1206.6</ele>
      </trkpt>
      <trkpt lat="42.40084" lon="-0.04712">
        <ele>1206.8</ele>
      </trkpt>
      <trkpt lat="42.40093" lon="-0.04733">
        <ele>1206.7</ele>
      </trkpt>
      <trkpt lat="42.40095" lon="-0.04743">
        <ele>1206.1</ele>
      </trkpt>
      <trkpt lat="42.40096" lon="-0.04772">
        <ele>1205.6</ele>
      </trkpt>
      <trkpt lat="42.40098" lon="-0.04789">
        <ele>1205.9</ele>
      </trkpt>
      <trkpt lat="42.40102" lon="-0.04797">
        <ele>1206.3</ele>
      </trkpt>
      <trkpt lat="42.40129" lon="-0.04837">
        <ele>1209.5</ele>
      </trkpt>
      <trkpt lat="42.40135" lon="-0.0485">
        <ele>1210.1</ele>
      </trkpt>
      <trkpt lat="42.40137" lon="-0.0487">
        <ele>1210.1</ele>
      </trkpt>
      <trkpt lat="42.40134" lon="-0.04886">
        <ele>1209.7</ele>
      </trkpt>
      <trkpt lat="42.40129" lon="-0.04897">
        <ele>1209.3</ele>
      </trkpt>
      <trkpt lat="42.40122" lon="-0.04907">
        <ele>1208.8</ele>
      </trkpt>
      <trkpt lat="42.40016" lon="-0.04998">
        <ele>1211.5</ele>
      </trkpt>
      <trkpt lat="42.40007" lon="-0.0501">
        <ele>1211.4</ele>
      </trkpt>
      <trkpt lat="42.40002" lon="-0.0502">
        <ele>1211.3</ele>
      </trkpt>
      <trkpt lat="42.4" lon="-0.05029">
        <ele>1211.3</ele>
      </trkpt>
      <trkpt lat="42.4" lon="-0.05041">
        <ele>1211.5</ele>
      </trkpt>
      <trkpt lat="42.40002" lon="-0.05052">
        <ele>1211.7</ele>
      </trkpt>
      <trkpt lat="42.40014" lon="-0.05081">
        <ele>1213</ele>
      </trkpt>
      <trkpt lat="42.40021" lon="-0.05095">
        <ele>1213</ele>
      </trkpt>
      <trkpt lat="42.40048" lon="-0.0513">
        <ele>1213.5</ele>
      </trkpt>
      <trkpt lat="42.40059" lon="-0.0514">
        <ele>1214</ele>
      </trkpt>
      <trkpt lat="42.40094" lon="-0.05159">
        <ele>1216.4</ele>
      </trkpt>
      <trkpt lat="42.40101" lon="-0.05167">
        <ele>1216.9</ele>
      </trkpt>
      <trkpt lat="42.4011" lon="-0.05183">
        <ele>1218.5</ele>
      </trkpt>
      <trkpt lat="42.40115" lon="-0.05197">
        <ele>1219.7</ele>
      </trkpt>
      <trkpt lat="42.40116" lon="-0.05219">
        <ele>1220.7</ele>
      </trkpt>
      <trkpt lat="42.40095" lon="-0.05313">
        <ele>1222.4</ele>
      </trkpt>
      <trkpt lat="42.40095" lon="-0.05332">
        <ele>1223.3</ele>
      </trkpt>
      <trkpt lat="42.40099" lon="-0.05349">
        <ele>1223.4</ele>
      </trkpt>
      <trkpt lat="42.40133" lon="-0.05424">
        <ele>1224.3</ele>
      </trkpt>
      <trkpt lat="42.40205" lon="-0.05567">
        <ele>1224.1</ele>
      </trkpt>
      <trkpt lat="42.40219" lon="-0.05588">
        <ele>1224.1</ele>
      </trkpt>
      <trkpt lat="42.40311" lon="-0.05712">
        <ele>1229.8</ele>
      </trkpt>
      <trkpt lat="42.40318" lon="-0.05726">
        <ele>1229.9</ele>
      </trkpt>
      <trkpt lat="42.40323" lon="-0.05745">
        <ele>1229.5</ele>
      </trkpt>
      <trkpt lat="42.40324" lon="-0.05761">
        <ele>1229.5</ele>
      </trkpt>
      <trkpt lat="42.40323" lon="-0.05775">
        <ele>1229.6</ele>
      </trkpt>
      <trkpt lat="42.40312" lon="-0.05847">
        <ele>1229.7</ele>
      </trkpt>
      <trkpt lat="42.40315" lon="-0.05874">
        <ele>1230.4</ele>
      </trkpt>
      <trkpt lat="42.4032" lon="-0.05888">
        <ele>1230.9</ele>
      </trkpt>
      <trkpt lat="42.40479" lon="-0.06189">
        <ele>1243.3</ele>
      </trkpt>
      <trkpt lat="42.40483" lon="-0.06202">
        <ele>1243.3</ele>
      </trkpt>
      <trkpt lat="42.4049" lon="-0.06233">
        <ele>1243</ele>
      </trkpt>
      <trkpt lat="42.40491" lon="-0.06263">
        <ele>1243</ele>
      </trkpt>
      <trkpt lat="42.40465" lon="-0.06446">
        <ele>1251.4</ele>
      </trkpt>
      <trkpt lat="42.40457" lon="-0.06476">
        <ele>1253.2</ele>
      </trkpt>
      <trkpt lat="42.40452" lon="-0.06487">
        <ele>1253.9</ele>
      </trkpt>
      <trkpt lat="42.40437" lon="-0.065">
        <ele>1254.5</ele>
      </trkpt>
      <trkpt lat="42.4043" lon="-0.06502">
        <ele>1254.5</ele>
      </trkpt>
      <trkpt lat="42.40407" lon="-0.06503">
        <ele>1254.2</ele>
      </trkpt>
      <trkpt lat="42.40399" lon="-0.06508">
        <ele>1254.5</ele>
      </trkpt>
      <trkpt lat="42.40391" lon="-0.06516">
        <ele>1254.8</ele>
      </trkpt>
      <trkpt lat="42.40379" lon="-0.06538">
        <ele>1255.5</ele>
      </trkpt>
      <trkpt lat="42.40378" lon="-0.06556">
        <ele>1256.2</ele>
      </trkpt>
      <trkpt lat="42.40379" lon="-0.06572">
        <ele>1256.8</ele>
      </trkpt>
      <trkpt lat="42.40383" lon="-0.0659">
        <ele>1257.8</ele>
      </trkpt>
      <trkpt lat="42.40411" lon="-0.06655">
        <ele>1258.6</ele>
      </trkpt>
      <trkpt lat="42.40423" lon="-0.0669">
        <ele>1257.2</ele>
      </trkpt>
      <trkpt lat="42.40432" lon="-0.06712">
        <ele>1256.3</ele>
      </trkpt>
      <trkpt lat="42.40457" lon="-0.06754">
        <ele>1253.5</ele>
      </trkpt>
      <trkpt lat="42.40463" lon="-0.06769">
        <ele>1251.7</ele>
      </trkpt>
      <trkpt lat="42.40486" lon="-0.06864">
        <ele>1240.9</ele>
      </trkpt>
      <trkpt lat="42.40502" lon="-0.06913">
        <ele>1237.6</ele>
      </trkpt>
      <trkpt lat="42.40505" lon="-0.06944">
        <ele>1235.2</ele>
      </trkpt>
      <trkpt lat="42.40509" lon="-0.06959">
        <ele>1234.4</ele>
      </trkpt>
      <trkpt lat="42.40523" lon="-0.07007">
        <ele>1232.8</ele>
      </trkpt>
      <trkpt lat="42.40523" lon="-0.0703">
        <ele>1232.7</ele>
      </trkpt>
      <trkpt lat="42.40517" lon="-0.07047">
        <ele>1231.6</ele>
      </trkpt>
      <trkpt lat="42.4051" lon="-0.07058">
        <ele>1230.5</ele>
      </trkpt>
      <trkpt lat="42.40503" lon="-0.07066">
        <ele>1229.4</ele>
      </trkpt>
      <trkpt lat="42.40493" lon="-0.07072">
        <ele>1228.6</ele>
      </trkpt>
      <trkpt lat="42.4043" lon="-0.07087">
        <ele>1225.6</ele>
      </trkpt>
      <trkpt lat="42.40417" lon="-0.07093">
        <ele>1226.1</ele>
      </trkpt>
      <trkpt lat="42.40378" lon="-0.07121">
        <ele>1227.5</ele>
      </trkpt>
      <trkpt lat="42.4037" lon="-0.0713">
        <ele>1227.2</ele>
      </trkpt>
      <trkpt lat="42.40335" lon="-0.07191">
        <ele>1222</ele>
      </trkpt>
      <trkpt lat="42.4031" lon="-0.07225">
        <ele>1219.1</ele>
      </trkpt>
      <trkpt lat="42.40297" lon="-0.07243">
        <ele>1217</ele>
      </trkpt>
      <trkpt lat="42.40274" lon="-0.07282">
        <ele>1214.6</ele>
      </trkpt>
      <trkpt lat="42.40241" lon="-0.07342">
        <ele>1211.9</ele>
      </trkpt>
      <trkpt lat="42.40215" lon="-0.07402">
        <ele>1207.3</ele>
      </trkpt>
      <trkpt lat="42.40211" lon="-0.07431">
        <ele>1205.5</ele>
      </trkpt>
      <trkpt lat="42.40236" lon="-0.07607">
        <ele>1198</ele>
      </trkpt>
      <trkpt lat="42.40239" lon="-0.0766">
        <ele>1194.7</ele>
      </trkpt>
      <trkpt lat="42.40248" lon="-0.07696">
        <ele>1192</ele>
      </trkpt>
      <trkpt lat="42.40267" lon="-0.07763">
        <ele>1190.1</ele>
      </trkpt>
      <trkpt lat="42.40275" lon="-0.07779">
        <ele>1190.5</ele>
      </trkpt>
      <trkpt lat="42.40294" lon="-0.07794">
        <ele>1191.9</ele>
      </trkpt>
      <trkpt lat="42.4031" lon="-0.07799">
        <ele>1193.2</ele>
      </trkpt>
      <trkpt lat="42.40338" lon="-0.07811">
        <ele>1194.7</ele>
      </trkpt>
      <trkpt lat="42.40349" lon="-0.07818">
        <ele>1194.5</ele>
      </trkpt>
      <trkpt lat="42.40357" lon="-0.07832">
        <ele>1193.3</ele>
      </trkpt>
      <trkpt lat="42.40368" lon="-0.0785">
        <ele>1194.4</ele>
      </trkpt>
      <trkpt lat="42.40393" lon="-0.07891">
        <ele>1195.4</ele>
      </trkpt>
      <trkpt lat="42.40414" lon="-0.07931">
        <ele>1193.9</ele>
      </trkpt>
      <trkpt lat="42.40422" lon="-0.0795">
        <ele>1193.8</ele>
      </trkpt>
      <trkpt lat="42.40426" lon="-0.07962">
        <ele>1193.8</ele>
      </trkpt>
      <trkpt lat="42.40429" lon="-0.07977">
        <ele>1193.5</ele>
      </trkpt>
      <trkpt lat="42.40428" lon="-0.07993">
        <ele>1192.9</ele>
      </trkpt>
      <trkpt lat="42.40427" lon="-0.08007">
        <ele>1193.1</ele>
      </trkpt>
      <trkpt lat="42.40424" lon="-0.08023">
        <ele>1193.9</ele>
      </trkpt>
      <trkpt lat="42.40418" lon="-0.08043">
        <ele>1194.7</ele>
      </trkpt>
      <trkpt lat="42.40407" lon="-0.08073">
        <ele>1196</ele>
      </trkpt>
      <trkpt lat="42.40398" lon="-0.08091">
        <ele>1196.1</ele>
      </trkpt>
      <trkpt lat="42.40388" lon="-0.08115">
        <ele>1195.7</ele>
      </trkpt>
      <trkpt lat="42.40384" lon="-0.08128">
        <ele>1195.4</ele>
      </trkpt>
      <trkpt lat="42.40382" lon="-0.08145">
        <ele>1195.2</ele>
      </trkpt>
      <trkpt lat="42.40382" lon="-0.08164">
        <ele>1195.3</ele>
      </trkpt>
      <trkpt lat="42.40385" lon="-0.08182">
        <ele>1194.7</ele>
      </trkpt>
      <trkpt lat="42.40398" lon="-0.08217">
        <ele>1194.1</ele>
      </trkpt>
      <trkpt lat="42.40402" lon="-0.08226">
        <ele>1194</ele>
      </trkpt>
      <trkpt lat="42.40409" lon="-0.08235">
        <ele>1194.3</ele>
      </trkpt>
      <trkpt lat="42.40453" lon="-0.08263">
        <ele>1197.3</ele>
      </trkpt>
      <trkpt lat="42.40468" lon="-0.08271">
        <ele>1198.3</ele>
      </trkpt>
      <trkpt lat="42.40494" lon="-0.08275">
        <ele>1200.7</ele>
      </trkpt>
      <trkpt lat="42.40511" lon="-0.08284">
        <ele>1201.7</ele>
      </trkpt>
      <trkpt lat="42.40588" lon="-0.0836">
        <ele>1207.3</ele>
      </trkpt>
      <trkpt lat="42.40613" lon="-0.0839">
        <ele>1210.8</ele>
      </trkpt>
      <trkpt lat="42.40621" lon="-0.08409">
        <ele>1211.5</ele>
      </trkpt>
      <trkpt lat="42.40623" lon="-0.08424">
        <ele>1211.7</ele>
      </trkpt>
      <trkpt lat="42.40626" lon="-0.08481">
        <ele>1213.8</ele>
      </trkpt>
      <trkpt lat="42.4064" lon="-0.08523">
        <ele>1217.7</ele>
      </trkpt>
      <trkpt lat="42.40642" lon="-0.08535">
        <ele>1218.4</ele>
      </trkpt>
      <trkpt lat="42.40642" lon="-0.08547">
        <ele>1218.6</ele>
      </trkpt>
      <trkpt lat="42.40639" lon="-0.08561">
        <ele>1218.2</ele>
      </trkpt>
      <trkpt lat="42.40629" lon="-0.08595">
        <ele>1216.5</ele>
      </trkpt>
      <trkpt lat="42.40629" lon="-0.08608">
        <ele>1216.5</ele>
      </trkpt>
      <trkpt lat="42.40632" lon="-0.08621">
        <ele>1217.3</ele>
      </trkpt>
      <trkpt lat="42.40633" lon="-0.08623">
        <ele>1217.5</ele>
      </trkpt>
      <trkpt lat="42.40647" lon="-0.08666">
        <ele>1220.8</ele>
      </trkpt>
      <trkpt lat="42.40672" lon="-0.0872">
        <ele>1223.1</ele>
      </trkpt>
      <trkpt lat="42.40681" lon="-0.08735">
        <ele>1224.3</ele>
      </trkpt>
      <trkpt lat="42.40697" lon="-0.08753">
        <ele>1227.1</ele>
      </trkpt>
      <trkpt lat="42.40704" lon="-0.08762">
        <ele>1229.3</ele>
      </trkpt>
      <trkpt lat="42.4071" lon="-0.08779">
        <ele>1231.8</ele>
      </trkpt>
      <trkpt lat="42.40714" lon="-0.08811">
        <ele>1234.7</ele>
      </trkpt>
      <trkpt lat="42.40711" lon="-0.08859">
        <ele>1237.2</ele>
      </trkpt>
      <trkpt lat="42.40734" lon="-0.08956">
        <ele>1242.3</ele>
      </trkpt>
      <trkpt lat="42.40738" lon="-0.08984">
        <ele>1241.9</ele>
      </trkpt>
      <trkpt lat="42.40744" lon="-0.09008">
        <ele>1240.1</ele>
      </trkpt>
      <trkpt lat="42.40752" lon="-0.09026">
        <ele>1237.3</ele>
      </trkpt>
      <trkpt lat="42.40772" lon="-0.09048">
        <ele>1236</ele>
      </trkpt>
      <trkpt lat="42.40806" lon="-0.09101">
        <ele>1231.5</ele>
      </trkpt>
      <trkpt lat="42.40813" lon="-0.09116">
        <ele>1231.2</ele>
      </trkpt>
      <trkpt lat="42.40814" lon="-0.09125">
        <ele>1230.8</ele>
      </trkpt>
      <trkpt lat="42.40813" lon="-0.09143">
        <ele>1230</ele>
      </trkpt>
      <trkpt lat="42.40806" lon="-0.09157">
        <ele>1228.8</ele>
      </trkpt>
      <trkpt lat="42.40792" lon="-0.09179">
        <ele>1226.5</ele>
      </trkpt>
      <trkpt lat="42.40781" lon="-0.09201">
        <ele>1224.2</ele>
      </trkpt>
      <trkpt lat="42.40775" lon="-0.09232">
        <ele>1221.6</ele>
      </trkpt>
      <trkpt lat="42.40774" lon="-0.09252">
        <ele>1220.1</ele>
      </trkpt>
      <trkpt lat="42.40775" lon="-0.09264">
        <ele>1219.2</ele>
      </trkpt>
      <trkpt lat="42.40797" lon="-0.09351">
        <ele>1213.9</ele>
      </trkpt>
      <trkpt lat="42.40803" lon="-0.09397">
        <ele>1210.2</ele>
      </trkpt>
      <trkpt lat="42.40811" lon="-0.09434">
        <ele>1207.9</ele>
      </trkpt>
      <trkpt lat="42.40817" lon="-0.09516">
        <ele>1202.2</ele>
      </trkpt>
      <trkpt lat="42.40817" lon="-0.09548">
        <ele>1200</ele>
      </trkpt>
      <trkpt lat="42.40815" lon="-0.09589">
        <ele>1196.8</ele>
      </trkpt>
      <trkpt lat="42.40816" lon="-0.09605">
        <ele>1195.4</ele>
      </trkpt>
      <trkpt lat="42.40819" lon="-0.09625">
        <ele>1193.9</ele>
      </trkpt>
      <trkpt lat="42.40826" lon="-0.09647">
        <ele>1192.8</ele>
      </trkpt>
      <trkpt lat="42.40839" lon="-0.09673">
        <ele>1192.7</ele>
      </trkpt>
      <trkpt lat="42.40846" lon="-0.09694">
        <ele>1192.1</ele>
      </trkpt>
      <trkpt lat="42.40851" lon="-0.09743">
        <ele>1187.9</ele>
      </trkpt>
      <trkpt lat="42.40869" lon="-0.098">
        <ele>1182.3</ele>
      </trkpt>
      <trkpt lat="42.40875" lon="-0.09814">
        <ele>1181.1</ele>
      </trkpt>
      <trkpt lat="42.40901" lon="-0.09841">
        <ele>1182.7</ele>
      </trkpt>
      <trkpt lat="42.40904" lon="-0.09851">
        <ele>1182.8</ele>
      </trkpt>
      <trkpt lat="42.40905" lon="-0.09863">
        <ele>1182.5</ele>
      </trkpt>
      <trkpt lat="42.40904" lon="-0.09878">
        <ele>1181.7</ele>
      </trkpt>
      <trkpt lat="42.40891" lon="-0.09911">
        <ele>1177.4</ele>
      </trkpt>
      <trkpt lat="42.40889" lon="-0.09923">
        <ele>1176.2</ele>
      </trkpt>
      <trkpt lat="42.409" lon="-0.09972">
        <ele>1174.6</ele>
      </trkpt>
      <trkpt lat="42.40901" lon="-0.10016">
        <ele>1170.5</ele>
      </trkpt>
      <trkpt lat="42.40917" lon="-0.10084">
        <ele>1164.9</ele>
      </trkpt>
      <trkpt lat="42.40919" lon="-0.10125">
        <ele>1159.4</ele>
      </trkpt>
      <trkpt lat="42.40924" lon="-0.10139">
        <ele>1158.2</ele>
      </trkpt>
      <trkpt lat="42.40929" lon="-0.10148">
        <ele>1157.9</ele>
      </trkpt>
      <trkpt lat="42.40948" lon="-0.10163">
        <ele>1159.5</ele>
      </trkpt>
      <trkpt lat="42.40952" lon="-0.10169">
        <ele>1159.7</ele>
      </trkpt>
      <trkpt lat="42.40956" lon="-0.10185">
        <ele>1160.2</ele>
      </trkpt>
      <trkpt lat="42.40954" lon="-0.10216">
        <ele>1159.1</ele>
      </trkpt>
      <trkpt lat="42.40936" lon="-0.10362">
        <ele>1151.1</ele>
      </trkpt>
      <trkpt lat="42.40936" lon="-0.10374">
        <ele>1150.7</ele>
      </trkpt>
      <trkpt lat="42.40939" lon="-0.104">
        <ele>1150.6</ele>
      </trkpt>
      <trkpt lat="42.40959" lon="-0.1047">
        <ele>1148.3</ele>
      </trkpt>
      <trkpt lat="42.40974" lon="-0.10569">
        <ele>1141.5</ele>
      </trkpt>
      <trkpt lat="42.40974" lon="-0.10571">
        <ele>1141.3</ele>
      </trkpt>
      <trkpt lat="42.40974" lon="-0.10577">
        <ele>1140.7</ele>
      </trkpt>
      <trkpt lat="42.40967" lon="-0.10621">
        <ele>1137</ele>
      </trkpt>
      <trkpt lat="42.40949" lon="-0.10741">
        <ele>1133.4</ele>
      </trkpt>
      <trkpt lat="42.40938" lon="-0.10785">
        <ele>1131.4</ele>
      </trkpt>
      <trkpt lat="42.40935" lon="-0.10801">
        <ele>1131.1</ele>
      </trkpt>
      <trkpt lat="42.40935" lon="-0.10866">
        <ele>1128.7</ele>
      </trkpt>
      <trkpt lat="42.40938" lon="-0.10882">
        <ele>1127.4</ele>
      </trkpt>
      <trkpt lat="42.40942" lon="-0.10895">
        <ele>1126.4</ele>
      </trkpt>
      <trkpt lat="42.40953" lon="-0.1092">
        <ele>1124.2</ele>
      </trkpt>
      <trkpt lat="42.40959" lon="-0.10926">
        <ele>1124</ele>
      </trkpt>
      <trkpt lat="42.40983" lon="-0.10938">
        <ele>1124.9</ele>
      </trkpt>
      <trkpt lat="42.40987" lon="-0.10941">
        <ele>1125</ele>
      </trkpt>
      <trkpt lat="42.40992" lon="-0.10948">
        <ele>1124.9</ele>
      </trkpt>
      <trkpt lat="42.40995" lon="-0.10956">
        <ele>1124.6</ele>
      </trkpt>
      <trkpt lat="42.40996" lon="-0.10969">
        <ele>1123.7</ele>
      </trkpt>
      <trkpt lat="42.40993" lon="-0.10983">
        <ele>1122.3</ele>
      </trkpt>
      <trkpt lat="42.40976" lon="-0.11007">
        <ele>1118.7</ele>
      </trkpt>
      <trkpt lat="42.40968" lon="-0.11023">
        <ele>1118.2</ele>
      </trkpt>
      <trkpt lat="42.40966" lon="-0.11036">
        <ele>1118.5</ele>
      </trkpt>
      <trkpt lat="42.40966" lon="-0.11071">
        <ele>1120.2</ele>
      </trkpt>
      <trkpt lat="42.40967" lon="-0.11091">
        <ele>1120.7</ele>
      </trkpt>
      <trkpt lat="42.4097" lon="-0.11108">
        <ele>1120.3</ele>
      </trkpt>
      <trkpt lat="42.40973" lon="-0.11116">
        <ele>1120.4</ele>
      </trkpt>
      <trkpt lat="42.40976" lon="-0.11123">
        <ele>1120.5</ele>
      </trkpt>
      <trkpt lat="42.40998" lon="-0.11157">
        <ele>1120.8</ele>
      </trkpt>
      <trkpt lat="42.41003" lon="-0.11168">
        <ele>1120.5</ele>
      </trkpt>
      <trkpt lat="42.41007" lon="-0.11183">
        <ele>1120.6</ele>
      </trkpt>
      <trkpt lat="42.41009" lon="-0.11201">
        <ele>1120.3</ele>
      </trkpt>
      <trkpt lat="42.41002" lon="-0.11243">
        <ele>1116.8</ele>
      </trkpt>
      <trkpt lat="42.41001" lon="-0.1126">
        <ele>1115.9</ele>
      </trkpt>
      <trkpt lat="42.41007" lon="-0.11333">
        <ele>1113.8</ele>
      </trkpt>
      <trkpt lat="42.41009" lon="-0.11341">
        <ele>1113.1</ele>
      </trkpt>
      <trkpt lat="42.4101" lon="-0.11345">
        <ele>1112.8</ele>
      </trkpt>
      <trkpt lat="42.41018" lon="-0.1136">
        <ele>1112.1</ele>
      </trkpt>
      <trkpt lat="42.41025" lon="-0.11367">
        <ele>1112.3</ele>
      </trkpt>
      <trkpt lat="42.41032" lon="-0.11372">
        <ele>1112.7</ele>
      </trkpt>
      <trkpt lat="42.41057" lon="-0.11373">
        <ele>1116</ele>
      </trkpt>
      <trkpt lat="42.41065" lon="-0.11375">
        <ele>1117</ele>
      </trkpt>
      <trkpt lat="42.41069" lon="-0.11378">
        <ele>1117.3</ele>
      </trkpt>
      <trkpt lat="42.41077" lon="-0.1139">
        <ele>1117.7</ele>
      </trkpt>
      <trkpt lat="42.4108" lon="-0.114">
        <ele>1117.5</ele>
      </trkpt>
      <trkpt lat="42.41081" lon="-0.11408">
        <ele>1117.1</ele>
      </trkpt>
      <trkpt lat="42.41072" lon="-0.11459">
        <ele>1115.1</ele>
      </trkpt>
      <trkpt lat="42.41072" lon="-0.11469">
        <ele>1115</ele>
      </trkpt>
      <trkpt lat="42.41077" lon="-0.11514">
        <ele>1115.6</ele>
      </trkpt>
      <trkpt lat="42.4108" lon="-0.11524">
        <ele>1115.8</ele>
      </trkpt>
      <trkpt lat="42.41083" lon="-0.11531">
        <ele>1116.1</ele>
      </trkpt>
      <trkpt lat="42.41094" lon="-0.11542">
        <ele>1117.5</ele>
      </trkpt>
      <trkpt lat="42.41105" lon="-0.11548">
        <ele>1119.1</ele>
      </trkpt>
      <trkpt lat="42.41132" lon="-0.1155">
        <ele>1123.8</ele>
      </trkpt>
      <trkpt lat="42.41212" lon="-0.11574">
        <ele>1130.8</ele>
      </trkpt>
      <trkpt lat="42.41271" lon="-0.1158">
        <ele>1137.9</ele>
      </trkpt>
      <trkpt lat="42.41286" lon="-0.11587">
        <ele>1140.5</ele>
      </trkpt>
      <trkpt lat="42.41293" lon="-0.11593">
        <ele>1142.4</ele>
      </trkpt>
      <trkpt lat="42.413" lon="-0.11607">
        <ele>1144.8</ele>
      </trkpt>
      <trkpt lat="42.41304" lon="-0.11626">
        <ele>1147</ele>
      </trkpt>
      <trkpt lat="42.41303" lon="-0.11635">
        <ele>1147.4</ele>
      </trkpt>
      <trkpt lat="42.41299" lon="-0.11646">
        <ele>1147.2</ele>
      </trkpt>
      <trkpt lat="42.41289" lon="-0.1166">
        <ele>1145.4</ele>
      </trkpt>
      <trkpt lat="42.41257" lon="-0.11689">
        <ele>1137.6</ele>
      </trkpt>
      <trkpt lat="42.41216" lon="-0.11714">
        <ele>1130.2</ele>
      </trkpt>
      <trkpt lat="42.41211" lon="-0.11722">
        <ele>1129.5</ele>
      </trkpt>
      <trkpt lat="42.41206" lon="-0.11735">
        <ele>1129</ele>
      </trkpt>
      <trkpt lat="42.41206" lon="-0.11749">
        <ele>1129.5</ele>
      </trkpt>
      <trkpt lat="42.41208" lon="-0.11761">
        <ele>1128.7</ele>
      </trkpt>
      <trkpt lat="42.41212" lon="-0.11771">
        <ele>1128.4</ele>
      </trkpt>
      <trkpt lat="42.41217" lon="-0.11775">
        <ele>1128.9</ele>
      </trkpt>
      <trkpt lat="42.41245" lon="-0.11792">
        <ele>1132.1</ele>
      </trkpt>
      <trkpt lat="42.41317" lon="-0.11816">
        <ele>1139.8</ele>
      </trkpt>
      <trkpt lat="42.4133" lon="-0.11827">
        <ele>1139.7</ele>
      </trkpt>
      <trkpt lat="42.41343" lon="-0.11843">
        <ele>1140.5</ele>
      </trkpt>
      <trkpt lat="42.41353" lon="-0.11862">
        <ele>1141.6</ele>
      </trkpt>
      <trkpt lat="42.41359" lon="-0.11881">
        <ele>1141.9</ele>
      </trkpt>
      <trkpt lat="42.41362" lon="-0.11895">
        <ele>1141.8</ele>
      </trkpt>
      <trkpt lat="42.4137" lon="-0.11953">
        <ele>1140.4</ele>
      </trkpt>
      <trkpt lat="42.41373" lon="-0.1197">
        <ele>1140.1</ele>
      </trkpt>
      <trkpt lat="42.41417" lon="-0.12072">
        <ele>1142.8</ele>
      </trkpt>
      <trkpt lat="42.41421" lon="-0.12091">
        <ele>1143.8</ele>
      </trkpt>
      <trkpt lat="42.4142" lon="-0.12102">
        <ele>1144.4</ele>
      </trkpt>
      <trkpt lat="42.41414" lon="-0.12115">
        <ele>1144.2</ele>
      </trkpt>
      <trkpt lat="42.41406" lon="-0.12124">
        <ele>1143.7</ele>
      </trkpt>
      <trkpt lat="42.41397" lon="-0.1213">
        <ele>1142.9</ele>
      </trkpt>
      <trkpt lat="42.41387" lon="-0.12131">
        <ele>1141.4</ele>
      </trkpt>
      <trkpt lat="42.41348" lon="-0.12128">
        <ele>1135.1</ele>
      </trkpt>
      <trkpt lat="42.41285" lon="-0.1213">
        <ele>1128</ele>
      </trkpt>
      <trkpt lat="42.41276" lon="-0.12135">
        <ele>1127.5</ele>
      </trkpt>
      <trkpt lat="42.41273" lon="-0.12137">
        <ele>1127.3</ele>
      </trkpt>
      <trkpt lat="42.41269" lon="-0.12141">
        <ele>1127.2</ele>
      </trkpt>
      <trkpt lat="42.41263" lon="-0.12154">
        <ele>1127.6</ele>
      </trkpt>
      <trkpt lat="42.4126" lon="-0.12168">
        <ele>1128.1</ele>
      </trkpt>
      <trkpt lat="42.41267" lon="-0.12214">
        <ele>1126.6</ele>
      </trkpt>
      <trkpt lat="42.41267" lon="-0.12227">
        <ele>1125.9</ele>
      </trkpt>
      <trkpt lat="42.41261" lon="-0.12266">
        <ele>1122.6</ele>
      </trkpt>
      <trkpt lat="42.41261" lon="-0.12283">
        <ele>1121.7</ele>
      </trkpt>
      <trkpt lat="42.41264" lon="-0.12321">
        <ele>1120.6</ele>
      </trkpt>
      <trkpt lat="42.41263" lon="-0.12335">
        <ele>1119.7</ele>
      </trkpt>
      <trkpt lat="42.41262" lon="-0.12347">
        <ele>1119.2</ele>
      </trkpt>
      <trkpt lat="42.41254" lon="-0.12371">
        <ele>1116.6</ele>
      </trkpt>
      <trkpt lat="42.41238" lon="-0.12414">
        <ele>1112.5</ele>
      </trkpt>
      <trkpt lat="42.41235" lon="-0.12429">
        <ele>1111</ele>
      </trkpt>
      <trkpt lat="42.41236" lon="-0.12477">
        <ele>1108</ele>
      </trkpt>
      <trkpt lat="42.4124" lon="-0.12499">
        <ele>1107.3</ele>
      </trkpt>
      <trkpt lat="42.41245" lon="-0.12514">
        <ele>1106.4</ele>
      </trkpt>
      <trkpt lat="42.41263" lon="-0.12538">
        <ele>1106.2</ele>
      </trkpt>
      <trkpt lat="42.41276" lon="-0.12568">
        <ele>1104.3</ele>
      </trkpt>
      <trkpt lat="42.41282" lon="-0.12617">
        <ele>1099.2</ele>
      </trkpt>
      <trkpt lat="42.41286" lon="-0.12629">
        <ele>1098.3</ele>
      </trkpt>
      <trkpt lat="42.41292" lon="-0.12638">
        <ele>1098</ele>
      </trkpt>
      <trkpt lat="42.41315" lon="-0.12654">
        <ele>1099.1</ele>
      </trkpt>
      <trkpt lat="42.41322" lon="-0.12666">
        <ele>1098.6</ele>
      </trkpt>
      <trkpt lat="42.41325" lon="-0.12675">
        <ele>1099.4</ele>
      </trkpt>
      <trkpt lat="42.41324" lon="-0.12684">
        <ele>1099.7</ele>
      </trkpt>
      <trkpt lat="42.41323" lon="-0.12692">
        <ele>1100</ele>
      </trkpt>
      <trkpt lat="42.4132" lon="-0.12702">
        <ele>1100.2</ele>
      </trkpt>
      <trkpt lat="42.41309" lon="-0.12712">
        <ele>1099</ele>
      </trkpt>
      <trkpt lat="42.41234" lon="-0.12737">
        <ele>1088.1</ele>
      </trkpt>
      <trkpt lat="42.41226" lon="-0.12742">
        <ele>1086.8</ele>
      </trkpt>
      <trkpt lat="42.41217" lon="-0.12752">
        <ele>1085.4</ele>
      </trkpt>
      <trkpt lat="42.4121" lon="-0.12765">
        <ele>1084.2</ele>
      </trkpt>
      <trkpt lat="42.41204" lon="-0.12779">
        <ele>1083.1</ele>
      </trkpt>
      <trkpt lat="42.41202" lon="-0.12796">
        <ele>1082.6</ele>
      </trkpt>
      <trkpt lat="42.41204" lon="-0.12819">
        <ele>1082.8</ele>
      </trkpt>
      <trkpt lat="42.41206" lon="-0.12827">
        <ele>1083.1</ele>
      </trkpt>
      <trkpt lat="42.41209" lon="-0.12833">
        <ele>1083.6</ele>
      </trkpt>
      <trkpt lat="42.4123" lon="-0.12863">
        <ele>1085.2</ele>
      </trkpt>
      <trkpt lat="42.41233" lon="-0.12874">
        <ele>1084.9</ele>
      </trkpt>
      <trkpt lat="42.41234" lon="-0.12885">
        <ele>1084.3</ele>
      </trkpt>
      <trkpt lat="42.41232" lon="-0.129">
        <ele>1082.9</ele>
      </trkpt>
      <trkpt lat="42.41227" lon="-0.1291">
        <ele>1081.4</ele>
      </trkpt>
      <trkpt lat="42.41222" lon="-0.12917">
        <ele>1080.3</ele>
      </trkpt>
      <trkpt lat="42.41206" lon="-0.12927">
        <ele>1078.8</ele>
      </trkpt>
      <trkpt lat="42.41193" lon="-0.1293">
        <ele>1077.2</ele>
      </trkpt>
      <trkpt lat="42.41156" lon="-0.12926">
        <ele>1072.3</ele>
      </trkpt>
      <trkpt lat="42.41153" lon="-0.12926">
        <ele>1072</ele>
      </trkpt>
      <trkpt lat="42.411" lon="-0.12937">
        <ele>1066.6</ele>
      </trkpt>
      <trkpt lat="42.41091" lon="-0.12942">
        <ele>1065.8</ele>
      </trkpt>
      <trkpt lat="42.41084" lon="-0.12949">
        <ele>1065.2</ele>
      </trkpt>
      <trkpt lat="42.41079" lon="-0.12958">
        <ele>1065.1</ele>
      </trkpt>
      <trkpt lat="42.41076" lon="-0.1297">
        <ele>1065.2</ele>
      </trkpt>
      <trkpt lat="42.41076" lon="-0.12984">
        <ele>1065.7</ele>
      </trkpt>
      <trkpt lat="42.41078" lon="-0.13004">
        <ele>1066.3</ele>
      </trkpt>
      <trkpt lat="42.4108" lon="-0.13014">
        <ele>1066.3</ele>
      </trkpt>
      <trkpt lat="42.41079" lon="-0.13026">
        <ele>1065.9</ele>
      </trkpt>
      <trkpt lat="42.41074" lon="-0.13044">
        <ele>1065</ele>
      </trkpt>
      <trkpt lat="42.41072" lon="-0.1305">
        <ele>1064.7</ele>
      </trkpt>
      <trkpt lat="42.41005" lon="-0.13161">
        <ele>1058.6</ele>
      </trkpt>
      <trkpt lat="42.40986" lon="-0.13185">
        <ele>1057.5</ele>
      </trkpt>
      <trkpt lat="42.40976" lon="-0.13191">
        <ele>1056.5</ele>
      </trkpt>
      <trkpt lat="42.40955" lon="-0.13197">
        <ele>1054</ele>
      </trkpt>
      <trkpt lat="42.40941" lon="-0.13205">
        <ele>1052.4</ele>
      </trkpt>
      <trkpt lat="42.4093" lon="-0.13214">
        <ele>1051.1</ele>
      </trkpt>
      <trkpt lat="42.40906" lon="-0.13239">
        <ele>1048.5</ele>
      </trkpt>
      <trkpt lat="42.40897" lon="-0.1325">
        <ele>1047.6</ele>
      </trkpt>
      <trkpt lat="42.40889" lon="-0.13262">
        <ele>1047</ele>
      </trkpt>
      <trkpt lat="42.40856" lon="-0.13332">
        <ele>1041.9</ele>
      </trkpt>
      <trkpt lat="42.40843" lon="-0.13362">
        <ele>1038.8</ele>
      </trkpt>
      <trkpt lat="42.40822" lon="-0.13426">
        <ele>1034</ele>
      </trkpt>
      <trkpt lat="42.40814" lon="-0.13439">
        <ele>1032.7</ele>
      </trkpt>
      <trkpt lat="42.40796" lon="-0.13458">
        <ele>1029.9</ele>
      </trkpt>
      <trkpt lat="42.40754" lon="-0.13498">
        <ele>1024.5</ele>
      </trkpt>
      <trkpt lat="42.40741" lon="-0.13508">
        <ele>1023.5</ele>
      </trkpt>
      <trkpt lat="42.40699" lon="-0.13534">
        <ele>1019.7</ele>
      </trkpt>
      <trkpt lat="42.40691" lon="-0.13542">
        <ele>1018.9</ele>
      </trkpt>
      <trkpt lat="42.40689" lon="-0.13546">
        <ele>1018.7</ele>
      </trkpt>
      <trkpt lat="42.40686" lon="-0.13552">
        <ele>1018.4</ele>
      </trkpt>
      <trkpt lat="42.40685" lon="-0.13564">
        <ele>1018.4</ele>
      </trkpt>
      <trkpt lat="42.40686" lon="-0.13577">
        <ele>1018.7</ele>
      </trkpt>
      <trkpt lat="42.40689" lon="-0.13587">
        <ele>1018.6</ele>
      </trkpt>
      <trkpt lat="42.40694" lon="-0.13597">
        <ele>1017.8</ele>
      </trkpt>
      <trkpt lat="42.40704" lon="-0.13611">
        <ele>1017.1</ele>
      </trkpt>
      <trkpt lat="42.4074" lon="-0.13652">
        <ele>1015.8</ele>
      </trkpt>
      <trkpt lat="42.40755" lon="-0.13685">
        <ele>1012.8</ele>
      </trkpt>
      <trkpt lat="42.4078" lon="-0.13714">
        <ele>1012.6</ele>
      </trkpt>
      <trkpt lat="42.40784" lon="-0.13724">
        <ele>1012.1</ele>
      </trkpt>
      <trkpt lat="42.40786" lon="-0.13743">
        <ele>1010.2</ele>
      </trkpt>
      <trkpt lat="42.40781" lon="-0.13762">
        <ele>1008.4</ele>
      </trkpt>
      <trkpt lat="42.40776" lon="-0.1377">
        <ele>1007.6</ele>
      </trkpt>
      <trkpt lat="42.40737" lon="-0.13795">
        <ele>1000.9</ele>
      </trkpt>
      <trkpt lat="42.4073" lon="-0.13805">
        <ele>999.5</ele>
      </trkpt>
      <trkpt lat="42.40722" lon="-0.13836">
        <ele>998.1</ele>
      </trkpt>
      <trkpt lat="42.40716" lon="-0.13876">
        <ele>994.4</ele>
      </trkpt>
      <trkpt lat="42.40716" lon="-0.13886">
        <ele>993.9</ele>
      </trkpt>
      <trkpt lat="42.40721" lon="-0.13913">
        <ele>993.6</ele>
      </trkpt>
      <trkpt lat="42.40727" lon="-0.13935">
        <ele>991.8</ele>
      </trkpt>
      <trkpt lat="42.40733" lon="-0.13943">
        <ele>991.7</ele>
      </trkpt>
      <trkpt lat="42.40739" lon="-0.1395">
        <ele>991.6</ele>
      </trkpt>
      <trkpt lat="42.40748" lon="-0.13953">
        <ele>992.7</ele>
      </trkpt>
      <trkpt lat="42.40772" lon="-0.13955">
        <ele>993</ele>
      </trkpt>
      <trkpt lat="42.4078" lon="-0.13959">
        <ele>992.4</ele>
      </trkpt>
      <trkpt lat="42.40787" lon="-0.13966">
        <ele>991.3</ele>
      </trkpt>
      <trkpt lat="42.40791" lon="-0.13973">
        <ele>990.2</ele>
      </trkpt>
      <trkpt lat="42.40796" lon="-0.13984">
        <ele>988.4</ele>
      </trkpt>
      <trkpt lat="42.40814" lon="-0.14035">
        <ele>989.8</ele>
      </trkpt>
      <trkpt lat="42.40816" lon="-0.14046">
        <ele>991.1</ele>
      </trkpt>
      <trkpt lat="42.40814" lon="-0.14056">
        <ele>991.9</ele>
      </trkpt>
      <trkpt lat="42.40809" lon="-0.1407">
        <ele>992.8</ele>
      </trkpt>
      <trkpt lat="42.40794" lon="-0.14079">
        <ele>991.9</ele>
      </trkpt>
      <trkpt lat="42.40765" lon="-0.1409">
        <ele>989.8</ele>
      </trkpt>
      <trkpt lat="42.4076" lon="-0.14095">
        <ele>990.1</ele>
      </trkpt>
      <trkpt lat="42.40755" lon="-0.14099">
        <ele>990.2</ele>
      </trkpt>
      <trkpt lat="42.40734" lon="-0.1412">
        <ele>991.6</ele>
      </trkpt>
      <trkpt lat="42.40726" lon="-0.14127">
        <ele>992</ele>
      </trkpt>
      <trkpt lat="42.40691" lon="-0.14132">
        <ele>989.6</ele>
      </trkpt>
      <trkpt lat="42.40659" lon="-0.14151">
        <ele>989.4</ele>
      </trkpt>
      <trkpt lat="42.40629" lon="-0.14167">
        <ele>985.4</ele>
      </trkpt>
      <trkpt lat="42.40623" lon="-0.14174">
        <ele>984.4</ele>
      </trkpt>
      <trkpt lat="42.40619" lon="-0.14185">
        <ele>984</ele>
      </trkpt>
      <trkpt lat="42.40617" lon="-0.14194">
        <ele>983.9</ele>
      </trkpt>
      <trkpt lat="42.40617" lon="-0.14228">
        <ele>985.4</ele>
      </trkpt>
      <trkpt lat="42.40602" lon="-0.14318">
        <ele>985</ele>
      </trkpt>
      <trkpt lat="42.40576" lon="-0.14388">
        <ele>979.4</ele>
      </trkpt>
      <trkpt lat="42.40576" lon="-0.14404">
        <ele>979.6</ele>
      </trkpt>
      <trkpt lat="42.40578" lon="-0.14419">
        <ele>979.9</ele>
      </trkpt>
      <trkpt lat="42.40587" lon="-0.14438">
        <ele>979.3</ele>
      </trkpt>
      <trkpt lat="42.40607" lon="-0.1447">
        <ele>977.2</ele>
      </trkpt>
      <trkpt lat="42.40612" lon="-0.14479">
        <ele>976.2</ele>
      </trkpt>
      <trkpt lat="42.40626" lon="-0.14492">
        <ele>974.8</ele>
      </trkpt>
      <trkpt lat="42.40639" lon="-0.14496">
        <ele>974.4</ele>
      </trkpt>
      <trkpt lat="42.40666" lon="-0.14492">
        <ele>975.7</ele>
      </trkpt>
      <trkpt lat="42.40677" lon="-0.14497">
        <ele>976.8</ele>
      </trkpt>
      <trkpt lat="42.40683" lon="-0.14502">
        <ele>977.3</ele>
      </trkpt>
      <trkpt lat="42.40687" lon="-0.14507">
        <ele>977.7</ele>
      </trkpt>
      <trkpt lat="42.40689" lon="-0.14517">
        <ele>977.2</ele>
      </trkpt>
      <trkpt lat="42.40688" lon="-0.14538">
        <ele>975</ele>
      </trkpt>
      <trkpt lat="42.40673" lon="-0.14583">
        <ele>966</ele>
      </trkpt>
      <trkpt lat="42.40672" lon="-0.14592">
        <ele>965.2</ele>
      </trkpt>
      <trkpt lat="42.40672" lon="-0.14601">
        <ele>964.7</ele>
      </trkpt>
      <trkpt lat="42.40679" lon="-0.14634">
        <ele>965</ele>
      </trkpt>
      <trkpt lat="42.40679" lon="-0.14643">
        <ele>964.5</ele>
      </trkpt>
      <trkpt lat="42.40676" lon="-0.14667">
        <ele>962.3</ele>
      </trkpt>
      <trkpt lat="42.40674" lon="-0.14683">
        <ele>961</ele>
      </trkpt>
      <trkpt lat="42.40688" lon="-0.14798">
        <ele>955.3</ele>
      </trkpt>
      <trkpt lat="42.40691" lon="-0.14813">
        <ele>954.1</ele>
      </trkpt>
      <trkpt lat="42.40714" lon="-0.1486">
        <ele>951.4</ele>
      </trkpt>
      <trkpt lat="42.4072" lon="-0.14867">
        <ele>951.1</ele>
      </trkpt>
      <trkpt lat="42.40726" lon="-0.1487">
        <ele>951</ele>
      </trkpt>
      <trkpt lat="42.4074" lon="-0.1487">
        <ele>951.7</ele>
      </trkpt>
      <trkpt lat="42.40747" lon="-0.14867">
        <ele>952.4</ele>
      </trkpt>
      <trkpt lat="42.40761" lon="-0.14853">
        <ele>954.6</ele>
      </trkpt>
      <trkpt lat="42.40802" lon="-0.14801">
        <ele>959.6</ele>
      </trkpt>
      <trkpt lat="42.40809" lon="-0.14796">
        <ele>959.8</ele>
      </trkpt>
      <trkpt lat="42.40823" lon="-0.14794">
        <ele>959</ele>
      </trkpt>
      <trkpt lat="42.4083" lon="-0.14798">
        <ele>958.2</ele>
      </trkpt>
      <trkpt lat="42.40836" lon="-0.14804">
        <ele>957.7</ele>
      </trkpt>
      <trkpt lat="42.40839" lon="-0.14812">
        <ele>957.3</ele>
      </trkpt>
      <trkpt lat="42.40842" lon="-0.14831">
        <ele>956.3</ele>
      </trkpt>
      <trkpt lat="42.40842" lon="-0.14842">
        <ele>956.6</ele>
      </trkpt>
      <trkpt lat="42.4084" lon="-0.1485">
        <ele>956.7</ele>
      </trkpt>
      <trkpt lat="42.40837" lon="-0.14859">
        <ele>956.8</ele>
      </trkpt>
      <trkpt lat="42.40828" lon="-0.14873">
        <ele>956.6</ele>
      </trkpt>
      <trkpt lat="42.40818" lon="-0.14885">
        <ele>956.1</ele>
      </trkpt>
      <trkpt lat="42.4081" lon="-0.14901">
        <ele>955.4</ele>
      </trkpt>
      <trkpt lat="42.40804" lon="-0.14917">
        <ele>954.4</ele>
      </trkpt>
      <trkpt lat="42.40801" lon="-0.14934">
        <ele>953.3</ele>
      </trkpt>
      <trkpt lat="42.40802" lon="-0.14953">
        <ele>952.7</ele>
      </trkpt>
      <trkpt lat="42.40813" lon="-0.14989">
        <ele>952.8</ele>
      </trkpt>
      <trkpt lat="42.40817" lon="-0.15024">
        <ele>951.5</ele>
      </trkpt>
      <trkpt lat="42.4082" lon="-0.15033">
        <ele>951.3</ele>
      </trkpt>
      <trkpt lat="42.4084" lon="-0.15065">
        <ele>951.8</ele>
      </trkpt>
      <trkpt lat="42.40845" lon="-0.15077">
        <ele>952.1</ele>
      </trkpt>
      <trkpt lat="42.40846" lon="-0.15091">
        <ele>951.8</ele>
      </trkpt>
      <trkpt lat="42.40853" lon="-0.15107">
        <ele>953.3</ele>
      </trkpt>
      <trkpt lat="42.40858" lon="-0.15122">
        <ele>954.3</ele>
      </trkpt>
      <trkpt lat="42.40862" lon="-0.15148">
        <ele>955</ele>
      </trkpt>
      <trkpt lat="42.40864" lon="-0.15154">
        <ele>955.5</ele>
      </trkpt>
      <trkpt lat="42.40872" lon="-0.15156">
        <ele>957.3</ele>
      </trkpt>
      <trkpt lat="42.40875" lon="-0.15154">
        <ele>958.1</ele>
      </trkpt>
      <trkpt lat="42.40878" lon="-0.15149">
        <ele>958.8</ele>
      </trkpt>
      <trkpt lat="42.40879" lon="-0.15142">
        <ele>959.1</ele>
      </trkpt>
      <trkpt lat="42.40888" lon="-0.15129">
        <ele>961.3</ele>
      </trkpt>
      <trkpt lat="42.40899" lon="-0.15119">
        <ele>963.9</ele>
      </trkpt>
      <trkpt lat="42.40898" lon="-0.15158">
        <ele>963.5</ele>
      </trkpt>
      <trkpt lat="42.40896" lon="-0.15176">
        <ele>963.6</ele>
      </trkpt>
      <trkpt lat="42.40894" lon="-0.15183">
        <ele>963.5</ele>
      </trkpt>
      <trkpt lat="42.4089" lon="-0.15184">
        <ele>962.6</ele>
      </trkpt>
      <trkpt lat="42.40887" lon="-0.15186">
        <ele>962</ele>
      </trkpt>
      <trkpt lat="42.40883" lon="-0.15189">
        <ele>961.2</ele>
      </trkpt>
      <trkpt lat="42.40877" lon="-0.15202">
        <ele>960.4</ele>
      </trkpt>
      <trkpt lat="42.4087" lon="-0.15214">
        <ele>959.3</ele>
      </trkpt>
      <trkpt lat="42.40864" lon="-0.15232">
        <ele>958.8</ele>
      </trkpt>
      <trkpt lat="42.40861" lon="-0.15245">
        <ele>958.7</ele>
      </trkpt>
      <trkpt lat="42.40855" lon="-0.15299">
        <ele>959.9</ele>
      </trkpt>
      <trkpt lat="42.40841" lon="-0.15349">
        <ele>958.8</ele>
      </trkpt>
      <trkpt lat="42.40832" lon="-0.154">
        <ele>958.3</ele>
      </trkpt>
      <trkpt lat="42.40823" lon="-0.1539">
        <ele>956</ele>
      </trkpt>
      <trkpt lat="42.40821" lon="-0.15397">
        <ele>955.7</ele>
      </trkpt>
      <trkpt lat="42.40821" lon="-0.15412">
        <ele>956</ele>
      </trkpt>
      <trkpt lat="42.40824" lon="-0.15422">
        <ele>956.3</ele>
      </trkpt>
      <trkpt lat="42.40825" lon="-0.15427">
        <ele>956.1</ele>
      </trkpt>
      <trkpt lat="42.40831" lon="-0.15436">
        <ele>956.7</ele>
      </trkpt>
      <trkpt lat="42.40841" lon="-0.15443">
        <ele>957.1</ele>
      </trkpt>
      <trkpt lat="42.4086" lon="-0.15447">
        <ele>958.5</ele>
      </trkpt>
      <trkpt lat="42.40884" lon="-0.15439">
        <ele>961</ele>
      </trkpt>
      <trkpt lat="42.40894" lon="-0.1544">
        <ele>961.8</ele>
      </trkpt>
      <trkpt lat="42.40901" lon="-0.15445">
        <ele>962.3</ele>
      </trkpt>
      <trkpt lat="42.40909" lon="-0.15455">
        <ele>962.8</ele>
      </trkpt>
      <trkpt lat="42.40912" lon="-0.15466">
        <ele>962.9</ele>
      </trkpt>
      <trkpt lat="42.40914" lon="-0.15489">
        <ele>962.8</ele>
      </trkpt>
      <trkpt lat="42.40908" lon="-0.15509">
        <ele>962.8</ele>
      </trkpt>
      <trkpt lat="42.40902" lon="-0.1552">
        <ele>963</ele>
      </trkpt>
      <trkpt lat="42.40895" lon="-0.1553">
        <ele>962.9</ele>
      </trkpt>
      <trkpt lat="42.40844" lon="-0.15586">
        <ele>957.5</ele>
      </trkpt>
      <trkpt lat="42.40831" lon="-0.15606">
        <ele>956.8</ele>
      </trkpt>
      <trkpt lat="42.40817" lon="-0.15634">
        <ele>956.6</ele>
      </trkpt>
      <trkpt lat="42.40814" lon="-0.15642">
        <ele>956.6</ele>
      </trkpt>
      <trkpt lat="42.4081" lon="-0.15661">
        <ele>957</ele>
      </trkpt>
      <trkpt lat="42.40807" lon="-0.15679">
        <ele>956.2</ele>
      </trkpt>
      <trkpt lat="42.40808" lon="-0.15694">
        <ele>955.8</ele>
      </trkpt>
      <trkpt lat="42.40815" lon="-0.15747">
        <ele>955.5</ele>
      </trkpt>
      <trkpt lat="42.4082" lon="-0.15766">
        <ele>954.2</ele>
      </trkpt>
      <trkpt lat="42.40842" lon="-0.15818">
        <ele>949.6</ele>
      </trkpt>
      <trkpt lat="42.40853" lon="-0.1583">
        <ele>948.7</ele>
      </trkpt>
      <trkpt lat="42.40867" lon="-0.15835">
        <ele>949.5</ele>
      </trkpt>
      <trkpt lat="42.40912" lon="-0.15828">
        <ele>955.6</ele>
      </trkpt>
      <trkpt lat="42.40922" lon="-0.1583">
        <ele>956.4</ele>
      </trkpt>
      <trkpt lat="42.40931" lon="-0.15838">
        <ele>956.8</ele>
      </trkpt>
      <trkpt lat="42.40937" lon="-0.15847">
        <ele>957.5</ele>
      </trkpt>
      <trkpt lat="42.40941" lon="-0.15858">
        <ele>957.9</ele>
      </trkpt>
      <trkpt lat="42.40943" lon="-0.15871">
        <ele>958.1</ele>
      </trkpt>
      <trkpt lat="42.40942" lon="-0.15882">
        <ele>957.8</ele>
      </trkpt>
      <trkpt lat="42.40939" lon="-0.15893">
        <ele>957.1</ele>
      </trkpt>
      <trkpt lat="42.40932" lon="-0.15904">
        <ele>955.6</ele>
      </trkpt>
      <trkpt lat="42.4091" lon="-0.15925">
        <ele>952.4</ele>
      </trkpt>
      <trkpt lat="42.40898" lon="-0.15942">
        <ele>953.4</ele>
      </trkpt>
      <trkpt lat="42.40891" lon="-0.15958">
        <ele>955</ele>
      </trkpt>
      <trkpt lat="42.40882" lon="-0.1597">
        <ele>955.4</ele>
      </trkpt>
      <trkpt lat="42.4087" lon="-0.15973">
        <ele>953.7</ele>
      </trkpt>
      <trkpt lat="42.40848" lon="-0.15972">
        <ele>949.6</ele>
      </trkpt>
      <trkpt lat="42.40829" lon="-0.15979">
        <ele>947</ele>
      </trkpt>
      <trkpt lat="42.40823" lon="-0.15985">
        <ele>946.5</ele>
      </trkpt>
      <trkpt lat="42.40817" lon="-0.15993">
        <ele>946.1</ele>
      </trkpt>
      <trkpt lat="42.40807" lon="-0.16027">
        <ele>946</ele>
      </trkpt>
      <trkpt lat="42.408" lon="-0.16043">
        <ele>945.2</ele>
      </trkpt>
      <trkpt lat="42.40765" lon="-0.16096">
        <ele>938.4</ele>
      </trkpt>
      <trkpt lat="42.40762" lon="-0.16104">
        <ele>937.5</ele>
      </trkpt>
      <trkpt lat="42.40761" lon="-0.16106">
        <ele>937.2</ele>
      </trkpt>
      <trkpt lat="42.40761" lon="-0.16119">
        <ele>936.9</ele>
      </trkpt>
      <trkpt lat="42.40771" lon="-0.16154">
        <ele>938.4</ele>
      </trkpt>
      <trkpt lat="42.40775" lon="-0.16177">
        <ele>938.6</ele>
      </trkpt>
      <trkpt lat="42.4077" lon="-0.16239">
        <ele>934.3</ele>
      </trkpt>
      <trkpt lat="42.40787" lon="-0.16361">
        <ele>930.7</ele>
      </trkpt>
      <trkpt lat="42.40792" lon="-0.16385">
        <ele>929.5</ele>
      </trkpt>
      <trkpt lat="42.40805" lon="-0.16406">
        <ele>929.7</ele>
      </trkpt>
      <trkpt lat="42.40809" lon="-0.16416">
        <ele>929</ele>
      </trkpt>
      <trkpt lat="42.4081" lon="-0.16438">
        <ele>930.6</ele>
      </trkpt>
      <trkpt lat="42.40803" lon="-0.16459">
        <ele>931</ele>
      </trkpt>
      <trkpt lat="42.40776" lon="-0.16496">
        <ele>929.1</ele>
      </trkpt>
      <trkpt lat="42.40767" lon="-0.16503">
        <ele>928.4</ele>
      </trkpt>
      <trkpt lat="42.40744" lon="-0.16512">
        <ele>926.5</ele>
      </trkpt>
      <trkpt lat="42.40738" lon="-0.16518">
        <ele>926.7</ele>
      </trkpt>
      <trkpt lat="42.40721" lon="-0.16544">
        <ele>928.1</ele>
      </trkpt>
      <trkpt lat="42.40683" lon="-0.16596">
        <ele>925.8</ele>
      </trkpt>
      <trkpt lat="42.40621" lon="-0.16678">
        <ele>920.8</ele>
      </trkpt>
      <trkpt lat="42.40605" lon="-0.16701">
        <ele>919.1</ele>
      </trkpt>
      <trkpt lat="42.40586" lon="-0.16741">
        <ele>917.2</ele>
      </trkpt>
      <trkpt lat="42.40578" lon="-0.16765">
        <ele>918.1</ele>
      </trkpt>
      <trkpt lat="42.40554" lon="-0.16859">
        <ele>921.7</ele>
      </trkpt>
      <trkpt lat="42.40547" lon="-0.16916">
        <ele>923</ele>
      </trkpt>
      <trkpt lat="42.40543" lon="-0.16936">
        <ele>923.7</ele>
      </trkpt>
      <trkpt lat="42.40535" lon="-0.16951">
        <ele>923.1</ele>
      </trkpt>
      <trkpt lat="42.40525" lon="-0.16966">
        <ele>922.1</ele>
      </trkpt>
      <trkpt lat="42.40474" lon="-0.17008">
        <ele>918.3</ele>
      </trkpt>
      <trkpt lat="42.4046" lon="-0.17029">
        <ele>917.5</ele>
      </trkpt>
      <trkpt lat="42.4044" lon="-0.17101">
        <ele>913.2</ele>
      </trkpt>
      <trkpt lat="42.40436" lon="-0.17117">
        <ele>912.3</ele>
      </trkpt>
      <trkpt lat="42.40436" lon="-0.17139">
        <ele>912.1</ele>
      </trkpt>
      <trkpt lat="42.40439" lon="-0.17153">
        <ele>912.4</ele>
      </trkpt>
      <trkpt lat="42.4047" lon="-0.17221">
        <ele>914.2</ele>
      </trkpt>
      <trkpt lat="42.40479" lon="-0.17235">
        <ele>913.1</ele>
      </trkpt>
      <trkpt lat="42.40506" lon="-0.17265">
        <ele>911</ele>
      </trkpt>
      <trkpt lat="42.40518" lon="-0.17281">
        <ele>912.6</ele>
      </trkpt>
      <trkpt lat="42.40529" lon="-0.17299">
        <ele>913.3</ele>
      </trkpt>
      <trkpt lat="42.40567" lon="-0.17388">
        <ele>912.3</ele>
      </trkpt>
      <trkpt lat="42.40569" lon="-0.17394">
        <ele>912.1</ele>
      </trkpt>
      <trkpt lat="42.40586" lon="-0.1743">
        <ele>911.3</ele>
      </trkpt>
      <trkpt lat="42.40589" lon="-0.17445">
        <ele>911.5</ele>
      </trkpt>
      <trkpt lat="42.40589" lon="-0.17462">
        <ele>910.9</ele>
      </trkpt>
      <trkpt lat="42.40585" lon="-0.17503">
        <ele>908.3</ele>
      </trkpt>
      <trkpt lat="42.40601" lon="-0.17601">
        <ele>908</ele>
      </trkpt>
      <trkpt lat="42.40603" lon="-0.17624">
        <ele>908</ele>
      </trkpt>
      <trkpt lat="42.40601" lon="-0.17648">
        <ele>907.1</ele>
      </trkpt>
      <trkpt lat="42.40541" lon="-0.17912">
        <ele>905.5</ele>
      </trkpt>
      <trkpt lat="42.40535" lon="-0.17945">
        <ele>904.1</ele>
      </trkpt>
      <trkpt lat="42.40533" lon="-0.17968">
        <ele>903.1</ele>
      </trkpt>
      <trkpt lat="42.40532" lon="-0.17989">
        <ele>902.2</ele>
      </trkpt>
      <trkpt lat="42.40539" lon="-0.1803">
        <ele>901.6</ele>
      </trkpt>
      <trkpt lat="42.40565" lon="-0.18126">
        <ele>902.3</ele>
      </trkpt>
      <trkpt lat="42.40571" lon="-0.18153">
        <ele>902.1</ele>
      </trkpt>
      <trkpt lat="42.40573" lon="-0.18184">
        <ele>901.3</ele>
      </trkpt>
      <trkpt lat="42.40572" lon="-0.18227">
        <ele>900</ele>
      </trkpt>
      <trkpt lat="42.40575" lon="-0.18252">
        <ele>899.2</ele>
      </trkpt>
      <trkpt lat="42.40576" lon="-0.18271">
        <ele>899.2</ele>
      </trkpt>
      <trkpt lat="42.40573" lon="-0.18285">
        <ele>899.2</ele>
      </trkpt>
      <trkpt lat="42.40557" lon="-0.18318">
        <ele>899.6</ele>
      </trkpt>
      <trkpt lat="42.40555" lon="-0.18339">
        <ele>899.6</ele>
      </trkpt>
      <trkpt lat="42.40559" lon="-0.1848">
        <ele>895</ele>
      </trkpt>
      <trkpt lat="42.40556" lon="-0.18512">
        <ele>893.9</ele>
      </trkpt>
      <trkpt lat="42.40548" lon="-0.18528">
        <ele>893.8</ele>
      </trkpt>
      <trkpt lat="42.40526" lon="-0.18561">
        <ele>893.5</ele>
      </trkpt>
      <trkpt lat="42.40512" lon="-0.1858">
        <ele>893.4</ele>
      </trkpt>
      <trkpt lat="42.40503" lon="-0.1859">
        <ele>893.9</ele>
      </trkpt>
      <trkpt lat="42.40491" lon="-0.186">
        <ele>894.7</ele>
      </trkpt>
      <trkpt lat="42.40471" lon="-0.18613">
        <ele>895</ele>
      </trkpt>
      <trkpt lat="42.40459" lon="-0.18619">
        <ele>894.7</ele>
      </trkpt>
      <trkpt lat="42.40442" lon="-0.18623">
        <ele>893.8</ele>
      </trkpt>
      <trkpt lat="42.40429" lon="-0.18632">
        <ele>893</ele>
      </trkpt>
      <trkpt lat="42.40423" lon="-0.18641">
        <ele>892.6</ele>
      </trkpt>
      <trkpt lat="42.40423" lon="-0.18642">
        <ele>892.6</ele>
      </trkpt>
      <trkpt lat="42.40419" lon="-0.18652">
        <ele>892.3</ele>
      </trkpt>
      <trkpt lat="42.4042" lon="-0.18666">
        <ele>892.4</ele>
      </trkpt>
      <trkpt lat="42.40421" lon="-0.18675">
        <ele>892.5</ele>
      </trkpt>
      <trkpt lat="42.40443" lon="-0.18717">
        <ele>894.9</ele>
      </trkpt>
      <trkpt lat="42.40474" lon="-0.18768">
        <ele>897.9</ele>
      </trkpt>
      <trkpt lat="42.40491" lon="-0.18797">
        <ele>898</ele>
      </trkpt>
      <trkpt lat="42.40508" lon="-0.18827">
        <ele>899.1</ele>
      </trkpt>
      <trkpt lat="42.40514" lon="-0.18845">
        <ele>900.6</ele>
      </trkpt>
      <trkpt lat="42.40517" lon="-0.18862">
        <ele>901.4</ele>
      </trkpt>
      <trkpt lat="42.40517" lon="-0.18884">
        <ele>901.1</ele>
      </trkpt>
      <trkpt lat="42.40512" lon="-0.18917">
        <ele>899</ele>
      </trkpt>
      <trkpt lat="42.40488" lon="-0.1899">
        <ele>894.1</ele>
      </trkpt>
      <trkpt lat="42.40486" lon="-0.1901">
        <ele>892.9</ele>
      </trkpt>
      <trkpt lat="42.40491" lon="-0.19028">
        <ele>891.7</ele>
      </trkpt>
      <trkpt lat="42.40504" lon="-0.19056">
        <ele>890.1</ele>
      </trkpt>
      <trkpt lat="42.40518" lon="-0.19075">
        <ele>889.5</ele>
      </trkpt>
      <trkpt lat="42.40532" lon="-0.19087">
        <ele>889.6</ele>
      </trkpt>
      <trkpt lat="42.40582" lon="-0.19104">
        <ele>892.7</ele>
      </trkpt>
      <trkpt lat="42.4068" lon="-0.19123">
        <ele>899.2</ele>
      </trkpt>
      <trkpt lat="42.40691" lon="-0.19127">
        <ele>900.7</ele>
      </trkpt>
      <trkpt lat="42.40701" lon="-0.19135">
        <ele>901.1</ele>
      </trkpt>
      <trkpt lat="42.4071" lon="-0.19147">
        <ele>900.5</ele>
      </trkpt>
      <trkpt lat="42.40717" lon="-0.19161">
        <ele>899.1</ele>
      </trkpt>
      <trkpt lat="42.40723" lon="-0.19184">
        <ele>898.5</ele>
      </trkpt>
      <trkpt lat="42.40728" lon="-0.19209">
        <ele>898.4</ele>
      </trkpt>
      <trkpt lat="42.40729" lon="-0.19233">
        <ele>897.5</ele>
      </trkpt>
      <trkpt lat="42.40724" lon="-0.19256">
        <ele>895.8</ele>
      </trkpt>
      <trkpt lat="42.40698" lon="-0.19333">
        <ele>888.7</ele>
      </trkpt>
      <trkpt lat="42.40693" lon="-0.19364">
        <ele>885.5</ele>
      </trkpt>
      <trkpt lat="42.40695" lon="-0.19381">
        <ele>884.4</ele>
      </trkpt>
      <trkpt lat="42.407" lon="-0.19396">
        <ele>883.6</ele>
      </trkpt>
      <trkpt lat="42.4071" lon="-0.19407">
        <ele>883.1</ele>
      </trkpt>
      <trkpt lat="42.40722" lon="-0.19412">
        <ele>882.9</ele>
      </trkpt>
      <trkpt lat="42.40762" lon="-0.19413">
        <ele>886.1</ele>
      </trkpt>
      <trkpt lat="42.40792" lon="-0.1943">
        <ele>891.1</ele>
      </trkpt>
      <trkpt lat="42.40798" lon="-0.19436">
        <ele>892.1</ele>
      </trkpt>
      <trkpt lat="42.40802" lon="-0.19449">
        <ele>892.4</ele>
      </trkpt>
      <trkpt lat="42.40803" lon="-0.19462">
        <ele>892.2</ele>
      </trkpt>
      <trkpt lat="42.408" lon="-0.19482">
        <ele>890.8</ele>
      </trkpt>
      <trkpt lat="42.4079" lon="-0.19506">
        <ele>888.1</ele>
      </trkpt>
      <trkpt lat="42.40784" lon="-0.19524">
        <ele>886.6</ele>
      </trkpt>
      <trkpt lat="42.40779" lon="-0.19552">
        <ele>885.3</ele>
      </trkpt>
      <trkpt lat="42.40766" lon="-0.19663">
        <ele>881.5</ele>
      </trkpt>
      <trkpt lat="42.40766" lon="-0.19686">
        <ele>881</ele>
      </trkpt>
      <trkpt lat="42.4077" lon="-0.19786">
        <ele>878.2</ele>
      </trkpt>
      <trkpt lat="42.40773" lon="-0.19802">
        <ele>877.7</ele>
      </trkpt>
      <trkpt lat="42.40788" lon="-0.19829">
        <ele>877.1</ele>
      </trkpt>
      <trkpt lat="42.40814" lon="-0.19861">
        <ele>876.9</ele>
      </trkpt>
      <trkpt lat="42.40835" lon="-0.19887">
        <ele>875.8</ele>
      </trkpt>
      <trkpt lat="42.40856" lon="-0.19915">
        <ele>878.7</ele>
      </trkpt>
      <trkpt lat="42.40896" lon="-0.19965">
        <ele>884.5</ele>
      </trkpt>
      <trkpt lat="42.40906" lon="-0.19979">
        <ele>885.1</ele>
      </trkpt>
      <trkpt lat="42.40911" lon="-0.19994">
        <ele>884.8</ele>
      </trkpt>
      <trkpt lat="42.40913" lon="-0.20012">
        <ele>885</ele>
      </trkpt>
      <trkpt lat="42.40913" lon="-0.20033">
        <ele>885.8</ele>
      </trkpt>
      <trkpt lat="42.40905" lon="-0.20068">
        <ele>886.3</ele>
      </trkpt>
      <trkpt lat="42.40889" lon="-0.20129">
        <ele>885.2</ele>
      </trkpt>
      <trkpt lat="42.40866" lon="-0.20224">
        <ele>883.1</ele>
      </trkpt>
      <trkpt lat="42.40845" lon="-0.20276">
        <ele>876.5</ele>
      </trkpt>
      <trkpt lat="42.40843" lon="-0.20283">
        <ele>875.7</ele>
      </trkpt>
      <trkpt lat="42.40838" lon="-0.20302">
        <ele>873.5</ele>
      </trkpt>
      <trkpt lat="42.40837" lon="-0.20328">
        <ele>872.3</ele>
      </trkpt>
      <trkpt lat="42.40838" lon="-0.20346">
        <ele>871.7</ele>
      </trkpt>
      <trkpt lat="42.40842" lon="-0.20362">
        <ele>871.8</ele>
      </trkpt>
      <trkpt lat="42.4086" lon="-0.20395">
        <ele>873.6</ele>
      </trkpt>
      <trkpt lat="42.40873" lon="-0.20424">
        <ele>874.3</ele>
      </trkpt>
      <trkpt lat="42.40876" lon="-0.20441">
        <ele>875.3</ele>
      </trkpt>
      <trkpt lat="42.40875" lon="-0.20472">
        <ele>875.8</ele>
      </trkpt>
      <trkpt lat="42.40873" lon="-0.20497">
        <ele>875.8</ele>
      </trkpt>
      <trkpt lat="42.40855" lon="-0.20561">
        <ele>870.2</ele>
      </trkpt>
      <trkpt lat="42.40845" lon="-0.20613">
        <ele>869.5</ele>
      </trkpt>
      <trkpt lat="42.40839" lon="-0.2063">
        <ele>869</ele>
      </trkpt>
      <trkpt lat="42.40824" lon="-0.20661">
        <ele>869.8</ele>
      </trkpt>
      <trkpt lat="42.40781" lon="-0.20709">
        <ele>868.9</ele>
      </trkpt>
      <trkpt lat="42.40775" lon="-0.20719">
        <ele>868.1</ele>
      </trkpt>
      <trkpt lat="42.4077" lon="-0.20736">
        <ele>867.3</ele>
      </trkpt>
      <trkpt lat="42.40772" lon="-0.20751">
        <ele>868.1</ele>
      </trkpt>
      <trkpt lat="42.40779" lon="-0.20773">
        <ele>870</ele>
      </trkpt>
      <trkpt lat="42.40835" lon="-0.2094">
        <ele>855.9</ele>
      </trkpt>
      <trkpt lat="42.40854" lon="-0.20976">
        <ele>856.5</ele>
      </trkpt>
      <trkpt lat="42.40858" lon="-0.20988">
        <ele>856</ele>
      </trkpt>
      <trkpt lat="42.40862" lon="-0.2113">
        <ele>867.8</ele>
      </trkpt>
      <trkpt lat="42.40866" lon="-0.21144">
        <ele>868.3</ele>
      </trkpt>
      <trkpt lat="42.40872" lon="-0.21156">
        <ele>868.5</ele>
      </trkpt>
      <trkpt lat="42.40892" lon="-0.21183">
        <ele>867.6</ele>
      </trkpt>
      <trkpt lat="42.40915" lon="-0.21223">
        <ele>861.8</ele>
      </trkpt>
      <trkpt lat="42.40922" lon="-0.21241">
        <ele>861.1</ele>
      </trkpt>
      <trkpt lat="42.40924" lon="-0.21258">
        <ele>860.9</ele>
      </trkpt>
      <trkpt lat="42.40924" lon="-0.21301">
        <ele>862.4</ele>
      </trkpt>
      <trkpt lat="42.40915" lon="-0.21343">
        <ele>862.3</ele>
      </trkpt>
      <trkpt lat="42.4091" lon="-0.21362">
        <ele>864.4</ele>
      </trkpt>
      <trkpt lat="42.40902" lon="-0.21379">
        <ele>865.7</ele>
      </trkpt>
      <trkpt lat="42.40864" lon="-0.21443">
        <ele>862.1</ele>
      </trkpt>
      <trkpt lat="42.40839" lon="-0.21489">
        <ele>856.6</ele>
      </trkpt>
      <trkpt lat="42.4083" lon="-0.21514">
        <ele>855.2</ele>
      </trkpt>
      <trkpt lat="42.40829" lon="-0.21527">
        <ele>854.9</ele>
      </trkpt>
      <trkpt lat="42.40829" lon="-0.21548">
        <ele>853.9</ele>
      </trkpt>
      <trkpt lat="42.40832" lon="-0.21569">
        <ele>852.1</ele>
      </trkpt>
      <trkpt lat="42.40844" lon="-0.21607">
        <ele>853.2</ele>
      </trkpt>
      <trkpt lat="42.40859" lon="-0.21634">
        <ele>854.4</ele>
      </trkpt>
      <trkpt lat="42.40864" lon="-0.2164">
        <ele>854.5</ele>
      </trkpt>
      <trkpt lat="42.40872" lon="-0.21644">
        <ele>854.7</ele>
      </trkpt>
      <trkpt lat="42.40909" lon="-0.21654">
        <ele>855.2</ele>
      </trkpt>
      <trkpt lat="42.40918" lon="-0.21659">
        <ele>854.8</ele>
      </trkpt>
      <trkpt lat="42.40933" lon="-0.21674">
        <ele>856.5</ele>
      </trkpt>
      <trkpt lat="42.40945" lon="-0.2169">
        <ele>858.3</ele>
      </trkpt>
      <trkpt lat="42.40957" lon="-0.21709">
        <ele>859.9</ele>
      </trkpt>
      <trkpt lat="42.40967" lon="-0.21756">
        <ele>859.7</ele>
      </trkpt>
      <trkpt lat="42.40967" lon="-0.21777">
        <ele>861</ele>
      </trkpt>
      <trkpt lat="42.40964" lon="-0.21793">
        <ele>861.1</ele>
      </trkpt>
      <trkpt lat="42.40927" lon="-0.21893">
        <ele>850.6</ele>
      </trkpt>
      <trkpt lat="42.40911" lon="-0.21961">
        <ele>846.7</ele>
      </trkpt>
      <trkpt lat="42.4091" lon="-0.21979">
        <ele>846.3</ele>
      </trkpt>
      <trkpt lat="42.40911" lon="-0.21994">
        <ele>845.5</ele>
      </trkpt>
      <trkpt lat="42.40932" lon="-0.2212">
        <ele>847.4</ele>
      </trkpt>
      <trkpt lat="42.40934" lon="-0.22145">
        <ele>848</ele>
      </trkpt>
      <trkpt lat="42.40935" lon="-0.22163">
        <ele>848.3</ele>
      </trkpt>
      <trkpt lat="42.40944" lon="-0.22291">
        <ele>848.6</ele>
      </trkpt>
      <trkpt lat="42.40943" lon="-0.22302">
        <ele>847.5</ele>
      </trkpt>
      <trkpt lat="42.4094" lon="-0.22318">
        <ele>845.8</ele>
      </trkpt>
      <trkpt lat="42.40929" lon="-0.22338">
        <ele>843.9</ele>
      </trkpt>
      <trkpt lat="42.40923" lon="-0.22351">
        <ele>846</ele>
      </trkpt>
      <trkpt lat="42.40911" lon="-0.22368">
        <ele>848.6</ele>
      </trkpt>
      <trkpt lat="42.40875" lon="-0.22403">
        <ele>849</ele>
      </trkpt>
      <trkpt lat="42.40832" lon="-0.22435">
        <ele>842.3</ele>
      </trkpt>
      <trkpt lat="42.40812" lon="-0.22454">
        <ele>843.1</ele>
      </trkpt>
      <trkpt lat="42.40801" lon="-0.22471">
        <ele>843.2</ele>
      </trkpt>
      <trkpt lat="42.40797" lon="-0.22483">
        <ele>843.2</ele>
      </trkpt>
      <trkpt lat="42.40793" lon="-0.225">
        <ele>843.1</ele>
      </trkpt>
      <trkpt lat="42.40792" lon="-0.22526">
        <ele>843.4</ele>
      </trkpt>
      <trkpt lat="42.40795" lon="-0.22567">
        <ele>844.3</ele>
      </trkpt>
      <trkpt lat="42.40801" lon="-0.22597">
        <ele>845.8</ele>
      </trkpt>
      <trkpt lat="42.40813" lon="-0.22652">
        <ele>848.8</ele>
      </trkpt>
      <trkpt lat="42.40813" lon="-0.22677">
        <ele>849.7</ele>
      </trkpt>
      <trkpt lat="42.40797" lon="-0.22739">
        <ele>848.3</ele>
      </trkpt>
      <trkpt lat="42.40791" lon="-0.22752">
        <ele>846.9</ele>
      </trkpt>
      <trkpt lat="42.40763" lon="-0.22798">
        <ele>840.7</ele>
      </trkpt>
      <trkpt lat="42.40754" lon="-0.22817">
        <ele>838.6</ele>
      </trkpt>
      <trkpt lat="42.40738" lon="-0.22888">
        <ele>840.7</ele>
      </trkpt>
      <trkpt lat="42.40734" lon="-0.22899">
        <ele>840.7</ele>
      </trkpt>
      <trkpt lat="42.40699" lon="-0.22964">
        <ele>839.5</ele>
      </trkpt>
      <trkpt lat="42.40684" lon="-0.23001">
        <ele>838.1</ele>
      </trkpt>
      <trkpt lat="42.40681" lon="-0.23028">
        <ele>837.9</ele>
      </trkpt>
      <trkpt lat="42.40684" lon="-0.23118">
        <ele>842.2</ele>
      </trkpt>
      <trkpt lat="42.40682" lon="-0.23139">
        <ele>842</ele>
      </trkpt>
      <trkpt lat="42.40678" lon="-0.23171">
        <ele>841.5</ele>
      </trkpt>
      <trkpt lat="42.40673" lon="-0.23197">
        <ele>841.9</ele>
      </trkpt>
      <trkpt lat="42.40667" lon="-0.23215">
        <ele>841.4</ele>
      </trkpt>
      <trkpt lat="42.40662" lon="-0.23226">
        <ele>841.7</ele>
      </trkpt>
      <trkpt lat="42.40648" lon="-0.23247">
        <ele>841.4</ele>
      </trkpt>
      <trkpt lat="42.40605" lon="-0.23288">
        <ele>837.7</ele>
      </trkpt>
      <trkpt lat="42.40591" lon="-0.23304">
        <ele>835</ele>
      </trkpt>
      <trkpt lat="42.40587" lon="-0.23313">
        <ele>834.2</ele>
      </trkpt>
      <trkpt lat="42.40582" lon="-0.23329">
        <ele>833.9</ele>
      </trkpt>
      <trkpt lat="42.40576" lon="-0.2341">
        <ele>839.2</ele>
      </trkpt>
      <trkpt lat="42.40569" lon="-0.23447">
        <ele>842</ele>
      </trkpt>
      <trkpt lat="42.40531" lon="-0.23533">
        <ele>838.9</ele>
      </trkpt>
      <trkpt lat="42.40527" lon="-0.23547">
        <ele>838.1</ele>
      </trkpt>
      <trkpt lat="42.40524" lon="-0.23564">
        <ele>837.5</ele>
      </trkpt>
      <trkpt lat="42.40521" lon="-0.23634">
        <ele>841.8</ele>
      </trkpt>
      <trkpt lat="42.40516" lon="-0.23661">
        <ele>842.4</ele>
      </trkpt>
      <trkpt lat="42.4051" lon="-0.23675">
        <ele>842.2</ele>
      </trkpt>
      <trkpt lat="42.40494" lon="-0.237">
        <ele>842.5</ele>
      </trkpt>
      <trkpt lat="42.40479" lon="-0.23717">
        <ele>842.9</ele>
      </trkpt>
      <trkpt lat="42.40432" lon="-0.23764">
        <ele>834.7</ele>
      </trkpt>
      <trkpt lat="42.40407" lon="-0.23797">
        <ele>832.8</ele>
      </trkpt>
      <trkpt lat="42.40401" lon="-0.23815">
        <ele>834.6</ele>
      </trkpt>
      <trkpt lat="42.40401" lon="-0.23815">
        <ele>834.6</ele>
      </trkpt>
      <trkpt lat="42.40397" lon="-0.23833">
        <ele>836.2</ele>
      </trkpt>
      <trkpt lat="42.40395" lon="-0.23858">
        <ele>837.9</ele>
      </trkpt>
      <trkpt lat="42.40399" lon="-0.2391">
        <ele>841.7</ele>
      </trkpt>
      <trkpt lat="42.40406" lon="-0.23971">
        <ele>838.9</ele>
      </trkpt>
      <trkpt lat="42.40418" lon="-0.24025">
        <ele>835.2</ele>
      </trkpt>
      <trkpt lat="42.40429" lon="-0.24092">
        <ele>833.9</ele>
      </trkpt>
      <trkpt lat="42.4043" lon="-0.24118">
        <ele>836.7</ele>
      </trkpt>
      <trkpt lat="42.40429" lon="-0.24134">
        <ele>837.8</ele>
      </trkpt>
      <trkpt lat="42.40426" lon="-0.24152">
        <ele>838.3</ele>
      </trkpt>
      <trkpt lat="42.4041" lon="-0.24206">
        <ele>845</ele>
      </trkpt>
      <trkpt lat="42.40397" lon="-0.24236">
        <ele>848.3</ele>
      </trkpt>
      <trkpt lat="42.40381" lon="-0.24264">
        <ele>845.2</ele>
      </trkpt>
      <trkpt lat="42.40369" lon="-0.24313">
        <ele>840</ele>
      </trkpt>
      <trkpt lat="42.40367" lon="-0.24324">
        <ele>839.1</ele>
      </trkpt>
      <trkpt lat="42.40365" lon="-0.24349">
        <ele>837.1</ele>
      </trkpt>
      <trkpt lat="42.40364" lon="-0.24417">
        <ele>831.8</ele>
      </trkpt>
      <trkpt lat="42.4036" lon="-0.24431">
        <ele>831.9</ele>
      </trkpt>
      <trkpt lat="42.40355" lon="-0.24443">
        <ele>831.6</ele>
      </trkpt>
      <trkpt lat="42.40349" lon="-0.24452">
        <ele>830.7</ele>
      </trkpt>
      <trkpt lat="42.40319" lon="-0.24495">
        <ele>829.8</ele>
      </trkpt>
      <trkpt lat="42.40315" lon="-0.24505">
        <ele>830</ele>
      </trkpt>
      <trkpt lat="42.40312" lon="-0.24517">
        <ele>830</ele>
      </trkpt>
      <trkpt lat="42.40313" lon="-0.24547">
        <ele>830.2</ele>
      </trkpt>
      <trkpt lat="42.40328" lon="-0.2463">
        <ele>829.5</ele>
      </trkpt>
      <trkpt lat="42.40336" lon="-0.24685">
        <ele>831.1</ele>
      </trkpt>
      <trkpt lat="42.40332" lon="-0.24713">
        <ele>833.4</ele>
      </trkpt>
      <trkpt lat="42.40323" lon="-0.24733">
        <ele>834</ele>
      </trkpt>
      <trkpt lat="42.40309" lon="-0.24757">
        <ele>833.5</ele>
      </trkpt>
      <trkpt lat="42.4029" lon="-0.24784">
        <ele>832.6</ele>
      </trkpt>
      <trkpt lat="42.40269" lon="-0.24809">
        <ele>830</ele>
      </trkpt>
      <trkpt lat="42.40247" lon="-0.2483">
        <ele>826.4</ele>
      </trkpt>
      <trkpt lat="42.4021" lon="-0.24863">
        <ele>822.6</ele>
      </trkpt>
      <trkpt lat="42.40183" lon="-0.24886">
        <ele>819</ele>
      </trkpt>
      <trkpt lat="42.40173" lon="-0.249">
        <ele>817.4</ele>
      </trkpt>
      <trkpt lat="42.40129" lon="-0.25006">
        <ele>822.6</ele>
      </trkpt>
      <trkpt lat="42.40105" lon="-0.25069">
        <ele>823</ele>
      </trkpt>
      <trkpt lat="42.40096" lon="-0.25103">
        <ele>820.4</ele>
      </trkpt>
      <trkpt lat="42.40095" lon="-0.25113">
        <ele>819.7</ele>
      </trkpt>
      <trkpt lat="42.40095" lon="-0.25132">
        <ele>819.1</ele>
      </trkpt>
      <trkpt lat="42.40112" lon="-0.2545">
        <ele>825.4</ele>
      </trkpt>
      <trkpt lat="42.4011" lon="-0.25483">
        <ele>824.5</ele>
      </trkpt>
      <trkpt lat="42.40108" lon="-0.25495">
        <ele>823.8</ele>
      </trkpt>
      <trkpt lat="42.40089" lon="-0.25566">
        <ele>819.3</ele>
      </trkpt>
      <trkpt lat="42.40076" lon="-0.25665">
        <ele>814.4</ele>
      </trkpt>
      <trkpt lat="42.40045" lon="-0.25876">
        <ele>819.6</ele>
      </trkpt>
      <trkpt lat="42.40034" lon="-0.25909">
        <ele>817.7</ele>
      </trkpt>
      <trkpt lat="42.39997" lon="-0.2598">
        <ele>814.9</ele>
      </trkpt>
      <trkpt lat="42.39987" lon="-0.26007">
        <ele>816</ele>
      </trkpt>
      <trkpt lat="42.39968" lon="-0.26109">
        <ele>820</ele>
      </trkpt>
      <trkpt lat="42.39968" lon="-0.26109">
        <ele>820</ele>
      </trkpt>
      <trkpt lat="42.39964" lon="-0.2612">
        <ele>821.2</ele>
      </trkpt>
      <trkpt lat="42.39952" lon="-0.2614">
        <ele>822.5</ele>
      </trkpt>
      <trkpt lat="42.39945" lon="-0.26148">
        <ele>822.7</ele>
      </trkpt>
      <trkpt lat="42.39818" lon="-0.26213">
        <ele>815</ele>
      </trkpt>
      <trkpt lat="42.39758" lon="-0.2624">
        <ele>807.2</ele>
      </trkpt>
      <trkpt lat="42.39745" lon="-0.2625">
        <ele>805.6</ele>
      </trkpt>
      <trkpt lat="42.3972" lon="-0.26286">
        <ele>806.6</ele>
      </trkpt>
      <trkpt lat="42.39708" lon="-0.26306">
        <ele>806.5</ele>
      </trkpt>
      <trkpt lat="42.39696" lon="-0.26334">
        <ele>806.4</ele>
      </trkpt>
      <trkpt lat="42.39631" lon="-0.26531">
        <ele>813.3</ele>
      </trkpt>
      <trkpt lat="42.39622" lon="-0.26554">
        <ele>813</ele>
      </trkpt>
      <trkpt lat="42.39593" lon="-0.26611">
        <ele>812.3</ele>
      </trkpt>
      <trkpt lat="42.39551" lon="-0.26677">
        <ele>813.1</ele>
      </trkpt>
      <trkpt lat="42.39541" lon="-0.26696">
        <ele>813.4</ele>
      </trkpt>
      <trkpt lat="42.39463" lon="-0.2687">
        <ele>808.4</ele>
      </trkpt>
      <trkpt lat="42.39443" lon="-0.26936">
        <ele>806.9</ele>
      </trkpt>
      <trkpt lat="42.39434" lon="-0.26953">
        <ele>808.1</ele>
      </trkpt>
      <trkpt lat="42.39416" lon="-0.2697">
        <ele>808.4</ele>
      </trkpt>
      <trkpt lat="42.39359" lon="-0.27008">
        <ele>806.2</ele>
      </trkpt>
      <trkpt lat="42.39328" lon="-0.27026">
        <ele>805.8</ele>
      </trkpt>
      <trkpt lat="42.39246" lon="-0.27064">
        <ele>801</ele>
      </trkpt>
      <trkpt lat="42.39227" lon="-0.27076">
        <ele>800.4</ele>
      </trkpt>
      <trkpt lat="42.39218" lon="-0.27084">
        <ele>800.3</ele>
      </trkpt>
      <trkpt lat="42.39163" lon="-0.2714">
        <ele>800.4</ele>
      </trkpt>
      <trkpt lat="42.3914" lon="-0.27168">
        <ele>799.9</ele>
      </trkpt>
      <trkpt lat="42.39134" lon="-0.2718">
        <ele>799.5</ele>
      </trkpt>
      <trkpt lat="42.39129" lon="-0.27197">
        <ele>799.5</ele>
      </trkpt>
      <trkpt lat="42.39123" lon="-0.2723">
        <ele>799.8</ele>
      </trkpt>
      <trkpt lat="42.39113" lon="-0.27294">
        <ele>799.1</ele>
      </trkpt>
    </trkseg>
  </trk>
  <trk>
    <name><![CDATA[TOTAL 4x4 _15]]></name>
    <extensions>
      <line xmlns="http://www.topografix.com/GPX/gpx_style/0/2">
        <color>00FFFF</color>
        <width>4</width>
      </line>
    </extensions>
    <trkseg>
      <trkpt lat="42.28075" lon="0.16091">
        <ele>614.54</ele>
        <time>2021-08-02T11:59:57Z</time>
      </trkpt>
      <trkpt lat="42.28063" lon="0.16082">
        <ele>615.23</ele>
        <time>2021-08-02T11:59:58Z</time>
      </trkpt>
      <trkpt lat="42.2803" lon="0.1605">
        <ele>617.68</ele>
        <time>2021-08-02T12:00:02Z</time>
      </trkpt>
      <trkpt lat="42.27997" lon="0.16029">
        <ele>619.52</ele>
        <time>2021-08-02T12:00:06Z</time>
      </trkpt>
      <trkpt lat="42.27908" lon="0.15993">
        <ele>623.37</ele>
        <time>2021-08-02T12:00:15Z</time>
      </trkpt>
      <trkpt lat="42.27865" lon="0.15967">
        <ele>626.3</ele>
        <time>2021-08-02T12:00:21Z</time>
      </trkpt>
      <trkpt lat="42.27861" lon="0.15964">
        <ele>629.02</ele>
        <time>2021-08-02T12:00:28Z</time>
      </trkpt>
      <trkpt lat="42.27861" lon="0.15964">
        <ele>630.13</ele>
        <time>2021-08-02T12:00:38Z</time>
      </trkpt>
      <trkpt lat="42.27799" lon="0.15954">
        <ele>631.94</ele>
        <time>2021-08-02T12:00:49Z</time>
      </trkpt>
      <trkpt lat="42.27742" lon="0.15977">
        <ele>634.09</ele>
        <time>2021-08-02T12:01:00Z</time>
      </trkpt>
      <trkpt lat="42.27737" lon="0.15979">
        <ele>634.37</ele>
        <time>2021-08-02T12:01:01Z</time>
      </trkpt>
      <trkpt lat="42.27714" lon="0.15991">
        <ele>637.93</ele>
        <time>2021-08-02T12:01:08Z</time>
      </trkpt>
      <trkpt lat="42.27704" lon="0.15975">
        <ele>640.54</ele>
        <time>2021-08-02T12:01:14Z</time>
      </trkpt>
      <trkpt lat="42.27702" lon="0.15963">
        <ele>641.62</ele>
        <time>2021-08-02T12:01:25Z</time>
      </trkpt>
      <trkpt lat="42.27686" lon="0.15942">
        <ele>641.77</ele>
        <time>2021-08-02T12:02:03Z</time>
      </trkpt>
      <trkpt lat="42.27634" lon="0.1588">
        <ele>642.94</ele>
        <time>2021-08-02T12:02:11Z</time>
      </trkpt>
      <trkpt lat="42.27614" lon="0.15849">
        <ele>643.47</ele>
        <time>2021-08-02T12:02:14Z</time>
      </trkpt>
      <trkpt lat="42.27555" lon="0.1579">
        <ele>646.92</ele>
        <time>2021-08-02T12:02:24Z</time>
      </trkpt>
      <trkpt lat="42.27543" lon="0.15785">
        <ele>648.63</ele>
        <time>2021-08-02T12:02:27Z</time>
      </trkpt>
      <trkpt lat="42.27515" lon="0.1577">
        <ele>650.81</ele>
        <time>2021-08-02T12:02:32Z</time>
      </trkpt>
      <trkpt lat="42.27495" lon="0.15747">
        <ele>653.46</ele>
        <time>2021-08-02T12:02:38Z</time>
      </trkpt>
      <trkpt lat="42.27484" lon="0.15732">
        <ele>654.8</ele>
        <time>2021-08-02T12:02:41Z</time>
      </trkpt>
      <trkpt lat="42.27463" lon="0.15707">
        <ele>658.72</ele>
        <time>2021-08-02T12:02:47Z</time>
      </trkpt>
      <trkpt lat="42.27458" lon="0.15698">
        <ele>659.9</ele>
        <time>2021-08-02T12:02:49Z</time>
      </trkpt>
      <trkpt lat="42.27432" lon="0.15688">
        <ele>663.7</ele>
        <time>2021-08-02T12:02:56Z</time>
      </trkpt>
      <trkpt lat="42.27397" lon="0.15681">
        <ele>667.72</ele>
        <time>2021-08-02T12:03:04Z</time>
      </trkpt>
      <trkpt lat="42.27353" lon="0.15666">
        <ele>671.31</ele>
        <time>2021-08-02T12:03:10Z</time>
      </trkpt>
      <trkpt lat="42.27339" lon="0.15664">
        <ele>673</ele>
        <time>2021-08-02T12:03:12Z</time>
      </trkpt>
      <trkpt lat="42.27323" lon="0.15657">
        <ele>674.87</ele>
        <time>2021-08-02T12:03:14Z</time>
      </trkpt>
      <trkpt lat="42.27295" lon="0.15654">
        <ele>679</ele>
        <time>2021-08-02T12:03:18Z</time>
      </trkpt>
      <trkpt lat="42.27277" lon="0.15647">
        <ele>682.32</ele>
        <time>2021-08-02T12:03:21Z</time>
      </trkpt>
      <trkpt lat="42.27254" lon="0.15637">
        <ele>686.31</ele>
        <time>2021-08-02T12:03:25Z</time>
      </trkpt>
      <trkpt lat="42.27231" lon="0.15636">
        <ele>691.33</ele>
        <time>2021-08-02T12:03:30Z</time>
      </trkpt>
      <trkpt lat="42.27227" lon="0.15636">
        <ele>692.35</ele>
        <time>2021-08-02T12:03:31Z</time>
      </trkpt>
      <trkpt lat="42.27197" lon="0.15643">
        <ele>696.02</ele>
        <time>2021-08-02T12:03:36Z</time>
      </trkpt>
      <trkpt lat="42.27178" lon="0.15645">
        <ele>698.33</ele>
        <time>2021-08-02T12:03:39Z</time>
      </trkpt>
      <trkpt lat="42.27165" lon="0.15647">
        <ele>699.54</ele>
        <time>2021-08-02T12:03:41Z</time>
      </trkpt>
      <trkpt lat="42.27143" lon="0.15661">
        <ele>702.13</ele>
        <time>2021-08-02T12:03:45Z</time>
      </trkpt>
      <trkpt lat="42.27123" lon="0.15684">
        <ele>703.6</ele>
        <time>2021-08-02T12:03:49Z</time>
      </trkpt>
      <trkpt lat="42.27097" lon="0.15705">
        <ele>704.31</ele>
        <time>2021-08-02T12:03:56Z</time>
      </trkpt>
      <trkpt lat="42.27095" lon="0.15702">
        <ele>705.02</ele>
        <time>2021-08-02T12:03:58Z</time>
      </trkpt>
      <trkpt lat="42.27076" lon="0.15693">
        <ele>708.43</ele>
        <time>2021-08-02T12:04:07Z</time>
      </trkpt>
      <trkpt lat="42.27055" lon="0.15677">
        <ele>711.58</ele>
        <time>2021-08-02T12:04:15Z</time>
      </trkpt>
      <trkpt lat="42.27038" lon="0.15665">
        <ele>714.61</ele>
        <time>2021-08-02T12:04:21Z</time>
      </trkpt>
      <trkpt lat="42.27022" lon="0.15651">
        <ele>718.1</ele>
        <time>2021-08-02T12:04:27Z</time>
      </trkpt>
      <trkpt lat="42.27009" lon="0.15635">
        <ele>721.16</ele>
        <time>2021-08-02T12:04:34Z</time>
      </trkpt>
      <trkpt lat="42.26993" lon="0.15625">
        <ele>722.82</ele>
        <time>2021-08-02T12:04:39Z</time>
      </trkpt>
      <trkpt lat="42.26977" lon="0.15592">
        <ele>724.19</ele>
        <time>2021-08-02T12:04:45Z</time>
      </trkpt>
      <trkpt lat="42.26962" lon="0.15567">
        <ele>726.15</ele>
        <time>2021-08-02T12:04:50Z</time>
      </trkpt>
      <trkpt lat="42.26944" lon="0.15557">
        <ele>729.1</ele>
        <time>2021-08-02T12:04:55Z</time>
      </trkpt>
      <trkpt lat="42.26919" lon="0.15548">
        <ele>732.18</ele>
        <time>2021-08-02T12:05:02Z</time>
      </trkpt>
      <trkpt lat="42.26916" lon="0.15553">
        <ele>732.72</ele>
        <time>2021-08-02T12:05:03Z</time>
      </trkpt>
      <trkpt lat="42.26901" lon="0.15571">
        <ele>736.14</ele>
        <time>2021-08-02T12:05:08Z</time>
      </trkpt>
      <trkpt lat="42.26886" lon="0.15559">
        <ele>738.12</ele>
        <time>2021-08-02T12:05:12Z</time>
      </trkpt>
      <trkpt lat="42.26849" lon="0.15521">
        <ele>739.8</ele>
        <time>2021-08-02T12:05:24Z</time>
      </trkpt>
      <trkpt lat="42.26834" lon="0.15502">
        <ele>739.79</ele>
        <time>2021-08-02T12:05:28Z</time>
      </trkpt>
      <trkpt lat="42.26819" lon="0.15474">
        <ele>737.89</ele>
        <time>2021-08-02T12:05:37Z</time>
      </trkpt>
      <trkpt lat="42.2679" lon="0.1545">
        <ele>735.44</ele>
        <time>2021-08-02T12:05:50Z</time>
      </trkpt>
      <trkpt lat="42.26751" lon="0.15431">
        <ele>734.56</ele>
        <time>2021-08-02T12:05:57Z</time>
      </trkpt>
      <trkpt lat="42.26702" lon="0.15377">
        <ele>736.31</ele>
        <time>2021-08-02T12:06:05Z</time>
      </trkpt>
      <trkpt lat="42.2669" lon="0.15366">
        <ele>736.21</ele>
        <time>2021-08-02T12:06:09Z</time>
      </trkpt>
      <trkpt lat="42.26681" lon="0.15362">
        <ele>736.04</ele>
        <time>2021-08-02T12:06:12Z</time>
      </trkpt>
      <trkpt lat="42.2666" lon="0.15365">
        <ele>736.34</ele>
        <time>2021-08-02T12:06:17Z</time>
      </trkpt>
      <trkpt lat="42.26646" lon="0.15375">
        <ele>737.23</ele>
        <time>2021-08-02T12:06:21Z</time>
      </trkpt>
      <trkpt lat="42.26608" lon="0.15382">
        <ele>740.65</ele>
        <time>2021-08-02T12:06:30Z</time>
      </trkpt>
      <trkpt lat="42.26595" lon="0.15382">
        <ele>742.2</ele>
        <time>2021-08-02T12:06:33Z</time>
      </trkpt>
      <trkpt lat="42.26582" lon="0.15385">
        <ele>743.81</ele>
        <time>2021-08-02T12:06:36Z</time>
      </trkpt>
      <trkpt lat="42.26562" lon="0.15374">
        <ele>746.9</ele>
        <time>2021-08-02T12:06:42Z</time>
      </trkpt>
      <trkpt lat="42.26557" lon="0.15369">
        <ele>747.74</ele>
        <time>2021-08-02T12:06:44Z</time>
      </trkpt>
      <trkpt lat="42.26544" lon="0.15372">
        <ele>748.8</ele>
        <time>2021-08-02T12:06:48Z</time>
      </trkpt>
      <trkpt lat="42.26512" lon="0.15384">
        <ele>751.85</ele>
        <time>2021-08-02T12:06:56Z</time>
      </trkpt>
      <trkpt lat="42.26502" lon="0.15394">
        <ele>753.16</ele>
        <time>2021-08-02T12:06:59Z</time>
      </trkpt>
      <trkpt lat="42.26493" lon="0.15406">
        <ele>755.1</ele>
        <time>2021-08-02T12:07:02Z</time>
      </trkpt>
      <trkpt lat="42.26474" lon="0.15418">
        <ele>758.22</ele>
        <time>2021-08-02T12:07:07Z</time>
      </trkpt>
      <trkpt lat="42.26459" lon="0.1541">
        <ele>760.42</ele>
        <time>2021-08-02T12:07:11Z</time>
      </trkpt>
      <trkpt lat="42.26443" lon="0.15401">
        <ele>762.77</ele>
        <time>2021-08-02T12:07:15Z</time>
      </trkpt>
      <trkpt lat="42.26399" lon="0.15386">
        <ele>766.53</ele>
        <time>2021-08-02T12:07:22Z</time>
      </trkpt>
      <trkpt lat="42.26386" lon="0.15383">
        <ele>767.76</ele>
        <time>2021-08-02T12:07:24Z</time>
      </trkpt>
      <trkpt lat="42.26358" lon="0.15358">
        <ele>771.48</ele>
        <time>2021-08-02T12:07:29Z</time>
      </trkpt>
      <trkpt lat="42.26317" lon="0.1533">
        <ele>775.86</ele>
        <time>2021-08-02T12:07:34Z</time>
      </trkpt>
      <trkpt lat="42.26289" lon="0.15323">
        <ele>778.87</ele>
        <time>2021-08-02T12:07:38Z</time>
      </trkpt>
      <trkpt lat="42.26275" lon="0.15325">
        <ele>780.52</ele>
        <time>2021-08-02T12:07:40Z</time>
      </trkpt>
      <trkpt lat="42.26243" lon="0.15312">
        <ele>785.79</ele>
        <time>2021-08-02T12:07:45Z</time>
      </trkpt>
      <trkpt lat="42.26215" lon="0.15298">
        <ele>791.52</ele>
        <time>2021-08-02T12:07:50Z</time>
      </trkpt>
      <trkpt lat="42.262" lon="0.15305">
        <ele>794.96</ele>
        <time>2021-08-02T12:07:53Z</time>
      </trkpt>
      <trkpt lat="42.26168" lon="0.15317">
        <ele>799.82</ele>
        <time>2021-08-02T12:07:59Z</time>
      </trkpt>
      <trkpt lat="42.26139" lon="0.15304">
        <ele>803.05</ele>
        <time>2021-08-02T12:08:05Z</time>
      </trkpt>
      <trkpt lat="42.26135" lon="0.15299">
        <ele>803.54</ele>
        <time>2021-08-02T12:08:06Z</time>
      </trkpt>
      <trkpt lat="42.26102" lon="0.15309">
        <ele>808.47</ele>
        <time>2021-08-02T12:08:13Z</time>
      </trkpt>
      <trkpt lat="42.26098" lon="0.15315">
        <ele>809.23</ele>
        <time>2021-08-02T12:08:14Z</time>
      </trkpt>
      <trkpt lat="42.26084" lon="0.15327">
        <ele>812.59</ele>
        <time>2021-08-02T12:08:18Z</time>
      </trkpt>
      <trkpt lat="42.2607" lon="0.15337">
        <ele>816.24</ele>
        <time>2021-08-02T12:08:22Z</time>
      </trkpt>
      <trkpt lat="42.26047" lon="0.15334">
        <ele>820.3</ele>
        <time>2021-08-02T12:08:28Z</time>
      </trkpt>
      <trkpt lat="42.26034" lon="0.15331">
        <ele>824.08</ele>
        <time>2021-08-02T12:08:33Z</time>
      </trkpt>
      <trkpt lat="42.26027" lon="0.1533">
        <ele>824.82</ele>
        <time>2021-08-02T12:08:35Z</time>
      </trkpt>
      <trkpt lat="42.26003" lon="0.15325">
        <ele>828.18</ele>
        <time>2021-08-02T12:08:40Z</time>
      </trkpt>
      <trkpt lat="42.25998" lon="0.15324">
        <ele>828.78</ele>
        <time>2021-08-02T12:08:41Z</time>
      </trkpt>
      <trkpt lat="42.2598" lon="0.15306">
        <ele>832.03</ele>
        <time>2021-08-02T12:08:46Z</time>
      </trkpt>
      <trkpt lat="42.25948" lon="0.15242">
        <ele>835.16</ele>
        <time>2021-08-02T12:08:53Z</time>
      </trkpt>
      <trkpt lat="42.25938" lon="0.15211">
        <ele>836.7</ele>
        <time>2021-08-02T12:08:56Z</time>
      </trkpt>
      <trkpt lat="42.25917" lon="0.15162">
        <ele>839.04</ele>
        <time>2021-08-02T12:09:01Z</time>
      </trkpt>
      <trkpt lat="42.25896" lon="0.15118">
        <ele>840.7</ele>
        <time>2021-08-02T12:09:07Z</time>
      </trkpt>
      <trkpt lat="42.25873" lon="0.15054">
        <ele>840.04</ele>
        <time>2021-08-02T12:09:13Z</time>
      </trkpt>
      <trkpt lat="42.2585" lon="0.14993">
        <ele>837.94</ele>
        <time>2021-08-02T12:09:18Z</time>
      </trkpt>
      <trkpt lat="42.25815" lon="0.1496">
        <ele>836.44</ele>
        <time>2021-08-02T12:09:25Z</time>
      </trkpt>
      <trkpt lat="42.25811" lon="0.14952">
        <ele>836.72</ele>
        <time>2021-08-02T12:09:27Z</time>
      </trkpt>
      <trkpt lat="42.25804" lon="0.14913">
        <ele>838.21</ele>
        <time>2021-08-02T12:09:32Z</time>
      </trkpt>
      <trkpt lat="42.25803" lon="0.14871">
        <ele>839.88</ele>
        <time>2021-08-02T12:09:36Z</time>
      </trkpt>
      <trkpt lat="42.25807" lon="0.14843">
        <ele>840.39</ele>
        <time>2021-08-02T12:09:39Z</time>
      </trkpt>
      <trkpt lat="42.25786" lon="0.14789">
        <ele>841.87</ele>
        <time>2021-08-02T12:09:46Z</time>
      </trkpt>
      <trkpt lat="42.25774" lon="0.14782">
        <ele>842.35</ele>
        <time>2021-08-02T12:09:48Z</time>
      </trkpt>
      <trkpt lat="42.25754" lon="0.14761">
        <ele>844.24</ele>
        <time>2021-08-02T12:09:53Z</time>
      </trkpt>
      <trkpt lat="42.25736" lon="0.14735">
        <ele>845.92</ele>
        <time>2021-08-02T12:09:57Z</time>
      </trkpt>
      <trkpt lat="42.25684" lon="0.14722">
        <ele>850</ele>
        <time>2021-08-02T12:10:04Z</time>
      </trkpt>
      <trkpt lat="42.25662" lon="0.14742">
        <ele>853.56</ele>
        <time>2021-08-02T12:10:08Z</time>
      </trkpt>
      <trkpt lat="42.25654" lon="0.14749">
        <ele>856.98</ele>
        <time>2021-08-02T12:10:11Z</time>
      </trkpt>
      <trkpt lat="42.25639" lon="0.14738">
        <ele>860.83</ele>
        <time>2021-08-02T12:10:15Z</time>
      </trkpt>
      <trkpt lat="42.2562" lon="0.14702">
        <ele>865.3</ele>
        <time>2021-08-02T12:10:20Z</time>
      </trkpt>
      <trkpt lat="42.25592" lon="0.14686">
        <ele>868.03</ele>
        <time>2021-08-02T12:10:24Z</time>
      </trkpt>
      <trkpt lat="42.25557" lon="0.14658">
        <ele>871.84</ele>
        <time>2021-08-02T12:10:30Z</time>
      </trkpt>
      <trkpt lat="42.25547" lon="0.14624">
        <ele>873.46</ele>
        <time>2021-08-02T12:10:33Z</time>
      </trkpt>
      <trkpt lat="42.25528" lon="0.14584">
        <ele>876.66</ele>
        <time>2021-08-02T12:10:38Z</time>
      </trkpt>
      <trkpt lat="42.25495" lon="0.14561">
        <ele>880.2</ele>
        <time>2021-08-02T12:10:42Z</time>
      </trkpt>
      <trkpt lat="42.25471" lon="0.14533">
        <ele>883.77</ele>
        <time>2021-08-02T12:10:46Z</time>
      </trkpt>
      <trkpt lat="42.25458" lon="0.14505">
        <ele>886.95</ele>
        <time>2021-08-02T12:10:49Z</time>
      </trkpt>
      <trkpt lat="42.25444" lon="0.14472">
        <ele>891.76</ele>
        <time>2021-08-02T12:10:53Z</time>
      </trkpt>
      <trkpt lat="42.25423" lon="0.14457">
        <ele>895.12</ele>
        <time>2021-08-02T12:10:56Z</time>
      </trkpt>
      <trkpt lat="42.2539" lon="0.14442">
        <ele>899.58</ele>
        <time>2021-08-02T12:11:00Z</time>
      </trkpt>
      <trkpt lat="42.25362" lon="0.1443">
        <ele>904.07</ele>
        <time>2021-08-02T12:11:04Z</time>
      </trkpt>
      <trkpt lat="42.25356" lon="0.14427">
        <ele>905.1</ele>
        <time>2021-08-02T12:11:05Z</time>
      </trkpt>
      <trkpt lat="42.25333" lon="0.14425">
        <ele>909.8</ele>
        <time>2021-08-02T12:11:09Z</time>
      </trkpt>
      <trkpt lat="42.25311" lon="0.14426">
        <ele>914.51</ele>
        <time>2021-08-02T12:11:13Z</time>
      </trkpt>
      <trkpt lat="42.25295" lon="0.14429">
        <ele>918.86</ele>
        <time>2021-08-02T12:11:17Z</time>
      </trkpt>
      <trkpt lat="42.25293" lon="0.14432">
        <ele>922.65</ele>
        <time>2021-08-02T12:11:21Z</time>
      </trkpt>
      <trkpt lat="42.25285" lon="0.14436">
        <ele>925.66</ele>
        <time>2021-08-02T12:11:26Z</time>
      </trkpt>
      <trkpt lat="42.25278" lon="0.14438">
        <ele>926.51</ele>
        <time>2021-08-02T12:11:28Z</time>
      </trkpt>
      <trkpt lat="42.25266" lon="0.14422">
        <ele>928.92</ele>
        <time>2021-08-02T12:11:33Z</time>
      </trkpt>
      <trkpt lat="42.25252" lon="0.14399">
        <ele>932.85</ele>
        <time>2021-08-02T12:11:39Z</time>
      </trkpt>
      <trkpt lat="42.25231" lon="0.14377">
        <ele>936.13</ele>
        <time>2021-08-02T12:11:44Z</time>
      </trkpt>
      <trkpt lat="42.25227" lon="0.14373">
        <ele>936.97</ele>
        <time>2021-08-02T12:11:45Z</time>
      </trkpt>
      <trkpt lat="42.25205" lon="0.14346">
        <ele>941.2</ele>
        <time>2021-08-02T12:11:50Z</time>
      </trkpt>
      <trkpt lat="42.25185" lon="0.1432">
        <ele>944.88</ele>
        <time>2021-08-02T12:11:54Z</time>
      </trkpt>
      <trkpt lat="42.25167" lon="0.14293">
        <ele>948.55</ele>
        <time>2021-08-02T12:11:58Z</time>
      </trkpt>
      <trkpt lat="42.25156" lon="0.14273">
        <ele>953.15</ele>
        <time>2021-08-02T12:12:01Z</time>
      </trkpt>
      <trkpt lat="42.25154" lon="0.14269">
        <ele>954.38</ele>
        <time>2021-08-02T12:12:02Z</time>
      </trkpt>
      <trkpt lat="42.25145" lon="0.1427">
        <ele>959.12</ele>
        <time>2021-08-02T12:12:06Z</time>
      </trkpt>
      <trkpt lat="42.25145" lon="0.14275">
        <ele>960.32</ele>
        <time>2021-08-02T12:12:07Z</time>
      </trkpt>
      <trkpt lat="42.25144" lon="0.14313">
        <ele>966.05</ele>
        <time>2021-08-02T12:12:13Z</time>
      </trkpt>
      <trkpt lat="42.25143" lon="0.14335">
        <ele>968.99</ele>
        <time>2021-08-02T12:12:17Z</time>
      </trkpt>
      <trkpt lat="42.25123" lon="0.14357">
        <ele>973.04</ele>
        <time>2021-08-02T12:12:24Z</time>
      </trkpt>
      <trkpt lat="42.25119" lon="0.14348">
        <ele>974.07</ele>
        <time>2021-08-02T12:12:26Z</time>
      </trkpt>
      <trkpt lat="42.25115" lon="0.14336">
        <ele>975.42</ele>
        <time>2021-08-02T12:12:28Z</time>
      </trkpt>
      <trkpt lat="42.25105" lon="0.14309">
        <ele>978.57</ele>
        <time>2021-08-02T12:12:33Z</time>
      </trkpt>
      <trkpt lat="42.25096" lon="0.14286">
        <ele>983.01</ele>
        <time>2021-08-02T12:12:38Z</time>
      </trkpt>
      <trkpt lat="42.25082" lon="0.14274">
        <ele>986.74</ele>
        <time>2021-08-02T12:12:42Z</time>
      </trkpt>
      <trkpt lat="42.25067" lon="0.14261">
        <ele>990.51</ele>
        <time>2021-08-02T12:12:46Z</time>
      </trkpt>
      <trkpt lat="42.25054" lon="0.14246">
        <ele>993.84</ele>
        <time>2021-08-02T12:12:50Z</time>
      </trkpt>
      <trkpt lat="42.2504" lon="0.1423">
        <ele>997.56</ele>
        <time>2021-08-02T12:12:54Z</time>
      </trkpt>
      <trkpt lat="42.25026" lon="0.14214">
        <ele>1001.11</ele>
        <time>2021-08-02T12:12:58Z</time>
      </trkpt>
      <trkpt lat="42.2501" lon="0.14191">
        <ele>1004.8</ele>
        <time>2021-08-02T12:13:03Z</time>
      </trkpt>
      <trkpt lat="42.25002" lon="0.14177">
        <ele>1007.92</ele>
        <time>2021-08-02T12:13:06Z</time>
      </trkpt>
      <trkpt lat="42.24993" lon="0.14163">
        <ele>1010.88</ele>
        <time>2021-08-02T12:13:09Z</time>
      </trkpt>
      <trkpt lat="42.24979" lon="0.14147">
        <ele>1014.84</ele>
        <time>2021-08-02T12:13:13Z</time>
      </trkpt>
      <trkpt lat="42.24971" lon="0.14141">
        <ele>1016.78</ele>
        <time>2021-08-02T12:13:15Z</time>
      </trkpt>
      <trkpt lat="42.24951" lon="0.14133">
        <ele>1021.57</ele>
        <time>2021-08-02T12:13:20Z</time>
      </trkpt>
      <trkpt lat="42.2493" lon="0.14122">
        <ele>1026.1</ele>
        <time>2021-08-02T12:13:25Z</time>
      </trkpt>
      <trkpt lat="42.24912" lon="0.1411">
        <ele>1029.8</ele>
        <time>2021-08-02T12:13:29Z</time>
      </trkpt>
      <trkpt lat="42.24894" lon="0.14093">
        <ele>1033.17</ele>
        <time>2021-08-02T12:13:33Z</time>
      </trkpt>
      <trkpt lat="42.24881" lon="0.14084">
        <ele>1037.35</ele>
        <time>2021-08-02T12:13:38Z</time>
      </trkpt>
      <trkpt lat="42.24877" lon="0.14082">
        <ele>1037.35</ele>
        <time>2021-08-02T12:13:39Z</time>
      </trkpt>
      <trkpt lat="42.24852" lon="0.14061">
        <ele>1040.6</ele>
        <time>2021-08-02T12:13:44Z</time>
      </trkpt>
      <trkpt lat="42.24838" lon="0.14044">
        <ele>1042.3</ele>
        <time>2021-08-02T12:13:47Z</time>
      </trkpt>
      <trkpt lat="42.24834" lon="0.14037">
        <ele>1042.85</ele>
        <time>2021-08-02T12:13:48Z</time>
      </trkpt>
      <trkpt lat="42.24832" lon="0.14031">
        <ele>1043.33</ele>
        <time>2021-08-02T12:13:49Z</time>
      </trkpt>
      <trkpt lat="42.24831" lon="0.14024">
        <ele>1043.73</ele>
        <time>2021-08-02T12:13:50Z</time>
      </trkpt>
      <trkpt lat="42.24831" lon="0.14017">
        <ele>1044.08</ele>
        <time>2021-08-02T12:13:51Z</time>
      </trkpt>
      <trkpt lat="42.24831" lon="0.14007">
        <ele>1044.55</ele>
        <time>2021-08-02T12:13:53Z</time>
      </trkpt>
      <trkpt lat="42.2483" lon="0.14003">
        <ele>1045.08</ele>
        <time>2021-08-02T12:14:06Z</time>
      </trkpt>
      <trkpt lat="42.2483" lon="0.14003">
        <ele>1046.12</ele>
        <time>2021-08-02T12:14:26Z</time>
      </trkpt>
      <trkpt lat="42.24837" lon="0.1401">
        <ele>1046.4</ele>
        <time>2021-08-02T12:17:30Z</time>
      </trkpt>
      <trkpt lat="42.24833" lon="0.14003">
        <ele>1046.4</ele>
        <time>2021-08-02T12:17:43Z</time>
      </trkpt>
      <trkpt lat="42.24829" lon="0.13999">
        <ele>1045.53</ele>
        <time>2021-08-02T12:17:50Z</time>
      </trkpt>
      <trkpt lat="42.24831" lon="0.14002">
        <ele>1044.18</ele>
        <time>2021-08-02T12:17:55Z</time>
      </trkpt>
      <trkpt lat="42.24831" lon="0.14026">
        <ele>1044.22</ele>
        <time>2021-08-02T12:18:01Z</time>
      </trkpt>
      <trkpt lat="42.24833" lon="0.14063">
        <ele>1044.53</ele>
        <time>2021-08-02T12:18:05Z</time>
      </trkpt>
      <trkpt lat="42.24832" lon="0.14073">
        <ele>1044.73</ele>
        <time>2021-08-02T12:18:06Z</time>
      </trkpt>
      <trkpt lat="42.2483" lon="0.14082">
        <ele>1045.05</ele>
        <time>2021-08-02T12:18:07Z</time>
      </trkpt>
      <trkpt lat="42.24818" lon="0.14117">
        <ele>1047.07</ele>
        <time>2021-08-02T12:18:11Z</time>
      </trkpt>
      <trkpt lat="42.248" lon="0.1416">
        <ele>1050.15</ele>
        <time>2021-08-02T12:18:16Z</time>
      </trkpt>
      <trkpt lat="42.24797" lon="0.14168">
        <ele>1050.88</ele>
        <time>2021-08-02T12:18:17Z</time>
      </trkpt>
      <trkpt lat="42.24797" lon="0.14174">
        <ele>1051.64</ele>
        <time>2021-08-02T12:18:18Z</time>
      </trkpt>
      <trkpt lat="42.24796" lon="0.14178">
        <ele>1052.34</ele>
        <time>2021-08-02T12:18:19Z</time>
      </trkpt>
      <trkpt lat="42.24796" lon="0.14186">
        <ele>1055.43</ele>
        <time>2021-08-02T12:18:25Z</time>
      </trkpt>
      <trkpt lat="42.24795" lon="0.14187">
        <ele>1057.15</ele>
        <time>2021-08-02T12:18:34Z</time>
      </trkpt>
      <trkpt lat="42.24795" lon="0.14186">
        <ele>1057.23</ele>
        <time>2021-08-02T12:18:35Z</time>
      </trkpt>
      <trkpt lat="42.24796" lon="0.14184">
        <ele>1057.31</ele>
        <time>2021-08-02T12:18:36Z</time>
      </trkpt>
      <trkpt lat="42.248" lon="0.1418">
        <ele>1057.96</ele>
        <time>2021-08-02T12:18:48Z</time>
      </trkpt>
      <trkpt lat="42.24802" lon="0.14182">
        <ele>1057.96</ele>
        <time>2021-08-02T12:18:49Z</time>
      </trkpt>
      <trkpt lat="42.24804" lon="0.14182">
        <ele>1057.95</ele>
        <time>2021-08-02T12:18:50Z</time>
      </trkpt>
      <trkpt lat="42.24806" lon="0.14182">
        <ele>1057.94</ele>
        <time>2021-08-02T12:18:51Z</time>
      </trkpt>
      <trkpt lat="42.24807" lon="0.14181">
        <ele>1057.92</ele>
        <time>2021-08-02T12:18:52Z</time>
      </trkpt>
      <trkpt lat="42.24805" lon="0.14182">
        <ele>1057.91</ele>
        <time>2021-08-02T12:18:54Z</time>
      </trkpt>
      <trkpt lat="42.24803" lon="0.14182">
        <ele>1057.91</ele>
        <time>2021-08-02T12:18:55Z</time>
      </trkpt>
      <trkpt lat="42.24802" lon="0.14183">
        <ele>1057.91</ele>
        <time>2021-08-02T12:18:56Z</time>
      </trkpt>
      <trkpt lat="42.248" lon="0.14184">
        <ele>1058.25</ele>
        <time>2021-08-02T12:19:17Z</time>
      </trkpt>
      <trkpt lat="42.248" lon="0.14184">
        <ele>1061.29</ele>
        <time>2021-08-02T12:20:06Z</time>
      </trkpt>
      <trkpt lat="42.248" lon="0.14184">
        <ele>1061.97</ele>
        <time>2021-08-02T12:24:08Z</time>
      </trkpt>
      <trkpt lat="42.248" lon="0.14184">
        <ele>1061.97</ele>
        <time>2021-08-02T12:27:11Z</time>
      </trkpt>
      <trkpt lat="42.248" lon="0.14184">
        <ele>1061.97</ele>
        <time>2021-08-02T12:30:28Z</time>
      </trkpt>
      <trkpt lat="42.248" lon="0.14184">
        <ele>1061.97</ele>
        <time>2021-08-02T12:31:30Z</time>
      </trkpt>
      <trkpt lat="42.24801" lon="0.14183">
        <ele>1061.97</ele>
        <time>2021-08-02T12:32:42Z</time>
      </trkpt>
      <trkpt lat="42.24801" lon="0.14182">
        <ele>1061.97</ele>
        <time>2021-08-02T12:33:39Z</time>
      </trkpt>
      <trkpt lat="42.24801" lon="0.14182">
        <ele>1061.97</ele>
        <time>2021-08-02T12:36:50Z</time>
      </trkpt>
      <trkpt lat="42.24801" lon="0.14183">
        <ele>1061.97</ele>
        <time>2021-08-02T12:38:54Z</time>
      </trkpt>
      <trkpt lat="42.24801" lon="0.14183">
        <ele>1061.97</ele>
        <time>2021-08-02T12:40:10Z</time>
      </trkpt>
      <trkpt lat="42.24801" lon="0.14183">
        <ele>1061.97</ele>
        <time>2021-08-02T12:42:37Z</time>
      </trkpt>
      <trkpt lat="42.248" lon="0.14183">
        <ele>1061.97</ele>
        <time>2021-08-02T12:44:12Z</time>
      </trkpt>
      <trkpt lat="42.248" lon="0.14184">
        <ele>1061.97</ele>
        <time>2021-08-02T12:49:07Z</time>
      </trkpt>
      <trkpt lat="42.24801" lon="0.14184">
        <ele>1061.97</ele>
        <time>2021-08-02T12:52:45Z</time>
      </trkpt>
      <trkpt lat="42.248" lon="0.14184">
        <ele>1061.97</ele>
        <time>2021-08-02T12:53:55Z</time>
      </trkpt>
      <trkpt lat="42.248" lon="0.14184">
        <ele>1061.97</ele>
        <time>2021-08-02T12:54:41Z</time>
      </trkpt>
      <trkpt lat="42.24799" lon="0.14184">
        <ele>1061.97</ele>
        <time>2021-08-02T12:56:14Z</time>
      </trkpt>
      <trkpt lat="42.24799" lon="0.14184">
        <ele>1061.97</ele>
        <time>2021-08-02T12:57:15Z</time>
      </trkpt>
      <trkpt lat="42.24799" lon="0.14185">
        <ele>1061.97</ele>
        <time>2021-08-02T12:58:06Z</time>
      </trkpt>
      <trkpt lat="42.24799" lon="0.14184">
        <ele>1061.97</ele>
        <time>2021-08-02T12:58:55Z</time>
      </trkpt>
      <trkpt lat="42.248" lon="0.14185">
        <ele>1061.97</ele>
        <time>2021-08-02T12:59:52Z</time>
      </trkpt>
      <trkpt lat="42.24799" lon="0.14185">
        <ele>1061.97</ele>
        <time>2021-08-02T13:00:35Z</time>
      </trkpt>
      <trkpt lat="42.248" lon="0.14185">
        <ele>1061.97</ele>
        <time>2021-08-02T13:01:28Z</time>
      </trkpt>
      <trkpt lat="42.248" lon="0.14185">
        <ele>1061.97</ele>
        <time>2021-08-02T13:02:12Z</time>
      </trkpt>
      <trkpt lat="42.248" lon="0.14185">
        <ele>1061.97</ele>
        <time>2021-08-02T13:03:23Z</time>
      </trkpt>
      <trkpt lat="42.248" lon="0.14185">
        <ele>1061.97</ele>
        <time>2021-08-02T13:05:17Z</time>
      </trkpt>
      <trkpt lat="42.24799" lon="0.14184">
        <ele>1061.97</ele>
        <time>2021-08-02T13:06:10Z</time>
      </trkpt>
      <trkpt lat="42.24799" lon="0.14184">
        <ele>1061.97</ele>
        <time>2021-08-02T13:07:30Z</time>
      </trkpt>
      <trkpt lat="42.24799" lon="0.14184">
        <ele>1061.97</ele>
        <time>2021-08-02T13:08:18Z</time>
      </trkpt>
      <trkpt lat="42.24799" lon="0.14183">
        <ele>1061.97</ele>
        <time>2021-08-02T13:09:38Z</time>
      </trkpt>
      <trkpt lat="42.24799" lon="0.14183">
        <ele>1061.97</ele>
        <time>2021-08-02T13:10:48Z</time>
      </trkpt>
      <trkpt lat="42.24799" lon="0.14184">
        <ele>1061.97</ele>
        <time>2021-08-02T13:12:53Z</time>
      </trkpt>
      <trkpt lat="42.24798" lon="0.14184">
        <ele>1061.97</ele>
        <time>2021-08-02T13:14:10Z</time>
      </trkpt>
      <trkpt lat="42.24798" lon="0.14184">
        <ele>1061.97</ele>
        <time>2021-08-02T13:15:36Z</time>
      </trkpt>
      <trkpt lat="42.24798" lon="0.14184">
        <ele>1061.97</ele>
        <time>2021-08-02T13:19:29Z</time>
      </trkpt>
      <trkpt lat="42.24799" lon="0.14184">
        <ele>1061.97</ele>
        <time>2021-08-02T13:23:21Z</time>
      </trkpt>
      <trkpt lat="42.24799" lon="0.14184">
        <ele>1061.97</ele>
        <time>2021-08-02T13:26:26Z</time>
      </trkpt>
      <trkpt lat="42.24799" lon="0.14184">
        <ele>1061.97</ele>
        <time>2021-08-02T13:31:30Z</time>
      </trkpt>
      <trkpt lat="42.24799" lon="0.14184">
        <ele>1061.97</ele>
        <time>2021-08-02T13:34:34Z</time>
      </trkpt>
      <trkpt lat="42.24799" lon="0.14184">
        <ele>1061.97</ele>
        <time>2021-08-02T13:35:30Z</time>
      </trkpt>
      <trkpt lat="42.24799" lon="0.14185">
        <ele>1061.97</ele>
        <time>2021-08-02T13:36:23Z</time>
      </trkpt>
      <trkpt lat="42.24799" lon="0.14184">
        <ele>1061.97</ele>
        <time>2021-08-02T13:37:40Z</time>
      </trkpt>
      <trkpt lat="42.24799" lon="0.14184">
        <ele>1061.97</ele>
        <time>2021-08-02T13:39:13Z</time>
      </trkpt>
      <trkpt lat="42.24801" lon="0.14184">
        <ele>1061.97</ele>
        <time>2021-08-02T13:40:18Z</time>
      </trkpt>
      <trkpt lat="42.24802" lon="0.14182">
        <ele>1061.97</ele>
        <time>2021-08-02T13:40:19Z</time>
      </trkpt>
      <trkpt lat="42.24804" lon="0.14181">
        <ele>1061.97</ele>
        <time>2021-08-02T13:40:20Z</time>
      </trkpt>
      <trkpt lat="42.24804" lon="0.14179">
        <ele>1061.97</ele>
        <time>2021-08-02T13:40:21Z</time>
      </trkpt>
      <trkpt lat="42.24805" lon="0.14177">
        <ele>1062.04</ele>
        <time>2021-08-02T13:40:22Z</time>
      </trkpt>
      <trkpt lat="42.24804" lon="0.14176">
        <ele>1062.2</ele>
        <time>2021-08-02T13:40:23Z</time>
      </trkpt>
      <trkpt lat="42.24804" lon="0.14174">
        <ele>1062.33</ele>
        <time>2021-08-02T13:40:24Z</time>
      </trkpt>
      <trkpt lat="42.24804" lon="0.14178">
        <ele>1062.43</ele>
        <time>2021-08-02T13:40:28Z</time>
      </trkpt>
      <trkpt lat="42.24805" lon="0.14179">
        <ele>1062.39</ele>
        <time>2021-08-02T13:40:29Z</time>
      </trkpt>
      <trkpt lat="42.24805" lon="0.14179">
        <ele>1061.75</ele>
        <time>2021-08-02T13:40:48Z</time>
      </trkpt>
      <trkpt lat="42.24804" lon="0.14178">
        <ele>1061.59</ele>
        <time>2021-08-02T13:41:20Z</time>
      </trkpt>
      <trkpt lat="42.24798" lon="0.14177">
        <ele>1061.47</ele>
        <time>2021-08-02T13:41:24Z</time>
      </trkpt>
      <trkpt lat="42.24797" lon="0.14175">
        <ele>1061.46</ele>
        <time>2021-08-02T13:41:25Z</time>
      </trkpt>
      <trkpt lat="42.24797" lon="0.14172">
        <ele>1061.45</ele>
        <time>2021-08-02T13:41:26Z</time>
      </trkpt>
      <trkpt lat="42.24797" lon="0.14169">
        <ele>1061.45</ele>
        <time>2021-08-02T13:41:27Z</time>
      </trkpt>
      <trkpt lat="42.24797" lon="0.14166">
        <ele>1061.45</ele>
        <time>2021-08-02T13:41:28Z</time>
      </trkpt>
      <trkpt lat="42.24798" lon="0.14163">
        <ele>1061.45</ele>
        <time>2021-08-02T13:41:29Z</time>
      </trkpt>
      <trkpt lat="42.24799" lon="0.14159">
        <ele>1061.42</ele>
        <time>2021-08-02T13:41:30Z</time>
      </trkpt>
      <trkpt lat="42.24801" lon="0.14156">
        <ele>1061.35</ele>
        <time>2021-08-02T13:41:31Z</time>
      </trkpt>
      <trkpt lat="42.24802" lon="0.14152">
        <ele>1061.25</ele>
        <time>2021-08-02T13:41:32Z</time>
      </trkpt>
      <trkpt lat="42.24804" lon="0.14148">
        <ele>1061.14</ele>
        <time>2021-08-02T13:41:33Z</time>
      </trkpt>
      <trkpt lat="42.24805" lon="0.14144">
        <ele>1061.03</ele>
        <time>2021-08-02T13:41:34Z</time>
      </trkpt>
      <trkpt lat="42.24821" lon="0.14107">
        <ele>1057.89</ele>
        <time>2021-08-02T13:41:44Z</time>
      </trkpt>
      <trkpt lat="42.24833" lon="0.14061">
        <ele>1054.76</ele>
        <time>2021-08-02T13:41:54Z</time>
      </trkpt>
      <trkpt lat="42.24829" lon="0.14016">
        <ele>1051.63</ele>
        <time>2021-08-02T13:42:01Z</time>
      </trkpt>
      <trkpt lat="42.24813" lon="0.13939">
        <ele>1048.62</ele>
        <time>2021-08-02T13:42:12Z</time>
      </trkpt>
      <trkpt lat="42.24808" lon="0.13901">
        <ele>1048.23</ele>
        <time>2021-08-02T13:42:18Z</time>
      </trkpt>
      <trkpt lat="42.24799" lon="0.13878">
        <ele>1046.11</ele>
        <time>2021-08-02T13:42:26Z</time>
      </trkpt>
      <trkpt lat="42.24797" lon="0.13887">
        <ele>1045.37</ele>
        <time>2021-08-02T13:42:28Z</time>
      </trkpt>
      <trkpt lat="42.24789" lon="0.13975">
        <ele>1043.13</ele>
        <time>2021-08-02T13:42:41Z</time>
      </trkpt>
      <trkpt lat="42.2479" lon="0.13996">
        <ele>1042.57</ele>
        <time>2021-08-02T13:42:44Z</time>
      </trkpt>
      <trkpt lat="42.24775" lon="0.14048">
        <ele>1040.07</ele>
        <time>2021-08-02T13:42:51Z</time>
      </trkpt>
      <trkpt lat="42.24734" lon="0.14099">
        <ele>1037.08</ele>
        <time>2021-08-02T13:43:00Z</time>
      </trkpt>
      <trkpt lat="42.24652" lon="0.14141">
        <ele>1033.84</ele>
        <time>2021-08-02T13:43:12Z</time>
      </trkpt>
      <trkpt lat="42.24591" lon="0.14169">
        <ele>1034.92</ele>
        <time>2021-08-02T13:43:21Z</time>
      </trkpt>
      <trkpt lat="42.24576" lon="0.14184">
        <ele>1036.09</ele>
        <time>2021-08-02T13:43:24Z</time>
      </trkpt>
      <trkpt lat="42.24543" lon="0.14273">
        <ele>1036.25</ele>
        <time>2021-08-02T13:43:36Z</time>
      </trkpt>
      <trkpt lat="42.24539" lon="0.14292">
        <ele>1035.16</ele>
        <time>2021-08-02T13:43:38Z</time>
      </trkpt>
      <trkpt lat="42.24543" lon="0.14368">
        <ele>1031.32</ele>
        <time>2021-08-02T13:43:45Z</time>
      </trkpt>
      <trkpt lat="42.24548" lon="0.14386">
        <ele>1030.54</ele>
        <time>2021-08-02T13:43:47Z</time>
      </trkpt>
      <trkpt lat="42.24553" lon="0.14402">
        <ele>1029.68</ele>
        <time>2021-08-02T13:43:49Z</time>
      </trkpt>
      <trkpt lat="42.24557" lon="0.1444">
        <ele>1027.97</ele>
        <time>2021-08-02T13:43:53Z</time>
      </trkpt>
      <trkpt lat="42.24557" lon="0.14471">
        <ele>1026.4</ele>
        <time>2021-08-02T13:43:56Z</time>
      </trkpt>
      <trkpt lat="42.24544" lon="0.14519">
        <ele>1022.33</ele>
        <time>2021-08-02T13:44:02Z</time>
      </trkpt>
      <trkpt lat="42.24525" lon="0.14554">
        <ele>1017.71</ele>
        <time>2021-08-02T13:44:07Z</time>
      </trkpt>
      <trkpt lat="42.2451" lon="0.14588">
        <ele>1014.06</ele>
        <time>2021-08-02T13:44:11Z</time>
      </trkpt>
      <trkpt lat="42.24502" lon="0.14632">
        <ele>1009.49</ele>
        <time>2021-08-02T13:44:16Z</time>
      </trkpt>
      <trkpt lat="42.24502" lon="0.14641">
        <ele>1008.61</ele>
        <time>2021-08-02T13:44:17Z</time>
      </trkpt>
      <trkpt lat="42.24504" lon="0.14665">
        <ele>1005.99</ele>
        <time>2021-08-02T13:44:20Z</time>
      </trkpt>
      <trkpt lat="42.24492" lon="0.147">
        <ele>1002.35</ele>
        <time>2021-08-02T13:44:26Z</time>
      </trkpt>
      <trkpt lat="42.24482" lon="0.14703">
        <ele>1001.51</ele>
        <time>2021-08-02T13:44:28Z</time>
      </trkpt>
      <trkpt lat="42.2444" lon="0.14691">
        <ele>996.9</ele>
        <time>2021-08-02T13:44:37Z</time>
      </trkpt>
      <trkpt lat="42.24414" lon="0.14673">
        <ele>993.8</ele>
        <time>2021-08-02T13:44:42Z</time>
      </trkpt>
      <trkpt lat="42.24396" lon="0.14653">
        <ele>991.36</ele>
        <time>2021-08-02T13:44:46Z</time>
      </trkpt>
      <trkpt lat="42.24384" lon="0.14633">
        <ele>988.88</ele>
        <time>2021-08-02T13:44:50Z</time>
      </trkpt>
      <trkpt lat="42.24372" lon="0.14595">
        <ele>984.94</ele>
        <time>2021-08-02T13:44:58Z</time>
      </trkpt>
      <trkpt lat="42.24379" lon="0.14558">
        <ele>982.27</ele>
        <time>2021-08-02T13:45:07Z</time>
      </trkpt>
      <trkpt lat="42.24379" lon="0.14546">
        <ele>981.4</ele>
        <time>2021-08-02T13:45:12Z</time>
      </trkpt>
      <trkpt lat="42.24366" lon="0.14546">
        <ele>980.55</ele>
        <time>2021-08-02T13:45:17Z</time>
      </trkpt>
      <trkpt lat="42.24352" lon="0.14558">
        <ele>979.96</ele>
        <time>2021-08-02T13:45:20Z</time>
      </trkpt>
      <trkpt lat="42.24299" lon="0.146">
        <ele>976.77</ele>
        <time>2021-08-02T13:45:28Z</time>
      </trkpt>
      <trkpt lat="42.24275" lon="0.14629">
        <ele>973.56</ele>
        <time>2021-08-02T13:45:32Z</time>
      </trkpt>
      <trkpt lat="42.24254" lon="0.14662">
        <ele>969.64</ele>
        <time>2021-08-02T13:45:36Z</time>
      </trkpt>
      <trkpt lat="42.24243" lon="0.1471">
        <ele>965.02</ele>
        <time>2021-08-02T13:45:41Z</time>
      </trkpt>
      <trkpt lat="42.24245" lon="0.14718">
        <ele>964.04</ele>
        <time>2021-08-02T13:45:42Z</time>
      </trkpt>
      <trkpt lat="42.24243" lon="0.1476">
        <ele>958.98</ele>
        <time>2021-08-02T13:45:47Z</time>
      </trkpt>
      <trkpt lat="42.24229" lon="0.14785">
        <ele>954.94</ele>
        <time>2021-08-02T13:45:51Z</time>
      </trkpt>
      <trkpt lat="42.24209" lon="0.14812">
        <ele>949.34</ele>
        <time>2021-08-02T13:45:56Z</time>
      </trkpt>
      <trkpt lat="42.24196" lon="0.14831">
        <ele>945.89</ele>
        <time>2021-08-02T13:45:59Z</time>
      </trkpt>
      <trkpt lat="42.24191" lon="0.14838">
        <ele>944.76</ele>
        <time>2021-08-02T13:46:00Z</time>
      </trkpt>
      <trkpt lat="42.24176" lon="0.14871">
        <ele>940.55</ele>
        <time>2021-08-02T13:46:04Z</time>
      </trkpt>
      <trkpt lat="42.2417" lon="0.14888">
        <ele>938.4</ele>
        <time>2021-08-02T13:46:06Z</time>
      </trkpt>
      <trkpt lat="42.24155" lon="0.14906">
        <ele>934.2</ele>
        <time>2021-08-02T13:46:09Z</time>
      </trkpt>
      <trkpt lat="42.24128" lon="0.14908">
        <ele>930.54</ele>
        <time>2021-08-02T13:46:13Z</time>
      </trkpt>
      <trkpt lat="42.24121" lon="0.14906">
        <ele>929.76</ele>
        <time>2021-08-02T13:46:14Z</time>
      </trkpt>
      <trkpt lat="42.24093" lon="0.14896">
        <ele>925.59</ele>
        <time>2021-08-02T13:46:19Z</time>
      </trkpt>
      <trkpt lat="42.2409" lon="0.14875">
        <ele>921.75</ele>
        <time>2021-08-02T13:46:24Z</time>
      </trkpt>
      <trkpt lat="42.24107" lon="0.14858">
        <ele>918.44</ele>
        <time>2021-08-02T13:46:29Z</time>
      </trkpt>
      <trkpt lat="42.24087" lon="0.14827">
        <ele>915.28</ele>
        <time>2021-08-02T13:46:36Z</time>
      </trkpt>
      <trkpt lat="42.24059" lon="0.14824">
        <ele>913.33</ele>
        <time>2021-08-02T13:46:40Z</time>
      </trkpt>
      <trkpt lat="42.24018" lon="0.14798">
        <ele>909.43</ele>
        <time>2021-08-02T13:46:46Z</time>
      </trkpt>
      <trkpt lat="42.23984" lon="0.14809">
        <ele>908.05</ele>
        <time>2021-08-02T13:46:52Z</time>
      </trkpt>
      <trkpt lat="42.23961" lon="0.14792">
        <ele>907.92</ele>
        <time>2021-08-02T13:46:57Z</time>
      </trkpt>
      <trkpt lat="42.23955" lon="0.14778">
        <ele>908.1</ele>
        <time>2021-08-02T13:46:59Z</time>
      </trkpt>
      <trkpt lat="42.23911" lon="0.14765">
        <ele>908.37</ele>
        <time>2021-08-02T13:47:05Z</time>
      </trkpt>
      <trkpt lat="42.23901" lon="0.14762">
        <ele>908.36</ele>
        <time>2021-08-02T13:47:06Z</time>
      </trkpt>
      <trkpt lat="42.2388" lon="0.14754">
        <ele>908.18</ele>
        <time>2021-08-02T13:47:08Z</time>
      </trkpt>
      <trkpt lat="42.23831" lon="0.1472">
        <ele>907.31</ele>
        <time>2021-08-02T13:47:13Z</time>
      </trkpt>
      <trkpt lat="42.23815" lon="0.14696">
        <ele>907.26</ele>
        <time>2021-08-02T13:47:15Z</time>
      </trkpt>
      <trkpt lat="42.23781" lon="0.14665">
        <ele>907.63</ele>
        <time>2021-08-02T13:47:19Z</time>
      </trkpt>
      <trkpt lat="42.23766" lon="0.14652">
        <ele>907.68</ele>
        <time>2021-08-02T13:47:21Z</time>
      </trkpt>
      <trkpt lat="42.2371" lon="0.14655">
        <ele>906.08</ele>
        <time>2021-08-02T13:47:27Z</time>
      </trkpt>
      <trkpt lat="42.23666" lon="0.14644">
        <ele>903.27</ele>
        <time>2021-08-02T13:47:32Z</time>
      </trkpt>
      <trkpt lat="42.23582" lon="0.14545">
        <ele>900.46</ele>
        <time>2021-08-02T13:47:42Z</time>
      </trkpt>
      <trkpt lat="42.23538" lon="0.1448">
        <ele>900.07</ele>
        <time>2021-08-02T13:47:48Z</time>
      </trkpt>
      <trkpt lat="42.2347" lon="0.14409">
        <ele>898.27</ele>
        <time>2021-08-02T13:47:56Z</time>
      </trkpt>
      <trkpt lat="42.23427" lon="0.14383">
        <ele>893.88</ele>
        <time>2021-08-02T13:48:02Z</time>
      </trkpt>
      <trkpt lat="42.23406" lon="0.14359">
        <ele>889.31</ele>
        <time>2021-08-02T13:48:07Z</time>
      </trkpt>
      <trkpt lat="42.23398" lon="0.14351">
        <ele>887.63</ele>
        <time>2021-08-02T13:48:09Z</time>
      </trkpt>
      <trkpt lat="42.23372" lon="0.14339">
        <ele>883.26</ele>
        <time>2021-08-02T13:48:14Z</time>
      </trkpt>
      <trkpt lat="42.23352" lon="0.14335">
        <ele>881</ele>
        <time>2021-08-02T13:48:17Z</time>
      </trkpt>
      <trkpt lat="42.23333" lon="0.14336">
        <ele>878.44</ele>
        <time>2021-08-02T13:48:20Z</time>
      </trkpt>
      <trkpt lat="42.23321" lon="0.1434">
        <ele>876.52</ele>
        <time>2021-08-02T13:48:22Z</time>
      </trkpt>
      <trkpt lat="42.23291" lon="0.14361">
        <ele>873.41</ele>
        <time>2021-08-02T13:48:26Z</time>
      </trkpt>
      <trkpt lat="42.23232" lon="0.14379">
        <ele>869.51</ele>
        <time>2021-08-02T13:48:31Z</time>
      </trkpt>
      <trkpt lat="42.23206" lon="0.1438">
        <ele>868.15</ele>
        <time>2021-08-02T13:48:33Z</time>
      </trkpt>
      <trkpt lat="42.23155" lon="0.14409">
        <ele>865.2</ele>
        <time>2021-08-02T13:48:38Z</time>
      </trkpt>
      <trkpt lat="42.23068" lon="0.14432">
        <ele>861.56</ele>
        <time>2021-08-02T13:48:46Z</time>
      </trkpt>
      <trkpt lat="42.23057" lon="0.14426">
        <ele>861.18</ele>
        <time>2021-08-02T13:48:47Z</time>
      </trkpt>
      <trkpt lat="42.23033" lon="0.14414">
        <ele>860.43</ele>
        <time>2021-08-02T13:48:49Z</time>
      </trkpt>
      <trkpt lat="42.22981" lon="0.1442">
        <ele>860.04</ele>
        <time>2021-08-02T13:48:54Z</time>
      </trkpt>
      <trkpt lat="42.22956" lon="0.14434">
        <ele>860.68</ele>
        <time>2021-08-02T13:48:57Z</time>
      </trkpt>
      <trkpt lat="42.22926" lon="0.14416">
        <ele>862.95</ele>
        <time>2021-08-02T13:49:01Z</time>
      </trkpt>
      <trkpt lat="42.22902" lon="0.144">
        <ele>866</ele>
        <time>2021-08-02T13:49:06Z</time>
      </trkpt>
      <trkpt lat="42.2288" lon="0.14403">
        <ele>868.46</ele>
        <time>2021-08-02T13:49:10Z</time>
      </trkpt>
      <trkpt lat="42.22829" lon="0.14381">
        <ele>872.5</ele>
        <time>2021-08-02T13:49:17Z</time>
      </trkpt>
      <trkpt lat="42.228" lon="0.14345">
        <ele>875.34</ele>
        <time>2021-08-02T13:49:21Z</time>
      </trkpt>
      <trkpt lat="42.22779" lon="0.14328">
        <ele>876.67</ele>
        <time>2021-08-02T13:49:24Z</time>
      </trkpt>
      <trkpt lat="42.22772" lon="0.14325">
        <ele>876.86</ele>
        <time>2021-08-02T13:49:25Z</time>
      </trkpt>
      <trkpt lat="42.22757" lon="0.14318">
        <ele>876.9</ele>
        <time>2021-08-02T13:49:27Z</time>
      </trkpt>
      <trkpt lat="42.22737" lon="0.14303">
        <ele>876.16</ele>
        <time>2021-08-02T13:49:30Z</time>
      </trkpt>
      <trkpt lat="42.22685" lon="0.14307">
        <ele>872.86</ele>
        <time>2021-08-02T13:49:38Z</time>
      </trkpt>
      <trkpt lat="42.22667" lon="0.14307">
        <ele>871.8</ele>
        <time>2021-08-02T13:49:40Z</time>
      </trkpt>
      <trkpt lat="42.22648" lon="0.14303">
        <ele>870.37</ele>
        <time>2021-08-02T13:49:42Z</time>
      </trkpt>
      <trkpt lat="42.22595" lon="0.14315">
        <ele>868.01</ele>
        <time>2021-08-02T13:49:48Z</time>
      </trkpt>
      <trkpt lat="42.22536" lon="0.1435">
        <ele>865.44</ele>
        <time>2021-08-02T13:49:54Z</time>
      </trkpt>
      <trkpt lat="42.22478" lon="0.14345">
        <ele>862.51</ele>
        <time>2021-08-02T13:49:59Z</time>
      </trkpt>
      <trkpt lat="42.22456" lon="0.14336">
        <ele>861.24</ele>
        <time>2021-08-02T13:50:01Z</time>
      </trkpt>
      <trkpt lat="42.22383" lon="0.1433">
        <ele>857.17</ele>
        <time>2021-08-02T13:50:09Z</time>
      </trkpt>
      <trkpt lat="42.22375" lon="0.14328">
        <ele>856.64</ele>
        <time>2021-08-02T13:50:10Z</time>
      </trkpt>
      <trkpt lat="42.22317" lon="0.14326">
        <ele>852.24</ele>
        <time>2021-08-02T13:50:16Z</time>
      </trkpt>
      <trkpt lat="42.22272" lon="0.1433">
        <ele>848.45</ele>
        <time>2021-08-02T13:50:20Z</time>
      </trkpt>
      <trkpt lat="42.2224" lon="0.14337">
        <ele>844.83</ele>
        <time>2021-08-02T13:50:23Z</time>
      </trkpt>
      <trkpt lat="42.22208" lon="0.14351">
        <ele>841.46</ele>
        <time>2021-08-02T13:50:26Z</time>
      </trkpt>
      <trkpt lat="42.22187" lon="0.14362">
        <ele>839.2</ele>
        <time>2021-08-02T13:50:28Z</time>
      </trkpt>
      <trkpt lat="42.22142" lon="0.14378">
        <ele>834.17</ele>
        <time>2021-08-02T13:50:32Z</time>
      </trkpt>
      <trkpt lat="42.2211" lon="0.14379">
        <ele>830.82</ele>
        <time>2021-08-02T13:50:35Z</time>
      </trkpt>
      <trkpt lat="42.22064" lon="0.14359">
        <ele>827.24</ele>
        <time>2021-08-02T13:50:40Z</time>
      </trkpt>
      <trkpt lat="42.22027" lon="0.14359">
        <ele>826.51</ele>
        <time>2021-08-02T13:50:44Z</time>
      </trkpt>
      <trkpt lat="42.21936" lon="0.14381">
        <ele>827.69</ele>
        <time>2021-08-02T13:50:54Z</time>
      </trkpt>
      <trkpt lat="42.21863" lon="0.14408">
        <ele>828.92</ele>
        <time>2021-08-02T13:51:03Z</time>
      </trkpt>
      <trkpt lat="42.21842" lon="0.14439">
        <ele>827.94</ele>
        <time>2021-08-02T13:51:07Z</time>
      </trkpt>
      <trkpt lat="42.21784" lon="0.14473">
        <ele>824.1</ele>
        <time>2021-08-02T13:51:14Z</time>
      </trkpt>
      <trkpt lat="42.21754" lon="0.14473">
        <ele>822.3</ele>
        <time>2021-08-02T13:51:17Z</time>
      </trkpt>
      <trkpt lat="42.21676" lon="0.14482">
        <ele>819.22</ele>
        <time>2021-08-02T13:51:26Z</time>
      </trkpt>
      <trkpt lat="42.21563" lon="0.14407">
        <ele>818.03</ele>
        <time>2021-08-02T13:51:38Z</time>
      </trkpt>
      <trkpt lat="42.21511" lon="0.14363">
        <ele>821.02</ele>
        <time>2021-08-02T13:51:45Z</time>
      </trkpt>
      <trkpt lat="42.21496" lon="0.14353">
        <ele>821.66</ele>
        <time>2021-08-02T13:51:47Z</time>
      </trkpt>
      <trkpt lat="42.21469" lon="0.14329">
        <ele>821.97</ele>
        <time>2021-08-02T13:51:51Z</time>
      </trkpt>
      <trkpt lat="42.21427" lon="0.14317">
        <ele>821.19</ele>
        <time>2021-08-02T13:51:56Z</time>
      </trkpt>
      <trkpt lat="42.2137" lon="0.14333">
        <ele>817.59</ele>
        <time>2021-08-02T13:52:03Z</time>
      </trkpt>
      <trkpt lat="42.21335" lon="0.14346">
        <ele>814.81</ele>
        <time>2021-08-02T13:52:07Z</time>
      </trkpt>
      <trkpt lat="42.21289" lon="0.14346">
        <ele>811.01</ele>
        <time>2021-08-02T13:52:12Z</time>
      </trkpt>
      <trkpt lat="42.21254" lon="0.14342">
        <ele>807.79</ele>
        <time>2021-08-02T13:52:16Z</time>
      </trkpt>
      <trkpt lat="42.21239" lon="0.14339">
        <ele>806.16</ele>
        <time>2021-08-02T13:52:18Z</time>
      </trkpt>
      <trkpt lat="42.21203" lon="0.14319">
        <ele>802.33</ele>
        <time>2021-08-02T13:52:23Z</time>
      </trkpt>
      <trkpt lat="42.21196" lon="0.14312">
        <ele>799.33</ele>
        <time>2021-08-02T13:52:28Z</time>
      </trkpt>
      <trkpt lat="42.21188" lon="0.14293">
        <ele>796.91</ele>
        <time>2021-08-02T13:52:34Z</time>
      </trkpt>
      <trkpt lat="42.21174" lon="0.14281">
        <ele>795.79</ele>
        <time>2021-08-02T13:52:38Z</time>
      </trkpt>
      <trkpt lat="42.2116" lon="0.14276">
        <ele>794.65</ele>
        <time>2021-08-02T13:52:41Z</time>
      </trkpt>
      <trkpt lat="42.2114" lon="0.14277">
        <ele>792.24</ele>
        <time>2021-08-02T13:52:45Z</time>
      </trkpt>
      <trkpt lat="42.21131" lon="0.1428">
        <ele>791.06</ele>
        <time>2021-08-02T13:52:47Z</time>
      </trkpt>
      <trkpt lat="42.21094" lon="0.1428">
        <ele>786.4</ele>
        <time>2021-08-02T13:52:53Z</time>
      </trkpt>
      <trkpt lat="42.21053" lon="0.14273">
        <ele>782.82</ele>
        <time>2021-08-02T13:52:58Z</time>
      </trkpt>
      <trkpt lat="42.21018" lon="0.14261">
        <ele>779.73</ele>
        <time>2021-08-02T13:53:02Z</time>
      </trkpt>
      <trkpt lat="42.20986" lon="0.14248">
        <ele>776.56</ele>
        <time>2021-08-02T13:53:06Z</time>
      </trkpt>
      <trkpt lat="42.20959" lon="0.14234">
        <ele>773.4</ele>
        <time>2021-08-02T13:53:10Z</time>
      </trkpt>
      <trkpt lat="42.20927" lon="0.14232">
        <ele>769.43</ele>
        <time>2021-08-02T13:53:15Z</time>
      </trkpt>
      <trkpt lat="42.2092" lon="0.14233">
        <ele>768.82</ele>
        <time>2021-08-02T13:53:16Z</time>
      </trkpt>
      <trkpt lat="42.20888" lon="0.14245">
        <ele>764.72</ele>
        <time>2021-08-02T13:53:22Z</time>
      </trkpt>
      <trkpt lat="42.20881" lon="0.14246">
        <ele>763.5</ele>
        <time>2021-08-02T13:53:24Z</time>
      </trkpt>
      <trkpt lat="42.20865" lon="0.1426">
        <ele>759.54</ele>
        <time>2021-08-02T13:53:31Z</time>
      </trkpt>
      <trkpt lat="42.20863" lon="0.14274">
        <ele>756.38</ele>
        <time>2021-08-02T13:53:39Z</time>
      </trkpt>
      <trkpt lat="42.20878" lon="0.14309">
        <ele>753.91</ele>
        <time>2021-08-02T13:53:47Z</time>
      </trkpt>
      <trkpt lat="42.20878" lon="0.14336">
        <ele>752.46</ele>
        <time>2021-08-02T13:53:51Z</time>
      </trkpt>
      <trkpt lat="42.20882" lon="0.14377">
        <ele>750.12</ele>
        <time>2021-08-02T13:53:56Z</time>
      </trkpt>
      <trkpt lat="42.20878" lon="0.14417">
        <ele>745.59</ele>
        <time>2021-08-02T13:54:02Z</time>
      </trkpt>
      <trkpt lat="42.20871" lon="0.1442">
        <ele>744.87</ele>
        <time>2021-08-02T13:54:03Z</time>
      </trkpt>
      <trkpt lat="42.2085" lon="0.1446">
        <ele>740.43</ele>
        <time>2021-08-02T13:54:09Z</time>
      </trkpt>
      <trkpt lat="42.2084" lon="0.14499">
        <ele>737.17</ele>
        <time>2021-08-02T13:54:13Z</time>
      </trkpt>
      <trkpt lat="42.20835" lon="0.14509">
        <ele>736.41</ele>
        <time>2021-08-02T13:54:14Z</time>
      </trkpt>
      <trkpt lat="42.20801" lon="0.14573">
        <ele>731.51</ele>
        <time>2021-08-02T13:54:20Z</time>
      </trkpt>
      <trkpt lat="42.2077" lon="0.14582">
        <ele>728.18</ele>
        <time>2021-08-02T13:54:24Z</time>
      </trkpt>
      <trkpt lat="42.20726" lon="0.14572">
        <ele>724.59</ele>
        <time>2021-08-02T13:54:29Z</time>
      </trkpt>
      <trkpt lat="42.2067" lon="0.14584">
        <ele>720.23</ele>
        <time>2021-08-02T13:54:35Z</time>
      </trkpt>
      <trkpt lat="42.20631" lon="0.14602">
        <ele>716.79</ele>
        <time>2021-08-02T13:54:40Z</time>
      </trkpt>
      <trkpt lat="42.20585" lon="0.14621">
        <ele>713.31</ele>
        <time>2021-08-02T13:54:45Z</time>
      </trkpt>
      <trkpt lat="42.20548" lon="0.1464">
        <ele>710.08</ele>
        <time>2021-08-02T13:54:49Z</time>
      </trkpt>
      <trkpt lat="42.20513" lon="0.14658">
        <ele>706.25</ele>
        <time>2021-08-02T13:54:53Z</time>
      </trkpt>
      <trkpt lat="42.2048" lon="0.14671">
        <ele>702.47</ele>
        <time>2021-08-02T13:54:57Z</time>
      </trkpt>
      <trkpt lat="42.20463" lon="0.14678">
        <ele>700.8</ele>
        <time>2021-08-02T13:54:59Z</time>
      </trkpt>
      <trkpt lat="42.2043" lon="0.14708">
        <ele>696.84</ele>
        <time>2021-08-02T13:55:03Z</time>
      </trkpt>
      <trkpt lat="42.20404" lon="0.1474">
        <ele>693.63</ele>
        <time>2021-08-02T13:55:06Z</time>
      </trkpt>
      <trkpt lat="42.20375" lon="0.14773">
        <ele>690.45</ele>
        <time>2021-08-02T13:55:09Z</time>
      </trkpt>
      <trkpt lat="42.20355" lon="0.14794">
        <ele>688.07</ele>
        <time>2021-08-02T13:55:11Z</time>
      </trkpt>
      <trkpt lat="42.20332" lon="0.14806">
        <ele>683.74</ele>
        <time>2021-08-02T13:55:14Z</time>
      </trkpt>
      <trkpt lat="42.20327" lon="0.14806">
        <ele>680.63</ele>
        <time>2021-08-02T13:55:16Z</time>
      </trkpt>
      <trkpt lat="42.20325" lon="0.14805">
        <ele>677.41</ele>
        <time>2021-08-02T13:55:18Z</time>
      </trkpt>
      <trkpt lat="42.20325" lon="0.14805">
        <ele>673.94</ele>
        <time>2021-08-02T13:55:21Z</time>
      </trkpt>
      <trkpt lat="42.20325" lon="0.14805">
        <ele>670.87</ele>
        <time>2021-08-02T13:55:25Z</time>
      </trkpt>
      <trkpt lat="42.20324" lon="0.14805">
        <ele>668.15</ele>
        <time>2021-08-02T13:55:41Z</time>
      </trkpt>
      <trkpt lat="42.20298" lon="0.14779">
        <ele>667.78</ele>
        <time>2021-08-02T13:55:50Z</time>
      </trkpt>
      <trkpt lat="42.20291" lon="0.14772">
        <ele>667.81</ele>
        <time>2021-08-02T13:55:51Z</time>
      </trkpt>
      <trkpt lat="42.20258" lon="0.14736">
        <ele>668.55</ele>
        <time>2021-08-02T13:55:55Z</time>
      </trkpt>
      <trkpt lat="42.20234" lon="0.14657">
        <ele>669.96</ele>
        <time>2021-08-02T13:56:00Z</time>
      </trkpt>
      <trkpt lat="42.20269" lon="0.14601">
        <ele>671.08</ele>
        <time>2021-08-02T13:56:04Z</time>
      </trkpt>
      <trkpt lat="42.20336" lon="0.14599">
        <ele>671.12</ele>
        <time>2021-08-02T13:56:09Z</time>
      </trkpt>
      <trkpt lat="42.20365" lon="0.14552">
        <ele>670.29</ele>
        <time>2021-08-02T13:56:13Z</time>
      </trkpt>
      <trkpt lat="42.20368" lon="0.14535">
        <ele>669.95</ele>
        <time>2021-08-02T13:56:14Z</time>
      </trkpt>
      <trkpt lat="42.20388" lon="0.14388">
        <ele>666.1</ele>
        <time>2021-08-02T13:56:22Z</time>
      </trkpt>
      <trkpt lat="42.20404" lon="0.14294">
        <ele>662.25</ele>
        <time>2021-08-02T13:56:27Z</time>
      </trkpt>
      <trkpt lat="42.20423" lon="0.14217">
        <ele>658.3</ele>
        <time>2021-08-02T13:56:31Z</time>
      </trkpt>
      <trkpt lat="42.20441" lon="0.14157">
        <ele>655.15</ele>
        <time>2021-08-02T13:56:34Z</time>
      </trkpt>
      <trkpt lat="42.20464" lon="0.14093">
        <ele>651.87</ele>
        <time>2021-08-02T13:56:37Z</time>
      </trkpt>
      <trkpt lat="42.20501" lon="0.14011">
        <ele>648.03</ele>
        <time>2021-08-02T13:56:41Z</time>
      </trkpt>
      <trkpt lat="42.2051" lon="0.1399">
        <ele>647.12</ele>
        <time>2021-08-02T13:56:42Z</time>
      </trkpt>
      <trkpt lat="42.20546" lon="0.13822">
        <ele>643.29</ele>
        <time>2021-08-02T13:56:49Z</time>
      </trkpt>
      <trkpt lat="42.2059" lon="0.13637">
        <ele>640.96</ele>
        <time>2021-08-02T13:56:58Z</time>
      </trkpt>
      <trkpt lat="42.20611" lon="0.13571">
        <ele>640.48</ele>
        <time>2021-08-02T13:57:03Z</time>
      </trkpt>
      <trkpt lat="42.20674" lon="0.13498">
        <ele>639.56</ele>
        <time>2021-08-02T13:57:13Z</time>
      </trkpt>
      <trkpt lat="42.20723" lon="0.13467">
        <ele>639.44</ele>
        <time>2021-08-02T13:57:18Z</time>
      </trkpt>
      <trkpt lat="42.20753" lon="0.13392">
        <ele>638.55</ele>
        <time>2021-08-02T13:57:24Z</time>
      </trkpt>
      <trkpt lat="42.20778" lon="0.13311">
        <ele>639.37</ele>
        <time>2021-08-02T13:57:30Z</time>
      </trkpt>
      <trkpt lat="42.20802" lon="0.13295">
        <ele>640.52</ele>
        <time>2021-08-02T13:57:32Z</time>
      </trkpt>
      <trkpt lat="42.20874" lon="0.13243">
        <ele>644.77</ele>
        <time>2021-08-02T13:57:38Z</time>
      </trkpt>
      <trkpt lat="42.20924" lon="0.13203">
        <ele>648.1</ele>
        <time>2021-08-02T13:57:42Z</time>
      </trkpt>
      <trkpt lat="42.20945" lon="0.13182">
        <ele>649.76</ele>
        <time>2021-08-02T13:57:44Z</time>
      </trkpt>
      <trkpt lat="42.20964" lon="0.13133">
        <ele>652.99</ele>
        <time>2021-08-02T13:57:47Z</time>
      </trkpt>
      <trkpt lat="42.20988" lon="0.12999">
        <ele>656.79</ele>
        <time>2021-08-02T13:57:54Z</time>
      </trkpt>
      <trkpt lat="42.20995" lon="0.12922">
        <ele>657.77</ele>
        <time>2021-08-02T13:57:58Z</time>
      </trkpt>
      <trkpt lat="42.2099" lon="0.12782">
        <ele>659.78</ele>
        <time>2021-08-02T13:58:05Z</time>
      </trkpt>
      <trkpt lat="42.20995" lon="0.12765">
        <ele>660.15</ele>
        <time>2021-08-02T13:58:06Z</time>
      </trkpt>
      <trkpt lat="42.21006" lon="0.12721">
        <ele>660.98</ele>
        <time>2021-08-02T13:58:09Z</time>
      </trkpt>
      <trkpt lat="42.21007" lon="0.12705">
        <ele>661.28</ele>
        <time>2021-08-02T13:58:15Z</time>
      </trkpt>
      <trkpt lat="42.21007" lon="0.12708">
        <ele>660.84</ele>
        <time>2021-08-02T13:58:43Z</time>
      </trkpt>
      <trkpt lat="42.21007" lon="0.12708">
        <ele>661.33</ele>
        <time>2021-08-02T13:59:09Z</time>
      </trkpt>
      <trkpt lat="42.21015" lon="0.12694">
        <ele>661.47</ele>
        <time>2021-08-02T13:59:14Z</time>
      </trkpt>
      <trkpt lat="42.21038" lon="0.12623">
        <ele>662.34</ele>
        <time>2021-08-02T13:59:22Z</time>
      </trkpt>
      <trkpt lat="42.21043" lon="0.1261">
        <ele>662.83</ele>
        <time>2021-08-02T13:59:23Z</time>
      </trkpt>
      <trkpt lat="42.21082" lon="0.12538">
        <ele>664.41</ele>
        <time>2021-08-02T13:59:28Z</time>
      </trkpt>
      <trkpt lat="42.21129" lon="0.12489">
        <ele>665.87</ele>
        <time>2021-08-02T13:59:33Z</time>
      </trkpt>
      <trkpt lat="42.21159" lon="0.12413">
        <ele>667.59</ele>
        <time>2021-08-02T13:59:39Z</time>
      </trkpt>
      <trkpt lat="42.21196" lon="0.12363">
        <ele>670.16</ele>
        <time>2021-08-02T13:59:44Z</time>
      </trkpt>
      <trkpt lat="42.21197" lon="0.12353">
        <ele>672</ele>
        <time>2021-08-02T13:59:48Z</time>
      </trkpt>
      <trkpt lat="42.21196" lon="0.12352">
        <ele>672.88</ele>
        <time>2021-08-02T13:59:56Z</time>
      </trkpt>
      <trkpt lat="42.21195" lon="0.12358">
        <ele>673.33</ele>
        <time>2021-08-02T14:00:03Z</time>
      </trkpt>
      <trkpt lat="42.21204" lon="0.12338">
        <ele>673.32</ele>
        <time>2021-08-02T14:00:10Z</time>
      </trkpt>
      <trkpt lat="42.21203" lon="0.12339">
        <ele>673.16</ele>
        <time>2021-08-02T14:00:11Z</time>
      </trkpt>
      <trkpt lat="42.21202" lon="0.12341">
        <ele>673.01</ele>
        <time>2021-08-02T14:00:19Z</time>
      </trkpt>
      <trkpt lat="42.21198" lon="0.12352">
        <ele>673.06</ele>
        <time>2021-08-02T14:00:23Z</time>
      </trkpt>
      <trkpt lat="42.2119" lon="0.12366">
        <ele>673.16</ele>
        <time>2021-08-02T14:00:25Z</time>
      </trkpt>
      <trkpt lat="42.21165" lon="0.12395">
        <ele>673.63</ele>
        <time>2021-08-02T14:00:28Z</time>
      </trkpt>
      <trkpt lat="42.21135" lon="0.12484">
        <ele>673.75</ele>
        <time>2021-08-02T14:00:34Z</time>
      </trkpt>
      <trkpt lat="42.21116" lon="0.12496">
        <ele>672.88</ele>
        <time>2021-08-02T14:00:36Z</time>
      </trkpt>
      <trkpt lat="42.21076" lon="0.1254">
        <ele>670.59</ele>
        <time>2021-08-02T14:00:41Z</time>
      </trkpt>
      <trkpt lat="42.21051" lon="0.12583">
        <ele>669.38</ele>
        <time>2021-08-02T14:00:44Z</time>
      </trkpt>
      <trkpt lat="42.21012" lon="0.12681">
        <ele>667.81</ele>
        <time>2021-08-02T14:00:50Z</time>
      </trkpt>
      <trkpt lat="42.21002" lon="0.12693">
        <ele>665.13</ele>
        <time>2021-08-02T14:00:55Z</time>
      </trkpt>
      <trkpt lat="42.21008" lon="0.12694">
        <ele>662.13</ele>
        <time>2021-08-02T14:01:05Z</time>
      </trkpt>
      <trkpt lat="42.2101" lon="0.12701">
        <ele>661.76</ele>
        <time>2021-08-02T14:01:23Z</time>
      </trkpt>
      <trkpt lat="42.2101" lon="0.127">
        <ele>661.79</ele>
        <time>2021-08-02T14:02:36Z</time>
      </trkpt>
      <trkpt lat="42.21014" lon="0.12686">
        <ele>661.51</ele>
        <time>2021-08-02T14:02:49Z</time>
      </trkpt>
      <trkpt lat="42.21015" lon="0.12679">
        <ele>661.84</ele>
        <time>2021-08-02T14:03:09Z</time>
      </trkpt>
      <trkpt lat="42.21037" lon="0.12616">
        <ele>662.49</ele>
        <time>2021-08-02T14:03:15Z</time>
      </trkpt>
      <trkpt lat="42.21068" lon="0.12562">
        <ele>663.51</ele>
        <time>2021-08-02T14:03:19Z</time>
      </trkpt>
      <trkpt lat="42.21112" lon="0.12498">
        <ele>665.29</ele>
        <time>2021-08-02T14:03:24Z</time>
      </trkpt>
      <trkpt lat="42.21159" lon="0.12418">
        <ele>667.8</ele>
        <time>2021-08-02T14:03:31Z</time>
      </trkpt>
      <trkpt lat="42.21203" lon="0.12337">
        <ele>671.44</ele>
        <time>2021-08-02T14:03:37Z</time>
      </trkpt>
      <trkpt lat="42.21261" lon="0.12263">
        <ele>673.27</ele>
        <time>2021-08-02T14:03:43Z</time>
      </trkpt>
      <trkpt lat="42.21305" lon="0.12262">
        <ele>671.73</ele>
        <time>2021-08-02T14:03:48Z</time>
      </trkpt>
      <trkpt lat="42.21355" lon="0.12292">
        <ele>669.83</ele>
        <time>2021-08-02T14:03:55Z</time>
      </trkpt>
      <trkpt lat="42.21396" lon="0.12276">
        <ele>669.78</ele>
        <time>2021-08-02T14:03:59Z</time>
      </trkpt>
      <trkpt lat="42.21417" lon="0.12249">
        <ele>670.22</ele>
        <time>2021-08-02T14:04:05Z</time>
      </trkpt>
      <trkpt lat="42.21414" lon="0.12246">
        <ele>670.53</ele>
        <time>2021-08-02T14:04:11Z</time>
      </trkpt>
      <trkpt lat="42.21412" lon="0.12243">
        <ele>670.55</ele>
        <time>2021-08-02T14:04:12Z</time>
      </trkpt>
      <trkpt lat="42.21382" lon="0.12239">
        <ele>670.43</ele>
        <time>2021-08-02T14:04:18Z</time>
      </trkpt>
      <trkpt lat="42.21357" lon="0.12214">
        <ele>672.58</ele>
        <time>2021-08-02T14:04:25Z</time>
      </trkpt>
      <trkpt lat="42.21317" lon="0.12169">
        <ele>676.68</ele>
        <time>2021-08-02T14:04:32Z</time>
      </trkpt>
      <trkpt lat="42.21292" lon="0.1213">
        <ele>679.69</ele>
        <time>2021-08-02T14:04:36Z</time>
      </trkpt>
      <trkpt lat="42.21306" lon="0.12096">
        <ele>683.18</ele>
        <time>2021-08-02T14:04:40Z</time>
      </trkpt>
      <trkpt lat="42.21333" lon="0.12065">
        <ele>687.18</ele>
        <time>2021-08-02T14:04:44Z</time>
      </trkpt>
      <trkpt lat="42.21348" lon="0.12035">
        <ele>690.28</ele>
        <time>2021-08-02T14:04:47Z</time>
      </trkpt>
      <trkpt lat="42.21361" lon="0.11999">
        <ele>694.4</ele>
        <time>2021-08-02T14:04:51Z</time>
      </trkpt>
      <trkpt lat="42.21371" lon="0.11975">
        <ele>697.86</ele>
        <time>2021-08-02T14:04:54Z</time>
      </trkpt>
      <trkpt lat="42.21374" lon="0.11937">
        <ele>702.35</ele>
        <time>2021-08-02T14:04:58Z</time>
      </trkpt>
      <trkpt lat="42.21369" lon="0.11901">
        <ele>705.05</ele>
        <time>2021-08-02T14:05:01Z</time>
      </trkpt>
      <trkpt lat="42.21387" lon="0.11874">
        <ele>710.19</ele>
        <time>2021-08-02T14:05:07Z</time>
      </trkpt>
      <trkpt lat="42.21439" lon="0.11904">
        <ele>713.03</ele>
        <time>2021-08-02T14:05:12Z</time>
      </trkpt>
      <trkpt lat="42.21466" lon="0.1191">
        <ele>714.17</ele>
        <time>2021-08-02T14:05:14Z</time>
      </trkpt>
      <trkpt lat="42.21516" lon="0.1187">
        <ele>718.05</ele>
        <time>2021-08-02T14:05:20Z</time>
      </trkpt>
      <trkpt lat="42.21504" lon="0.11823">
        <ele>721.3</ele>
        <time>2021-08-02T14:05:24Z</time>
      </trkpt>
      <trkpt lat="42.21498" lon="0.11799">
        <ele>723.06</ele>
        <time>2021-08-02T14:05:26Z</time>
      </trkpt>
      <trkpt lat="42.21502" lon="0.11765">
        <ele>727.86</ele>
        <time>2021-08-02T14:05:33Z</time>
      </trkpt>
      <trkpt lat="42.21507" lon="0.11726">
        <ele>730.97</ele>
        <time>2021-08-02T14:05:40Z</time>
      </trkpt>
      <trkpt lat="42.21522" lon="0.1169">
        <ele>732</ele>
        <time>2021-08-02T14:05:43Z</time>
      </trkpt>
      <trkpt lat="42.21547" lon="0.11566">
        <ele>735.39</ele>
        <time>2021-08-02T14:05:50Z</time>
      </trkpt>
      <trkpt lat="42.21552" lon="0.11547">
        <ele>735.68</ele>
        <time>2021-08-02T14:05:51Z</time>
      </trkpt>
      <trkpt lat="42.21582" lon="0.11471">
        <ele>736.82</ele>
        <time>2021-08-02T14:05:57Z</time>
      </trkpt>
      <trkpt lat="42.21552" lon="0.11442">
        <ele>738.41</ele>
        <time>2021-08-02T14:06:01Z</time>
      </trkpt>
      <trkpt lat="42.21517" lon="0.11423">
        <ele>740.74</ele>
        <time>2021-08-02T14:06:04Z</time>
      </trkpt>
      <trkpt lat="42.21477" lon="0.11373">
        <ele>743.82</ele>
        <time>2021-08-02T14:06:08Z</time>
      </trkpt>
      <trkpt lat="42.21435" lon="0.11297">
        <ele>747.33</ele>
        <time>2021-08-02T14:06:14Z</time>
      </trkpt>
      <trkpt lat="42.21452" lon="0.11265">
        <ele>748.77</ele>
        <time>2021-08-02T14:06:17Z</time>
      </trkpt>
      <trkpt lat="42.21475" lon="0.11229">
        <ele>750.69</ele>
        <time>2021-08-02T14:06:20Z</time>
      </trkpt>
      <trkpt lat="42.21499" lon="0.11153">
        <ele>755.42</ele>
        <time>2021-08-02T14:06:25Z</time>
      </trkpt>
      <trkpt lat="42.21507" lon="0.1111">
        <ele>758.61</ele>
        <time>2021-08-02T14:06:28Z</time>
      </trkpt>
      <trkpt lat="42.21515" lon="0.11102">
        <ele>759.54</ele>
        <time>2021-08-02T14:06:29Z</time>
      </trkpt>
      <trkpt lat="42.21523" lon="0.11038">
        <ele>765.48</ele>
        <time>2021-08-02T14:06:35Z</time>
      </trkpt>
      <trkpt lat="42.21519" lon="0.11025">
        <ele>766.45</ele>
        <time>2021-08-02T14:06:36Z</time>
      </trkpt>
      <trkpt lat="42.21482" lon="0.10963">
        <ele>771.56</ele>
        <time>2021-08-02T14:06:42Z</time>
      </trkpt>
      <trkpt lat="42.21467" lon="0.10912">
        <ele>774.82</ele>
        <time>2021-08-02T14:06:46Z</time>
      </trkpt>
      <trkpt lat="42.2148" lon="0.10878">
        <ele>777.96</ele>
        <time>2021-08-02T14:06:51Z</time>
      </trkpt>
      <trkpt lat="42.2148" lon="0.10878">
        <ele>781.08</ele>
        <time>2021-08-02T14:06:59Z</time>
      </trkpt>
      <trkpt lat="42.21482" lon="0.10876">
        <ele>781.31</ele>
        <time>2021-08-02T14:07:00Z</time>
      </trkpt>
      <trkpt lat="42.21483" lon="0.10853">
        <ele>782.06</ele>
        <time>2021-08-02T14:07:05Z</time>
      </trkpt>
      <trkpt lat="42.21451" lon="0.10812">
        <ele>784.16</ele>
        <time>2021-08-02T14:07:11Z</time>
      </trkpt>
      <trkpt lat="42.21405" lon="0.10796">
        <ele>787.04</ele>
        <time>2021-08-02T14:07:17Z</time>
      </trkpt>
      <trkpt lat="42.21386" lon="0.10803">
        <ele>788.06</ele>
        <time>2021-08-02T14:07:19Z</time>
      </trkpt>
      <trkpt lat="42.21344" lon="0.10802">
        <ele>788.89</ele>
        <time>2021-08-02T14:07:23Z</time>
      </trkpt>
      <trkpt lat="42.21309" lon="0.10792">
        <ele>789.62</ele>
        <time>2021-08-02T14:07:26Z</time>
      </trkpt>
      <trkpt lat="42.21262" lon="0.10807">
        <ele>790.68</ele>
        <time>2021-08-02T14:07:31Z</time>
      </trkpt>
      <trkpt lat="42.2125" lon="0.10816">
        <ele>790.9</ele>
        <time>2021-08-02T14:07:33Z</time>
      </trkpt>
      <trkpt lat="42.21206" lon="0.10819">
        <ele>791.14</ele>
        <time>2021-08-02T14:07:38Z</time>
      </trkpt>
      <trkpt lat="42.21153" lon="0.10837">
        <ele>790.66</ele>
        <time>2021-08-02T14:07:44Z</time>
      </trkpt>
      <trkpt lat="42.21145" lon="0.10843">
        <ele>788.9</ele>
        <time>2021-08-02T14:07:50Z</time>
      </trkpt>
      <trkpt lat="42.21086" lon="0.10901">
        <ele>786.79</ele>
        <time>2021-08-02T14:08:00Z</time>
      </trkpt>
      <trkpt lat="42.21079" lon="0.1091">
        <ele>786.43</ele>
        <time>2021-08-02T14:08:01Z</time>
      </trkpt>
      <trkpt lat="42.21019" lon="0.11013">
        <ele>782.66</ele>
        <time>2021-08-02T14:08:10Z</time>
      </trkpt>
      <trkpt lat="42.21014" lon="0.11023">
        <ele>782.06</ele>
        <time>2021-08-02T14:08:11Z</time>
      </trkpt>
      <trkpt lat="42.20986" lon="0.11109">
        <ele>779.09</ele>
        <time>2021-08-02T14:08:20Z</time>
      </trkpt>
      <trkpt lat="42.20965" lon="0.11137">
        <ele>777.73</ele>
        <time>2021-08-02T14:08:26Z</time>
      </trkpt>
      <trkpt lat="42.20907" lon="0.11172">
        <ele>777.2</ele>
        <time>2021-08-02T14:08:35Z</time>
      </trkpt>
      <trkpt lat="42.2086" lon="0.11201">
        <ele>778.74</ele>
        <time>2021-08-02T14:08:43Z</time>
      </trkpt>
      <trkpt lat="42.20843" lon="0.11213">
        <ele>780.07</ele>
        <time>2021-08-02T14:08:48Z</time>
      </trkpt>
      <trkpt lat="42.20812" lon="0.11222">
        <ele>780.17</ele>
        <time>2021-08-02T14:08:54Z</time>
      </trkpt>
      <trkpt lat="42.20799" lon="0.11217">
        <ele>780.11</ele>
        <time>2021-08-02T14:08:56Z</time>
      </trkpt>
      <trkpt lat="42.20765" lon="0.11219">
        <ele>779.38</ele>
        <time>2021-08-02T14:09:01Z</time>
      </trkpt>
      <trkpt lat="42.20756" lon="0.11222">
        <ele>778.79</ele>
        <time>2021-08-02T14:09:03Z</time>
      </trkpt>
      <trkpt lat="42.20737" lon="0.11217">
        <ele>776.11</ele>
        <time>2021-08-02T14:09:12Z</time>
      </trkpt>
      <trkpt lat="42.20723" lon="0.11235">
        <ele>776</ele>
        <time>2021-08-02T14:09:17Z</time>
      </trkpt>
      <trkpt lat="42.20702" lon="0.1125">
        <ele>776.49</ele>
        <time>2021-08-02T14:09:21Z</time>
      </trkpt>
      <trkpt lat="42.20681" lon="0.11271">
        <ele>777.53</ele>
        <time>2021-08-02T14:09:24Z</time>
      </trkpt>
      <trkpt lat="42.20652" lon="0.11295">
        <ele>778.81</ele>
        <time>2021-08-02T14:09:28Z</time>
      </trkpt>
      <trkpt lat="42.20629" lon="0.11325">
        <ele>780.14</ele>
        <time>2021-08-02T14:09:32Z</time>
      </trkpt>
      <trkpt lat="42.20606" lon="0.1135">
        <ele>781.79</ele>
        <time>2021-08-02T14:09:38Z</time>
      </trkpt>
      <trkpt lat="42.20594" lon="0.11376">
        <ele>783.03</ele>
        <time>2021-08-02T14:09:43Z</time>
      </trkpt>
      <trkpt lat="42.20564" lon="0.11398">
        <ele>785.37</ele>
        <time>2021-08-02T14:09:50Z</time>
      </trkpt>
      <trkpt lat="42.20513" lon="0.11436">
        <ele>787.86</ele>
        <time>2021-08-02T14:09:58Z</time>
      </trkpt>
      <trkpt lat="42.20498" lon="0.11446">
        <ele>788.28</ele>
        <time>2021-08-02T14:10:00Z</time>
      </trkpt>
      <trkpt lat="42.20463" lon="0.11511">
        <ele>791.16</ele>
        <time>2021-08-02T14:10:09Z</time>
      </trkpt>
      <trkpt lat="42.20422" lon="0.11543">
        <ele>792.94</ele>
        <time>2021-08-02T14:10:16Z</time>
      </trkpt>
      <trkpt lat="42.2038" lon="0.11521">
        <ele>793.23</ele>
        <time>2021-08-02T14:10:22Z</time>
      </trkpt>
      <trkpt lat="42.20347" lon="0.11553">
        <ele>794.77</ele>
        <time>2021-08-02T14:10:29Z</time>
      </trkpt>
      <trkpt lat="42.20319" lon="0.11577">
        <ele>795.92</ele>
        <time>2021-08-02T14:10:33Z</time>
      </trkpt>
      <trkpt lat="42.20269" lon="0.11607">
        <ele>799.67</ele>
        <time>2021-08-02T14:10:39Z</time>
      </trkpt>
      <trkpt lat="42.20233" lon="0.11632">
        <ele>803.1</ele>
        <time>2021-08-02T14:10:43Z</time>
      </trkpt>
      <trkpt lat="42.20215" lon="0.11649">
        <ele>804.66</ele>
        <time>2021-08-02T14:10:45Z</time>
      </trkpt>
      <trkpt lat="42.20169" lon="0.11661">
        <ele>808.38</ele>
        <time>2021-08-02T14:10:50Z</time>
      </trkpt>
      <trkpt lat="42.20133" lon="0.11663">
        <ele>812.33</ele>
        <time>2021-08-02T14:10:54Z</time>
      </trkpt>
      <trkpt lat="42.20099" lon="0.11669">
        <ele>816.33</ele>
        <time>2021-08-02T14:10:58Z</time>
      </trkpt>
      <trkpt lat="42.20092" lon="0.1167">
        <ele>817.35</ele>
        <time>2021-08-02T14:10:59Z</time>
      </trkpt>
      <trkpt lat="42.20067" lon="0.11697">
        <ele>821.87</ele>
        <time>2021-08-02T14:11:03Z</time>
      </trkpt>
      <trkpt lat="42.20037" lon="0.1173">
        <ele>823.9</ele>
        <time>2021-08-02T14:11:07Z</time>
      </trkpt>
      <trkpt lat="42.19974" lon="0.11743">
        <ele>825.75</ele>
        <time>2021-08-02T14:11:16Z</time>
      </trkpt>
      <trkpt lat="42.1994" lon="0.1175">
        <ele>824.96</ele>
        <time>2021-08-02T14:11:21Z</time>
      </trkpt>
      <trkpt lat="42.19906" lon="0.11738">
        <ele>823.2</ele>
        <time>2021-08-02T14:11:27Z</time>
      </trkpt>
      <trkpt lat="42.19882" lon="0.11731">
        <ele>821.72</ele>
        <time>2021-08-02T14:11:30Z</time>
      </trkpt>
      <trkpt lat="42.1986" lon="0.11702">
        <ele>820.03</ele>
        <time>2021-08-02T14:11:35Z</time>
      </trkpt>
      <trkpt lat="42.1985" lon="0.11677">
        <ele>820.73</ele>
        <time>2021-08-02T14:11:41Z</time>
      </trkpt>
      <trkpt lat="42.19835" lon="0.1166">
        <ele>822.2</ele>
        <time>2021-08-02T14:11:45Z</time>
      </trkpt>
      <trkpt lat="42.19825" lon="0.1165">
        <ele>824.18</ele>
        <time>2021-08-02T14:11:48Z</time>
      </trkpt>
      <trkpt lat="42.19819" lon="0.11641">
        <ele>825.38</ele>
        <time>2021-08-02T14:11:50Z</time>
      </trkpt>
      <trkpt lat="42.19811" lon="0.11619">
        <ele>828.36</ele>
        <time>2021-08-02T14:11:54Z</time>
      </trkpt>
      <trkpt lat="42.19783" lon="0.11605">
        <ele>832.15</ele>
        <time>2021-08-02T14:12:00Z</time>
      </trkpt>
      <trkpt lat="42.19751" lon="0.11602">
        <ele>835.35</ele>
        <time>2021-08-02T14:12:05Z</time>
      </trkpt>
      <trkpt lat="42.1972" lon="0.11565">
        <ele>837.84</ele>
        <time>2021-08-02T14:12:10Z</time>
      </trkpt>
      <trkpt lat="42.19691" lon="0.1152">
        <ele>842.15</ele>
        <time>2021-08-02T14:12:17Z</time>
      </trkpt>
      <trkpt lat="42.19665" lon="0.11492">
        <ele>844.81</ele>
        <time>2021-08-02T14:12:22Z</time>
      </trkpt>
      <trkpt lat="42.19621" lon="0.11489">
        <ele>847.4</ele>
        <time>2021-08-02T14:12:28Z</time>
      </trkpt>
      <trkpt lat="42.19578" lon="0.11499">
        <ele>848.06</ele>
        <time>2021-08-02T14:12:33Z</time>
      </trkpt>
      <trkpt lat="42.19543" lon="0.11483">
        <ele>846.76</ele>
        <time>2021-08-02T14:12:41Z</time>
      </trkpt>
      <trkpt lat="42.19513" lon="0.11448">
        <ele>847</ele>
        <time>2021-08-02T14:12:48Z</time>
      </trkpt>
      <trkpt lat="42.19473" lon="0.11424">
        <ele>848.7</ele>
        <time>2021-08-02T14:12:53Z</time>
      </trkpt>
      <trkpt lat="42.19445" lon="0.11395">
        <ele>850.13</ele>
        <time>2021-08-02T14:12:57Z</time>
      </trkpt>
      <trkpt lat="42.19397" lon="0.11333">
        <ele>853.18</ele>
        <time>2021-08-02T14:13:05Z</time>
      </trkpt>
      <trkpt lat="42.1937" lon="0.11298">
        <ele>856.96</ele>
        <time>2021-08-02T14:13:11Z</time>
      </trkpt>
      <trkpt lat="42.19362" lon="0.11293">
        <ele>857.66</ele>
        <time>2021-08-02T14:13:12Z</time>
      </trkpt>
      <trkpt lat="42.19356" lon="0.11288">
        <ele>858.24</ele>
        <time>2021-08-02T14:13:13Z</time>
      </trkpt>
      <trkpt lat="42.19352" lon="0.1128">
        <ele>858.64</ele>
        <time>2021-08-02T14:13:14Z</time>
      </trkpt>
      <trkpt lat="42.19346" lon="0.11265">
        <ele>858.94</ele>
        <time>2021-08-02T14:13:16Z</time>
      </trkpt>
      <trkpt lat="42.1933" lon="0.11255">
        <ele>858.58</ele>
        <time>2021-08-02T14:13:20Z</time>
      </trkpt>
      <trkpt lat="42.19301" lon="0.1126">
        <ele>857.07</ele>
        <time>2021-08-02T14:13:25Z</time>
      </trkpt>
      <trkpt lat="42.19295" lon="0.11258">
        <ele>856.68</ele>
        <time>2021-08-02T14:13:26Z</time>
      </trkpt>
      <trkpt lat="42.19274" lon="0.11216">
        <ele>855.33</ele>
        <time>2021-08-02T14:13:32Z</time>
      </trkpt>
      <trkpt lat="42.19271" lon="0.11185">
        <ele>854.66</ele>
        <time>2021-08-02T14:13:35Z</time>
      </trkpt>
      <trkpt lat="42.19246" lon="0.11142">
        <ele>852.09</ele>
        <time>2021-08-02T14:13:42Z</time>
      </trkpt>
      <trkpt lat="42.19233" lon="0.11135">
        <ele>851.2</ele>
        <time>2021-08-02T14:13:44Z</time>
      </trkpt>
      <trkpt lat="42.192" lon="0.11105">
        <ele>848.03</ele>
        <time>2021-08-02T14:13:50Z</time>
      </trkpt>
      <trkpt lat="42.19192" lon="0.11101">
        <ele>846.95</ele>
        <time>2021-08-02T14:13:52Z</time>
      </trkpt>
      <trkpt lat="42.19162" lon="0.11091">
        <ele>843.36</ele>
        <time>2021-08-02T14:13:59Z</time>
      </trkpt>
      <trkpt lat="42.19156" lon="0.11131">
        <ele>839.46</ele>
        <time>2021-08-02T14:14:07Z</time>
      </trkpt>
      <trkpt lat="42.19139" lon="0.11147">
        <ele>837.92</ele>
        <time>2021-08-02T14:14:11Z</time>
      </trkpt>
      <trkpt lat="42.19106" lon="0.11142">
        <ele>834.97</ele>
        <time>2021-08-02T14:14:17Z</time>
      </trkpt>
      <trkpt lat="42.19085" lon="0.11115">
        <ele>830.95</ele>
        <time>2021-08-02T14:14:23Z</time>
      </trkpt>
      <trkpt lat="42.1906" lon="0.11081">
        <ele>827.66</ele>
        <time>2021-08-02T14:14:29Z</time>
      </trkpt>
      <trkpt lat="42.19047" lon="0.11062">
        <ele>825.8</ele>
        <time>2021-08-02T14:14:32Z</time>
      </trkpt>
      <trkpt lat="42.19026" lon="0.11017">
        <ele>821.72</ele>
        <time>2021-08-02T14:14:39Z</time>
      </trkpt>
      <trkpt lat="42.19019" lon="0.10999">
        <ele>820.22</ele>
        <time>2021-08-02T14:14:42Z</time>
      </trkpt>
      <trkpt lat="42.19014" lon="0.10963">
        <ele>818.22</ele>
        <time>2021-08-02T14:14:47Z</time>
      </trkpt>
      <trkpt lat="42.19012" lon="0.1093">
        <ele>817.01</ele>
        <time>2021-08-02T14:14:51Z</time>
      </trkpt>
      <trkpt lat="42.18998" lon="0.10887">
        <ele>815.5</ele>
        <time>2021-08-02T14:14:57Z</time>
      </trkpt>
      <trkpt lat="42.18979" lon="0.10849">
        <ele>813.12</ele>
        <time>2021-08-02T14:15:05Z</time>
      </trkpt>
      <trkpt lat="42.18971" lon="0.10834">
        <ele>812.55</ele>
        <time>2021-08-02T14:15:08Z</time>
      </trkpt>
      <trkpt lat="42.18959" lon="0.10789">
        <ele>811.71</ele>
        <time>2021-08-02T14:15:14Z</time>
      </trkpt>
      <trkpt lat="42.18955" lon="0.10744">
        <ele>811.61</ele>
        <time>2021-08-02T14:15:18Z</time>
      </trkpt>
      <trkpt lat="42.18958" lon="0.10642">
        <ele>810.38</ele>
        <time>2021-08-02T14:15:27Z</time>
      </trkpt>
      <trkpt lat="42.18939" lon="0.10596">
        <ele>809.6</ele>
        <time>2021-08-02T14:15:32Z</time>
      </trkpt>
      <trkpt lat="42.18922" lon="0.1054">
        <ele>809.51</ele>
        <time>2021-08-02T14:15:37Z</time>
      </trkpt>
      <trkpt lat="42.18912" lon="0.1046">
        <ele>809.17</ele>
        <time>2021-08-02T14:15:43Z</time>
      </trkpt>
      <trkpt lat="42.18911" lon="0.10413">
        <ele>808.07</ele>
        <time>2021-08-02T14:15:47Z</time>
      </trkpt>
      <trkpt lat="42.18922" lon="0.1036">
        <ele>806.19</ele>
        <time>2021-08-02T14:15:52Z</time>
      </trkpt>
      <trkpt lat="42.18925" lon="0.10337">
        <ele>805.21</ele>
        <time>2021-08-02T14:15:55Z</time>
      </trkpt>
      <trkpt lat="42.18927" lon="0.10316">
        <ele>804.35</ele>
        <time>2021-08-02T14:15:57Z</time>
      </trkpt>
      <trkpt lat="42.18924" lon="0.10267">
        <ele>802.31</ele>
        <time>2021-08-02T14:16:01Z</time>
      </trkpt>
      <trkpt lat="42.18884" lon="0.10197">
        <ele>799.28</ele>
        <time>2021-08-02T14:16:08Z</time>
      </trkpt>
      <trkpt lat="42.18865" lon="0.10182">
        <ele>798.92</ele>
        <time>2021-08-02T14:16:10Z</time>
      </trkpt>
      <trkpt lat="42.1885" lon="0.10165">
        <ele>798.49</ele>
        <time>2021-08-02T14:16:12Z</time>
      </trkpt>
      <trkpt lat="42.18801" lon="0.1013">
        <ele>796.16</ele>
        <time>2021-08-02T14:16:18Z</time>
      </trkpt>
      <trkpt lat="42.18782" lon="0.10101">
        <ele>794.62</ele>
        <time>2021-08-02T14:16:21Z</time>
      </trkpt>
      <trkpt lat="42.18757" lon="0.10073">
        <ele>792.75</ele>
        <time>2021-08-02T14:16:25Z</time>
      </trkpt>
      <trkpt lat="42.18732" lon="0.10012">
        <ele>789.22</ele>
        <time>2021-08-02T14:16:32Z</time>
      </trkpt>
      <trkpt lat="42.18721" lon="0.0999">
        <ele>787.05</ele>
        <time>2021-08-02T14:16:35Z</time>
      </trkpt>
      <trkpt lat="42.18706" lon="0.09966">
        <ele>785.12</ele>
        <time>2021-08-02T14:16:38Z</time>
      </trkpt>
      <trkpt lat="42.18665" lon="0.09929">
        <ele>781.17</ele>
        <time>2021-08-02T14:16:44Z</time>
      </trkpt>
      <trkpt lat="42.1864" lon="0.09902">
        <ele>778.63</ele>
        <time>2021-08-02T14:16:48Z</time>
      </trkpt>
      <trkpt lat="42.18608" lon="0.09875">
        <ele>776.63</ele>
        <time>2021-08-02T14:16:52Z</time>
      </trkpt>
      <trkpt lat="42.18557" lon="0.09867">
        <ele>773.18</ele>
        <time>2021-08-02T14:16:59Z</time>
      </trkpt>
      <trkpt lat="42.18543" lon="0.09866">
        <ele>772.06</ele>
        <time>2021-08-02T14:17:01Z</time>
      </trkpt>
      <trkpt lat="42.18505" lon="0.09862">
        <ele>768.74</ele>
        <time>2021-08-02T14:17:07Z</time>
      </trkpt>
      <trkpt lat="42.18467" lon="0.09842">
        <ele>764.98</ele>
        <time>2021-08-02T14:17:13Z</time>
      </trkpt>
      <trkpt lat="42.18452" lon="0.09829">
        <ele>763.01</ele>
        <time>2021-08-02T14:17:16Z</time>
      </trkpt>
      <trkpt lat="42.18428" lon="0.09813">
        <ele>759.49</ele>
        <time>2021-08-02T14:17:21Z</time>
      </trkpt>
      <trkpt lat="42.18403" lon="0.09785">
        <ele>756.94</ele>
        <time>2021-08-02T14:17:25Z</time>
      </trkpt>
      <trkpt lat="42.18375" lon="0.09746">
        <ele>752.95</ele>
        <time>2021-08-02T14:17:30Z</time>
      </trkpt>
      <trkpt lat="42.18366" lon="0.09728">
        <ele>751.3</ele>
        <time>2021-08-02T14:17:32Z</time>
      </trkpt>
      <trkpt lat="42.18342" lon="0.09685">
        <ele>747.2</ele>
        <time>2021-08-02T14:17:37Z</time>
      </trkpt>
      <trkpt lat="42.18319" lon="0.09662">
        <ele>742.67</ele>
        <time>2021-08-02T14:17:42Z</time>
      </trkpt>
      <trkpt lat="42.18313" lon="0.09657">
        <ele>742.06</ele>
        <time>2021-08-02T14:17:43Z</time>
      </trkpt>
      <trkpt lat="42.18278" lon="0.09615">
        <ele>738.62</ele>
        <time>2021-08-02T14:17:49Z</time>
      </trkpt>
      <trkpt lat="42.1827" lon="0.09589">
        <ele>736.38</ele>
        <time>2021-08-02T14:17:53Z</time>
      </trkpt>
      <trkpt lat="42.18267" lon="0.09573">
        <ele>735.32</ele>
        <time>2021-08-02T14:17:55Z</time>
      </trkpt>
      <trkpt lat="42.18252" lon="0.09522">
        <ele>731.69</ele>
        <time>2021-08-02T14:18:01Z</time>
      </trkpt>
      <trkpt lat="42.18249" lon="0.09514">
        <ele>730.91</ele>
        <time>2021-08-02T14:18:02Z</time>
      </trkpt>
      <trkpt lat="42.18239" lon="0.09494">
        <ele>728.07</ele>
        <time>2021-08-02T14:18:06Z</time>
      </trkpt>
      <trkpt lat="42.18224" lon="0.09473">
        <ele>723.86</ele>
        <time>2021-08-02T14:18:12Z</time>
      </trkpt>
      <trkpt lat="42.18209" lon="0.09454">
        <ele>720.72</ele>
        <time>2021-08-02T14:18:18Z</time>
      </trkpt>
      <trkpt lat="42.18202" lon="0.09453">
        <ele>719.58</ele>
        <time>2021-08-02T14:18:20Z</time>
      </trkpt>
      <trkpt lat="42.18186" lon="0.09435">
        <ele>716.89</ele>
        <time>2021-08-02T14:18:25Z</time>
      </trkpt>
      <trkpt lat="42.18176" lon="0.09425">
        <ele>715.98</ele>
        <time>2021-08-02T14:18:27Z</time>
      </trkpt>
      <trkpt lat="42.18155" lon="0.09407">
        <ele>712.37</ele>
        <time>2021-08-02T14:18:34Z</time>
      </trkpt>
      <trkpt lat="42.18142" lon="0.09387">
        <ele>710.6</ele>
        <time>2021-08-02T14:18:38Z</time>
      </trkpt>
      <trkpt lat="42.18116" lon="0.09352">
        <ele>708.43</ele>
        <time>2021-08-02T14:18:43Z</time>
      </trkpt>
      <trkpt lat="42.18104" lon="0.0932">
        <ele>706.17</ele>
        <time>2021-08-02T14:18:47Z</time>
      </trkpt>
      <trkpt lat="42.18089" lon="0.09265">
        <ele>702.24</ele>
        <time>2021-08-02T14:18:54Z</time>
      </trkpt>
      <trkpt lat="42.18073" lon="0.09235">
        <ele>699.45</ele>
        <time>2021-08-02T14:18:59Z</time>
      </trkpt>
      <trkpt lat="42.18055" lon="0.09216">
        <ele>697.35</ele>
        <time>2021-08-02T14:19:03Z</time>
      </trkpt>
      <trkpt lat="42.18036" lon="0.09204">
        <ele>695.56</ele>
        <time>2021-08-02T14:19:06Z</time>
      </trkpt>
      <trkpt lat="42.18008" lon="0.09193">
        <ele>693.44</ele>
        <time>2021-08-02T14:19:10Z</time>
      </trkpt>
      <trkpt lat="42.17977" lon="0.09174">
        <ele>690.44</ele>
        <time>2021-08-02T14:19:14Z</time>
      </trkpt>
      <trkpt lat="42.17949" lon="0.09148">
        <ele>686.01</ele>
        <time>2021-08-02T14:19:19Z</time>
      </trkpt>
      <trkpt lat="42.17924" lon="0.09136">
        <ele>681.98</ele>
        <time>2021-08-02T14:19:23Z</time>
      </trkpt>
      <trkpt lat="42.179" lon="0.09144">
        <ele>677.84</ele>
        <time>2021-08-02T14:19:29Z</time>
      </trkpt>
      <trkpt lat="42.17894" lon="0.0919">
        <ele>674.6</ele>
        <time>2021-08-02T14:19:35Z</time>
      </trkpt>
      <trkpt lat="42.17888" lon="0.09195">
        <ele>673.47</ele>
        <time>2021-08-02T14:19:37Z</time>
      </trkpt>
      <trkpt lat="42.1788" lon="0.09201">
        <ele>672.5</ele>
        <time>2021-08-02T14:19:39Z</time>
      </trkpt>
      <trkpt lat="42.17847" lon="0.09211">
        <ele>668.63</ele>
        <time>2021-08-02T14:19:46Z</time>
      </trkpt>
      <trkpt lat="42.17829" lon="0.09218">
        <ele>665.48</ele>
        <time>2021-08-02T14:19:51Z</time>
      </trkpt>
      <trkpt lat="42.17816" lon="0.09224">
        <ele>663.86</ele>
        <time>2021-08-02T14:19:54Z</time>
      </trkpt>
      <trkpt lat="42.17813" lon="0.09246">
        <ele>660.64</ele>
        <time>2021-08-02T14:19:59Z</time>
      </trkpt>
      <trkpt lat="42.17826" lon="0.09271">
        <ele>658.23</ele>
        <time>2021-08-02T14:20:03Z</time>
      </trkpt>
      <trkpt lat="42.17827" lon="0.09308">
        <ele>656.17</ele>
        <time>2021-08-02T14:20:07Z</time>
      </trkpt>
      <trkpt lat="42.17823" lon="0.09369">
        <ele>653.01</ele>
        <time>2021-08-02T14:20:17Z</time>
      </trkpt>
      <trkpt lat="42.17798" lon="0.09364">
        <ele>652.91</ele>
        <time>2021-08-02T14:20:23Z</time>
      </trkpt>
      <trkpt lat="42.17793" lon="0.09335">
        <ele>654.46</ele>
        <time>2021-08-02T14:20:29Z</time>
      </trkpt>
      <trkpt lat="42.17794" lon="0.09312">
        <ele>655.46</ele>
        <time>2021-08-02T14:20:32Z</time>
      </trkpt>
      <trkpt lat="42.17779" lon="0.09286">
        <ele>657.76</ele>
        <time>2021-08-02T14:20:38Z</time>
      </trkpt>
      <trkpt lat="42.17764" lon="0.09273">
        <ele>658.22</ele>
        <time>2021-08-02T14:20:41Z</time>
      </trkpt>
      <trkpt lat="42.17741" lon="0.09264">
        <ele>657.46</ele>
        <time>2021-08-02T14:20:45Z</time>
      </trkpt>
      <trkpt lat="42.17726" lon="0.09225">
        <ele>655.2</ele>
        <time>2021-08-02T14:20:51Z</time>
      </trkpt>
      <trkpt lat="42.17726" lon="0.09217">
        <ele>655.03</ele>
        <time>2021-08-02T14:20:52Z</time>
      </trkpt>
      <trkpt lat="42.17727" lon="0.092">
        <ele>654.86</ele>
        <time>2021-08-02T14:20:54Z</time>
      </trkpt>
      <trkpt lat="42.17738" lon="0.09169">
        <ele>654.7</ele>
        <time>2021-08-02T14:20:58Z</time>
      </trkpt>
      <trkpt lat="42.17744" lon="0.09137">
        <ele>655.07</ele>
        <time>2021-08-02T14:21:03Z</time>
      </trkpt>
      <trkpt lat="42.17743" lon="0.09116">
        <ele>655.23</ele>
        <time>2021-08-02T14:21:06Z</time>
      </trkpt>
      <trkpt lat="42.17749" lon="0.0908">
        <ele>655.26</ele>
        <time>2021-08-02T14:21:10Z</time>
      </trkpt>
      <trkpt lat="42.17748" lon="0.09054">
        <ele>654.91</ele>
        <time>2021-08-02T14:21:14Z</time>
      </trkpt>
      <trkpt lat="42.17739" lon="0.09028">
        <ele>653.94</ele>
        <time>2021-08-02T14:21:20Z</time>
      </trkpt>
      <trkpt lat="42.17733" lon="0.09011">
        <ele>652.66</ele>
        <time>2021-08-02T14:21:24Z</time>
      </trkpt>
      <trkpt lat="42.17736" lon="0.08983">
        <ele>650.71</ele>
        <time>2021-08-02T14:21:29Z</time>
      </trkpt>
      <trkpt lat="42.17744" lon="0.08936">
        <ele>647.35</ele>
        <time>2021-08-02T14:21:37Z</time>
      </trkpt>
      <trkpt lat="42.17748" lon="0.08924">
        <ele>646.34</ele>
        <time>2021-08-02T14:21:39Z</time>
      </trkpt>
      <trkpt lat="42.17736" lon="0.08884">
        <ele>644.1</ele>
        <time>2021-08-02T14:21:46Z</time>
      </trkpt>
      <trkpt lat="42.17732" lon="0.08881">
        <ele>643.88</ele>
        <time>2021-08-02T14:21:47Z</time>
      </trkpt>
      <trkpt lat="42.17726" lon="0.08878">
        <ele>643.32</ele>
        <time>2021-08-02T14:21:49Z</time>
      </trkpt>
      <trkpt lat="42.17689" lon="0.08834">
        <ele>640.68</ele>
        <time>2021-08-02T14:21:59Z</time>
      </trkpt>
      <trkpt lat="42.1769" lon="0.08812">
        <ele>640.62</ele>
        <time>2021-08-02T14:22:02Z</time>
      </trkpt>
      <trkpt lat="42.17692" lon="0.08788">
        <ele>640.74</ele>
        <time>2021-08-02T14:22:05Z</time>
      </trkpt>
      <trkpt lat="42.17681" lon="0.08765">
        <ele>640.51</ele>
        <time>2021-08-02T14:22:10Z</time>
      </trkpt>
      <trkpt lat="42.17644" lon="0.08734">
        <ele>638.45</ele>
        <time>2021-08-02T14:22:19Z</time>
      </trkpt>
      <trkpt lat="42.17621" lon="0.08706">
        <ele>637.59</ele>
        <time>2021-08-02T14:22:25Z</time>
      </trkpt>
      <trkpt lat="42.1759" lon="0.08697">
        <ele>636.81</ele>
        <time>2021-08-02T14:22:31Z</time>
      </trkpt>
      <trkpt lat="42.17581" lon="0.08706">
        <ele>636.44</ele>
        <time>2021-08-02T14:22:33Z</time>
      </trkpt>
      <trkpt lat="42.17557" lon="0.0872">
        <ele>635.06</ele>
        <time>2021-08-02T14:22:38Z</time>
      </trkpt>
      <trkpt lat="42.17548" lon="0.08711">
        <ele>634.18</ele>
        <time>2021-08-02T14:22:41Z</time>
      </trkpt>
      <trkpt lat="42.17549" lon="0.08706">
        <ele>634.06</ele>
        <time>2021-08-02T14:22:42Z</time>
      </trkpt>
      <trkpt lat="42.17551" lon="0.087">
        <ele>633.84</ele>
        <time>2021-08-02T14:22:43Z</time>
      </trkpt>
      <trkpt lat="42.17553" lon="0.08696">
        <ele>633.79</ele>
        <time>2021-08-02T14:22:44Z</time>
      </trkpt>
      <trkpt lat="42.17556" lon="0.08692">
        <ele>633.76</ele>
        <time>2021-08-02T14:22:45Z</time>
      </trkpt>
      <trkpt lat="42.17583" lon="0.08641">
        <ele>633.21</ele>
        <time>2021-08-02T14:22:56Z</time>
      </trkpt>
      <trkpt lat="42.17588" lon="0.08626">
        <ele>633.39</ele>
        <time>2021-08-02T14:23:02Z</time>
      </trkpt>
      <trkpt lat="42.17583" lon="0.08588">
        <ele>634.02</ele>
        <time>2021-08-02T14:23:08Z</time>
      </trkpt>
      <trkpt lat="42.17579" lon="0.08579">
        <ele>634.26</ele>
        <time>2021-08-02T14:23:10Z</time>
      </trkpt>
      <trkpt lat="42.17545" lon="0.08524">
        <ele>632.22</ele>
        <time>2021-08-02T14:23:24Z</time>
      </trkpt>
      <trkpt lat="42.17536" lon="0.08517">
        <ele>629.65</ele>
        <time>2021-08-02T14:23:32Z</time>
      </trkpt>
      <trkpt lat="42.1753" lon="0.08514">
        <ele>628.96</ele>
        <time>2021-08-02T14:23:36Z</time>
      </trkpt>
      <trkpt lat="42.17506" lon="0.0849">
        <ele>627.93</ele>
        <time>2021-08-02T14:23:43Z</time>
      </trkpt>
      <trkpt lat="42.1752" lon="0.08478">
        <ele>626.04</ele>
        <time>2021-08-02T14:23:49Z</time>
      </trkpt>
      <trkpt lat="42.17541" lon="0.08491">
        <ele>624.24</ele>
        <time>2021-08-02T14:23:54Z</time>
      </trkpt>
      <trkpt lat="42.17543" lon="0.08471">
        <ele>623.01</ele>
        <time>2021-08-02T14:23:59Z</time>
      </trkpt>
      <trkpt lat="42.17503" lon="0.08431">
        <ele>619.51</ele>
        <time>2021-08-02T14:24:08Z</time>
      </trkpt>
      <trkpt lat="42.17495" lon="0.08425">
        <ele>619.11</ele>
        <time>2021-08-02T14:24:09Z</time>
      </trkpt>
      <trkpt lat="42.17472" lon="0.0839">
        <ele>615.47</ele>
        <time>2021-08-02T14:24:15Z</time>
      </trkpt>
      <trkpt lat="42.17448" lon="0.08374">
        <ele>613.42</ele>
        <time>2021-08-02T14:24:19Z</time>
      </trkpt>
      <trkpt lat="42.17438" lon="0.08363">
        <ele>612.81</ele>
        <time>2021-08-02T14:24:21Z</time>
      </trkpt>
      <trkpt lat="42.17422" lon="0.08326">
        <ele>613.37</ele>
        <time>2021-08-02T14:24:28Z</time>
      </trkpt>
      <trkpt lat="42.17447" lon="0.08339">
        <ele>614.51</ele>
        <time>2021-08-02T14:24:32Z</time>
      </trkpt>
      <trkpt lat="42.1746" lon="0.08331">
        <ele>616.27</ele>
        <time>2021-08-02T14:24:37Z</time>
      </trkpt>
      <trkpt lat="42.17423" lon="0.08264">
        <ele>619.5</ele>
        <time>2021-08-02T14:24:45Z</time>
      </trkpt>
      <trkpt lat="42.1741" lon="0.08246">
        <ele>620.78</ele>
        <time>2021-08-02T14:24:48Z</time>
      </trkpt>
      <trkpt lat="42.17402" lon="0.08233">
        <ele>621.9</ele>
        <time>2021-08-02T14:24:50Z</time>
      </trkpt>
      <trkpt lat="42.17383" lon="0.08209">
        <ele>624.02</ele>
        <time>2021-08-02T14:24:54Z</time>
      </trkpt>
      <trkpt lat="42.17369" lon="0.08185">
        <ele>626.21</ele>
        <time>2021-08-02T14:24:58Z</time>
      </trkpt>
      <trkpt lat="42.17365" lon="0.08158">
        <ele>628.34</ele>
        <time>2021-08-02T14:25:02Z</time>
      </trkpt>
      <trkpt lat="42.1736" lon="0.08131">
        <ele>630.49</ele>
        <time>2021-08-02T14:25:05Z</time>
      </trkpt>
      <trkpt lat="42.17352" lon="0.08088">
        <ele>634.22</ele>
        <time>2021-08-02T14:25:11Z</time>
      </trkpt>
      <trkpt lat="42.17335" lon="0.08073">
        <ele>637.08</ele>
        <time>2021-08-02T14:25:16Z</time>
      </trkpt>
      <trkpt lat="42.17316" lon="0.08066">
        <ele>639.07</ele>
        <time>2021-08-02T14:25:20Z</time>
      </trkpt>
      <trkpt lat="42.17297" lon="0.08061">
        <ele>641.87</ele>
        <time>2021-08-02T14:25:28Z</time>
      </trkpt>
      <trkpt lat="42.17295" lon="0.0806">
        <ele>642.62</ele>
        <time>2021-08-02T14:25:34Z</time>
      </trkpt>
      <trkpt lat="42.17271" lon="0.08039">
        <ele>642.97</ele>
        <time>2021-08-02T14:25:39Z</time>
      </trkpt>
      <trkpt lat="42.17259" lon="0.08029">
        <ele>643.15</ele>
        <time>2021-08-02T14:25:41Z</time>
      </trkpt>
      <trkpt lat="42.17265" lon="0.07994">
        <ele>644.13</ele>
        <time>2021-08-02T14:25:48Z</time>
      </trkpt>
      <trkpt lat="42.17278" lon="0.07987">
        <ele>644.62</ele>
        <time>2021-08-02T14:25:50Z</time>
      </trkpt>
      <trkpt lat="42.17322" lon="0.07927">
        <ele>647.29</ele>
        <time>2021-08-02T14:25:59Z</time>
      </trkpt>
      <trkpt lat="42.17336" lon="0.07926">
        <ele>647.45</ele>
        <time>2021-08-02T14:26:02Z</time>
      </trkpt>
      <trkpt lat="42.17377" lon="0.0794">
        <ele>644.26</ele>
        <time>2021-08-02T14:26:12Z</time>
      </trkpt>
      <trkpt lat="42.17403" lon="0.07942">
        <ele>641.99</ele>
        <time>2021-08-02T14:26:18Z</time>
      </trkpt>
      <trkpt lat="42.17418" lon="0.07915">
        <ele>640.11</ele>
        <time>2021-08-02T14:26:23Z</time>
      </trkpt>
      <trkpt lat="42.1738" lon="0.07876">
        <ele>639</ele>
        <time>2021-08-02T14:26:31Z</time>
      </trkpt>
      <trkpt lat="42.17366" lon="0.07863">
        <ele>638.71</ele>
        <time>2021-08-02T14:26:34Z</time>
      </trkpt>
      <trkpt lat="42.17327" lon="0.07814">
        <ele>637.38</ele>
        <time>2021-08-02T14:26:40Z</time>
      </trkpt>
      <trkpt lat="42.17318" lon="0.07784">
        <ele>636.24</ele>
        <time>2021-08-02T14:26:44Z</time>
      </trkpt>
      <trkpt lat="42.17286" lon="0.07754">
        <ele>634.95</ele>
        <time>2021-08-02T14:26:50Z</time>
      </trkpt>
      <trkpt lat="42.17264" lon="0.07759">
        <ele>634.66</ele>
        <time>2021-08-02T14:26:53Z</time>
      </trkpt>
      <trkpt lat="42.1724" lon="0.07759">
        <ele>634.66</ele>
        <time>2021-08-02T14:26:56Z</time>
      </trkpt>
      <trkpt lat="42.17223" lon="0.0773">
        <ele>634.93</ele>
        <time>2021-08-02T14:27:01Z</time>
      </trkpt>
      <trkpt lat="42.17233" lon="0.0772">
        <ele>635.34</ele>
        <time>2021-08-02T14:27:03Z</time>
      </trkpt>
      <trkpt lat="42.1725" lon="0.07689">
        <ele>636.64</ele>
        <time>2021-08-02T14:27:07Z</time>
      </trkpt>
      <trkpt lat="42.17293" lon="0.07665">
        <ele>640.01</ele>
        <time>2021-08-02T14:27:14Z</time>
      </trkpt>
      <trkpt lat="42.17301" lon="0.07661">
        <ele>640.4</ele>
        <time>2021-08-02T14:27:15Z</time>
      </trkpt>
      <trkpt lat="42.17332" lon="0.0765">
        <ele>643.31</ele>
        <time>2021-08-02T14:27:21Z</time>
      </trkpt>
      <trkpt lat="42.17391" lon="0.07648">
        <ele>646.32</ele>
        <time>2021-08-02T14:27:29Z</time>
      </trkpt>
      <trkpt lat="42.17397" lon="0.07648">
        <ele>646.71</ele>
        <time>2021-08-02T14:27:30Z</time>
      </trkpt>
      <trkpt lat="42.17419" lon="0.07653">
        <ele>647.61</ele>
        <time>2021-08-02T14:27:33Z</time>
      </trkpt>
      <trkpt lat="42.17463" lon="0.07628">
        <ele>648.12</ele>
        <time>2021-08-02T14:27:40Z</time>
      </trkpt>
      <trkpt lat="42.17453" lon="0.07572">
        <ele>647.7</ele>
        <time>2021-08-02T14:27:45Z</time>
      </trkpt>
      <trkpt lat="42.17417" lon="0.07534">
        <ele>647.6</ele>
        <time>2021-08-02T14:27:51Z</time>
      </trkpt>
      <trkpt lat="42.17399" lon="0.07472">
        <ele>648.16</ele>
        <time>2021-08-02T14:27:58Z</time>
      </trkpt>
      <trkpt lat="42.17371" lon="0.0744">
        <ele>650.34</ele>
        <time>2021-08-02T14:28:04Z</time>
      </trkpt>
      <trkpt lat="42.17374" lon="0.07405">
        <ele>652.65</ele>
        <time>2021-08-02T14:28:08Z</time>
      </trkpt>
      <trkpt lat="42.17379" lon="0.07391">
        <ele>653.76</ele>
        <time>2021-08-02T14:28:10Z</time>
      </trkpt>
      <trkpt lat="42.17382" lon="0.07372">
        <ele>655.76</ele>
        <time>2021-08-02T14:28:13Z</time>
      </trkpt>
      <trkpt lat="42.17386" lon="0.07334">
        <ele>657.84</ele>
        <time>2021-08-02T14:28:19Z</time>
      </trkpt>
      <trkpt lat="42.17384" lon="0.07262">
        <ele>657.59</ele>
        <time>2021-08-02T14:28:28Z</time>
      </trkpt>
      <trkpt lat="42.17394" lon="0.07163">
        <ele>656.02</ele>
        <time>2021-08-02T14:28:37Z</time>
      </trkpt>
      <trkpt lat="42.17383" lon="0.07114">
        <ele>654.99</ele>
        <time>2021-08-02T14:28:41Z</time>
      </trkpt>
      <trkpt lat="42.17373" lon="0.07091">
        <ele>654.36</ele>
        <time>2021-08-02T14:28:43Z</time>
      </trkpt>
      <trkpt lat="42.17359" lon="0.07009">
        <ele>650.48</ele>
        <time>2021-08-02T14:28:50Z</time>
      </trkpt>
      <trkpt lat="42.17348" lon="0.06936">
        <ele>647.1</ele>
        <time>2021-08-02T14:28:57Z</time>
      </trkpt>
      <trkpt lat="42.1736" lon="0.06909">
        <ele>645.12</ele>
        <time>2021-08-02T14:29:02Z</time>
      </trkpt>
      <trkpt lat="42.17368" lon="0.06899">
        <ele>644.58</ele>
        <time>2021-08-02T14:29:04Z</time>
      </trkpt>
      <trkpt lat="42.17394" lon="0.06851">
        <ele>643.46</ele>
        <time>2021-08-02T14:29:10Z</time>
      </trkpt>
      <trkpt lat="42.17418" lon="0.06813">
        <ele>641.83</ele>
        <time>2021-08-02T14:29:18Z</time>
      </trkpt>
      <trkpt lat="42.17431" lon="0.06811">
        <ele>640.6</ele>
        <time>2021-08-02T14:29:22Z</time>
      </trkpt>
      <trkpt lat="42.17473" lon="0.0684">
        <ele>639.95</ele>
        <time>2021-08-02T14:29:28Z</time>
      </trkpt>
      <trkpt lat="42.17536" lon="0.06833">
        <ele>640.62</ele>
        <time>2021-08-02T14:29:34Z</time>
      </trkpt>
      <trkpt lat="42.17624" lon="0.06792">
        <ele>643.87</ele>
        <time>2021-08-02T14:29:41Z</time>
      </trkpt>
      <trkpt lat="42.17681" lon="0.06807">
        <ele>647.02</ele>
        <time>2021-08-02T14:29:46Z</time>
      </trkpt>
      <trkpt lat="42.17733" lon="0.06844">
        <ele>648.94</ele>
        <time>2021-08-02T14:29:51Z</time>
      </trkpt>
      <trkpt lat="42.17778" lon="0.06843">
        <ele>649.62</ele>
        <time>2021-08-02T14:29:55Z</time>
      </trkpt>
      <trkpt lat="42.17832" lon="0.06838">
        <ele>649.76</ele>
        <time>2021-08-02T14:30:00Z</time>
      </trkpt>
      <trkpt lat="42.17852" lon="0.06844">
        <ele>649.76</ele>
        <time>2021-08-02T14:30:02Z</time>
      </trkpt>
      <trkpt lat="42.17893" lon="0.06819">
        <ele>649.97</ele>
        <time>2021-08-02T14:30:07Z</time>
      </trkpt>
      <trkpt lat="42.1791" lon="0.06717">
        <ele>651.46</ele>
        <time>2021-08-02T14:30:14Z</time>
      </trkpt>
      <trkpt lat="42.1788" lon="0.06642">
        <ele>653.41</ele>
        <time>2021-08-02T14:30:18Z</time>
      </trkpt>
      <trkpt lat="42.17855" lon="0.06611">
        <ele>654.77</ele>
        <time>2021-08-02T14:30:20Z</time>
      </trkpt>
      <trkpt lat="42.17827" lon="0.06538">
        <ele>657.57</ele>
        <time>2021-08-02T14:30:24Z</time>
      </trkpt>
      <trkpt lat="42.1779" lon="0.06416">
        <ele>661.46</ele>
        <time>2021-08-02T14:30:30Z</time>
      </trkpt>
      <trkpt lat="42.17808" lon="0.06348">
        <ele>663.58</ele>
        <time>2021-08-02T14:30:35Z</time>
      </trkpt>
      <trkpt lat="42.17838" lon="0.06354">
        <ele>664.13</ele>
        <time>2021-08-02T14:30:37Z</time>
      </trkpt>
      <trkpt lat="42.1788" lon="0.0637">
        <ele>664.82</ele>
        <time>2021-08-02T14:30:40Z</time>
      </trkpt>
      <trkpt lat="42.17944" lon="0.06346">
        <ele>665.03</ele>
        <time>2021-08-02T14:30:45Z</time>
      </trkpt>
      <trkpt lat="42.18021" lon="0.06305">
        <ele>663.4</ele>
        <time>2021-08-02T14:30:51Z</time>
      </trkpt>
      <trkpt lat="42.18068" lon="0.06345">
        <ele>662.38</ele>
        <time>2021-08-02T14:30:55Z</time>
      </trkpt>
      <trkpt lat="42.1811" lon="0.06362">
        <ele>661.88</ele>
        <time>2021-08-02T14:30:59Z</time>
      </trkpt>
      <trkpt lat="42.18122" lon="0.0635">
        <ele>661.81</ele>
        <time>2021-08-02T14:31:00Z</time>
      </trkpt>
      <trkpt lat="42.18192" lon="0.06331">
        <ele>661.39</ele>
        <time>2021-08-02T14:31:06Z</time>
      </trkpt>
      <trkpt lat="42.18222" lon="0.06402">
        <ele>661.32</ele>
        <time>2021-08-02T14:31:10Z</time>
      </trkpt>
      <trkpt lat="42.18239" lon="0.06472">
        <ele>661.53</ele>
        <time>2021-08-02T14:31:13Z</time>
      </trkpt>
      <trkpt lat="42.18263" lon="0.06529">
        <ele>661.88</ele>
        <time>2021-08-02T14:31:16Z</time>
      </trkpt>
      <trkpt lat="42.18314" lon="0.06548">
        <ele>662.4</ele>
        <time>2021-08-02T14:31:21Z</time>
      </trkpt>
      <trkpt lat="42.18326" lon="0.06487">
        <ele>662.77</ele>
        <time>2021-08-02T14:31:25Z</time>
      </trkpt>
      <trkpt lat="42.1833" lon="0.06389">
        <ele>663.86</ele>
        <time>2021-08-02T14:31:30Z</time>
      </trkpt>
      <trkpt lat="42.18351" lon="0.06326">
        <ele>665.01</ele>
        <time>2021-08-02T14:31:33Z</time>
      </trkpt>
      <trkpt lat="42.18412" lon="0.06275">
        <ele>666.9</ele>
        <time>2021-08-02T14:31:38Z</time>
      </trkpt>
      <trkpt lat="42.18435" lon="0.06299">
        <ele>667.37</ele>
        <time>2021-08-02T14:31:40Z</time>
      </trkpt>
      <trkpt lat="42.18504" lon="0.0634">
        <ele>667.39</ele>
        <time>2021-08-02T14:31:46Z</time>
      </trkpt>
      <trkpt lat="42.18516" lon="0.0629">
        <ele>665.71</ele>
        <time>2021-08-02T14:31:50Z</time>
      </trkpt>
      <trkpt lat="42.18544" lon="0.06182">
        <ele>661.79</ele>
        <time>2021-08-02T14:31:57Z</time>
      </trkpt>
      <trkpt lat="42.186" lon="0.06169">
        <ele>658.14</ele>
        <time>2021-08-02T14:32:02Z</time>
      </trkpt>
      <trkpt lat="42.18642" lon="0.06206">
        <ele>654.69</ele>
        <time>2021-08-02T14:32:07Z</time>
      </trkpt>
      <trkpt lat="42.18691" lon="0.06296">
        <ele>650.22</ele>
        <time>2021-08-02T14:32:14Z</time>
      </trkpt>
      <trkpt lat="42.18697" lon="0.06327">
        <ele>648.99</ele>
        <time>2021-08-02T14:32:16Z</time>
      </trkpt>
      <trkpt lat="42.1873" lon="0.06361">
        <ele>646.11</ele>
        <time>2021-08-02T14:32:21Z</time>
      </trkpt>
      <trkpt lat="42.18762" lon="0.06318">
        <ele>643.56</ele>
        <time>2021-08-02T14:32:27Z</time>
      </trkpt>
      <trkpt lat="42.18761" lon="0.06289">
        <ele>643.36</ele>
        <time>2021-08-02T14:32:29Z</time>
      </trkpt>
      <trkpt lat="42.18756" lon="0.06236">
        <ele>643.49</ele>
        <time>2021-08-02T14:32:32Z</time>
      </trkpt>
      <trkpt lat="42.1873" lon="0.06167">
        <ele>644.75</ele>
        <time>2021-08-02T14:32:37Z</time>
      </trkpt>
      <trkpt lat="42.18748" lon="0.06122">
        <ele>645.41</ele>
        <time>2021-08-02T14:32:41Z</time>
      </trkpt>
      <trkpt lat="42.18788" lon="0.06132">
        <ele>645.68</ele>
        <time>2021-08-02T14:32:44Z</time>
      </trkpt>
      <trkpt lat="42.1885" lon="0.06143">
        <ele>647.28</ele>
        <time>2021-08-02T14:32:49Z</time>
      </trkpt>
      <trkpt lat="42.18932" lon="0.06118">
        <ele>648.98</ele>
        <time>2021-08-02T14:32:56Z</time>
      </trkpt>
      <trkpt lat="42.18972" lon="0.06087">
        <ele>648.3</ele>
        <time>2021-08-02T14:33:00Z</time>
      </trkpt>
      <trkpt lat="42.19023" lon="0.06059">
        <ele>645.37</ele>
        <time>2021-08-02T14:33:05Z</time>
      </trkpt>
      <trkpt lat="42.19042" lon="0.06058">
        <ele>644.1</ele>
        <time>2021-08-02T14:33:07Z</time>
      </trkpt>
      <trkpt lat="42.19063" lon="0.06034">
        <ele>641.51</ele>
        <time>2021-08-02T14:33:12Z</time>
      </trkpt>
      <trkpt lat="42.19063" lon="0.06025">
        <ele>641.28</ele>
        <time>2021-08-02T14:33:13Z</time>
      </trkpt>
      <trkpt lat="42.19062" lon="0.0598">
        <ele>640.2</ele>
        <time>2021-08-02T14:33:18Z</time>
      </trkpt>
      <trkpt lat="42.19027" lon="0.05935">
        <ele>640.21</ele>
        <time>2021-08-02T14:33:24Z</time>
      </trkpt>
      <trkpt lat="42.19017" lon="0.05927">
        <ele>640.36</ele>
        <time>2021-08-02T14:33:25Z</time>
      </trkpt>
      <trkpt lat="42.18961" lon="0.05932">
        <ele>643.18</ele>
        <time>2021-08-02T14:33:32Z</time>
      </trkpt>
      <trkpt lat="42.1891" lon="0.05973">
        <ele>645.88</ele>
        <time>2021-08-02T14:33:39Z</time>
      </trkpt>
      <trkpt lat="42.18844" lon="0.05985">
        <ele>647.55</ele>
        <time>2021-08-02T14:33:45Z</time>
      </trkpt>
      <trkpt lat="42.18792" lon="0.05977">
        <ele>648.1</ele>
        <time>2021-08-02T14:33:49Z</time>
      </trkpt>
      <trkpt lat="42.18745" lon="0.05982">
        <ele>648.78</ele>
        <time>2021-08-02T14:33:53Z</time>
      </trkpt>
      <trkpt lat="42.18668" lon="0.05956">
        <ele>650.04</ele>
        <time>2021-08-02T14:33:59Z</time>
      </trkpt>
      <trkpt lat="42.18655" lon="0.05952">
        <ele>650.34</ele>
        <time>2021-08-02T14:34:00Z</time>
      </trkpt>
      <trkpt lat="42.1861" lon="0.05896">
        <ele>652.61</ele>
        <time>2021-08-02T14:34:06Z</time>
      </trkpt>
      <trkpt lat="42.18612" lon="0.05882">
        <ele>652.98</ele>
        <time>2021-08-02T14:34:07Z</time>
      </trkpt>
      <trkpt lat="42.1862" lon="0.0583">
        <ele>654.04</ele>
        <time>2021-08-02T14:34:10Z</time>
      </trkpt>
      <trkpt lat="42.18617" lon="0.05756">
        <ele>655.95</ele>
        <time>2021-08-02T14:34:14Z</time>
      </trkpt>
      <trkpt lat="42.18588" lon="0.05716">
        <ele>657.86</ele>
        <time>2021-08-02T14:34:19Z</time>
      </trkpt>
      <trkpt lat="42.18565" lon="0.05761">
        <ele>659.05</ele>
        <time>2021-08-02T14:34:23Z</time>
      </trkpt>
      <trkpt lat="42.18548" lon="0.0582">
        <ele>660.37</ele>
        <time>2021-08-02T14:34:27Z</time>
      </trkpt>
      <trkpt lat="42.18496" lon="0.05879">
        <ele>663.79</ele>
        <time>2021-08-02T14:34:35Z</time>
      </trkpt>
      <trkpt lat="42.18465" lon="0.05853">
        <ele>665.58</ele>
        <time>2021-08-02T14:34:39Z</time>
      </trkpt>
      <trkpt lat="42.18458" lon="0.0578">
        <ele>668.16</ele>
        <time>2021-08-02T14:34:44Z</time>
      </trkpt>
      <trkpt lat="42.18418" lon="0.05762">
        <ele>670.03</ele>
        <time>2021-08-02T14:34:48Z</time>
      </trkpt>
      <trkpt lat="42.18395" lon="0.05776">
        <ele>671.2</ele>
        <time>2021-08-02T14:34:50Z</time>
      </trkpt>
      <trkpt lat="42.18363" lon="0.05802">
        <ele>672.78</ele>
        <time>2021-08-02T14:34:53Z</time>
      </trkpt>
      <trkpt lat="42.18328" lon="0.0578">
        <ele>674.98</ele>
        <time>2021-08-02T14:34:58Z</time>
      </trkpt>
      <trkpt lat="42.18345" lon="0.05718">
        <ele>677.05</ele>
        <time>2021-08-02T14:35:03Z</time>
      </trkpt>
      <trkpt lat="42.18313" lon="0.05683">
        <ele>678.89</ele>
        <time>2021-08-02T14:35:07Z</time>
      </trkpt>
      <trkpt lat="42.18276" lon="0.05689">
        <ele>680.17</ele>
        <time>2021-08-02T14:35:10Z</time>
      </trkpt>
      <trkpt lat="42.18193" lon="0.05676">
        <ele>683.89</ele>
        <time>2021-08-02T14:35:17Z</time>
      </trkpt>
      <trkpt lat="42.18176" lon="0.05617">
        <ele>686.12</ele>
        <time>2021-08-02T14:35:21Z</time>
      </trkpt>
      <trkpt lat="42.18187" lon="0.0559">
        <ele>687.05</ele>
        <time>2021-08-02T14:35:23Z</time>
      </trkpt>
      <trkpt lat="42.18254" lon="0.05502">
        <ele>690.54</ele>
        <time>2021-08-02T14:35:30Z</time>
      </trkpt>
      <trkpt lat="42.18272" lon="0.05478">
        <ele>691.64</ele>
        <time>2021-08-02T14:35:32Z</time>
      </trkpt>
      <trkpt lat="42.18276" lon="0.05406">
        <ele>693.92</ele>
        <time>2021-08-02T14:35:38Z</time>
      </trkpt>
      <trkpt lat="42.18219" lon="0.05367">
        <ele>695.7</ele>
        <time>2021-08-02T14:35:43Z</time>
      </trkpt>
      <trkpt lat="42.1819" lon="0.0537">
        <ele>696.41</ele>
        <time>2021-08-02T14:35:45Z</time>
      </trkpt>
      <trkpt lat="42.18159" lon="0.05377">
        <ele>697.25</ele>
        <time>2021-08-02T14:35:47Z</time>
      </trkpt>
      <trkpt lat="42.18116" lon="0.05346">
        <ele>698.38</ele>
        <time>2021-08-02T14:35:51Z</time>
      </trkpt>
      <trkpt lat="42.18076" lon="0.0528">
        <ele>698.9</ele>
        <time>2021-08-02T14:35:56Z</time>
      </trkpt>
      <trkpt lat="42.18037" lon="0.05216">
        <ele>699.42</ele>
        <time>2021-08-02T14:36:00Z</time>
      </trkpt>
      <trkpt lat="42.18007" lon="0.05187">
        <ele>699.97</ele>
        <time>2021-08-02T14:36:02Z</time>
      </trkpt>
      <trkpt lat="42.17961" lon="0.05148">
        <ele>701.16</ele>
        <time>2021-08-02T14:36:05Z</time>
      </trkpt>
      <trkpt lat="42.1792" lon="0.0513">
        <ele>702.32</ele>
        <time>2021-08-02T14:36:08Z</time>
      </trkpt>
      <trkpt lat="42.17903" lon="0.05065">
        <ele>703.73</ele>
        <time>2021-08-02T14:36:13Z</time>
      </trkpt>
      <trkpt lat="42.17892" lon="0.04977">
        <ele>705.92</ele>
        <time>2021-08-02T14:36:19Z</time>
      </trkpt>
      <trkpt lat="42.17885" lon="0.049">
        <ele>708.23</ele>
        <time>2021-08-02T14:36:25Z</time>
      </trkpt>
      <trkpt lat="42.17924" lon="0.04915">
        <ele>709.54</ele>
        <time>2021-08-02T14:36:28Z</time>
      </trkpt>
      <trkpt lat="42.17937" lon="0.04927">
        <ele>709.99</ele>
        <time>2021-08-02T14:36:29Z</time>
      </trkpt>
      <trkpt lat="42.17994" lon="0.04987">
        <ele>712.17</ele>
        <time>2021-08-02T14:36:33Z</time>
      </trkpt>
      <trkpt lat="42.18036" lon="0.05081">
        <ele>714.3</ele>
        <time>2021-08-02T14:36:38Z</time>
      </trkpt>
      <trkpt lat="42.18063" lon="0.05101">
        <ele>714.87</ele>
        <time>2021-08-02T14:36:40Z</time>
      </trkpt>
      <trkpt lat="42.18201" lon="0.05175">
        <ele>718.18</ele>
        <time>2021-08-02T14:36:48Z</time>
      </trkpt>
      <trkpt lat="42.18266" lon="0.05222">
        <ele>721.31</ele>
        <time>2021-08-02T14:36:52Z</time>
      </trkpt>
      <trkpt lat="42.18321" lon="0.05273">
        <ele>725.07</ele>
        <time>2021-08-02T14:36:56Z</time>
      </trkpt>
      <trkpt lat="42.18386" lon="0.05388">
        <ele>728.99</ele>
        <time>2021-08-02T14:37:03Z</time>
      </trkpt>
      <trkpt lat="42.18393" lon="0.05511">
        <ele>730.62</ele>
        <time>2021-08-02T14:37:10Z</time>
      </trkpt>
      <trkpt lat="42.18415" lon="0.05545">
        <ele>730.67</ele>
        <time>2021-08-02T14:37:14Z</time>
      </trkpt>
      <trkpt lat="42.18484" lon="0.05554">
        <ele>730.77</ele>
        <time>2021-08-02T14:37:19Z</time>
      </trkpt>
      <trkpt lat="42.18541" lon="0.05496">
        <ele>731.5</ele>
        <time>2021-08-02T14:37:25Z</time>
      </trkpt>
      <trkpt lat="42.18577" lon="0.05465">
        <ele>732.11</ele>
        <time>2021-08-02T14:37:28Z</time>
      </trkpt>
      <trkpt lat="42.18652" lon="0.05431">
        <ele>734.93</ele>
        <time>2021-08-02T14:37:33Z</time>
      </trkpt>
      <trkpt lat="42.18713" lon="0.05446">
        <ele>740.19</ele>
        <time>2021-08-02T14:37:38Z</time>
      </trkpt>
      <trkpt lat="42.18748" lon="0.05452">
        <ele>743.51</ele>
        <time>2021-08-02T14:37:42Z</time>
      </trkpt>
      <trkpt lat="42.1879" lon="0.05408">
        <ele>747.03</ele>
        <time>2021-08-02T14:37:47Z</time>
      </trkpt>
      <trkpt lat="42.18801" lon="0.05402">
        <ele>747.74</ele>
        <time>2021-08-02T14:37:48Z</time>
      </trkpt>
      <trkpt lat="42.1884" lon="0.05383">
        <ele>750.13</ele>
        <time>2021-08-02T14:37:51Z</time>
      </trkpt>
      <trkpt lat="42.18903" lon="0.0539">
        <ele>754.4</ele>
        <time>2021-08-02T14:37:56Z</time>
      </trkpt>
      <trkpt lat="42.18946" lon="0.05373">
        <ele>757.92</ele>
        <time>2021-08-02T14:38:00Z</time>
      </trkpt>
      <trkpt lat="42.18958" lon="0.05319">
        <ele>761.4</ele>
        <time>2021-08-02T14:38:04Z</time>
      </trkpt>
      <trkpt lat="42.18985" lon="0.05258">
        <ele>765.86</ele>
        <time>2021-08-02T14:38:10Z</time>
      </trkpt>
      <trkpt lat="42.19039" lon="0.05219">
        <ele>769.17</ele>
        <time>2021-08-02T14:38:16Z</time>
      </trkpt>
      <trkpt lat="42.19115" lon="0.05187">
        <ele>771.62</ele>
        <time>2021-08-02T14:38:22Z</time>
      </trkpt>
      <trkpt lat="42.19158" lon="0.05198">
        <ele>772.74</ele>
        <time>2021-08-02T14:38:25Z</time>
      </trkpt>
      <trkpt lat="42.19204" lon="0.05218">
        <ele>774.42</ele>
        <time>2021-08-02T14:38:29Z</time>
      </trkpt>
      <trkpt lat="42.19242" lon="0.05187">
        <ele>777.89</ele>
        <time>2021-08-02T14:38:35Z</time>
      </trkpt>
      <trkpt lat="42.19243" lon="0.05174">
        <ele>778.41</ele>
        <time>2021-08-02T14:38:36Z</time>
      </trkpt>
      <trkpt lat="42.19294" lon="0.05106">
        <ele>781.99</ele>
        <time>2021-08-02T14:38:43Z</time>
      </trkpt>
      <trkpt lat="42.19307" lon="0.05079">
        <ele>782.89</ele>
        <time>2021-08-02T14:38:45Z</time>
      </trkpt>
      <trkpt lat="42.19321" lon="0.05044">
        <ele>783.68</ele>
        <time>2021-08-02T14:38:47Z</time>
      </trkpt>
      <trkpt lat="42.19382" lon="0.0499">
        <ele>785.03</ele>
        <time>2021-08-02T14:38:52Z</time>
      </trkpt>
      <trkpt lat="42.19432" lon="0.04993">
        <ele>785.56</ele>
        <time>2021-08-02T14:38:55Z</time>
      </trkpt>
      <trkpt lat="42.19604" lon="0.05054">
        <ele>787.06</ele>
        <time>2021-08-02T14:39:05Z</time>
      </trkpt>
      <trkpt lat="42.19675" lon="0.05092">
        <ele>787.18</ele>
        <time>2021-08-02T14:39:10Z</time>
      </trkpt>
      <trkpt lat="42.1973" lon="0.05086">
        <ele>786.39</ele>
        <time>2021-08-02T14:39:15Z</time>
      </trkpt>
      <trkpt lat="42.19789" lon="0.05049">
        <ele>785</ele>
        <time>2021-08-02T14:39:20Z</time>
      </trkpt>
      <trkpt lat="42.19847" lon="0.05038">
        <ele>784.15</ele>
        <time>2021-08-02T14:39:24Z</time>
      </trkpt>
      <trkpt lat="42.19918" lon="0.04986">
        <ele>783.03</ele>
        <time>2021-08-02T14:39:30Z</time>
      </trkpt>
      <trkpt lat="42.19977" lon="0.04996">
        <ele>782.73</ele>
        <time>2021-08-02T14:39:36Z</time>
      </trkpt>
      <trkpt lat="42.20037" lon="0.05062">
        <ele>783.66</ele>
        <time>2021-08-02T14:39:43Z</time>
      </trkpt>
      <trkpt lat="42.20045" lon="0.05066">
        <ele>783.91</ele>
        <time>2021-08-02T14:39:44Z</time>
      </trkpt>
      <trkpt lat="42.20054" lon="0.05068">
        <ele>784.23</ele>
        <time>2021-08-02T14:39:45Z</time>
      </trkpt>
      <trkpt lat="42.20081" lon="0.05056">
        <ele>785.22</ele>
        <time>2021-08-02T14:39:48Z</time>
      </trkpt>
      <trkpt lat="42.20107" lon="0.05038">
        <ele>786.49</ele>
        <time>2021-08-02T14:39:51Z</time>
      </trkpt>
      <trkpt lat="42.2014" lon="0.04951">
        <ele>790.49</ele>
        <time>2021-08-02T14:39:58Z</time>
      </trkpt>
      <trkpt lat="42.20124" lon="0.04877">
        <ele>793.8</ele>
        <time>2021-08-02T14:40:03Z</time>
      </trkpt>
      <trkpt lat="42.20129" lon="0.04845">
        <ele>795.26</ele>
        <time>2021-08-02T14:40:05Z</time>
      </trkpt>
      <trkpt lat="42.2014" lon="0.04758">
        <ele>799.01</ele>
        <time>2021-08-02T14:40:10Z</time>
      </trkpt>
      <trkpt lat="42.20138" lon="0.04667">
        <ele>802.62</ele>
        <time>2021-08-02T14:40:15Z</time>
      </trkpt>
      <trkpt lat="42.20139" lon="0.0465">
        <ele>803.39</ele>
        <time>2021-08-02T14:40:16Z</time>
      </trkpt>
      <trkpt lat="42.20159" lon="0.0459">
        <ele>806.45</ele>
        <time>2021-08-02T14:40:20Z</time>
      </trkpt>
      <trkpt lat="42.20178" lon="0.04564">
        <ele>807.73</ele>
        <time>2021-08-02T14:40:22Z</time>
      </trkpt>
      <trkpt lat="42.20199" lon="0.04519">
        <ele>809.18</ele>
        <time>2021-08-02T14:40:25Z</time>
      </trkpt>
      <trkpt lat="42.20264" lon="0.04441">
        <ele>811.11</ele>
        <time>2021-08-02T14:40:31Z</time>
      </trkpt>
      <trkpt lat="42.2037" lon="0.04404">
        <ele>812.74</ele>
        <time>2021-08-02T14:40:38Z</time>
      </trkpt>
      <trkpt lat="42.20437" lon="0.04388">
        <ele>813.66</ele>
        <time>2021-08-02T14:40:42Z</time>
      </trkpt>
      <trkpt lat="42.20505" lon="0.04403">
        <ele>814.27</ele>
        <time>2021-08-02T14:40:46Z</time>
      </trkpt>
      <trkpt lat="42.20576" lon="0.04437">
        <ele>814.62</ele>
        <time>2021-08-02T14:40:50Z</time>
      </trkpt>
      <trkpt lat="42.2063" lon="0.04447">
        <ele>814.91</ele>
        <time>2021-08-02T14:40:53Z</time>
      </trkpt>
      <trkpt lat="42.20787" lon="0.04516">
        <ele>815.45</ele>
        <time>2021-08-02T14:41:02Z</time>
      </trkpt>
      <trkpt lat="42.20913" lon="0.04551">
        <ele>814.39</ele>
        <time>2021-08-02T14:41:10Z</time>
      </trkpt>
      <trkpt lat="42.20969" lon="0.04607">
        <ele>811.97</ele>
        <time>2021-08-02T14:41:15Z</time>
      </trkpt>
      <trkpt lat="42.20976" lon="0.04625">
        <ele>811.25</ele>
        <time>2021-08-02T14:41:16Z</time>
      </trkpt>
      <trkpt lat="42.20995" lon="0.04674">
        <ele>809.13</ele>
        <time>2021-08-02T14:41:19Z</time>
      </trkpt>
      <trkpt lat="42.2104" lon="0.04699">
        <ele>805.17</ele>
        <time>2021-08-02T14:41:24Z</time>
      </trkpt>
      <trkpt lat="42.21059" lon="0.04627">
        <ele>803.08</ele>
        <time>2021-08-02T14:41:28Z</time>
      </trkpt>
      <trkpt lat="42.21067" lon="0.04551">
        <ele>801.86</ele>
        <time>2021-08-02T14:41:32Z</time>
      </trkpt>
      <trkpt lat="42.21096" lon="0.04476">
        <ele>800.22</ele>
        <time>2021-08-02T14:41:37Z</time>
      </trkpt>
      <trkpt lat="42.21164" lon="0.04432">
        <ele>798.8</ele>
        <time>2021-08-02T14:41:43Z</time>
      </trkpt>
      <trkpt lat="42.21197" lon="0.0438">
        <ele>797.54</ele>
        <time>2021-08-02T14:41:48Z</time>
      </trkpt>
      <trkpt lat="42.21184" lon="0.04325">
        <ele>796.75</ele>
        <time>2021-08-02T14:41:52Z</time>
      </trkpt>
      <trkpt lat="42.21208" lon="0.04267">
        <ele>796.1</ele>
        <time>2021-08-02T14:41:56Z</time>
      </trkpt>
      <trkpt lat="42.21275" lon="0.04249">
        <ele>795.17</ele>
        <time>2021-08-02T14:42:01Z</time>
      </trkpt>
      <trkpt lat="42.21339" lon="0.04308">
        <ele>792.99</ele>
        <time>2021-08-02T14:42:07Z</time>
      </trkpt>
      <trkpt lat="42.21374" lon="0.0437">
        <ele>789.82</ele>
        <time>2021-08-02T14:42:12Z</time>
      </trkpt>
      <trkpt lat="42.2144" lon="0.04377">
        <ele>786.48</ele>
        <time>2021-08-02T14:42:17Z</time>
      </trkpt>
      <trkpt lat="42.21475" lon="0.04334">
        <ele>783.56</ele>
        <time>2021-08-02T14:42:21Z</time>
      </trkpt>
      <trkpt lat="42.21505" lon="0.0422">
        <ele>779.33</ele>
        <time>2021-08-02T14:42:27Z</time>
      </trkpt>
      <trkpt lat="42.21513" lon="0.04171">
        <ele>777.23</ele>
        <time>2021-08-02T14:42:30Z</time>
      </trkpt>
      <trkpt lat="42.21518" lon="0.0414">
        <ele>774.7</ele>
        <time>2021-08-02T14:42:33Z</time>
      </trkpt>
      <trkpt lat="42.2152" lon="0.04121">
        <ele>770.41</ele>
        <time>2021-08-02T14:42:37Z</time>
      </trkpt>
      <trkpt lat="42.21522" lon="0.04111">
        <ele>769.23</ele>
        <time>2021-08-02T14:42:39Z</time>
      </trkpt>
      <trkpt lat="42.21534" lon="0.0409">
        <ele>766.89</ele>
        <time>2021-08-02T14:42:45Z</time>
      </trkpt>
      <trkpt lat="42.21557" lon="0.04062">
        <ele>766.32</ele>
        <time>2021-08-02T14:42:54Z</time>
      </trkpt>
      <trkpt lat="42.21544" lon="0.04064">
        <ele>766.7</ele>
        <time>2021-08-02T14:43:02Z</time>
      </trkpt>
      <trkpt lat="42.21528" lon="0.04097">
        <ele>766.13</ele>
        <time>2021-08-02T14:43:09Z</time>
      </trkpt>
      <trkpt lat="42.21525" lon="0.04124">
        <ele>765.34</ele>
        <time>2021-08-02T14:43:17Z</time>
      </trkpt>
      <trkpt lat="42.21529" lon="0.04121">
        <ele>765.32</ele>
        <time>2021-08-02T14:43:18Z</time>
      </trkpt>
      <trkpt lat="42.21541" lon="0.04112">
        <ele>765.27</ele>
        <time>2021-08-02T14:43:20Z</time>
      </trkpt>
      <trkpt lat="42.21599" lon="0.04144">
        <ele>764.43</ele>
        <time>2021-08-02T14:43:26Z</time>
      </trkpt>
      <trkpt lat="42.21607" lon="0.04228">
        <ele>762.56</ele>
        <time>2021-08-02T14:43:31Z</time>
      </trkpt>
      <trkpt lat="42.2159" lon="0.04328">
        <ele>758.96</ele>
        <time>2021-08-02T14:43:37Z</time>
      </trkpt>
      <trkpt lat="42.21585" lon="0.04407">
        <ele>755.1</ele>
        <time>2021-08-02T14:43:42Z</time>
      </trkpt>
      <trkpt lat="42.21547" lon="0.04487">
        <ele>750.57</ele>
        <time>2021-08-02T14:43:48Z</time>
      </trkpt>
      <trkpt lat="42.21536" lon="0.04492">
        <ele>749.74</ele>
        <time>2021-08-02T14:43:49Z</time>
      </trkpt>
      <trkpt lat="42.21502" lon="0.0455">
        <ele>744.69</ele>
        <time>2021-08-02T14:43:55Z</time>
      </trkpt>
      <trkpt lat="42.21502" lon="0.04563">
        <ele>743.89</ele>
        <time>2021-08-02T14:43:56Z</time>
      </trkpt>
      <trkpt lat="42.21481" lon="0.0461">
        <ele>739.01</ele>
        <time>2021-08-02T14:44:02Z</time>
      </trkpt>
      <trkpt lat="42.21443" lon="0.0463">
        <ele>735.51</ele>
        <time>2021-08-02T14:44:07Z</time>
      </trkpt>
      <trkpt lat="42.21412" lon="0.04665">
        <ele>732.95</ele>
        <time>2021-08-02T14:44:11Z</time>
      </trkpt>
      <trkpt lat="42.21413" lon="0.04708">
        <ele>730.08</ele>
        <time>2021-08-02T14:44:16Z</time>
      </trkpt>
      <trkpt lat="42.2144" lon="0.04704">
        <ele>729.01</ele>
        <time>2021-08-02T14:44:19Z</time>
      </trkpt>
      <trkpt lat="42.2149" lon="0.04695">
        <ele>727.25</ele>
        <time>2021-08-02T14:44:23Z</time>
      </trkpt>
      <trkpt lat="42.21551" lon="0.04666">
        <ele>724.52</ele>
        <time>2021-08-02T14:44:28Z</time>
      </trkpt>
      <trkpt lat="42.21617" lon="0.04669">
        <ele>720.77</ele>
        <time>2021-08-02T14:44:33Z</time>
      </trkpt>
      <trkpt lat="42.21645" lon="0.04721">
        <ele>717.14</ele>
        <time>2021-08-02T14:44:37Z</time>
      </trkpt>
      <trkpt lat="42.21658" lon="0.04787">
        <ele>713.64</ele>
        <time>2021-08-02T14:44:41Z</time>
      </trkpt>
      <trkpt lat="42.21659" lon="0.04892">
        <ele>708.21</ele>
        <time>2021-08-02T14:44:47Z</time>
      </trkpt>
      <trkpt lat="42.2168" lon="0.04954">
        <ele>702.77</ele>
        <time>2021-08-02T14:44:53Z</time>
      </trkpt>
      <trkpt lat="42.2172" lon="0.04927">
        <ele>699.44</ele>
        <time>2021-08-02T14:44:58Z</time>
      </trkpt>
      <trkpt lat="42.21723" lon="0.0491">
        <ele>699.06</ele>
        <time>2021-08-02T14:44:59Z</time>
      </trkpt>
      <trkpt lat="42.21729" lon="0.04874">
        <ele>698.33</ele>
        <time>2021-08-02T14:45:01Z</time>
      </trkpt>
      <trkpt lat="42.21737" lon="0.04762">
        <ele>697.02</ele>
        <time>2021-08-02T14:45:07Z</time>
      </trkpt>
      <trkpt lat="42.21754" lon="0.04702">
        <ele>697.06</ele>
        <time>2021-08-02T14:45:11Z</time>
      </trkpt>
      <trkpt lat="42.21768" lon="0.04674">
        <ele>697.34</ele>
        <time>2021-08-02T14:45:13Z</time>
      </trkpt>
      <trkpt lat="42.2184" lon="0.04591">
        <ele>699.62</ele>
        <time>2021-08-02T14:45:20Z</time>
      </trkpt>
      <trkpt lat="42.21889" lon="0.04565">
        <ele>701.54</ele>
        <time>2021-08-02T14:45:24Z</time>
      </trkpt>
      <trkpt lat="42.21955" lon="0.04557">
        <ele>703.89</ele>
        <time>2021-08-02T14:45:29Z</time>
      </trkpt>
      <trkpt lat="42.21992" lon="0.04579">
        <ele>705.24</ele>
        <time>2021-08-02T14:45:33Z</time>
      </trkpt>
      <trkpt lat="42.22029" lon="0.0464">
        <ele>705.75</ele>
        <time>2021-08-02T14:45:38Z</time>
      </trkpt>
      <trkpt lat="42.22093" lon="0.04669">
        <ele>706.07</ele>
        <time>2021-08-02T14:45:44Z</time>
      </trkpt>
      <trkpt lat="42.2215" lon="0.04717">
        <ele>705.9</ele>
        <time>2021-08-02T14:45:51Z</time>
      </trkpt>
      <trkpt lat="42.22151" lon="0.04752">
        <ele>705.73</ele>
        <time>2021-08-02T14:45:53Z</time>
      </trkpt>
      <trkpt lat="42.22151" lon="0.04877">
        <ele>705.28</ele>
        <time>2021-08-02T14:46:00Z</time>
      </trkpt>
      <trkpt lat="42.22162" lon="0.04925">
        <ele>704.64</ele>
        <time>2021-08-02T14:46:03Z</time>
      </trkpt>
      <trkpt lat="42.22154" lon="0.05028">
        <ele>702.76</ele>
        <time>2021-08-02T14:46:09Z</time>
      </trkpt>
      <trkpt lat="42.22124" lon="0.05126">
        <ele>699.88</ele>
        <time>2021-08-02T14:46:15Z</time>
      </trkpt>
      <trkpt lat="42.22126" lon="0.05164">
        <ele>699.2</ele>
        <time>2021-08-02T14:46:17Z</time>
      </trkpt>
      <trkpt lat="42.22118" lon="0.05234">
        <ele>697.49</ele>
        <time>2021-08-02T14:46:21Z</time>
      </trkpt>
      <trkpt lat="42.22147" lon="0.05279">
        <ele>695.65</ele>
        <time>2021-08-02T14:46:26Z</time>
      </trkpt>
      <trkpt lat="42.22181" lon="0.05231">
        <ele>695.13</ele>
        <time>2021-08-02T14:46:30Z</time>
      </trkpt>
      <trkpt lat="42.22208" lon="0.05132">
        <ele>695.93</ele>
        <time>2021-08-02T14:46:36Z</time>
      </trkpt>
      <trkpt lat="42.22256" lon="0.05109">
        <ele>697.29</ele>
        <time>2021-08-02T14:46:40Z</time>
      </trkpt>
      <trkpt lat="42.22271" lon="0.0511">
        <ele>697.94</ele>
        <time>2021-08-02T14:46:41Z</time>
      </trkpt>
      <trkpt lat="42.22366" lon="0.05112">
        <ele>701.68</ele>
        <time>2021-08-02T14:46:47Z</time>
      </trkpt>
      <trkpt lat="42.22381" lon="0.05113">
        <ele>702.29</ele>
        <time>2021-08-02T14:46:48Z</time>
      </trkpt>
      <trkpt lat="42.22409" lon="0.05121">
        <ele>703.63</ele>
        <time>2021-08-02T14:46:50Z</time>
      </trkpt>
      <trkpt lat="42.22422" lon="0.05131">
        <ele>704.41</ele>
        <time>2021-08-02T14:46:51Z</time>
      </trkpt>
      <trkpt lat="42.22436" lon="0.05142">
        <ele>705.19</ele>
        <time>2021-08-02T14:46:52Z</time>
      </trkpt>
      <trkpt lat="42.22449" lon="0.05153">
        <ele>705.91</ele>
        <time>2021-08-02T14:46:53Z</time>
      </trkpt>
      <trkpt lat="42.22536" lon="0.05219">
        <ele>710.27</ele>
        <time>2021-08-02T14:46:59Z</time>
      </trkpt>
      <trkpt lat="42.22595" lon="0.05253">
        <ele>711.86</ele>
        <time>2021-08-02T14:47:03Z</time>
      </trkpt>
      <trkpt lat="42.22644" lon="0.05221">
        <ele>711.24</ele>
        <time>2021-08-02T14:47:09Z</time>
      </trkpt>
      <trkpt lat="42.22648" lon="0.05192">
        <ele>710.48</ele>
        <time>2021-08-02T14:47:11Z</time>
      </trkpt>
      <trkpt lat="42.22662" lon="0.05112">
        <ele>709.86</ele>
        <time>2021-08-02T14:47:16Z</time>
      </trkpt>
      <trkpt lat="42.22708" lon="0.05072">
        <ele>710</ele>
        <time>2021-08-02T14:47:21Z</time>
      </trkpt>
      <trkpt lat="42.22759" lon="0.05085">
        <ele>709.99</ele>
        <time>2021-08-02T14:47:25Z</time>
      </trkpt>
      <trkpt lat="42.22803" lon="0.05113">
        <ele>709.71</ele>
        <time>2021-08-02T14:47:29Z</time>
      </trkpt>
      <trkpt lat="42.2286" lon="0.05175">
        <ele>708.94</ele>
        <time>2021-08-02T14:47:35Z</time>
      </trkpt>
      <trkpt lat="42.2289" lon="0.05251">
        <ele>708.57</ele>
        <time>2021-08-02T14:47:40Z</time>
      </trkpt>
      <trkpt lat="42.22907" lon="0.05385">
        <ele>708.06</ele>
        <time>2021-08-02T14:47:47Z</time>
      </trkpt>
      <trkpt lat="42.22949" lon="0.05483">
        <ele>707.24</ele>
        <time>2021-08-02T14:47:53Z</time>
      </trkpt>
      <trkpt lat="42.22948" lon="0.05536">
        <ele>706.62</ele>
        <time>2021-08-02T14:47:56Z</time>
      </trkpt>
      <trkpt lat="42.22936" lon="0.05592">
        <ele>705.82</ele>
        <time>2021-08-02T14:47:59Z</time>
      </trkpt>
      <trkpt lat="42.22917" lon="0.05642">
        <ele>704.88</ele>
        <time>2021-08-02T14:48:02Z</time>
      </trkpt>
      <trkpt lat="42.22922" lon="0.05707">
        <ele>702.89</ele>
        <time>2021-08-02T14:48:07Z</time>
      </trkpt>
      <trkpt lat="42.22977" lon="0.05692">
        <ele>700.95</ele>
        <time>2021-08-02T14:48:12Z</time>
      </trkpt>
      <trkpt lat="42.23003" lon="0.0567">
        <ele>700.88</ele>
        <time>2021-08-02T14:48:14Z</time>
      </trkpt>
      <trkpt lat="42.23127" lon="0.05616">
        <ele>704.09</ele>
        <time>2021-08-02T14:48:22Z</time>
      </trkpt>
      <trkpt lat="42.23171" lon="0.056">
        <ele>705.68</ele>
        <time>2021-08-02T14:48:25Z</time>
      </trkpt>
      <trkpt lat="42.23217" lon="0.05631">
        <ele>707</ele>
        <time>2021-08-02T14:48:30Z</time>
      </trkpt>
      <trkpt lat="42.23206" lon="0.05683">
        <ele>707.29</ele>
        <time>2021-08-02T14:48:33Z</time>
      </trkpt>
      <trkpt lat="42.23188" lon="0.0574">
        <ele>707.43</ele>
        <time>2021-08-02T14:48:36Z</time>
      </trkpt>
      <trkpt lat="42.23197" lon="0.05813">
        <ele>706.41</ele>
        <time>2021-08-02T14:48:41Z</time>
      </trkpt>
      <trkpt lat="42.23247" lon="0.05921">
        <ele>705.34</ele>
        <time>2021-08-02T14:48:47Z</time>
      </trkpt>
      <trkpt lat="42.23265" lon="0.06007">
        <ele>708.16</ele>
        <time>2021-08-02T14:48:51Z</time>
      </trkpt>
      <trkpt lat="42.23287" lon="0.06086">
        <ele>710.98</ele>
        <time>2021-08-02T14:48:55Z</time>
      </trkpt>
      <trkpt lat="42.23314" lon="0.06137">
        <ele>713.54</ele>
        <time>2021-08-02T14:48:58Z</time>
      </trkpt>
      <trkpt lat="42.2332" lon="0.06228">
        <ele>717.33</ele>
        <time>2021-08-02T14:49:03Z</time>
      </trkpt>
      <trkpt lat="42.23317" lon="0.06247">
        <ele>718.36</ele>
        <time>2021-08-02T14:49:04Z</time>
      </trkpt>
      <trkpt lat="42.23313" lon="0.06284">
        <ele>720.36</ele>
        <time>2021-08-02T14:49:06Z</time>
      </trkpt>
      <trkpt lat="42.23326" lon="0.06379">
        <ele>724.02</ele>
        <time>2021-08-02T14:49:11Z</time>
      </trkpt>
      <trkpt lat="42.23344" lon="0.06458">
        <ele>727.84</ele>
        <time>2021-08-02T14:49:15Z</time>
      </trkpt>
      <trkpt lat="42.23349" lon="0.06476">
        <ele>728.79</ele>
        <time>2021-08-02T14:49:16Z</time>
      </trkpt>
      <trkpt lat="42.23381" lon="0.06542">
        <ele>732.24</ele>
        <time>2021-08-02T14:49:20Z</time>
      </trkpt>
      <trkpt lat="42.23428" lon="0.06597">
        <ele>736.02</ele>
        <time>2021-08-02T14:49:24Z</time>
      </trkpt>
      <trkpt lat="42.23501" lon="0.06641">
        <ele>740.58</ele>
        <time>2021-08-02T14:49:29Z</time>
      </trkpt>
      <trkpt lat="42.23575" lon="0.06678">
        <ele>744.25</ele>
        <time>2021-08-02T14:49:34Z</time>
      </trkpt>
      <trkpt lat="42.23651" lon="0.06714">
        <ele>747.38</ele>
        <time>2021-08-02T14:49:39Z</time>
      </trkpt>
      <trkpt lat="42.23868" lon="0.06823">
        <ele>748.14</ele>
        <time>2021-08-02T14:49:52Z</time>
      </trkpt>
      <trkpt lat="42.24026" lon="0.06902">
        <ele>748.83</ele>
        <time>2021-08-02T14:50:02Z</time>
      </trkpt>
      <trkpt lat="42.24083" lon="0.0693">
        <ele>748.56</ele>
        <time>2021-08-02T14:50:06Z</time>
      </trkpt>
      <trkpt lat="42.24123" lon="0.07002">
        <ele>747.49</ele>
        <time>2021-08-02T14:50:11Z</time>
      </trkpt>
      <trkpt lat="42.24137" lon="0.07053">
        <ele>746.78</ele>
        <time>2021-08-02T14:50:14Z</time>
      </trkpt>
      <trkpt lat="42.24177" lon="0.07089">
        <ele>743.57</ele>
        <time>2021-08-02T14:50:19Z</time>
      </trkpt>
      <trkpt lat="42.24212" lon="0.07089">
        <ele>741.6</ele>
        <time>2021-08-02T14:50:22Z</time>
      </trkpt>
      <trkpt lat="42.24259" lon="0.07124">
        <ele>739.77</ele>
        <time>2021-08-02T14:50:28Z</time>
      </trkpt>
      <trkpt lat="42.24262" lon="0.07132">
        <ele>739.66</ele>
        <time>2021-08-02T14:50:29Z</time>
      </trkpt>
      <trkpt lat="42.24293" lon="0.07214">
        <ele>740.05</ele>
        <time>2021-08-02T14:50:39Z</time>
      </trkpt>
      <trkpt lat="42.24322" lon="0.07284">
        <ele>740.52</ele>
        <time>2021-08-02T14:50:50Z</time>
      </trkpt>
      <trkpt lat="42.24335" lon="0.073">
        <ele>740.59</ele>
        <time>2021-08-02T14:50:55Z</time>
      </trkpt>
      <trkpt lat="42.24338" lon="0.07302">
        <ele>739.97</ele>
        <time>2021-08-02T14:51:09Z</time>
      </trkpt>
      <trkpt lat="42.24338" lon="0.07302">
        <ele>739.92</ele>
        <time>2021-08-02T14:51:11Z</time>
      </trkpt>
      <trkpt lat="42.24332" lon="0.07299">
        <ele>740.6</ele>
        <time>2021-08-02T14:51:25Z</time>
      </trkpt>
      <trkpt lat="42.24332" lon="0.07299">
        <ele>740.65</ele>
        <time>2021-08-02T14:51:39Z</time>
      </trkpt>
      <trkpt lat="42.24342" lon="0.07305">
        <ele>740.88</ele>
        <time>2021-08-02T14:51:43Z</time>
      </trkpt>
      <trkpt lat="42.24344" lon="0.07314">
        <ele>741.23</ele>
        <time>2021-08-02T14:51:54Z</time>
      </trkpt>
      <trkpt lat="42.24343" lon="0.07316">
        <ele>741</ele>
        <time>2021-08-02T14:52:37Z</time>
      </trkpt>
      <trkpt lat="42.24344" lon="0.07314">
        <ele>740.99</ele>
        <time>2021-08-02T14:52:39Z</time>
      </trkpt>
      <trkpt lat="42.24351" lon="0.0731">
        <ele>740.81</ele>
        <time>2021-08-02T14:52:47Z</time>
      </trkpt>
      <trkpt lat="42.24332" lon="0.07299">
        <ele>740.98</ele>
        <time>2021-08-02T14:52:52Z</time>
      </trkpt>
      <trkpt lat="42.24288" lon="0.07208">
        <ele>742.74</ele>
        <time>2021-08-02T14:53:00Z</time>
      </trkpt>
      <trkpt lat="42.24254" lon="0.07126">
        <ele>743.28</ele>
        <time>2021-08-02T14:53:06Z</time>
      </trkpt>
      <trkpt lat="42.24207" lon="0.07088">
        <ele>742.48</ele>
        <time>2021-08-02T14:53:12Z</time>
      </trkpt>
      <trkpt lat="42.24198" lon="0.07088">
        <ele>740</ele>
        <time>2021-08-02T14:53:19Z</time>
      </trkpt>
      <trkpt lat="42.24196" lon="0.07087">
        <ele>738.3</ele>
        <time>2021-08-02T14:53:28Z</time>
      </trkpt>
      <trkpt lat="42.2417" lon="0.07086">
        <ele>738.25</ele>
        <time>2021-08-02T14:53:32Z</time>
      </trkpt>
      <trkpt lat="42.24132" lon="0.07048">
        <ele>739.45</ele>
        <time>2021-08-02T14:53:37Z</time>
      </trkpt>
      <trkpt lat="42.24103" lon="0.06957">
        <ele>742.76</ele>
        <time>2021-08-02T14:53:46Z</time>
      </trkpt>
      <trkpt lat="42.24103" lon="0.06956">
        <ele>741.92</ele>
        <time>2021-08-02T14:53:56Z</time>
      </trkpt>
      <trkpt lat="42.24098" lon="0.06937">
        <ele>741.8</ele>
        <time>2021-08-02T14:54:06Z</time>
      </trkpt>
      <trkpt lat="42.24111" lon="0.06935">
        <ele>743.12</ele>
        <time>2021-08-02T14:54:18Z</time>
      </trkpt>
      <trkpt lat="42.24111" lon="0.06935">
        <ele>743.86</ele>
        <time>2021-08-02T14:55:46Z</time>
      </trkpt>
      <trkpt lat="42.24116" lon="0.0694">
        <ele>743.69</ele>
        <time>2021-08-02T14:55:57Z</time>
      </trkpt>
      <trkpt lat="42.24111" lon="0.06937">
        <ele>743.42</ele>
        <time>2021-08-02T14:56:02Z</time>
      </trkpt>
      <trkpt lat="42.24105" lon="0.06945">
        <ele>743.59</ele>
        <time>2021-08-02T14:56:05Z</time>
      </trkpt>
      <trkpt lat="42.24118" lon="0.07013">
        <ele>743.93</ele>
        <time>2021-08-02T14:56:12Z</time>
      </trkpt>
      <trkpt lat="42.24127" lon="0.07045">
        <ele>743.88</ele>
        <time>2021-08-02T14:56:14Z</time>
      </trkpt>
      <trkpt lat="42.24183" lon="0.07091">
        <ele>742.49</ele>
        <time>2021-08-02T14:56:20Z</time>
      </trkpt>
      <trkpt lat="42.2426" lon="0.0714">
        <ele>741.78</ele>
        <time>2021-08-02T14:56:26Z</time>
      </trkpt>
      <trkpt lat="42.24268" lon="0.0716">
        <ele>741.96</ele>
        <time>2021-08-02T14:56:27Z</time>
      </trkpt>
      <trkpt lat="42.2431" lon="0.07265">
        <ele>744.13</ele>
        <time>2021-08-02T14:56:32Z</time>
      </trkpt>
      <trkpt lat="42.2436" lon="0.07315">
        <ele>746.08</ele>
        <time>2021-08-02T14:56:36Z</time>
      </trkpt>
      <trkpt lat="42.2443" lon="0.073">
        <ele>746.17</ele>
        <time>2021-08-02T14:56:41Z</time>
      </trkpt>
      <trkpt lat="42.24444" lon="0.07243">
        <ele>745.67</ele>
        <time>2021-08-02T14:56:44Z</time>
      </trkpt>
      <trkpt lat="42.24464" lon="0.07054">
        <ele>747.34</ele>
        <time>2021-08-02T14:56:52Z</time>
      </trkpt>
      <trkpt lat="42.24492" lon="0.0697">
        <ele>750.15</ele>
        <time>2021-08-02T14:56:56Z</time>
      </trkpt>
      <trkpt lat="42.2452" lon="0.06916">
        <ele>752.27</ele>
        <time>2021-08-02T14:56:59Z</time>
      </trkpt>
      <trkpt lat="42.24612" lon="0.06824">
        <ele>756.47</ele>
        <time>2021-08-02T14:57:07Z</time>
      </trkpt>
      <trkpt lat="42.24658" lon="0.06783">
        <ele>760.18</ele>
        <time>2021-08-02T14:57:11Z</time>
      </trkpt>
      <trkpt lat="42.24685" lon="0.06761">
        <ele>762.49</ele>
        <time>2021-08-02T14:57:14Z</time>
      </trkpt>
      <trkpt lat="42.24738" lon="0.06747">
        <ele>765.51</ele>
        <time>2021-08-02T14:57:19Z</time>
      </trkpt>
      <trkpt lat="42.2479" lon="0.06743">
        <ele>766.06</ele>
        <time>2021-08-02T14:57:23Z</time>
      </trkpt>
      <trkpt lat="42.24834" lon="0.06768">
        <ele>765.02</ele>
        <time>2021-08-02T14:57:27Z</time>
      </trkpt>
      <trkpt lat="42.24895" lon="0.06801">
        <ele>763.39</ele>
        <time>2021-08-02T14:57:32Z</time>
      </trkpt>
      <trkpt lat="42.25033" lon="0.06821">
        <ele>761.72</ele>
        <time>2021-08-02T14:57:40Z</time>
      </trkpt>
      <trkpt lat="42.2505" lon="0.06825">
        <ele>761.58</ele>
        <time>2021-08-02T14:57:41Z</time>
      </trkpt>
      <trkpt lat="42.25119" lon="0.06822">
        <ele>760.35</ele>
        <time>2021-08-02T14:57:45Z</time>
      </trkpt>
      <trkpt lat="42.25152" lon="0.06813">
        <ele>759.73</ele>
        <time>2021-08-02T14:57:47Z</time>
      </trkpt>
      <trkpt lat="42.25268" lon="0.06831">
        <ele>757.95</ele>
        <time>2021-08-02T14:57:54Z</time>
      </trkpt>
      <trkpt lat="42.25391" lon="0.06864">
        <ele>757.76</ele>
        <time>2021-08-02T14:58:01Z</time>
      </trkpt>
      <trkpt lat="42.25435" lon="0.06928">
        <ele>755.31</ele>
        <time>2021-08-02T14:58:06Z</time>
      </trkpt>
      <trkpt lat="42.25435" lon="0.06949">
        <ele>754.66</ele>
        <time>2021-08-02T14:58:07Z</time>
      </trkpt>
      <trkpt lat="42.25433" lon="0.07013">
        <ele>753.47</ele>
        <time>2021-08-02T14:58:10Z</time>
      </trkpt>
      <trkpt lat="42.2547" lon="0.07068">
        <ele>751.18</ele>
        <time>2021-08-02T14:58:14Z</time>
      </trkpt>
      <trkpt lat="42.25566" lon="0.07124">
        <ele>747.06</ele>
        <time>2021-08-02T14:58:20Z</time>
      </trkpt>
      <trkpt lat="42.25782" lon="0.07257">
        <ele>747.77</ele>
        <time>2021-08-02T14:58:33Z</time>
      </trkpt>
      <trkpt lat="42.25814" lon="0.07276">
        <ele>748.01</ele>
        <time>2021-08-02T14:58:35Z</time>
      </trkpt>
      <trkpt lat="42.25907" lon="0.07266">
        <ele>747.41</ele>
        <time>2021-08-02T14:58:41Z</time>
      </trkpt>
      <trkpt lat="42.26076" lon="0.07164">
        <ele>746.76</ele>
        <time>2021-08-02T14:58:51Z</time>
      </trkpt>
      <trkpt lat="42.26125" lon="0.07109">
        <ele>746.74</ele>
        <time>2021-08-02T14:58:55Z</time>
      </trkpt>
      <trkpt lat="42.26202" lon="0.06951">
        <ele>748.83</ele>
        <time>2021-08-02T14:59:03Z</time>
      </trkpt>
      <trkpt lat="42.26219" lon="0.06915">
        <ele>749.59</ele>
        <time>2021-08-02T14:59:05Z</time>
      </trkpt>
      <trkpt lat="42.26239" lon="0.06803">
        <ele>753.26</ele>
        <time>2021-08-02T14:59:10Z</time>
      </trkpt>
      <trkpt lat="42.26235" lon="0.06698">
        <ele>757.1</ele>
        <time>2021-08-02T14:59:14Z</time>
      </trkpt>
      <trkpt lat="42.26227" lon="0.06617">
        <ele>760.4</ele>
        <time>2021-08-02T14:59:17Z</time>
      </trkpt>
      <trkpt lat="42.26218" lon="0.06509">
        <ele>764.51</ele>
        <time>2021-08-02T14:59:21Z</time>
      </trkpt>
      <trkpt lat="42.26206" lon="0.06402">
        <ele>768.2</ele>
        <time>2021-08-02T14:59:25Z</time>
      </trkpt>
      <trkpt lat="42.2619" lon="0.06305">
        <ele>771.48</ele>
        <time>2021-08-02T14:59:29Z</time>
      </trkpt>
      <trkpt lat="42.2616" lon="0.06237">
        <ele>774.8</ele>
        <time>2021-08-02T14:59:33Z</time>
      </trkpt>
      <trkpt lat="42.26142" lon="0.06208">
        <ele>775.86</ele>
        <time>2021-08-02T14:59:35Z</time>
      </trkpt>
      <trkpt lat="42.2613" lon="0.06117">
        <ele>778.16</ele>
        <time>2021-08-02T14:59:41Z</time>
      </trkpt>
      <trkpt lat="42.26167" lon="0.06074">
        <ele>780.21</ele>
        <time>2021-08-02T14:59:46Z</time>
      </trkpt>
      <trkpt lat="42.26195" lon="0.06089">
        <ele>781.26</ele>
        <time>2021-08-02T14:59:49Z</time>
      </trkpt>
      <trkpt lat="42.2626" lon="0.06141">
        <ele>785.09</ele>
        <time>2021-08-02T14:59:57Z</time>
      </trkpt>
      <trkpt lat="42.26312" lon="0.06188">
        <ele>788.35</ele>
        <time>2021-08-02T15:00:02Z</time>
      </trkpt>
      <trkpt lat="42.26358" lon="0.06229">
        <ele>791.79</ele>
        <time>2021-08-02T15:00:06Z</time>
      </trkpt>
      <trkpt lat="42.26393" lon="0.06265">
        <ele>794.5</ele>
        <time>2021-08-02T15:00:09Z</time>
      </trkpt>
      <trkpt lat="42.26439" lon="0.06341">
        <ele>799.09</ele>
        <time>2021-08-02T15:00:14Z</time>
      </trkpt>
      <trkpt lat="42.26495" lon="0.06354">
        <ele>803.68</ele>
        <time>2021-08-02T15:00:19Z</time>
      </trkpt>
      <trkpt lat="42.26507" lon="0.06347">
        <ele>804.46</ele>
        <time>2021-08-02T15:00:20Z</time>
      </trkpt>
      <trkpt lat="42.26546" lon="0.06319">
        <ele>806.84</ele>
        <time>2021-08-02T15:00:23Z</time>
      </trkpt>
      <trkpt lat="42.266" lon="0.06324">
        <ele>811.5</ele>
        <time>2021-08-02T15:00:28Z</time>
      </trkpt>
      <trkpt lat="42.26595" lon="0.06376">
        <ele>813.89</ele>
        <time>2021-08-02T15:00:31Z</time>
      </trkpt>
      <trkpt lat="42.266" lon="0.06492">
        <ele>819.64</ele>
        <time>2021-08-02T15:00:37Z</time>
      </trkpt>
      <trkpt lat="42.26631" lon="0.06542">
        <ele>822.53</ele>
        <time>2021-08-02T15:00:40Z</time>
      </trkpt>
      <trkpt lat="42.26692" lon="0.06617">
        <ele>827.34</ele>
        <time>2021-08-02T15:00:45Z</time>
      </trkpt>
      <trkpt lat="42.26734" lon="0.06647">
        <ele>831.64</ele>
        <time>2021-08-02T15:00:48Z</time>
      </trkpt>
      <trkpt lat="42.26776" lon="0.06647">
        <ele>835.08</ele>
        <time>2021-08-02T15:00:51Z</time>
      </trkpt>
      <trkpt lat="42.2679" lon="0.0664">
        <ele>836.11</ele>
        <time>2021-08-02T15:00:52Z</time>
      </trkpt>
      <trkpt lat="42.26831" lon="0.06617">
        <ele>839.25</ele>
        <time>2021-08-02T15:00:55Z</time>
      </trkpt>
      <trkpt lat="42.26889" lon="0.06635">
        <ele>843.48</ele>
        <time>2021-08-02T15:01:00Z</time>
      </trkpt>
      <trkpt lat="42.26917" lon="0.06669">
        <ele>845.85</ele>
        <time>2021-08-02T15:01:03Z</time>
      </trkpt>
      <trkpt lat="42.26928" lon="0.06748">
        <ele>848.71</ele>
        <time>2021-08-02T15:01:08Z</time>
      </trkpt>
      <trkpt lat="42.26942" lon="0.06849">
        <ele>853.03</ele>
        <time>2021-08-02T15:01:14Z</time>
      </trkpt>
      <trkpt lat="42.26953" lon="0.06864">
        <ele>853.91</ele>
        <time>2021-08-02T15:01:15Z</time>
      </trkpt>
      <trkpt lat="42.27013" lon="0.06929">
        <ele>858.19</ele>
        <time>2021-08-02T15:01:20Z</time>
      </trkpt>
      <trkpt lat="42.27035" lon="0.06951">
        <ele>859.71</ele>
        <time>2021-08-02T15:01:22Z</time>
      </trkpt>
      <trkpt lat="42.27086" lon="0.06962">
        <ele>862.5</ele>
        <time>2021-08-02T15:01:26Z</time>
      </trkpt>
      <trkpt lat="42.27162" lon="0.06947">
        <ele>866.28</ele>
        <time>2021-08-02T15:01:31Z</time>
      </trkpt>
      <trkpt lat="42.27222" lon="0.06952">
        <ele>869.71</ele>
        <time>2021-08-02T15:01:35Z</time>
      </trkpt>
      <trkpt lat="42.27282" lon="0.06956">
        <ele>873.13</ele>
        <time>2021-08-02T15:01:39Z</time>
      </trkpt>
      <trkpt lat="42.27351" lon="0.06998">
        <ele>876.42</ele>
        <time>2021-08-02T15:01:44Z</time>
      </trkpt>
      <trkpt lat="42.27497" lon="0.07185">
        <ele>877.57</ele>
        <time>2021-08-02T15:01:57Z</time>
      </trkpt>
      <trkpt lat="42.27505" lon="0.072">
        <ele>877.5</ele>
        <time>2021-08-02T15:01:58Z</time>
      </trkpt>
      <trkpt lat="42.2755" lon="0.07239">
        <ele>877.29</ele>
        <time>2021-08-02T15:02:02Z</time>
      </trkpt>
      <trkpt lat="42.27642" lon="0.07271">
        <ele>877.1</ele>
        <time>2021-08-02T15:02:09Z</time>
      </trkpt>
      <trkpt lat="42.27687" lon="0.07325">
        <ele>877.05</ele>
        <time>2021-08-02T15:02:14Z</time>
      </trkpt>
      <trkpt lat="42.27712" lon="0.07361">
        <ele>877.56</ele>
        <time>2021-08-02T15:02:17Z</time>
      </trkpt>
      <trkpt lat="42.27739" lon="0.07434">
        <ele>877.76</ele>
        <time>2021-08-02T15:02:23Z</time>
      </trkpt>
      <trkpt lat="42.27747" lon="0.07522">
        <ele>877.22</ele>
        <time>2021-08-02T15:02:29Z</time>
      </trkpt>
      <trkpt lat="42.27771" lon="0.0753">
        <ele>876.21</ele>
        <time>2021-08-02T15:02:31Z</time>
      </trkpt>
      <trkpt lat="42.27836" lon="0.07564">
        <ele>872.25</ele>
        <time>2021-08-02T15:02:37Z</time>
      </trkpt>
      <trkpt lat="42.27867" lon="0.07628">
        <ele>870.94</ele>
        <time>2021-08-02T15:02:42Z</time>
      </trkpt>
      <trkpt lat="42.279" lon="0.07685">
        <ele>870.92</ele>
        <time>2021-08-02T15:02:47Z</time>
      </trkpt>
      <trkpt lat="42.27957" lon="0.0773">
        <ele>870.64</ele>
        <time>2021-08-02T15:02:53Z</time>
      </trkpt>
      <trkpt lat="42.27982" lon="0.07765">
        <ele>870.29</ele>
        <time>2021-08-02T15:02:56Z</time>
      </trkpt>
      <trkpt lat="42.28013" lon="0.07846">
        <ele>868.32</ele>
        <time>2021-08-02T15:03:02Z</time>
      </trkpt>
      <trkpt lat="42.28047" lon="0.0785">
        <ele>867.08</ele>
        <time>2021-08-02T15:03:05Z</time>
      </trkpt>
      <trkpt lat="42.28085" lon="0.07844">
        <ele>865.55</ele>
        <time>2021-08-02T15:03:08Z</time>
      </trkpt>
      <trkpt lat="42.28132" lon="0.07875">
        <ele>862.13</ele>
        <time>2021-08-02T15:03:13Z</time>
      </trkpt>
      <trkpt lat="42.28122" lon="0.07919">
        <ele>859.75</ele>
        <time>2021-08-02T15:03:16Z</time>
      </trkpt>
      <trkpt lat="42.2811" lon="0.07963">
        <ele>857.56</ele>
        <time>2021-08-02T15:03:19Z</time>
      </trkpt>
      <trkpt lat="42.28127" lon="0.0803">
        <ele>854.66</ele>
        <time>2021-08-02T15:03:24Z</time>
      </trkpt>
      <trkpt lat="42.28152" lon="0.08036">
        <ele>853.37</ele>
        <time>2021-08-02T15:03:26Z</time>
      </trkpt>
      <trkpt lat="42.28224" lon="0.08049">
        <ele>849.41</ele>
        <time>2021-08-02T15:03:32Z</time>
      </trkpt>
      <trkpt lat="42.28249" lon="0.08055">
        <ele>848.16</ele>
        <time>2021-08-02T15:03:34Z</time>
      </trkpt>
      <trkpt lat="42.2833" lon="0.08032">
        <ele>845.27</ele>
        <time>2021-08-02T15:03:40Z</time>
      </trkpt>
      <trkpt lat="42.28397" lon="0.07984">
        <ele>844.6</ele>
        <time>2021-08-02T15:03:46Z</time>
      </trkpt>
      <trkpt lat="42.28496" lon="0.07956">
        <ele>848.13</ele>
        <time>2021-08-02T15:03:53Z</time>
      </trkpt>
      <trkpt lat="42.28559" lon="0.07939">
        <ele>851.46</ele>
        <time>2021-08-02T15:03:57Z</time>
      </trkpt>
      <trkpt lat="42.28626" lon="0.07922">
        <ele>854.85</ele>
        <time>2021-08-02T15:04:01Z</time>
      </trkpt>
      <trkpt lat="42.28718" lon="0.07898">
        <ele>858.07</ele>
        <time>2021-08-02T15:04:06Z</time>
      </trkpt>
      <trkpt lat="42.28781" lon="0.07854">
        <ele>859.45</ele>
        <time>2021-08-02T15:04:10Z</time>
      </trkpt>
      <trkpt lat="42.28848" lon="0.07771">
        <ele>861.02</ele>
        <time>2021-08-02T15:04:15Z</time>
      </trkpt>
      <trkpt lat="42.28881" lon="0.07674">
        <ele>861.24</ele>
        <time>2021-08-02T15:04:20Z</time>
      </trkpt>
      <trkpt lat="42.28875" lon="0.07606">
        <ele>861.09</ele>
        <time>2021-08-02T15:04:23Z</time>
      </trkpt>
      <trkpt lat="42.28865" lon="0.07541">
        <ele>860.59</ele>
        <time>2021-08-02T15:04:26Z</time>
      </trkpt>
      <trkpt lat="42.28824" lon="0.07449">
        <ele>858.76</ele>
        <time>2021-08-02T15:04:31Z</time>
      </trkpt>
      <trkpt lat="42.28803" lon="0.07422">
        <ele>857.91</ele>
        <time>2021-08-02T15:04:33Z</time>
      </trkpt>
      <trkpt lat="42.28788" lon="0.07344">
        <ele>855.1</ele>
        <time>2021-08-02T15:04:38Z</time>
      </trkpt>
      <trkpt lat="42.288" lon="0.07309">
        <ele>854.24</ele>
        <time>2021-08-02T15:04:40Z</time>
      </trkpt>
      <trkpt lat="42.28815" lon="0.07275">
        <ele>853.66</ele>
        <time>2021-08-02T15:04:42Z</time>
      </trkpt>
      <trkpt lat="42.28896" lon="0.0721">
        <ele>852.73</ele>
        <time>2021-08-02T15:04:48Z</time>
      </trkpt>
      <trkpt lat="42.29035" lon="0.0719">
        <ele>852.47</ele>
        <time>2021-08-02T15:04:56Z</time>
      </trkpt>
      <trkpt lat="42.29271" lon="0.07181">
        <ele>852.92</ele>
        <time>2021-08-02T15:05:08Z</time>
      </trkpt>
      <trkpt lat="42.29465" lon="0.07171">
        <ele>852.89</ele>
        <time>2021-08-02T15:05:18Z</time>
      </trkpt>
      <trkpt lat="42.29533" lon="0.07199">
        <ele>852.87</ele>
        <time>2021-08-02T15:05:22Z</time>
      </trkpt>
      <trkpt lat="42.29565" lon="0.07223">
        <ele>852.46</ele>
        <time>2021-08-02T15:05:24Z</time>
      </trkpt>
      <trkpt lat="42.29632" lon="0.07243">
        <ele>851.78</ele>
        <time>2021-08-02T15:05:28Z</time>
      </trkpt>
      <trkpt lat="42.29678" lon="0.07243">
        <ele>849.6</ele>
        <time>2021-08-02T15:05:33Z</time>
      </trkpt>
      <trkpt lat="42.29682" lon="0.07242">
        <ele>847.19</ele>
        <time>2021-08-02T15:05:36Z</time>
      </trkpt>
      <trkpt lat="42.29735" lon="0.07243">
        <ele>844.36</ele>
        <time>2021-08-02T15:05:43Z</time>
      </trkpt>
      <trkpt lat="42.29844" lon="0.07247">
        <ele>845.36</ele>
        <time>2021-08-02T15:05:50Z</time>
      </trkpt>
      <trkpt lat="42.29962" lon="0.07252">
        <ele>847.23</ele>
        <time>2021-08-02T15:05:58Z</time>
      </trkpt>
      <trkpt lat="42.2999" lon="0.07231">
        <ele>846.88</ele>
        <time>2021-08-02T15:06:02Z</time>
      </trkpt>
      <trkpt lat="42.30014" lon="0.07127">
        <ele>846.41</ele>
        <time>2021-08-02T15:06:11Z</time>
      </trkpt>
      <trkpt lat="42.30018" lon="0.07109">
        <ele>846.64</ele>
        <time>2021-08-02T15:06:12Z</time>
      </trkpt>
      <trkpt lat="42.30073" lon="0.0695">
        <ele>849.85</ele>
        <time>2021-08-02T15:06:20Z</time>
      </trkpt>
      <trkpt lat="42.3014" lon="0.06803">
        <ele>851.92</ele>
        <time>2021-08-02T15:06:28Z</time>
      </trkpt>
      <trkpt lat="42.30161" lon="0.06674">
        <ele>853.35</ele>
        <time>2021-08-02T15:06:35Z</time>
      </trkpt>
      <trkpt lat="42.30148" lon="0.06565">
        <ele>856.09</ele>
        <time>2021-08-02T15:06:41Z</time>
      </trkpt>
      <trkpt lat="42.3016" lon="0.06475">
        <ele>858.23</ele>
        <time>2021-08-02T15:06:46Z</time>
      </trkpt>
      <trkpt lat="42.30182" lon="0.06406">
        <ele>859.73</ele>
        <time>2021-08-02T15:06:50Z</time>
      </trkpt>
      <trkpt lat="42.30183" lon="0.06231">
        <ele>862.7</ele>
        <time>2021-08-02T15:06:59Z</time>
      </trkpt>
      <trkpt lat="42.30182" lon="0.06077">
        <ele>864.94</ele>
        <time>2021-08-02T15:07:06Z</time>
      </trkpt>
      <trkpt lat="42.30212" lon="0.05993">
        <ele>864.29</ele>
        <time>2021-08-02T15:07:11Z</time>
      </trkpt>
      <trkpt lat="42.30247" lon="0.0592">
        <ele>863.84</ele>
        <time>2021-08-02T15:07:16Z</time>
      </trkpt>
      <trkpt lat="42.30284" lon="0.05717">
        <ele>867.25</ele>
        <time>2021-08-02T15:07:26Z</time>
      </trkpt>
      <trkpt lat="42.30298" lon="0.05537">
        <ele>870.33</ele>
        <time>2021-08-02T15:07:34Z</time>
      </trkpt>
      <trkpt lat="42.30303" lon="0.05479">
        <ele>871</ele>
        <time>2021-08-02T15:07:37Z</time>
      </trkpt>
      <trkpt lat="42.30355" lon="0.05388">
        <ele>873.92</ele>
        <time>2021-08-02T15:07:44Z</time>
      </trkpt>
      <trkpt lat="42.30365" lon="0.0538">
        <ele>874.5</ele>
        <time>2021-08-02T15:07:45Z</time>
      </trkpt>
      <trkpt lat="42.30426" lon="0.05332">
        <ele>877.78</ele>
        <time>2021-08-02T15:07:50Z</time>
      </trkpt>
      <trkpt lat="42.3045" lon="0.05286">
        <ele>879.72</ele>
        <time>2021-08-02T15:07:54Z</time>
      </trkpt>
      <trkpt lat="42.30454" lon="0.05268">
        <ele>880.28</ele>
        <time>2021-08-02T15:07:56Z</time>
      </trkpt>
      <trkpt lat="42.30436" lon="0.05205">
        <ele>882.74</ele>
        <time>2021-08-02T15:08:02Z</time>
      </trkpt>
      <trkpt lat="42.30422" lon="0.0512">
        <ele>886.14</ele>
        <time>2021-08-02T15:08:10Z</time>
      </trkpt>
      <trkpt lat="42.30426" lon="0.05112">
        <ele>886.5</ele>
        <time>2021-08-02T15:08:11Z</time>
      </trkpt>
      <trkpt lat="42.30441" lon="0.05073">
        <ele>887.6</ele>
        <time>2021-08-02T15:08:16Z</time>
      </trkpt>
      <trkpt lat="42.30446" lon="0.05041">
        <ele>888.1</ele>
        <time>2021-08-02T15:08:19Z</time>
      </trkpt>
      <trkpt lat="42.30475" lon="0.05005">
        <ele>889.2</ele>
        <time>2021-08-02T15:08:24Z</time>
      </trkpt>
      <trkpt lat="42.30573" lon="0.04966">
        <ele>889.36</ele>
        <time>2021-08-02T15:08:33Z</time>
      </trkpt>
      <trkpt lat="42.30623" lon="0.04924">
        <ele>886.35</ele>
        <time>2021-08-02T15:08:38Z</time>
      </trkpt>
      <trkpt lat="42.30655" lon="0.04873">
        <ele>883.13</ele>
        <time>2021-08-02T15:08:42Z</time>
      </trkpt>
      <trkpt lat="42.30669" lon="0.04812">
        <ele>878.89</ele>
        <time>2021-08-02T15:08:46Z</time>
      </trkpt>
      <trkpt lat="42.3067" lon="0.04795">
        <ele>877.78</ele>
        <time>2021-08-02T15:08:47Z</time>
      </trkpt>
      <trkpt lat="42.30676" lon="0.04727">
        <ele>873.03</ele>
        <time>2021-08-02T15:08:51Z</time>
      </trkpt>
      <trkpt lat="42.30684" lon="0.04678">
        <ele>869.77</ele>
        <time>2021-08-02T15:08:54Z</time>
      </trkpt>
      <trkpt lat="42.30694" lon="0.04615">
        <ele>866.14</ele>
        <time>2021-08-02T15:08:58Z</time>
      </trkpt>
      <trkpt lat="42.30693" lon="0.04548">
        <ele>863.58</ele>
        <time>2021-08-02T15:09:02Z</time>
      </trkpt>
      <trkpt lat="42.30704" lon="0.04453">
        <ele>860.21</ele>
        <time>2021-08-02T15:09:10Z</time>
      </trkpt>
      <trkpt lat="42.30707" lon="0.04424">
        <ele>857.44</ele>
        <time>2021-08-02T15:09:21Z</time>
      </trkpt>
      <trkpt lat="42.30724" lon="0.04341">
        <ele>857.11</ele>
        <time>2021-08-02T15:09:29Z</time>
      </trkpt>
      <trkpt lat="42.30719" lon="0.04218">
        <ele>858.17</ele>
        <time>2021-08-02T15:09:38Z</time>
      </trkpt>
    </trkseg>
  </trk>
  <trk>
    <name><![CDATA[TOTAL 4x4 _16]]></name>
    <extensions>
      <line xmlns="http://www.topografix.com/GPX/gpx_style/0/2">
        <color>00FFFF</color>
        <width>4</width>
      </line>
    </extensions>
    <trkseg>
      <trkpt lat="42.31166" lon="0.42005">
        <ele>1043.02</ele>
        <time>2021-08-02T09:52:25Z</time>
      </trkpt>
      <trkpt lat="42.31162" lon="0.41965">
        <ele>1040.24</ele>
        <time>2021-08-02T09:52:31Z</time>
      </trkpt>
      <trkpt lat="42.31151" lon="0.41939">
        <ele>1037.75</ele>
        <time>2021-08-02T09:52:35Z</time>
      </trkpt>
      <trkpt lat="42.31153" lon="0.41894">
        <ele>1033.99</ele>
        <time>2021-08-02T09:52:42Z</time>
      </trkpt>
      <trkpt lat="42.31156" lon="0.41891">
        <ele>1033.33</ele>
        <time>2021-08-02T09:52:43Z</time>
      </trkpt>
      <trkpt lat="42.3116" lon="0.41888">
        <ele>1031.92</ele>
        <time>2021-08-02T09:52:45Z</time>
      </trkpt>
      <trkpt lat="42.31162" lon="0.41885">
        <ele>1028.3</ele>
        <time>2021-08-02T09:52:53Z</time>
      </trkpt>
      <trkpt lat="42.31162" lon="0.41882">
        <ele>1027.5</ele>
        <time>2021-08-02T09:52:59Z</time>
      </trkpt>
      <trkpt lat="42.31166" lon="0.41875">
        <ele>1027.42</ele>
        <time>2021-08-02T09:53:01Z</time>
      </trkpt>
      <trkpt lat="42.31178" lon="0.41859">
        <ele>1026.87</ele>
        <time>2021-08-02T09:53:05Z</time>
      </trkpt>
      <trkpt lat="42.31184" lon="0.41832">
        <ele>1025.9</ele>
        <time>2021-08-02T09:53:09Z</time>
      </trkpt>
      <trkpt lat="42.3119" lon="0.41779">
        <ele>1023.76</ele>
        <time>2021-08-02T09:53:16Z</time>
      </trkpt>
      <trkpt lat="42.31191" lon="0.41761">
        <ele>1022.55</ele>
        <time>2021-08-02T09:53:19Z</time>
      </trkpt>
      <trkpt lat="42.31194" lon="0.41742">
        <ele>1020.87</ele>
        <time>2021-08-02T09:53:22Z</time>
      </trkpt>
      <trkpt lat="42.31202" lon="0.41704">
        <ele>1017.14</ele>
        <time>2021-08-02T09:53:29Z</time>
      </trkpt>
      <trkpt lat="42.31205" lon="0.417">
        <ele>1016.7</ele>
        <time>2021-08-02T09:53:30Z</time>
      </trkpt>
      <trkpt lat="42.31237" lon="0.41666">
        <ele>1013.17</ele>
        <time>2021-08-02T09:53:41Z</time>
      </trkpt>
      <trkpt lat="42.31248" lon="0.41623">
        <ele>1010.13</ele>
        <time>2021-08-02T09:53:51Z</time>
      </trkpt>
      <trkpt lat="42.31247" lon="0.41563">
        <ele>1006.95</ele>
        <time>2021-08-02T09:54:02Z</time>
      </trkpt>
      <trkpt lat="42.31243" lon="0.41524">
        <ele>1003.64</ele>
        <time>2021-08-02T09:54:10Z</time>
      </trkpt>
      <trkpt lat="42.31239" lon="0.41511">
        <ele>1002.45</ele>
        <time>2021-08-02T09:54:13Z</time>
      </trkpt>
      <trkpt lat="42.31234" lon="0.41484">
        <ele>1000.72</ele>
        <time>2021-08-02T09:54:17Z</time>
      </trkpt>
      <trkpt lat="42.31228" lon="0.41441">
        <ele>998</ele>
        <time>2021-08-02T09:54:24Z</time>
      </trkpt>
      <trkpt lat="42.31225" lon="0.41419">
        <ele>997.29</ele>
        <time>2021-08-02T09:54:27Z</time>
      </trkpt>
      <trkpt lat="42.31202" lon="0.41378">
        <ele>995.75</ele>
        <time>2021-08-02T09:54:33Z</time>
      </trkpt>
      <trkpt lat="42.31188" lon="0.41367">
        <ele>994.9</ele>
        <time>2021-08-02T09:54:36Z</time>
      </trkpt>
      <trkpt lat="42.31146" lon="0.41373">
        <ele>992.16</ele>
        <time>2021-08-02T09:54:45Z</time>
      </trkpt>
      <trkpt lat="42.31124" lon="0.41345">
        <ele>989.75</ele>
        <time>2021-08-02T09:54:51Z</time>
      </trkpt>
      <trkpt lat="42.31119" lon="0.4134">
        <ele>989.34</ele>
        <time>2021-08-02T09:54:52Z</time>
      </trkpt>
      <trkpt lat="42.31092" lon="0.4131">
        <ele>986.95</ele>
        <time>2021-08-02T09:54:57Z</time>
      </trkpt>
      <trkpt lat="42.31056" lon="0.41258">
        <ele>983.87</ele>
        <time>2021-08-02T09:55:03Z</time>
      </trkpt>
      <trkpt lat="42.31023" lon="0.41235">
        <ele>982.18</ele>
        <time>2021-08-02T09:55:07Z</time>
      </trkpt>
      <trkpt lat="42.30994" lon="0.41177">
        <ele>980.04</ele>
        <time>2021-08-02T09:55:14Z</time>
      </trkpt>
      <trkpt lat="42.30984" lon="0.41161">
        <ele>979.5</ele>
        <time>2021-08-02T09:55:17Z</time>
      </trkpt>
      <trkpt lat="42.30947" lon="0.41134">
        <ele>979.1</ele>
        <time>2021-08-02T09:55:23Z</time>
      </trkpt>
      <trkpt lat="42.30916" lon="0.41109">
        <ele>979.61</ele>
        <time>2021-08-02T09:55:29Z</time>
      </trkpt>
      <trkpt lat="42.3086" lon="0.41031">
        <ele>980</ele>
        <time>2021-08-02T09:55:41Z</time>
      </trkpt>
      <trkpt lat="42.3085" lon="0.41012">
        <ele>979.26</ele>
        <time>2021-08-02T09:55:44Z</time>
      </trkpt>
      <trkpt lat="42.30843" lon="0.41001">
        <ele>978.66</ele>
        <time>2021-08-02T09:55:46Z</time>
      </trkpt>
      <trkpt lat="42.30826" lon="0.40963">
        <ele>975.31</ele>
        <time>2021-08-02T09:55:53Z</time>
      </trkpt>
      <trkpt lat="42.3081" lon="0.40931">
        <ele>972.82</ele>
        <time>2021-08-02T09:55:59Z</time>
      </trkpt>
      <trkpt lat="42.30805" lon="0.40921">
        <ele>972.21</ele>
        <time>2021-08-02T09:56:01Z</time>
      </trkpt>
      <trkpt lat="42.30792" lon="0.40908">
        <ele>970.14</ele>
        <time>2021-08-02T09:56:06Z</time>
      </trkpt>
      <trkpt lat="42.30766" lon="0.40875">
        <ele>966.55</ele>
        <time>2021-08-02T09:56:16Z</time>
      </trkpt>
      <trkpt lat="42.30751" lon="0.40839">
        <ele>963.22</ele>
        <time>2021-08-02T09:56:26Z</time>
      </trkpt>
      <trkpt lat="42.30747" lon="0.40834">
        <ele>962.65</ele>
        <time>2021-08-02T09:56:28Z</time>
      </trkpt>
      <trkpt lat="42.30726" lon="0.40831">
        <ele>960.02</ele>
        <time>2021-08-02T09:56:40Z</time>
      </trkpt>
      <trkpt lat="42.30722" lon="0.40829">
        <ele>959.48</ele>
        <time>2021-08-02T09:56:42Z</time>
      </trkpt>
      <trkpt lat="42.30712" lon="0.40835">
        <ele>957.87</ele>
        <time>2021-08-02T09:56:48Z</time>
      </trkpt>
      <trkpt lat="42.3071" lon="0.40838">
        <ele>957.4</ele>
        <time>2021-08-02T09:56:50Z</time>
      </trkpt>
      <trkpt lat="42.30705" lon="0.40858">
        <ele>956.29</ele>
        <time>2021-08-02T09:56:57Z</time>
      </trkpt>
      <trkpt lat="42.30694" lon="0.40848">
        <ele>955.21</ele>
        <time>2021-08-02T09:57:04Z</time>
      </trkpt>
      <trkpt lat="42.30694" lon="0.40843">
        <ele>955.07</ele>
        <time>2021-08-02T09:57:05Z</time>
      </trkpt>
      <trkpt lat="42.30697" lon="0.40803">
        <ele>951.85</ele>
        <time>2021-08-02T09:57:16Z</time>
      </trkpt>
      <trkpt lat="42.30695" lon="0.40801">
        <ele>948.76</ele>
        <time>2021-08-02T09:57:31Z</time>
      </trkpt>
      <trkpt lat="42.30694" lon="0.40799">
        <ele>948.59</ele>
        <time>2021-08-02T09:57:32Z</time>
      </trkpt>
      <trkpt lat="42.30685" lon="0.40773">
        <ele>946.44</ele>
        <time>2021-08-02T09:57:43Z</time>
      </trkpt>
      <trkpt lat="42.30684" lon="0.40769">
        <ele>944.92</ele>
        <time>2021-08-02T09:58:10Z</time>
      </trkpt>
      <trkpt lat="42.30686" lon="0.40765">
        <ele>945.15</ele>
        <time>2021-08-02T09:58:21Z</time>
      </trkpt>
      <trkpt lat="42.30677" lon="0.40741">
        <ele>943.87</ele>
        <time>2021-08-02T09:58:36Z</time>
      </trkpt>
      <trkpt lat="42.30651" lon="0.40717">
        <ele>941.61</ele>
        <time>2021-08-02T09:58:48Z</time>
      </trkpt>
      <trkpt lat="42.30636" lon="0.40701">
        <ele>938.49</ele>
        <time>2021-08-02T09:58:58Z</time>
      </trkpt>
      <trkpt lat="42.30636" lon="0.40699">
        <ele>935.49</ele>
        <time>2021-08-02T09:59:28Z</time>
      </trkpt>
      <trkpt lat="42.30627" lon="0.40692">
        <ele>935.11</ele>
        <time>2021-08-02T10:00:27Z</time>
      </trkpt>
      <trkpt lat="42.30612" lon="0.40676">
        <ele>932.71</ele>
        <time>2021-08-02T10:00:39Z</time>
      </trkpt>
      <trkpt lat="42.30605" lon="0.40671">
        <ele>930.13</ele>
        <time>2021-08-02T10:00:52Z</time>
      </trkpt>
      <trkpt lat="42.30595" lon="0.40663">
        <ele>929.26</ele>
        <time>2021-08-02T10:00:59Z</time>
      </trkpt>
      <trkpt lat="42.30574" lon="0.40621">
        <ele>927.74</ele>
        <time>2021-08-02T10:01:12Z</time>
      </trkpt>
      <trkpt lat="42.30557" lon="0.40582">
        <ele>926.22</ele>
        <time>2021-08-02T10:01:21Z</time>
      </trkpt>
      <trkpt lat="42.30554" lon="0.40559">
        <ele>925.35</ele>
        <time>2021-08-02T10:01:25Z</time>
      </trkpt>
      <trkpt lat="42.30549" lon="0.40536">
        <ele>922.07</ele>
        <time>2021-08-02T10:01:37Z</time>
      </trkpt>
      <trkpt lat="42.30545" lon="0.40528">
        <ele>920.09</ele>
        <time>2021-08-02T10:02:05Z</time>
      </trkpt>
      <trkpt lat="42.30533" lon="0.40502">
        <ele>919.39</ele>
        <time>2021-08-02T10:02:18Z</time>
      </trkpt>
      <trkpt lat="42.30519" lon="0.40459">
        <ele>916.7</ele>
        <time>2021-08-02T10:02:35Z</time>
      </trkpt>
      <trkpt lat="42.30519" lon="0.40433">
        <ele>914.7</ele>
        <time>2021-08-02T10:02:47Z</time>
      </trkpt>
      <trkpt lat="42.30522" lon="0.40414">
        <ele>913.32</ele>
        <time>2021-08-02T10:03:01Z</time>
      </trkpt>
      <trkpt lat="42.3053" lon="0.40381">
        <ele>911.65</ele>
        <time>2021-08-02T10:03:13Z</time>
      </trkpt>
      <trkpt lat="42.30543" lon="0.40344">
        <ele>909.91</ele>
        <time>2021-08-02T10:03:25Z</time>
      </trkpt>
      <trkpt lat="42.30544" lon="0.40336">
        <ele>909.03</ele>
        <time>2021-08-02T10:03:28Z</time>
      </trkpt>
      <trkpt lat="42.30529" lon="0.40324">
        <ele>906.67</ele>
        <time>2021-08-02T10:03:40Z</time>
      </trkpt>
      <trkpt lat="42.30528" lon="0.40324">
        <ele>905.23</ele>
        <time>2021-08-02T10:04:03Z</time>
      </trkpt>
      <trkpt lat="42.30513" lon="0.4033">
        <ele>904.33</ele>
        <time>2021-08-02T10:04:16Z</time>
      </trkpt>
      <trkpt lat="42.30482" lon="0.40341">
        <ele>901.83</ele>
        <time>2021-08-02T10:04:28Z</time>
      </trkpt>
      <trkpt lat="42.30458" lon="0.4035">
        <ele>898.8</ele>
        <time>2021-08-02T10:04:38Z</time>
      </trkpt>
      <trkpt lat="42.3043" lon="0.40335">
        <ele>895.92</ele>
        <time>2021-08-02T10:04:51Z</time>
      </trkpt>
      <trkpt lat="42.30407" lon="0.40306">
        <ele>894.61</ele>
        <time>2021-08-02T10:04:57Z</time>
      </trkpt>
      <trkpt lat="42.30368" lon="0.40273">
        <ele>891.05</ele>
        <time>2021-08-02T10:05:08Z</time>
      </trkpt>
      <trkpt lat="42.3035" lon="0.40257">
        <ele>887.83</ele>
        <time>2021-08-02T10:05:18Z</time>
      </trkpt>
      <trkpt lat="42.30331" lon="0.40246">
        <ele>884.56</ele>
        <time>2021-08-02T10:05:29Z</time>
      </trkpt>
      <trkpt lat="42.30327" lon="0.40245">
        <ele>884.33</ele>
        <time>2021-08-02T10:05:30Z</time>
      </trkpt>
      <trkpt lat="42.30288" lon="0.40224">
        <ele>882.04</ele>
        <time>2021-08-02T10:05:39Z</time>
      </trkpt>
      <trkpt lat="42.30268" lon="0.40204">
        <ele>880.58</ele>
        <time>2021-08-02T10:05:44Z</time>
      </trkpt>
      <trkpt lat="42.30242" lon="0.40166">
        <ele>878.48</ele>
        <time>2021-08-02T10:05:51Z</time>
      </trkpt>
      <trkpt lat="42.30231" lon="0.40153">
        <ele>877.52</ele>
        <time>2021-08-02T10:05:54Z</time>
      </trkpt>
      <trkpt lat="42.30203" lon="0.40115">
        <ele>875.3</ele>
        <time>2021-08-02T10:06:05Z</time>
      </trkpt>
      <trkpt lat="42.30197" lon="0.401">
        <ele>874.54</ele>
        <time>2021-08-02T10:06:09Z</time>
      </trkpt>
      <trkpt lat="42.30188" lon="0.40089">
        <ele>873.9</ele>
        <time>2021-08-02T10:06:13Z</time>
      </trkpt>
      <trkpt lat="42.30182" lon="0.40082">
        <ele>873.51</ele>
        <time>2021-08-02T10:06:16Z</time>
      </trkpt>
      <trkpt lat="42.30162" lon="0.40039">
        <ele>871.09</ele>
        <time>2021-08-02T10:06:29Z</time>
      </trkpt>
      <trkpt lat="42.30143" lon="0.3998">
        <ele>868.12</ele>
        <time>2021-08-02T10:06:43Z</time>
      </trkpt>
      <trkpt lat="42.3012" lon="0.39936">
        <ele>865.51</ele>
        <time>2021-08-02T10:06:55Z</time>
      </trkpt>
      <trkpt lat="42.30094" lon="0.39881">
        <ele>862.95</ele>
        <time>2021-08-02T10:07:07Z</time>
      </trkpt>
      <trkpt lat="42.30087" lon="0.39851">
        <ele>860.83</ele>
        <time>2021-08-02T10:07:17Z</time>
      </trkpt>
      <trkpt lat="42.30075" lon="0.39804">
        <ele>857.77</ele>
        <time>2021-08-02T10:07:30Z</time>
      </trkpt>
      <trkpt lat="42.30061" lon="0.39776">
        <ele>855.33</ele>
        <time>2021-08-02T10:07:43Z</time>
      </trkpt>
      <trkpt lat="42.30057" lon="0.39768">
        <ele>854.37</ele>
        <time>2021-08-02T10:07:48Z</time>
      </trkpt>
      <trkpt lat="42.30038" lon="0.39739">
        <ele>851.66</ele>
        <time>2021-08-02T10:08:04Z</time>
      </trkpt>
      <trkpt lat="42.30035" lon="0.3973">
        <ele>850.13</ele>
        <time>2021-08-02T10:08:26Z</time>
      </trkpt>
      <trkpt lat="42.30021" lon="0.39694">
        <ele>849.18</ele>
        <time>2021-08-02T10:08:36Z</time>
      </trkpt>
      <trkpt lat="42.30015" lon="0.39656">
        <ele>846.92</ele>
        <time>2021-08-02T10:08:48Z</time>
      </trkpt>
      <trkpt lat="42.30015" lon="0.39654">
        <ele>846.73</ele>
        <time>2021-08-02T10:08:49Z</time>
      </trkpt>
      <trkpt lat="42.30012" lon="0.39604">
        <ele>843.73</ele>
        <time>2021-08-02T10:09:02Z</time>
      </trkpt>
      <trkpt lat="42.30013" lon="0.39551">
        <ele>841.73</ele>
        <time>2021-08-02T10:09:13Z</time>
      </trkpt>
      <trkpt lat="42.30013" lon="0.39544">
        <ele>841.56</ele>
        <time>2021-08-02T10:09:14Z</time>
      </trkpt>
      <trkpt lat="42.3002" lon="0.39517">
        <ele>840.9</ele>
        <time>2021-08-02T10:09:18Z</time>
      </trkpt>
      <trkpt lat="42.30032" lon="0.3949">
        <ele>840.33</ele>
        <time>2021-08-02T10:09:24Z</time>
      </trkpt>
      <trkpt lat="42.30033" lon="0.39472">
        <ele>840.39</ele>
        <time>2021-08-02T10:09:36Z</time>
      </trkpt>
      <trkpt lat="42.30042" lon="0.39438">
        <ele>842.79</ele>
        <time>2021-08-02T10:09:56Z</time>
      </trkpt>
      <trkpt lat="42.30049" lon="0.39419">
        <ele>843.03</ele>
        <time>2021-08-02T10:09:59Z</time>
      </trkpt>
      <trkpt lat="42.30053" lon="0.39383">
        <ele>842.68</ele>
        <time>2021-08-02T10:10:05Z</time>
      </trkpt>
      <trkpt lat="42.30057" lon="0.3932">
        <ele>841.18</ele>
        <time>2021-08-02T10:10:16Z</time>
      </trkpt>
      <trkpt lat="42.30082" lon="0.39283">
        <ele>842.72</ele>
        <time>2021-08-02T10:10:24Z</time>
      </trkpt>
      <trkpt lat="42.301" lon="0.39264">
        <ele>843.2</ele>
        <time>2021-08-02T10:10:32Z</time>
      </trkpt>
      <trkpt lat="42.30106" lon="0.39257">
        <ele>844.07</ele>
        <time>2021-08-02T10:10:48Z</time>
      </trkpt>
      <trkpt lat="42.30114" lon="0.39248">
        <ele>844.12</ele>
        <time>2021-08-02T10:11:00Z</time>
      </trkpt>
      <trkpt lat="42.30129" lon="0.39218">
        <ele>845.56</ele>
        <time>2021-08-02T10:11:09Z</time>
      </trkpt>
      <trkpt lat="42.30125" lon="0.39172">
        <ele>845.83</ele>
        <time>2021-08-02T10:11:19Z</time>
      </trkpt>
      <trkpt lat="42.30123" lon="0.39163">
        <ele>845.63</ele>
        <time>2021-08-02T10:11:21Z</time>
      </trkpt>
      <trkpt lat="42.30102" lon="0.39113">
        <ele>844.19</ele>
        <time>2021-08-02T10:11:29Z</time>
      </trkpt>
      <trkpt lat="42.30096" lon="0.39074">
        <ele>842.79</ele>
        <time>2021-08-02T10:11:34Z</time>
      </trkpt>
      <trkpt lat="42.30085" lon="0.39025">
        <ele>841.72</ele>
        <time>2021-08-02T10:11:45Z</time>
      </trkpt>
      <trkpt lat="42.30084" lon="0.38995">
        <ele>841.93</ele>
        <time>2021-08-02T10:11:49Z</time>
      </trkpt>
      <trkpt lat="42.30094" lon="0.38972">
        <ele>842.26</ele>
        <time>2021-08-02T10:11:53Z</time>
      </trkpt>
      <trkpt lat="42.30108" lon="0.38955">
        <ele>842.5</ele>
        <time>2021-08-02T10:11:56Z</time>
      </trkpt>
      <trkpt lat="42.30152" lon="0.3892">
        <ele>841.52</ele>
        <time>2021-08-02T10:12:03Z</time>
      </trkpt>
      <trkpt lat="42.30172" lon="0.38887">
        <ele>839.94</ele>
        <time>2021-08-02T10:12:07Z</time>
      </trkpt>
      <trkpt lat="42.30212" lon="0.3884">
        <ele>836.16</ele>
        <time>2021-08-02T10:12:14Z</time>
      </trkpt>
      <trkpt lat="42.30229" lon="0.38833">
        <ele>835.16</ele>
        <time>2021-08-02T10:12:16Z</time>
      </trkpt>
      <trkpt lat="42.30257" lon="0.38825">
        <ele>833.43</ele>
        <time>2021-08-02T10:12:19Z</time>
      </trkpt>
      <trkpt lat="42.30315" lon="0.38787">
        <ele>830.36</ele>
        <time>2021-08-02T10:12:26Z</time>
      </trkpt>
      <trkpt lat="42.30332" lon="0.38758">
        <ele>829.91</ele>
        <time>2021-08-02T10:12:29Z</time>
      </trkpt>
      <trkpt lat="42.30349" lon="0.38684">
        <ele>828.84</ele>
        <time>2021-08-02T10:12:36Z</time>
      </trkpt>
      <trkpt lat="42.30354" lon="0.38613">
        <ele>824.86</ele>
        <time>2021-08-02T10:12:43Z</time>
      </trkpt>
      <trkpt lat="42.30348" lon="0.38566">
        <ele>821.54</ele>
        <time>2021-08-02T10:12:48Z</time>
      </trkpt>
      <trkpt lat="42.3035" lon="0.38556">
        <ele>820.88</ele>
        <time>2021-08-02T10:12:49Z</time>
      </trkpt>
      <trkpt lat="42.3035" lon="0.38503">
        <ele>817.9</ele>
        <time>2021-08-02T10:12:54Z</time>
      </trkpt>
      <trkpt lat="42.30349" lon="0.38455">
        <ele>814.18</ele>
        <time>2021-08-02T10:12:59Z</time>
      </trkpt>
      <trkpt lat="42.30349" lon="0.38408">
        <ele>810.89</ele>
        <time>2021-08-02T10:13:03Z</time>
      </trkpt>
      <trkpt lat="42.30349" lon="0.38398">
        <ele>809.99</ele>
        <time>2021-08-02T10:13:04Z</time>
      </trkpt>
      <trkpt lat="42.30336" lon="0.38361">
        <ele>806.15</ele>
        <time>2021-08-02T10:13:08Z</time>
      </trkpt>
      <trkpt lat="42.30326" lon="0.38331">
        <ele>803.03</ele>
        <time>2021-08-02T10:13:11Z</time>
      </trkpt>
      <trkpt lat="42.30328" lon="0.38293">
        <ele>799.4</ele>
        <time>2021-08-02T10:13:15Z</time>
      </trkpt>
      <trkpt lat="42.30332" lon="0.38261">
        <ele>796.7</ele>
        <time>2021-08-02T10:13:18Z</time>
      </trkpt>
      <trkpt lat="42.30326" lon="0.38221">
        <ele>792.3</ele>
        <time>2021-08-02T10:13:22Z</time>
      </trkpt>
      <trkpt lat="42.30318" lon="0.3818">
        <ele>787.91</ele>
        <time>2021-08-02T10:13:26Z</time>
      </trkpt>
      <trkpt lat="42.30313" lon="0.38145">
        <ele>784.83</ele>
        <time>2021-08-02T10:13:29Z</time>
      </trkpt>
      <trkpt lat="42.30309" lon="0.38108">
        <ele>781.54</ele>
        <time>2021-08-02T10:13:32Z</time>
      </trkpt>
      <trkpt lat="42.30295" lon="0.38057">
        <ele>778.31</ele>
        <time>2021-08-02T10:13:36Z</time>
      </trkpt>
      <trkpt lat="42.30291" lon="0.38032">
        <ele>776.78</ele>
        <time>2021-08-02T10:13:38Z</time>
      </trkpt>
      <trkpt lat="42.30291" lon="0.37986">
        <ele>773.9</ele>
        <time>2021-08-02T10:13:42Z</time>
      </trkpt>
      <trkpt lat="42.30278" lon="0.3794">
        <ele>771.74</ele>
        <time>2021-08-02T10:13:46Z</time>
      </trkpt>
      <trkpt lat="42.3025" lon="0.37889">
        <ele>768.58</ele>
        <time>2021-08-02T10:13:51Z</time>
      </trkpt>
      <trkpt lat="42.30233" lon="0.37872">
        <ele>766.78</ele>
        <time>2021-08-02T10:13:55Z</time>
      </trkpt>
      <trkpt lat="42.30231" lon="0.37811">
        <ele>764.29</ele>
        <time>2021-08-02T10:14:02Z</time>
      </trkpt>
      <trkpt lat="42.30227" lon="0.37776">
        <ele>762.51</ele>
        <time>2021-08-02T10:14:05Z</time>
      </trkpt>
      <trkpt lat="42.30212" lon="0.37723">
        <ele>759.29</ele>
        <time>2021-08-02T10:14:10Z</time>
      </trkpt>
      <trkpt lat="42.30224" lon="0.37638">
        <ele>755.98</ele>
        <time>2021-08-02T10:14:18Z</time>
      </trkpt>
      <trkpt lat="42.3023" lon="0.37603">
        <ele>753.71</ele>
        <time>2021-08-02T10:14:21Z</time>
      </trkpt>
      <trkpt lat="42.30225" lon="0.37573">
        <ele>751.13</ele>
        <time>2021-08-02T10:14:24Z</time>
      </trkpt>
      <trkpt lat="42.30236" lon="0.37513">
        <ele>746.9</ele>
        <time>2021-08-02T10:14:30Z</time>
      </trkpt>
      <trkpt lat="42.30242" lon="0.37495">
        <ele>745.48</ele>
        <time>2021-08-02T10:14:32Z</time>
      </trkpt>
      <trkpt lat="42.30253" lon="0.37448">
        <ele>741.16</ele>
        <time>2021-08-02T10:14:37Z</time>
      </trkpt>
      <trkpt lat="42.3026" lon="0.37416">
        <ele>737.67</ele>
        <time>2021-08-02T10:14:40Z</time>
      </trkpt>
      <trkpt lat="42.30265" lon="0.3738">
        <ele>733.99</ele>
        <time>2021-08-02T10:14:43Z</time>
      </trkpt>
      <trkpt lat="42.30268" lon="0.37343">
        <ele>730.33</ele>
        <time>2021-08-02T10:14:46Z</time>
      </trkpt>
      <trkpt lat="42.30269" lon="0.37331">
        <ele>729.24</ele>
        <time>2021-08-02T10:14:47Z</time>
      </trkpt>
      <trkpt lat="42.30277" lon="0.37292">
        <ele>724.91</ele>
        <time>2021-08-02T10:14:51Z</time>
      </trkpt>
      <trkpt lat="42.30288" lon="0.37253">
        <ele>721.03</ele>
        <time>2021-08-02T10:14:55Z</time>
      </trkpt>
      <trkpt lat="42.303" lon="0.3721">
        <ele>717.23</ele>
        <time>2021-08-02T10:14:59Z</time>
      </trkpt>
      <trkpt lat="42.30306" lon="0.37183">
        <ele>713.72</ele>
        <time>2021-08-02T10:15:02Z</time>
      </trkpt>
      <trkpt lat="42.30308" lon="0.37175">
        <ele>712.5</ele>
        <time>2021-08-02T10:15:03Z</time>
      </trkpt>
      <trkpt lat="42.30308" lon="0.37147">
        <ele>707.91</ele>
        <time>2021-08-02T10:15:07Z</time>
      </trkpt>
      <trkpt lat="42.30321" lon="0.37112">
        <ele>702.9</ele>
        <time>2021-08-02T10:15:12Z</time>
      </trkpt>
      <trkpt lat="42.30331" lon="0.37082">
        <ele>698.88</ele>
        <time>2021-08-02T10:15:16Z</time>
      </trkpt>
      <trkpt lat="42.30336" lon="0.37058">
        <ele>695.61</ele>
        <time>2021-08-02T10:15:19Z</time>
      </trkpt>
      <trkpt lat="42.3034" lon="0.37036">
        <ele>692.22</ele>
        <time>2021-08-02T10:15:22Z</time>
      </trkpt>
      <trkpt lat="42.30343" lon="0.37018">
        <ele>689.07</ele>
        <time>2021-08-02T10:15:25Z</time>
      </trkpt>
      <trkpt lat="42.30343" lon="0.37007">
        <ele>686.97</ele>
        <time>2021-08-02T10:15:27Z</time>
      </trkpt>
      <trkpt lat="42.30357" lon="0.37014">
        <ele>682.26</ele>
        <time>2021-08-02T10:15:32Z</time>
      </trkpt>
      <trkpt lat="42.30358" lon="0.3703">
        <ele>680.4</ele>
        <time>2021-08-02T10:15:34Z</time>
      </trkpt>
      <trkpt lat="42.30363" lon="0.37068">
        <ele>675.92</ele>
        <time>2021-08-02T10:15:39Z</time>
      </trkpt>
      <trkpt lat="42.30365" lon="0.37093">
        <ele>672.34</ele>
        <time>2021-08-02T10:15:42Z</time>
      </trkpt>
      <trkpt lat="42.30365" lon="0.37127">
        <ele>668.6</ele>
        <time>2021-08-02T10:15:46Z</time>
      </trkpt>
      <trkpt lat="42.30366" lon="0.37135">
        <ele>667.68</ele>
        <time>2021-08-02T10:15:47Z</time>
      </trkpt>
      <trkpt lat="42.30382" lon="0.37145">
        <ele>663.15</ele>
        <time>2021-08-02T10:15:52Z</time>
      </trkpt>
      <trkpt lat="42.30385" lon="0.37139">
        <ele>662.27</ele>
        <time>2021-08-02T10:15:53Z</time>
      </trkpt>
      <trkpt lat="42.30399" lon="0.37099">
        <ele>657.24</ele>
        <time>2021-08-02T10:15:58Z</time>
      </trkpt>
      <trkpt lat="42.30401" lon="0.37092">
        <ele>656.03</ele>
        <time>2021-08-02T10:15:59Z</time>
      </trkpt>
      <trkpt lat="42.30404" lon="0.37077">
        <ele>653.7</ele>
        <time>2021-08-02T10:16:01Z</time>
      </trkpt>
      <trkpt lat="42.30406" lon="0.37041">
        <ele>648.79</ele>
        <time>2021-08-02T10:16:06Z</time>
      </trkpt>
      <trkpt lat="42.3041" lon="0.3698">
        <ele>646.07</ele>
        <time>2021-08-02T10:16:11Z</time>
      </trkpt>
      <trkpt lat="42.30388" lon="0.3689">
        <ele>642.57</ele>
        <time>2021-08-02T10:16:19Z</time>
      </trkpt>
      <trkpt lat="42.30372" lon="0.36842">
        <ele>639.48</ele>
        <time>2021-08-02T10:16:23Z</time>
      </trkpt>
      <trkpt lat="42.30366" lon="0.36818">
        <ele>636.79</ele>
        <time>2021-08-02T10:16:26Z</time>
      </trkpt>
      <trkpt lat="42.30385" lon="0.36833">
        <ele>632.32</ele>
        <time>2021-08-02T10:16:31Z</time>
      </trkpt>
      <trkpt lat="42.3041" lon="0.36834">
        <ele>629.02</ele>
        <time>2021-08-02T10:16:35Z</time>
      </trkpt>
      <trkpt lat="42.30408" lon="0.368">
        <ele>625.42</ele>
        <time>2021-08-02T10:16:39Z</time>
      </trkpt>
      <trkpt lat="42.3039" lon="0.36755">
        <ele>622.41</ele>
        <time>2021-08-02T10:16:43Z</time>
      </trkpt>
      <trkpt lat="42.30365" lon="0.36727">
        <ele>619.63</ele>
        <time>2021-08-02T10:16:46Z</time>
      </trkpt>
      <trkpt lat="42.30342" lon="0.36703">
        <ele>616.21</ele>
        <time>2021-08-02T10:16:49Z</time>
      </trkpt>
      <trkpt lat="42.30322" lon="0.36664">
        <ele>611.27</ele>
        <time>2021-08-02T10:16:53Z</time>
      </trkpt>
      <trkpt lat="42.30314" lon="0.36633">
        <ele>607.58</ele>
        <time>2021-08-02T10:16:56Z</time>
      </trkpt>
      <trkpt lat="42.3031" lon="0.36605">
        <ele>603.79</ele>
        <time>2021-08-02T10:16:59Z</time>
      </trkpt>
      <trkpt lat="42.30306" lon="0.36573">
        <ele>600.11</ele>
        <time>2021-08-02T10:17:02Z</time>
      </trkpt>
      <trkpt lat="42.30303" lon="0.36555">
        <ele>597.45</ele>
        <time>2021-08-02T10:17:04Z</time>
      </trkpt>
      <trkpt lat="42.30316" lon="0.36538">
        <ele>592.68</ele>
        <time>2021-08-02T10:17:08Z</time>
      </trkpt>
      <trkpt lat="42.30328" lon="0.36555">
        <ele>589.05</ele>
        <time>2021-08-02T10:17:11Z</time>
      </trkpt>
      <trkpt lat="42.30354" lon="0.36568">
        <ele>583.2</ele>
        <time>2021-08-02T10:17:18Z</time>
      </trkpt>
      <trkpt lat="42.30388" lon="0.36526">
        <ele>578.98</ele>
        <time>2021-08-02T10:17:25Z</time>
      </trkpt>
      <trkpt lat="42.30402" lon="0.36512">
        <ele>576.84</ele>
        <time>2021-08-02T10:17:28Z</time>
      </trkpt>
      <trkpt lat="42.30409" lon="0.36503">
        <ele>572.44</ele>
        <time>2021-08-02T10:17:34Z</time>
      </trkpt>
      <trkpt lat="42.30409" lon="0.36504">
        <ele>569.37</ele>
        <time>2021-08-02T10:17:45Z</time>
      </trkpt>
      <trkpt lat="42.30413" lon="0.36495">
        <ele>568.78</ele>
        <time>2021-08-02T10:17:57Z</time>
      </trkpt>
      <trkpt lat="42.30397" lon="0.36466">
        <ele>568.99</ele>
        <time>2021-08-02T10:18:02Z</time>
      </trkpt>
      <trkpt lat="42.30279" lon="0.3636">
        <ele>571.25</ele>
        <time>2021-08-02T10:18:11Z</time>
      </trkpt>
      <trkpt lat="42.30171" lon="0.36263">
        <ele>574.69</ele>
        <time>2021-08-02T10:18:17Z</time>
      </trkpt>
      <trkpt lat="42.30028" lon="0.36135">
        <ele>577.74</ele>
        <time>2021-08-02T10:18:24Z</time>
      </trkpt>
      <trkpt lat="42.2988" lon="0.36007">
        <ele>578.35</ele>
        <time>2021-08-02T10:18:32Z</time>
      </trkpt>
      <trkpt lat="42.29748" lon="0.35908">
        <ele>574.93</ele>
        <time>2021-08-02T10:18:39Z</time>
      </trkpt>
      <trkpt lat="42.29614" lon="0.35844">
        <ele>572.43</ele>
        <time>2021-08-02T10:18:46Z</time>
      </trkpt>
      <trkpt lat="42.29397" lon="0.35796">
        <ele>574.66</ele>
        <time>2021-08-02T10:18:56Z</time>
      </trkpt>
      <trkpt lat="42.29032" lon="0.35712">
        <ele>576.53</ele>
        <time>2021-08-02T10:19:12Z</time>
      </trkpt>
      <trkpt lat="42.28736" lon="0.35653">
        <ele>576.05</ele>
        <time>2021-08-02T10:19:25Z</time>
      </trkpt>
      <trkpt lat="42.2864" lon="0.35671">
        <ele>572.04</ele>
        <time>2021-08-02T10:19:30Z</time>
      </trkpt>
      <trkpt lat="42.28599" lon="0.35684">
        <ele>568.05</ele>
        <time>2021-08-02T10:19:33Z</time>
      </trkpt>
      <trkpt lat="42.28558" lon="0.35697">
        <ele>564.3</ele>
        <time>2021-08-02T10:19:36Z</time>
      </trkpt>
      <trkpt lat="42.28518" lon="0.3571">
        <ele>561.1</ele>
        <time>2021-08-02T10:19:39Z</time>
      </trkpt>
      <trkpt lat="42.28506" lon="0.35713">
        <ele>560.15</ele>
        <time>2021-08-02T10:19:40Z</time>
      </trkpt>
      <trkpt lat="42.28477" lon="0.35689">
        <ele>555.54</ele>
        <time>2021-08-02T10:19:45Z</time>
      </trkpt>
      <trkpt lat="42.28507" lon="0.35665">
        <ele>552.28</ele>
        <time>2021-08-02T10:19:49Z</time>
      </trkpt>
      <trkpt lat="42.28558" lon="0.35641">
        <ele>549.39</ele>
        <time>2021-08-02T10:19:54Z</time>
      </trkpt>
      <trkpt lat="42.28601" lon="0.35624">
        <ele>547.08</ele>
        <time>2021-08-02T10:19:58Z</time>
      </trkpt>
      <trkpt lat="42.28658" lon="0.35585">
        <ele>542.56</ele>
        <time>2021-08-02T10:20:04Z</time>
      </trkpt>
      <trkpt lat="42.28659" lon="0.3554">
        <ele>539.08</ele>
        <time>2021-08-02T10:20:09Z</time>
      </trkpt>
      <trkpt lat="42.28656" lon="0.35527">
        <ele>535.37</ele>
        <time>2021-08-02T10:20:18Z</time>
      </trkpt>
      <trkpt lat="42.28653" lon="0.35523">
        <ele>534.38</ele>
        <time>2021-08-02T10:20:35Z</time>
      </trkpt>
      <trkpt lat="42.28634" lon="0.35505">
        <ele>534.49</ele>
        <time>2021-08-02T10:20:42Z</time>
      </trkpt>
      <trkpt lat="42.28606" lon="0.35513">
        <ele>535.01</ele>
        <time>2021-08-02T10:20:49Z</time>
      </trkpt>
      <trkpt lat="42.286" lon="0.35521">
        <ele>535.28</ele>
        <time>2021-08-02T10:20:51Z</time>
      </trkpt>
      <trkpt lat="42.28598" lon="0.35534">
        <ele>535.93</ele>
        <time>2021-08-02T10:21:04Z</time>
      </trkpt>
      <trkpt lat="42.28598" lon="0.35534">
        <ele>536.37</ele>
        <time>2021-08-02T10:21:36Z</time>
      </trkpt>
      <trkpt lat="42.28592" lon="0.35543">
        <ele>535.72</ele>
        <time>2021-08-02T10:26:12Z</time>
      </trkpt>
      <trkpt lat="42.28598" lon="0.35533">
        <ele>535.72</ele>
        <time>2021-08-02T10:26:47Z</time>
      </trkpt>
      <trkpt lat="42.28584" lon="0.35532">
        <ele>537.79</ele>
        <time>2021-08-02T10:46:47Z</time>
      </trkpt>
      <trkpt lat="42.28584" lon="0.35528">
        <ele>537.79</ele>
        <time>2021-08-02T10:46:48Z</time>
      </trkpt>
      <trkpt lat="42.28595" lon="0.35532">
        <ele>537.79</ele>
        <time>2021-08-02T10:47:11Z</time>
      </trkpt>
      <trkpt lat="42.28595" lon="0.35534">
        <ele>537.79</ele>
        <time>2021-08-02T10:47:59Z</time>
      </trkpt>
      <trkpt lat="42.28591" lon="0.35526">
        <ele>537.49</ele>
        <time>2021-08-02T10:48:06Z</time>
      </trkpt>
      <trkpt lat="42.28606" lon="0.35507">
        <ele>537.33</ele>
        <time>2021-08-02T10:48:11Z</time>
      </trkpt>
      <trkpt lat="42.28615" lon="0.35494">
        <ele>537.34</ele>
        <time>2021-08-02T10:48:13Z</time>
      </trkpt>
      <trkpt lat="42.28623" lon="0.35479">
        <ele>537.34</ele>
        <time>2021-08-02T10:48:15Z</time>
      </trkpt>
      <trkpt lat="42.28656" lon="0.35432">
        <ele>536.2</ele>
        <time>2021-08-02T10:48:23Z</time>
      </trkpt>
      <trkpt lat="42.28663" lon="0.35407">
        <ele>536.63</ele>
        <time>2021-08-02T10:48:27Z</time>
      </trkpt>
      <trkpt lat="42.28676" lon="0.35366">
        <ele>540.17</ele>
        <time>2021-08-02T10:48:37Z</time>
      </trkpt>
      <trkpt lat="42.28673" lon="0.35279">
        <ele>543.09</ele>
        <time>2021-08-02T10:48:46Z</time>
      </trkpt>
      <trkpt lat="42.28664" lon="0.352">
        <ele>546.39</ele>
        <time>2021-08-02T10:48:53Z</time>
      </trkpt>
      <trkpt lat="42.28662" lon="0.35148">
        <ele>548.43</ele>
        <time>2021-08-02T10:48:58Z</time>
      </trkpt>
      <trkpt lat="42.28652" lon="0.35111">
        <ele>550.06</ele>
        <time>2021-08-02T10:49:02Z</time>
      </trkpt>
      <trkpt lat="42.28644" lon="0.35076">
        <ele>551.72</ele>
        <time>2021-08-02T10:49:06Z</time>
      </trkpt>
      <trkpt lat="42.28669" lon="0.3505">
        <ele>555.13</ele>
        <time>2021-08-02T10:49:12Z</time>
      </trkpt>
      <trkpt lat="42.28707" lon="0.35054">
        <ele>559.34</ele>
        <time>2021-08-02T10:49:17Z</time>
      </trkpt>
      <trkpt lat="42.28744" lon="0.35054">
        <ele>563.34</ele>
        <time>2021-08-02T10:49:21Z</time>
      </trkpt>
      <trkpt lat="42.28773" lon="0.35054">
        <ele>566.63</ele>
        <time>2021-08-02T10:49:24Z</time>
      </trkpt>
      <trkpt lat="42.28801" lon="0.35063">
        <ele>570.45</ele>
        <time>2021-08-02T10:49:28Z</time>
      </trkpt>
      <trkpt lat="42.28806" lon="0.35045">
        <ele>574.62</ele>
        <time>2021-08-02T10:49:33Z</time>
      </trkpt>
      <trkpt lat="42.28787" lon="0.35036">
        <ele>576.96</ele>
        <time>2021-08-02T10:49:36Z</time>
      </trkpt>
      <trkpt lat="42.28769" lon="0.35029">
        <ele>579.13</ele>
        <time>2021-08-02T10:49:39Z</time>
      </trkpt>
      <trkpt lat="42.28747" lon="0.35026">
        <ele>581.17</ele>
        <time>2021-08-02T10:49:42Z</time>
      </trkpt>
      <trkpt lat="42.28684" lon="0.35014">
        <ele>584.94</ele>
        <time>2021-08-02T10:49:48Z</time>
      </trkpt>
      <trkpt lat="42.2865" lon="0.35003">
        <ele>586.46</ele>
        <time>2021-08-02T10:49:51Z</time>
      </trkpt>
      <trkpt lat="42.28623" lon="0.35002">
        <ele>587.09</ele>
        <time>2021-08-02T10:49:54Z</time>
      </trkpt>
      <trkpt lat="42.28538" lon="0.34999">
        <ele>590.13</ele>
        <time>2021-08-02T10:50:02Z</time>
      </trkpt>
      <trkpt lat="42.28527" lon="0.34999">
        <ele>590.51</ele>
        <time>2021-08-02T10:50:03Z</time>
      </trkpt>
      <trkpt lat="42.28493" lon="0.34993">
        <ele>591.56</ele>
        <time>2021-08-02T10:50:07Z</time>
      </trkpt>
      <trkpt lat="42.28441" lon="0.35006">
        <ele>594.9</ele>
        <time>2021-08-02T10:50:18Z</time>
      </trkpt>
      <trkpt lat="42.2841" lon="0.3502">
        <ele>598.36</ele>
        <time>2021-08-02T10:50:24Z</time>
      </trkpt>
      <trkpt lat="42.28377" lon="0.35037">
        <ele>601.74</ele>
        <time>2021-08-02T10:50:29Z</time>
      </trkpt>
      <trkpt lat="42.28349" lon="0.3505">
        <ele>605.29</ele>
        <time>2021-08-02T10:50:33Z</time>
      </trkpt>
      <trkpt lat="42.28338" lon="0.35056">
        <ele>607.27</ele>
        <time>2021-08-02T10:50:35Z</time>
      </trkpt>
      <trkpt lat="42.28323" lon="0.35051">
        <ele>611.74</ele>
        <time>2021-08-02T10:50:40Z</time>
      </trkpt>
      <trkpt lat="42.28338" lon="0.35031">
        <ele>614.95</ele>
        <time>2021-08-02T10:50:44Z</time>
      </trkpt>
      <trkpt lat="42.2835" lon="0.35022">
        <ele>616.36</ele>
        <time>2021-08-02T10:50:46Z</time>
      </trkpt>
      <trkpt lat="42.28398" lon="0.34964">
        <ele>619.65</ele>
        <time>2021-08-02T10:50:52Z</time>
      </trkpt>
      <trkpt lat="42.28465" lon="0.34886">
        <ele>620.35</ele>
        <time>2021-08-02T10:51:00Z</time>
      </trkpt>
      <trkpt lat="42.28481" lon="0.34848">
        <ele>620.56</ele>
        <time>2021-08-02T10:51:04Z</time>
      </trkpt>
      <trkpt lat="42.28508" lon="0.34817">
        <ele>622.87</ele>
        <time>2021-08-02T10:51:11Z</time>
      </trkpt>
      <trkpt lat="42.28522" lon="0.34814">
        <ele>623.96</ele>
        <time>2021-08-02T10:51:13Z</time>
      </trkpt>
      <trkpt lat="42.28547" lon="0.34772">
        <ele>628.37</ele>
        <time>2021-08-02T10:51:19Z</time>
      </trkpt>
      <trkpt lat="42.28526" lon="0.34743">
        <ele>632.37</ele>
        <time>2021-08-02T10:51:23Z</time>
      </trkpt>
      <trkpt lat="42.28517" lon="0.34712">
        <ele>636.23</ele>
        <time>2021-08-02T10:51:27Z</time>
      </trkpt>
      <trkpt lat="42.28527" lon="0.34688">
        <ele>639.38</ele>
        <time>2021-08-02T10:51:30Z</time>
      </trkpt>
      <trkpt lat="42.28532" lon="0.34681">
        <ele>640.5</ele>
        <time>2021-08-02T10:51:31Z</time>
      </trkpt>
      <trkpt lat="42.28545" lon="0.34635">
        <ele>646.04</ele>
        <time>2021-08-02T10:51:36Z</time>
      </trkpt>
      <trkpt lat="42.28546" lon="0.34626">
        <ele>648.25</ele>
        <time>2021-08-02T10:51:37Z</time>
      </trkpt>
      <trkpt lat="42.2856" lon="0.34593">
        <ele>652.79</ele>
        <time>2021-08-02T10:51:41Z</time>
      </trkpt>
      <trkpt lat="42.28554" lon="0.3455">
        <ele>657.34</ele>
        <time>2021-08-02T10:51:47Z</time>
      </trkpt>
      <trkpt lat="42.28545" lon="0.34534">
        <ele>658.78</ele>
        <time>2021-08-02T10:51:49Z</time>
      </trkpt>
      <trkpt lat="42.28532" lon="0.34502">
        <ele>661.19</ele>
        <time>2021-08-02T10:51:52Z</time>
      </trkpt>
      <trkpt lat="42.28527" lon="0.34449">
        <ele>663.53</ele>
        <time>2021-08-02T10:51:56Z</time>
      </trkpt>
      <trkpt lat="42.28547" lon="0.34338">
        <ele>667.16</ele>
        <time>2021-08-02T10:52:04Z</time>
      </trkpt>
      <trkpt lat="42.28594" lon="0.34247">
        <ele>670.63</ele>
        <time>2021-08-02T10:52:12Z</time>
      </trkpt>
      <trkpt lat="42.28601" lon="0.34237">
        <ele>671.31</ele>
        <time>2021-08-02T10:52:13Z</time>
      </trkpt>
      <trkpt lat="42.28645" lon="0.34205">
        <ele>675.1</ele>
        <time>2021-08-02T10:52:18Z</time>
      </trkpt>
      <trkpt lat="42.28653" lon="0.34196">
        <ele>675.99</ele>
        <time>2021-08-02T10:52:19Z</time>
      </trkpt>
      <trkpt lat="42.28678" lon="0.34171">
        <ele>679.04</ele>
        <time>2021-08-02T10:52:22Z</time>
      </trkpt>
      <trkpt lat="42.28691" lon="0.34156">
        <ele>681.73</ele>
        <time>2021-08-02T10:52:24Z</time>
      </trkpt>
      <trkpt lat="42.28712" lon="0.34156">
        <ele>687.24</ele>
        <time>2021-08-02T10:52:28Z</time>
      </trkpt>
      <trkpt lat="42.28707" lon="0.34183">
        <ele>690.91</ele>
        <time>2021-08-02T10:52:31Z</time>
      </trkpt>
      <trkpt lat="42.28703" lon="0.34209">
        <ele>693.16</ele>
        <time>2021-08-02T10:52:33Z</time>
      </trkpt>
      <trkpt lat="42.2868" lon="0.34271">
        <ele>697.74</ele>
        <time>2021-08-02T10:52:38Z</time>
      </trkpt>
      <trkpt lat="42.28677" lon="0.34299">
        <ele>699.68</ele>
        <time>2021-08-02T10:52:40Z</time>
      </trkpt>
      <trkpt lat="42.28675" lon="0.34327">
        <ele>701.68</ele>
        <time>2021-08-02T10:52:42Z</time>
      </trkpt>
      <trkpt lat="42.28667" lon="0.34369">
        <ele>706.03</ele>
        <time>2021-08-02T10:52:46Z</time>
      </trkpt>
      <trkpt lat="42.28674" lon="0.34399">
        <ele>709.35</ele>
        <time>2021-08-02T10:52:49Z</time>
      </trkpt>
      <trkpt lat="42.28671" lon="0.34436">
        <ele>712.56</ele>
        <time>2021-08-02T10:52:52Z</time>
      </trkpt>
      <trkpt lat="42.28668" lon="0.34447">
        <ele>713.69</ele>
        <time>2021-08-02T10:52:53Z</time>
      </trkpt>
      <trkpt lat="42.28661" lon="0.34476">
        <ele>718.46</ele>
        <time>2021-08-02T10:52:57Z</time>
      </trkpt>
      <trkpt lat="42.28662" lon="0.34512">
        <ele>722.78</ele>
        <time>2021-08-02T10:53:01Z</time>
      </trkpt>
      <trkpt lat="42.28678" lon="0.34521">
        <ele>726.06</ele>
        <time>2021-08-02T10:53:04Z</time>
      </trkpt>
      <trkpt lat="42.28683" lon="0.34515">
        <ele>727.16</ele>
        <time>2021-08-02T10:53:05Z</time>
      </trkpt>
      <trkpt lat="42.28694" lon="0.34499">
        <ele>729.36</ele>
        <time>2021-08-02T10:53:07Z</time>
      </trkpt>
      <trkpt lat="42.28725" lon="0.34463">
        <ele>733.8</ele>
        <time>2021-08-02T10:53:11Z</time>
      </trkpt>
      <trkpt lat="42.28732" lon="0.34453">
        <ele>735.02</ele>
        <time>2021-08-02T10:53:12Z</time>
      </trkpt>
      <trkpt lat="42.28755" lon="0.34421">
        <ele>741.51</ele>
        <time>2021-08-02T10:53:16Z</time>
      </trkpt>
      <trkpt lat="42.28764" lon="0.34413">
        <ele>744.61</ele>
        <time>2021-08-02T10:53:18Z</time>
      </trkpt>
      <trkpt lat="42.28771" lon="0.34404">
        <ele>748.78</ele>
        <time>2021-08-02T10:53:21Z</time>
      </trkpt>
      <trkpt lat="42.28783" lon="0.3439">
        <ele>752.25</ele>
        <time>2021-08-02T10:53:24Z</time>
      </trkpt>
      <trkpt lat="42.28796" lon="0.34375">
        <ele>755.68</ele>
        <time>2021-08-02T10:53:27Z</time>
      </trkpt>
      <trkpt lat="42.28807" lon="0.34358">
        <ele>758.93</ele>
        <time>2021-08-02T10:53:30Z</time>
      </trkpt>
      <trkpt lat="42.2882" lon="0.3434">
        <ele>762.52</ele>
        <time>2021-08-02T10:53:33Z</time>
      </trkpt>
      <trkpt lat="42.28828" lon="0.34325">
        <ele>764.89</ele>
        <time>2021-08-02T10:53:35Z</time>
      </trkpt>
      <trkpt lat="42.28837" lon="0.34311">
        <ele>767.08</ele>
        <time>2021-08-02T10:53:37Z</time>
      </trkpt>
      <trkpt lat="42.28851" lon="0.34281">
        <ele>772</ele>
        <time>2021-08-02T10:53:41Z</time>
      </trkpt>
      <trkpt lat="42.28856" lon="0.34264">
        <ele>774.44</ele>
        <time>2021-08-02T10:53:43Z</time>
      </trkpt>
      <trkpt lat="42.28895" lon="0.34219">
        <ele>778.85</ele>
        <time>2021-08-02T10:53:48Z</time>
      </trkpt>
      <trkpt lat="42.28905" lon="0.34217">
        <ele>779.28</ele>
        <time>2021-08-02T10:53:49Z</time>
      </trkpt>
      <trkpt lat="42.28961" lon="0.34202">
        <ele>780.6</ele>
        <time>2021-08-02T10:53:54Z</time>
      </trkpt>
      <trkpt lat="42.29019" lon="0.34212">
        <ele>784.82</ele>
        <time>2021-08-02T10:54:00Z</time>
      </trkpt>
      <trkpt lat="42.29033" lon="0.34242">
        <ele>788.07</ele>
        <time>2021-08-02T10:54:03Z</time>
      </trkpt>
      <trkpt lat="42.29059" lon="0.34257">
        <ele>791.31</ele>
        <time>2021-08-02T10:54:06Z</time>
      </trkpt>
      <trkpt lat="42.29091" lon="0.34293">
        <ele>794.79</ele>
        <time>2021-08-02T10:54:10Z</time>
      </trkpt>
      <trkpt lat="42.29096" lon="0.34306">
        <ele>795.74</ele>
        <time>2021-08-02T10:54:11Z</time>
      </trkpt>
      <trkpt lat="42.29129" lon="0.34343">
        <ele>801.22</ele>
        <time>2021-08-02T10:54:16Z</time>
      </trkpt>
      <trkpt lat="42.29152" lon="0.34356">
        <ele>804.48</ele>
        <time>2021-08-02T10:54:19Z</time>
      </trkpt>
      <trkpt lat="42.29161" lon="0.34363">
        <ele>805.63</ele>
        <time>2021-08-02T10:54:20Z</time>
      </trkpt>
      <trkpt lat="42.29179" lon="0.34377">
        <ele>808.09</ele>
        <time>2021-08-02T10:54:22Z</time>
      </trkpt>
      <trkpt lat="42.29206" lon="0.34363">
        <ele>812.85</ele>
        <time>2021-08-02T10:54:26Z</time>
      </trkpt>
      <trkpt lat="42.292" lon="0.3432">
        <ele>816.42</ele>
        <time>2021-08-02T10:54:29Z</time>
      </trkpt>
      <trkpt lat="42.29198" lon="0.34274">
        <ele>819.76</ele>
        <time>2021-08-02T10:54:32Z</time>
      </trkpt>
      <trkpt lat="42.29213" lon="0.34224">
        <ele>823.48</ele>
        <time>2021-08-02T10:54:36Z</time>
      </trkpt>
      <trkpt lat="42.29253" lon="0.34199">
        <ele>826.55</ele>
        <time>2021-08-02T10:54:40Z</time>
      </trkpt>
      <trkpt lat="42.29302" lon="0.34183">
        <ele>830.17</ele>
        <time>2021-08-02T10:54:44Z</time>
      </trkpt>
      <trkpt lat="42.29325" lon="0.34159">
        <ele>832.27</ele>
        <time>2021-08-02T10:54:46Z</time>
      </trkpt>
      <trkpt lat="42.29368" lon="0.34108">
        <ele>836.44</ele>
        <time>2021-08-02T10:54:50Z</time>
      </trkpt>
      <trkpt lat="42.29393" lon="0.34053">
        <ele>841.41</ele>
        <time>2021-08-02T10:54:54Z</time>
      </trkpt>
      <trkpt lat="42.29399" lon="0.34041">
        <ele>842.32</ele>
        <time>2021-08-02T10:54:55Z</time>
      </trkpt>
      <trkpt lat="42.29436" lon="0.33992">
        <ele>846.28</ele>
        <time>2021-08-02T10:54:59Z</time>
      </trkpt>
      <trkpt lat="42.29457" lon="0.33968">
        <ele>847.84</ele>
        <time>2021-08-02T10:55:01Z</time>
      </trkpt>
      <trkpt lat="42.29506" lon="0.3386">
        <ele>849.65</ele>
        <time>2021-08-02T10:55:08Z</time>
      </trkpt>
      <trkpt lat="42.29514" lon="0.33815">
        <ele>849.57</ele>
        <time>2021-08-02T10:55:11Z</time>
      </trkpt>
      <trkpt lat="42.29545" lon="0.33746">
        <ele>848.46</ele>
        <time>2021-08-02T10:55:16Z</time>
      </trkpt>
      <trkpt lat="42.29601" lon="0.33609">
        <ele>844.65</ele>
        <time>2021-08-02T10:55:25Z</time>
      </trkpt>
      <trkpt lat="42.29606" lon="0.33594">
        <ele>844.25</ele>
        <time>2021-08-02T10:55:26Z</time>
      </trkpt>
      <trkpt lat="42.29641" lon="0.33552">
        <ele>842.23</ele>
        <time>2021-08-02T10:55:31Z</time>
      </trkpt>
      <trkpt lat="42.29738" lon="0.33526">
        <ele>841.28</ele>
        <time>2021-08-02T10:55:38Z</time>
      </trkpt>
      <trkpt lat="42.29766" lon="0.33521">
        <ele>841.32</ele>
        <time>2021-08-02T10:55:40Z</time>
      </trkpt>
      <trkpt lat="42.29807" lon="0.3354">
        <ele>841.65</ele>
        <time>2021-08-02T10:55:44Z</time>
      </trkpt>
      <trkpt lat="42.29838" lon="0.3357">
        <ele>842.18</ele>
        <time>2021-08-02T10:55:47Z</time>
      </trkpt>
      <trkpt lat="42.29914" lon="0.33581">
        <ele>843.66</ele>
        <time>2021-08-02T10:55:53Z</time>
      </trkpt>
      <trkpt lat="42.29939" lon="0.33575">
        <ele>844.18</ele>
        <time>2021-08-02T10:55:55Z</time>
      </trkpt>
      <trkpt lat="42.30001" lon="0.33583">
        <ele>844.68</ele>
        <time>2021-08-02T10:56:00Z</time>
      </trkpt>
      <trkpt lat="42.30039" lon="0.33585">
        <ele>844.43</ele>
        <time>2021-08-02T10:56:03Z</time>
      </trkpt>
      <trkpt lat="42.30078" lon="0.33571">
        <ele>843.55</ele>
        <time>2021-08-02T10:56:08Z</time>
      </trkpt>
      <trkpt lat="42.30107" lon="0.3352">
        <ele>841.97</ele>
        <time>2021-08-02T10:56:13Z</time>
      </trkpt>
      <trkpt lat="42.3015" lon="0.33504">
        <ele>840.74</ele>
        <time>2021-08-02T10:56:19Z</time>
      </trkpt>
      <trkpt lat="42.30189" lon="0.33505">
        <ele>841.04</ele>
        <time>2021-08-02T10:56:23Z</time>
      </trkpt>
      <trkpt lat="42.30238" lon="0.33466">
        <ele>842.42</ele>
        <time>2021-08-02T10:56:29Z</time>
      </trkpt>
      <trkpt lat="42.30259" lon="0.3346">
        <ele>843.1</ele>
        <time>2021-08-02T10:56:31Z</time>
      </trkpt>
      <trkpt lat="42.30314" lon="0.33439">
        <ele>843.57</ele>
        <time>2021-08-02T10:56:36Z</time>
      </trkpt>
      <trkpt lat="42.30398" lon="0.33359">
        <ele>841.75</ele>
        <time>2021-08-02T10:56:44Z</time>
      </trkpt>
      <trkpt lat="42.30418" lon="0.33339">
        <ele>841.13</ele>
        <time>2021-08-02T10:56:46Z</time>
      </trkpt>
      <trkpt lat="42.30445" lon="0.33287">
        <ele>839.94</ele>
        <time>2021-08-02T10:56:50Z</time>
      </trkpt>
      <trkpt lat="42.30453" lon="0.33262">
        <ele>839.24</ele>
        <time>2021-08-02T10:56:52Z</time>
      </trkpt>
      <trkpt lat="42.30454" lon="0.33176">
        <ele>836.95</ele>
        <time>2021-08-02T10:56:58Z</time>
      </trkpt>
      <trkpt lat="42.30465" lon="0.33095">
        <ele>835.45</ele>
        <time>2021-08-02T10:57:05Z</time>
      </trkpt>
      <trkpt lat="42.30486" lon="0.33087">
        <ele>834.35</ele>
        <time>2021-08-02T10:57:09Z</time>
      </trkpt>
      <trkpt lat="42.30572" lon="0.33116">
        <ele>834.31</ele>
        <time>2021-08-02T10:57:18Z</time>
      </trkpt>
      <trkpt lat="42.30642" lon="0.33136">
        <ele>835.16</ele>
        <time>2021-08-02T10:57:26Z</time>
      </trkpt>
      <trkpt lat="42.307" lon="0.33104">
        <ele>835.68</ele>
        <time>2021-08-02T10:57:34Z</time>
      </trkpt>
      <trkpt lat="42.30823" lon="0.33037">
        <ele>838.32</ele>
        <time>2021-08-02T10:57:46Z</time>
      </trkpt>
      <trkpt lat="42.30845" lon="0.33025">
        <ele>838.86</ele>
        <time>2021-08-02T10:57:48Z</time>
      </trkpt>
      <trkpt lat="42.30879" lon="0.32994">
        <ele>839.32</ele>
        <time>2021-08-02T10:57:51Z</time>
      </trkpt>
      <trkpt lat="42.3094" lon="0.32941">
        <ele>840.66</ele>
        <time>2021-08-02T10:57:57Z</time>
      </trkpt>
      <trkpt lat="42.30966" lon="0.32897">
        <ele>840.86</ele>
        <time>2021-08-02T10:58:01Z</time>
      </trkpt>
      <trkpt lat="42.31005" lon="0.32851">
        <ele>840.63</ele>
        <time>2021-08-02T10:58:06Z</time>
      </trkpt>
      <trkpt lat="42.31016" lon="0.3283">
        <ele>840.56</ele>
        <time>2021-08-02T10:58:08Z</time>
      </trkpt>
      <trkpt lat="42.31051" lon="0.32801">
        <ele>840.54</ele>
        <time>2021-08-02T10:58:12Z</time>
      </trkpt>
      <trkpt lat="42.31092" lon="0.32747">
        <ele>839.2</ele>
        <time>2021-08-02T10:58:19Z</time>
      </trkpt>
      <trkpt lat="42.31106" lon="0.32731">
        <ele>836.05</ele>
        <time>2021-08-02T10:58:27Z</time>
      </trkpt>
      <trkpt lat="42.3111" lon="0.32729">
        <ele>834.67</ele>
        <time>2021-08-02T10:58:49Z</time>
      </trkpt>
      <trkpt lat="42.31114" lon="0.32728">
        <ele>834.67</ele>
        <time>2021-08-02T10:58:51Z</time>
      </trkpt>
      <trkpt lat="42.31122" lon="0.32736">
        <ele>834.76</ele>
        <time>2021-08-02T10:59:05Z</time>
      </trkpt>
      <trkpt lat="42.31122" lon="0.32734">
        <ele>834.61</ele>
        <time>2021-08-02T10:59:22Z</time>
      </trkpt>
      <trkpt lat="42.31129" lon="0.32736">
        <ele>834.44</ele>
        <time>2021-08-02T10:59:38Z</time>
      </trkpt>
      <trkpt lat="42.31128" lon="0.32735">
        <ele>834.47</ele>
        <time>2021-08-02T10:59:59Z</time>
      </trkpt>
      <trkpt lat="42.31128" lon="0.32735">
        <ele>834.68</ele>
        <time>2021-08-02T11:00:24Z</time>
      </trkpt>
      <trkpt lat="42.31128" lon="0.32733">
        <ele>835.37</ele>
        <time>2021-08-02T11:01:21Z</time>
      </trkpt>
      <trkpt lat="42.31128" lon="0.32732">
        <ele>834.81</ele>
        <time>2021-08-02T11:01:31Z</time>
      </trkpt>
      <trkpt lat="42.31118" lon="0.32729">
        <ele>834.83</ele>
        <time>2021-08-02T11:02:08Z</time>
      </trkpt>
      <trkpt lat="42.31119" lon="0.3273">
        <ele>834.76</ele>
        <time>2021-08-02T11:02:11Z</time>
      </trkpt>
      <trkpt lat="42.31117" lon="0.32766">
        <ele>835.77</ele>
        <time>2021-08-02T11:02:17Z</time>
      </trkpt>
      <trkpt lat="42.31114" lon="0.32787">
        <ele>836.3</ele>
        <time>2021-08-02T11:02:19Z</time>
      </trkpt>
      <trkpt lat="42.31094" lon="0.32884">
        <ele>840.17</ele>
        <time>2021-08-02T11:02:27Z</time>
      </trkpt>
      <trkpt lat="42.31092" lon="0.32966">
        <ele>843.98</ele>
        <time>2021-08-02T11:02:33Z</time>
      </trkpt>
      <trkpt lat="42.31095" lon="0.33058">
        <ele>847.18</ele>
        <time>2021-08-02T11:02:38Z</time>
      </trkpt>
      <trkpt lat="42.31093" lon="0.33116">
        <ele>849.87</ele>
        <time>2021-08-02T11:02:41Z</time>
      </trkpt>
      <trkpt lat="42.31101" lon="0.33178">
        <ele>852.42</ele>
        <time>2021-08-02T11:02:45Z</time>
      </trkpt>
      <trkpt lat="42.31155" lon="0.33294">
        <ele>855.06</ele>
        <time>2021-08-02T11:02:54Z</time>
      </trkpt>
      <trkpt lat="42.31176" lon="0.33341">
        <ele>855.58</ele>
        <time>2021-08-02T11:02:58Z</time>
      </trkpt>
      <trkpt lat="42.31144" lon="0.33393">
        <ele>854.96</ele>
        <time>2021-08-02T11:03:05Z</time>
      </trkpt>
      <trkpt lat="42.31137" lon="0.33403">
        <ele>855.07</ele>
        <time>2021-08-02T11:03:06Z</time>
      </trkpt>
      <trkpt lat="42.31109" lon="0.33449">
        <ele>856.36</ele>
        <time>2021-08-02T11:03:10Z</time>
      </trkpt>
      <trkpt lat="42.31067" lon="0.33531">
        <ele>860.19</ele>
        <time>2021-08-02T11:03:17Z</time>
      </trkpt>
      <trkpt lat="42.31084" lon="0.33616">
        <ele>862.14</ele>
        <time>2021-08-02T11:03:22Z</time>
      </trkpt>
      <trkpt lat="42.31092" lon="0.3363">
        <ele>862.66</ele>
        <time>2021-08-02T11:03:23Z</time>
      </trkpt>
      <trkpt lat="42.31105" lon="0.33713">
        <ele>864.85</ele>
        <time>2021-08-02T11:03:29Z</time>
      </trkpt>
      <trkpt lat="42.31142" lon="0.33808">
        <ele>867.2</ele>
        <time>2021-08-02T11:03:36Z</time>
      </trkpt>
      <trkpt lat="42.31201" lon="0.33829">
        <ele>866.56</ele>
        <time>2021-08-02T11:03:42Z</time>
      </trkpt>
      <trkpt lat="42.31246" lon="0.33892">
        <ele>865.92</ele>
        <time>2021-08-02T11:03:48Z</time>
      </trkpt>
      <trkpt lat="42.31248" lon="0.33903">
        <ele>865.97</ele>
        <time>2021-08-02T11:03:49Z</time>
      </trkpt>
      <trkpt lat="42.31277" lon="0.33941">
        <ele>867.48</ele>
        <time>2021-08-02T11:03:54Z</time>
      </trkpt>
      <trkpt lat="42.31296" lon="0.33953">
        <ele>868.16</ele>
        <time>2021-08-02T11:03:56Z</time>
      </trkpt>
      <trkpt lat="42.3131" lon="0.33996">
        <ele>869.06</ele>
        <time>2021-08-02T11:04:00Z</time>
      </trkpt>
      <trkpt lat="42.31311" lon="0.34048">
        <ele>870.16</ele>
        <time>2021-08-02T11:04:04Z</time>
      </trkpt>
      <trkpt lat="42.31298" lon="0.34106">
        <ele>871.44</ele>
        <time>2021-08-02T11:04:08Z</time>
      </trkpt>
      <trkpt lat="42.31256" lon="0.34139">
        <ele>871.98</ele>
        <time>2021-08-02T11:04:13Z</time>
      </trkpt>
      <trkpt lat="42.31214" lon="0.34113">
        <ele>872.69</ele>
        <time>2021-08-02T11:04:17Z</time>
      </trkpt>
      <trkpt lat="42.31184" lon="0.34094">
        <ele>873.09</ele>
        <time>2021-08-02T11:04:22Z</time>
      </trkpt>
      <trkpt lat="42.31183" lon="0.34093">
        <ele>874.54</ele>
        <time>2021-08-02T11:04:35Z</time>
      </trkpt>
      <trkpt lat="42.3118" lon="0.34093">
        <ele>874.64</ele>
        <time>2021-08-02T11:04:38Z</time>
      </trkpt>
      <trkpt lat="42.31178" lon="0.34103">
        <ele>875.17</ele>
        <time>2021-08-02T11:04:51Z</time>
      </trkpt>
      <trkpt lat="42.31179" lon="0.34105">
        <ele>875.43</ele>
        <time>2021-08-02T11:05:15Z</time>
      </trkpt>
      <trkpt lat="42.31179" lon="0.34118">
        <ele>875.55</ele>
        <time>2021-08-02T11:05:57Z</time>
      </trkpt>
      <trkpt lat="42.31179" lon="0.34119">
        <ele>875.6</ele>
        <time>2021-08-02T11:05:58Z</time>
      </trkpt>
      <trkpt lat="42.3118" lon="0.3411">
        <ele>875.9</ele>
        <time>2021-08-02T11:06:11Z</time>
      </trkpt>
      <trkpt lat="42.31197" lon="0.34152">
        <ele>876.39</ele>
        <time>2021-08-02T11:06:24Z</time>
      </trkpt>
      <trkpt lat="42.31221" lon="0.34186">
        <ele>877.16</ele>
        <time>2021-08-02T11:06:33Z</time>
      </trkpt>
      <trkpt lat="42.31236" lon="0.34191">
        <ele>877.52</ele>
        <time>2021-08-02T11:06:37Z</time>
      </trkpt>
      <trkpt lat="42.31244" lon="0.3419">
        <ele>877.85</ele>
        <time>2021-08-02T11:06:39Z</time>
      </trkpt>
      <trkpt lat="42.31284" lon="0.34199">
        <ele>878.23</ele>
        <time>2021-08-02T11:06:47Z</time>
      </trkpt>
      <trkpt lat="42.31329" lon="0.34214">
        <ele>878.36</ele>
        <time>2021-08-02T11:06:55Z</time>
      </trkpt>
      <trkpt lat="42.31348" lon="0.34195">
        <ele>879.04</ele>
        <time>2021-08-02T11:07:03Z</time>
      </trkpt>
      <trkpt lat="42.31347" lon="0.34178">
        <ele>880.66</ele>
        <time>2021-08-02T11:07:13Z</time>
      </trkpt>
      <trkpt lat="42.31347" lon="0.34178">
        <ele>881.13</ele>
        <time>2021-08-02T11:07:36Z</time>
      </trkpt>
      <trkpt lat="42.31352" lon="0.34165">
        <ele>881.31</ele>
        <time>2021-08-02T11:07:40Z</time>
      </trkpt>
      <trkpt lat="42.31383" lon="0.3416">
        <ele>882.03</ele>
        <time>2021-08-02T11:07:48Z</time>
      </trkpt>
      <trkpt lat="42.31413" lon="0.34174">
        <ele>884.81</ele>
        <time>2021-08-02T11:08:01Z</time>
      </trkpt>
      <trkpt lat="42.31425" lon="0.34173">
        <ele>885.37</ele>
        <time>2021-08-02T11:08:04Z</time>
      </trkpt>
      <trkpt lat="42.31439" lon="0.34184">
        <ele>886.62</ele>
        <time>2021-08-02T11:08:08Z</time>
      </trkpt>
      <trkpt lat="42.31464" lon="0.34197">
        <ele>890.22</ele>
        <time>2021-08-02T11:08:18Z</time>
      </trkpt>
      <trkpt lat="42.31486" lon="0.34188">
        <ele>891.17</ele>
        <time>2021-08-02T11:08:27Z</time>
      </trkpt>
      <trkpt lat="42.31496" lon="0.3417">
        <ele>891.37</ele>
        <time>2021-08-02T11:08:31Z</time>
      </trkpt>
      <trkpt lat="42.31498" lon="0.34159">
        <ele>891.37</ele>
        <time>2021-08-02T11:08:33Z</time>
      </trkpt>
      <trkpt lat="42.31497" lon="0.34128">
        <ele>891.69</ele>
        <time>2021-08-02T11:08:38Z</time>
      </trkpt>
      <trkpt lat="42.31494" lon="0.3411">
        <ele>891.85</ele>
        <time>2021-08-02T11:08:41Z</time>
      </trkpt>
      <trkpt lat="42.31479" lon="0.3408">
        <ele>892.28</ele>
        <time>2021-08-02T11:08:46Z</time>
      </trkpt>
      <trkpt lat="42.31485" lon="0.34028">
        <ele>892.58</ele>
        <time>2021-08-02T11:08:53Z</time>
      </trkpt>
      <trkpt lat="42.31516" lon="0.34045">
        <ele>893.59</ele>
        <time>2021-08-02T11:08:59Z</time>
      </trkpt>
      <trkpt lat="42.31532" lon="0.34043">
        <ele>894.05</ele>
        <time>2021-08-02T11:09:03Z</time>
      </trkpt>
      <trkpt lat="42.31543" lon="0.34036">
        <ele>894.51</ele>
        <time>2021-08-02T11:09:06Z</time>
      </trkpt>
      <trkpt lat="42.31561" lon="0.34021">
        <ele>894.68</ele>
        <time>2021-08-02T11:09:10Z</time>
      </trkpt>
      <trkpt lat="42.31604" lon="0.33966">
        <ele>894.72</ele>
        <time>2021-08-02T11:09:23Z</time>
      </trkpt>
      <trkpt lat="42.3161" lon="0.3395">
        <ele>894.35</ele>
        <time>2021-08-02T11:09:27Z</time>
      </trkpt>
      <trkpt lat="42.3161" lon="0.33927">
        <ele>894.02</ele>
        <time>2021-08-02T11:09:31Z</time>
      </trkpt>
      <trkpt lat="42.31604" lon="0.33906">
        <ele>893.84</ele>
        <time>2021-08-02T11:09:35Z</time>
      </trkpt>
      <trkpt lat="42.31603" lon="0.33873">
        <ele>894.01</ele>
        <time>2021-08-02T11:09:40Z</time>
      </trkpt>
      <trkpt lat="42.31606" lon="0.33865">
        <ele>895.01</ele>
        <time>2021-08-02T11:09:50Z</time>
      </trkpt>
      <trkpt lat="42.31606" lon="0.33862">
        <ele>895.04</ele>
        <time>2021-08-02T11:09:53Z</time>
      </trkpt>
      <trkpt lat="42.31613" lon="0.33843">
        <ele>895.33</ele>
        <time>2021-08-02T11:09:58Z</time>
      </trkpt>
      <trkpt lat="42.31608" lon="0.33805">
        <ele>897.62</ele>
        <time>2021-08-02T11:10:07Z</time>
      </trkpt>
      <trkpt lat="42.31578" lon="0.33755">
        <ele>900.85</ele>
        <time>2021-08-02T11:10:19Z</time>
      </trkpt>
      <trkpt lat="42.31578" lon="0.33734">
        <ele>902.34</ele>
        <time>2021-08-02T11:10:23Z</time>
      </trkpt>
      <trkpt lat="42.31582" lon="0.33682">
        <ele>904.88</ele>
        <time>2021-08-02T11:10:32Z</time>
      </trkpt>
      <trkpt lat="42.31564" lon="0.33671">
        <ele>906.22</ele>
        <time>2021-08-02T11:10:39Z</time>
      </trkpt>
      <trkpt lat="42.31554" lon="0.33664">
        <ele>906.51</ele>
        <time>2021-08-02T11:10:41Z</time>
      </trkpt>
      <trkpt lat="42.31516" lon="0.33658">
        <ele>907.81</ele>
        <time>2021-08-02T11:10:47Z</time>
      </trkpt>
      <trkpt lat="42.31485" lon="0.33643">
        <ele>909.02</ele>
        <time>2021-08-02T11:10:59Z</time>
      </trkpt>
      <trkpt lat="42.31483" lon="0.3364">
        <ele>909.04</ele>
        <time>2021-08-02T11:11:00Z</time>
      </trkpt>
      <trkpt lat="42.31492" lon="0.33581">
        <ele>909.39</ele>
        <time>2021-08-02T11:11:08Z</time>
      </trkpt>
      <trkpt lat="42.31503" lon="0.3353">
        <ele>909.34</ele>
        <time>2021-08-02T11:11:14Z</time>
      </trkpt>
      <trkpt lat="42.31504" lon="0.33514">
        <ele>908.8</ele>
        <time>2021-08-02T11:11:16Z</time>
      </trkpt>
      <trkpt lat="42.31488" lon="0.33438">
        <ele>906.57</ele>
        <time>2021-08-02T11:11:25Z</time>
      </trkpt>
      <trkpt lat="42.31485" lon="0.33396">
        <ele>905.35</ele>
        <time>2021-08-02T11:11:30Z</time>
      </trkpt>
      <trkpt lat="42.31473" lon="0.33364">
        <ele>903.59</ele>
        <time>2021-08-02T11:11:35Z</time>
      </trkpt>
      <trkpt lat="42.31466" lon="0.33351">
        <ele>902.48</ele>
        <time>2021-08-02T11:11:37Z</time>
      </trkpt>
      <trkpt lat="42.31439" lon="0.3331">
        <ele>900.37</ele>
        <time>2021-08-02T11:11:44Z</time>
      </trkpt>
      <trkpt lat="42.31413" lon="0.33283">
        <ele>899.3</ele>
        <time>2021-08-02T11:11:48Z</time>
      </trkpt>
      <trkpt lat="42.31378" lon="0.33261">
        <ele>898.61</ele>
        <time>2021-08-02T11:11:53Z</time>
      </trkpt>
      <trkpt lat="42.31357" lon="0.33215">
        <ele>897.08</ele>
        <time>2021-08-02T11:12:00Z</time>
      </trkpt>
      <trkpt lat="42.31356" lon="0.33203">
        <ele>896.55</ele>
        <time>2021-08-02T11:12:02Z</time>
      </trkpt>
      <trkpt lat="42.31366" lon="0.33175">
        <ele>894.86</ele>
        <time>2021-08-02T11:12:08Z</time>
      </trkpt>
      <trkpt lat="42.31379" lon="0.33134">
        <ele>892.87</ele>
        <time>2021-08-02T11:12:14Z</time>
      </trkpt>
      <trkpt lat="42.31405" lon="0.33102">
        <ele>891.6</ele>
        <time>2021-08-02T11:12:20Z</time>
      </trkpt>
      <trkpt lat="42.31466" lon="0.33065">
        <ele>888.57</ele>
        <time>2021-08-02T11:12:35Z</time>
      </trkpt>
      <trkpt lat="42.31485" lon="0.33062">
        <ele>887.19</ele>
        <time>2021-08-02T11:12:46Z</time>
      </trkpt>
      <trkpt lat="42.31514" lon="0.3306">
        <ele>886.2</ele>
        <time>2021-08-02T11:12:56Z</time>
      </trkpt>
      <trkpt lat="42.31562" lon="0.33048">
        <ele>883.17</ele>
        <time>2021-08-02T11:13:10Z</time>
      </trkpt>
      <trkpt lat="42.3158" lon="0.33042">
        <ele>881.3</ele>
        <time>2021-08-02T11:13:15Z</time>
      </trkpt>
      <trkpt lat="42.31596" lon="0.33038">
        <ele>879.47</ele>
        <time>2021-08-02T11:13:21Z</time>
      </trkpt>
      <trkpt lat="42.31626" lon="0.33056">
        <ele>877.71</ele>
        <time>2021-08-02T11:13:31Z</time>
      </trkpt>
      <trkpt lat="42.31638" lon="0.33059">
        <ele>876.73</ele>
        <time>2021-08-02T11:13:36Z</time>
      </trkpt>
      <trkpt lat="42.31643" lon="0.33031">
        <ele>875.67</ele>
        <time>2021-08-02T11:13:43Z</time>
      </trkpt>
      <trkpt lat="42.3164" lon="0.33021">
        <ele>875.48</ele>
        <time>2021-08-02T11:13:45Z</time>
      </trkpt>
      <trkpt lat="42.31625" lon="0.32994">
        <ele>875.19</ele>
        <time>2021-08-02T11:13:51Z</time>
      </trkpt>
      <trkpt lat="42.31606" lon="0.32963">
        <ele>874.52</ele>
        <time>2021-08-02T11:13:58Z</time>
      </trkpt>
      <trkpt lat="42.31605" lon="0.32951">
        <ele>874.44</ele>
        <time>2021-08-02T11:14:00Z</time>
      </trkpt>
      <trkpt lat="42.31586" lon="0.32911">
        <ele>875.76</ele>
        <time>2021-08-02T11:14:11Z</time>
      </trkpt>
      <trkpt lat="42.31561" lon="0.32901">
        <ele>876.56</ele>
        <time>2021-08-02T11:14:17Z</time>
      </trkpt>
      <trkpt lat="42.31545" lon="0.32883">
        <ele>877.28</ele>
        <time>2021-08-02T11:14:21Z</time>
      </trkpt>
      <trkpt lat="42.31532" lon="0.32866">
        <ele>878.03</ele>
        <time>2021-08-02T11:14:26Z</time>
      </trkpt>
      <trkpt lat="42.31504" lon="0.32845">
        <ele>878.22</ele>
        <time>2021-08-02T11:14:36Z</time>
      </trkpt>
      <trkpt lat="42.31489" lon="0.3284">
        <ele>878.19</ele>
        <time>2021-08-02T11:14:40Z</time>
      </trkpt>
      <trkpt lat="42.31464" lon="0.32815">
        <ele>878.54</ele>
        <time>2021-08-02T11:14:45Z</time>
      </trkpt>
      <trkpt lat="42.31454" lon="0.32801">
        <ele>878.95</ele>
        <time>2021-08-02T11:14:47Z</time>
      </trkpt>
      <trkpt lat="42.31408" lon="0.32746">
        <ele>881.08</ele>
        <time>2021-08-02T11:14:54Z</time>
      </trkpt>
      <trkpt lat="42.3137" lon="0.32708">
        <ele>881.95</ele>
        <time>2021-08-02T11:15:00Z</time>
      </trkpt>
      <trkpt lat="42.31362" lon="0.32693">
        <ele>882.14</ele>
        <time>2021-08-02T11:15:02Z</time>
      </trkpt>
      <trkpt lat="42.3134" lon="0.32648">
        <ele>882.45</ele>
        <time>2021-08-02T11:15:10Z</time>
      </trkpt>
      <trkpt lat="42.31335" lon="0.3264">
        <ele>882.41</ele>
        <time>2021-08-02T11:15:12Z</time>
      </trkpt>
      <trkpt lat="42.3132" lon="0.32617">
        <ele>882.42</ele>
        <time>2021-08-02T11:15:16Z</time>
      </trkpt>
      <trkpt lat="42.31313" lon="0.32589">
        <ele>882.47</ele>
        <time>2021-08-02T11:15:21Z</time>
      </trkpt>
      <trkpt lat="42.31316" lon="0.32545">
        <ele>884.26</ele>
        <time>2021-08-02T11:15:33Z</time>
      </trkpt>
      <trkpt lat="42.31314" lon="0.32512">
        <ele>885.23</ele>
        <time>2021-08-02T11:15:37Z</time>
      </trkpt>
      <trkpt lat="42.31333" lon="0.32461">
        <ele>887.05</ele>
        <time>2021-08-02T11:15:44Z</time>
      </trkpt>
      <trkpt lat="42.3135" lon="0.32399">
        <ele>887.57</ele>
        <time>2021-08-02T11:15:54Z</time>
      </trkpt>
      <trkpt lat="42.3135" lon="0.32394">
        <ele>887.54</ele>
        <time>2021-08-02T11:15:55Z</time>
      </trkpt>
      <trkpt lat="42.31349" lon="0.32371">
        <ele>887.43</ele>
        <time>2021-08-02T11:15:59Z</time>
      </trkpt>
      <trkpt lat="42.31361" lon="0.32318">
        <ele>887.75</ele>
        <time>2021-08-02T11:16:08Z</time>
      </trkpt>
      <trkpt lat="42.31371" lon="0.32291">
        <ele>887.94</ele>
        <time>2021-08-02T11:16:12Z</time>
      </trkpt>
      <trkpt lat="42.31374" lon="0.32268">
        <ele>888.9</ele>
        <time>2021-08-02T11:16:16Z</time>
      </trkpt>
      <trkpt lat="42.3137" lon="0.3224">
        <ele>890.26</ele>
        <time>2021-08-02T11:16:20Z</time>
      </trkpt>
      <trkpt lat="42.31381" lon="0.32211">
        <ele>891.32</ele>
        <time>2021-08-02T11:16:24Z</time>
      </trkpt>
      <trkpt lat="42.31405" lon="0.3218">
        <ele>894.06</ele>
        <time>2021-08-02T11:16:32Z</time>
      </trkpt>
      <trkpt lat="42.31431" lon="0.32176">
        <ele>896.1</ele>
        <time>2021-08-02T11:16:37Z</time>
      </trkpt>
      <trkpt lat="42.31475" lon="0.32181">
        <ele>899.74</ele>
        <time>2021-08-02T11:16:46Z</time>
      </trkpt>
      <trkpt lat="42.31496" lon="0.32191">
        <ele>902.86</ele>
        <time>2021-08-02T11:16:53Z</time>
      </trkpt>
      <trkpt lat="42.315" lon="0.32192">
        <ele>903.24</ele>
        <time>2021-08-02T11:16:54Z</time>
      </trkpt>
      <trkpt lat="42.31539" lon="0.32212">
        <ele>906.98</ele>
        <time>2021-08-02T11:17:03Z</time>
      </trkpt>
      <trkpt lat="42.31564" lon="0.32234">
        <ele>910.26</ele>
        <time>2021-08-02T11:17:11Z</time>
      </trkpt>
      <trkpt lat="42.31582" lon="0.32246">
        <ele>913.58</ele>
        <time>2021-08-02T11:17:18Z</time>
      </trkpt>
      <trkpt lat="42.31606" lon="0.32265">
        <ele>916.91</ele>
        <time>2021-08-02T11:17:27Z</time>
      </trkpt>
      <trkpt lat="42.31621" lon="0.32273">
        <ele>918.6</ele>
        <time>2021-08-02T11:17:31Z</time>
      </trkpt>
      <trkpt lat="42.31655" lon="0.32294">
        <ele>922.17</ele>
        <time>2021-08-02T11:17:41Z</time>
      </trkpt>
      <trkpt lat="42.31669" lon="0.3231">
        <ele>924.12</ele>
        <time>2021-08-02T11:17:46Z</time>
      </trkpt>
      <trkpt lat="42.31677" lon="0.32324">
        <ele>925.08</ele>
        <time>2021-08-02T11:17:49Z</time>
      </trkpt>
      <trkpt lat="42.31682" lon="0.32341">
        <ele>927.01</ele>
        <time>2021-08-02T11:17:53Z</time>
      </trkpt>
      <trkpt lat="42.31699" lon="0.32382">
        <ele>930.39</ele>
        <time>2021-08-02T11:18:05Z</time>
      </trkpt>
      <trkpt lat="42.31711" lon="0.32406">
        <ele>933.26</ele>
        <time>2021-08-02T11:18:17Z</time>
      </trkpt>
      <trkpt lat="42.31737" lon="0.32406">
        <ele>934.85</ele>
        <time>2021-08-02T11:18:25Z</time>
      </trkpt>
      <trkpt lat="42.31766" lon="0.32397">
        <ele>936.27</ele>
        <time>2021-08-02T11:18:31Z</time>
      </trkpt>
      <trkpt lat="42.31796" lon="0.32413">
        <ele>937.77</ele>
        <time>2021-08-02T11:18:41Z</time>
      </trkpt>
      <trkpt lat="42.31799" lon="0.32418">
        <ele>937.97</ele>
        <time>2021-08-02T11:18:42Z</time>
      </trkpt>
      <trkpt lat="42.31806" lon="0.3244">
        <ele>939.39</ele>
        <time>2021-08-02T11:18:46Z</time>
      </trkpt>
      <trkpt lat="42.31804" lon="0.32487">
        <ele>942.82</ele>
        <time>2021-08-02T11:18:56Z</time>
      </trkpt>
      <trkpt lat="42.31793" lon="0.32529">
        <ele>945.89</ele>
        <time>2021-08-02T11:19:06Z</time>
      </trkpt>
      <trkpt lat="42.3179" lon="0.32542">
        <ele>946.47</ele>
        <time>2021-08-02T11:19:08Z</time>
      </trkpt>
      <trkpt lat="42.31772" lon="0.32595">
        <ele>948.93</ele>
        <time>2021-08-02T11:19:18Z</time>
      </trkpt>
      <trkpt lat="42.31767" lon="0.32622">
        <ele>950.11</ele>
        <time>2021-08-02T11:19:23Z</time>
      </trkpt>
      <trkpt lat="42.31791" lon="0.32693">
        <ele>952.41</ele>
        <time>2021-08-02T11:19:31Z</time>
      </trkpt>
      <trkpt lat="42.31807" lon="0.32682">
        <ele>954.07</ele>
        <time>2021-08-02T11:19:36Z</time>
      </trkpt>
      <trkpt lat="42.31807" lon="0.32678">
        <ele>954.41</ele>
        <time>2021-08-02T11:19:37Z</time>
      </trkpt>
      <trkpt lat="42.31832" lon="0.326">
        <ele>957.31</ele>
        <time>2021-08-02T11:19:46Z</time>
      </trkpt>
      <trkpt lat="42.31858" lon="0.32565">
        <ele>960.31</ele>
        <time>2021-08-02T11:19:56Z</time>
      </trkpt>
      <trkpt lat="42.31904" lon="0.32548">
        <ele>962.95</ele>
        <time>2021-08-02T11:20:06Z</time>
      </trkpt>
      <trkpt lat="42.31974" lon="0.32524">
        <ele>964.24</ele>
        <time>2021-08-02T11:20:17Z</time>
      </trkpt>
      <trkpt lat="42.32007" lon="0.32516">
        <ele>965.54</ele>
        <time>2021-08-02T11:20:22Z</time>
      </trkpt>
      <trkpt lat="42.32021" lon="0.32504">
        <ele>966.59</ele>
        <time>2021-08-02T11:20:26Z</time>
      </trkpt>
      <trkpt lat="42.32063" lon="0.32448">
        <ele>969.45</ele>
        <time>2021-08-02T11:20:35Z</time>
      </trkpt>
      <trkpt lat="42.32088" lon="0.32438">
        <ele>970.76</ele>
        <time>2021-08-02T11:20:42Z</time>
      </trkpt>
      <trkpt lat="42.32093" lon="0.32439">
        <ele>971.21</ele>
        <time>2021-08-02T11:20:44Z</time>
      </trkpt>
      <trkpt lat="42.32131" lon="0.32425">
        <ele>973.7</ele>
        <time>2021-08-02T11:20:54Z</time>
      </trkpt>
      <trkpt lat="42.32146" lon="0.32417">
        <ele>974.14</ele>
        <time>2021-08-02T11:20:56Z</time>
      </trkpt>
      <trkpt lat="42.32176" lon="0.32414">
        <ele>975.1</ele>
        <time>2021-08-02T11:21:00Z</time>
      </trkpt>
      <trkpt lat="42.32208" lon="0.32416">
        <ele>977.16</ele>
        <time>2021-08-02T11:21:05Z</time>
      </trkpt>
      <trkpt lat="42.32235" lon="0.32404">
        <ele>980.16</ele>
        <time>2021-08-02T11:21:10Z</time>
      </trkpt>
      <trkpt lat="42.3226" lon="0.32397">
        <ele>984.35</ele>
        <time>2021-08-02T11:21:17Z</time>
      </trkpt>
      <trkpt lat="42.32289" lon="0.32393">
        <ele>987.59</ele>
        <time>2021-08-02T11:21:24Z</time>
      </trkpt>
      <trkpt lat="42.32307" lon="0.32387">
        <ele>989.34</ele>
        <time>2021-08-02T11:21:27Z</time>
      </trkpt>
      <trkpt lat="42.32321" lon="0.32386">
        <ele>990.16</ele>
        <time>2021-08-02T11:21:29Z</time>
      </trkpt>
      <trkpt lat="42.32333" lon="0.3239">
        <ele>991.48</ele>
        <time>2021-08-02T11:21:31Z</time>
      </trkpt>
      <trkpt lat="42.32361" lon="0.32399">
        <ele>994.22</ele>
        <time>2021-08-02T11:21:37Z</time>
      </trkpt>
      <trkpt lat="42.32406" lon="0.324">
        <ele>998.11</ele>
        <time>2021-08-02T11:21:46Z</time>
      </trkpt>
      <trkpt lat="42.3242" lon="0.32384">
        <ele>1001.48</ele>
        <time>2021-08-02T11:21:54Z</time>
      </trkpt>
      <trkpt lat="42.32425" lon="0.32373">
        <ele>1003.04</ele>
        <time>2021-08-02T11:22:10Z</time>
      </trkpt>
      <trkpt lat="42.32417" lon="0.32341">
        <ele>1002.55</ele>
        <time>2021-08-02T11:22:17Z</time>
      </trkpt>
      <trkpt lat="42.32387" lon="0.32319">
        <ele>1001.82</ele>
        <time>2021-08-02T11:22:22Z</time>
      </trkpt>
      <trkpt lat="42.32374" lon="0.32316">
        <ele>1001.49</ele>
        <time>2021-08-02T11:22:24Z</time>
      </trkpt>
      <trkpt lat="42.32352" lon="0.32293">
        <ele>1000.88</ele>
        <time>2021-08-02T11:22:29Z</time>
      </trkpt>
      <trkpt lat="42.3229" lon="0.32235">
        <ele>998.83</ele>
        <time>2021-08-02T11:22:38Z</time>
      </trkpt>
      <trkpt lat="42.32272" lon="0.32214">
        <ele>998.15</ele>
        <time>2021-08-02T11:22:41Z</time>
      </trkpt>
      <trkpt lat="42.32261" lon="0.32203">
        <ele>997.82</ele>
        <time>2021-08-02T11:22:43Z</time>
      </trkpt>
      <trkpt lat="42.32236" lon="0.32128">
        <ele>996.51</ele>
        <time>2021-08-02T11:22:51Z</time>
      </trkpt>
      <trkpt lat="42.32205" lon="0.32043">
        <ele>995.46</ele>
        <time>2021-08-02T11:23:01Z</time>
      </trkpt>
      <trkpt lat="42.32194" lon="0.31986">
        <ele>995.01</ele>
        <time>2021-08-02T11:23:07Z</time>
      </trkpt>
      <trkpt lat="42.32186" lon="0.31962">
        <ele>995.13</ele>
        <time>2021-08-02T11:23:09Z</time>
      </trkpt>
      <trkpt lat="42.32152" lon="0.31899">
        <ele>995.35</ele>
        <time>2021-08-02T11:23:14Z</time>
      </trkpt>
      <trkpt lat="42.32104" lon="0.31819">
        <ele>993.71</ele>
        <time>2021-08-02T11:23:21Z</time>
      </trkpt>
      <trkpt lat="42.32089" lon="0.31774">
        <ele>992.3</ele>
        <time>2021-08-02T11:23:25Z</time>
      </trkpt>
      <trkpt lat="42.32063" lon="0.31732">
        <ele>990.69</ele>
        <time>2021-08-02T11:23:29Z</time>
      </trkpt>
      <trkpt lat="42.32011" lon="0.3168">
        <ele>988.49</ele>
        <time>2021-08-02T11:23:36Z</time>
      </trkpt>
      <trkpt lat="42.32003" lon="0.31656">
        <ele>987.93</ele>
        <time>2021-08-02T11:23:39Z</time>
      </trkpt>
      <trkpt lat="42.31954" lon="0.31563">
        <ele>985.65</ele>
        <time>2021-08-02T11:23:49Z</time>
      </trkpt>
      <trkpt lat="42.3194" lon="0.31542">
        <ele>984.42</ele>
        <time>2021-08-02T11:23:52Z</time>
      </trkpt>
      <trkpt lat="42.31922" lon="0.3151">
        <ele>982.63</ele>
        <time>2021-08-02T11:23:56Z</time>
      </trkpt>
      <trkpt lat="42.31906" lon="0.3149">
        <ele>981.28</ele>
        <time>2021-08-02T11:23:59Z</time>
      </trkpt>
      <trkpt lat="42.31887" lon="0.31466">
        <ele>979.8</ele>
        <time>2021-08-02T11:24:02Z</time>
      </trkpt>
      <trkpt lat="42.3181" lon="0.31413">
        <ele>976.76</ele>
        <time>2021-08-02T11:24:11Z</time>
      </trkpt>
      <trkpt lat="42.31781" lon="0.31401">
        <ele>976.48</ele>
        <time>2021-08-02T11:24:15Z</time>
      </trkpt>
      <trkpt lat="42.31755" lon="0.31375">
        <ele>977.11</ele>
        <time>2021-08-02T11:24:19Z</time>
      </trkpt>
      <trkpt lat="42.31729" lon="0.31335">
        <ele>978.78</ele>
        <time>2021-08-02T11:24:24Z</time>
      </trkpt>
      <trkpt lat="42.31712" lon="0.31271">
        <ele>979.83</ele>
        <time>2021-08-02T11:24:31Z</time>
      </trkpt>
      <trkpt lat="42.31691" lon="0.31186">
        <ele>979.68</ele>
        <time>2021-08-02T11:24:41Z</time>
      </trkpt>
      <trkpt lat="42.31659" lon="0.31132">
        <ele>982.02</ele>
        <time>2021-08-02T11:24:48Z</time>
      </trkpt>
      <trkpt lat="42.31617" lon="0.31114">
        <ele>984.79</ele>
        <time>2021-08-02T11:24:54Z</time>
      </trkpt>
      <trkpt lat="42.31592" lon="0.31101">
        <ele>986.06</ele>
        <time>2021-08-02T11:24:57Z</time>
      </trkpt>
      <trkpt lat="42.31578" lon="0.31087">
        <ele>986.78</ele>
        <time>2021-08-02T11:24:59Z</time>
      </trkpt>
      <trkpt lat="42.31572" lon="0.31078">
        <ele>987.1</ele>
        <time>2021-08-02T11:25:00Z</time>
      </trkpt>
      <trkpt lat="42.31568" lon="0.31068">
        <ele>987.51</ele>
        <time>2021-08-02T11:25:01Z</time>
      </trkpt>
      <trkpt lat="42.31566" lon="0.31058">
        <ele>987.99</ele>
        <time>2021-08-02T11:25:02Z</time>
      </trkpt>
      <trkpt lat="42.31564" lon="0.31049">
        <ele>988.47</ele>
        <time>2021-08-02T11:25:03Z</time>
      </trkpt>
      <trkpt lat="42.31543" lon="0.3098">
        <ele>991.91</ele>
        <time>2021-08-02T11:25:12Z</time>
      </trkpt>
      <trkpt lat="42.31539" lon="0.30964">
        <ele>992.86</ele>
        <time>2021-08-02T11:25:14Z</time>
      </trkpt>
      <trkpt lat="42.31531" lon="0.30946">
        <ele>993.59</ele>
        <time>2021-08-02T11:25:16Z</time>
      </trkpt>
      <trkpt lat="42.3148" lon="0.30854">
        <ele>995.13</ele>
        <time>2021-08-02T11:25:26Z</time>
      </trkpt>
      <trkpt lat="42.31419" lon="0.3081">
        <ele>996.37</ele>
        <time>2021-08-02T11:25:34Z</time>
      </trkpt>
      <trkpt lat="42.31384" lon="0.30794">
        <ele>997.16</ele>
        <time>2021-08-02T11:25:38Z</time>
      </trkpt>
      <trkpt lat="42.31335" lon="0.30762">
        <ele>1001.07</ele>
        <time>2021-08-02T11:25:46Z</time>
      </trkpt>
      <trkpt lat="42.31317" lon="0.30753">
        <ele>1002.87</ele>
        <time>2021-08-02T11:25:49Z</time>
      </trkpt>
      <trkpt lat="42.3129" lon="0.30713">
        <ele>1005.68</ele>
        <time>2021-08-02T11:25:55Z</time>
      </trkpt>
      <trkpt lat="42.31278" lon="0.30681">
        <ele>1006.54</ele>
        <time>2021-08-02T11:25:59Z</time>
      </trkpt>
      <trkpt lat="42.31245" lon="0.30653">
        <ele>1006.41</ele>
        <time>2021-08-02T11:26:04Z</time>
      </trkpt>
      <trkpt lat="42.31189" lon="0.30623">
        <ele>1005.55</ele>
        <time>2021-08-02T11:26:11Z</time>
      </trkpt>
      <trkpt lat="42.31156" lon="0.30588">
        <ele>1005.32</ele>
        <time>2021-08-02T11:26:15Z</time>
      </trkpt>
      <trkpt lat="42.31128" lon="0.30595">
        <ele>1006.24</ele>
        <time>2021-08-02T11:26:20Z</time>
      </trkpt>
      <trkpt lat="42.31124" lon="0.30618">
        <ele>1006.78</ele>
        <time>2021-08-02T11:26:22Z</time>
      </trkpt>
      <trkpt lat="42.31108" lon="0.30661">
        <ele>1008.93</ele>
        <time>2021-08-02T11:26:26Z</time>
      </trkpt>
      <trkpt lat="42.31101" lon="0.3067">
        <ele>1010.29</ele>
        <time>2021-08-02T11:26:27Z</time>
      </trkpt>
      <trkpt lat="42.31053" lon="0.30729">
        <ele>1014.24</ele>
        <time>2021-08-02T11:26:33Z</time>
      </trkpt>
      <trkpt lat="42.31039" lon="0.30744">
        <ele>1015.83</ele>
        <time>2021-08-02T11:26:35Z</time>
      </trkpt>
      <trkpt lat="42.31008" lon="0.30732">
        <ele>1019.84</ele>
        <time>2021-08-02T11:26:41Z</time>
      </trkpt>
      <trkpt lat="42.31015" lon="0.30699">
        <ele>1021.43</ele>
        <time>2021-08-02T11:26:44Z</time>
      </trkpt>
      <trkpt lat="42.31021" lon="0.30676">
        <ele>1022.43</ele>
        <time>2021-08-02T11:26:46Z</time>
      </trkpt>
      <trkpt lat="42.31003" lon="0.30655">
        <ele>1024.98</ele>
        <time>2021-08-02T11:26:52Z</time>
      </trkpt>
      <trkpt lat="42.30994" lon="0.30672">
        <ele>1025.52</ele>
        <time>2021-08-02T11:26:54Z</time>
      </trkpt>
      <trkpt lat="42.30975" lon="0.30716">
        <ele>1027.09</ele>
        <time>2021-08-02T11:26:58Z</time>
      </trkpt>
      <trkpt lat="42.30961" lon="0.30738">
        <ele>1028.15</ele>
        <time>2021-08-02T11:27:00Z</time>
      </trkpt>
      <trkpt lat="42.30911" lon="0.30788">
        <ele>1030.46</ele>
        <time>2021-08-02T11:27:07Z</time>
      </trkpt>
      <trkpt lat="42.30864" lon="0.30824">
        <ele>1033.05</ele>
        <time>2021-08-02T11:27:13Z</time>
      </trkpt>
      <trkpt lat="42.30822" lon="0.30846">
        <ele>1033.92</ele>
        <time>2021-08-02T11:27:18Z</time>
      </trkpt>
      <trkpt lat="42.30798" lon="0.30847">
        <ele>1034.59</ele>
        <time>2021-08-02T11:27:20Z</time>
      </trkpt>
      <trkpt lat="42.30704" lon="0.30901">
        <ele>1037.38</ele>
        <time>2021-08-02T11:27:29Z</time>
      </trkpt>
      <trkpt lat="42.30657" lon="0.30932">
        <ele>1038.15</ele>
        <time>2021-08-02T11:27:34Z</time>
      </trkpt>
      <trkpt lat="42.30628" lon="0.3099">
        <ele>1038.36</ele>
        <time>2021-08-02T11:27:40Z</time>
      </trkpt>
      <trkpt lat="42.30594" lon="0.31014">
        <ele>1038</ele>
        <time>2021-08-02T11:27:46Z</time>
      </trkpt>
      <trkpt lat="42.30579" lon="0.31001">
        <ele>1038.03</ele>
        <time>2021-08-02T11:27:48Z</time>
      </trkpt>
      <trkpt lat="42.30496" lon="0.30937">
        <ele>1037.69</ele>
        <time>2021-08-02T11:27:58Z</time>
      </trkpt>
      <trkpt lat="42.30421" lon="0.30878">
        <ele>1036.24</ele>
        <time>2021-08-02T11:28:06Z</time>
      </trkpt>
      <trkpt lat="42.30389" lon="0.30837">
        <ele>1035.5</ele>
        <time>2021-08-02T11:28:10Z</time>
      </trkpt>
      <trkpt lat="42.30368" lon="0.30755">
        <ele>1034.52</ele>
        <time>2021-08-02T11:28:16Z</time>
      </trkpt>
      <trkpt lat="42.30356" lon="0.30706">
        <ele>1033.26</ele>
        <time>2021-08-02T11:28:21Z</time>
      </trkpt>
      <trkpt lat="42.30369" lon="0.3069">
        <ele>1030.92</ele>
        <time>2021-08-02T11:28:26Z</time>
      </trkpt>
      <trkpt lat="42.30465" lon="0.30676">
        <ele>1027.01</ele>
        <time>2021-08-02T11:28:35Z</time>
      </trkpt>
      <trkpt lat="42.30509" lon="0.30668">
        <ele>1024.03</ele>
        <time>2021-08-02T11:28:39Z</time>
      </trkpt>
      <trkpt lat="42.30558" lon="0.30627">
        <ele>1020.17</ele>
        <time>2021-08-02T11:28:44Z</time>
      </trkpt>
      <trkpt lat="42.30574" lon="0.3061">
        <ele>1018.46</ele>
        <time>2021-08-02T11:28:46Z</time>
      </trkpt>
      <trkpt lat="42.30592" lon="0.30558">
        <ele>1014.03</ele>
        <time>2021-08-02T11:28:51Z</time>
      </trkpt>
      <trkpt lat="42.30586" lon="0.30481">
        <ele>1009.97</ele>
        <time>2021-08-02T11:28:56Z</time>
      </trkpt>
      <trkpt lat="42.30584" lon="0.30395">
        <ele>1007.5</ele>
        <time>2021-08-02T11:29:01Z</time>
      </trkpt>
      <trkpt lat="42.30604" lon="0.30334">
        <ele>1005.79</ele>
        <time>2021-08-02T11:29:05Z</time>
      </trkpt>
      <trkpt lat="42.30589" lon="0.30273">
        <ele>1003.76</ele>
        <time>2021-08-02T11:29:10Z</time>
      </trkpt>
      <trkpt lat="42.30556" lon="0.30199">
        <ele>1002.5</ele>
        <time>2021-08-02T11:29:15Z</time>
      </trkpt>
      <trkpt lat="42.30537" lon="0.30096">
        <ele>1001.54</ele>
        <time>2021-08-02T11:29:21Z</time>
      </trkpt>
      <trkpt lat="42.30559" lon="0.30024">
        <ele>999.6</ele>
        <time>2021-08-02T11:29:27Z</time>
      </trkpt>
      <trkpt lat="42.30581" lon="0.30008">
        <ele>998.82</ele>
        <time>2021-08-02T11:29:30Z</time>
      </trkpt>
      <trkpt lat="42.30615" lon="0.29973">
        <ele>998.29</ele>
        <time>2021-08-02T11:29:35Z</time>
      </trkpt>
      <trkpt lat="42.30618" lon="0.29934">
        <ele>997.82</ele>
        <time>2021-08-02T11:29:40Z</time>
      </trkpt>
      <trkpt lat="42.3059" lon="0.29885">
        <ele>997.83</ele>
        <time>2021-08-02T11:29:45Z</time>
      </trkpt>
      <trkpt lat="42.30583" lon="0.29877">
        <ele>998</ele>
        <time>2021-08-02T11:29:46Z</time>
      </trkpt>
      <trkpt lat="42.30485" lon="0.29767">
        <ele>998.4</ele>
        <time>2021-08-02T11:30:01Z</time>
      </trkpt>
      <trkpt lat="42.3048" lon="0.29759">
        <ele>998.39</ele>
        <time>2021-08-02T11:30:02Z</time>
      </trkpt>
      <trkpt lat="42.30475" lon="0.2972">
        <ele>998.14</ele>
        <time>2021-08-02T11:30:07Z</time>
      </trkpt>
      <trkpt lat="42.30504" lon="0.29725">
        <ele>997.92</ele>
        <time>2021-08-02T11:30:13Z</time>
      </trkpt>
      <trkpt lat="42.30552" lon="0.29753">
        <ele>997.88</ele>
        <time>2021-08-02T11:30:20Z</time>
      </trkpt>
      <trkpt lat="42.30671" lon="0.29746">
        <ele>996.98</ele>
        <time>2021-08-02T11:30:33Z</time>
      </trkpt>
      <trkpt lat="42.30712" lon="0.29728">
        <ele>996.71</ele>
        <time>2021-08-02T11:30:37Z</time>
      </trkpt>
      <trkpt lat="42.30737" lon="0.29701">
        <ele>996.34</ele>
        <time>2021-08-02T11:30:40Z</time>
      </trkpt>
      <trkpt lat="42.30751" lon="0.29635">
        <ele>996.19</ele>
        <time>2021-08-02T11:30:45Z</time>
      </trkpt>
      <trkpt lat="42.30755" lon="0.29564">
        <ele>995.99</ele>
        <time>2021-08-02T11:30:50Z</time>
      </trkpt>
      <trkpt lat="42.30777" lon="0.29522">
        <ele>995</ele>
        <time>2021-08-02T11:30:54Z</time>
      </trkpt>
      <trkpt lat="42.30841" lon="0.29494">
        <ele>992.11</ele>
        <time>2021-08-02T11:31:01Z</time>
      </trkpt>
      <trkpt lat="42.30899" lon="0.29511">
        <ele>988.14</ele>
        <time>2021-08-02T11:31:07Z</time>
      </trkpt>
      <trkpt lat="42.30908" lon="0.29519">
        <ele>987.31</ele>
        <time>2021-08-02T11:31:08Z</time>
      </trkpt>
      <trkpt lat="42.30958" lon="0.29577">
        <ele>983.2</ele>
        <time>2021-08-02T11:31:14Z</time>
      </trkpt>
      <trkpt lat="42.30966" lon="0.29586">
        <ele>982.74</ele>
        <time>2021-08-02T11:31:15Z</time>
      </trkpt>
      <trkpt lat="42.3101" lon="0.29587">
        <ele>980.6</ele>
        <time>2021-08-02T11:31:20Z</time>
      </trkpt>
      <trkpt lat="42.31042" lon="0.2956">
        <ele>979.51</ele>
        <time>2021-08-02T11:31:23Z</time>
      </trkpt>
      <trkpt lat="42.31098" lon="0.29538">
        <ele>977.16</ele>
        <time>2021-08-02T11:31:28Z</time>
      </trkpt>
      <trkpt lat="42.31137" lon="0.29538">
        <ele>975.97</ele>
        <time>2021-08-02T11:31:32Z</time>
      </trkpt>
      <trkpt lat="42.31168" lon="0.29518">
        <ele>975.01</ele>
        <time>2021-08-02T11:31:36Z</time>
      </trkpt>
      <trkpt lat="42.31204" lon="0.29477">
        <ele>973.56</ele>
        <time>2021-08-02T11:31:40Z</time>
      </trkpt>
      <trkpt lat="42.31224" lon="0.29412">
        <ele>970.67</ele>
        <time>2021-08-02T11:31:46Z</time>
      </trkpt>
      <trkpt lat="42.31216" lon="0.29343">
        <ele>969.34</ele>
        <time>2021-08-02T11:31:51Z</time>
      </trkpt>
      <trkpt lat="42.31173" lon="0.29287">
        <ele>967.58</ele>
        <time>2021-08-02T11:31:58Z</time>
      </trkpt>
      <trkpt lat="42.31147" lon="0.29333">
        <ele>964.12</ele>
        <time>2021-08-02T11:32:03Z</time>
      </trkpt>
      <trkpt lat="42.31129" lon="0.29393">
        <ele>960.72</ele>
        <time>2021-08-02T11:32:08Z</time>
      </trkpt>
      <trkpt lat="42.31101" lon="0.29394">
        <ele>958.84</ele>
        <time>2021-08-02T11:32:11Z</time>
      </trkpt>
      <trkpt lat="42.31045" lon="0.29407">
        <ele>957.06</ele>
        <time>2021-08-02T11:32:17Z</time>
      </trkpt>
      <trkpt lat="42.31017" lon="0.29397">
        <ele>952.99</ele>
        <time>2021-08-02T11:32:24Z</time>
      </trkpt>
      <trkpt lat="42.31031" lon="0.29377">
        <ele>951.56</ele>
        <time>2021-08-02T11:32:26Z</time>
      </trkpt>
      <trkpt lat="42.31047" lon="0.29355">
        <ele>950.66</ele>
        <time>2021-08-02T11:32:28Z</time>
      </trkpt>
      <trkpt lat="42.31101" lon="0.293">
        <ele>946.74</ele>
        <time>2021-08-02T11:32:35Z</time>
      </trkpt>
      <trkpt lat="42.31109" lon="0.29272">
        <ele>945.46</ele>
        <time>2021-08-02T11:32:37Z</time>
      </trkpt>
      <trkpt lat="42.31118" lon="0.29216">
        <ele>943.39</ele>
        <time>2021-08-02T11:32:41Z</time>
      </trkpt>
      <trkpt lat="42.31091" lon="0.29193">
        <ele>938.63</ele>
        <time>2021-08-02T11:32:46Z</time>
      </trkpt>
      <trkpt lat="42.31062" lon="0.29184">
        <ele>935.61</ele>
        <time>2021-08-02T11:32:50Z</time>
      </trkpt>
      <trkpt lat="42.31061" lon="0.29128">
        <ele>932.5</ele>
        <time>2021-08-02T11:32:54Z</time>
      </trkpt>
      <trkpt lat="42.31065" lon="0.29108">
        <ele>932.13</ele>
        <time>2021-08-02T11:32:55Z</time>
      </trkpt>
      <trkpt lat="42.31076" lon="0.29039">
        <ele>930.6</ele>
        <time>2021-08-02T11:33:00Z</time>
      </trkpt>
      <trkpt lat="42.31058" lon="0.29">
        <ele>928.65</ele>
        <time>2021-08-02T11:33:04Z</time>
      </trkpt>
      <trkpt lat="42.31009" lon="0.28977">
        <ele>927.62</ele>
        <time>2021-08-02T11:33:08Z</time>
      </trkpt>
      <trkpt lat="42.30963" lon="0.28985">
        <ele>926.9</ele>
        <time>2021-08-02T11:33:12Z</time>
      </trkpt>
      <trkpt lat="42.309" lon="0.28998">
        <ele>925.41</ele>
        <time>2021-08-02T11:33:17Z</time>
      </trkpt>
      <trkpt lat="42.30851" lon="0.28986">
        <ele>924.89</ele>
        <time>2021-08-02T11:33:21Z</time>
      </trkpt>
      <trkpt lat="42.30818" lon="0.28969">
        <ele>924.4</ele>
        <time>2021-08-02T11:33:24Z</time>
      </trkpt>
      <trkpt lat="42.30762" lon="0.28937">
        <ele>921.99</ele>
        <time>2021-08-02T11:33:30Z</time>
      </trkpt>
      <trkpt lat="42.30743" lon="0.28918">
        <ele>920.42</ele>
        <time>2021-08-02T11:33:33Z</time>
      </trkpt>
      <trkpt lat="42.30749" lon="0.28894">
        <ele>916.54</ele>
        <time>2021-08-02T11:33:39Z</time>
      </trkpt>
      <trkpt lat="42.30761" lon="0.28899">
        <ele>915.99</ele>
        <time>2021-08-02T11:33:40Z</time>
      </trkpt>
      <trkpt lat="42.3083" lon="0.28893">
        <ele>913.9</ele>
        <time>2021-08-02T11:33:46Z</time>
      </trkpt>
      <trkpt lat="42.30887" lon="0.28876">
        <ele>910.5</ele>
        <time>2021-08-02T11:33:51Z</time>
      </trkpt>
      <trkpt lat="42.30907" lon="0.28866">
        <ele>909.05</ele>
        <time>2021-08-02T11:33:53Z</time>
      </trkpt>
      <trkpt lat="42.30937" lon="0.2886">
        <ele>906.39</ele>
        <time>2021-08-02T11:33:56Z</time>
      </trkpt>
      <trkpt lat="42.30968" lon="0.28849">
        <ele>903.55</ele>
        <time>2021-08-02T11:33:59Z</time>
      </trkpt>
      <trkpt lat="42.3101" lon="0.2884">
        <ele>899.48</ele>
        <time>2021-08-02T11:34:03Z</time>
      </trkpt>
      <trkpt lat="42.3102" lon="0.28836">
        <ele>898.44</ele>
        <time>2021-08-02T11:34:04Z</time>
      </trkpt>
      <trkpt lat="42.31059" lon="0.28835">
        <ele>892.42</ele>
        <time>2021-08-02T11:34:09Z</time>
      </trkpt>
      <trkpt lat="42.31067" lon="0.28851">
        <ele>890.1</ele>
        <time>2021-08-02T11:34:11Z</time>
      </trkpt>
      <trkpt lat="42.31096" lon="0.28884">
        <ele>886.56</ele>
        <time>2021-08-02T11:34:16Z</time>
      </trkpt>
      <trkpt lat="42.31108" lon="0.28889">
        <ele>886.04</ele>
        <time>2021-08-02T11:34:18Z</time>
      </trkpt>
      <trkpt lat="42.31113" lon="0.28872">
        <ele>884.62</ele>
        <time>2021-08-02T11:34:24Z</time>
      </trkpt>
      <trkpt lat="42.31105" lon="0.28872">
        <ele>884.4</ele>
        <time>2021-08-02T11:34:25Z</time>
      </trkpt>
      <trkpt lat="42.31067" lon="0.28829">
        <ele>881.67</ele>
        <time>2021-08-02T11:34:31Z</time>
      </trkpt>
      <trkpt lat="42.31052" lon="0.28761">
        <ele>878.14</ele>
        <time>2021-08-02T11:34:36Z</time>
      </trkpt>
      <trkpt lat="42.31025" lon="0.28729">
        <ele>874.25</ele>
        <time>2021-08-02T11:34:40Z</time>
      </trkpt>
      <trkpt lat="42.31008" lon="0.28734">
        <ele>871.1</ele>
        <time>2021-08-02T11:34:42Z</time>
      </trkpt>
      <trkpt lat="42.30982" lon="0.28752">
        <ele>867.95</ele>
        <time>2021-08-02T11:34:45Z</time>
      </trkpt>
      <trkpt lat="42.30954" lon="0.28747">
        <ele>864.63</ele>
        <time>2021-08-02T11:34:48Z</time>
      </trkpt>
      <trkpt lat="42.30922" lon="0.28721">
        <ele>860.88</ele>
        <time>2021-08-02T11:34:52Z</time>
      </trkpt>
      <trkpt lat="42.30886" lon="0.28708">
        <ele>856.97</ele>
        <time>2021-08-02T11:34:56Z</time>
      </trkpt>
      <trkpt lat="42.30857" lon="0.2872">
        <ele>853.89</ele>
        <time>2021-08-02T11:34:59Z</time>
      </trkpt>
      <trkpt lat="42.30827" lon="0.28714">
        <ele>850.66</ele>
        <time>2021-08-02T11:35:02Z</time>
      </trkpt>
      <trkpt lat="42.30804" lon="0.28693">
        <ele>847.64</ele>
        <time>2021-08-02T11:35:05Z</time>
      </trkpt>
      <trkpt lat="42.30801" lon="0.28673">
        <ele>845.27</ele>
        <time>2021-08-02T11:35:07Z</time>
      </trkpt>
      <trkpt lat="42.30791" lon="0.28634">
        <ele>839.73</ele>
        <time>2021-08-02T11:35:12Z</time>
      </trkpt>
      <trkpt lat="42.30781" lon="0.28648">
        <ele>837.58</ele>
        <time>2021-08-02T11:35:14Z</time>
      </trkpt>
      <trkpt lat="42.30757" lon="0.28658">
        <ele>832.27</ele>
        <time>2021-08-02T11:35:19Z</time>
      </trkpt>
      <trkpt lat="42.30763" lon="0.2864">
        <ele>830.42</ele>
        <time>2021-08-02T11:35:21Z</time>
      </trkpt>
      <trkpt lat="42.30777" lon="0.28574">
        <ele>826.34</ele>
        <time>2021-08-02T11:35:26Z</time>
      </trkpt>
      <trkpt lat="42.30797" lon="0.28541">
        <ele>822.35</ele>
        <time>2021-08-02T11:35:30Z</time>
      </trkpt>
      <trkpt lat="42.30828" lon="0.28539">
        <ele>819.17</ele>
        <time>2021-08-02T11:35:33Z</time>
      </trkpt>
      <trkpt lat="42.30853" lon="0.28529">
        <ele>815.33</ele>
        <time>2021-08-02T11:35:37Z</time>
      </trkpt>
      <trkpt lat="42.30842" lon="0.2851">
        <ele>812.13</ele>
        <time>2021-08-02T11:35:40Z</time>
      </trkpt>
      <trkpt lat="42.30804" lon="0.28483">
        <ele>808.59</ele>
        <time>2021-08-02T11:35:44Z</time>
      </trkpt>
      <trkpt lat="42.30789" lon="0.28461">
        <ele>805.42</ele>
        <time>2021-08-02T11:35:48Z</time>
      </trkpt>
      <trkpt lat="42.30807" lon="0.28447">
        <ele>802.8</ele>
        <time>2021-08-02T11:35:51Z</time>
      </trkpt>
      <trkpt lat="42.30842" lon="0.28414">
        <ele>799.99</ele>
        <time>2021-08-02T11:35:55Z</time>
      </trkpt>
      <trkpt lat="42.30891" lon="0.28364">
        <ele>796.78</ele>
        <time>2021-08-02T11:36:00Z</time>
      </trkpt>
      <trkpt lat="42.30903" lon="0.28283">
        <ele>792.91</ele>
        <time>2021-08-02T11:36:05Z</time>
      </trkpt>
      <trkpt lat="42.3089" lon="0.28173">
        <ele>789.17</ele>
        <time>2021-08-02T11:36:10Z</time>
      </trkpt>
      <trkpt lat="42.30887" lon="0.28154">
        <ele>788.21</ele>
        <time>2021-08-02T11:36:11Z</time>
      </trkpt>
      <trkpt lat="42.30861" lon="0.28094">
        <ele>783.94</ele>
        <time>2021-08-02T11:36:15Z</time>
      </trkpt>
      <trkpt lat="42.30851" lon="0.28083">
        <ele>782.83</ele>
        <time>2021-08-02T11:36:16Z</time>
      </trkpt>
      <trkpt lat="42.30809" lon="0.28041">
        <ele>779.56</ele>
        <time>2021-08-02T11:36:20Z</time>
      </trkpt>
      <trkpt lat="42.30734" lon="0.28022">
        <ele>775.47</ele>
        <time>2021-08-02T11:36:26Z</time>
      </trkpt>
      <trkpt lat="42.30685" lon="0.2799">
        <ele>773.14</ele>
        <time>2021-08-02T11:36:31Z</time>
      </trkpt>
      <trkpt lat="42.30644" lon="0.27943">
        <ele>772.5</ele>
        <time>2021-08-02T11:36:35Z</time>
      </trkpt>
      <trkpt lat="42.30583" lon="0.27898">
        <ele>771.34</ele>
        <time>2021-08-02T11:36:41Z</time>
      </trkpt>
      <trkpt lat="42.30564" lon="0.27876">
        <ele>770.92</ele>
        <time>2021-08-02T11:36:43Z</time>
      </trkpt>
      <trkpt lat="42.30519" lon="0.27836">
        <ele>770.71</ele>
        <time>2021-08-02T11:36:47Z</time>
      </trkpt>
      <trkpt lat="42.30486" lon="0.27815">
        <ele>771.17</ele>
        <time>2021-08-02T11:36:50Z</time>
      </trkpt>
      <trkpt lat="42.30396" lon="0.27714">
        <ele>771.98</ele>
        <time>2021-08-02T11:37:00Z</time>
      </trkpt>
      <trkpt lat="42.30387" lon="0.27706">
        <ele>772.05</ele>
        <time>2021-08-02T11:37:01Z</time>
      </trkpt>
      <trkpt lat="42.303" lon="0.27589">
        <ele>774.73</ele>
        <time>2021-08-02T11:37:13Z</time>
      </trkpt>
      <trkpt lat="42.30295" lon="0.27582">
        <ele>775.02</ele>
        <time>2021-08-02T11:37:14Z</time>
      </trkpt>
      <trkpt lat="42.30273" lon="0.2757">
        <ele>776.12</ele>
        <time>2021-08-02T11:37:18Z</time>
      </trkpt>
      <trkpt lat="42.30255" lon="0.2757">
        <ele>776.98</ele>
        <time>2021-08-02T11:37:23Z</time>
      </trkpt>
      <trkpt lat="42.30206" lon="0.27551">
        <ele>778.16</ele>
        <time>2021-08-02T11:37:31Z</time>
      </trkpt>
      <trkpt lat="42.3019" lon="0.275">
        <ele>776.43</ele>
        <time>2021-08-02T11:37:38Z</time>
      </trkpt>
      <trkpt lat="42.30191" lon="0.27488">
        <ele>776.04</ele>
        <time>2021-08-02T11:37:39Z</time>
      </trkpt>
      <trkpt lat="42.30203" lon="0.27414">
        <ele>773.11</ele>
        <time>2021-08-02T11:37:45Z</time>
      </trkpt>
      <trkpt lat="42.30184" lon="0.2736">
        <ele>769.92</ele>
        <time>2021-08-02T11:37:50Z</time>
      </trkpt>
      <trkpt lat="42.30149" lon="0.27305">
        <ele>765.5</ele>
        <time>2021-08-02T11:37:56Z</time>
      </trkpt>
      <trkpt lat="42.30109" lon="0.27266">
        <ele>761</ele>
        <time>2021-08-02T11:38:01Z</time>
      </trkpt>
      <trkpt lat="42.30077" lon="0.2722">
        <ele>757.35</ele>
        <time>2021-08-02T11:38:05Z</time>
      </trkpt>
      <trkpt lat="42.3004" lon="0.27187">
        <ele>752.27</ele>
        <time>2021-08-02T11:38:09Z</time>
      </trkpt>
      <trkpt lat="42.30023" lon="0.27174">
        <ele>749.45</ele>
        <time>2021-08-02T11:38:11Z</time>
      </trkpt>
      <trkpt lat="42.3001" lon="0.27152">
        <ele>744.8</ele>
        <time>2021-08-02T11:38:14Z</time>
      </trkpt>
      <trkpt lat="42.30009" lon="0.27141">
        <ele>743.33</ele>
        <time>2021-08-02T11:38:15Z</time>
      </trkpt>
      <trkpt lat="42.30005" lon="0.27089">
        <ele>738.22</ele>
        <time>2021-08-02T11:38:19Z</time>
      </trkpt>
      <trkpt lat="42.30001" lon="0.27035">
        <ele>734.35</ele>
        <time>2021-08-02T11:38:23Z</time>
      </trkpt>
      <trkpt lat="42.3" lon="0.26981">
        <ele>731.31</ele>
        <time>2021-08-02T11:38:27Z</time>
      </trkpt>
      <trkpt lat="42.3001" lon="0.26882">
        <ele>727.92</ele>
        <time>2021-08-02T11:38:33Z</time>
      </trkpt>
      <trkpt lat="42.3002" lon="0.26778">
        <ele>724.36</ele>
        <time>2021-08-02T11:38:39Z</time>
      </trkpt>
      <trkpt lat="42.3002" lon="0.26745">
        <ele>723.24</ele>
        <time>2021-08-02T11:38:41Z</time>
      </trkpt>
      <trkpt lat="42.30056" lon="0.26629">
        <ele>721.01</ele>
        <time>2021-08-02T11:38:49Z</time>
      </trkpt>
      <trkpt lat="42.30097" lon="0.26597">
        <ele>722.09</ele>
        <time>2021-08-02T11:38:53Z</time>
      </trkpt>
      <trkpt lat="42.30154" lon="0.26504">
        <ele>724.1</ele>
        <time>2021-08-02T11:39:00Z</time>
      </trkpt>
      <trkpt lat="42.30174" lon="0.26445">
        <ele>724.47</ele>
        <time>2021-08-02T11:39:05Z</time>
      </trkpt>
      <trkpt lat="42.30203" lon="0.2642">
        <ele>724.88</ele>
        <time>2021-08-02T11:39:08Z</time>
      </trkpt>
      <trkpt lat="42.30273" lon="0.26346">
        <ele>728.48</ele>
        <time>2021-08-02T11:39:15Z</time>
      </trkpt>
      <trkpt lat="42.30324" lon="0.26263">
        <ele>730.02</ele>
        <time>2021-08-02T11:39:21Z</time>
      </trkpt>
      <trkpt lat="42.30334" lon="0.26232">
        <ele>730.21</ele>
        <time>2021-08-02T11:39:23Z</time>
      </trkpt>
      <trkpt lat="42.30389" lon="0.26173">
        <ele>730.64</ele>
        <time>2021-08-02T11:39:29Z</time>
      </trkpt>
      <trkpt lat="42.30515" lon="0.26115">
        <ele>734.21</ele>
        <time>2021-08-02T11:39:38Z</time>
      </trkpt>
      <trkpt lat="42.30568" lon="0.26084">
        <ele>737.53</ele>
        <time>2021-08-02T11:39:42Z</time>
      </trkpt>
      <trkpt lat="42.30602" lon="0.26047">
        <ele>738.77</ele>
        <time>2021-08-02T11:39:45Z</time>
      </trkpt>
      <trkpt lat="42.30642" lon="0.2599">
        <ele>739.57</ele>
        <time>2021-08-02T11:39:49Z</time>
      </trkpt>
      <trkpt lat="42.3074" lon="0.25908">
        <ele>742.65</ele>
        <time>2021-08-02T11:39:58Z</time>
      </trkpt>
      <trkpt lat="42.30802" lon="0.25928">
        <ele>744.08</ele>
        <time>2021-08-02T11:40:04Z</time>
      </trkpt>
      <trkpt lat="42.30819" lon="0.25985">
        <ele>743.34</ele>
        <time>2021-08-02T11:40:09Z</time>
      </trkpt>
      <trkpt lat="42.30846" lon="0.25969">
        <ele>741.88</ele>
        <time>2021-08-02T11:40:13Z</time>
      </trkpt>
      <trkpt lat="42.30863" lon="0.25871">
        <ele>741.98</ele>
        <time>2021-08-02T11:40:19Z</time>
      </trkpt>
      <trkpt lat="42.30873" lon="0.25838">
        <ele>742.74</ele>
        <time>2021-08-02T11:40:21Z</time>
      </trkpt>
      <trkpt lat="42.30944" lon="0.25812">
        <ele>743.7</ele>
        <time>2021-08-02T11:40:28Z</time>
      </trkpt>
      <trkpt lat="42.30979" lon="0.25801">
        <ele>743.75</ele>
        <time>2021-08-02T11:40:31Z</time>
      </trkpt>
      <trkpt lat="42.31043" lon="0.25812">
        <ele>742.2</ele>
        <time>2021-08-02T11:40:37Z</time>
      </trkpt>
      <trkpt lat="42.31074" lon="0.25793">
        <ele>739.93</ele>
        <time>2021-08-02T11:40:41Z</time>
      </trkpt>
      <trkpt lat="42.31054" lon="0.25747">
        <ele>738.31</ele>
        <time>2021-08-02T11:40:45Z</time>
      </trkpt>
      <trkpt lat="42.31037" lon="0.25726">
        <ele>737.98</ele>
        <time>2021-08-02T11:40:47Z</time>
      </trkpt>
      <trkpt lat="42.31021" lon="0.25691">
        <ele>738.02</ele>
        <time>2021-08-02T11:40:50Z</time>
      </trkpt>
      <trkpt lat="42.30983" lon="0.25682">
        <ele>738.62</ele>
        <time>2021-08-02T11:40:55Z</time>
      </trkpt>
      <trkpt lat="42.30949" lon="0.25629">
        <ele>739.78</ele>
        <time>2021-08-02T11:41:00Z</time>
      </trkpt>
      <trkpt lat="42.30941" lon="0.25595">
        <ele>740.69</ele>
        <time>2021-08-02T11:41:02Z</time>
      </trkpt>
      <trkpt lat="42.30908" lon="0.25548">
        <ele>741.27</ele>
        <time>2021-08-02T11:41:06Z</time>
      </trkpt>
      <trkpt lat="42.30886" lon="0.25531">
        <ele>741.03</ele>
        <time>2021-08-02T11:41:08Z</time>
      </trkpt>
      <trkpt lat="42.30877" lon="0.25486">
        <ele>738.72</ele>
        <time>2021-08-02T11:41:12Z</time>
      </trkpt>
      <trkpt lat="42.3087" lon="0.25459">
        <ele>735.11</ele>
        <time>2021-08-02T11:41:16Z</time>
      </trkpt>
      <trkpt lat="42.30862" lon="0.25459">
        <ele>734.43</ele>
        <time>2021-08-02T11:41:17Z</time>
      </trkpt>
      <trkpt lat="42.30842" lon="0.25461">
        <ele>732.83</ele>
        <time>2021-08-02T11:41:19Z</time>
      </trkpt>
      <trkpt lat="42.3082" lon="0.25455">
        <ele>732.17</ele>
        <time>2021-08-02T11:41:21Z</time>
      </trkpt>
      <trkpt lat="42.30796" lon="0.25388">
        <ele>731.17</ele>
        <time>2021-08-02T11:41:26Z</time>
      </trkpt>
      <trkpt lat="42.30777" lon="0.25329">
        <ele>730.74</ele>
        <time>2021-08-02T11:41:31Z</time>
      </trkpt>
      <trkpt lat="42.30689" lon="0.25206">
        <ele>733.5</ele>
        <time>2021-08-02T11:41:39Z</time>
      </trkpt>
      <trkpt lat="42.30666" lon="0.25173">
        <ele>735.06</ele>
        <time>2021-08-02T11:41:41Z</time>
      </trkpt>
      <trkpt lat="42.30622" lon="0.25115">
        <ele>737.4</ele>
        <time>2021-08-02T11:41:47Z</time>
      </trkpt>
      <trkpt lat="42.30633" lon="0.25095">
        <ele>737.08</ele>
        <time>2021-08-02T11:41:49Z</time>
      </trkpt>
      <trkpt lat="42.30688" lon="0.2503">
        <ele>735.96</ele>
        <time>2021-08-02T11:41:54Z</time>
      </trkpt>
      <trkpt lat="42.30728" lon="0.25021">
        <ele>732.97</ele>
        <time>2021-08-02T11:41:58Z</time>
      </trkpt>
      <trkpt lat="42.30748" lon="0.24986">
        <ele>728.55</ele>
        <time>2021-08-02T11:42:03Z</time>
      </trkpt>
      <trkpt lat="42.30702" lon="0.24953">
        <ele>726.95</ele>
        <time>2021-08-02T11:42:07Z</time>
      </trkpt>
      <trkpt lat="42.30687" lon="0.24949">
        <ele>726.86</ele>
        <time>2021-08-02T11:42:08Z</time>
      </trkpt>
      <trkpt lat="42.30629" lon="0.24934">
        <ele>726.92</ele>
        <time>2021-08-02T11:42:12Z</time>
      </trkpt>
      <trkpt lat="42.30583" lon="0.24853">
        <ele>728.55</ele>
        <time>2021-08-02T11:42:18Z</time>
      </trkpt>
      <trkpt lat="42.30583" lon="0.24834">
        <ele>729.18</ele>
        <time>2021-08-02T11:42:19Z</time>
      </trkpt>
      <trkpt lat="42.30591" lon="0.24738">
        <ele>733.56</ele>
        <time>2021-08-02T11:42:24Z</time>
      </trkpt>
      <trkpt lat="42.30632" lon="0.24665">
        <ele>738.34</ele>
        <time>2021-08-02T11:42:29Z</time>
      </trkpt>
      <trkpt lat="42.30672" lon="0.24659">
        <ele>741.21</ele>
        <time>2021-08-02T11:42:32Z</time>
      </trkpt>
      <trkpt lat="42.30724" lon="0.24667">
        <ele>745.69</ele>
        <time>2021-08-02T11:42:36Z</time>
      </trkpt>
      <trkpt lat="42.30763" lon="0.24672">
        <ele>749.58</ele>
        <time>2021-08-02T11:42:39Z</time>
      </trkpt>
      <trkpt lat="42.30788" lon="0.24675">
        <ele>751.91</ele>
        <time>2021-08-02T11:42:41Z</time>
      </trkpt>
      <trkpt lat="42.30862" lon="0.24669">
        <ele>756.4</ele>
        <time>2021-08-02T11:42:46Z</time>
      </trkpt>
      <trkpt lat="42.30935" lon="0.24642">
        <ele>759.64</ele>
        <time>2021-08-02T11:42:51Z</time>
      </trkpt>
      <trkpt lat="42.30959" lon="0.24632">
        <ele>760.46</ele>
        <time>2021-08-02T11:42:53Z</time>
      </trkpt>
      <trkpt lat="42.30996" lon="0.24564">
        <ele>761.57</ele>
        <time>2021-08-02T11:42:59Z</time>
      </trkpt>
      <trkpt lat="42.3098" lon="0.24533">
        <ele>761.77</ele>
        <time>2021-08-02T11:43:01Z</time>
      </trkpt>
      <trkpt lat="42.30923" lon="0.24443">
        <ele>764.63</ele>
        <time>2021-08-02T11:43:07Z</time>
      </trkpt>
      <trkpt lat="42.30927" lon="0.24383">
        <ele>767.39</ele>
        <time>2021-08-02T11:43:12Z</time>
      </trkpt>
      <trkpt lat="42.30989" lon="0.24316">
        <ele>771.73</ele>
        <time>2021-08-02T11:43:18Z</time>
      </trkpt>
      <trkpt lat="42.31048" lon="0.24278">
        <ele>774.82</ele>
        <time>2021-08-02T11:43:22Z</time>
      </trkpt>
      <trkpt lat="42.31118" lon="0.24274">
        <ele>777</ele>
        <time>2021-08-02T11:43:27Z</time>
      </trkpt>
      <trkpt lat="42.31187" lon="0.24283">
        <ele>778.03</ele>
        <time>2021-08-02T11:43:32Z</time>
      </trkpt>
      <trkpt lat="42.31284" lon="0.24306">
        <ele>778.13</ele>
        <time>2021-08-02T11:43:40Z</time>
      </trkpt>
      <trkpt lat="42.31321" lon="0.24289">
        <ele>776.19</ele>
        <time>2021-08-02T11:43:46Z</time>
      </trkpt>
      <trkpt lat="42.31318" lon="0.24267">
        <ele>774.44</ele>
        <time>2021-08-02T11:43:49Z</time>
      </trkpt>
      <trkpt lat="42.31299" lon="0.24149">
        <ele>773.31</ele>
        <time>2021-08-02T11:43:57Z</time>
      </trkpt>
      <trkpt lat="42.31251" lon="0.24059">
        <ele>774.99</ele>
        <time>2021-08-02T11:44:03Z</time>
      </trkpt>
      <trkpt lat="42.31236" lon="0.23986">
        <ele>776.52</ele>
        <time>2021-08-02T11:44:07Z</time>
      </trkpt>
      <trkpt lat="42.31187" lon="0.2389">
        <ele>777.45</ele>
        <time>2021-08-02T11:44:13Z</time>
      </trkpt>
      <trkpt lat="42.3117" lon="0.23885">
        <ele>777.47</ele>
        <time>2021-08-02T11:44:14Z</time>
      </trkpt>
      <trkpt lat="42.31103" lon="0.23867">
        <ele>777.63</ele>
        <time>2021-08-02T11:44:18Z</time>
      </trkpt>
      <trkpt lat="42.31052" lon="0.2382">
        <ele>777.52</ele>
        <time>2021-08-02T11:44:22Z</time>
      </trkpt>
      <trkpt lat="42.3103" lon="0.23792">
        <ele>777.14</ele>
        <time>2021-08-02T11:44:24Z</time>
      </trkpt>
      <trkpt lat="42.30975" lon="0.23762">
        <ele>775.82</ele>
        <time>2021-08-02T11:44:28Z</time>
      </trkpt>
      <trkpt lat="42.30846" lon="0.23727">
        <ele>773.88</ele>
        <time>2021-08-02T11:44:35Z</time>
      </trkpt>
      <trkpt lat="42.30748" lon="0.23749">
        <ele>769.07</ele>
        <time>2021-08-02T11:44:40Z</time>
      </trkpt>
      <trkpt lat="42.30731" lon="0.23763">
        <ele>767.73</ele>
        <time>2021-08-02T11:44:41Z</time>
      </trkpt>
      <trkpt lat="42.30681" lon="0.23811">
        <ele>763.03</ele>
        <time>2021-08-02T11:44:44Z</time>
      </trkpt>
      <trkpt lat="42.30662" lon="0.23825">
        <ele>761.3</ele>
        <time>2021-08-02T11:44:45Z</time>
      </trkpt>
      <trkpt lat="42.30601" lon="0.23854">
        <ele>756.14</ele>
        <time>2021-08-02T11:44:48Z</time>
      </trkpt>
      <trkpt lat="42.30557" lon="0.23856">
        <ele>753.22</ele>
        <time>2021-08-02T11:44:50Z</time>
      </trkpt>
      <trkpt lat="42.3049" lon="0.23845">
        <ele>748.35</ele>
        <time>2021-08-02T11:44:53Z</time>
      </trkpt>
      <trkpt lat="42.30446" lon="0.2384">
        <ele>744.59</ele>
        <time>2021-08-02T11:44:55Z</time>
      </trkpt>
      <trkpt lat="42.30402" lon="0.23836">
        <ele>740.36</ele>
        <time>2021-08-02T11:44:57Z</time>
      </trkpt>
      <trkpt lat="42.30347" lon="0.23813">
        <ele>733.99</ele>
        <time>2021-08-02T11:45:00Z</time>
      </trkpt>
      <trkpt lat="42.30332" lon="0.238">
        <ele>731.94</ele>
        <time>2021-08-02T11:45:01Z</time>
      </trkpt>
      <trkpt lat="42.30303" lon="0.23774">
        <ele>727.87</ele>
        <time>2021-08-02T11:45:03Z</time>
      </trkpt>
      <trkpt lat="42.30252" lon="0.23758">
        <ele>722.69</ele>
        <time>2021-08-02T11:45:06Z</time>
      </trkpt>
      <trkpt lat="42.30218" lon="0.23768">
        <ele>719.58</ele>
        <time>2021-08-02T11:45:08Z</time>
      </trkpt>
      <trkpt lat="42.30202" lon="0.23778">
        <ele>718.07</ele>
        <time>2021-08-02T11:45:09Z</time>
      </trkpt>
      <trkpt lat="42.30147" lon="0.23816">
        <ele>713.18</ele>
        <time>2021-08-02T11:45:13Z</time>
      </trkpt>
      <trkpt lat="42.30082" lon="0.23821">
        <ele>708.81</ele>
        <time>2021-08-02T11:45:17Z</time>
      </trkpt>
      <trkpt lat="42.30009" lon="0.23839">
        <ele>704.96</ele>
        <time>2021-08-02T11:45:21Z</time>
      </trkpt>
      <trkpt lat="42.29958" lon="0.23871">
        <ele>703.02</ele>
        <time>2021-08-02T11:45:24Z</time>
      </trkpt>
      <trkpt lat="42.29845" lon="0.23875">
        <ele>705.19</ele>
        <time>2021-08-02T11:45:30Z</time>
      </trkpt>
      <trkpt lat="42.29752" lon="0.23833">
        <ele>709.46</ele>
        <time>2021-08-02T11:45:35Z</time>
      </trkpt>
      <trkpt lat="42.29719" lon="0.23819">
        <ele>711.3</ele>
        <time>2021-08-02T11:45:37Z</time>
      </trkpt>
      <trkpt lat="42.29658" lon="0.23827">
        <ele>713.91</ele>
        <time>2021-08-02T11:45:41Z</time>
      </trkpt>
      <trkpt lat="42.29566" lon="0.23847">
        <ele>715.34</ele>
        <time>2021-08-02T11:45:47Z</time>
      </trkpt>
      <trkpt lat="42.29522" lon="0.23804">
        <ele>715.47</ele>
        <time>2021-08-02T11:45:50Z</time>
      </trkpt>
      <trkpt lat="42.29478" lon="0.23751">
        <ele>715.01</ele>
        <time>2021-08-02T11:45:53Z</time>
      </trkpt>
      <trkpt lat="42.29383" lon="0.23703">
        <ele>711.97</ele>
        <time>2021-08-02T11:45:58Z</time>
      </trkpt>
      <trkpt lat="42.29318" lon="0.23689">
        <ele>707.59</ele>
        <time>2021-08-02T11:46:01Z</time>
      </trkpt>
      <trkpt lat="42.29277" lon="0.23677">
        <ele>703.94</ele>
        <time>2021-08-02T11:46:03Z</time>
      </trkpt>
      <trkpt lat="42.2924" lon="0.23665">
        <ele>700.68</ele>
        <time>2021-08-02T11:46:05Z</time>
      </trkpt>
      <trkpt lat="42.2919" lon="0.2363">
        <ele>696.18</ele>
        <time>2021-08-02T11:46:08Z</time>
      </trkpt>
      <trkpt lat="42.29152" lon="0.23566">
        <ele>691.87</ele>
        <time>2021-08-02T11:46:11Z</time>
      </trkpt>
      <trkpt lat="42.29142" lon="0.23543">
        <ele>690.29</ele>
        <time>2021-08-02T11:46:12Z</time>
      </trkpt>
      <trkpt lat="42.29115" lon="0.23471">
        <ele>683.08</ele>
        <time>2021-08-02T11:46:15Z</time>
      </trkpt>
      <trkpt lat="42.29108" lon="0.23446">
        <ele>681.33</ele>
        <time>2021-08-02T11:46:16Z</time>
      </trkpt>
      <trkpt lat="42.29095" lon="0.23365">
        <ele>675.64</ele>
        <time>2021-08-02T11:46:19Z</time>
      </trkpt>
      <trkpt lat="42.29093" lon="0.23311">
        <ele>671.32</ele>
        <time>2021-08-02T11:46:21Z</time>
      </trkpt>
      <trkpt lat="42.29092" lon="0.23257">
        <ele>666.68</ele>
        <time>2021-08-02T11:46:23Z</time>
      </trkpt>
      <trkpt lat="42.2909" lon="0.23201">
        <ele>662.27</ele>
        <time>2021-08-02T11:46:25Z</time>
      </trkpt>
      <trkpt lat="42.29091" lon="0.23144">
        <ele>658.14</ele>
        <time>2021-08-02T11:46:27Z</time>
      </trkpt>
      <trkpt lat="42.2909" lon="0.23091">
        <ele>654.4</ele>
        <time>2021-08-02T11:46:29Z</time>
      </trkpt>
      <trkpt lat="42.29089" lon="0.23042">
        <ele>650.81</ele>
        <time>2021-08-02T11:46:31Z</time>
      </trkpt>
      <trkpt lat="42.2909" lon="0.23002">
        <ele>647.02</ele>
        <time>2021-08-02T11:46:33Z</time>
      </trkpt>
      <trkpt lat="42.29088" lon="0.22986">
        <ele>644.82</ele>
        <time>2021-08-02T11:46:34Z</time>
      </trkpt>
      <trkpt lat="42.2907" lon="0.2294">
        <ele>637.54</ele>
        <time>2021-08-02T11:46:37Z</time>
      </trkpt>
      <trkpt lat="42.29061" lon="0.22924">
        <ele>635.22</ele>
        <time>2021-08-02T11:46:38Z</time>
      </trkpt>
      <trkpt lat="42.29046" lon="0.22866">
        <ele>628.74</ele>
        <time>2021-08-02T11:46:41Z</time>
      </trkpt>
      <trkpt lat="42.29049" lon="0.22821">
        <ele>624.99</ele>
        <time>2021-08-02T11:46:43Z</time>
      </trkpt>
      <trkpt lat="42.29055" lon="0.22751">
        <ele>620.24</ele>
        <time>2021-08-02T11:46:46Z</time>
      </trkpt>
      <trkpt lat="42.29061" lon="0.22687">
        <ele>615.94</ele>
        <time>2021-08-02T11:46:49Z</time>
      </trkpt>
      <trkpt lat="42.29077" lon="0.22638">
        <ele>611.11</ele>
        <time>2021-08-02T11:46:52Z</time>
      </trkpt>
      <trkpt lat="42.291" lon="0.2262">
        <ele>607.37</ele>
        <time>2021-08-02T11:46:54Z</time>
      </trkpt>
      <trkpt lat="42.2913" lon="0.22618">
        <ele>603.73</ele>
        <time>2021-08-02T11:46:56Z</time>
      </trkpt>
      <trkpt lat="42.29161" lon="0.22619">
        <ele>600.13</ele>
        <time>2021-08-02T11:46:58Z</time>
      </trkpt>
      <trkpt lat="42.29189" lon="0.22609">
        <ele>596.65</ele>
        <time>2021-08-02T11:47:00Z</time>
      </trkpt>
      <trkpt lat="42.29209" lon="0.22586">
        <ele>593.28</ele>
        <time>2021-08-02T11:47:02Z</time>
      </trkpt>
      <trkpt lat="42.2922" lon="0.22552">
        <ele>590.08</ele>
        <time>2021-08-02T11:47:04Z</time>
      </trkpt>
      <trkpt lat="42.29223" lon="0.22533">
        <ele>588.52</ele>
        <time>2021-08-02T11:47:05Z</time>
      </trkpt>
      <trkpt lat="42.29232" lon="0.22475">
        <ele>583.75</ele>
        <time>2021-08-02T11:47:08Z</time>
      </trkpt>
      <trkpt lat="42.29237" lon="0.22456">
        <ele>582.11</ele>
        <time>2021-08-02T11:47:09Z</time>
      </trkpt>
      <trkpt lat="42.29255" lon="0.22408">
        <ele>577.2</ele>
        <time>2021-08-02T11:47:12Z</time>
      </trkpt>
      <trkpt lat="42.29275" lon="0.2238">
        <ele>574</ele>
        <time>2021-08-02T11:47:14Z</time>
      </trkpt>
      <trkpt lat="42.29308" lon="0.22342">
        <ele>569.37</ele>
        <time>2021-08-02T11:47:17Z</time>
      </trkpt>
      <trkpt lat="42.29329" lon="0.22297">
        <ele>564.74</ele>
        <time>2021-08-02T11:47:20Z</time>
      </trkpt>
      <trkpt lat="42.29333" lon="0.22281">
        <ele>563.34</ele>
        <time>2021-08-02T11:47:21Z</time>
      </trkpt>
      <trkpt lat="42.29348" lon="0.22228">
        <ele>557.27</ele>
        <time>2021-08-02T11:47:25Z</time>
      </trkpt>
      <trkpt lat="42.29365" lon="0.22219">
        <ele>554.15</ele>
        <time>2021-08-02T11:47:27Z</time>
      </trkpt>
      <trkpt lat="42.29392" lon="0.22238">
        <ele>551.15</ele>
        <time>2021-08-02T11:47:29Z</time>
      </trkpt>
      <trkpt lat="42.29456" lon="0.22283">
        <ele>546.78</ele>
        <time>2021-08-02T11:47:33Z</time>
      </trkpt>
      <trkpt lat="42.29529" lon="0.22319">
        <ele>543.13</ele>
        <time>2021-08-02T11:47:37Z</time>
      </trkpt>
      <trkpt lat="42.2956" lon="0.22332">
        <ele>540.93</ele>
        <time>2021-08-02T11:47:39Z</time>
      </trkpt>
      <trkpt lat="42.29594" lon="0.22322">
        <ele>536.07</ele>
        <time>2021-08-02T11:47:42Z</time>
      </trkpt>
      <trkpt lat="42.2961" lon="0.22298">
        <ele>532.74</ele>
        <time>2021-08-02T11:47:44Z</time>
      </trkpt>
      <trkpt lat="42.29615" lon="0.22267">
        <ele>529.54</ele>
        <time>2021-08-02T11:47:46Z</time>
      </trkpt>
      <trkpt lat="42.29599" lon="0.22217">
        <ele>526.6</ele>
        <time>2021-08-02T11:47:48Z</time>
      </trkpt>
      <trkpt lat="42.29564" lon="0.22104">
        <ele>520.94</ele>
        <time>2021-08-02T11:47:53Z</time>
      </trkpt>
      <trkpt lat="42.29557" lon="0.22082">
        <ele>520.94</ele>
        <time>2021-08-02T11:47:54Z</time>
      </trkpt>
      <trkpt lat="42.29544" lon="0.22012">
        <ele>517.37</ele>
        <time>2021-08-02T11:47:57Z</time>
      </trkpt>
      <trkpt lat="42.29541" lon="0.21942">
        <ele>514.19</ele>
        <time>2021-08-02T11:48:00Z</time>
      </trkpt>
      <trkpt lat="42.29542" lon="0.21888">
        <ele>509.56</ele>
        <time>2021-08-02T11:48:03Z</time>
      </trkpt>
      <trkpt lat="42.29542" lon="0.21861">
        <ele>505.75</ele>
        <time>2021-08-02T11:48:05Z</time>
      </trkpt>
      <trkpt lat="42.29543" lon="0.2184">
        <ele>501.7</ele>
        <time>2021-08-02T11:48:07Z</time>
      </trkpt>
      <trkpt lat="42.29544" lon="0.21823">
        <ele>497.73</ele>
        <time>2021-08-02T11:48:09Z</time>
      </trkpt>
      <trkpt lat="42.29546" lon="0.21806">
        <ele>494.16</ele>
        <time>2021-08-02T11:48:11Z</time>
      </trkpt>
      <trkpt lat="42.29552" lon="0.21781">
        <ele>489.9</ele>
        <time>2021-08-02T11:48:14Z</time>
      </trkpt>
      <trkpt lat="42.29562" lon="0.21753">
        <ele>486.47</ele>
        <time>2021-08-02T11:48:17Z</time>
      </trkpt>
      <trkpt lat="42.29572" lon="0.21724">
        <ele>482.61</ele>
        <time>2021-08-02T11:48:21Z</time>
      </trkpt>
      <trkpt lat="42.29581" lon="0.21709">
        <ele>479.14</ele>
        <time>2021-08-02T11:48:25Z</time>
      </trkpt>
      <trkpt lat="42.29591" lon="0.21666">
        <ele>475.11</ele>
        <time>2021-08-02T11:48:32Z</time>
      </trkpt>
      <trkpt lat="42.29597" lon="0.21628">
        <ele>472.23</ele>
        <time>2021-08-02T11:48:42Z</time>
      </trkpt>
      <trkpt lat="42.29601" lon="0.21617">
        <ele>471.72</ele>
        <time>2021-08-02T11:48:55Z</time>
      </trkpt>
      <trkpt lat="42.29605" lon="0.216">
        <ele>471.52</ele>
        <time>2021-08-02T11:49:09Z</time>
      </trkpt>
      <trkpt lat="42.29602" lon="0.21612">
        <ele>471.32</ele>
        <time>2021-08-02T11:49:28Z</time>
      </trkpt>
      <trkpt lat="42.29599" lon="0.21621">
        <ele>471.47</ele>
        <time>2021-08-02T11:49:50Z</time>
      </trkpt>
      <trkpt lat="42.296" lon="0.2162">
        <ele>471.75</ele>
        <time>2021-08-02T11:50:13Z</time>
      </trkpt>
      <trkpt lat="42.29601" lon="0.21615">
        <ele>471.75</ele>
        <time>2021-08-02T11:50:37Z</time>
      </trkpt>
      <trkpt lat="42.29601" lon="0.21613">
        <ele>471.75</ele>
        <time>2021-08-02T11:50:42Z</time>
      </trkpt>
      <trkpt lat="42.29602" lon="0.21596">
        <ele>471.75</ele>
        <time>2021-08-02T11:50:46Z</time>
      </trkpt>
      <trkpt lat="42.29611" lon="0.21538">
        <ele>472.93</ele>
        <time>2021-08-02T11:50:52Z</time>
      </trkpt>
      <trkpt lat="42.29589" lon="0.21491">
        <ele>473.77</ele>
        <time>2021-08-02T11:50:57Z</time>
      </trkpt>
      <trkpt lat="42.29548" lon="0.21454">
        <ele>474.79</ele>
        <time>2021-08-02T11:51:01Z</time>
      </trkpt>
      <trkpt lat="42.29505" lon="0.21386">
        <ele>478.27</ele>
        <time>2021-08-02T11:51:06Z</time>
      </trkpt>
      <trkpt lat="42.29489" lon="0.21354">
        <ele>480.29</ele>
        <time>2021-08-02T11:51:08Z</time>
      </trkpt>
      <trkpt lat="42.29453" lon="0.21316">
        <ele>486.1</ele>
        <time>2021-08-02T11:51:12Z</time>
      </trkpt>
      <trkpt lat="42.29405" lon="0.21276">
        <ele>491.48</ele>
        <time>2021-08-02T11:51:17Z</time>
      </trkpt>
      <trkpt lat="42.29362" lon="0.21241">
        <ele>496.24</ele>
        <time>2021-08-02T11:51:21Z</time>
      </trkpt>
      <trkpt lat="42.29323" lon="0.21218">
        <ele>499.77</ele>
        <time>2021-08-02T11:51:24Z</time>
      </trkpt>
      <trkpt lat="42.29287" lon="0.21202">
        <ele>503.07</ele>
        <time>2021-08-02T11:51:27Z</time>
      </trkpt>
      <trkpt lat="42.29233" lon="0.21188">
        <ele>506.77</ele>
        <time>2021-08-02T11:51:31Z</time>
      </trkpt>
      <trkpt lat="42.29175" lon="0.21181">
        <ele>510.61</ele>
        <time>2021-08-02T11:51:35Z</time>
      </trkpt>
      <trkpt lat="42.29122" lon="0.21183">
        <ele>514.38</ele>
        <time>2021-08-02T11:51:39Z</time>
      </trkpt>
      <trkpt lat="42.29096" lon="0.21183">
        <ele>516.3</ele>
        <time>2021-08-02T11:51:41Z</time>
      </trkpt>
      <trkpt lat="42.29042" lon="0.21165">
        <ele>520.6</ele>
        <time>2021-08-02T11:51:45Z</time>
      </trkpt>
      <trkpt lat="42.29015" lon="0.2115">
        <ele>523.06</ele>
        <time>2021-08-02T11:51:47Z</time>
      </trkpt>
      <trkpt lat="42.28969" lon="0.21104">
        <ele>528.85</ele>
        <time>2021-08-02T11:51:51Z</time>
      </trkpt>
      <trkpt lat="42.28953" lon="0.21069">
        <ele>531.88</ele>
        <time>2021-08-02T11:51:53Z</time>
      </trkpt>
      <trkpt lat="42.28929" lon="0.21013">
        <ele>536.65</ele>
        <time>2021-08-02T11:51:56Z</time>
      </trkpt>
      <trkpt lat="42.2892" lon="0.20995">
        <ele>538.27</ele>
        <time>2021-08-02T11:51:57Z</time>
      </trkpt>
      <trkpt lat="42.28881" lon="0.20955">
        <ele>543.3</ele>
        <time>2021-08-02T11:52:00Z</time>
      </trkpt>
      <trkpt lat="42.28855" lon="0.20934">
        <ele>546.39</ele>
        <time>2021-08-02T11:52:02Z</time>
      </trkpt>
      <trkpt lat="42.28822" lon="0.209">
        <ele>549.94</ele>
        <time>2021-08-02T11:52:05Z</time>
      </trkpt>
      <trkpt lat="42.2878" lon="0.20851">
        <ele>553.02</ele>
        <time>2021-08-02T11:52:09Z</time>
      </trkpt>
      <trkpt lat="42.28724" lon="0.20771">
        <ele>556.09</ele>
        <time>2021-08-02T11:52:14Z</time>
      </trkpt>
      <trkpt lat="42.2866" lon="0.20663">
        <ele>559.54</ele>
        <time>2021-08-02T11:52:20Z</time>
      </trkpt>
      <trkpt lat="42.28591" lon="0.20507">
        <ele>561.82</ele>
        <time>2021-08-02T11:52:27Z</time>
      </trkpt>
      <trkpt lat="42.28508" lon="0.20285">
        <ele>562.28</ele>
        <time>2021-08-02T11:52:36Z</time>
      </trkpt>
      <trkpt lat="42.28488" lon="0.2012">
        <ele>560.6</ele>
        <time>2021-08-02T11:52:43Z</time>
      </trkpt>
      <trkpt lat="42.28485" lon="0.201">
        <ele>559.92</ele>
        <time>2021-08-02T11:52:44Z</time>
      </trkpt>
      <trkpt lat="42.28473" lon="0.20064">
        <ele>558.19</ele>
        <time>2021-08-02T11:52:46Z</time>
      </trkpt>
      <trkpt lat="42.28447" lon="0.20041">
        <ele>556.2</ele>
        <time>2021-08-02T11:52:48Z</time>
      </trkpt>
      <trkpt lat="42.28399" lon="0.2005">
        <ele>552.74</ele>
        <time>2021-08-02T11:52:51Z</time>
      </trkpt>
      <trkpt lat="42.28386" lon="0.20064">
        <ele>550.15</ele>
        <time>2021-08-02T11:52:52Z</time>
      </trkpt>
      <trkpt lat="42.28317" lon="0.20084">
        <ele>543.35</ele>
        <time>2021-08-02T11:52:57Z</time>
      </trkpt>
      <trkpt lat="42.28285" lon="0.20039">
        <ele>539</ele>
        <time>2021-08-02T11:53:00Z</time>
      </trkpt>
      <trkpt lat="42.28233" lon="0.19953">
        <ele>531.92</ele>
        <time>2021-08-02T11:53:05Z</time>
      </trkpt>
      <trkpt lat="42.2819" lon="0.19916">
        <ele>526.96</ele>
        <time>2021-08-02T11:53:08Z</time>
      </trkpt>
      <trkpt lat="42.28166" lon="0.19893">
        <ele>523.22</ele>
        <time>2021-08-02T11:53:10Z</time>
      </trkpt>
      <trkpt lat="42.28158" lon="0.19881">
        <ele>521.23</ele>
        <time>2021-08-02T11:53:11Z</time>
      </trkpt>
      <trkpt lat="42.28139" lon="0.19837">
        <ele>515.14</ele>
        <time>2021-08-02T11:53:14Z</time>
      </trkpt>
      <trkpt lat="42.28134" lon="0.19801">
        <ele>511.68</ele>
        <time>2021-08-02T11:53:16Z</time>
      </trkpt>
      <trkpt lat="42.28141" lon="0.19747">
        <ele>507.3</ele>
        <time>2021-08-02T11:53:19Z</time>
      </trkpt>
      <trkpt lat="42.28159" lon="0.19704">
        <ele>503.02</ele>
        <time>2021-08-02T11:53:22Z</time>
      </trkpt>
      <trkpt lat="42.28183" lon="0.19657">
        <ele>498.27</ele>
        <time>2021-08-02T11:53:26Z</time>
      </trkpt>
      <trkpt lat="42.28198" lon="0.19631">
        <ele>494.91</ele>
        <time>2021-08-02T11:53:29Z</time>
      </trkpt>
      <trkpt lat="42.28202" lon="0.19625">
        <ele>493.83</ele>
        <time>2021-08-02T11:53:30Z</time>
      </trkpt>
      <trkpt lat="42.28207" lon="0.1962">
        <ele>492.8</ele>
        <time>2021-08-02T11:53:31Z</time>
      </trkpt>
      <trkpt lat="42.28211" lon="0.19617">
        <ele>491.83</ele>
        <time>2021-08-02T11:53:32Z</time>
      </trkpt>
      <trkpt lat="42.28216" lon="0.19618">
        <ele>488.78</ele>
        <time>2021-08-02T11:53:37Z</time>
      </trkpt>
      <trkpt lat="42.28224" lon="0.19607">
        <ele>487.46</ele>
        <time>2021-08-02T11:54:00Z</time>
      </trkpt>
      <trkpt lat="42.28203" lon="0.19583">
        <ele>488.36</ele>
        <time>2021-08-02T11:54:06Z</time>
      </trkpt>
      <trkpt lat="42.2817" lon="0.19591">
        <ele>488.91</ele>
        <time>2021-08-02T11:54:09Z</time>
      </trkpt>
      <trkpt lat="42.2813" lon="0.19593">
        <ele>489.08</ele>
        <time>2021-08-02T11:54:12Z</time>
      </trkpt>
      <trkpt lat="42.28065" lon="0.19557">
        <ele>487.78</ele>
        <time>2021-08-02T11:54:17Z</time>
      </trkpt>
      <trkpt lat="42.28053" lon="0.19544">
        <ele>487.35</ele>
        <time>2021-08-02T11:54:18Z</time>
      </trkpt>
      <trkpt lat="42.28041" lon="0.19529">
        <ele>486.8</ele>
        <time>2021-08-02T11:54:19Z</time>
      </trkpt>
      <trkpt lat="42.2797" lon="0.19437">
        <ele>483.86</ele>
        <time>2021-08-02T11:54:25Z</time>
      </trkpt>
      <trkpt lat="42.27927" lon="0.19382">
        <ele>481.72</ele>
        <time>2021-08-02T11:54:29Z</time>
      </trkpt>
      <trkpt lat="42.27889" lon="0.19329">
        <ele>479.4</ele>
        <time>2021-08-02T11:54:33Z</time>
      </trkpt>
      <trkpt lat="42.27861" lon="0.19306">
        <ele>478.14</ele>
        <time>2021-08-02T11:54:37Z</time>
      </trkpt>
      <trkpt lat="42.27863" lon="0.19267">
        <ele>476.88</ele>
        <time>2021-08-02T11:54:42Z</time>
      </trkpt>
      <trkpt lat="42.27859" lon="0.19227">
        <ele>476.91</ele>
        <time>2021-08-02T11:54:46Z</time>
      </trkpt>
      <trkpt lat="42.27853" lon="0.19204">
        <ele>477.31</ele>
        <time>2021-08-02T11:54:48Z</time>
      </trkpt>
      <trkpt lat="42.27831" lon="0.19095">
        <ele>480.78</ele>
        <time>2021-08-02T11:54:55Z</time>
      </trkpt>
      <trkpt lat="42.27814" lon="0.19036">
        <ele>483.88</ele>
        <time>2021-08-02T11:54:58Z</time>
      </trkpt>
      <trkpt lat="42.27802" lon="0.18968">
        <ele>487.58</ele>
        <time>2021-08-02T11:55:01Z</time>
      </trkpt>
      <trkpt lat="42.278" lon="0.18894">
        <ele>491.79</ele>
        <time>2021-08-02T11:55:04Z</time>
      </trkpt>
      <trkpt lat="42.27804" lon="0.18846">
        <ele>494.86</ele>
        <time>2021-08-02T11:55:06Z</time>
      </trkpt>
      <trkpt lat="42.27835" lon="0.18779">
        <ele>500.49</ele>
        <time>2021-08-02T11:55:10Z</time>
      </trkpt>
      <trkpt lat="42.27864" lon="0.18744">
        <ele>504.42</ele>
        <time>2021-08-02T11:55:13Z</time>
      </trkpt>
      <trkpt lat="42.27867" lon="0.18705">
        <ele>506.95</ele>
        <time>2021-08-02T11:55:15Z</time>
      </trkpt>
      <trkpt lat="42.2787" lon="0.18609">
        <ele>511.65</ele>
        <time>2021-08-02T11:55:19Z</time>
      </trkpt>
      <trkpt lat="42.27872" lon="0.18537">
        <ele>514.98</ele>
        <time>2021-08-02T11:55:22Z</time>
      </trkpt>
      <trkpt lat="42.27873" lon="0.18494">
        <ele>516.82</ele>
        <time>2021-08-02T11:55:24Z</time>
      </trkpt>
      <trkpt lat="42.27916" lon="0.18422">
        <ele>520.83</ele>
        <time>2021-08-02T11:55:29Z</time>
      </trkpt>
      <trkpt lat="42.27957" lon="0.18395">
        <ele>523.83</ele>
        <time>2021-08-02T11:55:32Z</time>
      </trkpt>
      <trkpt lat="42.28002" lon="0.18336">
        <ele>529.09</ele>
        <time>2021-08-02T11:55:36Z</time>
      </trkpt>
      <trkpt lat="42.28023" lon="0.18303">
        <ele>532.11</ele>
        <time>2021-08-02T11:55:38Z</time>
      </trkpt>
      <trkpt lat="42.2804" lon="0.18267">
        <ele>535.43</ele>
        <time>2021-08-02T11:55:40Z</time>
      </trkpt>
      <trkpt lat="42.28055" lon="0.18231">
        <ele>539.03</ele>
        <time>2021-08-02T11:55:42Z</time>
      </trkpt>
      <trkpt lat="42.28063" lon="0.18178">
        <ele>544.28</ele>
        <time>2021-08-02T11:55:45Z</time>
      </trkpt>
      <trkpt lat="42.28053" lon="0.18149">
        <ele>547.66</ele>
        <time>2021-08-02T11:55:47Z</time>
      </trkpt>
      <trkpt lat="42.28044" lon="0.18137">
        <ele>549.32</ele>
        <time>2021-08-02T11:55:48Z</time>
      </trkpt>
      <trkpt lat="42.28024" lon="0.18111">
        <ele>552.64</ele>
        <time>2021-08-02T11:55:50Z</time>
      </trkpt>
      <trkpt lat="42.28004" lon="0.18058">
        <ele>557.62</ele>
        <time>2021-08-02T11:55:53Z</time>
      </trkpt>
      <trkpt lat="42.27992" lon="0.18017">
        <ele>560.98</ele>
        <time>2021-08-02T11:55:55Z</time>
      </trkpt>
      <trkpt lat="42.27977" lon="0.17977">
        <ele>564.48</ele>
        <time>2021-08-02T11:55:57Z</time>
      </trkpt>
      <trkpt lat="42.27962" lon="0.17935">
        <ele>567.72</ele>
        <time>2021-08-02T11:55:59Z</time>
      </trkpt>
      <trkpt lat="42.27942" lon="0.1788">
        <ele>571.71</ele>
        <time>2021-08-02T11:56:02Z</time>
      </trkpt>
      <trkpt lat="42.27938" lon="0.17824">
        <ele>576.4</ele>
        <time>2021-08-02T11:56:06Z</time>
      </trkpt>
      <trkpt lat="42.27937" lon="0.17805">
        <ele>580.15</ele>
        <time>2021-08-02T11:56:09Z</time>
      </trkpt>
      <trkpt lat="42.27927" lon="0.17786">
        <ele>583.11</ele>
        <time>2021-08-02T11:56:13Z</time>
      </trkpt>
      <trkpt lat="42.279" lon="0.17736">
        <ele>584.39</ele>
        <time>2021-08-02T11:56:20Z</time>
      </trkpt>
      <trkpt lat="42.27891" lon="0.17639">
        <ele>581.71</ele>
        <time>2021-08-02T11:56:29Z</time>
      </trkpt>
      <trkpt lat="42.27887" lon="0.17612">
        <ele>581.16</ele>
        <time>2021-08-02T11:56:32Z</time>
      </trkpt>
      <trkpt lat="42.27891" lon="0.1755">
        <ele>581.07</ele>
        <time>2021-08-02T11:56:40Z</time>
      </trkpt>
      <trkpt lat="42.27888" lon="0.17532">
        <ele>581.55</ele>
        <time>2021-08-02T11:56:43Z</time>
      </trkpt>
      <trkpt lat="42.27892" lon="0.17506">
        <ele>582.96</ele>
        <time>2021-08-02T11:56:48Z</time>
      </trkpt>
      <trkpt lat="42.27901" lon="0.17489">
        <ele>583.69</ele>
        <time>2021-08-02T11:56:51Z</time>
      </trkpt>
      <trkpt lat="42.279" lon="0.17426">
        <ele>584.74</ele>
        <time>2021-08-02T11:56:58Z</time>
      </trkpt>
      <trkpt lat="42.2789" lon="0.17413">
        <ele>585.26</ele>
        <time>2021-08-02T11:57:00Z</time>
      </trkpt>
      <trkpt lat="42.27874" lon="0.17375">
        <ele>586.28</ele>
        <time>2021-08-02T11:57:05Z</time>
      </trkpt>
      <trkpt lat="42.27845" lon="0.17224">
        <ele>589.37</ele>
        <time>2021-08-02T11:57:17Z</time>
      </trkpt>
      <trkpt lat="42.27863" lon="0.1714">
        <ele>591.43</ele>
        <time>2021-08-02T11:57:22Z</time>
      </trkpt>
      <trkpt lat="42.27891" lon="0.17089">
        <ele>593.03</ele>
        <time>2021-08-02T11:57:25Z</time>
      </trkpt>
      <trkpt lat="42.27947" lon="0.16908">
        <ele>596.66</ele>
        <time>2021-08-02T11:57:34Z</time>
      </trkpt>
      <trkpt lat="42.27979" lon="0.16802">
        <ele>599.82</ele>
        <time>2021-08-02T11:57:39Z</time>
      </trkpt>
      <trkpt lat="42.2799" lon="0.16764">
        <ele>601.26</ele>
        <time>2021-08-02T11:57:41Z</time>
      </trkpt>
      <trkpt lat="42.27994" lon="0.16636">
        <ele>606.35</ele>
        <time>2021-08-02T11:57:47Z</time>
      </trkpt>
      <trkpt lat="42.27995" lon="0.16593">
        <ele>607.5</ele>
        <time>2021-08-02T11:57:49Z</time>
      </trkpt>
      <trkpt lat="42.28017" lon="0.16468">
        <ele>611.23</ele>
        <time>2021-08-02T11:57:55Z</time>
      </trkpt>
      <trkpt lat="42.28032" lon="0.16388">
        <ele>613.95</ele>
        <time>2021-08-02T11:57:59Z</time>
      </trkpt>
    </trkseg>
  </trk>
  <trk>
    <name><![CDATA[TOTAL 4x4 _17]]></name>
    <extensions>
      <line xmlns="http://www.topografix.com/GPX/gpx_style/0/2">
        <color>FFFF00</color>
        <width>4</width>
      </line>
    </extensions>
    <trkseg>
      <trkpt lat="42.27161" lon="0.39946">
        <ele>630.25</ele>
        <time>2021-08-02T09:36:35Z</time>
      </trkpt>
      <trkpt lat="42.27165" lon="0.39937">
        <ele>630.34</ele>
        <time>2021-08-02T09:36:38Z</time>
      </trkpt>
      <trkpt lat="42.27183" lon="0.39917">
        <ele>630.82</ele>
        <time>2021-08-02T09:36:42Z</time>
      </trkpt>
      <trkpt lat="42.27216" lon="0.39925">
        <ele>632.33</ele>
        <time>2021-08-02T09:36:47Z</time>
      </trkpt>
      <trkpt lat="42.27247" lon="0.39989">
        <ele>636.25</ele>
        <time>2021-08-02T09:36:53Z</time>
      </trkpt>
      <trkpt lat="42.27258" lon="0.40011">
        <ele>637.99</ele>
        <time>2021-08-02T09:36:55Z</time>
      </trkpt>
      <trkpt lat="42.2728" lon="0.40016">
        <ele>642.53</ele>
        <time>2021-08-02T09:37:00Z</time>
      </trkpt>
      <trkpt lat="42.27281" lon="0.40005">
        <ele>643.23</ele>
        <time>2021-08-02T09:37:01Z</time>
      </trkpt>
      <trkpt lat="42.27311" lon="0.39951">
        <ele>647.83</ele>
        <time>2021-08-02T09:37:08Z</time>
      </trkpt>
      <trkpt lat="42.27325" lon="0.40006">
        <ele>650.81</ele>
        <time>2021-08-02T09:37:12Z</time>
      </trkpt>
      <trkpt lat="42.2733" lon="0.40017">
        <ele>651.53</ele>
        <time>2021-08-02T09:37:13Z</time>
      </trkpt>
      <trkpt lat="42.27361" lon="0.40076">
        <ele>656.6</ele>
        <time>2021-08-02T09:37:19Z</time>
      </trkpt>
      <trkpt lat="42.2738" lon="0.40105">
        <ele>660.8</ele>
        <time>2021-08-02T09:37:24Z</time>
      </trkpt>
      <trkpt lat="42.2738" lon="0.40083">
        <ele>663.72</ele>
        <time>2021-08-02T09:37:27Z</time>
      </trkpt>
      <trkpt lat="42.27373" lon="0.40056">
        <ele>665.35</ele>
        <time>2021-08-02T09:37:29Z</time>
      </trkpt>
      <trkpt lat="42.27387" lon="0.40021">
        <ele>669.03</ele>
        <time>2021-08-02T09:37:35Z</time>
      </trkpt>
      <trkpt lat="42.27393" lon="0.40046">
        <ele>670.71</ele>
        <time>2021-08-02T09:37:37Z</time>
      </trkpt>
      <trkpt lat="42.27409" lon="0.40096">
        <ele>673.49</ele>
        <time>2021-08-02T09:37:41Z</time>
      </trkpt>
      <trkpt lat="42.27445" lon="0.40132">
        <ele>677.73</ele>
        <time>2021-08-02T09:37:46Z</time>
      </trkpt>
      <trkpt lat="42.27502" lon="0.40151">
        <ele>682.25</ele>
        <time>2021-08-02T09:37:51Z</time>
      </trkpt>
      <trkpt lat="42.27513" lon="0.40155">
        <ele>683.37</ele>
        <time>2021-08-02T09:37:52Z</time>
      </trkpt>
      <trkpt lat="42.27559" lon="0.40159">
        <ele>687.53</ele>
        <time>2021-08-02T09:37:56Z</time>
      </trkpt>
      <trkpt lat="42.27591" lon="0.40145">
        <ele>691.06</ele>
        <time>2021-08-02T09:37:59Z</time>
      </trkpt>
      <trkpt lat="42.27626" lon="0.40144">
        <ele>694.13</ele>
        <time>2021-08-02T09:38:02Z</time>
      </trkpt>
      <trkpt lat="42.2769" lon="0.40159">
        <ele>698.97</ele>
        <time>2021-08-02T09:38:07Z</time>
      </trkpt>
      <trkpt lat="42.27743" lon="0.40172">
        <ele>702.59</ele>
        <time>2021-08-02T09:38:11Z</time>
      </trkpt>
      <trkpt lat="42.27755" lon="0.40174">
        <ele>703.41</ele>
        <time>2021-08-02T09:38:12Z</time>
      </trkpt>
      <trkpt lat="42.27814" lon="0.40171">
        <ele>707.37</ele>
        <time>2021-08-02T09:38:17Z</time>
      </trkpt>
      <trkpt lat="42.27825" lon="0.40178">
        <ele>707.82</ele>
        <time>2021-08-02T09:38:18Z</time>
      </trkpt>
      <trkpt lat="42.27849" lon="0.40192">
        <ele>708.84</ele>
        <time>2021-08-02T09:38:20Z</time>
      </trkpt>
      <trkpt lat="42.27884" lon="0.40177">
        <ele>712.39</ele>
        <time>2021-08-02T09:38:25Z</time>
      </trkpt>
      <trkpt lat="42.27911" lon="0.4016">
        <ele>715.7</ele>
        <time>2021-08-02T09:38:30Z</time>
      </trkpt>
      <trkpt lat="42.27916" lon="0.40174">
        <ele>716.3</ele>
        <time>2021-08-02T09:38:31Z</time>
      </trkpt>
      <trkpt lat="42.27943" lon="0.40235">
        <ele>720.63</ele>
        <time>2021-08-02T09:38:37Z</time>
      </trkpt>
      <trkpt lat="42.2795" lon="0.40252">
        <ele>723.94</ele>
        <time>2021-08-02T09:38:41Z</time>
      </trkpt>
      <trkpt lat="42.27953" lon="0.40261">
        <ele>727.3</ele>
        <time>2021-08-02T09:38:47Z</time>
      </trkpt>
      <trkpt lat="42.27963" lon="0.40287">
        <ele>729.88</ele>
        <time>2021-08-02T09:38:57Z</time>
      </trkpt>
      <trkpt lat="42.27983" lon="0.40336">
        <ele>732.1</ele>
        <time>2021-08-02T09:39:04Z</time>
      </trkpt>
      <trkpt lat="42.28001" lon="0.4036">
        <ele>734.26</ele>
        <time>2021-08-02T09:39:08Z</time>
      </trkpt>
      <trkpt lat="42.28053" lon="0.40386">
        <ele>738.44</ele>
        <time>2021-08-02T09:39:15Z</time>
      </trkpt>
      <trkpt lat="42.28089" lon="0.40401">
        <ele>741.48</ele>
        <time>2021-08-02T09:39:19Z</time>
      </trkpt>
      <trkpt lat="42.28133" lon="0.40419">
        <ele>744.87</ele>
        <time>2021-08-02T09:39:24Z</time>
      </trkpt>
      <trkpt lat="42.28183" lon="0.40438">
        <ele>748.08</ele>
        <time>2021-08-02T09:39:29Z</time>
      </trkpt>
      <trkpt lat="42.28233" lon="0.40459">
        <ele>751.07</ele>
        <time>2021-08-02T09:39:34Z</time>
      </trkpt>
      <trkpt lat="42.28298" lon="0.40516">
        <ele>755.03</ele>
        <time>2021-08-02T09:39:41Z</time>
      </trkpt>
      <trkpt lat="42.28344" lon="0.40574">
        <ele>758.64</ele>
        <time>2021-08-02T09:39:47Z</time>
      </trkpt>
      <trkpt lat="42.28384" lon="0.40622">
        <ele>762.16</ele>
        <time>2021-08-02T09:39:52Z</time>
      </trkpt>
      <trkpt lat="42.28424" lon="0.40666">
        <ele>765.34</ele>
        <time>2021-08-02T09:39:57Z</time>
      </trkpt>
      <trkpt lat="42.28466" lon="0.40702">
        <ele>768.4</ele>
        <time>2021-08-02T09:40:02Z</time>
      </trkpt>
      <trkpt lat="42.28522" lon="0.40749">
        <ele>771.48</ele>
        <time>2021-08-02T09:40:08Z</time>
      </trkpt>
      <trkpt lat="42.28592" lon="0.40807">
        <ele>774.55</ele>
        <time>2021-08-02T09:40:15Z</time>
      </trkpt>
      <trkpt lat="42.28642" lon="0.40848">
        <ele>777.86</ele>
        <time>2021-08-02T09:40:21Z</time>
      </trkpt>
      <trkpt lat="42.28689" lon="0.40886">
        <ele>780.96</ele>
        <time>2021-08-02T09:40:26Z</time>
      </trkpt>
      <trkpt lat="42.28739" lon="0.40929">
        <ele>784.56</ele>
        <time>2021-08-02T09:40:32Z</time>
      </trkpt>
      <trkpt lat="42.28796" lon="0.40977">
        <ele>788.06</ele>
        <time>2021-08-02T09:40:38Z</time>
      </trkpt>
      <trkpt lat="42.28841" lon="0.41017">
        <ele>790.37</ele>
        <time>2021-08-02T09:40:43Z</time>
      </trkpt>
      <trkpt lat="42.28903" lon="0.41109">
        <ele>793.99</ele>
        <time>2021-08-02T09:40:51Z</time>
      </trkpt>
      <trkpt lat="42.28942" lon="0.4117">
        <ele>797.32</ele>
        <time>2021-08-02T09:40:56Z</time>
      </trkpt>
      <trkpt lat="42.28971" lon="0.41212">
        <ele>800.6</ele>
        <time>2021-08-02T09:41:00Z</time>
      </trkpt>
      <trkpt lat="42.29001" lon="0.41258">
        <ele>803.67</ele>
        <time>2021-08-02T09:41:05Z</time>
      </trkpt>
      <trkpt lat="42.29029" lon="0.41301">
        <ele>805.69</ele>
        <time>2021-08-02T09:41:09Z</time>
      </trkpt>
      <trkpt lat="42.29042" lon="0.41373">
        <ele>806.65</ele>
        <time>2021-08-02T09:41:14Z</time>
      </trkpt>
      <trkpt lat="42.29046" lon="0.41478">
        <ele>809.95</ele>
        <time>2021-08-02T09:41:22Z</time>
      </trkpt>
      <trkpt lat="42.29049" lon="0.41544">
        <ele>813.18</ele>
        <time>2021-08-02T09:41:27Z</time>
      </trkpt>
      <trkpt lat="42.29079" lon="0.41584">
        <ele>817.19</ele>
        <time>2021-08-02T09:41:32Z</time>
      </trkpt>
      <trkpt lat="42.29118" lon="0.41614">
        <ele>821.21</ele>
        <time>2021-08-02T09:41:37Z</time>
      </trkpt>
      <trkpt lat="42.29155" lon="0.41646">
        <ele>824.83</ele>
        <time>2021-08-02T09:41:41Z</time>
      </trkpt>
      <trkpt lat="42.29196" lon="0.41681">
        <ele>828.45</ele>
        <time>2021-08-02T09:41:46Z</time>
      </trkpt>
      <trkpt lat="42.29217" lon="0.41701">
        <ele>831.62</ele>
        <time>2021-08-02T09:41:53Z</time>
      </trkpt>
      <trkpt lat="42.29225" lon="0.41708">
        <ele>832.23</ele>
        <time>2021-08-02T09:41:55Z</time>
      </trkpt>
      <trkpt lat="42.29278" lon="0.41738">
        <ele>834.71</ele>
        <time>2021-08-02T09:42:04Z</time>
      </trkpt>
      <trkpt lat="42.2931" lon="0.4175">
        <ele>837</ele>
        <time>2021-08-02T09:42:10Z</time>
      </trkpt>
      <trkpt lat="42.29369" lon="0.41822">
        <ele>840.77</ele>
        <time>2021-08-02T09:42:21Z</time>
      </trkpt>
      <trkpt lat="42.29414" lon="0.41891">
        <ele>844.13</ele>
        <time>2021-08-02T09:42:28Z</time>
      </trkpt>
      <trkpt lat="42.29466" lon="0.4194">
        <ele>847.24</ele>
        <time>2021-08-02T09:42:34Z</time>
      </trkpt>
      <trkpt lat="42.29473" lon="0.41947">
        <ele>848.46</ele>
        <time>2021-08-02T09:42:35Z</time>
      </trkpt>
      <trkpt lat="42.29519" lon="0.41971">
        <ele>852.74</ele>
        <time>2021-08-02T09:42:41Z</time>
      </trkpt>
      <trkpt lat="42.2955" lon="0.41993">
        <ele>855.9</ele>
        <time>2021-08-02T09:42:45Z</time>
      </trkpt>
      <trkpt lat="42.29581" lon="0.42019">
        <ele>859.21</ele>
        <time>2021-08-02T09:42:49Z</time>
      </trkpt>
      <trkpt lat="42.29598" lon="0.42029">
        <ele>861.3</ele>
        <time>2021-08-02T09:42:51Z</time>
      </trkpt>
      <trkpt lat="42.29645" lon="0.42044">
        <ele>866.27</ele>
        <time>2021-08-02T09:42:56Z</time>
      </trkpt>
      <trkpt lat="42.29678" lon="0.42053">
        <ele>868.53</ele>
        <time>2021-08-02T09:42:59Z</time>
      </trkpt>
      <trkpt lat="42.29783" lon="0.42053">
        <ele>872.12</ele>
        <time>2021-08-02T09:43:09Z</time>
      </trkpt>
      <trkpt lat="42.29792" lon="0.42054">
        <ele>872.57</ele>
        <time>2021-08-02T09:43:10Z</time>
      </trkpt>
      <trkpt lat="42.29823" lon="0.42038">
        <ele>874.58</ele>
        <time>2021-08-02T09:43:14Z</time>
      </trkpt>
      <trkpt lat="42.29865" lon="0.41999">
        <ele>878.51</ele>
        <time>2021-08-02T09:43:19Z</time>
      </trkpt>
      <trkpt lat="42.29896" lon="0.41972">
        <ele>883.1</ele>
        <time>2021-08-02T09:43:24Z</time>
      </trkpt>
      <trkpt lat="42.29906" lon="0.41961">
        <ele>885.12</ele>
        <time>2021-08-02T09:43:26Z</time>
      </trkpt>
      <trkpt lat="42.29921" lon="0.41967">
        <ele>889.46</ele>
        <time>2021-08-02T09:43:31Z</time>
      </trkpt>
      <trkpt lat="42.29915" lon="0.41979">
        <ele>891.04</ele>
        <time>2021-08-02T09:43:33Z</time>
      </trkpt>
      <trkpt lat="42.29906" lon="0.41994">
        <ele>892.58</ele>
        <time>2021-08-02T09:43:35Z</time>
      </trkpt>
      <trkpt lat="42.29912" lon="0.42042">
        <ele>896.77</ele>
        <time>2021-08-02T09:43:41Z</time>
      </trkpt>
      <trkpt lat="42.2993" lon="0.42029">
        <ele>898.63</ele>
        <time>2021-08-02T09:43:44Z</time>
      </trkpt>
      <trkpt lat="42.29969" lon="0.4202">
        <ele>902.82</ele>
        <time>2021-08-02T09:43:51Z</time>
      </trkpt>
      <trkpt lat="42.29975" lon="0.42025">
        <ele>904.16</ele>
        <time>2021-08-02T09:43:53Z</time>
      </trkpt>
      <trkpt lat="42.30016" lon="0.42056">
        <ele>908.06</ele>
        <time>2021-08-02T09:44:00Z</time>
      </trkpt>
      <trkpt lat="42.30029" lon="0.42063">
        <ele>909.58</ele>
        <time>2021-08-02T09:44:02Z</time>
      </trkpt>
      <trkpt lat="42.3006" lon="0.42067">
        <ele>913.57</ele>
        <time>2021-08-02T09:44:06Z</time>
      </trkpt>
      <trkpt lat="42.3009" lon="0.4207">
        <ele>917.33</ele>
        <time>2021-08-02T09:44:10Z</time>
      </trkpt>
      <trkpt lat="42.30119" lon="0.42068">
        <ele>921.48</ele>
        <time>2021-08-02T09:44:14Z</time>
      </trkpt>
      <trkpt lat="42.30134" lon="0.42067">
        <ele>923.67</ele>
        <time>2021-08-02T09:44:16Z</time>
      </trkpt>
      <trkpt lat="42.30155" lon="0.4206">
        <ele>929.03</ele>
        <time>2021-08-02T09:44:20Z</time>
      </trkpt>
      <trkpt lat="42.30186" lon="0.42048">
        <ele>932.64</ele>
        <time>2021-08-02T09:44:24Z</time>
      </trkpt>
      <trkpt lat="42.30221" lon="0.4203">
        <ele>935.85</ele>
        <time>2021-08-02T09:44:29Z</time>
      </trkpt>
      <trkpt lat="42.30232" lon="0.42021">
        <ele>936.86</ele>
        <time>2021-08-02T09:44:31Z</time>
      </trkpt>
      <trkpt lat="42.30293" lon="0.41999">
        <ele>940.79</ele>
        <time>2021-08-02T09:44:39Z</time>
      </trkpt>
      <trkpt lat="42.30336" lon="0.42001">
        <ele>943.83</ele>
        <time>2021-08-02T09:44:44Z</time>
      </trkpt>
      <trkpt lat="42.30373" lon="0.42006">
        <ele>947.55</ele>
        <time>2021-08-02T09:44:49Z</time>
      </trkpt>
      <trkpt lat="42.30381" lon="0.42006">
        <ele>948.25</ele>
        <time>2021-08-02T09:44:50Z</time>
      </trkpt>
      <trkpt lat="42.30407" lon="0.42021">
        <ele>950.62</ele>
        <time>2021-08-02T09:44:54Z</time>
      </trkpt>
      <trkpt lat="42.30493" lon="0.4209">
        <ele>953.07</ele>
        <time>2021-08-02T09:45:05Z</time>
      </trkpt>
      <trkpt lat="42.30512" lon="0.42112">
        <ele>953.97</ele>
        <time>2021-08-02T09:45:08Z</time>
      </trkpt>
      <trkpt lat="42.30523" lon="0.42154">
        <ele>955.71</ele>
        <time>2021-08-02T09:45:13Z</time>
      </trkpt>
      <trkpt lat="42.30523" lon="0.42175">
        <ele>956.88</ele>
        <time>2021-08-02T09:45:15Z</time>
      </trkpt>
      <trkpt lat="42.30555" lon="0.42221">
        <ele>960.42</ele>
        <time>2021-08-02T09:45:22Z</time>
      </trkpt>
      <trkpt lat="42.30561" lon="0.42224">
        <ele>960.99</ele>
        <time>2021-08-02T09:45:23Z</time>
      </trkpt>
      <trkpt lat="42.30592" lon="0.4224">
        <ele>964.44</ele>
        <time>2021-08-02T09:45:28Z</time>
      </trkpt>
      <trkpt lat="42.30613" lon="0.4227">
        <ele>967.26</ele>
        <time>2021-08-02T09:45:32Z</time>
      </trkpt>
      <trkpt lat="42.3063" lon="0.42271">
        <ele>971.23</ele>
        <time>2021-08-02T09:45:39Z</time>
      </trkpt>
      <trkpt lat="42.30627" lon="0.42263">
        <ele>971.67</ele>
        <time>2021-08-02T09:45:40Z</time>
      </trkpt>
      <trkpt lat="42.30622" lon="0.42236">
        <ele>973.35</ele>
        <time>2021-08-02T09:45:43Z</time>
      </trkpt>
      <trkpt lat="42.3059" lon="0.42193">
        <ele>977.67</ele>
        <time>2021-08-02T09:45:49Z</time>
      </trkpt>
      <trkpt lat="42.30567" lon="0.4218">
        <ele>981.74</ele>
        <time>2021-08-02T09:45:53Z</time>
      </trkpt>
      <trkpt lat="42.30567" lon="0.4213">
        <ele>985.05</ele>
        <time>2021-08-02T09:45:59Z</time>
      </trkpt>
      <trkpt lat="42.30567" lon="0.42113">
        <ele>986.31</ele>
        <time>2021-08-02T09:46:01Z</time>
      </trkpt>
      <trkpt lat="42.30563" lon="0.42066">
        <ele>989.89</ele>
        <time>2021-08-02T09:46:08Z</time>
      </trkpt>
      <trkpt lat="42.30572" lon="0.42051">
        <ele>992.81</ele>
        <time>2021-08-02T09:46:16Z</time>
      </trkpt>
      <trkpt lat="42.30571" lon="0.4205">
        <ele>994.34</ele>
        <time>2021-08-02T09:46:24Z</time>
      </trkpt>
      <trkpt lat="42.306" lon="0.42053">
        <ele>996.34</ele>
        <time>2021-08-02T09:46:36Z</time>
      </trkpt>
      <trkpt lat="42.30628" lon="0.42062">
        <ele>999.57</ele>
        <time>2021-08-02T09:46:47Z</time>
      </trkpt>
      <trkpt lat="42.30665" lon="0.42072">
        <ele>1001.77</ele>
        <time>2021-08-02T09:46:55Z</time>
      </trkpt>
      <trkpt lat="42.30703" lon="0.4209">
        <ele>1005.08</ele>
        <time>2021-08-02T09:47:05Z</time>
      </trkpt>
      <trkpt lat="42.30743" lon="0.42125">
        <ele>1008.49</ele>
        <time>2021-08-02T09:47:15Z</time>
      </trkpt>
      <trkpt lat="42.3076" lon="0.42139">
        <ele>1009.93</ele>
        <time>2021-08-02T09:47:18Z</time>
      </trkpt>
      <trkpt lat="42.30788" lon="0.42144">
        <ele>1012.36</ele>
        <time>2021-08-02T09:47:22Z</time>
      </trkpt>
      <trkpt lat="42.3081" lon="0.42162">
        <ele>1017.47</ele>
        <time>2021-08-02T09:47:28Z</time>
      </trkpt>
      <trkpt lat="42.30797" lon="0.42176">
        <ele>1021.17</ele>
        <time>2021-08-02T09:47:31Z</time>
      </trkpt>
      <trkpt lat="42.30807" lon="0.42195">
        <ele>1024.31</ele>
        <time>2021-08-02T09:47:36Z</time>
      </trkpt>
      <trkpt lat="42.3082" lon="0.42193">
        <ele>1025.64</ele>
        <time>2021-08-02T09:47:38Z</time>
      </trkpt>
      <trkpt lat="42.3088" lon="0.42179">
        <ele>1029.87</ele>
        <time>2021-08-02T09:47:45Z</time>
      </trkpt>
      <trkpt lat="42.30888" lon="0.4218">
        <ele>1030.32</ele>
        <time>2021-08-02T09:47:46Z</time>
      </trkpt>
      <trkpt lat="42.30928" lon="0.42162">
        <ele>1033.9</ele>
        <time>2021-08-02T09:47:52Z</time>
      </trkpt>
      <trkpt lat="42.30967" lon="0.4213">
        <ele>1037.86</ele>
        <time>2021-08-02T09:47:58Z</time>
      </trkpt>
      <trkpt lat="42.30998" lon="0.42101">
        <ele>1039.77</ele>
        <time>2021-08-02T09:48:02Z</time>
      </trkpt>
      <trkpt lat="42.31059" lon="0.42068">
        <ele>1041.97</ele>
        <time>2021-08-02T09:48:09Z</time>
      </trkpt>
      <trkpt lat="42.31108" lon="0.42067">
        <ele>1043.13</ele>
        <time>2021-08-02T09:48:15Z</time>
      </trkpt>
      <trkpt lat="42.31116" lon="0.4206">
        <ele>1043.36</ele>
        <time>2021-08-02T09:48:16Z</time>
      </trkpt>
      <trkpt lat="42.31146" lon="0.42035">
        <ele>1043.82</ele>
        <time>2021-08-02T09:48:20Z</time>
      </trkpt>
      <trkpt lat="42.3117" lon="0.42025">
        <ele>1043.88</ele>
        <time>2021-08-02T09:48:23Z</time>
      </trkpt>
    </trkseg>
  </trk>
  <trk>
    <name><![CDATA[J6]]></name>
    <extensions>
      <line xmlns="http://www.topografix.com/GPX/gpx_style/0/2">
        <color>0000FF</color>
        <width>4</width>
      </line>
    </extensions>
    <trkseg>
      <trkpt lat="42.28325" lon="-1.27263">
        <ele>442.68</ele>
        <time>2021-08-04T08:40:30Z</time>
      </trkpt>
      <trkpt lat="42.28325" lon="-1.27263">
        <ele>442.9</ele>
        <time>2021-08-04T08:40:31Z</time>
      </trkpt>
      <trkpt lat="42.28323" lon="-1.27269">
        <ele>442.95</ele>
        <time>2021-08-04T08:40:34Z</time>
      </trkpt>
      <trkpt lat="42.28318" lon="-1.27347">
        <ele>443.82</ele>
        <time>2021-08-04T08:40:41Z</time>
      </trkpt>
      <trkpt lat="42.28313" lon="-1.27483">
        <ele>444.29</ele>
        <time>2021-08-04T08:40:50Z</time>
      </trkpt>
      <trkpt lat="42.28282" lon="-1.27602">
        <ele>443.25</ele>
        <time>2021-08-04T08:40:59Z</time>
      </trkpt>
      <trkpt lat="42.28247" lon="-1.27743">
        <ele>442.44</ele>
        <time>2021-08-04T08:41:09Z</time>
      </trkpt>
      <trkpt lat="42.28245" lon="-1.27834">
        <ele>441.81</ele>
        <time>2021-08-04T08:41:15Z</time>
      </trkpt>
      <trkpt lat="42.28279" lon="-1.28005">
        <ele>441.83</ele>
        <time>2021-08-04T08:41:24Z</time>
      </trkpt>
      <trkpt lat="42.28335" lon="-1.28275">
        <ele>442.33</ele>
        <time>2021-08-04T08:41:36Z</time>
      </trkpt>
      <trkpt lat="42.28404" lon="-1.2857">
        <ele>441.96</ele>
        <time>2021-08-04T08:41:49Z</time>
      </trkpt>
      <trkpt lat="42.28478" lon="-1.28755">
        <ele>445.07</ele>
        <time>2021-08-04T08:41:57Z</time>
      </trkpt>
      <trkpt lat="42.28529" lon="-1.28921">
        <ele>448.43</ele>
        <time>2021-08-04T08:42:04Z</time>
      </trkpt>
      <trkpt lat="42.28545" lon="-1.29128">
        <ele>448.66</ele>
        <time>2021-08-04T08:42:12Z</time>
      </trkpt>
      <trkpt lat="42.28521" lon="-1.29298">
        <ele>445.25</ele>
        <time>2021-08-04T08:42:18Z</time>
      </trkpt>
      <trkpt lat="42.28493" lon="-1.29409">
        <ele>441.68</ele>
        <time>2021-08-04T08:42:22Z</time>
      </trkpt>
      <trkpt lat="42.28489" lon="-1.29438">
        <ele>440.64</ele>
        <time>2021-08-04T08:42:23Z</time>
      </trkpt>
      <trkpt lat="42.28488" lon="-1.29562">
        <ele>436.67</ele>
        <time>2021-08-04T08:42:27Z</time>
      </trkpt>
      <trkpt lat="42.28506" lon="-1.29722">
        <ele>432.41</ele>
        <time>2021-08-04T08:42:32Z</time>
      </trkpt>
      <trkpt lat="42.28531" lon="-1.29842">
        <ele>429.18</ele>
        <time>2021-08-04T08:42:36Z</time>
      </trkpt>
      <trkpt lat="42.28627" lon="-1.29997">
        <ele>425.08</ele>
        <time>2021-08-04T08:42:43Z</time>
      </trkpt>
      <trkpt lat="42.28685" lon="-1.30155">
        <ele>422.05</ele>
        <time>2021-08-04T08:42:49Z</time>
      </trkpt>
      <trkpt lat="42.28769" lon="-1.30524">
        <ele>421.2</ele>
        <time>2021-08-04T08:43:01Z</time>
      </trkpt>
      <trkpt lat="42.28831" lon="-1.30825">
        <ele>421.26</ele>
        <time>2021-08-04T08:43:11Z</time>
      </trkpt>
      <trkpt lat="42.2885" lon="-1.31115">
        <ele>419.61</ele>
        <time>2021-08-04T08:43:20Z</time>
      </trkpt>
      <trkpt lat="42.28869" lon="-1.31357">
        <ele>416.32</ele>
        <time>2021-08-04T08:43:27Z</time>
      </trkpt>
      <trkpt lat="42.28902" lon="-1.31631">
        <ele>413.28</ele>
        <time>2021-08-04T08:43:35Z</time>
      </trkpt>
      <trkpt lat="42.28942" lon="-1.31981">
        <ele>410.82</ele>
        <time>2021-08-04T08:43:46Z</time>
      </trkpt>
      <trkpt lat="42.28987" lon="-1.32306">
        <ele>411.69</ele>
        <time>2021-08-04T08:43:56Z</time>
      </trkpt>
      <trkpt lat="42.29039" lon="-1.32496">
        <ele>411.81</ele>
        <time>2021-08-04T08:44:03Z</time>
      </trkpt>
      <trkpt lat="42.2912" lon="-1.32671">
        <ele>413.06</ele>
        <time>2021-08-04T08:44:10Z</time>
      </trkpt>
      <trkpt lat="42.29257" lon="-1.32867">
        <ele>416.14</ele>
        <time>2021-08-04T08:44:19Z</time>
      </trkpt>
      <trkpt lat="42.29363" lon="-1.3302">
        <ele>419.15</ele>
        <time>2021-08-04T08:44:26Z</time>
      </trkpt>
      <trkpt lat="42.29532" lon="-1.33284">
        <ele>421.84</ele>
        <time>2021-08-04T08:44:38Z</time>
      </trkpt>
      <trkpt lat="42.29636" lon="-1.33545">
        <ele>418.9</ele>
        <time>2021-08-04T08:44:48Z</time>
      </trkpt>
      <trkpt lat="42.29664" lon="-1.33655">
        <ele>415.56</ele>
        <time>2021-08-04T08:44:52Z</time>
      </trkpt>
      <trkpt lat="42.29685" lon="-1.33774">
        <ele>411.75</ele>
        <time>2021-08-04T08:44:56Z</time>
      </trkpt>
      <trkpt lat="42.29697" lon="-1.33896">
        <ele>407.74</ele>
        <time>2021-08-04T08:45:00Z</time>
      </trkpt>
      <trkpt lat="42.29702" lon="-1.33987">
        <ele>404.66</ele>
        <time>2021-08-04T08:45:03Z</time>
      </trkpt>
      <trkpt lat="42.29713" lon="-1.34079">
        <ele>401.54</ele>
        <time>2021-08-04T08:45:06Z</time>
      </trkpt>
      <trkpt lat="42.29745" lon="-1.342">
        <ele>397.84</ele>
        <time>2021-08-04T08:45:10Z</time>
      </trkpt>
      <trkpt lat="42.2981" lon="-1.34372">
        <ele>394.78</ele>
        <time>2021-08-04T08:45:16Z</time>
      </trkpt>
      <trkpt lat="42.29867" lon="-1.34513">
        <ele>393.72</ele>
        <time>2021-08-04T08:45:21Z</time>
      </trkpt>
      <trkpt lat="42.29954" lon="-1.34628">
        <ele>393.43</ele>
        <time>2021-08-04T08:45:26Z</time>
      </trkpt>
      <trkpt lat="42.30225" lon="-1.349">
        <ele>394.72</ele>
        <time>2021-08-04T08:45:40Z</time>
      </trkpt>
      <trkpt lat="42.30411" lon="-1.35211">
        <ele>395.3</ele>
        <time>2021-08-04T08:45:52Z</time>
      </trkpt>
      <trkpt lat="42.30566" lon="-1.35499">
        <ele>394.94</ele>
        <time>2021-08-04T08:46:03Z</time>
      </trkpt>
      <trkpt lat="42.30672" lon="-1.35632">
        <ele>396.66</ele>
        <time>2021-08-04T08:46:10Z</time>
      </trkpt>
      <trkpt lat="42.30832" lon="-1.35738">
        <ele>395.62</ele>
        <time>2021-08-04T08:46:19Z</time>
      </trkpt>
      <trkpt lat="42.30975" lon="-1.35868">
        <ele>393.02</ele>
        <time>2021-08-04T08:46:27Z</time>
      </trkpt>
      <trkpt lat="42.31213" lon="-1.36118">
        <ele>390.57</ele>
        <time>2021-08-04T08:46:41Z</time>
      </trkpt>
      <trkpt lat="42.31387" lon="-1.36289">
        <ele>389.61</ele>
        <time>2021-08-04T08:46:51Z</time>
      </trkpt>
      <trkpt lat="42.3147" lon="-1.36461">
        <ele>388.91</ele>
        <time>2021-08-04T08:46:58Z</time>
      </trkpt>
      <trkpt lat="42.31538" lon="-1.36649">
        <ele>385.63</ele>
        <time>2021-08-04T08:47:05Z</time>
      </trkpt>
      <trkpt lat="42.31598" lon="-1.36815">
        <ele>382.53</ele>
        <time>2021-08-04T08:47:11Z</time>
      </trkpt>
      <trkpt lat="42.31782" lon="-1.37316">
        <ele>380.67</ele>
        <time>2021-08-04T08:47:29Z</time>
      </trkpt>
      <trkpt lat="42.31885" lon="-1.37507">
        <ele>380.35</ele>
        <time>2021-08-04T08:47:37Z</time>
      </trkpt>
      <trkpt lat="42.32057" lon="-1.37803">
        <ele>382.11</ele>
        <time>2021-08-04T08:47:49Z</time>
      </trkpt>
      <trkpt lat="42.32208" lon="-1.38033">
        <ele>383.26</ele>
        <time>2021-08-04T08:47:59Z</time>
      </trkpt>
      <trkpt lat="42.32443" lon="-1.38352">
        <ele>381.88</ele>
        <time>2021-08-04T08:48:13Z</time>
      </trkpt>
      <trkpt lat="42.32659" lon="-1.38648">
        <ele>379.73</ele>
        <time>2021-08-04T08:48:26Z</time>
      </trkpt>
      <trkpt lat="42.32915" lon="-1.39">
        <ele>378.03</ele>
        <time>2021-08-04T08:48:41Z</time>
      </trkpt>
      <trkpt lat="42.33127" lon="-1.39291">
        <ele>376.82</ele>
        <time>2021-08-04T08:48:54Z</time>
      </trkpt>
      <trkpt lat="42.33333" lon="-1.39572">
        <ele>378.21</ele>
        <time>2021-08-04T08:49:07Z</time>
      </trkpt>
      <trkpt lat="42.33612" lon="-1.39954">
        <ele>375.79</ele>
        <time>2021-08-04T08:49:24Z</time>
      </trkpt>
      <trkpt lat="42.33818" lon="-1.40238">
        <ele>377.78</ele>
        <time>2021-08-04T08:49:37Z</time>
      </trkpt>
      <trkpt lat="42.3393" lon="-1.4042">
        <ele>380.02</ele>
        <time>2021-08-04T08:49:46Z</time>
      </trkpt>
      <trkpt lat="42.34056" lon="-1.40702">
        <ele>378.51</ele>
        <time>2021-08-04T08:49:58Z</time>
      </trkpt>
      <trkpt lat="42.34166" lon="-1.40951">
        <ele>381.7</ele>
        <time>2021-08-04T08:50:09Z</time>
      </trkpt>
    </trkseg>
  </trk>
  <trk>
    <name><![CDATA[TOTAL 4x4 _19]]></name>
    <extensions>
      <line xmlns="http://www.topografix.com/GPX/gpx_style/0/2">
        <color>000088</color>
        <width>4</width>
      </line>
    </extensions>
    <trkseg>
      <trkpt lat="42.3418" lon="-1.41025">
        <ele>379.66</ele>
        <time>2021-08-04T08:51:55Z</time>
      </trkpt>
      <trkpt lat="42.3411" lon="-1.41085">
        <ele>383.37</ele>
        <time>2021-08-04T08:52:06Z</time>
      </trkpt>
      <trkpt lat="42.34066" lon="-1.41122">
        <ele>384.59</ele>
        <time>2021-08-04T08:52:12Z</time>
      </trkpt>
      <trkpt lat="42.34015" lon="-1.41132">
        <ele>385.19</ele>
        <time>2021-08-04T08:52:17Z</time>
      </trkpt>
      <trkpt lat="42.33905" lon="-1.41134">
        <ele>385.97</ele>
        <time>2021-08-04T08:52:26Z</time>
      </trkpt>
      <trkpt lat="42.3386" lon="-1.41161">
        <ele>386.22</ele>
        <time>2021-08-04T08:52:30Z</time>
      </trkpt>
      <trkpt lat="42.33768" lon="-1.41269">
        <ele>387.6</ele>
        <time>2021-08-04T08:52:39Z</time>
      </trkpt>
      <trkpt lat="42.33724" lon="-1.41299">
        <ele>387.83</ele>
        <time>2021-08-04T08:52:43Z</time>
      </trkpt>
      <trkpt lat="42.33568" lon="-1.4136">
        <ele>388.98</ele>
        <time>2021-08-04T08:52:56Z</time>
      </trkpt>
      <trkpt lat="42.33493" lon="-1.41393">
        <ele>389.83</ele>
        <time>2021-08-04T08:53:03Z</time>
      </trkpt>
      <trkpt lat="42.33407" lon="-1.41379">
        <ele>390.66</ele>
        <time>2021-08-04T08:53:10Z</time>
      </trkpt>
      <trkpt lat="42.33159" lon="-1.41295">
        <ele>393.65</ele>
        <time>2021-08-04T08:53:29Z</time>
      </trkpt>
      <trkpt lat="42.32994" lon="-1.41243">
        <ele>396.84</ele>
        <time>2021-08-04T08:53:41Z</time>
      </trkpt>
      <trkpt lat="42.32806" lon="-1.41182">
        <ele>399.84</ele>
        <time>2021-08-04T08:53:54Z</time>
      </trkpt>
      <trkpt lat="42.32622" lon="-1.41121">
        <ele>400.35</ele>
        <time>2021-08-04T08:54:08Z</time>
      </trkpt>
      <trkpt lat="42.32519" lon="-1.41114">
        <ele>401.03</ele>
        <time>2021-08-04T08:54:16Z</time>
      </trkpt>
      <trkpt lat="42.32361" lon="-1.41129">
        <ele>403.63</ele>
        <time>2021-08-04T08:54:27Z</time>
      </trkpt>
      <trkpt lat="42.32178" lon="-1.41144">
        <ele>406.73</ele>
        <time>2021-08-04T08:54:41Z</time>
      </trkpt>
      <trkpt lat="42.32167" lon="-1.41145">
        <ele>406.86</ele>
        <time>2021-08-04T08:54:42Z</time>
      </trkpt>
      <trkpt lat="42.32101" lon="-1.41179">
        <ele>407.97</ele>
        <time>2021-08-04T08:54:49Z</time>
      </trkpt>
      <trkpt lat="42.31965" lon="-1.41144">
        <ele>409.52</ele>
        <time>2021-08-04T08:55:00Z</time>
      </trkpt>
      <trkpt lat="42.31844" lon="-1.41162">
        <ele>411.69</ele>
        <time>2021-08-04T08:55:08Z</time>
      </trkpt>
      <trkpt lat="42.31756" lon="-1.4118">
        <ele>412.87</ele>
        <time>2021-08-04T08:55:14Z</time>
      </trkpt>
      <trkpt lat="42.31685" lon="-1.41219">
        <ele>413.5</ele>
        <time>2021-08-04T08:55:19Z</time>
      </trkpt>
      <trkpt lat="42.31543" lon="-1.41349">
        <ele>410.33</ele>
        <time>2021-08-04T08:55:29Z</time>
      </trkpt>
      <trkpt lat="42.31438" lon="-1.41443">
        <ele>407.86</ele>
        <time>2021-08-04T08:55:37Z</time>
      </trkpt>
      <trkpt lat="42.31346" lon="-1.41466">
        <ele>406.17</ele>
        <time>2021-08-04T08:55:43Z</time>
      </trkpt>
      <trkpt lat="42.31258" lon="-1.41479">
        <ele>405.08</ele>
        <time>2021-08-04T08:55:49Z</time>
      </trkpt>
      <trkpt lat="42.31121" lon="-1.415">
        <ele>405.23</ele>
        <time>2021-08-04T08:55:57Z</time>
      </trkpt>
      <trkpt lat="42.30983" lon="-1.41559">
        <ele>406.69</ele>
        <time>2021-08-04T08:56:05Z</time>
      </trkpt>
      <trkpt lat="42.30842" lon="-1.4161">
        <ele>407.96</ele>
        <time>2021-08-04T08:56:13Z</time>
      </trkpt>
      <trkpt lat="42.30642" lon="-1.41657">
        <ele>408.56</ele>
        <time>2021-08-04T08:56:26Z</time>
      </trkpt>
      <trkpt lat="42.30558" lon="-1.41675">
        <ele>408.6</ele>
        <time>2021-08-04T08:56:35Z</time>
      </trkpt>
      <trkpt lat="42.30478" lon="-1.41682">
        <ele>408.38</ele>
        <time>2021-08-04T08:56:45Z</time>
      </trkpt>
      <trkpt lat="42.30356" lon="-1.41705">
        <ele>408.97</ele>
        <time>2021-08-04T08:56:55Z</time>
      </trkpt>
      <trkpt lat="42.30206" lon="-1.41738">
        <ele>408.42</ele>
        <time>2021-08-04T08:57:06Z</time>
      </trkpt>
      <trkpt lat="42.30152" lon="-1.4179">
        <ele>407.03</ele>
        <time>2021-08-04T08:57:11Z</time>
      </trkpt>
      <trkpt lat="42.30147" lon="-1.41825">
        <ele>406.46</ele>
        <time>2021-08-04T08:57:13Z</time>
      </trkpt>
      <trkpt lat="42.30143" lon="-1.41888">
        <ele>405.46</ele>
        <time>2021-08-04T08:57:17Z</time>
      </trkpt>
      <trkpt lat="42.30095" lon="-1.42041">
        <ele>402.05</ele>
        <time>2021-08-04T08:57:27Z</time>
      </trkpt>
      <trkpt lat="42.30065" lon="-1.42128">
        <ele>400.09</ele>
        <time>2021-08-04T08:57:33Z</time>
      </trkpt>
      <trkpt lat="42.30024" lon="-1.4217">
        <ele>398.62</ele>
        <time>2021-08-04T08:57:37Z</time>
      </trkpt>
      <trkpt lat="42.29958" lon="-1.42213">
        <ele>397.63</ele>
        <time>2021-08-04T08:57:42Z</time>
      </trkpt>
      <trkpt lat="42.2985" lon="-1.42242">
        <ele>395.29</ele>
        <time>2021-08-04T08:57:50Z</time>
      </trkpt>
      <trkpt lat="42.29837" lon="-1.42241">
        <ele>395</ele>
        <time>2021-08-04T08:57:51Z</time>
      </trkpt>
      <trkpt lat="42.29738" lon="-1.42203">
        <ele>392.17</ele>
        <time>2021-08-04T08:57:59Z</time>
      </trkpt>
      <trkpt lat="42.29664" lon="-1.42164">
        <ele>388.91</ele>
        <time>2021-08-04T08:58:06Z</time>
      </trkpt>
      <trkpt lat="42.29641" lon="-1.42148">
        <ele>388.12</ele>
        <time>2021-08-04T08:58:08Z</time>
      </trkpt>
      <trkpt lat="42.29549" lon="-1.4211">
        <ele>386.81</ele>
        <time>2021-08-04T08:58:15Z</time>
      </trkpt>
      <trkpt lat="42.29458" lon="-1.42057">
        <ele>386.79</ele>
        <time>2021-08-04T08:58:22Z</time>
      </trkpt>
      <trkpt lat="42.29382" lon="-1.41972">
        <ele>385.33</ele>
        <time>2021-08-04T08:58:29Z</time>
      </trkpt>
      <trkpt lat="42.29313" lon="-1.41854">
        <ele>384.76</ele>
        <time>2021-08-04T08:58:37Z</time>
      </trkpt>
      <trkpt lat="42.29306" lon="-1.4184">
        <ele>384.8</ele>
        <time>2021-08-04T08:58:38Z</time>
      </trkpt>
      <trkpt lat="42.29256" lon="-1.4181">
        <ele>385.21</ele>
        <time>2021-08-04T08:58:43Z</time>
      </trkpt>
      <trkpt lat="42.29242" lon="-1.41815">
        <ele>385.29</ele>
        <time>2021-08-04T08:58:44Z</time>
      </trkpt>
      <trkpt lat="42.29202" lon="-1.41826">
        <ele>386.07</ele>
        <time>2021-08-04T08:58:47Z</time>
      </trkpt>
      <trkpt lat="42.29088" lon="-1.41798">
        <ele>387.29</ele>
        <time>2021-08-04T08:58:55Z</time>
      </trkpt>
      <trkpt lat="42.28968" lon="-1.41744">
        <ele>387.92</ele>
        <time>2021-08-04T08:59:03Z</time>
      </trkpt>
      <trkpt lat="42.28817" lon="-1.41758">
        <ele>387.16</ele>
        <time>2021-08-04T08:59:12Z</time>
      </trkpt>
      <trkpt lat="42.28582" lon="-1.41788">
        <ele>384.26</ele>
        <time>2021-08-04T08:59:27Z</time>
      </trkpt>
      <trkpt lat="42.28532" lon="-1.41781">
        <ele>383.83</ele>
        <time>2021-08-04T08:59:31Z</time>
      </trkpt>
      <trkpt lat="42.2849" lon="-1.41756">
        <ele>383.42</ele>
        <time>2021-08-04T08:59:35Z</time>
      </trkpt>
      <trkpt lat="42.28429" lon="-1.4171">
        <ele>382.35</ele>
        <time>2021-08-04T08:59:41Z</time>
      </trkpt>
      <trkpt lat="42.28366" lon="-1.41697">
        <ele>380.68</ele>
        <time>2021-08-04T08:59:46Z</time>
      </trkpt>
      <trkpt lat="42.28263" lon="-1.41641">
        <ele>379.79</ele>
        <time>2021-08-04T08:59:54Z</time>
      </trkpt>
      <trkpt lat="42.28153" lon="-1.41615">
        <ele>379.83</ele>
        <time>2021-08-04T09:00:02Z</time>
      </trkpt>
      <trkpt lat="42.28001" lon="-1.41587">
        <ele>379.57</ele>
        <time>2021-08-04T09:00:12Z</time>
      </trkpt>
      <trkpt lat="42.27812" lon="-1.41571">
        <ele>376.5</ele>
        <time>2021-08-04T09:00:25Z</time>
      </trkpt>
      <trkpt lat="42.27707" lon="-1.41533">
        <ele>374.05</ele>
        <time>2021-08-04T09:00:33Z</time>
      </trkpt>
      <trkpt lat="42.27594" lon="-1.41547">
        <ele>373.18</ele>
        <time>2021-08-04T09:00:41Z</time>
      </trkpt>
      <trkpt lat="42.27422" lon="-1.41575">
        <ele>374.17</ele>
        <time>2021-08-04T09:00:52Z</time>
      </trkpt>
      <trkpt lat="42.27396" lon="-1.41578">
        <ele>374.14</ele>
        <time>2021-08-04T09:00:54Z</time>
      </trkpt>
      <trkpt lat="42.27338" lon="-1.41628">
        <ele>373.95</ele>
        <time>2021-08-04T09:01:00Z</time>
      </trkpt>
      <trkpt lat="42.27282" lon="-1.41635">
        <ele>373.26</ele>
        <time>2021-08-04T09:01:05Z</time>
      </trkpt>
      <trkpt lat="42.27213" lon="-1.41659">
        <ele>372.33</ele>
        <time>2021-08-04T09:01:11Z</time>
      </trkpt>
      <trkpt lat="42.27204" lon="-1.41668">
        <ele>372.08</ele>
        <time>2021-08-04T09:01:12Z</time>
      </trkpt>
      <trkpt lat="42.27139" lon="-1.4169">
        <ele>370.37</ele>
        <time>2021-08-04T09:01:18Z</time>
      </trkpt>
      <trkpt lat="42.27033" lon="-1.41669">
        <ele>366.83</ele>
        <time>2021-08-04T09:01:28Z</time>
      </trkpt>
      <trkpt lat="42.26933" lon="-1.41673">
        <ele>363.63</ele>
        <time>2021-08-04T09:01:36Z</time>
      </trkpt>
      <trkpt lat="42.26849" lon="-1.41713">
        <ele>361.83</ele>
        <time>2021-08-04T09:01:44Z</time>
      </trkpt>
      <trkpt lat="42.26782" lon="-1.41755">
        <ele>361.53</ele>
        <time>2021-08-04T09:01:51Z</time>
      </trkpt>
      <trkpt lat="42.26715" lon="-1.4184">
        <ele>360.89</ele>
        <time>2021-08-04T09:02:00Z</time>
      </trkpt>
      <trkpt lat="42.26709" lon="-1.4185">
        <ele>360.88</ele>
        <time>2021-08-04T09:02:01Z</time>
      </trkpt>
      <trkpt lat="42.26654" lon="-1.41878">
        <ele>361.42</ele>
        <time>2021-08-04T09:02:07Z</time>
      </trkpt>
      <trkpt lat="42.26557" lon="-1.41869">
        <ele>364.27</ele>
        <time>2021-08-04T09:02:17Z</time>
      </trkpt>
      <trkpt lat="42.26518" lon="-1.4185">
        <ele>365.7</ele>
        <time>2021-08-04T09:02:21Z</time>
      </trkpt>
      <trkpt lat="42.2648" lon="-1.41844">
        <ele>366.29</ele>
        <time>2021-08-04T09:02:25Z</time>
      </trkpt>
      <trkpt lat="42.26349" lon="-1.41856">
        <ele>366.32</ele>
        <time>2021-08-04T09:02:36Z</time>
      </trkpt>
      <trkpt lat="42.26199" lon="-1.41894">
        <ele>366.46</ele>
        <time>2021-08-04T09:02:48Z</time>
      </trkpt>
      <trkpt lat="42.26187" lon="-1.41896">
        <ele>366.49</ele>
        <time>2021-08-04T09:02:49Z</time>
      </trkpt>
      <trkpt lat="42.26023" lon="-1.41882">
        <ele>367.3</ele>
        <time>2021-08-04T09:03:02Z</time>
      </trkpt>
      <trkpt lat="42.25897" lon="-1.41871">
        <ele>367.88</ele>
        <time>2021-08-04T09:03:13Z</time>
      </trkpt>
      <trkpt lat="42.25788" lon="-1.41848">
        <ele>368.04</ele>
        <time>2021-08-04T09:03:24Z</time>
      </trkpt>
      <trkpt lat="42.25744" lon="-1.41837">
        <ele>368.31</ele>
        <time>2021-08-04T09:03:28Z</time>
      </trkpt>
      <trkpt lat="42.25711" lon="-1.41809">
        <ele>368.7</ele>
        <time>2021-08-04T09:03:32Z</time>
      </trkpt>
      <trkpt lat="42.25655" lon="-1.4172">
        <ele>369</ele>
        <time>2021-08-04T09:03:43Z</time>
      </trkpt>
      <trkpt lat="42.25581" lon="-1.41609">
        <ele>370.61</ele>
        <time>2021-08-04T09:03:55Z</time>
      </trkpt>
      <trkpt lat="42.25563" lon="-1.41583">
        <ele>370.62</ele>
        <time>2021-08-04T09:03:58Z</time>
      </trkpt>
      <trkpt lat="42.25522" lon="-1.41516">
        <ele>369.94</ele>
        <time>2021-08-04T09:04:06Z</time>
      </trkpt>
      <trkpt lat="42.25493" lon="-1.41523">
        <ele>369.58</ele>
        <time>2021-08-04T09:04:10Z</time>
      </trkpt>
      <trkpt lat="42.25403" lon="-1.41595">
        <ele>368.87</ele>
        <time>2021-08-04T09:04:20Z</time>
      </trkpt>
      <trkpt lat="42.25385" lon="-1.4161">
        <ele>368.81</ele>
        <time>2021-08-04T09:04:22Z</time>
      </trkpt>
      <trkpt lat="42.25369" lon="-1.41627">
        <ele>368.74</ele>
        <time>2021-08-04T09:04:24Z</time>
      </trkpt>
      <trkpt lat="42.25301" lon="-1.41737">
        <ele>368.97</ele>
        <time>2021-08-04T09:04:35Z</time>
      </trkpt>
      <trkpt lat="42.25256" lon="-1.41779">
        <ele>368.96</ele>
        <time>2021-08-04T09:04:41Z</time>
      </trkpt>
      <trkpt lat="42.25235" lon="-1.41814">
        <ele>368.68</ele>
        <time>2021-08-04T09:04:45Z</time>
      </trkpt>
      <trkpt lat="42.25186" lon="-1.41894">
        <ele>368.89</ele>
        <time>2021-08-04T09:04:55Z</time>
      </trkpt>
      <trkpt lat="42.25177" lon="-1.41944">
        <ele>369.29</ele>
        <time>2021-08-04T09:05:00Z</time>
      </trkpt>
      <trkpt lat="42.25179" lon="-1.41985">
        <ele>369.37</ele>
        <time>2021-08-04T09:05:04Z</time>
      </trkpt>
      <trkpt lat="42.25197" lon="-1.42035">
        <ele>369.72</ele>
        <time>2021-08-04T09:05:09Z</time>
      </trkpt>
      <trkpt lat="42.25214" lon="-1.42067">
        <ele>369.67</ele>
        <time>2021-08-04T09:05:12Z</time>
      </trkpt>
      <trkpt lat="42.25223" lon="-1.42116">
        <ele>368.85</ele>
        <time>2021-08-04T09:05:16Z</time>
      </trkpt>
      <trkpt lat="42.25238" lon="-1.42248">
        <ele>367.66</ele>
        <time>2021-08-04T09:05:26Z</time>
      </trkpt>
      <trkpt lat="42.25245" lon="-1.42392">
        <ele>367.57</ele>
        <time>2021-08-04T09:05:37Z</time>
      </trkpt>
      <trkpt lat="42.25253" lon="-1.42514">
        <ele>367.05</ele>
        <time>2021-08-04T09:05:48Z</time>
      </trkpt>
      <trkpt lat="42.25285" lon="-1.42634">
        <ele>366.4</ele>
        <time>2021-08-04T09:05:58Z</time>
      </trkpt>
      <trkpt lat="42.25316" lon="-1.42763">
        <ele>365.07</ele>
        <time>2021-08-04T09:06:09Z</time>
      </trkpt>
      <trkpt lat="42.25361" lon="-1.42858">
        <ele>363.57</ele>
        <time>2021-08-04T09:06:20Z</time>
      </trkpt>
      <trkpt lat="42.25354" lon="-1.4291">
        <ele>363.68</ele>
        <time>2021-08-04T09:06:26Z</time>
      </trkpt>
      <trkpt lat="42.25338" lon="-1.42924">
        <ele>363.97</ele>
        <time>2021-08-04T09:06:28Z</time>
      </trkpt>
      <trkpt lat="42.25247" lon="-1.42991">
        <ele>363.07</ele>
        <time>2021-08-04T09:06:39Z</time>
      </trkpt>
      <trkpt lat="42.25221" lon="-1.43036">
        <ele>362.82</ele>
        <time>2021-08-04T09:06:44Z</time>
      </trkpt>
      <trkpt lat="42.25204" lon="-1.4308">
        <ele>362.42</ele>
        <time>2021-08-04T09:06:48Z</time>
      </trkpt>
      <trkpt lat="42.25175" lon="-1.43106">
        <ele>361.4</ele>
        <time>2021-08-04T09:06:52Z</time>
      </trkpt>
      <trkpt lat="42.25124" lon="-1.43116">
        <ele>360.23</ele>
        <time>2021-08-04T09:06:58Z</time>
      </trkpt>
      <trkpt lat="42.25044" lon="-1.43088">
        <ele>358.27</ele>
        <time>2021-08-04T09:07:07Z</time>
      </trkpt>
      <trkpt lat="42.24923" lon="-1.43106">
        <ele>355.23</ele>
        <time>2021-08-04T09:07:19Z</time>
      </trkpt>
      <trkpt lat="42.24759" lon="-1.43123">
        <ele>352.78</ele>
        <time>2021-08-04T09:07:36Z</time>
      </trkpt>
      <trkpt lat="42.24723" lon="-1.43131">
        <ele>352.5</ele>
        <time>2021-08-04T09:07:40Z</time>
      </trkpt>
      <trkpt lat="42.2469" lon="-1.43159">
        <ele>352.01</ele>
        <time>2021-08-04T09:07:44Z</time>
      </trkpt>
      <trkpt lat="42.24598" lon="-1.43305">
        <ele>349.34</ele>
        <time>2021-08-04T09:07:56Z</time>
      </trkpt>
      <trkpt lat="42.24581" lon="-1.43327">
        <ele>348.76</ele>
        <time>2021-08-04T09:07:58Z</time>
      </trkpt>
      <trkpt lat="42.24483" lon="-1.43385">
        <ele>346.36</ele>
        <time>2021-08-04T09:08:07Z</time>
      </trkpt>
      <trkpt lat="42.24367" lon="-1.4345">
        <ele>344.5</ele>
        <time>2021-08-04T09:08:19Z</time>
      </trkpt>
      <trkpt lat="42.24243" lon="-1.43521">
        <ele>345.04</ele>
        <time>2021-08-04T09:08:32Z</time>
      </trkpt>
      <trkpt lat="42.24204" lon="-1.43529">
        <ele>345.14</ele>
        <time>2021-08-04T09:08:36Z</time>
      </trkpt>
      <trkpt lat="42.24171" lon="-1.43522">
        <ele>344.78</ele>
        <time>2021-08-04T09:08:39Z</time>
      </trkpt>
      <trkpt lat="42.24125" lon="-1.4353">
        <ele>343.78</ele>
        <time>2021-08-04T09:08:44Z</time>
      </trkpt>
      <trkpt lat="42.24091" lon="-1.4355">
        <ele>343.47</ele>
        <time>2021-08-04T09:08:48Z</time>
      </trkpt>
      <trkpt lat="42.23997" lon="-1.43655">
        <ele>344.44</ele>
        <time>2021-08-04T09:09:01Z</time>
      </trkpt>
      <trkpt lat="42.23894" lon="-1.43772">
        <ele>346.09</ele>
        <time>2021-08-04T09:09:15Z</time>
      </trkpt>
      <trkpt lat="42.23784" lon="-1.43883">
        <ele>347.01</ele>
        <time>2021-08-04T09:09:28Z</time>
      </trkpt>
      <trkpt lat="42.23677" lon="-1.4403">
        <ele>347.81</ele>
        <time>2021-08-04T09:09:42Z</time>
      </trkpt>
      <trkpt lat="42.23669" lon="-1.44041">
        <ele>348.05</ele>
        <time>2021-08-04T09:09:43Z</time>
      </trkpt>
      <trkpt lat="42.23609" lon="-1.44188">
        <ele>351.3</ele>
        <time>2021-08-04T09:09:55Z</time>
      </trkpt>
      <trkpt lat="42.23564" lon="-1.44309">
        <ele>352.86</ele>
        <time>2021-08-04T09:10:05Z</time>
      </trkpt>
      <trkpt lat="42.23567" lon="-1.44359">
        <ele>352.97</ele>
        <time>2021-08-04T09:10:10Z</time>
      </trkpt>
      <trkpt lat="42.23582" lon="-1.44408">
        <ele>352.82</ele>
        <time>2021-08-04T09:10:14Z</time>
      </trkpt>
      <trkpt lat="42.23588" lon="-1.44556">
        <ele>352.14</ele>
        <time>2021-08-04T09:10:24Z</time>
      </trkpt>
      <trkpt lat="42.23585" lon="-1.44614">
        <ele>351.52</ele>
        <time>2021-08-04T09:10:28Z</time>
      </trkpt>
      <trkpt lat="42.23552" lon="-1.44683">
        <ele>351.92</ele>
        <time>2021-08-04T09:10:34Z</time>
      </trkpt>
      <trkpt lat="42.23436" lon="-1.44782">
        <ele>350.45</ele>
        <time>2021-08-04T09:10:46Z</time>
      </trkpt>
      <trkpt lat="42.23363" lon="-1.44853">
        <ele>347.36</ele>
        <time>2021-08-04T09:10:53Z</time>
      </trkpt>
      <trkpt lat="42.23336" lon="-1.44892">
        <ele>346.62</ele>
        <time>2021-08-04T09:10:57Z</time>
      </trkpt>
      <trkpt lat="42.23292" lon="-1.45017">
        <ele>347.22</ele>
        <time>2021-08-04T09:11:07Z</time>
      </trkpt>
      <trkpt lat="42.23226" lon="-1.45119">
        <ele>348.68</ele>
        <time>2021-08-04T09:11:16Z</time>
      </trkpt>
      <trkpt lat="42.23117" lon="-1.45227">
        <ele>350.71</ele>
        <time>2021-08-04T09:11:28Z</time>
      </trkpt>
      <trkpt lat="42.23071" lon="-1.45278">
        <ele>350.55</ele>
        <time>2021-08-04T09:11:36Z</time>
      </trkpt>
      <trkpt lat="42.23029" lon="-1.45331">
        <ele>348.81</ele>
        <time>2021-08-04T09:11:46Z</time>
      </trkpt>
      <trkpt lat="42.23018" lon="-1.45355">
        <ele>348.47</ele>
        <time>2021-08-04T09:11:50Z</time>
      </trkpt>
      <trkpt lat="42.22996" lon="-1.45418">
        <ele>347.96</ele>
        <time>2021-08-04T09:11:58Z</time>
      </trkpt>
      <trkpt lat="42.22964" lon="-1.45446">
        <ele>346.8</ele>
        <time>2021-08-04T09:12:03Z</time>
      </trkpt>
      <trkpt lat="42.22888" lon="-1.45468">
        <ele>343.07</ele>
        <time>2021-08-04T09:12:11Z</time>
      </trkpt>
      <trkpt lat="42.22878" lon="-1.45471">
        <ele>342.37</ele>
        <time>2021-08-04T09:12:12Z</time>
      </trkpt>
      <trkpt lat="42.22817" lon="-1.45522">
        <ele>338.74</ele>
        <time>2021-08-04T09:12:19Z</time>
      </trkpt>
      <trkpt lat="42.22784" lon="-1.45539">
        <ele>336.94</ele>
        <time>2021-08-04T09:12:23Z</time>
      </trkpt>
      <trkpt lat="42.22685" lon="-1.45548">
        <ele>333.7</ele>
        <time>2021-08-04T09:12:33Z</time>
      </trkpt>
      <trkpt lat="42.22566" lon="-1.45557">
        <ele>330.71</ele>
        <time>2021-08-04T09:12:44Z</time>
      </trkpt>
      <trkpt lat="42.22466" lon="-1.45594">
        <ele>327.04</ele>
        <time>2021-08-04T09:12:54Z</time>
      </trkpt>
      <trkpt lat="42.22364" lon="-1.45627">
        <ele>324.01</ele>
        <time>2021-08-04T09:13:06Z</time>
      </trkpt>
      <trkpt lat="42.22305" lon="-1.45655">
        <ele>322.35</ele>
        <time>2021-08-04T09:13:16Z</time>
      </trkpt>
      <trkpt lat="42.22269" lon="-1.45676">
        <ele>320.89</ele>
        <time>2021-08-04T09:13:24Z</time>
      </trkpt>
      <trkpt lat="42.22152" lon="-1.4574">
        <ele>320.82</ele>
        <time>2021-08-04T09:13:38Z</time>
      </trkpt>
      <trkpt lat="42.22066" lon="-1.45824">
        <ele>320.85</ele>
        <time>2021-08-04T09:13:48Z</time>
      </trkpt>
      <trkpt lat="42.22026" lon="-1.45929">
        <ele>321.08</ele>
        <time>2021-08-04T09:13:56Z</time>
      </trkpt>
      <trkpt lat="42.22005" lon="-1.46093">
        <ele>319.47</ele>
        <time>2021-08-04T09:14:07Z</time>
      </trkpt>
      <trkpt lat="42.22001" lon="-1.46107">
        <ele>319.24</ele>
        <time>2021-08-04T09:14:08Z</time>
      </trkpt>
      <trkpt lat="42.21955" lon="-1.46165">
        <ele>316.73</ele>
        <time>2021-08-04T09:14:14Z</time>
      </trkpt>
      <trkpt lat="42.21933" lon="-1.46176">
        <ele>315.83</ele>
        <time>2021-08-04T09:14:16Z</time>
      </trkpt>
      <trkpt lat="42.2188" lon="-1.46229">
        <ele>313.88</ele>
        <time>2021-08-04T09:14:21Z</time>
      </trkpt>
      <trkpt lat="42.21813" lon="-1.46329">
        <ele>310.33</ele>
        <time>2021-08-04T09:14:29Z</time>
      </trkpt>
      <trkpt lat="42.21806" lon="-1.4634">
        <ele>309.77</ele>
        <time>2021-08-04T09:14:30Z</time>
      </trkpt>
      <trkpt lat="42.21768" lon="-1.46347">
        <ele>307.03</ele>
        <time>2021-08-04T09:14:36Z</time>
      </trkpt>
      <trkpt lat="42.2176" lon="-1.46317">
        <ele>306.52</ele>
        <time>2021-08-04T09:14:38Z</time>
      </trkpt>
      <trkpt lat="42.21681" lon="-1.46152">
        <ele>305.5</ele>
        <time>2021-08-04T09:14:52Z</time>
      </trkpt>
      <trkpt lat="42.21575" lon="-1.46019">
        <ele>305.68</ele>
        <time>2021-08-04T09:15:06Z</time>
      </trkpt>
      <trkpt lat="42.21502" lon="-1.45892">
        <ele>305.97</ele>
        <time>2021-08-04T09:15:19Z</time>
      </trkpt>
      <trkpt lat="42.21452" lon="-1.458">
        <ele>304.38</ele>
        <time>2021-08-04T09:15:29Z</time>
      </trkpt>
      <trkpt lat="42.21441" lon="-1.45783">
        <ele>304.31</ele>
        <time>2021-08-04T09:15:31Z</time>
      </trkpt>
      <trkpt lat="42.21412" lon="-1.45759">
        <ele>304.55</ele>
        <time>2021-08-04T09:15:35Z</time>
      </trkpt>
      <trkpt lat="42.21364" lon="-1.45732">
        <ele>305.58</ele>
        <time>2021-08-04T09:15:41Z</time>
      </trkpt>
      <trkpt lat="42.21335" lon="-1.45697">
        <ele>304.64</ele>
        <time>2021-08-04T09:15:49Z</time>
      </trkpt>
      <trkpt lat="42.21339" lon="-1.45701">
        <ele>303.11</ele>
        <time>2021-08-04T09:16:02Z</time>
      </trkpt>
      <trkpt lat="42.21304" lon="-1.45653">
        <ele>303.52</ele>
        <time>2021-08-04T09:16:10Z</time>
      </trkpt>
      <trkpt lat="42.2122" lon="-1.45545">
        <ele>304.73</ele>
        <time>2021-08-04T09:16:20Z</time>
      </trkpt>
      <trkpt lat="42.2113" lon="-1.45427">
        <ele>307.06</ele>
        <time>2021-08-04T09:16:32Z</time>
      </trkpt>
      <trkpt lat="42.2104" lon="-1.45303">
        <ele>307.35</ele>
        <time>2021-08-04T09:16:44Z</time>
      </trkpt>
      <trkpt lat="42.20948" lon="-1.45176">
        <ele>306.52</ele>
        <time>2021-08-04T09:16:56Z</time>
      </trkpt>
      <trkpt lat="42.2085" lon="-1.45048">
        <ele>305.73</ele>
        <time>2021-08-04T09:17:10Z</time>
      </trkpt>
      <trkpt lat="42.20773" lon="-1.44948">
        <ele>306.01</ele>
        <time>2021-08-04T09:17:23Z</time>
      </trkpt>
      <trkpt lat="42.20699" lon="-1.44849">
        <ele>308.95</ele>
        <time>2021-08-04T09:17:34Z</time>
      </trkpt>
      <trkpt lat="42.20606" lon="-1.44721">
        <ele>309.34</ele>
        <time>2021-08-04T09:17:46Z</time>
      </trkpt>
      <trkpt lat="42.2052" lon="-1.44606">
        <ele>310.73</ele>
        <time>2021-08-04T09:17:58Z</time>
      </trkpt>
      <trkpt lat="42.20472" lon="-1.44543">
        <ele>314.04</ele>
        <time>2021-08-04T09:18:06Z</time>
      </trkpt>
      <trkpt lat="42.20396" lon="-1.44449">
        <ele>316.87</ele>
        <time>2021-08-04T09:18:18Z</time>
      </trkpt>
      <trkpt lat="42.20329" lon="-1.44353">
        <ele>318.43</ele>
        <time>2021-08-04T09:18:30Z</time>
      </trkpt>
      <trkpt lat="42.20255" lon="-1.4425">
        <ele>318.99</ele>
        <time>2021-08-04T09:18:45Z</time>
      </trkpt>
      <trkpt lat="42.20197" lon="-1.44171">
        <ele>319.3</ele>
        <time>2021-08-04T09:18:58Z</time>
      </trkpt>
      <trkpt lat="42.2018" lon="-1.44138">
        <ele>319.39</ele>
        <time>2021-08-04T09:19:09Z</time>
      </trkpt>
      <trkpt lat="42.20178" lon="-1.44133">
        <ele>319.45</ele>
        <time>2021-08-04T09:19:11Z</time>
      </trkpt>
      <trkpt lat="42.20185" lon="-1.44125">
        <ele>319.63</ele>
        <time>2021-08-04T09:19:22Z</time>
      </trkpt>
      <trkpt lat="42.20185" lon="-1.44125">
        <ele>319.4</ele>
        <time>2021-08-04T09:21:45Z</time>
      </trkpt>
      <trkpt lat="42.20183" lon="-1.44135">
        <ele>319.54</ele>
        <time>2021-08-04T09:21:54Z</time>
      </trkpt>
      <trkpt lat="42.20172" lon="-1.44128">
        <ele>319.83</ele>
        <time>2021-08-04T09:22:12Z</time>
      </trkpt>
      <trkpt lat="42.20168" lon="-1.44124">
        <ele>319.85</ele>
        <time>2021-08-04T09:22:13Z</time>
      </trkpt>
      <trkpt lat="42.20164" lon="-1.4412">
        <ele>319.87</ele>
        <time>2021-08-04T09:22:14Z</time>
      </trkpt>
      <trkpt lat="42.20121" lon="-1.4406">
        <ele>320.07</ele>
        <time>2021-08-04T09:22:22Z</time>
      </trkpt>
      <trkpt lat="42.20051" lon="-1.43963">
        <ele>320.16</ele>
        <time>2021-08-04T09:22:35Z</time>
      </trkpt>
      <trkpt lat="42.19989" lon="-1.43881">
        <ele>320.62</ele>
        <time>2021-08-04T09:22:44Z</time>
      </trkpt>
      <trkpt lat="42.19927" lon="-1.43797">
        <ele>321.47</ele>
        <time>2021-08-04T09:22:53Z</time>
      </trkpt>
      <trkpt lat="42.19873" lon="-1.43715">
        <ele>322.3</ele>
        <time>2021-08-04T09:23:04Z</time>
      </trkpt>
      <trkpt lat="42.19862" lon="-1.4368">
        <ele>322.59</ele>
        <time>2021-08-04T09:23:08Z</time>
      </trkpt>
      <trkpt lat="42.19849" lon="-1.43555">
        <ele>325.14</ele>
        <time>2021-08-04T09:23:22Z</time>
      </trkpt>
      <trkpt lat="42.19847" lon="-1.43491">
        <ele>328.62</ele>
        <time>2021-08-04T09:23:31Z</time>
      </trkpt>
      <trkpt lat="42.19847" lon="-1.43449">
        <ele>331.85</ele>
        <time>2021-08-04T09:23:37Z</time>
      </trkpt>
      <trkpt lat="42.19845" lon="-1.43398">
        <ele>335.18</ele>
        <time>2021-08-04T09:23:44Z</time>
      </trkpt>
      <trkpt lat="42.19842" lon="-1.43361">
        <ele>337.6</ele>
        <time>2021-08-04T09:23:52Z</time>
      </trkpt>
      <trkpt lat="42.19853" lon="-1.43354">
        <ele>337.97</ele>
        <time>2021-08-04T09:23:58Z</time>
      </trkpt>
      <trkpt lat="42.19861" lon="-1.43373">
        <ele>338.2</ele>
        <time>2021-08-04T09:24:03Z</time>
      </trkpt>
      <trkpt lat="42.19884" lon="-1.43409">
        <ele>339.64</ele>
        <time>2021-08-04T09:24:15Z</time>
      </trkpt>
      <trkpt lat="42.19899" lon="-1.43437">
        <ele>341.1</ele>
        <time>2021-08-04T09:24:26Z</time>
      </trkpt>
      <trkpt lat="42.1992" lon="-1.43478">
        <ele>344.06</ele>
        <time>2021-08-04T09:24:37Z</time>
      </trkpt>
      <trkpt lat="42.19919" lon="-1.43515">
        <ele>346.3</ele>
        <time>2021-08-04T09:24:49Z</time>
      </trkpt>
      <trkpt lat="42.1992" lon="-1.43516">
        <ele>346.75</ele>
        <time>2021-08-04T09:25:03Z</time>
      </trkpt>
      <trkpt lat="42.1992" lon="-1.43516">
        <ele>347.54</ele>
        <time>2021-08-04T09:25:24Z</time>
      </trkpt>
      <trkpt lat="42.19921" lon="-1.43513">
        <ele>348.31</ele>
        <time>2021-08-04T09:40:43Z</time>
      </trkpt>
      <trkpt lat="42.1992" lon="-1.43513">
        <ele>348.31</ele>
        <time>2021-08-04T09:40:44Z</time>
      </trkpt>
      <trkpt lat="42.19923" lon="-1.43513">
        <ele>348.31</ele>
        <time>2021-08-04T09:41:08Z</time>
      </trkpt>
      <trkpt lat="42.1993" lon="-1.43505">
        <ele>346.37</ele>
        <time>2021-08-04T09:41:17Z</time>
      </trkpt>
      <trkpt lat="42.19926" lon="-1.43486">
        <ele>346.12</ele>
        <time>2021-08-04T09:41:23Z</time>
      </trkpt>
      <trkpt lat="42.19894" lon="-1.43427">
        <ele>345.64</ele>
        <time>2021-08-04T09:41:33Z</time>
      </trkpt>
      <trkpt lat="42.19859" lon="-1.4337">
        <ele>342.4</ele>
        <time>2021-08-04T09:41:41Z</time>
      </trkpt>
      <trkpt lat="42.19855" lon="-1.43363">
        <ele>341.93</ele>
        <time>2021-08-04T09:41:42Z</time>
      </trkpt>
      <trkpt lat="42.19831" lon="-1.43322">
        <ele>339</ele>
        <time>2021-08-04T09:41:49Z</time>
      </trkpt>
      <trkpt lat="42.19797" lon="-1.43201">
        <ele>337.4</ele>
        <time>2021-08-04T09:42:03Z</time>
      </trkpt>
      <trkpt lat="42.19763" lon="-1.4309">
        <ele>337.26</ele>
        <time>2021-08-04T09:42:14Z</time>
      </trkpt>
      <trkpt lat="42.19743" lon="-1.43032">
        <ele>336.77</ele>
        <time>2021-08-04T09:42:19Z</time>
      </trkpt>
      <trkpt lat="42.197" lon="-1.42937">
        <ele>337.05</ele>
        <time>2021-08-04T09:42:29Z</time>
      </trkpt>
      <trkpt lat="42.19678" lon="-1.42834">
        <ele>340.33</ele>
        <time>2021-08-04T09:42:37Z</time>
      </trkpt>
      <trkpt lat="42.1966" lon="-1.42656">
        <ele>342.72</ele>
        <time>2021-08-04T09:42:49Z</time>
      </trkpt>
      <trkpt lat="42.1964" lon="-1.42429">
        <ele>343.52</ele>
        <time>2021-08-04T09:43:05Z</time>
      </trkpt>
      <trkpt lat="42.1962" lon="-1.42238">
        <ele>344.5</ele>
        <time>2021-08-04T09:43:22Z</time>
      </trkpt>
      <trkpt lat="42.19609" lon="-1.42115">
        <ele>347.79</ele>
        <time>2021-08-04T09:43:33Z</time>
      </trkpt>
      <trkpt lat="42.19595" lon="-1.42023">
        <ele>351.14</ele>
        <time>2021-08-04T09:43:42Z</time>
      </trkpt>
      <trkpt lat="42.19569" lon="-1.41932">
        <ele>350.9</ele>
        <time>2021-08-04T09:43:52Z</time>
      </trkpt>
      <trkpt lat="42.19518" lon="-1.4177">
        <ele>351.53</ele>
        <time>2021-08-04T09:44:06Z</time>
      </trkpt>
      <trkpt lat="42.1947" lon="-1.41607">
        <ele>349.32</ele>
        <time>2021-08-04T09:44:21Z</time>
      </trkpt>
      <trkpt lat="42.19435" lon="-1.41493">
        <ele>348.45</ele>
        <time>2021-08-04T09:44:33Z</time>
      </trkpt>
      <trkpt lat="42.19394" lon="-1.41362">
        <ele>348.65</ele>
        <time>2021-08-04T09:44:47Z</time>
      </trkpt>
      <trkpt lat="42.19389" lon="-1.41347">
        <ele>348.67</ele>
        <time>2021-08-04T09:44:49Z</time>
      </trkpt>
      <trkpt lat="42.19362" lon="-1.41316">
        <ele>348.7</ele>
        <time>2021-08-04T09:44:55Z</time>
      </trkpt>
      <trkpt lat="42.19281" lon="-1.41281">
        <ele>348.82</ele>
        <time>2021-08-04T09:45:06Z</time>
      </trkpt>
      <trkpt lat="42.19161" lon="-1.41229">
        <ele>348.48</ele>
        <time>2021-08-04T09:45:19Z</time>
      </trkpt>
      <trkpt lat="42.19011" lon="-1.41176">
        <ele>347.57</ele>
        <time>2021-08-04T09:45:34Z</time>
      </trkpt>
      <trkpt lat="42.18865" lon="-1.41185">
        <ele>344.19</ele>
        <time>2021-08-04T09:45:46Z</time>
      </trkpt>
      <trkpt lat="42.18774" lon="-1.41188">
        <ele>341.11</ele>
        <time>2021-08-04T09:45:53Z</time>
      </trkpt>
      <trkpt lat="42.18674" lon="-1.4115">
        <ele>338.2</ele>
        <time>2021-08-04T09:46:01Z</time>
      </trkpt>
      <trkpt lat="42.18501" lon="-1.41045">
        <ele>335.15</ele>
        <time>2021-08-04T09:46:16Z</time>
      </trkpt>
      <trkpt lat="42.18358" lon="-1.40978">
        <ele>332.43</ele>
        <time>2021-08-04T09:46:29Z</time>
      </trkpt>
      <trkpt lat="42.18322" lon="-1.4095">
        <ele>331.82</ele>
        <time>2021-08-04T09:46:33Z</time>
      </trkpt>
      <trkpt lat="42.18262" lon="-1.40857">
        <ele>332.48</ele>
        <time>2021-08-04T09:46:44Z</time>
      </trkpt>
      <trkpt lat="42.1816" lon="-1.40762">
        <ele>334.34</ele>
        <time>2021-08-04T09:46:56Z</time>
      </trkpt>
      <trkpt lat="42.1811" lon="-1.4073">
        <ele>335.63</ele>
        <time>2021-08-04T09:47:01Z</time>
      </trkpt>
      <trkpt lat="42.18024" lon="-1.40729">
        <ele>338.21</ele>
        <time>2021-08-04T09:47:10Z</time>
      </trkpt>
      <trkpt lat="42.18006" lon="-1.4073">
        <ele>338.31</ele>
        <time>2021-08-04T09:47:12Z</time>
      </trkpt>
      <trkpt lat="42.17964" lon="-1.40753">
        <ele>338.26</ele>
        <time>2021-08-04T09:47:17Z</time>
      </trkpt>
      <trkpt lat="42.17853" lon="-1.40888">
        <ele>336.24</ele>
        <time>2021-08-04T09:47:31Z</time>
      </trkpt>
      <trkpt lat="42.17766" lon="-1.41067">
        <ele>335.21</ele>
        <time>2021-08-04T09:47:44Z</time>
      </trkpt>
      <trkpt lat="42.17713" lon="-1.41265">
        <ele>333.89</ele>
        <time>2021-08-04T09:47:58Z</time>
      </trkpt>
      <trkpt lat="42.17689" lon="-1.41309">
        <ele>333.31</ele>
        <time>2021-08-04T09:48:02Z</time>
      </trkpt>
      <trkpt lat="42.17592" lon="-1.41428">
        <ele>331.44</ele>
        <time>2021-08-04T09:48:15Z</time>
      </trkpt>
      <trkpt lat="42.1747" lon="-1.4158">
        <ele>329.44</ele>
        <time>2021-08-04T09:48:32Z</time>
      </trkpt>
      <trkpt lat="42.17382" lon="-1.41688">
        <ele>328.94</ele>
        <time>2021-08-04T09:48:43Z</time>
      </trkpt>
      <trkpt lat="42.17265" lon="-1.41835">
        <ele>329.28</ele>
        <time>2021-08-04T09:48:57Z</time>
      </trkpt>
      <trkpt lat="42.17145" lon="-1.41978">
        <ele>331.32</ele>
        <time>2021-08-04T09:49:12Z</time>
      </trkpt>
      <trkpt lat="42.17131" lon="-1.42002">
        <ele>331.59</ele>
        <time>2021-08-04T09:49:14Z</time>
      </trkpt>
      <trkpt lat="42.17054" lon="-1.42182">
        <ele>330.81</ele>
        <time>2021-08-04T09:49:28Z</time>
      </trkpt>
      <trkpt lat="42.16973" lon="-1.423">
        <ele>327.73</ele>
        <time>2021-08-04T09:49:39Z</time>
      </trkpt>
      <trkpt lat="42.16913" lon="-1.4237">
        <ele>324.49</ele>
        <time>2021-08-04T09:49:49Z</time>
      </trkpt>
      <trkpt lat="42.16875" lon="-1.42415">
        <ele>321.39</ele>
        <time>2021-08-04T09:49:58Z</time>
      </trkpt>
      <trkpt lat="42.16837" lon="-1.42448">
        <ele>319.43</ele>
        <time>2021-08-04T09:50:03Z</time>
      </trkpt>
      <trkpt lat="42.168" lon="-1.42492">
        <ele>318.9</ele>
        <time>2021-08-04T09:50:07Z</time>
      </trkpt>
      <trkpt lat="42.16743" lon="-1.42587">
        <ele>320.05</ele>
        <time>2021-08-04T09:50:16Z</time>
      </trkpt>
      <trkpt lat="42.16677" lon="-1.4267">
        <ele>320.81</ele>
        <time>2021-08-04T09:50:26Z</time>
      </trkpt>
      <trkpt lat="42.16597" lon="-1.42761">
        <ele>318.75</ele>
        <time>2021-08-04T09:50:37Z</time>
      </trkpt>
      <trkpt lat="42.1649" lon="-1.42876">
        <ele>320.57</ele>
        <time>2021-08-04T09:50:50Z</time>
      </trkpt>
      <trkpt lat="42.16403" lon="-1.42984">
        <ele>322.57</ele>
        <time>2021-08-04T09:51:01Z</time>
      </trkpt>
      <trkpt lat="42.16335" lon="-1.43064">
        <ele>322.03</ele>
        <time>2021-08-04T09:51:09Z</time>
      </trkpt>
      <trkpt lat="42.16292" lon="-1.43182">
        <ele>320.97</ele>
        <time>2021-08-04T09:51:21Z</time>
      </trkpt>
      <trkpt lat="42.16288" lon="-1.43197">
        <ele>320.77</ele>
        <time>2021-08-04T09:51:23Z</time>
      </trkpt>
      <trkpt lat="42.16288" lon="-1.43296">
        <ele>319.75</ele>
        <time>2021-08-04T09:51:36Z</time>
      </trkpt>
      <trkpt lat="42.16314" lon="-1.43383">
        <ele>318.81</ele>
        <time>2021-08-04T09:51:48Z</time>
      </trkpt>
      <trkpt lat="42.16364" lon="-1.43489">
        <ele>317.18</ele>
        <time>2021-08-04T09:52:03Z</time>
      </trkpt>
      <trkpt lat="42.16422" lon="-1.43604">
        <ele>316.51</ele>
        <time>2021-08-04T09:52:18Z</time>
      </trkpt>
      <trkpt lat="42.16483" lon="-1.43721">
        <ele>317.37</ele>
        <time>2021-08-04T09:52:31Z</time>
      </trkpt>
      <trkpt lat="42.16522" lon="-1.43817">
        <ele>319.02</ele>
        <time>2021-08-04T09:52:43Z</time>
      </trkpt>
      <trkpt lat="42.16561" lon="-1.43897">
        <ele>315.79</ele>
        <time>2021-08-04T09:52:57Z</time>
      </trkpt>
      <trkpt lat="42.16615" lon="-1.43956">
        <ele>313.42</ele>
        <time>2021-08-04T09:53:11Z</time>
      </trkpt>
      <trkpt lat="42.16682" lon="-1.44021">
        <ele>312.16</ele>
        <time>2021-08-04T09:53:28Z</time>
      </trkpt>
      <trkpt lat="42.16719" lon="-1.44057">
        <ele>311.19</ele>
        <time>2021-08-04T09:53:41Z</time>
      </trkpt>
      <trkpt lat="42.16763" lon="-1.44131">
        <ele>311.03</ele>
        <time>2021-08-04T09:53:50Z</time>
      </trkpt>
      <trkpt lat="42.16816" lon="-1.44211">
        <ele>310.19</ele>
        <time>2021-08-04T09:53:59Z</time>
      </trkpt>
      <trkpt lat="42.16902" lon="-1.4429">
        <ele>308.73</ele>
        <time>2021-08-04T09:54:11Z</time>
      </trkpt>
      <trkpt lat="42.16976" lon="-1.44399">
        <ele>307.1</ele>
        <time>2021-08-04T09:54:25Z</time>
      </trkpt>
      <trkpt lat="42.17022" lon="-1.44473">
        <ele>306.52</ele>
        <time>2021-08-04T09:54:37Z</time>
      </trkpt>
      <trkpt lat="42.1707" lon="-1.44551">
        <ele>306.7</ele>
        <time>2021-08-04T09:54:50Z</time>
      </trkpt>
      <trkpt lat="42.17147" lon="-1.44626">
        <ele>306.5</ele>
        <time>2021-08-04T09:55:03Z</time>
      </trkpt>
      <trkpt lat="42.17227" lon="-1.44704">
        <ele>303.47</ele>
        <time>2021-08-04T09:55:15Z</time>
      </trkpt>
      <trkpt lat="42.17271" lon="-1.44767">
        <ele>301.22</ele>
        <time>2021-08-04T09:55:24Z</time>
      </trkpt>
      <trkpt lat="42.17281" lon="-1.44804">
        <ele>298.14</ele>
        <time>2021-08-04T09:55:34Z</time>
      </trkpt>
      <trkpt lat="42.17301" lon="-1.44857">
        <ele>297.91</ele>
        <time>2021-08-04T09:55:40Z</time>
      </trkpt>
      <trkpt lat="42.17325" lon="-1.44889">
        <ele>298.09</ele>
        <time>2021-08-04T09:55:44Z</time>
      </trkpt>
      <trkpt lat="42.17437" lon="-1.45015">
        <ele>300.27</ele>
        <time>2021-08-04T09:56:00Z</time>
      </trkpt>
      <trkpt lat="42.17518" lon="-1.4514">
        <ele>300.54</ele>
        <time>2021-08-04T09:56:12Z</time>
      </trkpt>
      <trkpt lat="42.17568" lon="-1.45223">
        <ele>298.61</ele>
        <time>2021-08-04T09:56:19Z</time>
      </trkpt>
      <trkpt lat="42.17654" lon="-1.45308">
        <ele>296.81</ele>
        <time>2021-08-04T09:56:29Z</time>
      </trkpt>
      <trkpt lat="42.17788" lon="-1.45447">
        <ele>298.77</ele>
        <time>2021-08-04T09:56:43Z</time>
      </trkpt>
      <trkpt lat="42.17858" lon="-1.45524">
        <ele>300.56</ele>
        <time>2021-08-04T09:56:53Z</time>
      </trkpt>
      <trkpt lat="42.17949" lon="-1.45615">
        <ele>302.2</ele>
        <time>2021-08-04T09:57:06Z</time>
      </trkpt>
      <trkpt lat="42.1805" lon="-1.45744">
        <ele>304.66</ele>
        <time>2021-08-04T09:57:20Z</time>
      </trkpt>
      <trkpt lat="42.18156" lon="-1.45875">
        <ele>303.35</ele>
        <time>2021-08-04T09:57:34Z</time>
      </trkpt>
      <trkpt lat="42.18185" lon="-1.45985">
        <ele>302.44</ele>
        <time>2021-08-04T09:57:43Z</time>
      </trkpt>
      <trkpt lat="42.18179" lon="-1.46146">
        <ele>302.83</ele>
        <time>2021-08-04T09:57:56Z</time>
      </trkpt>
      <trkpt lat="42.1814" lon="-1.46361">
        <ele>301.97</ele>
        <time>2021-08-04T09:58:13Z</time>
      </trkpt>
      <trkpt lat="42.18151" lon="-1.46485">
        <ele>299.77</ele>
        <time>2021-08-04T09:58:23Z</time>
      </trkpt>
      <trkpt lat="42.18192" lon="-1.46715">
        <ele>296.66</ele>
        <time>2021-08-04T09:58:42Z</time>
      </trkpt>
      <trkpt lat="42.18215" lon="-1.46929">
        <ele>294.58</ele>
        <time>2021-08-04T09:58:59Z</time>
      </trkpt>
      <trkpt lat="42.18232" lon="-1.47087">
        <ele>292.39</ele>
        <time>2021-08-04T09:59:13Z</time>
      </trkpt>
      <trkpt lat="42.18253" lon="-1.47302">
        <ele>289.83</ele>
        <time>2021-08-04T09:59:31Z</time>
      </trkpt>
      <trkpt lat="42.18268" lon="-1.4744">
        <ele>290.36</ele>
        <time>2021-08-04T09:59:43Z</time>
      </trkpt>
      <trkpt lat="42.18275" lon="-1.47469">
        <ele>290.2</ele>
        <time>2021-08-04T09:59:45Z</time>
      </trkpt>
      <trkpt lat="42.18294" lon="-1.47519">
        <ele>289.03</ele>
        <time>2021-08-04T09:59:49Z</time>
      </trkpt>
      <trkpt lat="42.18303" lon="-1.47638">
        <ele>287.95</ele>
        <time>2021-08-04T10:00:01Z</time>
      </trkpt>
      <trkpt lat="42.18292" lon="-1.47749">
        <ele>291</ele>
        <time>2021-08-04T10:00:11Z</time>
      </trkpt>
      <trkpt lat="42.18286" lon="-1.47806">
        <ele>292.86</ele>
        <time>2021-08-04T10:00:16Z</time>
      </trkpt>
      <trkpt lat="42.18293" lon="-1.47856">
        <ele>294.46</ele>
        <time>2021-08-04T10:00:22Z</time>
      </trkpt>
      <trkpt lat="42.18343" lon="-1.47947">
        <ele>297.79</ele>
        <time>2021-08-04T10:00:33Z</time>
      </trkpt>
      <trkpt lat="42.18374" lon="-1.47993">
        <ele>298.8</ele>
        <time>2021-08-04T10:00:38Z</time>
      </trkpt>
      <trkpt lat="42.18391" lon="-1.48044">
        <ele>299.14</ele>
        <time>2021-08-04T10:00:45Z</time>
      </trkpt>
      <trkpt lat="42.18391" lon="-1.48048">
        <ele>298.78</ele>
        <time>2021-08-04T10:00:59Z</time>
      </trkpt>
      <trkpt lat="42.18396" lon="-1.48081">
        <ele>299.09</ele>
        <time>2021-08-04T10:01:13Z</time>
      </trkpt>
      <trkpt lat="42.18403" lon="-1.48118">
        <ele>299.84</ele>
        <time>2021-08-04T10:01:17Z</time>
      </trkpt>
      <trkpt lat="42.18451" lon="-1.48202">
        <ele>303.01</ele>
        <time>2021-08-04T10:01:28Z</time>
      </trkpt>
      <trkpt lat="42.18506" lon="-1.48282">
        <ele>304.6</ele>
        <time>2021-08-04T10:01:41Z</time>
      </trkpt>
      <trkpt lat="42.18556" lon="-1.48372">
        <ele>303.76</ele>
        <time>2021-08-04T10:01:55Z</time>
      </trkpt>
      <trkpt lat="42.18574" lon="-1.48411">
        <ele>303.18</ele>
        <time>2021-08-04T10:02:00Z</time>
      </trkpt>
      <trkpt lat="42.18603" lon="-1.48435">
        <ele>302.4</ele>
        <time>2021-08-04T10:02:05Z</time>
      </trkpt>
      <trkpt lat="42.1867" lon="-1.48439">
        <ele>302.02</ele>
        <time>2021-08-04T10:02:17Z</time>
      </trkpt>
      <trkpt lat="42.18691" lon="-1.48429">
        <ele>302.2</ele>
        <time>2021-08-04T10:02:21Z</time>
      </trkpt>
      <trkpt lat="42.18741" lon="-1.48436">
        <ele>302.61</ele>
        <time>2021-08-04T10:02:28Z</time>
      </trkpt>
      <trkpt lat="42.18843" lon="-1.48523">
        <ele>303.6</ele>
        <time>2021-08-04T10:02:42Z</time>
      </trkpt>
      <trkpt lat="42.1896" lon="-1.4862">
        <ele>304.88</ele>
        <time>2021-08-04T10:02:57Z</time>
      </trkpt>
      <trkpt lat="42.1909" lon="-1.48731">
        <ele>304.94</ele>
        <time>2021-08-04T10:03:13Z</time>
      </trkpt>
      <trkpt lat="42.19188" lon="-1.48814">
        <ele>307.57</ele>
        <time>2021-08-04T10:03:26Z</time>
      </trkpt>
      <trkpt lat="42.19277" lon="-1.48893">
        <ele>310.49</ele>
        <time>2021-08-04T10:03:37Z</time>
      </trkpt>
      <trkpt lat="42.19394" lon="-1.49011">
        <ele>308.29</ele>
        <time>2021-08-04T10:03:51Z</time>
      </trkpt>
      <trkpt lat="42.19423" lon="-1.49038">
        <ele>306.6</ele>
        <time>2021-08-04T10:03:55Z</time>
      </trkpt>
      <trkpt lat="42.19526" lon="-1.49141">
        <ele>304.58</ele>
        <time>2021-08-04T10:04:09Z</time>
      </trkpt>
      <trkpt lat="42.19647" lon="-1.49262">
        <ele>304.58</ele>
        <time>2021-08-04T10:04:23Z</time>
      </trkpt>
      <trkpt lat="42.19757" lon="-1.49373">
        <ele>302.51</ele>
        <time>2021-08-04T10:04:36Z</time>
      </trkpt>
      <trkpt lat="42.19923" lon="-1.49541">
        <ele>302.65</ele>
        <time>2021-08-04T10:04:56Z</time>
      </trkpt>
      <trkpt lat="42.2009" lon="-1.4971">
        <ele>304.64</ele>
        <time>2021-08-04T10:05:17Z</time>
      </trkpt>
      <trkpt lat="42.20213" lon="-1.49836">
        <ele>307.67</ele>
        <time>2021-08-04T10:05:31Z</time>
      </trkpt>
      <trkpt lat="42.20282" lon="-1.49905">
        <ele>310.68</ele>
        <time>2021-08-04T10:05:39Z</time>
      </trkpt>
      <trkpt lat="42.20357" lon="-1.49979">
        <ele>313.71</ele>
        <time>2021-08-04T10:05:48Z</time>
      </trkpt>
      <trkpt lat="42.20436" lon="-1.50055">
        <ele>316.76</ele>
        <time>2021-08-04T10:05:57Z</time>
      </trkpt>
      <trkpt lat="42.20504" lon="-1.50128">
        <ele>319.22</ele>
        <time>2021-08-04T10:06:07Z</time>
      </trkpt>
      <trkpt lat="42.20537" lon="-1.50174">
        <ele>317.4</ele>
        <time>2021-08-04T10:06:16Z</time>
      </trkpt>
      <trkpt lat="42.20557" lon="-1.50218">
        <ele>314.36</ele>
        <time>2021-08-04T10:06:24Z</time>
      </trkpt>
      <trkpt lat="42.20584" lon="-1.50275">
        <ele>311.31</ele>
        <time>2021-08-04T10:06:33Z</time>
      </trkpt>
      <trkpt lat="42.20634" lon="-1.50383">
        <ele>308.57</ele>
        <time>2021-08-04T10:06:43Z</time>
      </trkpt>
      <trkpt lat="42.20687" lon="-1.50495">
        <ele>305.46</ele>
        <time>2021-08-04T10:06:50Z</time>
      </trkpt>
      <trkpt lat="42.20722" lon="-1.50569">
        <ele>303.14</ele>
        <time>2021-08-04T10:06:55Z</time>
      </trkpt>
      <trkpt lat="42.20735" lon="-1.50666">
        <ele>301.32</ele>
        <time>2021-08-04T10:07:02Z</time>
      </trkpt>
      <trkpt lat="42.20723" lon="-1.50769">
        <ele>300.87</ele>
        <time>2021-08-04T10:07:11Z</time>
      </trkpt>
      <trkpt lat="42.20699" lon="-1.50853">
        <ele>302.08</ele>
        <time>2021-08-04T10:07:16Z</time>
      </trkpt>
      <trkpt lat="42.20698" lon="-1.50905">
        <ele>303.04</ele>
        <time>2021-08-04T10:07:19Z</time>
      </trkpt>
      <trkpt lat="42.20703" lon="-1.50922">
        <ele>303.44</ele>
        <time>2021-08-04T10:07:20Z</time>
      </trkpt>
      <trkpt lat="42.20753" lon="-1.51027">
        <ele>304.45</ele>
        <time>2021-08-04T10:07:28Z</time>
      </trkpt>
      <trkpt lat="42.20769" lon="-1.51062">
        <ele>303.36</ele>
        <time>2021-08-04T10:07:35Z</time>
      </trkpt>
      <trkpt lat="42.2081" lon="-1.5116">
        <ele>304.69</ele>
        <time>2021-08-04T10:07:44Z</time>
      </trkpt>
      <trkpt lat="42.20856" lon="-1.51274">
        <ele>302.8</ele>
        <time>2021-08-04T10:07:57Z</time>
      </trkpt>
      <trkpt lat="42.209" lon="-1.51381">
        <ele>301.08</ele>
        <time>2021-08-04T10:08:11Z</time>
      </trkpt>
      <trkpt lat="42.20939" lon="-1.51469">
        <ele>299.21</ele>
        <time>2021-08-04T10:08:27Z</time>
      </trkpt>
      <trkpt lat="42.20959" lon="-1.51495">
        <ele>298.52</ele>
        <time>2021-08-04T10:08:40Z</time>
      </trkpt>
      <trkpt lat="42.20972" lon="-1.51501">
        <ele>297.93</ele>
        <time>2021-08-04T10:08:50Z</time>
      </trkpt>
      <trkpt lat="42.20971" lon="-1.5152">
        <ele>296.93</ele>
        <time>2021-08-04T10:09:02Z</time>
      </trkpt>
      <trkpt lat="42.20971" lon="-1.51521">
        <ele>296.89</ele>
        <time>2021-08-04T10:09:03Z</time>
      </trkpt>
      <trkpt lat="42.2096" lon="-1.51542">
        <ele>295.58</ele>
        <time>2021-08-04T10:09:22Z</time>
      </trkpt>
      <trkpt lat="42.20956" lon="-1.51548">
        <ele>295.2</ele>
        <time>2021-08-04T10:09:43Z</time>
      </trkpt>
      <trkpt lat="42.20956" lon="-1.51549">
        <ele>295.11</ele>
        <time>2021-08-04T10:09:58Z</time>
      </trkpt>
      <trkpt lat="42.20957" lon="-1.51565">
        <ele>294.84</ele>
        <time>2021-08-04T10:10:10Z</time>
      </trkpt>
      <trkpt lat="42.20958" lon="-1.51565">
        <ele>295.09</ele>
        <time>2021-08-04T10:10:29Z</time>
      </trkpt>
      <trkpt lat="42.20956" lon="-1.51565">
        <ele>295.09</ele>
        <time>2021-08-04T10:10:49Z</time>
      </trkpt>
      <trkpt lat="42.20956" lon="-1.51569">
        <ele>294.31</ele>
        <time>2021-08-04T10:10:58Z</time>
      </trkpt>
      <trkpt lat="42.20959" lon="-1.51566">
        <ele>294.3</ele>
        <time>2021-08-04T10:11:12Z</time>
      </trkpt>
      <trkpt lat="42.20959" lon="-1.51566">
        <ele>295.33</ele>
        <time>2021-08-04T10:11:45Z</time>
      </trkpt>
      <trkpt lat="42.2096" lon="-1.51561">
        <ele>294.19</ele>
        <time>2021-08-04T10:19:29Z</time>
      </trkpt>
      <trkpt lat="42.20956" lon="-1.51565">
        <ele>294.19</ele>
        <time>2021-08-04T10:19:30Z</time>
      </trkpt>
      <trkpt lat="42.20957" lon="-1.51565">
        <ele>294.19</ele>
        <time>2021-08-04T10:19:51Z</time>
      </trkpt>
      <trkpt lat="42.20941" lon="-1.51567">
        <ele>292.6</ele>
        <time>2021-08-04T10:19:59Z</time>
      </trkpt>
      <trkpt lat="42.20908" lon="-1.5159">
        <ele>291.61</ele>
        <time>2021-08-04T10:20:08Z</time>
      </trkpt>
      <trkpt lat="42.20815" lon="-1.51602">
        <ele>291.45</ele>
        <time>2021-08-04T10:20:23Z</time>
      </trkpt>
      <trkpt lat="42.2069" lon="-1.51612">
        <ele>290.87</ele>
        <time>2021-08-04T10:20:39Z</time>
      </trkpt>
      <trkpt lat="42.20569" lon="-1.51605">
        <ele>290.52</ele>
        <time>2021-08-04T10:20:53Z</time>
      </trkpt>
      <trkpt lat="42.20513" lon="-1.51574">
        <ele>290.27</ele>
        <time>2021-08-04T10:21:00Z</time>
      </trkpt>
      <trkpt lat="42.20487" lon="-1.51544">
        <ele>290.15</ele>
        <time>2021-08-04T10:21:04Z</time>
      </trkpt>
      <trkpt lat="42.20466" lon="-1.51511">
        <ele>290.08</ele>
        <time>2021-08-04T10:21:08Z</time>
      </trkpt>
      <trkpt lat="42.20415" lon="-1.51501">
        <ele>289.96</ele>
        <time>2021-08-04T10:21:14Z</time>
      </trkpt>
      <trkpt lat="42.20291" lon="-1.51534">
        <ele>290</ele>
        <time>2021-08-04T10:21:29Z</time>
      </trkpt>
      <trkpt lat="42.20282" lon="-1.51539">
        <ele>289.98</ele>
        <time>2021-08-04T10:21:30Z</time>
      </trkpt>
      <trkpt lat="42.20233" lon="-1.51589">
        <ele>289.96</ele>
        <time>2021-08-04T10:21:37Z</time>
      </trkpt>
      <trkpt lat="42.20164" lon="-1.51621">
        <ele>289.34</ele>
        <time>2021-08-04T10:21:49Z</time>
      </trkpt>
      <trkpt lat="42.20082" lon="-1.51665">
        <ele>289.96</ele>
        <time>2021-08-04T10:22:00Z</time>
      </trkpt>
      <trkpt lat="42.20066" lon="-1.51674">
        <ele>290.03</ele>
        <time>2021-08-04T10:22:02Z</time>
      </trkpt>
      <trkpt lat="42.19953" lon="-1.51699">
        <ele>289.6</ele>
        <time>2021-08-04T10:22:15Z</time>
      </trkpt>
      <trkpt lat="42.19812" lon="-1.5175">
        <ele>289.44</ele>
        <time>2021-08-04T10:22:29Z</time>
      </trkpt>
      <trkpt lat="42.19625" lon="-1.51833">
        <ele>288.19</ele>
        <time>2021-08-04T10:22:47Z</time>
      </trkpt>
      <trkpt lat="42.19494" lon="-1.519">
        <ele>287.25</ele>
        <time>2021-08-04T10:23:00Z</time>
      </trkpt>
      <trkpt lat="42.19351" lon="-1.51969">
        <ele>286.81</ele>
        <time>2021-08-04T10:23:15Z</time>
      </trkpt>
      <trkpt lat="42.19213" lon="-1.52027">
        <ele>286.34</ele>
        <time>2021-08-04T10:23:29Z</time>
      </trkpt>
      <trkpt lat="42.19049" lon="-1.52032">
        <ele>285.22</ele>
        <time>2021-08-04T10:23:46Z</time>
      </trkpt>
      <trkpt lat="42.18944" lon="-1.52031">
        <ele>284.92</ele>
        <time>2021-08-04T10:23:57Z</time>
      </trkpt>
      <trkpt lat="42.18908" lon="-1.52046">
        <ele>284.9</ele>
        <time>2021-08-04T10:24:01Z</time>
      </trkpt>
      <trkpt lat="42.188" lon="-1.52122">
        <ele>285.7</ele>
        <time>2021-08-04T10:24:14Z</time>
      </trkpt>
      <trkpt lat="42.1873" lon="-1.52138">
        <ele>285.34</ele>
        <time>2021-08-04T10:24:23Z</time>
      </trkpt>
      <trkpt lat="42.18663" lon="-1.52141">
        <ele>285.32</ele>
        <time>2021-08-04T10:24:32Z</time>
      </trkpt>
      <trkpt lat="42.18622" lon="-1.52166">
        <ele>285.71</ele>
        <time>2021-08-04T10:24:37Z</time>
      </trkpt>
      <trkpt lat="42.18608" lon="-1.5218">
        <ele>285.89</ele>
        <time>2021-08-04T10:24:39Z</time>
      </trkpt>
      <trkpt lat="42.18557" lon="-1.52201">
        <ele>286.59</ele>
        <time>2021-08-04T10:24:46Z</time>
      </trkpt>
      <trkpt lat="42.18481" lon="-1.52184">
        <ele>286.41</ele>
        <time>2021-08-04T10:24:59Z</time>
      </trkpt>
      <trkpt lat="42.18389" lon="-1.52169">
        <ele>287.96</ele>
        <time>2021-08-04T10:25:13Z</time>
      </trkpt>
      <trkpt lat="42.18326" lon="-1.52191">
        <ele>289.19</ele>
        <time>2021-08-04T10:25:22Z</time>
      </trkpt>
      <trkpt lat="42.18253" lon="-1.52201">
        <ele>290.52</ele>
        <time>2021-08-04T10:25:32Z</time>
      </trkpt>
      <trkpt lat="42.18226" lon="-1.52189">
        <ele>291.13</ele>
        <time>2021-08-04T10:25:36Z</time>
      </trkpt>
      <trkpt lat="42.1812" lon="-1.52125">
        <ele>293.03</ele>
        <time>2021-08-04T10:25:48Z</time>
      </trkpt>
      <trkpt lat="42.18072" lon="-1.5211">
        <ele>294.51</ele>
        <time>2021-08-04T10:25:52Z</time>
      </trkpt>
      <trkpt lat="42.18024" lon="-1.52123">
        <ele>295.77</ele>
        <time>2021-08-04T10:25:56Z</time>
      </trkpt>
      <trkpt lat="42.17943" lon="-1.52186">
        <ele>298.92</ele>
        <time>2021-08-04T10:26:03Z</time>
      </trkpt>
      <trkpt lat="42.17903" lon="-1.52259">
        <ele>302.65</ele>
        <time>2021-08-04T10:26:09Z</time>
      </trkpt>
      <trkpt lat="42.179" lon="-1.52269">
        <ele>303.25</ele>
        <time>2021-08-04T10:26:10Z</time>
      </trkpt>
      <trkpt lat="42.17913" lon="-1.52326">
        <ele>306.94</ele>
        <time>2021-08-04T10:26:16Z</time>
      </trkpt>
      <trkpt lat="42.1792" lon="-1.52354">
        <ele>307.96</ele>
        <time>2021-08-04T10:26:18Z</time>
      </trkpt>
      <trkpt lat="42.17974" lon="-1.52526">
        <ele>311.57</ele>
        <time>2021-08-04T10:26:27Z</time>
      </trkpt>
      <trkpt lat="42.18024" lon="-1.52663">
        <ele>314.64</ele>
        <time>2021-08-04T10:26:34Z</time>
      </trkpt>
      <trkpt lat="42.18049" lon="-1.5273">
        <ele>316.17</ele>
        <time>2021-08-04T10:26:38Z</time>
      </trkpt>
      <trkpt lat="42.18083" lon="-1.52893">
        <ele>320</ele>
        <time>2021-08-04T10:26:46Z</time>
      </trkpt>
      <trkpt lat="42.18093" lon="-1.52949">
        <ele>321.43</ele>
        <time>2021-08-04T10:26:49Z</time>
      </trkpt>
      <trkpt lat="42.18075" lon="-1.53074">
        <ele>325.2</ele>
        <time>2021-08-04T10:26:56Z</time>
      </trkpt>
      <trkpt lat="42.17999" lon="-1.5322">
        <ele>325.1</ele>
        <time>2021-08-04T10:27:06Z</time>
      </trkpt>
      <trkpt lat="42.17957" lon="-1.53288">
        <ele>321.63</ele>
        <time>2021-08-04T10:27:13Z</time>
      </trkpt>
      <trkpt lat="42.1792" lon="-1.53332">
        <ele>318.59</ele>
        <time>2021-08-04T10:27:19Z</time>
      </trkpt>
      <trkpt lat="42.17891" lon="-1.53358">
        <ele>316.11</ele>
        <time>2021-08-04T10:27:25Z</time>
      </trkpt>
      <trkpt lat="42.17837" lon="-1.53364">
        <ele>315.04</ele>
        <time>2021-08-04T10:27:31Z</time>
      </trkpt>
      <trkpt lat="42.17794" lon="-1.53356">
        <ele>314.65</ele>
        <time>2021-08-04T10:27:35Z</time>
      </trkpt>
      <trkpt lat="42.17693" lon="-1.53389">
        <ele>314.71</ele>
        <time>2021-08-04T10:27:43Z</time>
      </trkpt>
      <trkpt lat="42.1762" lon="-1.53425">
        <ele>314.51</ele>
        <time>2021-08-04T10:27:49Z</time>
      </trkpt>
      <trkpt lat="42.17586" lon="-1.53476">
        <ele>313.77</ele>
        <time>2021-08-04T10:27:54Z</time>
      </trkpt>
      <trkpt lat="42.17579" lon="-1.53504">
        <ele>313.31</ele>
        <time>2021-08-04T10:27:56Z</time>
      </trkpt>
      <trkpt lat="42.17557" lon="-1.53561">
        <ele>312.19</ele>
        <time>2021-08-04T10:28:00Z</time>
      </trkpt>
      <trkpt lat="42.17546" lon="-1.53709">
        <ele>309.01</ele>
        <time>2021-08-04T10:28:08Z</time>
      </trkpt>
      <trkpt lat="42.17539" lon="-1.53792">
        <ele>305.89</ele>
        <time>2021-08-04T10:28:12Z</time>
      </trkpt>
      <trkpt lat="42.17529" lon="-1.53883">
        <ele>302.38</ele>
        <time>2021-08-04T10:28:16Z</time>
      </trkpt>
      <trkpt lat="42.17525" lon="-1.53926">
        <ele>300.51</ele>
        <time>2021-08-04T10:28:18Z</time>
      </trkpt>
      <trkpt lat="42.17538" lon="-1.53991">
        <ele>296.19</ele>
        <time>2021-08-04T10:28:22Z</time>
      </trkpt>
      <trkpt lat="42.17546" lon="-1.54003">
        <ele>294.99</ele>
        <time>2021-08-04T10:28:23Z</time>
      </trkpt>
      <trkpt lat="42.17577" lon="-1.54043">
        <ele>290.51</ele>
        <time>2021-08-04T10:28:27Z</time>
      </trkpt>
      <trkpt lat="42.17593" lon="-1.54066">
        <ele>287.18</ele>
        <time>2021-08-04T10:28:30Z</time>
      </trkpt>
      <trkpt lat="42.17612" lon="-1.54092">
        <ele>283.69</ele>
        <time>2021-08-04T10:28:34Z</time>
      </trkpt>
      <trkpt lat="42.17619" lon="-1.54103">
        <ele>280.62</ele>
        <time>2021-08-04T10:28:40Z</time>
      </trkpt>
      <trkpt lat="42.17637" lon="-1.54133">
        <ele>278.71</ele>
        <time>2021-08-04T10:28:52Z</time>
      </trkpt>
      <trkpt lat="42.17692" lon="-1.54211">
        <ele>278.76</ele>
        <time>2021-08-04T10:29:00Z</time>
      </trkpt>
      <trkpt lat="42.17711" lon="-1.54246">
        <ele>278.93</ele>
        <time>2021-08-04T10:29:03Z</time>
      </trkpt>
      <trkpt lat="42.17716" lon="-1.54259">
        <ele>278.98</ele>
        <time>2021-08-04T10:29:04Z</time>
      </trkpt>
      <trkpt lat="42.17719" lon="-1.54272">
        <ele>279.05</ele>
        <time>2021-08-04T10:29:05Z</time>
      </trkpt>
      <trkpt lat="42.1772" lon="-1.54285">
        <ele>279.15</ele>
        <time>2021-08-04T10:29:06Z</time>
      </trkpt>
      <trkpt lat="42.17721" lon="-1.54298">
        <ele>279.25</ele>
        <time>2021-08-04T10:29:07Z</time>
      </trkpt>
      <trkpt lat="42.17719" lon="-1.54312">
        <ele>279.3</ele>
        <time>2021-08-04T10:29:08Z</time>
      </trkpt>
      <trkpt lat="42.17717" lon="-1.54326">
        <ele>279.39</ele>
        <time>2021-08-04T10:29:09Z</time>
      </trkpt>
      <trkpt lat="42.17713" lon="-1.54341">
        <ele>279.45</ele>
        <time>2021-08-04T10:29:10Z</time>
      </trkpt>
      <trkpt lat="42.17708" lon="-1.54357">
        <ele>279.5</ele>
        <time>2021-08-04T10:29:11Z</time>
      </trkpt>
      <trkpt lat="42.17656" lon="-1.54509">
        <ele>280.44</ele>
        <time>2021-08-04T10:29:19Z</time>
      </trkpt>
      <trkpt lat="42.17626" lon="-1.5457">
        <ele>281</ele>
        <time>2021-08-04T10:29:22Z</time>
      </trkpt>
      <trkpt lat="42.17598" lon="-1.54686">
        <ele>282.12</ele>
        <time>2021-08-04T10:29:28Z</time>
      </trkpt>
      <trkpt lat="42.17546" lon="-1.54766">
        <ele>284.44</ele>
        <time>2021-08-04T10:29:34Z</time>
      </trkpt>
      <trkpt lat="42.17539" lon="-1.54781">
        <ele>284.92</ele>
        <time>2021-08-04T10:29:35Z</time>
      </trkpt>
      <trkpt lat="42.17461" lon="-1.54889">
        <ele>289.62</ele>
        <time>2021-08-04T10:29:43Z</time>
      </trkpt>
      <trkpt lat="42.17411" lon="-1.5495">
        <ele>291.78</ele>
        <time>2021-08-04T10:29:47Z</time>
      </trkpt>
      <trkpt lat="42.17378" lon="-1.5506">
        <ele>293.8</ele>
        <time>2021-08-04T10:29:53Z</time>
      </trkpt>
      <trkpt lat="42.17363" lon="-1.55097">
        <ele>294.72</ele>
        <time>2021-08-04T10:29:55Z</time>
      </trkpt>
      <trkpt lat="42.17346" lon="-1.5513">
        <ele>295.87</ele>
        <time>2021-08-04T10:29:57Z</time>
      </trkpt>
      <trkpt lat="42.17333" lon="-1.552">
        <ele>297.19</ele>
        <time>2021-08-04T10:30:01Z</time>
      </trkpt>
      <trkpt lat="42.17302" lon="-1.55324">
        <ele>299.19</ele>
        <time>2021-08-04T10:30:08Z</time>
      </trkpt>
      <trkpt lat="42.17251" lon="-1.55424">
        <ele>301.28</ele>
        <time>2021-08-04T10:30:14Z</time>
      </trkpt>
      <trkpt lat="42.17231" lon="-1.55515">
        <ele>302.67</ele>
        <time>2021-08-04T10:30:19Z</time>
      </trkpt>
      <trkpt lat="42.17172" lon="-1.55655">
        <ele>303.82</ele>
        <time>2021-08-04T10:30:27Z</time>
      </trkpt>
      <trkpt lat="42.17085" lon="-1.55764">
        <ele>304.89</ele>
        <time>2021-08-04T10:30:34Z</time>
      </trkpt>
      <trkpt lat="42.17014" lon="-1.55864">
        <ele>305.9</ele>
        <time>2021-08-04T10:30:40Z</time>
      </trkpt>
      <trkpt lat="42.17013" lon="-1.55888">
        <ele>306.06</ele>
        <time>2021-08-04T10:30:41Z</time>
      </trkpt>
      <trkpt lat="42.17016" lon="-1.55971">
        <ele>306.95</ele>
        <time>2021-08-04T10:30:45Z</time>
      </trkpt>
      <trkpt lat="42.16986" lon="-1.56051">
        <ele>307.41</ele>
        <time>2021-08-04T10:30:50Z</time>
      </trkpt>
      <trkpt lat="42.16959" lon="-1.56072">
        <ele>307.93</ele>
        <time>2021-08-04T10:30:52Z</time>
      </trkpt>
      <trkpt lat="42.16894" lon="-1.56107">
        <ele>308.96</ele>
        <time>2021-08-04T10:30:57Z</time>
      </trkpt>
      <trkpt lat="42.1683" lon="-1.56176">
        <ele>310.56</ele>
        <time>2021-08-04T10:31:05Z</time>
      </trkpt>
      <trkpt lat="42.16762" lon="-1.56294">
        <ele>310.97</ele>
        <time>2021-08-04T10:31:14Z</time>
      </trkpt>
      <trkpt lat="42.16658" lon="-1.56526">
        <ele>307.85</ele>
        <time>2021-08-04T10:31:28Z</time>
      </trkpt>
      <trkpt lat="42.16592" lon="-1.56663">
        <ele>304.68</ele>
        <time>2021-08-04T10:31:37Z</time>
      </trkpt>
      <trkpt lat="42.16492" lon="-1.56836">
        <ele>301.75</ele>
        <time>2021-08-04T10:31:48Z</time>
      </trkpt>
      <trkpt lat="42.16428" lon="-1.56947">
        <ele>298.29</ele>
        <time>2021-08-04T10:31:55Z</time>
      </trkpt>
      <trkpt lat="42.16412" lon="-1.5706">
        <ele>295.26</ele>
        <time>2021-08-04T10:32:01Z</time>
      </trkpt>
      <trkpt lat="42.16408" lon="-1.57153">
        <ele>292.87</ele>
        <time>2021-08-04T10:32:07Z</time>
      </trkpt>
      <trkpt lat="42.16411" lon="-1.57216">
        <ele>290.43</ele>
        <time>2021-08-04T10:32:11Z</time>
      </trkpt>
      <trkpt lat="42.16421" lon="-1.57269">
        <ele>287.67</ele>
        <time>2021-08-04T10:32:15Z</time>
      </trkpt>
      <trkpt lat="42.1642" lon="-1.57282">
        <ele>286.98</ele>
        <time>2021-08-04T10:32:16Z</time>
      </trkpt>
      <trkpt lat="42.16413" lon="-1.57297">
        <ele>286.34</ele>
        <time>2021-08-04T10:32:17Z</time>
      </trkpt>
      <trkpt lat="42.16407" lon="-1.57311">
        <ele>285.82</ele>
        <time>2021-08-04T10:32:18Z</time>
      </trkpt>
      <trkpt lat="42.16369" lon="-1.57425">
        <ele>282.2</ele>
        <time>2021-08-04T10:32:26Z</time>
      </trkpt>
      <trkpt lat="42.16377" lon="-1.57542">
        <ele>278.88</ele>
        <time>2021-08-04T10:32:33Z</time>
      </trkpt>
      <trkpt lat="42.1638" lon="-1.57556">
        <ele>278.2</ele>
        <time>2021-08-04T10:32:34Z</time>
      </trkpt>
      <trkpt lat="42.164" lon="-1.57594">
        <ele>276.16</ele>
        <time>2021-08-04T10:32:37Z</time>
      </trkpt>
      <trkpt lat="42.16423" lon="-1.57671">
        <ele>273.64</ele>
        <time>2021-08-04T10:32:42Z</time>
      </trkpt>
      <trkpt lat="42.16447" lon="-1.57721">
        <ele>271.84</ele>
        <time>2021-08-04T10:32:46Z</time>
      </trkpt>
      <trkpt lat="42.1654" lon="-1.57856">
        <ele>268.28</ele>
        <time>2021-08-04T10:32:59Z</time>
      </trkpt>
      <trkpt lat="42.16613" lon="-1.57964">
        <ele>268.33</ele>
        <time>2021-08-04T10:33:07Z</time>
      </trkpt>
      <trkpt lat="42.16778" lon="-1.58206">
        <ele>270.14</ele>
        <time>2021-08-04T10:33:23Z</time>
      </trkpt>
      <trkpt lat="42.16905" lon="-1.58403">
        <ele>268.62</ele>
        <time>2021-08-04T10:33:37Z</time>
      </trkpt>
      <trkpt lat="42.17006" lon="-1.58606">
        <ele>269.33</ele>
        <time>2021-08-04T10:33:50Z</time>
      </trkpt>
      <trkpt lat="42.17107" lon="-1.58805">
        <ele>270.74</ele>
        <time>2021-08-04T10:34:04Z</time>
      </trkpt>
      <trkpt lat="42.17169" lon="-1.58923">
        <ele>270.34</ele>
        <time>2021-08-04T10:34:14Z</time>
      </trkpt>
      <trkpt lat="42.17204" lon="-1.59067">
        <ele>268.77</ele>
        <time>2021-08-04T10:34:25Z</time>
      </trkpt>
      <trkpt lat="42.17213" lon="-1.59124">
        <ele>267.41</ele>
        <time>2021-08-04T10:34:33Z</time>
      </trkpt>
      <trkpt lat="42.17233" lon="-1.59158">
        <ele>265.67</ele>
        <time>2021-08-04T10:34:43Z</time>
      </trkpt>
      <trkpt lat="42.17281" lon="-1.59237">
        <ele>265.57</ele>
        <time>2021-08-04T10:34:54Z</time>
      </trkpt>
      <trkpt lat="42.17316" lon="-1.59295">
        <ele>265.59</ele>
        <time>2021-08-04T10:35:01Z</time>
      </trkpt>
      <trkpt lat="42.17372" lon="-1.59353">
        <ele>264.94</ele>
        <time>2021-08-04T10:35:13Z</time>
      </trkpt>
      <trkpt lat="42.17431" lon="-1.5942">
        <ele>265.18</ele>
        <time>2021-08-04T10:35:28Z</time>
      </trkpt>
      <trkpt lat="42.17471" lon="-1.59482">
        <ele>265.37</ele>
        <time>2021-08-04T10:35:40Z</time>
      </trkpt>
      <trkpt lat="42.1751" lon="-1.59542">
        <ele>265.89</ele>
        <time>2021-08-04T10:35:53Z</time>
      </trkpt>
      <trkpt lat="42.17549" lon="-1.59579">
        <ele>266</ele>
        <time>2021-08-04T10:36:04Z</time>
      </trkpt>
      <trkpt lat="42.1759" lon="-1.59603">
        <ele>266.47</ele>
        <time>2021-08-04T10:36:16Z</time>
      </trkpt>
      <trkpt lat="42.17631" lon="-1.59579">
        <ele>267.39</ele>
        <time>2021-08-04T10:36:26Z</time>
      </trkpt>
      <trkpt lat="42.17653" lon="-1.5959">
        <ele>268.49</ele>
        <time>2021-08-04T10:36:31Z</time>
      </trkpt>
      <trkpt lat="42.1768" lon="-1.59631">
        <ele>271.28</ele>
        <time>2021-08-04T10:36:41Z</time>
      </trkpt>
      <trkpt lat="42.17696" lon="-1.59637">
        <ele>272.5</ele>
        <time>2021-08-04T10:36:57Z</time>
      </trkpt>
      <trkpt lat="42.17724" lon="-1.59664">
        <ele>272.86</ele>
        <time>2021-08-04T10:37:06Z</time>
      </trkpt>
      <trkpt lat="42.17749" lon="-1.59662">
        <ele>273.1</ele>
        <time>2021-08-04T10:37:15Z</time>
      </trkpt>
      <trkpt lat="42.1775" lon="-1.59661">
        <ele>273.6</ele>
        <time>2021-08-04T10:37:26Z</time>
      </trkpt>
      <trkpt lat="42.1776" lon="-1.5962">
        <ele>274.63</ele>
        <time>2021-08-04T10:37:47Z</time>
      </trkpt>
      <trkpt lat="42.1776" lon="-1.59617">
        <ele>276.07</ele>
        <time>2021-08-04T10:38:07Z</time>
      </trkpt>
      <trkpt lat="42.17761" lon="-1.59616">
        <ele>276.45</ele>
        <time>2021-08-04T10:38:41Z</time>
      </trkpt>
      <trkpt lat="42.17766" lon="-1.59605">
        <ele>276.44</ele>
        <time>2021-08-04T10:38:52Z</time>
      </trkpt>
      <trkpt lat="42.17756" lon="-1.5963">
        <ele>276.29</ele>
        <time>2021-08-04T10:39:06Z</time>
      </trkpt>
      <trkpt lat="42.17756" lon="-1.59641">
        <ele>275.15</ele>
        <time>2021-08-04T10:39:20Z</time>
      </trkpt>
      <trkpt lat="42.17759" lon="-1.59635">
        <ele>274.51</ele>
        <time>2021-08-04T10:39:40Z</time>
      </trkpt>
      <trkpt lat="42.17759" lon="-1.59634">
        <ele>274.2</ele>
        <time>2021-08-04T10:40:04Z</time>
      </trkpt>
      <trkpt lat="42.17759" lon="-1.59634">
        <ele>273.63</ele>
        <time>2021-08-04T10:40:18Z</time>
      </trkpt>
      <trkpt lat="42.17759" lon="-1.59621">
        <ele>273.77</ele>
        <time>2021-08-04T10:40:29Z</time>
      </trkpt>
      <trkpt lat="42.17757" lon="-1.59624">
        <ele>273.91</ele>
        <time>2021-08-04T10:40:31Z</time>
      </trkpt>
      <trkpt lat="42.17751" lon="-1.59626">
        <ele>274.12</ele>
        <time>2021-08-04T10:40:35Z</time>
      </trkpt>
      <trkpt lat="42.17749" lon="-1.59625">
        <ele>275.5</ele>
        <time>2021-08-04T10:40:54Z</time>
      </trkpt>
      <trkpt lat="42.1775" lon="-1.59626">
        <ele>276.3</ele>
        <time>2021-08-04T10:41:51Z</time>
      </trkpt>
      <trkpt lat="42.17747" lon="-1.59647">
        <ele>276.2</ele>
        <time>2021-08-04T10:41:56Z</time>
      </trkpt>
      <trkpt lat="42.17726" lon="-1.59665">
        <ele>275.77</ele>
        <time>2021-08-04T10:42:04Z</time>
      </trkpt>
      <trkpt lat="42.17723" lon="-1.59662">
        <ele>275.74</ele>
        <time>2021-08-04T10:42:05Z</time>
      </trkpt>
      <trkpt lat="42.17694" lon="-1.59637">
        <ele>275.09</ele>
        <time>2021-08-04T10:42:15Z</time>
      </trkpt>
      <trkpt lat="42.17677" lon="-1.59622">
        <ele>274.2</ele>
        <time>2021-08-04T10:42:31Z</time>
      </trkpt>
      <trkpt lat="42.17664" lon="-1.596">
        <ele>273.9</ele>
        <time>2021-08-04T10:42:37Z</time>
      </trkpt>
      <trkpt lat="42.17637" lon="-1.59576">
        <ele>272.01</ele>
        <time>2021-08-04T10:42:46Z</time>
      </trkpt>
      <trkpt lat="42.17634" lon="-1.59579">
        <ele>270.48</ele>
        <time>2021-08-04T10:42:58Z</time>
      </trkpt>
      <trkpt lat="42.17627" lon="-1.59576">
        <ele>270.03</ele>
        <time>2021-08-04T10:43:03Z</time>
      </trkpt>
      <trkpt lat="42.17634" lon="-1.59583">
        <ele>269.48</ele>
        <time>2021-08-04T10:43:11Z</time>
      </trkpt>
      <trkpt lat="42.17649" lon="-1.59592">
        <ele>270.05</ele>
        <time>2021-08-04T10:43:18Z</time>
      </trkpt>
      <trkpt lat="42.17675" lon="-1.59626">
        <ele>271.36</ele>
        <time>2021-08-04T10:43:23Z</time>
      </trkpt>
      <trkpt lat="42.17707" lon="-1.59649">
        <ele>273.12</ele>
        <time>2021-08-04T10:43:28Z</time>
      </trkpt>
      <trkpt lat="42.17726" lon="-1.59667">
        <ele>273.68</ele>
        <time>2021-08-04T10:43:31Z</time>
      </trkpt>
      <trkpt lat="42.17754" lon="-1.59657">
        <ele>274.33</ele>
        <time>2021-08-04T10:43:37Z</time>
      </trkpt>
      <trkpt lat="42.17755" lon="-1.5965">
        <ele>274.35</ele>
        <time>2021-08-04T10:43:38Z</time>
      </trkpt>
      <trkpt lat="42.17772" lon="-1.59584">
        <ele>275.54</ele>
        <time>2021-08-04T10:43:48Z</time>
      </trkpt>
      <trkpt lat="42.17775" lon="-1.59522">
        <ele>279.28</ele>
        <time>2021-08-04T10:43:55Z</time>
      </trkpt>
      <trkpt lat="42.17767" lon="-1.59474">
        <ele>283.52</ele>
        <time>2021-08-04T10:44:01Z</time>
      </trkpt>
      <trkpt lat="42.17742" lon="-1.59454">
        <ele>287.01</ele>
        <time>2021-08-04T10:44:04Z</time>
      </trkpt>
      <trkpt lat="42.17702" lon="-1.59423">
        <ele>291.64</ele>
        <time>2021-08-04T10:44:08Z</time>
      </trkpt>
      <trkpt lat="42.1768" lon="-1.59394">
        <ele>295.4</ele>
        <time>2021-08-04T10:44:11Z</time>
      </trkpt>
      <trkpt lat="42.17675" lon="-1.59352">
        <ele>300.11</ele>
        <time>2021-08-04T10:44:15Z</time>
      </trkpt>
      <trkpt lat="42.17692" lon="-1.59326">
        <ele>303.63</ele>
        <time>2021-08-04T10:44:18Z</time>
      </trkpt>
      <trkpt lat="42.177" lon="-1.59318">
        <ele>304.69</ele>
        <time>2021-08-04T10:44:19Z</time>
      </trkpt>
      <trkpt lat="42.17722" lon="-1.59291">
        <ele>307.73</ele>
        <time>2021-08-04T10:44:22Z</time>
      </trkpt>
      <trkpt lat="42.17757" lon="-1.59264">
        <ele>311.99</ele>
        <time>2021-08-04T10:44:26Z</time>
      </trkpt>
      <trkpt lat="42.17771" lon="-1.59247">
        <ele>313.42</ele>
        <time>2021-08-04T10:44:28Z</time>
      </trkpt>
      <trkpt lat="42.17805" lon="-1.59193">
        <ele>317.36</ele>
        <time>2021-08-04T10:44:34Z</time>
      </trkpt>
      <trkpt lat="42.17815" lon="-1.59172">
        <ele>320.09</ele>
        <time>2021-08-04T10:44:41Z</time>
      </trkpt>
      <trkpt lat="42.17821" lon="-1.59165">
        <ele>320.91</ele>
        <time>2021-08-04T10:44:51Z</time>
      </trkpt>
      <trkpt lat="42.17823" lon="-1.5916">
        <ele>320.94</ele>
        <time>2021-08-04T10:44:52Z</time>
      </trkpt>
      <trkpt lat="42.17839" lon="-1.59123">
        <ele>321.53</ele>
        <time>2021-08-04T10:44:56Z</time>
      </trkpt>
      <trkpt lat="42.17882" lon="-1.59091">
        <ele>323.51</ele>
        <time>2021-08-04T10:45:01Z</time>
      </trkpt>
      <trkpt lat="42.17916" lon="-1.59082">
        <ele>325.93</ele>
        <time>2021-08-04T10:45:04Z</time>
      </trkpt>
      <trkpt lat="42.17966" lon="-1.59083">
        <ele>329.44</ele>
        <time>2021-08-04T10:45:08Z</time>
      </trkpt>
      <trkpt lat="42.18024" lon="-1.59054">
        <ele>333.97</ele>
        <time>2021-08-04T10:45:13Z</time>
      </trkpt>
      <trkpt lat="42.18081" lon="-1.5901">
        <ele>339.25</ele>
        <time>2021-08-04T10:45:19Z</time>
      </trkpt>
      <trkpt lat="42.1811" lon="-1.58991">
        <ele>342.19</ele>
        <time>2021-08-04T10:45:22Z</time>
      </trkpt>
      <trkpt lat="42.18141" lon="-1.58949">
        <ele>345.58</ele>
        <time>2021-08-04T10:45:26Z</time>
      </trkpt>
      <trkpt lat="42.18178" lon="-1.58867">
        <ele>349.95</ele>
        <time>2021-08-04T10:45:32Z</time>
      </trkpt>
      <trkpt lat="42.18198" lon="-1.58806">
        <ele>352.93</ele>
        <time>2021-08-04T10:45:37Z</time>
      </trkpt>
      <trkpt lat="42.18199" lon="-1.58794">
        <ele>353.36</ele>
        <time>2021-08-04T10:45:38Z</time>
      </trkpt>
      <trkpt lat="42.182" lon="-1.58771">
        <ele>354.42</ele>
        <time>2021-08-04T10:45:40Z</time>
      </trkpt>
      <trkpt lat="42.18218" lon="-1.58705">
        <ele>359.09</ele>
        <time>2021-08-04T10:45:47Z</time>
      </trkpt>
      <trkpt lat="42.18263" lon="-1.58686">
        <ele>362.07</ele>
        <time>2021-08-04T10:45:52Z</time>
      </trkpt>
      <trkpt lat="42.18367" lon="-1.58644">
        <ele>363.67</ele>
        <time>2021-08-04T10:46:02Z</time>
      </trkpt>
      <trkpt lat="42.18388" lon="-1.58631">
        <ele>364.02</ele>
        <time>2021-08-04T10:46:04Z</time>
      </trkpt>
      <trkpt lat="42.1846" lon="-1.58639">
        <ele>366.21</ele>
        <time>2021-08-04T10:46:11Z</time>
      </trkpt>
      <trkpt lat="42.18509" lon="-1.58619">
        <ele>368.72</ele>
        <time>2021-08-04T10:46:16Z</time>
      </trkpt>
      <trkpt lat="42.18555" lon="-1.58625">
        <ele>370.53</ele>
        <time>2021-08-04T10:46:21Z</time>
      </trkpt>
      <trkpt lat="42.18569" lon="-1.58661">
        <ele>372.76</ele>
        <time>2021-08-04T10:46:24Z</time>
      </trkpt>
      <trkpt lat="42.18613" lon="-1.58734">
        <ele>377.66</ele>
        <time>2021-08-04T10:46:30Z</time>
      </trkpt>
      <trkpt lat="42.18648" lon="-1.58774">
        <ele>381.01</ele>
        <time>2021-08-04T10:46:33Z</time>
      </trkpt>
      <trkpt lat="42.18682" lon="-1.58818">
        <ele>384.72</ele>
        <time>2021-08-04T10:46:36Z</time>
      </trkpt>
      <trkpt lat="42.18714" lon="-1.58859">
        <ele>387.85</ele>
        <time>2021-08-04T10:46:39Z</time>
      </trkpt>
      <trkpt lat="42.18724" lon="-1.5887">
        <ele>388.48</ele>
        <time>2021-08-04T10:46:40Z</time>
      </trkpt>
      <trkpt lat="42.18747" lon="-1.58883">
        <ele>389.14</ele>
        <time>2021-08-04T10:46:42Z</time>
      </trkpt>
      <trkpt lat="42.1884" lon="-1.58882">
        <ele>392.15</ele>
        <time>2021-08-04T10:46:49Z</time>
      </trkpt>
      <trkpt lat="42.18906" lon="-1.58872">
        <ele>395.44</ele>
        <time>2021-08-04T10:46:54Z</time>
      </trkpt>
      <trkpt lat="42.19012" lon="-1.58859">
        <ele>397.72</ele>
        <time>2021-08-04T10:47:03Z</time>
      </trkpt>
      <trkpt lat="42.19056" lon="-1.58835">
        <ele>399.37</ele>
        <time>2021-08-04T10:47:10Z</time>
      </trkpt>
      <trkpt lat="42.1906" lon="-1.58782">
        <ele>400.68</ele>
        <time>2021-08-04T10:47:15Z</time>
      </trkpt>
      <trkpt lat="42.19088" lon="-1.58785">
        <ele>401.22</ele>
        <time>2021-08-04T10:47:19Z</time>
      </trkpt>
      <trkpt lat="42.19094" lon="-1.58794">
        <ele>401.22</ele>
        <time>2021-08-04T10:47:20Z</time>
      </trkpt>
      <trkpt lat="42.19143" lon="-1.58833">
        <ele>401.94</ele>
        <time>2021-08-04T10:47:25Z</time>
      </trkpt>
      <trkpt lat="42.19278" lon="-1.58827">
        <ele>406.18</ele>
        <time>2021-08-04T10:47:33Z</time>
      </trkpt>
      <trkpt lat="42.19377" lon="-1.58815">
        <ele>409.26</ele>
        <time>2021-08-04T10:47:38Z</time>
      </trkpt>
      <trkpt lat="42.19459" lon="-1.58808">
        <ele>412.33</ele>
        <time>2021-08-04T10:47:42Z</time>
      </trkpt>
      <trkpt lat="42.19556" lon="-1.58805">
        <ele>415.44</ele>
        <time>2021-08-04T10:47:47Z</time>
      </trkpt>
      <trkpt lat="42.19668" lon="-1.5886">
        <ele>415.77</ele>
        <time>2021-08-04T10:47:53Z</time>
      </trkpt>
      <trkpt lat="42.19919" lon="-1.591">
        <ele>415.96</ele>
        <time>2021-08-04T10:48:06Z</time>
      </trkpt>
      <trkpt lat="42.20111" lon="-1.59347">
        <ele>416.42</ele>
        <time>2021-08-04T10:48:17Z</time>
      </trkpt>
      <trkpt lat="42.20162" lon="-1.59511">
        <ele>417.72</ele>
        <time>2021-08-04T10:48:23Z</time>
      </trkpt>
      <trkpt lat="42.20157" lon="-1.59603">
        <ele>418.72</ele>
        <time>2021-08-04T10:48:27Z</time>
      </trkpt>
      <trkpt lat="42.2016" lon="-1.59641">
        <ele>418.14</ele>
        <time>2021-08-04T10:48:32Z</time>
      </trkpt>
      <trkpt lat="42.20174" lon="-1.59644">
        <ele>416.28</ele>
        <time>2021-08-04T10:48:39Z</time>
      </trkpt>
      <trkpt lat="42.20187" lon="-1.5963">
        <ele>415.16</ele>
        <time>2021-08-04T10:48:49Z</time>
      </trkpt>
      <trkpt lat="42.2022" lon="-1.59588">
        <ele>414.93</ele>
        <time>2021-08-04T10:48:56Z</time>
      </trkpt>
      <trkpt lat="42.203" lon="-1.59467">
        <ele>414.74</ele>
        <time>2021-08-04T10:49:06Z</time>
      </trkpt>
      <trkpt lat="42.20389" lon="-1.5934">
        <ele>415.53</ele>
        <time>2021-08-04T10:49:16Z</time>
      </trkpt>
      <trkpt lat="42.20445" lon="-1.59257">
        <ele>418.8</ele>
        <time>2021-08-04T10:49:23Z</time>
      </trkpt>
      <trkpt lat="42.20491" lon="-1.59189">
        <ele>422.58</ele>
        <time>2021-08-04T10:49:28Z</time>
      </trkpt>
      <trkpt lat="42.20523" lon="-1.59127">
        <ele>425.6</ele>
        <time>2021-08-04T10:49:32Z</time>
      </trkpt>
      <trkpt lat="42.20547" lon="-1.59053">
        <ele>429.36</ele>
        <time>2021-08-04T10:49:37Z</time>
      </trkpt>
      <trkpt lat="42.20565" lon="-1.58991">
        <ele>433.14</ele>
        <time>2021-08-04T10:49:41Z</time>
      </trkpt>
      <trkpt lat="42.2058" lon="-1.58941">
        <ele>436.46</ele>
        <time>2021-08-04T10:49:44Z</time>
      </trkpt>
      <trkpt lat="42.20591" lon="-1.58886">
        <ele>439.64</ele>
        <time>2021-08-04T10:49:47Z</time>
      </trkpt>
      <trkpt lat="42.20604" lon="-1.58815">
        <ele>443.57</ele>
        <time>2021-08-04T10:49:51Z</time>
      </trkpt>
      <trkpt lat="42.20614" lon="-1.58765">
        <ele>446.97</ele>
        <time>2021-08-04T10:49:54Z</time>
      </trkpt>
      <trkpt lat="42.20627" lon="-1.58721">
        <ele>450.9</ele>
        <time>2021-08-04T10:49:57Z</time>
      </trkpt>
      <trkpt lat="42.20642" lon="-1.58681">
        <ele>453.94</ele>
        <time>2021-08-04T10:50:00Z</time>
      </trkpt>
      <trkpt lat="42.20647" lon="-1.58632">
        <ele>457.87</ele>
        <time>2021-08-04T10:50:04Z</time>
      </trkpt>
    </trkseg>
  </trk>
  <trk>
    <name><![CDATA[TOTAL 4x4 _20]]></name>
    <extensions>
      <line xmlns="http://www.topografix.com/GPX/gpx_style/0/2">
        <color>008800</color>
        <width>4</width>
      </line>
    </extensions>
    <trkseg>
      <trkpt lat="42.20694" lon="-1.58568">
        <ele>467.22</ele>
        <time>2021-08-04T10:59:54Z</time>
      </trkpt>
      <trkpt lat="42.20736" lon="-1.58559">
        <ele>465.2</ele>
        <time>2021-08-04T11:00:00Z</time>
      </trkpt>
      <trkpt lat="42.20786" lon="-1.58534">
        <ele>461.3</ele>
        <time>2021-08-04T11:00:06Z</time>
      </trkpt>
      <trkpt lat="42.20822" lon="-1.5852">
        <ele>457.85</ele>
        <time>2021-08-04T11:00:10Z</time>
      </trkpt>
      <trkpt lat="42.20853" lon="-1.58517">
        <ele>455.06</ele>
        <time>2021-08-04T11:00:13Z</time>
      </trkpt>
      <trkpt lat="42.20895" lon="-1.58498">
        <ele>450.72</ele>
        <time>2021-08-04T11:00:17Z</time>
      </trkpt>
      <trkpt lat="42.20913" lon="-1.58482">
        <ele>448.47</ele>
        <time>2021-08-04T11:00:19Z</time>
      </trkpt>
      <trkpt lat="42.20946" lon="-1.58447">
        <ele>443.94</ele>
        <time>2021-08-04T11:00:23Z</time>
      </trkpt>
      <trkpt lat="42.20972" lon="-1.58425">
        <ele>440.65</ele>
        <time>2021-08-04T11:00:26Z</time>
      </trkpt>
      <trkpt lat="42.21001" lon="-1.58405">
        <ele>437.52</ele>
        <time>2021-08-04T11:00:29Z</time>
      </trkpt>
      <trkpt lat="42.21032" lon="-1.58388">
        <ele>434.3</ele>
        <time>2021-08-04T11:00:32Z</time>
      </trkpt>
      <trkpt lat="42.21051" lon="-1.58379">
        <ele>432.45</ele>
        <time>2021-08-04T11:00:34Z</time>
      </trkpt>
      <trkpt lat="42.21083" lon="-1.58373">
        <ele>428.28</ele>
        <time>2021-08-04T11:00:37Z</time>
      </trkpt>
      <trkpt lat="42.21128" lon="-1.58372">
        <ele>424.41</ele>
        <time>2021-08-04T11:00:41Z</time>
      </trkpt>
      <trkpt lat="42.21158" lon="-1.58363">
        <ele>421.34</ele>
        <time>2021-08-04T11:00:44Z</time>
      </trkpt>
      <trkpt lat="42.21184" lon="-1.5835">
        <ele>418.7</ele>
        <time>2021-08-04T11:00:47Z</time>
      </trkpt>
      <trkpt lat="42.21233" lon="-1.58357">
        <ele>414.85</ele>
        <time>2021-08-04T11:00:52Z</time>
      </trkpt>
      <trkpt lat="42.21291" lon="-1.58379">
        <ele>410.96</ele>
        <time>2021-08-04T11:00:57Z</time>
      </trkpt>
      <trkpt lat="42.21334" lon="-1.58401">
        <ele>407.3</ele>
        <time>2021-08-04T11:01:01Z</time>
      </trkpt>
      <trkpt lat="42.21355" lon="-1.58411">
        <ele>405.53</ele>
        <time>2021-08-04T11:01:03Z</time>
      </trkpt>
      <trkpt lat="42.21409" lon="-1.58411">
        <ele>401.06</ele>
        <time>2021-08-04T11:01:09Z</time>
      </trkpt>
      <trkpt lat="42.21463" lon="-1.58417">
        <ele>397.62</ele>
        <time>2021-08-04T11:01:14Z</time>
      </trkpt>
      <trkpt lat="42.21524" lon="-1.58407">
        <ele>394.57</ele>
        <time>2021-08-04T11:01:19Z</time>
      </trkpt>
      <trkpt lat="42.21576" lon="-1.58381">
        <ele>391.57</ele>
        <time>2021-08-04T11:01:23Z</time>
      </trkpt>
      <trkpt lat="42.21626" lon="-1.58372">
        <ele>387.78</ele>
        <time>2021-08-04T11:01:27Z</time>
      </trkpt>
      <trkpt lat="42.21692" lon="-1.58387">
        <ele>383.62</ele>
        <time>2021-08-04T11:01:32Z</time>
      </trkpt>
      <trkpt lat="42.21759" lon="-1.584">
        <ele>380.14</ele>
        <time>2021-08-04T11:01:37Z</time>
      </trkpt>
      <trkpt lat="42.21827" lon="-1.58413">
        <ele>376.43</ele>
        <time>2021-08-04T11:01:42Z</time>
      </trkpt>
      <trkpt lat="42.2184" lon="-1.58415">
        <ele>375.51</ele>
        <time>2021-08-04T11:01:43Z</time>
      </trkpt>
      <trkpt lat="42.21911" lon="-1.58373">
        <ele>371.43</ele>
        <time>2021-08-04T11:01:49Z</time>
      </trkpt>
      <trkpt lat="42.2196" lon="-1.58312">
        <ele>367.75</ele>
        <time>2021-08-04T11:01:54Z</time>
      </trkpt>
      <trkpt lat="42.21971" lon="-1.58302">
        <ele>367.02</ele>
        <time>2021-08-04T11:01:55Z</time>
      </trkpt>
      <trkpt lat="42.22038" lon="-1.58268">
        <ele>362.95</ele>
        <time>2021-08-04T11:02:01Z</time>
      </trkpt>
      <trkpt lat="42.22108" lon="-1.58229">
        <ele>359.89</ele>
        <time>2021-08-04T11:02:08Z</time>
      </trkpt>
      <trkpt lat="42.22188" lon="-1.58186">
        <ele>359.98</ele>
        <time>2021-08-04T11:02:14Z</time>
      </trkpt>
      <trkpt lat="42.22265" lon="-1.581">
        <ele>362.8</ele>
        <time>2021-08-04T11:02:21Z</time>
      </trkpt>
      <trkpt lat="42.22335" lon="-1.58041">
        <ele>366.82</ele>
        <time>2021-08-04T11:02:27Z</time>
      </trkpt>
      <trkpt lat="42.22347" lon="-1.58031">
        <ele>367.54</ele>
        <time>2021-08-04T11:02:28Z</time>
      </trkpt>
      <trkpt lat="42.22416" lon="-1.57941">
        <ele>371.66</ele>
        <time>2021-08-04T11:02:35Z</time>
      </trkpt>
      <trkpt lat="42.22485" lon="-1.57891">
        <ele>375.05</ele>
        <time>2021-08-04T11:02:42Z</time>
      </trkpt>
      <trkpt lat="42.22529" lon="-1.57842">
        <ele>374.96</ele>
        <time>2021-08-04T11:02:47Z</time>
      </trkpt>
      <trkpt lat="42.2263" lon="-1.5777">
        <ele>371.49</ele>
        <time>2021-08-04T11:02:56Z</time>
      </trkpt>
      <trkpt lat="42.22696" lon="-1.57731">
        <ele>368.17</ele>
        <time>2021-08-04T11:03:02Z</time>
      </trkpt>
      <trkpt lat="42.22756" lon="-1.57747">
        <ele>365.1</ele>
        <time>2021-08-04T11:03:07Z</time>
      </trkpt>
      <trkpt lat="42.22791" lon="-1.57767">
        <ele>363</ele>
        <time>2021-08-04T11:03:10Z</time>
      </trkpt>
      <trkpt lat="42.22828" lon="-1.57777">
        <ele>360.92</ele>
        <time>2021-08-04T11:03:13Z</time>
      </trkpt>
      <trkpt lat="42.22873" lon="-1.57806">
        <ele>358.59</ele>
        <time>2021-08-04T11:03:17Z</time>
      </trkpt>
      <trkpt lat="42.22952" lon="-1.57837">
        <ele>354.9</ele>
        <time>2021-08-04T11:03:23Z</time>
      </trkpt>
      <trkpt lat="42.23105" lon="-1.57845">
        <ele>351.23</ele>
        <time>2021-08-04T11:03:34Z</time>
      </trkpt>
      <trkpt lat="42.2323" lon="-1.57848">
        <ele>348.13</ele>
        <time>2021-08-04T11:03:44Z</time>
      </trkpt>
      <trkpt lat="42.23364" lon="-1.57851">
        <ele>346.09</ele>
        <time>2021-08-04T11:03:53Z</time>
      </trkpt>
      <trkpt lat="42.23568" lon="-1.57845">
        <ele>344.05</ele>
        <time>2021-08-04T11:04:05Z</time>
      </trkpt>
      <trkpt lat="42.2371" lon="-1.57805">
        <ele>342.39</ele>
        <time>2021-08-04T11:04:14Z</time>
      </trkpt>
      <trkpt lat="42.23819" lon="-1.57813">
        <ele>341.49</ele>
        <time>2021-08-04T11:04:21Z</time>
      </trkpt>
      <trkpt lat="42.23953" lon="-1.578">
        <ele>341.12</ele>
        <time>2021-08-04T11:04:29Z</time>
      </trkpt>
      <trkpt lat="42.24099" lon="-1.57782">
        <ele>341.14</ele>
        <time>2021-08-04T11:04:37Z</time>
      </trkpt>
      <trkpt lat="42.24257" lon="-1.57774">
        <ele>341.49</ele>
        <time>2021-08-04T11:04:45Z</time>
      </trkpt>
      <trkpt lat="42.24414" lon="-1.57784">
        <ele>340.25</ele>
        <time>2021-08-04T11:04:55Z</time>
      </trkpt>
      <trkpt lat="42.24498" lon="-1.57776">
        <ele>340.11</ele>
        <time>2021-08-04T11:05:00Z</time>
      </trkpt>
      <trkpt lat="42.2462" lon="-1.57721">
        <ele>341.57</ele>
        <time>2021-08-04T11:05:08Z</time>
      </trkpt>
      <trkpt lat="42.24713" lon="-1.57699">
        <ele>343.83</ele>
        <time>2021-08-04T11:05:15Z</time>
      </trkpt>
      <trkpt lat="42.24785" lon="-1.5769">
        <ele>346.32</ele>
        <time>2021-08-04T11:05:21Z</time>
      </trkpt>
      <trkpt lat="42.24798" lon="-1.57687">
        <ele>346.51</ele>
        <time>2021-08-04T11:05:22Z</time>
      </trkpt>
      <trkpt lat="42.24962" lon="-1.57597">
        <ele>346.15</ele>
        <time>2021-08-04T11:05:34Z</time>
      </trkpt>
      <trkpt lat="42.25045" lon="-1.57553">
        <ele>344.72</ele>
        <time>2021-08-04T11:05:41Z</time>
      </trkpt>
      <trkpt lat="42.2518" lon="-1.57533">
        <ele>344.24</ele>
        <time>2021-08-04T11:05:51Z</time>
      </trkpt>
      <trkpt lat="42.25335" lon="-1.57519">
        <ele>347.37</ele>
        <time>2021-08-04T11:06:03Z</time>
      </trkpt>
      <trkpt lat="42.25392" lon="-1.57514">
        <ele>350.47</ele>
        <time>2021-08-04T11:06:08Z</time>
      </trkpt>
      <trkpt lat="42.25449" lon="-1.57508">
        <ele>354.09</ele>
        <time>2021-08-04T11:06:13Z</time>
      </trkpt>
      <trkpt lat="42.25499" lon="-1.57502">
        <ele>357.22</ele>
        <time>2021-08-04T11:06:17Z</time>
      </trkpt>
      <trkpt lat="42.25563" lon="-1.57495">
        <ele>360.5</ele>
        <time>2021-08-04T11:06:22Z</time>
      </trkpt>
      <trkpt lat="42.25641" lon="-1.57485">
        <ele>364.03</ele>
        <time>2021-08-04T11:06:28Z</time>
      </trkpt>
      <trkpt lat="42.25736" lon="-1.57476">
        <ele>367.65</ele>
        <time>2021-08-04T11:06:35Z</time>
      </trkpt>
      <trkpt lat="42.25787" lon="-1.5747">
        <ele>370.62</ele>
        <time>2021-08-04T11:06:39Z</time>
      </trkpt>
      <trkpt lat="42.2584" lon="-1.57486">
        <ele>374.51</ele>
        <time>2021-08-04T11:06:43Z</time>
      </trkpt>
      <trkpt lat="42.25865" lon="-1.57507">
        <ele>376.79</ele>
        <time>2021-08-04T11:06:45Z</time>
      </trkpt>
      <trkpt lat="42.25923" lon="-1.57531">
        <ele>381.66</ele>
        <time>2021-08-04T11:06:49Z</time>
      </trkpt>
      <trkpt lat="42.25968" lon="-1.57533">
        <ele>386</ele>
        <time>2021-08-04T11:06:52Z</time>
      </trkpt>
      <trkpt lat="42.25981" lon="-1.5753">
        <ele>387.48</ele>
        <time>2021-08-04T11:06:53Z</time>
      </trkpt>
      <trkpt lat="42.25995" lon="-1.57523">
        <ele>388.97</ele>
        <time>2021-08-04T11:06:54Z</time>
      </trkpt>
      <trkpt lat="42.26007" lon="-1.57515">
        <ele>390.5</ele>
        <time>2021-08-04T11:06:55Z</time>
      </trkpt>
      <trkpt lat="42.26019" lon="-1.57504">
        <ele>392.15</ele>
        <time>2021-08-04T11:06:56Z</time>
      </trkpt>
      <trkpt lat="42.26041" lon="-1.57486">
        <ele>395.5</ele>
        <time>2021-08-04T11:06:58Z</time>
      </trkpt>
      <trkpt lat="42.2609" lon="-1.57479">
        <ele>401.48</ele>
        <time>2021-08-04T11:07:02Z</time>
      </trkpt>
      <trkpt lat="42.26115" lon="-1.5749">
        <ele>403.93</ele>
        <time>2021-08-04T11:07:04Z</time>
      </trkpt>
      <trkpt lat="42.2614" lon="-1.57502">
        <ele>405.88</ele>
        <time>2021-08-04T11:07:06Z</time>
      </trkpt>
      <trkpt lat="42.26195" lon="-1.5751">
        <ele>408.65</ele>
        <time>2021-08-04T11:07:10Z</time>
      </trkpt>
      <trkpt lat="42.26325" lon="-1.57498">
        <ele>409.66</ele>
        <time>2021-08-04T11:07:19Z</time>
      </trkpt>
      <trkpt lat="42.26457" lon="-1.57507">
        <ele>409.04</ele>
        <time>2021-08-04T11:07:28Z</time>
      </trkpt>
      <trkpt lat="42.26515" lon="-1.57509">
        <ele>408.82</ele>
        <time>2021-08-04T11:07:32Z</time>
      </trkpt>
      <trkpt lat="42.26587" lon="-1.57533">
        <ele>408.52</ele>
        <time>2021-08-04T11:07:37Z</time>
      </trkpt>
      <trkpt lat="42.26615" lon="-1.57554">
        <ele>408.42</ele>
        <time>2021-08-04T11:07:39Z</time>
      </trkpt>
      <trkpt lat="42.26727" lon="-1.57577">
        <ele>407.64</ele>
        <time>2021-08-04T11:07:46Z</time>
      </trkpt>
      <trkpt lat="42.26775" lon="-1.57564">
        <ele>407.14</ele>
        <time>2021-08-04T11:07:49Z</time>
      </trkpt>
      <trkpt lat="42.26881" lon="-1.57534">
        <ele>404.6</ele>
        <time>2021-08-04T11:07:58Z</time>
      </trkpt>
      <trkpt lat="42.26954" lon="-1.57527">
        <ele>403.34</ele>
        <time>2021-08-04T11:08:04Z</time>
      </trkpt>
      <trkpt lat="42.27012" lon="-1.57531">
        <ele>402.73</ele>
        <time>2021-08-04T11:08:09Z</time>
      </trkpt>
      <trkpt lat="42.27068" lon="-1.57508">
        <ele>401.3</ele>
        <time>2021-08-04T11:08:14Z</time>
      </trkpt>
      <trkpt lat="42.27172" lon="-1.57499">
        <ele>399.98</ele>
        <time>2021-08-04T11:08:22Z</time>
      </trkpt>
      <trkpt lat="42.27302" lon="-1.57497">
        <ele>400.75</ele>
        <time>2021-08-04T11:08:30Z</time>
      </trkpt>
      <trkpt lat="42.2736" lon="-1.57549">
        <ele>401.06</ele>
        <time>2021-08-04T11:08:35Z</time>
      </trkpt>
      <trkpt lat="42.27421" lon="-1.5759">
        <ele>402.39</ele>
        <time>2021-08-04T11:08:39Z</time>
      </trkpt>
      <trkpt lat="42.27474" lon="-1.57616">
        <ele>402.76</ele>
        <time>2021-08-04T11:08:42Z</time>
      </trkpt>
      <trkpt lat="42.27587" lon="-1.57639">
        <ele>403.41</ele>
        <time>2021-08-04T11:08:48Z</time>
      </trkpt>
      <trkpt lat="42.27685" lon="-1.57667">
        <ele>403.74</ele>
        <time>2021-08-04T11:08:54Z</time>
      </trkpt>
      <trkpt lat="42.27748" lon="-1.57693">
        <ele>400.55</ele>
        <time>2021-08-04T11:08:59Z</time>
      </trkpt>
      <trkpt lat="42.2782" lon="-1.57723">
        <ele>397.44</ele>
        <time>2021-08-04T11:09:06Z</time>
      </trkpt>
      <trkpt lat="42.27878" lon="-1.57755">
        <ele>393.94</ele>
        <time>2021-08-04T11:09:13Z</time>
      </trkpt>
      <trkpt lat="42.27967" lon="-1.57807">
        <ele>391.13</ele>
        <time>2021-08-04T11:09:22Z</time>
      </trkpt>
      <trkpt lat="42.28082" lon="-1.57894">
        <ele>393.47</ele>
        <time>2021-08-04T11:09:29Z</time>
      </trkpt>
      <trkpt lat="42.28111" lon="-1.57922">
        <ele>394.14</ele>
        <time>2021-08-04T11:09:31Z</time>
      </trkpt>
      <trkpt lat="42.28125" lon="-1.57939">
        <ele>394.25</ele>
        <time>2021-08-04T11:09:32Z</time>
      </trkpt>
      <trkpt lat="42.28198" lon="-1.58044">
        <ele>392.47</ele>
        <time>2021-08-04T11:09:38Z</time>
      </trkpt>
      <trkpt lat="42.28283" lon="-1.58103">
        <ele>390.06</ele>
        <time>2021-08-04T11:09:43Z</time>
      </trkpt>
      <trkpt lat="42.28345" lon="-1.58188">
        <ele>389.33</ele>
        <time>2021-08-04T11:09:48Z</time>
      </trkpt>
      <trkpt lat="42.2843" lon="-1.58376">
        <ele>386.29</ele>
        <time>2021-08-04T11:09:57Z</time>
      </trkpt>
      <trkpt lat="42.28459" lon="-1.5841">
        <ele>383.81</ele>
        <time>2021-08-04T11:10:00Z</time>
      </trkpt>
      <trkpt lat="42.28501" lon="-1.58478">
        <ele>379.3</ele>
        <time>2021-08-04T11:10:05Z</time>
      </trkpt>
      <trkpt lat="42.28544" lon="-1.58656">
        <ele>376.02</ele>
        <time>2021-08-04T11:10:15Z</time>
      </trkpt>
      <trkpt lat="42.28566" lon="-1.58712">
        <ele>374.81</ele>
        <time>2021-08-04T11:10:19Z</time>
      </trkpt>
      <trkpt lat="42.28584" lon="-1.58771">
        <ele>373.87</ele>
        <time>2021-08-04T11:10:23Z</time>
      </trkpt>
      <trkpt lat="42.28603" lon="-1.5889">
        <ele>372.98</ele>
        <time>2021-08-04T11:10:32Z</time>
      </trkpt>
      <trkpt lat="42.28603" lon="-1.58931">
        <ele>373.46</ele>
        <time>2021-08-04T11:10:38Z</time>
      </trkpt>
      <trkpt lat="42.28605" lon="-1.58934">
        <ele>373.52</ele>
        <time>2021-08-04T11:10:39Z</time>
      </trkpt>
      <trkpt lat="42.28607" lon="-1.58936">
        <ele>373.56</ele>
        <time>2021-08-04T11:10:40Z</time>
      </trkpt>
      <trkpt lat="42.28608" lon="-1.58938">
        <ele>373.56</ele>
        <time>2021-08-04T11:10:41Z</time>
      </trkpt>
      <trkpt lat="42.2861" lon="-1.58939">
        <ele>373.58</ele>
        <time>2021-08-04T11:10:42Z</time>
      </trkpt>
      <trkpt lat="42.28638" lon="-1.58958">
        <ele>373.85</ele>
        <time>2021-08-04T11:10:47Z</time>
      </trkpt>
      <trkpt lat="42.28713" lon="-1.59036">
        <ele>375</ele>
        <time>2021-08-04T11:10:55Z</time>
      </trkpt>
      <trkpt lat="42.28817" lon="-1.59144">
        <ele>377.63</ele>
        <time>2021-08-04T11:11:05Z</time>
      </trkpt>
      <trkpt lat="42.28877" lon="-1.5915">
        <ele>378.81</ele>
        <time>2021-08-04T11:11:12Z</time>
      </trkpt>
      <trkpt lat="42.2889" lon="-1.5914">
        <ele>378.86</ele>
        <time>2021-08-04T11:11:15Z</time>
      </trkpt>
      <trkpt lat="42.28923" lon="-1.59113">
        <ele>378.87</ele>
        <time>2021-08-04T11:11:20Z</time>
      </trkpt>
      <trkpt lat="42.29047" lon="-1.59062">
        <ele>379.07</ele>
        <time>2021-08-04T11:11:32Z</time>
      </trkpt>
      <trkpt lat="42.29086" lon="-1.59044">
        <ele>379.2</ele>
        <time>2021-08-04T11:11:36Z</time>
      </trkpt>
      <trkpt lat="42.29121" lon="-1.58983">
        <ele>379.08</ele>
        <time>2021-08-04T11:11:42Z</time>
      </trkpt>
      <trkpt lat="42.29149" lon="-1.5883">
        <ele>378.68</ele>
        <time>2021-08-04T11:11:55Z</time>
      </trkpt>
      <trkpt lat="42.2915" lon="-1.58819">
        <ele>378.66</ele>
        <time>2021-08-04T11:11:56Z</time>
      </trkpt>
      <trkpt lat="42.2919" lon="-1.5879">
        <ele>378.58</ele>
        <time>2021-08-04T11:12:03Z</time>
      </trkpt>
      <trkpt lat="42.29291" lon="-1.58807">
        <ele>378.74</ele>
        <time>2021-08-04T11:12:14Z</time>
      </trkpt>
      <trkpt lat="42.29376" lon="-1.58764">
        <ele>378.8</ele>
        <time>2021-08-04T11:12:24Z</time>
      </trkpt>
      <trkpt lat="42.294" lon="-1.5875">
        <ele>378.91</ele>
        <time>2021-08-04T11:12:27Z</time>
      </trkpt>
      <trkpt lat="42.29427" lon="-1.58694">
        <ele>378.89</ele>
        <time>2021-08-04T11:12:33Z</time>
      </trkpt>
      <trkpt lat="42.2943" lon="-1.58659">
        <ele>378.77</ele>
        <time>2021-08-04T11:12:36Z</time>
      </trkpt>
      <trkpt lat="42.29474" lon="-1.58615">
        <ele>378.75</ele>
        <time>2021-08-04T11:12:43Z</time>
      </trkpt>
      <trkpt lat="42.29494" lon="-1.58617">
        <ele>378.83</ele>
        <time>2021-08-04T11:12:45Z</time>
      </trkpt>
      <trkpt lat="42.2952" lon="-1.58613">
        <ele>379.12</ele>
        <time>2021-08-04T11:12:48Z</time>
      </trkpt>
      <trkpt lat="42.29559" lon="-1.58643">
        <ele>379.2</ele>
        <time>2021-08-04T11:12:53Z</time>
      </trkpt>
      <trkpt lat="42.29599" lon="-1.58669">
        <ele>379.2</ele>
        <time>2021-08-04T11:12:58Z</time>
      </trkpt>
      <trkpt lat="42.29653" lon="-1.58665">
        <ele>379.39</ele>
        <time>2021-08-04T11:13:05Z</time>
      </trkpt>
      <trkpt lat="42.29659" lon="-1.58661">
        <ele>379.36</ele>
        <time>2021-08-04T11:13:06Z</time>
      </trkpt>
      <trkpt lat="42.29663" lon="-1.58655">
        <ele>379.35</ele>
        <time>2021-08-04T11:13:07Z</time>
      </trkpt>
      <trkpt lat="42.2967" lon="-1.5861">
        <ele>379.35</ele>
        <time>2021-08-04T11:13:11Z</time>
      </trkpt>
      <trkpt lat="42.29666" lon="-1.58551">
        <ele>379.47</ele>
        <time>2021-08-04T11:13:15Z</time>
      </trkpt>
      <trkpt lat="42.29676" lon="-1.58489">
        <ele>379.66</ele>
        <time>2021-08-04T11:13:19Z</time>
      </trkpt>
      <trkpt lat="42.29768" lon="-1.5823">
        <ele>380.6</ele>
        <time>2021-08-04T11:13:34Z</time>
      </trkpt>
      <trkpt lat="42.29778" lon="-1.58202">
        <ele>380.64</ele>
        <time>2021-08-04T11:13:36Z</time>
      </trkpt>
      <trkpt lat="42.29822" lon="-1.58164">
        <ele>380.19</ele>
        <time>2021-08-04T11:13:41Z</time>
      </trkpt>
      <trkpt lat="42.29849" lon="-1.58147">
        <ele>379.32</ele>
        <time>2021-08-04T11:13:48Z</time>
      </trkpt>
      <trkpt lat="42.2986" lon="-1.58051">
        <ele>378.45</ele>
        <time>2021-08-04T11:13:59Z</time>
      </trkpt>
      <trkpt lat="42.29862" lon="-1.57994">
        <ele>378.74</ele>
        <time>2021-08-04T11:14:04Z</time>
      </trkpt>
      <trkpt lat="42.29855" lon="-1.5795">
        <ele>378.91</ele>
        <time>2021-08-04T11:14:08Z</time>
      </trkpt>
      <trkpt lat="42.29874" lon="-1.57904">
        <ele>378.91</ele>
        <time>2021-08-04T11:14:14Z</time>
      </trkpt>
      <trkpt lat="42.29884" lon="-1.57904">
        <ele>378.91</ele>
        <time>2021-08-04T11:14:15Z</time>
      </trkpt>
      <trkpt lat="42.29904" lon="-1.57901">
        <ele>378.96</ele>
        <time>2021-08-04T11:14:17Z</time>
      </trkpt>
      <trkpt lat="42.29953" lon="-1.57871">
        <ele>379.69</ele>
        <time>2021-08-04T11:14:22Z</time>
      </trkpt>
      <trkpt lat="42.29985" lon="-1.57835">
        <ele>380.23</ele>
        <time>2021-08-04T11:14:26Z</time>
      </trkpt>
      <trkpt lat="42.29999" lon="-1.57773">
        <ele>380.35</ele>
        <time>2021-08-04T11:14:31Z</time>
      </trkpt>
      <trkpt lat="42.29997" lon="-1.57718">
        <ele>380.33</ele>
        <time>2021-08-04T11:14:35Z</time>
      </trkpt>
      <trkpt lat="42.30019" lon="-1.57667">
        <ele>380.23</ele>
        <time>2021-08-04T11:14:40Z</time>
      </trkpt>
      <trkpt lat="42.30092" lon="-1.57595">
        <ele>380.98</ele>
        <time>2021-08-04T11:14:47Z</time>
      </trkpt>
      <trkpt lat="42.30139" lon="-1.57557">
        <ele>381.24</ele>
        <time>2021-08-04T11:14:51Z</time>
      </trkpt>
      <trkpt lat="42.30169" lon="-1.57486">
        <ele>381.16</ele>
        <time>2021-08-04T11:14:56Z</time>
      </trkpt>
      <trkpt lat="42.30221" lon="-1.57419">
        <ele>380.36</ele>
        <time>2021-08-04T11:15:03Z</time>
      </trkpt>
      <trkpt lat="42.30244" lon="-1.57414">
        <ele>380.22</ele>
        <time>2021-08-04T11:15:05Z</time>
      </trkpt>
      <trkpt lat="42.30287" lon="-1.57358">
        <ele>379.95</ele>
        <time>2021-08-04T11:15:11Z</time>
      </trkpt>
      <trkpt lat="42.30309" lon="-1.57272">
        <ele>379.46</ele>
        <time>2021-08-04T11:15:18Z</time>
      </trkpt>
      <trkpt lat="42.30304" lon="-1.57157">
        <ele>379.35</ele>
        <time>2021-08-04T11:15:25Z</time>
      </trkpt>
      <trkpt lat="42.30279" lon="-1.56936">
        <ele>379.74</ele>
        <time>2021-08-04T11:15:38Z</time>
      </trkpt>
      <trkpt lat="42.30276" lon="-1.56911">
        <ele>379.73</ele>
        <time>2021-08-04T11:15:40Z</time>
      </trkpt>
      <trkpt lat="42.30283" lon="-1.56865">
        <ele>379.63</ele>
        <time>2021-08-04T11:15:44Z</time>
      </trkpt>
      <trkpt lat="42.30289" lon="-1.56785">
        <ele>379.52</ele>
        <time>2021-08-04T11:15:50Z</time>
      </trkpt>
      <trkpt lat="42.30327" lon="-1.5673">
        <ele>379.52</ele>
        <time>2021-08-04T11:15:55Z</time>
      </trkpt>
      <trkpt lat="42.30415" lon="-1.56678">
        <ele>380.2</ele>
        <time>2021-08-04T11:16:03Z</time>
      </trkpt>
      <trkpt lat="42.30435" lon="-1.56676">
        <ele>380.27</ele>
        <time>2021-08-04T11:16:05Z</time>
      </trkpt>
      <trkpt lat="42.30474" lon="-1.56616">
        <ele>379.58</ele>
        <time>2021-08-04T11:16:12Z</time>
      </trkpt>
      <trkpt lat="42.30471" lon="-1.56601">
        <ele>379.49</ele>
        <time>2021-08-04T11:16:13Z</time>
      </trkpt>
      <trkpt lat="42.30455" lon="-1.56522">
        <ele>379.32</ele>
        <time>2021-08-04T11:16:19Z</time>
      </trkpt>
      <trkpt lat="42.30484" lon="-1.56473">
        <ele>379.38</ele>
        <time>2021-08-04T11:16:25Z</time>
      </trkpt>
      <trkpt lat="42.30536" lon="-1.56425">
        <ele>379.39</ele>
        <time>2021-08-04T11:16:32Z</time>
      </trkpt>
      <trkpt lat="42.30541" lon="-1.56387">
        <ele>379.28</ele>
        <time>2021-08-04T11:16:35Z</time>
      </trkpt>
      <trkpt lat="42.30536" lon="-1.56188">
        <ele>379.58</ele>
        <time>2021-08-04T11:16:47Z</time>
      </trkpt>
      <trkpt lat="42.30536" lon="-1.56175">
        <ele>379.58</ele>
        <time>2021-08-04T11:16:48Z</time>
      </trkpt>
      <trkpt lat="42.30554" lon="-1.5613">
        <ele>379.27</ele>
        <time>2021-08-04T11:16:54Z</time>
      </trkpt>
      <trkpt lat="42.30619" lon="-1.56078">
        <ele>379.06</ele>
        <time>2021-08-04T11:17:02Z</time>
      </trkpt>
      <trkpt lat="42.30725" lon="-1.56001">
        <ele>379.31</ele>
        <time>2021-08-04T11:17:12Z</time>
      </trkpt>
      <trkpt lat="42.30767" lon="-1.56">
        <ele>379.22</ele>
        <time>2021-08-04T11:17:16Z</time>
      </trkpt>
      <trkpt lat="42.30797" lon="-1.56012">
        <ele>379.19</ele>
        <time>2021-08-04T11:17:19Z</time>
      </trkpt>
      <trkpt lat="42.30861" lon="-1.55979">
        <ele>379.32</ele>
        <time>2021-08-04T11:17:26Z</time>
      </trkpt>
      <trkpt lat="42.30866" lon="-1.55966">
        <ele>379.33</ele>
        <time>2021-08-04T11:17:27Z</time>
      </trkpt>
      <trkpt lat="42.30923" lon="-1.55858">
        <ele>379.21</ele>
        <time>2021-08-04T11:17:36Z</time>
      </trkpt>
      <trkpt lat="42.30933" lon="-1.55815">
        <ele>379.18</ele>
        <time>2021-08-04T11:17:40Z</time>
      </trkpt>
      <trkpt lat="42.30945" lon="-1.55677">
        <ele>379.36</ele>
        <time>2021-08-04T11:17:49Z</time>
      </trkpt>
      <trkpt lat="42.30961" lon="-1.55519">
        <ele>378.95</ele>
        <time>2021-08-04T11:18:00Z</time>
      </trkpt>
      <trkpt lat="42.31003" lon="-1.55468">
        <ele>378.74</ele>
        <time>2021-08-04T11:18:06Z</time>
      </trkpt>
      <trkpt lat="42.31014" lon="-1.55467">
        <ele>378.77</ele>
        <time>2021-08-04T11:18:07Z</time>
      </trkpt>
      <trkpt lat="42.31077" lon="-1.55469">
        <ele>378.73</ele>
        <time>2021-08-04T11:18:15Z</time>
      </trkpt>
      <trkpt lat="42.31103" lon="-1.55502">
        <ele>378.57</ele>
        <time>2021-08-04T11:18:21Z</time>
      </trkpt>
      <trkpt lat="42.31151" lon="-1.55505">
        <ele>378.47</ele>
        <time>2021-08-04T11:18:26Z</time>
      </trkpt>
      <trkpt lat="42.3116" lon="-1.555">
        <ele>378.4</ele>
        <time>2021-08-04T11:18:27Z</time>
      </trkpt>
      <trkpt lat="42.31223" lon="-1.55466">
        <ele>377.68</ele>
        <time>2021-08-04T11:18:36Z</time>
      </trkpt>
      <trkpt lat="42.31316" lon="-1.55459">
        <ele>377.26</ele>
        <time>2021-08-04T11:18:47Z</time>
      </trkpt>
      <trkpt lat="42.3133" lon="-1.55459">
        <ele>377.2</ele>
        <time>2021-08-04T11:18:49Z</time>
      </trkpt>
      <trkpt lat="42.31376" lon="-1.55486">
        <ele>377.16</ele>
        <time>2021-08-04T11:18:55Z</time>
      </trkpt>
      <trkpt lat="42.31462" lon="-1.55583">
        <ele>375.19</ele>
        <time>2021-08-04T11:19:08Z</time>
      </trkpt>
      <trkpt lat="42.31554" lon="-1.55643">
        <ele>372.6</ele>
        <time>2021-08-04T11:19:22Z</time>
      </trkpt>
      <trkpt lat="42.31562" lon="-1.55647">
        <ele>372.42</ele>
        <time>2021-08-04T11:19:23Z</time>
      </trkpt>
      <trkpt lat="42.31646" lon="-1.5565">
        <ele>369.88</ele>
        <time>2021-08-04T11:19:32Z</time>
      </trkpt>
      <trkpt lat="42.31696" lon="-1.55651">
        <ele>368.19</ele>
        <time>2021-08-04T11:19:37Z</time>
      </trkpt>
      <trkpt lat="42.31801" lon="-1.55688">
        <ele>364.76</ele>
        <time>2021-08-04T11:19:47Z</time>
      </trkpt>
      <trkpt lat="42.31966" lon="-1.55742">
        <ele>362</ele>
        <time>2021-08-04T11:20:02Z</time>
      </trkpt>
      <trkpt lat="42.31987" lon="-1.55752">
        <ele>361.52</ele>
        <time>2021-08-04T11:20:04Z</time>
      </trkpt>
      <trkpt lat="42.32023" lon="-1.55795">
        <ele>360.61</ele>
        <time>2021-08-04T11:20:08Z</time>
      </trkpt>
      <trkpt lat="42.32058" lon="-1.55867">
        <ele>359.87</ele>
        <time>2021-08-04T11:20:13Z</time>
      </trkpt>
      <trkpt lat="42.32054" lon="-1.55945">
        <ele>358.82</ele>
        <time>2021-08-04T11:20:18Z</time>
      </trkpt>
      <trkpt lat="42.32047" lon="-1.5596">
        <ele>358.68</ele>
        <time>2021-08-04T11:20:19Z</time>
      </trkpt>
      <trkpt lat="42.31967" lon="-1.56112">
        <ele>357.95</ele>
        <time>2021-08-04T11:20:31Z</time>
      </trkpt>
      <trkpt lat="42.31909" lon="-1.56225">
        <ele>360.31</ele>
        <time>2021-08-04T11:20:42Z</time>
      </trkpt>
      <trkpt lat="42.31859" lon="-1.56326">
        <ele>360.37</ele>
        <time>2021-08-04T11:20:52Z</time>
      </trkpt>
      <trkpt lat="42.31818" lon="-1.56437">
        <ele>359.6</ele>
        <time>2021-08-04T11:21:02Z</time>
      </trkpt>
      <trkpt lat="42.31788" lon="-1.56525">
        <ele>356.18</ele>
        <time>2021-08-04T11:21:12Z</time>
      </trkpt>
      <trkpt lat="42.31777" lon="-1.56568">
        <ele>352.93</ele>
        <time>2021-08-04T11:21:20Z</time>
      </trkpt>
      <trkpt lat="42.31792" lon="-1.56621">
        <ele>350.71</ele>
        <time>2021-08-04T11:21:32Z</time>
      </trkpt>
      <trkpt lat="42.31815" lon="-1.56684">
        <ele>350.07</ele>
        <time>2021-08-04T11:21:43Z</time>
      </trkpt>
      <trkpt lat="42.3184" lon="-1.56749">
        <ele>349.46</ele>
        <time>2021-08-04T11:21:52Z</time>
      </trkpt>
      <trkpt lat="42.31851" lon="-1.56796">
        <ele>349.07</ele>
        <time>2021-08-04T11:22:00Z</time>
      </trkpt>
      <trkpt lat="42.31849" lon="-1.56838">
        <ele>348.73</ele>
        <time>2021-08-04T11:22:08Z</time>
      </trkpt>
      <trkpt lat="42.31849" lon="-1.56839">
        <ele>348.3</ele>
        <time>2021-08-04T11:22:17Z</time>
      </trkpt>
      <trkpt lat="42.31866" lon="-1.5686">
        <ele>348.33</ele>
        <time>2021-08-04T11:22:22Z</time>
      </trkpt>
      <trkpt lat="42.31952" lon="-1.56912">
        <ele>348.43</ele>
        <time>2021-08-04T11:22:34Z</time>
      </trkpt>
      <trkpt lat="42.32034" lon="-1.56966">
        <ele>349.13</ele>
        <time>2021-08-04T11:22:48Z</time>
      </trkpt>
      <trkpt lat="42.32018" lon="-1.57023">
        <ele>348.81</ele>
        <time>2021-08-04T11:22:56Z</time>
      </trkpt>
      <trkpt lat="42.31983" lon="-1.57122">
        <ele>347.5</ele>
        <time>2021-08-04T11:23:07Z</time>
      </trkpt>
      <trkpt lat="42.31967" lon="-1.57171">
        <ele>347.16</ele>
        <time>2021-08-04T11:23:12Z</time>
      </trkpt>
      <trkpt lat="42.31966" lon="-1.57233">
        <ele>346.67</ele>
        <time>2021-08-04T11:23:18Z</time>
      </trkpt>
      <trkpt lat="42.31977" lon="-1.57336">
        <ele>345.55</ele>
        <time>2021-08-04T11:23:30Z</time>
      </trkpt>
      <trkpt lat="42.31982" lon="-1.57399">
        <ele>344.32</ele>
        <time>2021-08-04T11:23:40Z</time>
      </trkpt>
      <trkpt lat="42.31986" lon="-1.57414">
        <ele>343.68</ele>
        <time>2021-08-04T11:23:48Z</time>
      </trkpt>
      <trkpt lat="42.31987" lon="-1.57417">
        <ele>343.63</ele>
        <time>2021-08-04T11:23:49Z</time>
      </trkpt>
      <trkpt lat="42.32" lon="-1.5742">
        <ele>343.34</ele>
        <time>2021-08-04T11:23:53Z</time>
      </trkpt>
      <trkpt lat="42.32048" lon="-1.57408">
        <ele>342.89</ele>
        <time>2021-08-04T11:24:02Z</time>
      </trkpt>
      <trkpt lat="42.32078" lon="-1.57407">
        <ele>342.4</ele>
        <time>2021-08-04T11:24:16Z</time>
      </trkpt>
      <trkpt lat="42.32079" lon="-1.5741">
        <ele>342.44</ele>
        <time>2021-08-04T11:24:35Z</time>
      </trkpt>
      <trkpt lat="42.32079" lon="-1.5741">
        <ele>342.78</ele>
        <time>2021-08-04T11:25:10Z</time>
      </trkpt>
      <trkpt lat="42.32086" lon="-1.5741">
        <ele>342.64</ele>
        <time>2021-08-04T11:35:04Z</time>
      </trkpt>
      <trkpt lat="42.32085" lon="-1.5741">
        <ele>342.64</ele>
        <time>2021-08-04T11:35:25Z</time>
      </trkpt>
      <trkpt lat="42.32082" lon="-1.57406">
        <ele>342.64</ele>
        <time>2021-08-04T11:35:29Z</time>
      </trkpt>
      <trkpt lat="42.32096" lon="-1.57399">
        <ele>341.04</ele>
        <time>2021-08-04T11:35:33Z</time>
      </trkpt>
      <trkpt lat="42.32129" lon="-1.57412">
        <ele>341.13</ele>
        <time>2021-08-04T11:35:39Z</time>
      </trkpt>
      <trkpt lat="42.3218" lon="-1.5751">
        <ele>342.06</ele>
        <time>2021-08-04T11:35:47Z</time>
      </trkpt>
      <trkpt lat="42.32254" lon="-1.57611">
        <ele>342.99</ele>
        <time>2021-08-04T11:35:55Z</time>
      </trkpt>
      <trkpt lat="42.32395" lon="-1.57742">
        <ele>340.66</ele>
        <time>2021-08-04T11:36:05Z</time>
      </trkpt>
      <trkpt lat="42.32611" lon="-1.57941">
        <ele>338.35</ele>
        <time>2021-08-04T11:36:19Z</time>
      </trkpt>
      <trkpt lat="42.32839" lon="-1.58148">
        <ele>338.55</ele>
        <time>2021-08-04T11:36:33Z</time>
      </trkpt>
      <trkpt lat="42.33117" lon="-1.58403">
        <ele>335.76</ele>
        <time>2021-08-04T11:36:49Z</time>
      </trkpt>
      <trkpt lat="42.33233" lon="-1.58535">
        <ele>332.88</ele>
        <time>2021-08-04T11:36:57Z</time>
      </trkpt>
      <trkpt lat="42.33356" lon="-1.58737">
        <ele>333.47</ele>
        <time>2021-08-04T11:37:07Z</time>
      </trkpt>
      <trkpt lat="42.33475" lon="-1.58929">
        <ele>334.62</ele>
        <time>2021-08-04T11:37:16Z</time>
      </trkpt>
      <trkpt lat="42.33637" lon="-1.59071">
        <ele>334.65</ele>
        <time>2021-08-04T11:37:26Z</time>
      </trkpt>
      <trkpt lat="42.33789" lon="-1.59196">
        <ele>332.89</ele>
        <time>2021-08-04T11:37:37Z</time>
      </trkpt>
      <trkpt lat="42.33833" lon="-1.59233">
        <ele>331.05</ele>
        <time>2021-08-04T11:37:43Z</time>
      </trkpt>
      <trkpt lat="42.33844" lon="-1.5924">
        <ele>329.5</ele>
        <time>2021-08-04T11:37:48Z</time>
      </trkpt>
      <trkpt lat="42.33859" lon="-1.59228">
        <ele>328.91</ele>
        <time>2021-08-04T11:37:52Z</time>
      </trkpt>
      <trkpt lat="42.33926" lon="-1.59152">
        <ele>329.68</ele>
        <time>2021-08-04T11:38:00Z</time>
      </trkpt>
      <trkpt lat="42.34" lon="-1.5908">
        <ele>333.23</ele>
        <time>2021-08-04T11:38:06Z</time>
      </trkpt>
      <trkpt lat="42.34013" lon="-1.59067">
        <ele>333.99</ele>
        <time>2021-08-04T11:38:07Z</time>
      </trkpt>
      <trkpt lat="42.34049" lon="-1.58966">
        <ele>337.75</ele>
        <time>2021-08-04T11:38:12Z</time>
      </trkpt>
      <trkpt lat="42.34058" lon="-1.58897">
        <ele>340.29</ele>
        <time>2021-08-04T11:38:15Z</time>
      </trkpt>
      <trkpt lat="42.34099" lon="-1.58788">
        <ele>344.46</ele>
        <time>2021-08-04T11:38:20Z</time>
      </trkpt>
      <trkpt lat="42.34159" lon="-1.58675">
        <ele>348.17</ele>
        <time>2021-08-04T11:38:25Z</time>
      </trkpt>
      <trkpt lat="42.3427" lon="-1.5847">
        <ele>351.21</ele>
        <time>2021-08-04T11:38:34Z</time>
      </trkpt>
      <trkpt lat="42.34471" lon="-1.58096">
        <ele>351.86</ele>
        <time>2021-08-04T11:38:50Z</time>
      </trkpt>
      <trkpt lat="42.34695" lon="-1.57679">
        <ele>354.92</ele>
        <time>2021-08-04T11:39:08Z</time>
      </trkpt>
      <trkpt lat="42.34899" lon="-1.57299">
        <ele>356.11</ele>
        <time>2021-08-04T11:39:24Z</time>
      </trkpt>
      <trkpt lat="42.35059" lon="-1.57002">
        <ele>356.19</ele>
        <time>2021-08-04T11:39:38Z</time>
      </trkpt>
      <trkpt lat="42.35201" lon="-1.56714">
        <ele>356.24</ele>
        <time>2021-08-04T11:39:52Z</time>
      </trkpt>
      <trkpt lat="42.35301" lon="-1.56514">
        <ele>352.76</ele>
        <time>2021-08-04T11:40:01Z</time>
      </trkpt>
      <trkpt lat="42.35368" lon="-1.56395">
        <ele>349.13</ele>
        <time>2021-08-04T11:40:06Z</time>
      </trkpt>
      <trkpt lat="42.35415" lon="-1.56295">
        <ele>345.36</ele>
        <time>2021-08-04T11:40:10Z</time>
      </trkpt>
      <trkpt lat="42.35459" lon="-1.56192">
        <ele>342.46</ele>
        <time>2021-08-04T11:40:14Z</time>
      </trkpt>
      <trkpt lat="42.35485" lon="-1.56047">
        <ele>342.37</ele>
        <time>2021-08-04T11:40:19Z</time>
      </trkpt>
      <trkpt lat="42.3552" lon="-1.5594">
        <ele>343.52</ele>
        <time>2021-08-04T11:40:23Z</time>
      </trkpt>
      <trkpt lat="42.356" lon="-1.55768">
        <ele>347.23</ele>
        <time>2021-08-04T11:40:30Z</time>
      </trkpt>
      <trkpt lat="42.3565" lon="-1.55617">
        <ele>348.83</ele>
        <time>2021-08-04T11:40:37Z</time>
      </trkpt>
      <trkpt lat="42.35692" lon="-1.55486">
        <ele>348.27</ele>
        <time>2021-08-04T11:40:46Z</time>
      </trkpt>
      <trkpt lat="42.35744" lon="-1.55327">
        <ele>347.25</ele>
        <time>2021-08-04T11:41:01Z</time>
      </trkpt>
      <trkpt lat="42.35798" lon="-1.55164">
        <ele>347.93</ele>
        <time>2021-08-04T11:41:15Z</time>
      </trkpt>
      <trkpt lat="42.35849" lon="-1.55006">
        <ele>347.67</ele>
        <time>2021-08-04T11:41:30Z</time>
      </trkpt>
      <trkpt lat="42.35893" lon="-1.54854">
        <ele>347.78</ele>
        <time>2021-08-04T11:41:44Z</time>
      </trkpt>
      <trkpt lat="42.35928" lon="-1.5475">
        <ele>348.13</ele>
        <time>2021-08-04T11:41:53Z</time>
      </trkpt>
      <trkpt lat="42.35971" lon="-1.54711">
        <ele>347.96</ele>
        <time>2021-08-04T11:41:59Z</time>
      </trkpt>
      <trkpt lat="42.36011" lon="-1.54698">
        <ele>346.95</ele>
        <time>2021-08-04T11:42:03Z</time>
      </trkpt>
      <trkpt lat="42.36051" lon="-1.54669">
        <ele>344.95</ele>
        <time>2021-08-04T11:42:07Z</time>
      </trkpt>
      <trkpt lat="42.36084" lon="-1.54622">
        <ele>341.09</ele>
        <time>2021-08-04T11:42:13Z</time>
      </trkpt>
      <trkpt lat="42.36102" lon="-1.54589">
        <ele>337.82</ele>
        <time>2021-08-04T11:42:19Z</time>
      </trkpt>
      <trkpt lat="42.36128" lon="-1.54506">
        <ele>335.3</ele>
        <time>2021-08-04T11:42:26Z</time>
      </trkpt>
      <trkpt lat="42.36162" lon="-1.54345">
        <ele>332.69</ele>
        <time>2021-08-04T11:42:33Z</time>
      </trkpt>
      <trkpt lat="42.36175" lon="-1.54292">
        <ele>332</ele>
        <time>2021-08-04T11:42:35Z</time>
      </trkpt>
      <trkpt lat="42.36247" lon="-1.54131">
        <ele>329.45</ele>
        <time>2021-08-04T11:42:42Z</time>
      </trkpt>
      <trkpt lat="42.36262" lon="-1.54027">
        <ele>328.15</ele>
        <time>2021-08-04T11:42:46Z</time>
      </trkpt>
      <trkpt lat="42.36247" lon="-1.53683">
        <ele>326.27</ele>
        <time>2021-08-04T11:43:00Z</time>
      </trkpt>
      <trkpt lat="42.36246" lon="-1.53321">
        <ele>327.6</ele>
        <time>2021-08-04T11:43:14Z</time>
      </trkpt>
      <trkpt lat="42.36271" lon="-1.52903">
        <ele>328.67</ele>
        <time>2021-08-04T11:43:29Z</time>
      </trkpt>
      <trkpt lat="42.36314" lon="-1.52593">
        <ele>329.34</ele>
        <time>2021-08-04T11:43:40Z</time>
      </trkpt>
      <trkpt lat="42.36398" lon="-1.52257">
        <ele>329.4</ele>
        <time>2021-08-04T11:43:53Z</time>
      </trkpt>
      <trkpt lat="42.36448" lon="-1.51882">
        <ele>329.85</ele>
        <time>2021-08-04T11:44:07Z</time>
      </trkpt>
      <trkpt lat="42.36496" lon="-1.51456">
        <ele>330.87</ele>
        <time>2021-08-04T11:44:23Z</time>
      </trkpt>
      <trkpt lat="42.36541" lon="-1.50915">
        <ele>332.25</ele>
        <time>2021-08-04T11:44:43Z</time>
      </trkpt>
      <trkpt lat="42.36593" lon="-1.50298">
        <ele>335.38</ele>
        <time>2021-08-04T11:45:05Z</time>
      </trkpt>
      <trkpt lat="42.3661" lon="-1.49822">
        <ele>338.04</ele>
        <time>2021-08-04T11:45:21Z</time>
      </trkpt>
      <trkpt lat="42.3663" lon="-1.49322">
        <ele>337.71</ele>
        <time>2021-08-04T11:45:38Z</time>
      </trkpt>
      <trkpt lat="42.36681" lon="-1.48763">
        <ele>338.61</ele>
        <time>2021-08-04T11:45:58Z</time>
      </trkpt>
      <trkpt lat="42.3675" lon="-1.48549">
        <ele>339.03</ele>
        <time>2021-08-04T11:46:07Z</time>
      </trkpt>
      <trkpt lat="42.36849" lon="-1.48248">
        <ele>341.37</ele>
        <time>2021-08-04T11:46:19Z</time>
      </trkpt>
      <trkpt lat="42.36985" lon="-1.47658">
        <ele>343.04</ele>
        <time>2021-08-04T11:46:41Z</time>
      </trkpt>
      <trkpt lat="42.37056" lon="-1.47292">
        <ele>343.08</ele>
        <time>2021-08-04T11:46:55Z</time>
      </trkpt>
      <trkpt lat="42.3705" lon="-1.47071">
        <ele>342.94</ele>
        <time>2021-08-04T11:47:04Z</time>
      </trkpt>
      <trkpt lat="42.37029" lon="-1.46802">
        <ele>343.89</ele>
        <time>2021-08-04T11:47:15Z</time>
      </trkpt>
      <trkpt lat="42.37066" lon="-1.46528">
        <ele>345.18</ele>
        <time>2021-08-04T11:47:26Z</time>
      </trkpt>
      <trkpt lat="42.37123" lon="-1.46167">
        <ele>346.45</ele>
        <time>2021-08-04T11:47:40Z</time>
      </trkpt>
      <trkpt lat="42.37176" lon="-1.45823">
        <ele>346.42</ele>
        <time>2021-08-04T11:47:54Z</time>
      </trkpt>
      <trkpt lat="42.37243" lon="-1.45674">
        <ele>346.3</ele>
        <time>2021-08-04T11:48:02Z</time>
      </trkpt>
      <trkpt lat="42.37283" lon="-1.45623">
        <ele>345.99</ele>
        <time>2021-08-04T11:48:06Z</time>
      </trkpt>
      <trkpt lat="42.37353" lon="-1.45459">
        <ele>346.1</ele>
        <time>2021-08-04T11:48:14Z</time>
      </trkpt>
      <trkpt lat="42.37499" lon="-1.45084">
        <ele>347.69</ele>
        <time>2021-08-04T11:48:29Z</time>
      </trkpt>
      <trkpt lat="42.3756" lon="-1.44924">
        <ele>347.12</ele>
        <time>2021-08-04T11:48:37Z</time>
      </trkpt>
      <trkpt lat="42.37593" lon="-1.44849">
        <ele>345.57</ele>
        <time>2021-08-04T11:48:44Z</time>
      </trkpt>
      <trkpt lat="42.37697" lon="-1.44731">
        <ele>345.35</ele>
        <time>2021-08-04T11:48:56Z</time>
      </trkpt>
      <trkpt lat="42.37774" lon="-1.44642">
        <ele>345.91</ele>
        <time>2021-08-04T11:49:05Z</time>
      </trkpt>
      <trkpt lat="42.37812" lon="-1.44616">
        <ele>346.25</ele>
        <time>2021-08-04T11:49:10Z</time>
      </trkpt>
      <trkpt lat="42.37841" lon="-1.44613">
        <ele>346.92</ele>
        <time>2021-08-04T11:49:14Z</time>
      </trkpt>
      <trkpt lat="42.37877" lon="-1.44617">
        <ele>349.72</ele>
        <time>2021-08-04T11:49:24Z</time>
      </trkpt>
      <trkpt lat="42.37875" lon="-1.44592">
        <ele>350.52</ele>
        <time>2021-08-04T11:49:30Z</time>
      </trkpt>
      <trkpt lat="42.37864" lon="-1.44565">
        <ele>351.02</ele>
        <time>2021-08-04T11:49:33Z</time>
      </trkpt>
      <trkpt lat="42.37846" lon="-1.44445">
        <ele>352.43</ele>
        <time>2021-08-04T11:49:44Z</time>
      </trkpt>
      <trkpt lat="42.37833" lon="-1.44331">
        <ele>353.97</ele>
        <time>2021-08-04T11:49:54Z</time>
      </trkpt>
      <trkpt lat="42.37813" lon="-1.44202">
        <ele>355.28</ele>
        <time>2021-08-04T11:50:04Z</time>
      </trkpt>
      <trkpt lat="42.37803" lon="-1.44146">
        <ele>356.47</ele>
        <time>2021-08-04T11:50:13Z</time>
      </trkpt>
      <trkpt lat="42.37791" lon="-1.44074">
        <ele>358.3</ele>
        <time>2021-08-04T11:50:25Z</time>
      </trkpt>
      <trkpt lat="42.37779" lon="-1.43984">
        <ele>360.48</ele>
        <time>2021-08-04T11:50:39Z</time>
      </trkpt>
      <trkpt lat="42.3778" lon="-1.4398">
        <ele>361.64</ele>
        <time>2021-08-04T11:50:47Z</time>
      </trkpt>
      <trkpt lat="42.37778" lon="-1.43969">
        <ele>362.04</ele>
        <time>2021-08-04T11:50:57Z</time>
      </trkpt>
      <trkpt lat="42.37778" lon="-1.43969">
        <ele>362.13</ele>
        <time>2021-08-04T11:51:04Z</time>
      </trkpt>
      <trkpt lat="42.37785" lon="-1.43973">
        <ele>362.25</ele>
        <time>2021-08-04T11:51:13Z</time>
      </trkpt>
      <trkpt lat="42.37785" lon="-1.44002">
        <ele>362.75</ele>
        <time>2021-08-04T11:51:18Z</time>
      </trkpt>
      <trkpt lat="42.37807" lon="-1.44144">
        <ele>362.61</ele>
        <time>2021-08-04T11:51:27Z</time>
      </trkpt>
      <trkpt lat="42.37818" lon="-1.44225">
        <ele>360.69</ele>
        <time>2021-08-04T11:51:34Z</time>
      </trkpt>
      <trkpt lat="42.37821" lon="-1.44245">
        <ele>360.01</ele>
        <time>2021-08-04T11:51:36Z</time>
      </trkpt>
      <trkpt lat="42.37821" lon="-1.44274">
        <ele>357.75</ele>
        <time>2021-08-04T11:51:43Z</time>
      </trkpt>
      <trkpt lat="42.37859" lon="-1.4428">
        <ele>356.51</ele>
        <time>2021-08-04T11:51:50Z</time>
      </trkpt>
      <trkpt lat="42.37869" lon="-1.44276">
        <ele>356.44</ele>
        <time>2021-08-04T11:51:51Z</time>
      </trkpt>
      <trkpt lat="42.3793" lon="-1.44256">
        <ele>355.65</ele>
        <time>2021-08-04T11:52:02Z</time>
      </trkpt>
      <trkpt lat="42.37938" lon="-1.44257">
        <ele>355.48</ele>
        <time>2021-08-04T11:52:12Z</time>
      </trkpt>
      <trkpt lat="42.37982" lon="-1.44244">
        <ele>355.5</ele>
        <time>2021-08-04T11:52:19Z</time>
      </trkpt>
      <trkpt lat="42.38051" lon="-1.44226">
        <ele>355.81</ele>
        <time>2021-08-04T11:52:30Z</time>
      </trkpt>
      <trkpt lat="42.38093" lon="-1.44215">
        <ele>355.09</ele>
        <time>2021-08-04T11:52:42Z</time>
      </trkpt>
      <trkpt lat="42.381" lon="-1.44214">
        <ele>354.71</ele>
        <time>2021-08-04T11:52:58Z</time>
      </trkpt>
      <trkpt lat="42.38108" lon="-1.4421">
        <ele>354.77</ele>
        <time>2021-08-04T11:53:19Z</time>
      </trkpt>
      <trkpt lat="42.38109" lon="-1.4421">
        <ele>354.36</ele>
        <time>2021-08-04T11:53:50Z</time>
      </trkpt>
      <trkpt lat="42.38123" lon="-1.4421">
        <ele>354.56</ele>
        <time>2021-08-04T11:53:55Z</time>
      </trkpt>
      <trkpt lat="42.38152" lon="-1.442">
        <ele>354.52</ele>
        <time>2021-08-04T11:54:06Z</time>
      </trkpt>
      <trkpt lat="42.38197" lon="-1.44189">
        <ele>354.32</ele>
        <time>2021-08-04T11:54:18Z</time>
      </trkpt>
      <trkpt lat="42.38209" lon="-1.44186">
        <ele>354.1</ele>
        <time>2021-08-04T11:54:27Z</time>
      </trkpt>
      <trkpt lat="42.38223" lon="-1.44157">
        <ele>353.69</ele>
        <time>2021-08-04T11:54:34Z</time>
      </trkpt>
      <trkpt lat="42.38221" lon="-1.44138">
        <ele>351.85</ele>
        <time>2021-08-04T11:54:44Z</time>
      </trkpt>
      <trkpt lat="42.3822" lon="-1.44111">
        <ele>350.75</ele>
        <time>2021-08-04T11:55:06Z</time>
      </trkpt>
      <trkpt lat="42.382" lon="-1.43975">
        <ele>347.67</ele>
        <time>2021-08-04T11:55:18Z</time>
      </trkpt>
      <trkpt lat="42.38178" lon="-1.43819">
        <ele>345.31</ele>
        <time>2021-08-04T11:55:30Z</time>
      </trkpt>
      <trkpt lat="42.38172" lon="-1.43769">
        <ele>345.37</ele>
        <time>2021-08-04T11:55:33Z</time>
      </trkpt>
      <trkpt lat="42.38175" lon="-1.43697">
        <ele>345.77</ele>
        <time>2021-08-04T11:55:37Z</time>
      </trkpt>
      <trkpt lat="42.38227" lon="-1.43438">
        <ele>347.52</ele>
        <time>2021-08-04T11:55:51Z</time>
      </trkpt>
      <trkpt lat="42.38275" lon="-1.43197">
        <ele>350.22</ele>
        <time>2021-08-04T11:56:05Z</time>
      </trkpt>
      <trkpt lat="42.38323" lon="-1.42995">
        <ele>350.11</ele>
        <time>2021-08-04T11:56:16Z</time>
      </trkpt>
      <trkpt lat="42.3838" lon="-1.42793">
        <ele>351.18</ele>
        <time>2021-08-04T11:56:27Z</time>
      </trkpt>
      <trkpt lat="42.38409" lon="-1.42591">
        <ele>352.66</ele>
        <time>2021-08-04T11:56:36Z</time>
      </trkpt>
      <trkpt lat="42.38467" lon="-1.42454">
        <ele>355.18</ele>
        <time>2021-08-04T11:56:43Z</time>
      </trkpt>
      <trkpt lat="42.38544" lon="-1.42268">
        <ele>356.78</ele>
        <time>2021-08-04T11:56:52Z</time>
      </trkpt>
      <trkpt lat="42.38581" lon="-1.42214">
        <ele>357.14</ele>
        <time>2021-08-04T11:56:56Z</time>
      </trkpt>
      <trkpt lat="42.38646" lon="-1.42168">
        <ele>355.93</ele>
        <time>2021-08-04T11:57:01Z</time>
      </trkpt>
      <trkpt lat="42.38687" lon="-1.42092">
        <ele>353.04</ele>
        <time>2021-08-04T11:57:06Z</time>
      </trkpt>
      <trkpt lat="42.38706" lon="-1.41997">
        <ele>351.36</ele>
        <time>2021-08-04T11:57:11Z</time>
      </trkpt>
      <trkpt lat="42.38766" lon="-1.41883">
        <ele>351.54</ele>
        <time>2021-08-04T11:57:18Z</time>
      </trkpt>
      <trkpt lat="42.38883" lon="-1.41731">
        <ele>351.58</ele>
        <time>2021-08-04T11:57:28Z</time>
      </trkpt>
      <trkpt lat="42.38924" lon="-1.4167">
        <ele>349.42</ele>
        <time>2021-08-04T11:57:34Z</time>
      </trkpt>
      <trkpt lat="42.38958" lon="-1.41615">
        <ele>346.94</ele>
        <time>2021-08-04T11:57:43Z</time>
      </trkpt>
      <trkpt lat="42.38992" lon="-1.41565">
        <ele>346.64</ele>
        <time>2021-08-04T11:57:51Z</time>
      </trkpt>
      <trkpt lat="42.39021" lon="-1.4154">
        <ele>346.45</ele>
        <time>2021-08-04T11:57:57Z</time>
      </trkpt>
      <trkpt lat="42.3904" lon="-1.41519">
        <ele>346.32</ele>
        <time>2021-08-04T11:58:00Z</time>
      </trkpt>
      <trkpt lat="42.3912" lon="-1.41478">
        <ele>346.67</ele>
        <time>2021-08-04T11:58:09Z</time>
      </trkpt>
      <trkpt lat="42.39152" lon="-1.41463">
        <ele>346.74</ele>
        <time>2021-08-04T11:58:12Z</time>
      </trkpt>
      <trkpt lat="42.39264" lon="-1.4146">
        <ele>347.48</ele>
        <time>2021-08-04T11:58:21Z</time>
      </trkpt>
      <trkpt lat="42.39334" lon="-1.41463">
        <ele>347.61</ele>
        <time>2021-08-04T11:58:27Z</time>
      </trkpt>
      <trkpt lat="42.39444" lon="-1.41493">
        <ele>347.54</ele>
        <time>2021-08-04T11:58:37Z</time>
      </trkpt>
      <trkpt lat="42.39539" lon="-1.41527">
        <ele>347.89</ele>
        <time>2021-08-04T11:58:46Z</time>
      </trkpt>
      <trkpt lat="42.3962" lon="-1.41616">
        <ele>348.45</ele>
        <time>2021-08-04T11:58:57Z</time>
      </trkpt>
      <trkpt lat="42.39651" lon="-1.41661">
        <ele>348.5</ele>
        <time>2021-08-04T11:59:01Z</time>
      </trkpt>
      <trkpt lat="42.39723" lon="-1.41727">
        <ele>348.7</ele>
        <time>2021-08-04T11:59:10Z</time>
      </trkpt>
      <trkpt lat="42.39746" lon="-1.4176">
        <ele>348.47</ele>
        <time>2021-08-04T11:59:17Z</time>
      </trkpt>
      <trkpt lat="42.39739" lon="-1.41795">
        <ele>347.41</ele>
        <time>2021-08-04T11:59:26Z</time>
      </trkpt>
      <trkpt lat="42.39739" lon="-1.41799">
        <ele>347.02</ele>
        <time>2021-08-04T11:59:28Z</time>
      </trkpt>
      <trkpt lat="42.3974" lon="-1.41805">
        <ele>345.8</ele>
        <time>2021-08-04T11:59:44Z</time>
      </trkpt>
      <trkpt lat="42.39735" lon="-1.41814">
        <ele>345.8</ele>
        <time>2021-08-04T11:59:49Z</time>
      </trkpt>
      <trkpt lat="42.39707" lon="-1.41849">
        <ele>344.18</ele>
        <time>2021-08-04T12:00:01Z</time>
      </trkpt>
      <trkpt lat="42.39698" lon="-1.41855">
        <ele>343.46</ele>
        <time>2021-08-04T12:00:06Z</time>
      </trkpt>
      <trkpt lat="42.397" lon="-1.41863">
        <ele>343.14</ele>
        <time>2021-08-04T12:00:10Z</time>
      </trkpt>
      <trkpt lat="42.39701" lon="-1.41863">
        <ele>343.27</ele>
        <time>2021-08-04T12:00:32Z</time>
      </trkpt>
      <trkpt lat="42.39701" lon="-1.41863">
        <ele>343.59</ele>
        <time>2021-08-04T12:00:50Z</time>
      </trkpt>
      <trkpt lat="42.39719" lon="-1.41876">
        <ele>343.49</ele>
        <time>2021-08-04T12:02:13Z</time>
      </trkpt>
      <trkpt lat="42.39709" lon="-1.41855">
        <ele>343.49</ele>
        <time>2021-08-04T12:02:36Z</time>
      </trkpt>
      <trkpt lat="42.39708" lon="-1.41858">
        <ele>343.49</ele>
        <time>2021-08-04T12:03:20Z</time>
      </trkpt>
      <trkpt lat="42.39708" lon="-1.41859">
        <ele>343.49</ele>
        <time>2021-08-04T12:03:50Z</time>
      </trkpt>
      <trkpt lat="42.39707" lon="-1.41861">
        <ele>343.49</ele>
        <time>2021-08-04T12:04:33Z</time>
      </trkpt>
      <trkpt lat="42.39707" lon="-1.41863">
        <ele>343.49</ele>
        <time>2021-08-04T12:05:08Z</time>
      </trkpt>
      <trkpt lat="42.39707" lon="-1.41863">
        <ele>343.49</ele>
        <time>2021-08-04T12:05:51Z</time>
      </trkpt>
      <trkpt lat="42.39705" lon="-1.41865">
        <ele>343.49</ele>
        <time>2021-08-04T12:06:47Z</time>
      </trkpt>
      <trkpt lat="42.39705" lon="-1.41865">
        <ele>343.49</ele>
        <time>2021-08-04T12:07:25Z</time>
      </trkpt>
      <trkpt lat="42.39706" lon="-1.41866">
        <ele>343.49</ele>
        <time>2021-08-04T12:08:10Z</time>
      </trkpt>
      <trkpt lat="42.39706" lon="-1.41868">
        <ele>343.49</ele>
        <time>2021-08-04T12:08:49Z</time>
      </trkpt>
      <trkpt lat="42.39706" lon="-1.41868">
        <ele>343.49</ele>
        <time>2021-08-04T12:09:24Z</time>
      </trkpt>
      <trkpt lat="42.39707" lon="-1.41868">
        <ele>343.49</ele>
        <time>2021-08-04T12:10:11Z</time>
      </trkpt>
      <trkpt lat="42.39707" lon="-1.4187">
        <ele>343.49</ele>
        <time>2021-08-04T12:10:49Z</time>
      </trkpt>
      <trkpt lat="42.39707" lon="-1.41872">
        <ele>343.49</ele>
        <time>2021-08-04T12:11:25Z</time>
      </trkpt>
      <trkpt lat="42.39708" lon="-1.4187">
        <ele>343.49</ele>
        <time>2021-08-04T12:12:03Z</time>
      </trkpt>
      <trkpt lat="42.39708" lon="-1.4187">
        <ele>343.49</ele>
        <time>2021-08-04T12:12:39Z</time>
      </trkpt>
      <trkpt lat="42.39708" lon="-1.4187">
        <ele>343.49</ele>
        <time>2021-08-04T12:13:56Z</time>
      </trkpt>
      <trkpt lat="42.39709" lon="-1.41869">
        <ele>343.49</ele>
        <time>2021-08-04T12:15:03Z</time>
      </trkpt>
      <trkpt lat="42.39708" lon="-1.4187">
        <ele>343.49</ele>
        <time>2021-08-04T12:16:03Z</time>
      </trkpt>
      <trkpt lat="42.39708" lon="-1.4187">
        <ele>343.49</ele>
        <time>2021-08-04T12:17:31Z</time>
      </trkpt>
      <trkpt lat="42.39708" lon="-1.41869">
        <ele>343.49</ele>
        <time>2021-08-04T12:18:36Z</time>
      </trkpt>
      <trkpt lat="42.39707" lon="-1.41869">
        <ele>343.49</ele>
        <time>2021-08-04T12:19:27Z</time>
      </trkpt>
      <trkpt lat="42.39707" lon="-1.41868">
        <ele>343.49</ele>
        <time>2021-08-04T12:20:21Z</time>
      </trkpt>
      <trkpt lat="42.39706" lon="-1.41868">
        <ele>343.49</ele>
        <time>2021-08-04T12:22:03Z</time>
      </trkpt>
      <trkpt lat="42.39706" lon="-1.41866">
        <ele>343.49</ele>
        <time>2021-08-04T12:23:02Z</time>
      </trkpt>
      <trkpt lat="42.39701" lon="-1.4187">
        <ele>343.49</ele>
        <time>2021-08-04T12:23:32Z</time>
      </trkpt>
      <trkpt lat="42.39703" lon="-1.41866">
        <ele>343.49</ele>
        <time>2021-08-04T12:24:15Z</time>
      </trkpt>
      <trkpt lat="42.39703" lon="-1.41867">
        <ele>343.49</ele>
        <time>2021-08-04T12:25:15Z</time>
      </trkpt>
      <trkpt lat="42.39703" lon="-1.41867">
        <ele>343.49</ele>
        <time>2021-08-04T12:25:58Z</time>
      </trkpt>
      <trkpt lat="42.39704" lon="-1.41868">
        <ele>343.49</ele>
        <time>2021-08-04T12:26:40Z</time>
      </trkpt>
      <trkpt lat="42.39703" lon="-1.41868">
        <ele>343.49</ele>
        <time>2021-08-04T12:27:13Z</time>
      </trkpt>
      <trkpt lat="42.39703" lon="-1.41868">
        <ele>343.49</ele>
        <time>2021-08-04T12:28:39Z</time>
      </trkpt>
      <trkpt lat="42.39703" lon="-1.41869">
        <ele>343.49</ele>
        <time>2021-08-04T12:29:21Z</time>
      </trkpt>
      <trkpt lat="42.39704" lon="-1.41867">
        <ele>343.49</ele>
        <time>2021-08-04T12:30:03Z</time>
      </trkpt>
      <trkpt lat="42.39704" lon="-1.41867">
        <ele>343.49</ele>
        <time>2021-08-04T12:30:44Z</time>
      </trkpt>
      <trkpt lat="42.39705" lon="-1.41868">
        <ele>343.49</ele>
        <time>2021-08-04T12:31:29Z</time>
      </trkpt>
      <trkpt lat="42.39705" lon="-1.41867">
        <ele>343.49</ele>
        <time>2021-08-04T12:33:06Z</time>
      </trkpt>
      <trkpt lat="42.39707" lon="-1.41866">
        <ele>343.49</ele>
        <time>2021-08-04T12:33:52Z</time>
      </trkpt>
      <trkpt lat="42.39707" lon="-1.41866">
        <ele>343.49</ele>
        <time>2021-08-04T12:35:03Z</time>
      </trkpt>
      <trkpt lat="42.39707" lon="-1.41866">
        <ele>343.49</ele>
        <time>2021-08-04T12:35:45Z</time>
      </trkpt>
      <trkpt lat="42.39707" lon="-1.41866">
        <ele>343.49</ele>
        <time>2021-08-04T12:36:51Z</time>
      </trkpt>
      <trkpt lat="42.39708" lon="-1.41866">
        <ele>343.49</ele>
        <time>2021-08-04T12:37:38Z</time>
      </trkpt>
      <trkpt lat="42.39709" lon="-1.41866">
        <ele>343.49</ele>
        <time>2021-08-04T12:38:19Z</time>
      </trkpt>
      <trkpt lat="42.39709" lon="-1.41868">
        <ele>343.49</ele>
        <time>2021-08-04T12:38:56Z</time>
      </trkpt>
      <trkpt lat="42.39709" lon="-1.41868">
        <ele>343.49</ele>
        <time>2021-08-04T12:39:34Z</time>
      </trkpt>
      <trkpt lat="42.39709" lon="-1.41868">
        <ele>343.49</ele>
        <time>2021-08-04T12:40:14Z</time>
      </trkpt>
      <trkpt lat="42.39709" lon="-1.41869">
        <ele>343.49</ele>
        <time>2021-08-04T12:40:55Z</time>
      </trkpt>
      <trkpt lat="42.39707" lon="-1.41869">
        <ele>343.49</ele>
        <time>2021-08-04T12:41:57Z</time>
      </trkpt>
      <trkpt lat="42.39707" lon="-1.41867">
        <ele>343.49</ele>
        <time>2021-08-04T12:42:36Z</time>
      </trkpt>
      <trkpt lat="42.39707" lon="-1.41868">
        <ele>343.49</ele>
        <time>2021-08-04T12:43:13Z</time>
      </trkpt>
      <trkpt lat="42.39707" lon="-1.41868">
        <ele>343.49</ele>
        <time>2021-08-04T12:43:47Z</time>
      </trkpt>
      <trkpt lat="42.39708" lon="-1.41867">
        <ele>343.49</ele>
        <time>2021-08-04T12:44:20Z</time>
      </trkpt>
      <trkpt lat="42.39708" lon="-1.41867">
        <ele>343.49</ele>
        <time>2021-08-04T12:44:51Z</time>
      </trkpt>
      <trkpt lat="42.39709" lon="-1.41866">
        <ele>343.49</ele>
        <time>2021-08-04T12:45:32Z</time>
      </trkpt>
      <trkpt lat="42.39709" lon="-1.41867">
        <ele>343.49</ele>
        <time>2021-08-04T12:46:08Z</time>
      </trkpt>
      <trkpt lat="42.39709" lon="-1.41867">
        <ele>343.49</ele>
        <time>2021-08-04T12:46:56Z</time>
      </trkpt>
      <trkpt lat="42.39709" lon="-1.41867">
        <ele>343.49</ele>
        <time>2021-08-04T12:47:43Z</time>
      </trkpt>
      <trkpt lat="42.39709" lon="-1.41868">
        <ele>343.49</ele>
        <time>2021-08-04T12:48:20Z</time>
      </trkpt>
      <trkpt lat="42.39709" lon="-1.41868">
        <ele>343.49</ele>
        <time>2021-08-04T12:49:07Z</time>
      </trkpt>
      <trkpt lat="42.39709" lon="-1.41868">
        <ele>343.49</ele>
        <time>2021-08-04T12:49:41Z</time>
      </trkpt>
      <trkpt lat="42.39709" lon="-1.41868">
        <ele>343.49</ele>
        <time>2021-08-04T12:50:22Z</time>
      </trkpt>
      <trkpt lat="42.39708" lon="-1.41867">
        <ele>343.49</ele>
        <time>2021-08-04T12:50:58Z</time>
      </trkpt>
      <trkpt lat="42.39707" lon="-1.41869">
        <ele>343.49</ele>
        <time>2021-08-04T12:51:35Z</time>
      </trkpt>
      <trkpt lat="42.39707" lon="-1.4187">
        <ele>343.49</ele>
        <time>2021-08-04T12:52:22Z</time>
      </trkpt>
      <trkpt lat="42.39706" lon="-1.41869">
        <ele>343.49</ele>
        <time>2021-08-04T12:53:07Z</time>
      </trkpt>
      <trkpt lat="42.39706" lon="-1.41872">
        <ele>343.49</ele>
        <time>2021-08-04T12:54:00Z</time>
      </trkpt>
      <trkpt lat="42.39706" lon="-1.4187">
        <ele>343.49</ele>
        <time>2021-08-04T12:54:59Z</time>
      </trkpt>
      <trkpt lat="42.39706" lon="-1.4187">
        <ele>343.49</ele>
        <time>2021-08-04T12:55:43Z</time>
      </trkpt>
      <trkpt lat="42.39706" lon="-1.41871">
        <ele>343.49</ele>
        <time>2021-08-04T12:56:29Z</time>
      </trkpt>
      <trkpt lat="42.39707" lon="-1.41872">
        <ele>343.49</ele>
        <time>2021-08-04T12:57:02Z</time>
      </trkpt>
      <trkpt lat="42.39706" lon="-1.41871">
        <ele>343.49</ele>
        <time>2021-08-04T12:57:57Z</time>
      </trkpt>
      <trkpt lat="42.39706" lon="-1.4187">
        <ele>343.49</ele>
        <time>2021-08-04T12:58:34Z</time>
      </trkpt>
      <trkpt lat="42.39707" lon="-1.4187">
        <ele>343.49</ele>
        <time>2021-08-04T12:59:15Z</time>
      </trkpt>
      <trkpt lat="42.39707" lon="-1.4187">
        <ele>343.49</ele>
        <time>2021-08-04T12:59:56Z</time>
      </trkpt>
      <trkpt lat="42.39708" lon="-1.41871">
        <ele>343.49</ele>
        <time>2021-08-04T13:00:32Z</time>
      </trkpt>
      <trkpt lat="42.39708" lon="-1.41871">
        <ele>343.49</ele>
        <time>2021-08-04T13:00:59Z</time>
      </trkpt>
      <trkpt lat="42.39708" lon="-1.41872">
        <ele>343.49</ele>
        <time>2021-08-04T13:01:39Z</time>
      </trkpt>
      <trkpt lat="42.39708" lon="-1.41872">
        <ele>343.49</ele>
        <time>2021-08-04T13:02:14Z</time>
      </trkpt>
      <trkpt lat="42.39708" lon="-1.41872">
        <ele>343.49</ele>
        <time>2021-08-04T13:02:44Z</time>
      </trkpt>
      <trkpt lat="42.39708" lon="-1.41871">
        <ele>343.49</ele>
        <time>2021-08-04T13:03:29Z</time>
      </trkpt>
      <trkpt lat="42.39708" lon="-1.41871">
        <ele>343.49</ele>
        <time>2021-08-04T13:04:12Z</time>
      </trkpt>
      <trkpt lat="42.39708" lon="-1.41869">
        <ele>343.49</ele>
        <time>2021-08-04T13:04:43Z</time>
      </trkpt>
      <trkpt lat="42.39707" lon="-1.41865">
        <ele>343.49</ele>
        <time>2021-08-04T13:05:14Z</time>
      </trkpt>
      <trkpt lat="42.39707" lon="-1.41864">
        <ele>343.49</ele>
        <time>2021-08-04T13:05:49Z</time>
      </trkpt>
      <trkpt lat="42.39707" lon="-1.41865">
        <ele>343.49</ele>
        <time>2021-08-04T13:06:23Z</time>
      </trkpt>
      <trkpt lat="42.39707" lon="-1.41864">
        <ele>343.49</ele>
        <time>2021-08-04T13:07:00Z</time>
      </trkpt>
      <trkpt lat="42.39707" lon="-1.41865">
        <ele>343.49</ele>
        <time>2021-08-04T13:07:39Z</time>
      </trkpt>
      <trkpt lat="42.39708" lon="-1.41864">
        <ele>343.49</ele>
        <time>2021-08-04T13:08:13Z</time>
      </trkpt>
      <trkpt lat="42.39708" lon="-1.41866">
        <ele>343.49</ele>
        <time>2021-08-04T13:08:47Z</time>
      </trkpt>
      <trkpt lat="42.39708" lon="-1.41867">
        <ele>343.49</ele>
        <time>2021-08-04T13:09:29Z</time>
      </trkpt>
      <trkpt lat="42.39709" lon="-1.41867">
        <ele>343.49</ele>
        <time>2021-08-04T13:10:14Z</time>
      </trkpt>
      <trkpt lat="42.39709" lon="-1.41867">
        <ele>343.49</ele>
        <time>2021-08-04T13:10:46Z</time>
      </trkpt>
      <trkpt lat="42.39708" lon="-1.41867">
        <ele>343.49</ele>
        <time>2021-08-04T13:11:22Z</time>
      </trkpt>
      <trkpt lat="42.39709" lon="-1.41865">
        <ele>343.49</ele>
        <time>2021-08-04T13:11:54Z</time>
      </trkpt>
      <trkpt lat="42.39707" lon="-1.41867">
        <ele>343.49</ele>
        <time>2021-08-04T13:12:22Z</time>
      </trkpt>
      <trkpt lat="42.39707" lon="-1.41866">
        <ele>343.49</ele>
        <time>2021-08-04T13:12:57Z</time>
      </trkpt>
      <trkpt lat="42.39707" lon="-1.41864">
        <ele>343.49</ele>
        <time>2021-08-04T13:13:36Z</time>
      </trkpt>
      <trkpt lat="42.39707" lon="-1.41865">
        <ele>343.49</ele>
        <time>2021-08-04T13:14:27Z</time>
      </trkpt>
      <trkpt lat="42.39707" lon="-1.41866">
        <ele>343.49</ele>
        <time>2021-08-04T13:15:09Z</time>
      </trkpt>
      <trkpt lat="42.39708" lon="-1.41864">
        <ele>343.49</ele>
        <time>2021-08-04T13:15:44Z</time>
      </trkpt>
      <trkpt lat="42.39708" lon="-1.41864">
        <ele>343.49</ele>
        <time>2021-08-04T13:16:22Z</time>
      </trkpt>
      <trkpt lat="42.39707" lon="-1.41865">
        <ele>343.49</ele>
        <time>2021-08-04T13:16:52Z</time>
      </trkpt>
      <trkpt lat="42.39707" lon="-1.41865">
        <ele>343.49</ele>
        <time>2021-08-04T13:17:39Z</time>
      </trkpt>
      <trkpt lat="42.39706" lon="-1.41866">
        <ele>343.49</ele>
        <time>2021-08-04T13:18:16Z</time>
      </trkpt>
      <trkpt lat="42.39708" lon="-1.41864">
        <ele>343.49</ele>
        <time>2021-08-04T13:18:49Z</time>
      </trkpt>
      <trkpt lat="42.39708" lon="-1.41868">
        <ele>343.49</ele>
        <time>2021-08-04T13:19:24Z</time>
      </trkpt>
      <trkpt lat="42.39708" lon="-1.41871">
        <ele>343.49</ele>
        <time>2021-08-04T13:19:58Z</time>
      </trkpt>
      <trkpt lat="42.39707" lon="-1.41871">
        <ele>343.49</ele>
        <time>2021-08-04T13:20:32Z</time>
      </trkpt>
      <trkpt lat="42.39707" lon="-1.41871">
        <ele>343.49</ele>
        <time>2021-08-04T13:21:03Z</time>
      </trkpt>
      <trkpt lat="42.39706" lon="-1.41872">
        <ele>343.49</ele>
        <time>2021-08-04T13:21:36Z</time>
      </trkpt>
      <trkpt lat="42.39705" lon="-1.41872">
        <ele>343.49</ele>
        <time>2021-08-04T13:22:12Z</time>
      </trkpt>
      <trkpt lat="42.39706" lon="-1.41873">
        <ele>343.49</ele>
        <time>2021-08-04T13:22:40Z</time>
      </trkpt>
      <trkpt lat="42.39705" lon="-1.41875">
        <ele>343.49</ele>
        <time>2021-08-04T13:23:12Z</time>
      </trkpt>
      <trkpt lat="42.39706" lon="-1.41876">
        <ele>343.49</ele>
        <time>2021-08-04T13:24:05Z</time>
      </trkpt>
      <trkpt lat="42.39707" lon="-1.41874">
        <ele>343.49</ele>
        <time>2021-08-04T13:24:46Z</time>
      </trkpt>
      <trkpt lat="42.39707" lon="-1.41874">
        <ele>343.49</ele>
        <time>2021-08-04T13:25:24Z</time>
      </trkpt>
      <trkpt lat="42.39706" lon="-1.41874">
        <ele>343.49</ele>
        <time>2021-08-04T13:26:04Z</time>
      </trkpt>
      <trkpt lat="42.39707" lon="-1.41876">
        <ele>343.49</ele>
        <time>2021-08-04T13:26:45Z</time>
      </trkpt>
      <trkpt lat="42.39707" lon="-1.41876">
        <ele>343.49</ele>
        <time>2021-08-04T13:27:14Z</time>
      </trkpt>
      <trkpt lat="42.39708" lon="-1.41875">
        <ele>343.49</ele>
        <time>2021-08-04T13:27:47Z</time>
      </trkpt>
      <trkpt lat="42.39708" lon="-1.41875">
        <ele>343.49</ele>
        <time>2021-08-04T13:28:39Z</time>
      </trkpt>
      <trkpt lat="42.39708" lon="-1.41877">
        <ele>343.49</ele>
        <time>2021-08-04T13:29:11Z</time>
      </trkpt>
      <trkpt lat="42.39707" lon="-1.41876">
        <ele>343.49</ele>
        <time>2021-08-04T13:29:47Z</time>
      </trkpt>
      <trkpt lat="42.39707" lon="-1.41877">
        <ele>343.49</ele>
        <time>2021-08-04T13:30:22Z</time>
      </trkpt>
      <trkpt lat="42.39707" lon="-1.41876">
        <ele>343.49</ele>
        <time>2021-08-04T13:31:10Z</time>
      </trkpt>
      <trkpt lat="42.39706" lon="-1.41878">
        <ele>343.49</ele>
        <time>2021-08-04T13:31:48Z</time>
      </trkpt>
      <trkpt lat="42.39706" lon="-1.41876">
        <ele>343.49</ele>
        <time>2021-08-04T13:32:22Z</time>
      </trkpt>
      <trkpt lat="42.39705" lon="-1.41873">
        <ele>343.49</ele>
        <time>2021-08-04T13:32:56Z</time>
      </trkpt>
      <trkpt lat="42.39705" lon="-1.41872">
        <ele>343.49</ele>
        <time>2021-08-04T13:33:29Z</time>
      </trkpt>
      <trkpt lat="42.39705" lon="-1.41871">
        <ele>343.49</ele>
        <time>2021-08-04T13:34:10Z</time>
      </trkpt>
      <trkpt lat="42.39706" lon="-1.41871">
        <ele>343.49</ele>
        <time>2021-08-04T13:34:46Z</time>
      </trkpt>
      <trkpt lat="42.39707" lon="-1.41871">
        <ele>343.49</ele>
        <time>2021-08-04T13:35:17Z</time>
      </trkpt>
      <trkpt lat="42.39706" lon="-1.41871">
        <ele>343.49</ele>
        <time>2021-08-04T13:35:50Z</time>
      </trkpt>
      <trkpt lat="42.39706" lon="-1.41871">
        <ele>343.49</ele>
        <time>2021-08-04T13:36:22Z</time>
      </trkpt>
      <trkpt lat="42.39704" lon="-1.41873">
        <ele>343.49</ele>
        <time>2021-08-04T13:36:53Z</time>
      </trkpt>
      <trkpt lat="42.39704" lon="-1.41872">
        <ele>343.49</ele>
        <time>2021-08-04T13:37:21Z</time>
      </trkpt>
      <trkpt lat="42.39704" lon="-1.41872">
        <ele>343.49</ele>
        <time>2021-08-04T13:37:56Z</time>
      </trkpt>
      <trkpt lat="42.39704" lon="-1.4187">
        <ele>343.49</ele>
        <time>2021-08-04T13:38:51Z</time>
      </trkpt>
      <trkpt lat="42.39705" lon="-1.4187">
        <ele>343.49</ele>
        <time>2021-08-04T13:39:22Z</time>
      </trkpt>
      <trkpt lat="42.39705" lon="-1.41871">
        <ele>343.49</ele>
        <time>2021-08-04T13:40:00Z</time>
      </trkpt>
      <trkpt lat="42.39706" lon="-1.4187">
        <ele>343.49</ele>
        <time>2021-08-04T13:40:35Z</time>
      </trkpt>
      <trkpt lat="42.39705" lon="-1.41871">
        <ele>343.49</ele>
        <time>2021-08-04T13:41:11Z</time>
      </trkpt>
      <trkpt lat="42.39705" lon="-1.4187">
        <ele>343.49</ele>
        <time>2021-08-04T13:41:44Z</time>
      </trkpt>
      <trkpt lat="42.39706" lon="-1.41871">
        <ele>343.49</ele>
        <time>2021-08-04T13:42:16Z</time>
      </trkpt>
      <trkpt lat="42.39707" lon="-1.41871">
        <ele>343.49</ele>
        <time>2021-08-04T13:42:56Z</time>
      </trkpt>
      <trkpt lat="42.39707" lon="-1.41871">
        <ele>343.49</ele>
        <time>2021-08-04T13:43:30Z</time>
      </trkpt>
      <trkpt lat="42.39707" lon="-1.4187">
        <ele>343.49</ele>
        <time>2021-08-04T13:44:00Z</time>
      </trkpt>
      <trkpt lat="42.39708" lon="-1.41869">
        <ele>343.49</ele>
        <time>2021-08-04T13:44:30Z</time>
      </trkpt>
      <trkpt lat="42.39708" lon="-1.4187">
        <ele>343.49</ele>
        <time>2021-08-04T13:45:02Z</time>
      </trkpt>
      <trkpt lat="42.39708" lon="-1.41871">
        <ele>343.49</ele>
        <time>2021-08-04T13:45:36Z</time>
      </trkpt>
      <trkpt lat="42.39708" lon="-1.41872">
        <ele>343.49</ele>
        <time>2021-08-04T13:46:10Z</time>
      </trkpt>
      <trkpt lat="42.39708" lon="-1.41872">
        <ele>343.49</ele>
        <time>2021-08-04T13:46:41Z</time>
      </trkpt>
      <trkpt lat="42.39708" lon="-1.41873">
        <ele>343.49</ele>
        <time>2021-08-04T13:47:11Z</time>
      </trkpt>
      <trkpt lat="42.39708" lon="-1.41872">
        <ele>343.49</ele>
        <time>2021-08-04T13:47:52Z</time>
      </trkpt>
      <trkpt lat="42.39707" lon="-1.41871">
        <ele>343.49</ele>
        <time>2021-08-04T13:48:28Z</time>
      </trkpt>
      <trkpt lat="42.39707" lon="-1.41871">
        <ele>343.49</ele>
        <time>2021-08-04T13:48:56Z</time>
      </trkpt>
      <trkpt lat="42.39707" lon="-1.41871">
        <ele>343.49</ele>
        <time>2021-08-04T13:49:28Z</time>
      </trkpt>
      <trkpt lat="42.39707" lon="-1.41872">
        <ele>343.49</ele>
        <time>2021-08-04T13:49:59Z</time>
      </trkpt>
      <trkpt lat="42.39707" lon="-1.41872">
        <ele>343.49</ele>
        <time>2021-08-04T13:50:41Z</time>
      </trkpt>
      <trkpt lat="42.39708" lon="-1.41872">
        <ele>343.49</ele>
        <time>2021-08-04T13:51:10Z</time>
      </trkpt>
      <trkpt lat="42.39708" lon="-1.41872">
        <ele>343.49</ele>
        <time>2021-08-04T13:51:41Z</time>
      </trkpt>
      <trkpt lat="42.39707" lon="-1.41871">
        <ele>343.49</ele>
        <time>2021-08-04T13:52:19Z</time>
      </trkpt>
      <trkpt lat="42.39708" lon="-1.4187">
        <ele>343.49</ele>
        <time>2021-08-04T13:52:52Z</time>
      </trkpt>
      <trkpt lat="42.39708" lon="-1.4187">
        <ele>343.49</ele>
        <time>2021-08-04T13:53:28Z</time>
      </trkpt>
      <trkpt lat="42.39707" lon="-1.4187">
        <ele>343.49</ele>
        <time>2021-08-04T13:54:01Z</time>
      </trkpt>
      <trkpt lat="42.39707" lon="-1.4187">
        <ele>343.49</ele>
        <time>2021-08-04T13:54:41Z</time>
      </trkpt>
      <trkpt lat="42.39705" lon="-1.41869">
        <ele>343.49</ele>
        <time>2021-08-04T13:55:21Z</time>
      </trkpt>
      <trkpt lat="42.39705" lon="-1.41868">
        <ele>343.49</ele>
        <time>2021-08-04T13:56:06Z</time>
      </trkpt>
      <trkpt lat="42.39706" lon="-1.41869">
        <ele>343.49</ele>
        <time>2021-08-04T13:56:43Z</time>
      </trkpt>
      <trkpt lat="42.39706" lon="-1.41869">
        <ele>343.49</ele>
        <time>2021-08-04T13:57:16Z</time>
      </trkpt>
      <trkpt lat="42.39707" lon="-1.41869">
        <ele>343.49</ele>
        <time>2021-08-04T13:57:50Z</time>
      </trkpt>
      <trkpt lat="42.39707" lon="-1.4187">
        <ele>343.49</ele>
        <time>2021-08-04T13:58:19Z</time>
      </trkpt>
      <trkpt lat="42.39707" lon="-1.4187">
        <ele>343.49</ele>
        <time>2021-08-04T13:58:45Z</time>
      </trkpt>
      <trkpt lat="42.39707" lon="-1.4187">
        <ele>343.49</ele>
        <time>2021-08-04T13:59:23Z</time>
      </trkpt>
      <trkpt lat="42.39707" lon="-1.4187">
        <ele>343.49</ele>
        <time>2021-08-04T14:00:06Z</time>
      </trkpt>
      <trkpt lat="42.39707" lon="-1.41867">
        <ele>343.49</ele>
        <time>2021-08-04T14:00:38Z</time>
      </trkpt>
      <trkpt lat="42.39705" lon="-1.41867">
        <ele>343.49</ele>
        <time>2021-08-04T14:01:20Z</time>
      </trkpt>
      <trkpt lat="42.39704" lon="-1.41867">
        <ele>343.49</ele>
        <time>2021-08-04T14:02:08Z</time>
      </trkpt>
      <trkpt lat="42.39705" lon="-1.41868">
        <ele>343.49</ele>
        <time>2021-08-04T14:02:55Z</time>
      </trkpt>
      <trkpt lat="42.39705" lon="-1.41867">
        <ele>343.49</ele>
        <time>2021-08-04T14:03:36Z</time>
      </trkpt>
      <trkpt lat="42.39708" lon="-1.41865">
        <ele>343.49</ele>
        <time>2021-08-04T14:04:34Z</time>
      </trkpt>
      <trkpt lat="42.39707" lon="-1.41866">
        <ele>343.49</ele>
        <time>2021-08-04T14:05:10Z</time>
      </trkpt>
      <trkpt lat="42.39708" lon="-1.41866">
        <ele>343.49</ele>
        <time>2021-08-04T14:05:52Z</time>
      </trkpt>
      <trkpt lat="42.39709" lon="-1.41867">
        <ele>343.49</ele>
        <time>2021-08-04T14:06:37Z</time>
      </trkpt>
      <trkpt lat="42.39709" lon="-1.41866">
        <ele>343.49</ele>
        <time>2021-08-04T14:07:20Z</time>
      </trkpt>
      <trkpt lat="42.39709" lon="-1.41868">
        <ele>343.49</ele>
        <time>2021-08-04T14:07:52Z</time>
      </trkpt>
      <trkpt lat="42.39709" lon="-1.4187">
        <ele>343.49</ele>
        <time>2021-08-04T14:08:42Z</time>
      </trkpt>
      <trkpt lat="42.39708" lon="-1.4187">
        <ele>343.49</ele>
        <time>2021-08-04T14:09:20Z</time>
      </trkpt>
      <trkpt lat="42.39707" lon="-1.4187">
        <ele>343.49</ele>
        <time>2021-08-04T14:09:55Z</time>
      </trkpt>
      <trkpt lat="42.39706" lon="-1.41869">
        <ele>343.49</ele>
        <time>2021-08-04T14:10:35Z</time>
      </trkpt>
      <trkpt lat="42.39708" lon="-1.41869">
        <ele>343.49</ele>
        <time>2021-08-04T14:11:09Z</time>
      </trkpt>
      <trkpt lat="42.39709" lon="-1.41872">
        <ele>343.49</ele>
        <time>2021-08-04T14:11:56Z</time>
      </trkpt>
      <trkpt lat="42.39709" lon="-1.41872">
        <ele>343.49</ele>
        <time>2021-08-04T14:12:28Z</time>
      </trkpt>
      <trkpt lat="42.39708" lon="-1.41873">
        <ele>343.49</ele>
        <time>2021-08-04T14:12:59Z</time>
      </trkpt>
      <trkpt lat="42.39709" lon="-1.41872">
        <ele>343.49</ele>
        <time>2021-08-04T14:13:32Z</time>
      </trkpt>
      <trkpt lat="42.39708" lon="-1.41871">
        <ele>343.49</ele>
        <time>2021-08-04T14:14:07Z</time>
      </trkpt>
      <trkpt lat="42.39709" lon="-1.41871">
        <ele>343.49</ele>
        <time>2021-08-04T14:14:35Z</time>
      </trkpt>
      <trkpt lat="42.39708" lon="-1.41871">
        <ele>343.49</ele>
        <time>2021-08-04T14:15:13Z</time>
      </trkpt>
      <trkpt lat="42.39708" lon="-1.4187">
        <ele>343.49</ele>
        <time>2021-08-04T14:16:21Z</time>
      </trkpt>
      <trkpt lat="42.39708" lon="-1.4187">
        <ele>343.49</ele>
        <time>2021-08-04T14:17:30Z</time>
      </trkpt>
      <trkpt lat="42.39709" lon="-1.41869">
        <ele>343.49</ele>
        <time>2021-08-04T14:18:42Z</time>
      </trkpt>
      <trkpt lat="42.39708" lon="-1.41868">
        <ele>343.49</ele>
        <time>2021-08-04T14:19:21Z</time>
      </trkpt>
      <trkpt lat="42.39709" lon="-1.41867">
        <ele>343.49</ele>
        <time>2021-08-04T14:19:59Z</time>
      </trkpt>
      <trkpt lat="42.39709" lon="-1.41867">
        <ele>343.49</ele>
        <time>2021-08-04T14:20:31Z</time>
      </trkpt>
      <trkpt lat="42.39709" lon="-1.41867">
        <ele>343.49</ele>
        <time>2021-08-04T14:21:11Z</time>
      </trkpt>
      <trkpt lat="42.39706" lon="-1.41868">
        <ele>343.49</ele>
        <time>2021-08-04T14:22:00Z</time>
      </trkpt>
      <trkpt lat="42.39707" lon="-1.41867">
        <ele>343.49</ele>
        <time>2021-08-04T14:22:55Z</time>
      </trkpt>
      <trkpt lat="42.39707" lon="-1.41867">
        <ele>343.49</ele>
        <time>2021-08-04T14:23:48Z</time>
      </trkpt>
      <trkpt lat="42.39707" lon="-1.41867">
        <ele>343.49</ele>
        <time>2021-08-04T14:24:31Z</time>
      </trkpt>
      <trkpt lat="42.39707" lon="-1.41868">
        <ele>343.49</ele>
        <time>2021-08-04T14:25:09Z</time>
      </trkpt>
      <trkpt lat="42.39705" lon="-1.41869">
        <ele>343.49</ele>
        <time>2021-08-04T14:26:02Z</time>
      </trkpt>
      <trkpt lat="42.39704" lon="-1.41867">
        <ele>343.49</ele>
        <time>2021-08-04T14:26:30Z</time>
      </trkpt>
      <trkpt lat="42.39704" lon="-1.41867">
        <ele>343.49</ele>
        <time>2021-08-04T14:27:19Z</time>
      </trkpt>
      <trkpt lat="42.39704" lon="-1.41865">
        <ele>343.49</ele>
        <time>2021-08-04T14:28:00Z</time>
      </trkpt>
      <trkpt lat="42.39705" lon="-1.41865">
        <ele>343.49</ele>
        <time>2021-08-04T14:28:51Z</time>
      </trkpt>
      <trkpt lat="42.39704" lon="-1.41866">
        <ele>343.49</ele>
        <time>2021-08-04T14:29:33Z</time>
      </trkpt>
      <trkpt lat="42.39703" lon="-1.41866">
        <ele>343.49</ele>
        <time>2021-08-04T14:30:26Z</time>
      </trkpt>
      <trkpt lat="42.39703" lon="-1.41866">
        <ele>343.49</ele>
        <time>2021-08-04T14:31:06Z</time>
      </trkpt>
      <trkpt lat="42.39704" lon="-1.41866">
        <ele>343.49</ele>
        <time>2021-08-04T14:31:56Z</time>
      </trkpt>
      <trkpt lat="42.39703" lon="-1.41865">
        <ele>343.49</ele>
        <time>2021-08-04T14:32:54Z</time>
      </trkpt>
      <trkpt lat="42.39703" lon="-1.41865">
        <ele>343.49</ele>
        <time>2021-08-04T14:33:34Z</time>
      </trkpt>
      <trkpt lat="42.39703" lon="-1.41865">
        <ele>343.49</ele>
        <time>2021-08-04T14:34:24Z</time>
      </trkpt>
      <trkpt lat="42.39705" lon="-1.41866">
        <ele>343.49</ele>
        <time>2021-08-04T14:35:03Z</time>
      </trkpt>
      <trkpt lat="42.39707" lon="-1.41865">
        <ele>343.49</ele>
        <time>2021-08-04T14:35:44Z</time>
      </trkpt>
      <trkpt lat="42.39708" lon="-1.41865">
        <ele>343.49</ele>
        <time>2021-08-04T14:36:54Z</time>
      </trkpt>
      <trkpt lat="42.39709" lon="-1.41865">
        <ele>343.49</ele>
        <time>2021-08-04T14:37:41Z</time>
      </trkpt>
      <trkpt lat="42.39709" lon="-1.41865">
        <ele>343.49</ele>
        <time>2021-08-04T14:38:14Z</time>
      </trkpt>
      <trkpt lat="42.39709" lon="-1.41864">
        <ele>343.49</ele>
        <time>2021-08-04T14:38:49Z</time>
      </trkpt>
      <trkpt lat="42.39709" lon="-1.41865">
        <ele>343.49</ele>
        <time>2021-08-04T14:39:44Z</time>
      </trkpt>
      <trkpt lat="42.39711" lon="-1.41867">
        <ele>343.49</ele>
        <time>2021-08-04T14:40:32Z</time>
      </trkpt>
      <trkpt lat="42.39711" lon="-1.41866">
        <ele>343.49</ele>
        <time>2021-08-04T14:41:58Z</time>
      </trkpt>
      <trkpt lat="42.39711" lon="-1.41866">
        <ele>343.49</ele>
        <time>2021-08-04T14:42:32Z</time>
      </trkpt>
      <trkpt lat="42.3971" lon="-1.41866">
        <ele>343.49</ele>
        <time>2021-08-04T14:43:11Z</time>
      </trkpt>
      <trkpt lat="42.3971" lon="-1.41867">
        <ele>343.49</ele>
        <time>2021-08-04T14:43:42Z</time>
      </trkpt>
      <trkpt lat="42.39709" lon="-1.41866">
        <ele>343.49</ele>
        <time>2021-08-04T14:44:30Z</time>
      </trkpt>
      <trkpt lat="42.39709" lon="-1.41867">
        <ele>343.49</ele>
        <time>2021-08-04T14:45:37Z</time>
      </trkpt>
      <trkpt lat="42.3971" lon="-1.41867">
        <ele>343.49</ele>
        <time>2021-08-04T14:46:33Z</time>
      </trkpt>
      <trkpt lat="42.3971" lon="-1.41864">
        <ele>343.49</ele>
        <time>2021-08-04T14:48:00Z</time>
      </trkpt>
      <trkpt lat="42.39709" lon="-1.41864">
        <ele>343.49</ele>
        <time>2021-08-04T14:48:39Z</time>
      </trkpt>
      <trkpt lat="42.3971" lon="-1.41864">
        <ele>343.49</ele>
        <time>2021-08-04T14:49:27Z</time>
      </trkpt>
      <trkpt lat="42.3971" lon="-1.41863">
        <ele>343.49</ele>
        <time>2021-08-04T14:50:12Z</time>
      </trkpt>
      <trkpt lat="42.39709" lon="-1.41863">
        <ele>343.49</ele>
        <time>2021-08-04T14:51:00Z</time>
      </trkpt>
      <trkpt lat="42.39709" lon="-1.41864">
        <ele>343.49</ele>
        <time>2021-08-04T14:51:37Z</time>
      </trkpt>
      <trkpt lat="42.3971" lon="-1.41864">
        <ele>343.49</ele>
        <time>2021-08-04T14:52:29Z</time>
      </trkpt>
      <trkpt lat="42.3971" lon="-1.41863">
        <ele>343.49</ele>
        <time>2021-08-04T14:53:20Z</time>
      </trkpt>
      <trkpt lat="42.39712" lon="-1.41863">
        <ele>343.49</ele>
        <time>2021-08-04T14:54:20Z</time>
      </trkpt>
      <trkpt lat="42.39712" lon="-1.41863">
        <ele>343.49</ele>
        <time>2021-08-04T14:55:20Z</time>
      </trkpt>
      <trkpt lat="42.39714" lon="-1.41863">
        <ele>343.49</ele>
        <time>2021-08-04T14:56:20Z</time>
      </trkpt>
      <trkpt lat="42.39713" lon="-1.41865">
        <ele>343.49</ele>
        <time>2021-08-04T14:57:21Z</time>
      </trkpt>
      <trkpt lat="42.39712" lon="-1.41866">
        <ele>343.49</ele>
        <time>2021-08-04T14:58:05Z</time>
      </trkpt>
      <trkpt lat="42.39709" lon="-1.41867">
        <ele>343.49</ele>
        <time>2021-08-04T14:59:01Z</time>
      </trkpt>
      <trkpt lat="42.39707" lon="-1.41867">
        <ele>343.49</ele>
        <time>2021-08-04T14:59:33Z</time>
      </trkpt>
      <trkpt lat="42.39707" lon="-1.41868">
        <ele>343.49</ele>
        <time>2021-08-04T15:00:30Z</time>
      </trkpt>
      <trkpt lat="42.39708" lon="-1.41867">
        <ele>343.49</ele>
        <time>2021-08-04T15:01:37Z</time>
      </trkpt>
      <trkpt lat="42.39709" lon="-1.41867">
        <ele>343.49</ele>
        <time>2021-08-04T15:02:33Z</time>
      </trkpt>
      <trkpt lat="42.39709" lon="-1.41867">
        <ele>343.49</ele>
        <time>2021-08-04T15:03:40Z</time>
      </trkpt>
      <trkpt lat="42.39709" lon="-1.41865">
        <ele>343.49</ele>
        <time>2021-08-04T15:05:17Z</time>
      </trkpt>
      <trkpt lat="42.39708" lon="-1.41864">
        <ele>343.49</ele>
        <time>2021-08-04T15:06:15Z</time>
      </trkpt>
      <trkpt lat="42.39707" lon="-1.41867">
        <ele>343.49</ele>
        <time>2021-08-04T15:07:34Z</time>
      </trkpt>
      <trkpt lat="42.39708" lon="-1.41866">
        <ele>343.49</ele>
        <time>2021-08-04T15:08:36Z</time>
      </trkpt>
      <trkpt lat="42.39705" lon="-1.41864">
        <ele>343.49</ele>
        <time>2021-08-04T15:09:44Z</time>
      </trkpt>
      <trkpt lat="42.39706" lon="-1.41864">
        <ele>343.49</ele>
        <time>2021-08-04T15:10:38Z</time>
      </trkpt>
      <trkpt lat="42.39707" lon="-1.41864">
        <ele>343.49</ele>
        <time>2021-08-04T15:11:25Z</time>
      </trkpt>
      <trkpt lat="42.39707" lon="-1.41865">
        <ele>343.49</ele>
        <time>2021-08-04T15:12:08Z</time>
      </trkpt>
      <trkpt lat="42.39707" lon="-1.41866">
        <ele>343.49</ele>
        <time>2021-08-04T15:12:58Z</time>
      </trkpt>
      <trkpt lat="42.39707" lon="-1.41866">
        <ele>343.49</ele>
        <time>2021-08-04T15:14:37Z</time>
      </trkpt>
      <trkpt lat="42.39708" lon="-1.41867">
        <ele>343.49</ele>
        <time>2021-08-04T15:15:16Z</time>
      </trkpt>
      <trkpt lat="42.39708" lon="-1.41867">
        <ele>343.49</ele>
        <time>2021-08-04T15:16:11Z</time>
      </trkpt>
      <trkpt lat="42.39709" lon="-1.41864">
        <ele>343.49</ele>
        <time>2021-08-04T15:17:02Z</time>
      </trkpt>
      <trkpt lat="42.39709" lon="-1.41865">
        <ele>343.49</ele>
        <time>2021-08-04T15:17:56Z</time>
      </trkpt>
      <trkpt lat="42.39709" lon="-1.41865">
        <ele>343.49</ele>
        <time>2021-08-04T15:18:48Z</time>
      </trkpt>
      <trkpt lat="42.39709" lon="-1.41866">
        <ele>343.49</ele>
        <time>2021-08-04T15:19:26Z</time>
      </trkpt>
      <trkpt lat="42.39709" lon="-1.41867">
        <ele>343.49</ele>
        <time>2021-08-04T15:19:49Z</time>
      </trkpt>
      <trkpt lat="42.39703" lon="-1.41872">
        <ele>344.82</ele>
        <time>2021-08-04T15:50:36Z</time>
      </trkpt>
      <trkpt lat="42.39702" lon="-1.41868">
        <ele>344.82</ele>
        <time>2021-08-04T15:50:37Z</time>
      </trkpt>
      <trkpt lat="42.39699" lon="-1.41864">
        <ele>344.82</ele>
        <time>2021-08-04T15:50:47Z</time>
      </trkpt>
      <trkpt lat="42.39707" lon="-1.4184">
        <ele>342.48</ele>
        <time>2021-08-04T15:50:56Z</time>
      </trkpt>
      <trkpt lat="42.39717" lon="-1.41835">
        <ele>342.52</ele>
        <time>2021-08-04T15:51:14Z</time>
      </trkpt>
      <trkpt lat="42.39737" lon="-1.41825">
        <ele>343.62</ele>
        <time>2021-08-04T15:51:33Z</time>
      </trkpt>
      <trkpt lat="42.39738" lon="-1.41779">
        <ele>345.61</ele>
        <time>2021-08-04T15:51:49Z</time>
      </trkpt>
      <trkpt lat="42.39742" lon="-1.41772">
        <ele>346.04</ele>
        <time>2021-08-04T15:51:54Z</time>
      </trkpt>
      <trkpt lat="42.39754" lon="-1.41779">
        <ele>347.29</ele>
        <time>2021-08-04T15:51:59Z</time>
      </trkpt>
      <trkpt lat="42.39775" lon="-1.41807">
        <ele>349</ele>
        <time>2021-08-04T15:52:08Z</time>
      </trkpt>
      <trkpt lat="42.39827" lon="-1.41891">
        <ele>350.01</ele>
        <time>2021-08-04T15:52:20Z</time>
      </trkpt>
      <trkpt lat="42.3989" lon="-1.41986">
        <ele>351.23</ele>
        <time>2021-08-04T15:52:32Z</time>
      </trkpt>
      <trkpt lat="42.39927" lon="-1.42011">
        <ele>351.84</ele>
        <time>2021-08-04T15:52:37Z</time>
      </trkpt>
      <trkpt lat="42.40017" lon="-1.42039">
        <ele>354.72</ele>
        <time>2021-08-04T15:52:46Z</time>
      </trkpt>
      <trkpt lat="42.40072" lon="-1.42014">
        <ele>358.04</ele>
        <time>2021-08-04T15:52:51Z</time>
      </trkpt>
      <trkpt lat="42.40138" lon="-1.41924">
        <ele>362.01</ele>
        <time>2021-08-04T15:52:58Z</time>
      </trkpt>
      <trkpt lat="42.40198" lon="-1.41843">
        <ele>365.09</ele>
        <time>2021-08-04T15:53:06Z</time>
      </trkpt>
      <trkpt lat="42.40263" lon="-1.41757">
        <ele>367.43</ele>
        <time>2021-08-04T15:53:14Z</time>
      </trkpt>
      <trkpt lat="42.40316" lon="-1.41735">
        <ele>370.01</ele>
        <time>2021-08-04T15:53:20Z</time>
      </trkpt>
      <trkpt lat="42.40325" lon="-1.41737">
        <ele>370.49</ele>
        <time>2021-08-04T15:53:21Z</time>
      </trkpt>
      <trkpt lat="42.40451" lon="-1.41776">
        <ele>373.97</ele>
        <time>2021-08-04T15:53:34Z</time>
      </trkpt>
      <trkpt lat="42.40572" lon="-1.4179">
        <ele>374.7</ele>
        <time>2021-08-04T15:53:45Z</time>
      </trkpt>
      <trkpt lat="42.40762" lon="-1.41786">
        <ele>375.83</ele>
        <time>2021-08-04T15:54:00Z</time>
      </trkpt>
      <trkpt lat="42.40833" lon="-1.41786">
        <ele>376.37</ele>
        <time>2021-08-04T15:54:06Z</time>
      </trkpt>
      <trkpt lat="42.40896" lon="-1.41814">
        <ele>376.49</ele>
        <time>2021-08-04T15:54:12Z</time>
      </trkpt>
      <trkpt lat="42.40909" lon="-1.41816">
        <ele>376.56</ele>
        <time>2021-08-04T15:54:13Z</time>
      </trkpt>
      <trkpt lat="42.41101" lon="-1.41823">
        <ele>373.45</ele>
        <time>2021-08-04T15:54:27Z</time>
      </trkpt>
      <trkpt lat="42.41161" lon="-1.41824">
        <ele>370.38</ele>
        <time>2021-08-04T15:54:31Z</time>
      </trkpt>
      <trkpt lat="42.41204" lon="-1.41826">
        <ele>368.35</ele>
        <time>2021-08-04T15:54:34Z</time>
      </trkpt>
      <trkpt lat="42.41262" lon="-1.41813">
        <ele>366.64</ele>
        <time>2021-08-04T15:54:38Z</time>
      </trkpt>
      <trkpt lat="42.41405" lon="-1.41805">
        <ele>366.78</ele>
        <time>2021-08-04T15:54:49Z</time>
      </trkpt>
      <trkpt lat="42.41548" lon="-1.41789">
        <ele>367.11</ele>
        <time>2021-08-04T15:55:00Z</time>
      </trkpt>
      <trkpt lat="42.41558" lon="-1.41787">
        <ele>367.06</ele>
        <time>2021-08-04T15:55:02Z</time>
      </trkpt>
      <trkpt lat="42.4156" lon="-1.41788">
        <ele>365.59</ele>
        <time>2021-08-04T15:55:17Z</time>
      </trkpt>
      <trkpt lat="42.41606" lon="-1.41778">
        <ele>365.74</ele>
        <time>2021-08-04T15:55:24Z</time>
      </trkpt>
      <trkpt lat="42.41618" lon="-1.41776">
        <ele>365.93</ele>
        <time>2021-08-04T15:55:25Z</time>
      </trkpt>
      <trkpt lat="42.41709" lon="-1.41799">
        <ele>367.78</ele>
        <time>2021-08-04T15:55:31Z</time>
      </trkpt>
      <trkpt lat="42.41862" lon="-1.41819">
        <ele>370.07</ele>
        <time>2021-08-04T15:55:39Z</time>
      </trkpt>
      <trkpt lat="42.41909" lon="-1.41818">
        <ele>370.56</ele>
        <time>2021-08-04T15:55:43Z</time>
      </trkpt>
      <trkpt lat="42.4192" lon="-1.41818">
        <ele>368.67</ele>
        <time>2021-08-04T15:55:49Z</time>
      </trkpt>
      <trkpt lat="42.41959" lon="-1.41817">
        <ele>367.46</ele>
        <time>2021-08-04T15:55:55Z</time>
      </trkpt>
      <trkpt lat="42.4203" lon="-1.41815">
        <ele>370.86</ele>
        <time>2021-08-04T15:56:01Z</time>
      </trkpt>
      <trkpt lat="42.42042" lon="-1.41815">
        <ele>371.8</ele>
        <time>2021-08-04T15:56:02Z</time>
      </trkpt>
      <trkpt lat="42.42129" lon="-1.41845">
        <ele>375.74</ele>
        <time>2021-08-04T15:56:08Z</time>
      </trkpt>
      <trkpt lat="42.42146" lon="-1.4185">
        <ele>376.54</ele>
        <time>2021-08-04T15:56:09Z</time>
      </trkpt>
      <trkpt lat="42.42236" lon="-1.41834">
        <ele>379.2</ele>
        <time>2021-08-04T15:56:14Z</time>
      </trkpt>
      <trkpt lat="42.42289" lon="-1.41805">
        <ele>379.45</ele>
        <time>2021-08-04T15:56:17Z</time>
      </trkpt>
      <trkpt lat="42.42411" lon="-1.41739">
        <ele>383.11</ele>
        <time>2021-08-04T15:56:25Z</time>
      </trkpt>
      <trkpt lat="42.42479" lon="-1.41702">
        <ele>386.91</ele>
        <time>2021-08-04T15:56:29Z</time>
      </trkpt>
      <trkpt lat="42.42589" lon="-1.41627">
        <ele>388.45</ele>
        <time>2021-08-04T15:56:36Z</time>
      </trkpt>
      <trkpt lat="42.42643" lon="-1.41559">
        <ele>386.72</ele>
        <time>2021-08-04T15:56:42Z</time>
      </trkpt>
      <trkpt lat="42.42654" lon="-1.41555">
        <ele>386.57</ele>
        <time>2021-08-04T15:56:43Z</time>
      </trkpt>
      <trkpt lat="42.4273" lon="-1.4152">
        <ele>388.07</ele>
        <time>2021-08-04T15:56:48Z</time>
      </trkpt>
      <trkpt lat="42.42825" lon="-1.41463">
        <ele>391.43</ele>
        <time>2021-08-04T15:56:53Z</time>
      </trkpt>
      <trkpt lat="42.42905" lon="-1.41416">
        <ele>394.8</ele>
        <time>2021-08-04T15:56:57Z</time>
      </trkpt>
      <trkpt lat="42.42924" lon="-1.41407">
        <ele>395.4</ele>
        <time>2021-08-04T15:56:58Z</time>
      </trkpt>
      <trkpt lat="42.42983" lon="-1.41357">
        <ele>395.91</ele>
        <time>2021-08-04T15:57:02Z</time>
      </trkpt>
      <trkpt lat="42.4303" lon="-1.41352">
        <ele>393.58</ele>
        <time>2021-08-04T15:57:06Z</time>
      </trkpt>
      <trkpt lat="42.43071" lon="-1.41358">
        <ele>391.98</ele>
        <time>2021-08-04T15:57:09Z</time>
      </trkpt>
      <trkpt lat="42.43203" lon="-1.4135">
        <ele>394.24</ele>
        <time>2021-08-04T15:57:17Z</time>
      </trkpt>
      <trkpt lat="42.43236" lon="-1.41344">
        <ele>394.97</ele>
        <time>2021-08-04T15:57:19Z</time>
      </trkpt>
      <trkpt lat="42.43378" lon="-1.41324">
        <ele>396.85</ele>
        <time>2021-08-04T15:57:26Z</time>
      </trkpt>
      <trkpt lat="42.43437" lon="-1.41313">
        <ele>399.34</ele>
        <time>2021-08-04T15:57:29Z</time>
      </trkpt>
      <trkpt lat="42.43511" lon="-1.4128">
        <ele>399.68</ele>
        <time>2021-08-04T15:57:33Z</time>
      </trkpt>
      <trkpt lat="42.43589" lon="-1.41204">
        <ele>397.27</ele>
        <time>2021-08-04T15:57:39Z</time>
      </trkpt>
      <trkpt lat="42.43602" lon="-1.41201">
        <ele>396.89</ele>
        <time>2021-08-04T15:57:40Z</time>
      </trkpt>
      <trkpt lat="42.43673" lon="-1.41182">
        <ele>396.99</ele>
        <time>2021-08-04T15:57:45Z</time>
      </trkpt>
      <trkpt lat="42.43727" lon="-1.41207">
        <ele>399.39</ele>
        <time>2021-08-04T15:57:50Z</time>
      </trkpt>
      <trkpt lat="42.43755" lon="-1.41241">
        <ele>401.07</ele>
        <time>2021-08-04T15:57:53Z</time>
      </trkpt>
      <trkpt lat="42.43778" lon="-1.413">
        <ele>403.72</ele>
        <time>2021-08-04T15:57:57Z</time>
      </trkpt>
      <trkpt lat="42.43816" lon="-1.41373">
        <ele>406.16</ele>
        <time>2021-08-04T15:58:01Z</time>
      </trkpt>
      <trkpt lat="42.4387" lon="-1.41446">
        <ele>410.22</ele>
        <time>2021-08-04T15:58:06Z</time>
      </trkpt>
      <trkpt lat="42.43884" lon="-1.41474">
        <ele>410.61</ele>
        <time>2021-08-04T15:58:10Z</time>
      </trkpt>
      <trkpt lat="42.43882" lon="-1.41472">
        <ele>407.27</ele>
        <time>2021-08-04T15:58:14Z</time>
      </trkpt>
      <trkpt lat="42.43882" lon="-1.41471">
        <ele>404.53</ele>
        <time>2021-08-04T15:58:22Z</time>
      </trkpt>
      <trkpt lat="42.43893" lon="-1.4149">
        <ele>404.16</ele>
        <time>2021-08-04T15:58:26Z</time>
      </trkpt>
      <trkpt lat="42.43911" lon="-1.41603">
        <ele>405.25</ele>
        <time>2021-08-04T15:58:34Z</time>
      </trkpt>
      <trkpt lat="42.43909" lon="-1.41673">
        <ele>407.46</ele>
        <time>2021-08-04T15:58:38Z</time>
      </trkpt>
      <trkpt lat="42.43945" lon="-1.41766">
        <ele>410.55</ele>
        <time>2021-08-04T15:58:44Z</time>
      </trkpt>
      <trkpt lat="42.43958" lon="-1.4177">
        <ele>410.94</ele>
        <time>2021-08-04T15:58:45Z</time>
      </trkpt>
      <trkpt lat="42.43999" lon="-1.41785">
        <ele>411.99</ele>
        <time>2021-08-04T15:58:48Z</time>
      </trkpt>
      <trkpt lat="42.44063" lon="-1.41775">
        <ele>415</ele>
        <time>2021-08-04T15:58:54Z</time>
      </trkpt>
      <trkpt lat="42.44147" lon="-1.41769">
        <ele>414.05</ele>
        <time>2021-08-04T15:59:02Z</time>
      </trkpt>
      <trkpt lat="42.44191" lon="-1.41751">
        <ele>414.08</ele>
        <time>2021-08-04T15:59:06Z</time>
      </trkpt>
      <trkpt lat="42.44259" lon="-1.41719">
        <ele>412.31</ele>
        <time>2021-08-04T15:59:11Z</time>
      </trkpt>
      <trkpt lat="42.4429" lon="-1.41718">
        <ele>411.3</ele>
        <time>2021-08-04T15:59:13Z</time>
      </trkpt>
      <trkpt lat="42.44343" lon="-1.41707">
        <ele>407.98</ele>
        <time>2021-08-04T15:59:18Z</time>
      </trkpt>
      <trkpt lat="42.44374" lon="-1.41725">
        <ele>404.9</ele>
        <time>2021-08-04T15:59:21Z</time>
      </trkpt>
      <trkpt lat="42.44466" lon="-1.41749">
        <ele>403.81</ele>
        <time>2021-08-04T15:59:28Z</time>
      </trkpt>
      <trkpt lat="42.4457" lon="-1.41732">
        <ele>403.02</ele>
        <time>2021-08-04T15:59:35Z</time>
      </trkpt>
      <trkpt lat="42.44655" lon="-1.41696">
        <ele>401.66</ele>
        <time>2021-08-04T15:59:40Z</time>
      </trkpt>
      <trkpt lat="42.44703" lon="-1.41655">
        <ele>399.48</ele>
        <time>2021-08-04T15:59:44Z</time>
      </trkpt>
      <trkpt lat="42.44768" lon="-1.41637">
        <ele>394.99</ele>
        <time>2021-08-04T15:59:49Z</time>
      </trkpt>
      <trkpt lat="42.44802" lon="-1.41627">
        <ele>393.53</ele>
        <time>2021-08-04T15:59:51Z</time>
      </trkpt>
      <trkpt lat="42.44863" lon="-1.41593">
        <ele>390.87</ele>
        <time>2021-08-04T15:59:55Z</time>
      </trkpt>
      <trkpt lat="42.44928" lon="-1.41605">
        <ele>390.2</ele>
        <time>2021-08-04T16:00:01Z</time>
      </trkpt>
      <trkpt lat="42.44958" lon="-1.41599">
        <ele>390.79</ele>
        <time>2021-08-04T16:00:03Z</time>
      </trkpt>
      <trkpt lat="42.45005" lon="-1.41586">
        <ele>392.71</ele>
        <time>2021-08-04T16:00:06Z</time>
      </trkpt>
      <trkpt lat="42.45094" lon="-1.41534">
        <ele>395.94</ele>
        <time>2021-08-04T16:00:12Z</time>
      </trkpt>
      <trkpt lat="42.45133" lon="-1.41526">
        <ele>396.77</ele>
        <time>2021-08-04T16:00:15Z</time>
      </trkpt>
      <trkpt lat="42.45181" lon="-1.41556">
        <ele>396.1</ele>
        <time>2021-08-04T16:00:20Z</time>
      </trkpt>
      <trkpt lat="42.4522" lon="-1.4154">
        <ele>394.48</ele>
        <time>2021-08-04T16:00:24Z</time>
      </trkpt>
      <trkpt lat="42.45273" lon="-1.41472">
        <ele>390.51</ele>
        <time>2021-08-04T16:00:30Z</time>
      </trkpt>
      <trkpt lat="42.45313" lon="-1.41415">
        <ele>386.79</ele>
        <time>2021-08-04T16:00:35Z</time>
      </trkpt>
      <trkpt lat="42.45337" lon="-1.41387">
        <ele>383.74</ele>
        <time>2021-08-04T16:00:38Z</time>
      </trkpt>
      <trkpt lat="42.45368" lon="-1.4135">
        <ele>380.39</ele>
        <time>2021-08-04T16:00:41Z</time>
      </trkpt>
      <trkpt lat="42.45412" lon="-1.4129">
        <ele>376.64</ele>
        <time>2021-08-04T16:00:45Z</time>
      </trkpt>
      <trkpt lat="42.45491" lon="-1.41206">
        <ele>373.52</ele>
        <time>2021-08-04T16:00:51Z</time>
      </trkpt>
      <trkpt lat="42.45575" lon="-1.4111">
        <ele>372.02</ele>
        <time>2021-08-04T16:00:57Z</time>
      </trkpt>
      <trkpt lat="42.45604" lon="-1.41048">
        <ele>370.4</ele>
        <time>2021-08-04T16:01:01Z</time>
      </trkpt>
      <trkpt lat="42.45604" lon="-1.40926">
        <ele>366.98</ele>
        <time>2021-08-04T16:01:07Z</time>
      </trkpt>
      <trkpt lat="42.45623" lon="-1.40892">
        <ele>363.99</ele>
        <time>2021-08-04T16:01:12Z</time>
      </trkpt>
      <trkpt lat="42.45633" lon="-1.40948">
        <ele>362.35</ele>
        <time>2021-08-04T16:01:16Z</time>
      </trkpt>
      <trkpt lat="42.45666" lon="-1.40996">
        <ele>360.88</ele>
        <time>2021-08-04T16:01:21Z</time>
      </trkpt>
      <trkpt lat="42.45704" lon="-1.40985">
        <ele>359.95</ele>
        <time>2021-08-04T16:01:24Z</time>
      </trkpt>
      <trkpt lat="42.45824" lon="-1.40913">
        <ele>359.58</ele>
        <time>2021-08-04T16:01:31Z</time>
      </trkpt>
      <trkpt lat="42.45943" lon="-1.40854">
        <ele>361.14</ele>
        <time>2021-08-04T16:01:37Z</time>
      </trkpt>
      <trkpt lat="42.45994" lon="-1.40813">
        <ele>361.37</ele>
        <time>2021-08-04T16:01:41Z</time>
      </trkpt>
      <trkpt lat="42.46029" lon="-1.40816">
        <ele>360.91</ele>
        <time>2021-08-04T16:01:45Z</time>
      </trkpt>
      <trkpt lat="42.46095" lon="-1.40824">
        <ele>360.92</ele>
        <time>2021-08-04T16:01:50Z</time>
      </trkpt>
      <trkpt lat="42.46285" lon="-1.40793">
        <ele>362.97</ele>
        <time>2021-08-04T16:01:59Z</time>
      </trkpt>
      <trkpt lat="42.46496" lon="-1.40741">
        <ele>365.94</ele>
        <time>2021-08-04T16:02:07Z</time>
      </trkpt>
      <trkpt lat="42.46604" lon="-1.40711">
        <ele>367.28</ele>
        <time>2021-08-04T16:02:12Z</time>
      </trkpt>
      <trkpt lat="42.46656" lon="-1.40707">
        <ele>367.07</ele>
        <time>2021-08-04T16:02:15Z</time>
      </trkpt>
      <trkpt lat="42.46716" lon="-1.40696">
        <ele>366.04</ele>
        <time>2021-08-04T16:02:19Z</time>
      </trkpt>
      <trkpt lat="42.46752" lon="-1.40715">
        <ele>363.78</ele>
        <time>2021-08-04T16:02:23Z</time>
      </trkpt>
      <trkpt lat="42.468" lon="-1.40729">
        <ele>362.53</ele>
        <time>2021-08-04T16:02:27Z</time>
      </trkpt>
      <trkpt lat="42.46893" lon="-1.40781">
        <ele>362.87</ele>
        <time>2021-08-04T16:02:33Z</time>
      </trkpt>
      <trkpt lat="42.47032" lon="-1.40939">
        <ele>366.51</ele>
        <time>2021-08-04T16:02:41Z</time>
      </trkpt>
      <trkpt lat="42.47115" lon="-1.41051">
        <ele>370.01</ele>
        <time>2021-08-04T16:02:46Z</time>
      </trkpt>
      <trkpt lat="42.47129" lon="-1.41071">
        <ele>370.67</ele>
        <time>2021-08-04T16:02:47Z</time>
      </trkpt>
      <trkpt lat="42.47199" lon="-1.4124">
        <ele>374.43</ele>
        <time>2021-08-04T16:02:54Z</time>
      </trkpt>
      <trkpt lat="42.4728" lon="-1.41375">
        <ele>377.15</ele>
        <time>2021-08-04T16:03:00Z</time>
      </trkpt>
      <trkpt lat="42.47373" lon="-1.41517">
        <ele>380.81</ele>
        <time>2021-08-04T16:03:06Z</time>
      </trkpt>
      <trkpt lat="42.47398" lon="-1.41547">
        <ele>381.74</ele>
        <time>2021-08-04T16:03:08Z</time>
      </trkpt>
      <trkpt lat="42.47432" lon="-1.41619">
        <ele>382.67</ele>
        <time>2021-08-04T16:03:12Z</time>
      </trkpt>
      <trkpt lat="42.47492" lon="-1.41883">
        <ele>385.41</ele>
        <time>2021-08-04T16:03:22Z</time>
      </trkpt>
      <trkpt lat="42.47518" lon="-1.41971">
        <ele>386.4</ele>
        <time>2021-08-04T16:03:26Z</time>
      </trkpt>
      <trkpt lat="42.47563" lon="-1.42026">
        <ele>386.06</ele>
        <time>2021-08-04T16:03:30Z</time>
      </trkpt>
      <trkpt lat="42.47593" lon="-1.42042">
        <ele>385.65</ele>
        <time>2021-08-04T16:03:32Z</time>
      </trkpt>
      <trkpt lat="42.47687" lon="-1.42046">
        <ele>383.74</ele>
        <time>2021-08-04T16:03:37Z</time>
      </trkpt>
      <trkpt lat="42.4778" lon="-1.42017">
        <ele>380.7</ele>
        <time>2021-08-04T16:03:42Z</time>
      </trkpt>
      <trkpt lat="42.47842" lon="-1.41967">
        <ele>377.78</ele>
        <time>2021-08-04T16:03:46Z</time>
      </trkpt>
      <trkpt lat="42.47916" lon="-1.41854">
        <ele>375.1</ele>
        <time>2021-08-04T16:03:52Z</time>
      </trkpt>
      <trkpt lat="42.48052" lon="-1.41688">
        <ele>375.84</ele>
        <time>2021-08-04T16:04:00Z</time>
      </trkpt>
      <trkpt lat="42.48148" lon="-1.41555">
        <ele>376.16</ele>
        <time>2021-08-04T16:04:06Z</time>
      </trkpt>
      <trkpt lat="42.48276" lon="-1.41456">
        <ele>374.98</ele>
        <time>2021-08-04T16:04:13Z</time>
      </trkpt>
      <trkpt lat="42.48405" lon="-1.41403">
        <ele>373.6</ele>
        <time>2021-08-04T16:04:19Z</time>
      </trkpt>
      <trkpt lat="42.48443" lon="-1.41387">
        <ele>372.99</ele>
        <time>2021-08-04T16:04:21Z</time>
      </trkpt>
      <trkpt lat="42.48544" lon="-1.41368">
        <ele>370.13</ele>
        <time>2021-08-04T16:04:27Z</time>
      </trkpt>
      <trkpt lat="42.48581" lon="-1.41388">
        <ele>369.29</ele>
        <time>2021-08-04T16:04:31Z</time>
      </trkpt>
      <trkpt lat="42.48623" lon="-1.41422">
        <ele>370.32</ele>
        <time>2021-08-04T16:04:41Z</time>
      </trkpt>
      <trkpt lat="42.48652" lon="-1.41426">
        <ele>369.13</ele>
        <time>2021-08-04T16:04:58Z</time>
      </trkpt>
      <trkpt lat="42.48753" lon="-1.41449">
        <ele>370.39</ele>
        <time>2021-08-04T16:05:05Z</time>
      </trkpt>
      <trkpt lat="42.48822" lon="-1.4149">
        <ele>372.92</ele>
        <time>2021-08-04T16:05:09Z</time>
      </trkpt>
      <trkpt lat="42.48938" lon="-1.41631">
        <ele>377.06</ele>
        <time>2021-08-04T16:05:16Z</time>
      </trkpt>
      <trkpt lat="42.48964" lon="-1.41669">
        <ele>377.84</ele>
        <time>2021-08-04T16:05:18Z</time>
      </trkpt>
      <trkpt lat="42.49" lon="-1.41816">
        <ele>378.76</ele>
        <time>2021-08-04T16:05:24Z</time>
      </trkpt>
      <trkpt lat="42.49019" lon="-1.41964">
        <ele>377.08</ele>
        <time>2021-08-04T16:05:30Z</time>
      </trkpt>
      <trkpt lat="42.49048" lon="-1.4201">
        <ele>373.98</ele>
        <time>2021-08-04T16:05:34Z</time>
      </trkpt>
      <trkpt lat="42.49075" lon="-1.4203">
        <ele>372.91</ele>
        <time>2021-08-04T16:05:36Z</time>
      </trkpt>
      <trkpt lat="42.49164" lon="-1.42189">
        <ele>373.47</ele>
        <time>2021-08-04T16:05:44Z</time>
      </trkpt>
      <trkpt lat="42.49218" lon="-1.42314">
        <ele>376.4</ele>
        <time>2021-08-04T16:05:50Z</time>
      </trkpt>
      <trkpt lat="42.49237" lon="-1.42347">
        <ele>377.44</ele>
        <time>2021-08-04T16:05:52Z</time>
      </trkpt>
      <trkpt lat="42.4926" lon="-1.42374">
        <ele>378.42</ele>
        <time>2021-08-04T16:05:54Z</time>
      </trkpt>
      <trkpt lat="42.49286" lon="-1.4242">
        <ele>378.91</ele>
        <time>2021-08-04T16:05:57Z</time>
      </trkpt>
      <trkpt lat="42.49314" lon="-1.42461">
        <ele>379.13</ele>
        <time>2021-08-04T16:06:00Z</time>
      </trkpt>
      <trkpt lat="42.49383" lon="-1.42491">
        <ele>381.38</ele>
        <time>2021-08-04T16:06:07Z</time>
      </trkpt>
      <trkpt lat="42.49395" lon="-1.42489">
        <ele>381.88</ele>
        <time>2021-08-04T16:06:08Z</time>
      </trkpt>
      <trkpt lat="42.49435" lon="-1.42479">
        <ele>383.44</ele>
        <time>2021-08-04T16:06:11Z</time>
      </trkpt>
      <trkpt lat="42.49494" lon="-1.4242">
        <ele>385.27</ele>
        <time>2021-08-04T16:06:17Z</time>
      </trkpt>
      <trkpt lat="42.49531" lon="-1.42386">
        <ele>385.91</ele>
        <time>2021-08-04T16:06:20Z</time>
      </trkpt>
      <trkpt lat="42.49662" lon="-1.42313">
        <ele>389.41</ele>
        <time>2021-08-04T16:06:28Z</time>
      </trkpt>
      <trkpt lat="42.49694" lon="-1.42295">
        <ele>389.61</ele>
        <time>2021-08-04T16:06:30Z</time>
      </trkpt>
      <trkpt lat="42.49752" lon="-1.4224">
        <ele>388.42</ele>
        <time>2021-08-04T16:06:34Z</time>
      </trkpt>
      <trkpt lat="42.49867" lon="-1.42161">
        <ele>384.71</ele>
        <time>2021-08-04T16:06:41Z</time>
      </trkpt>
      <trkpt lat="42.49964" lon="-1.42061">
        <ele>381.61</ele>
        <time>2021-08-04T16:06:47Z</time>
      </trkpt>
      <trkpt lat="42.50075" lon="-1.4194">
        <ele>380.11</ele>
        <time>2021-08-04T16:06:54Z</time>
      </trkpt>
      <trkpt lat="42.50185" lon="-1.41857">
        <ele>377.74</ele>
        <time>2021-08-04T16:07:01Z</time>
      </trkpt>
      <trkpt lat="42.50287" lon="-1.41813">
        <ele>374.24</ele>
        <time>2021-08-04T16:07:07Z</time>
      </trkpt>
      <trkpt lat="42.50321" lon="-1.41801">
        <ele>373.07</ele>
        <time>2021-08-04T16:07:09Z</time>
      </trkpt>
      <trkpt lat="42.50442" lon="-1.41824">
        <ele>370.46</ele>
        <time>2021-08-04T16:07:16Z</time>
      </trkpt>
      <trkpt lat="42.50495" lon="-1.41843">
        <ele>370.66</ele>
        <time>2021-08-04T16:07:19Z</time>
      </trkpt>
      <trkpt lat="42.5056" lon="-1.41879">
        <ele>372.11</ele>
        <time>2021-08-04T16:07:23Z</time>
      </trkpt>
      <trkpt lat="42.50637" lon="-1.41957">
        <ele>374.8</ele>
        <time>2021-08-04T16:07:28Z</time>
      </trkpt>
      <trkpt lat="42.50689" lon="-1.41989">
        <ele>377.19</ele>
        <time>2021-08-04T16:07:32Z</time>
      </trkpt>
      <trkpt lat="42.50721" lon="-1.4205">
        <ele>378.83</ele>
        <time>2021-08-04T16:07:37Z</time>
      </trkpt>
      <trkpt lat="42.50797" lon="-1.42231">
        <ele>382.66</ele>
        <time>2021-08-04T16:07:46Z</time>
      </trkpt>
      <trkpt lat="42.50826" lon="-1.42303">
        <ele>385.45</ele>
        <time>2021-08-04T16:07:50Z</time>
      </trkpt>
      <trkpt lat="42.50864" lon="-1.42343">
        <ele>388.27</ele>
        <time>2021-08-04T16:07:54Z</time>
      </trkpt>
      <trkpt lat="42.509" lon="-1.42362">
        <ele>390.24</ele>
        <time>2021-08-04T16:07:57Z</time>
      </trkpt>
      <trkpt lat="42.50944" lon="-1.42373">
        <ele>392.08</ele>
        <time>2021-08-04T16:08:01Z</time>
      </trkpt>
      <trkpt lat="42.50985" lon="-1.42372">
        <ele>392.84</ele>
        <time>2021-08-04T16:08:04Z</time>
      </trkpt>
      <trkpt lat="42.51094" lon="-1.42311">
        <ele>389.11</ele>
        <time>2021-08-04T16:08:12Z</time>
      </trkpt>
      <trkpt lat="42.51122" lon="-1.42289">
        <ele>387.13</ele>
        <time>2021-08-04T16:08:14Z</time>
      </trkpt>
      <trkpt lat="42.51173" lon="-1.42229">
        <ele>382.87</ele>
        <time>2021-08-04T16:08:18Z</time>
      </trkpt>
      <trkpt lat="42.51239" lon="-1.4213">
        <ele>379.7</ele>
        <time>2021-08-04T16:08:23Z</time>
      </trkpt>
      <trkpt lat="42.51314" lon="-1.42009">
        <ele>378.16</ele>
        <time>2021-08-04T16:08:29Z</time>
      </trkpt>
      <trkpt lat="42.51391" lon="-1.41821">
        <ele>376.99</ele>
        <time>2021-08-04T16:08:38Z</time>
      </trkpt>
      <trkpt lat="42.51439" lon="-1.41702">
        <ele>380.7</ele>
        <time>2021-08-04T16:08:44Z</time>
      </trkpt>
      <trkpt lat="42.51462" lon="-1.41648">
        <ele>383.33</ele>
        <time>2021-08-04T16:08:47Z</time>
      </trkpt>
      <trkpt lat="42.51488" lon="-1.41578">
        <ele>385.26</ele>
        <time>2021-08-04T16:08:51Z</time>
      </trkpt>
      <trkpt lat="42.51513" lon="-1.41523">
        <ele>386.28</ele>
        <time>2021-08-04T16:08:54Z</time>
      </trkpt>
      <trkpt lat="42.5157" lon="-1.41443">
        <ele>387.81</ele>
        <time>2021-08-04T16:09:00Z</time>
      </trkpt>
      <trkpt lat="42.51619" lon="-1.4141">
        <ele>388.39</ele>
        <time>2021-08-04T16:09:04Z</time>
      </trkpt>
      <trkpt lat="42.51734" lon="-1.41323">
        <ele>387.66</ele>
        <time>2021-08-04T16:09:13Z</time>
      </trkpt>
      <trkpt lat="42.51787" lon="-1.41271">
        <ele>387.87</ele>
        <time>2021-08-04T16:09:18Z</time>
      </trkpt>
      <trkpt lat="42.51826" lon="-1.41268">
        <ele>387.42</ele>
        <time>2021-08-04T16:09:22Z</time>
      </trkpt>
      <trkpt lat="42.51864" lon="-1.41241">
        <ele>385.34</ele>
        <time>2021-08-04T16:09:29Z</time>
      </trkpt>
      <trkpt lat="42.51849" lon="-1.41159">
        <ele>382.18</ele>
        <time>2021-08-04T16:09:35Z</time>
      </trkpt>
      <trkpt lat="42.51827" lon="-1.40995">
        <ele>377.61</ele>
        <time>2021-08-04T16:09:45Z</time>
      </trkpt>
      <trkpt lat="42.51811" lon="-1.40852">
        <ele>376.27</ele>
        <time>2021-08-04T16:09:54Z</time>
      </trkpt>
      <trkpt lat="42.51832" lon="-1.40737">
        <ele>379.46</ele>
        <time>2021-08-04T16:10:01Z</time>
      </trkpt>
      <trkpt lat="42.51848" lon="-1.40671">
        <ele>380.15</ele>
        <time>2021-08-04T16:10:05Z</time>
      </trkpt>
      <trkpt lat="42.51878" lon="-1.40625">
        <ele>380.44</ele>
        <time>2021-08-04T16:10:09Z</time>
      </trkpt>
      <trkpt lat="42.51917" lon="-1.40533">
        <ele>379.94</ele>
        <time>2021-08-04T16:10:16Z</time>
      </trkpt>
      <trkpt lat="42.51944" lon="-1.40474">
        <ele>378.51</ele>
        <time>2021-08-04T16:10:22Z</time>
      </trkpt>
      <trkpt lat="42.51957" lon="-1.40456">
        <ele>378.16</ele>
        <time>2021-08-04T16:10:25Z</time>
      </trkpt>
      <trkpt lat="42.51973" lon="-1.40451">
        <ele>377.44</ele>
        <time>2021-08-04T16:10:29Z</time>
      </trkpt>
      <trkpt lat="42.51976" lon="-1.40453">
        <ele>377.21</ele>
        <time>2021-08-04T16:10:30Z</time>
      </trkpt>
      <trkpt lat="42.51979" lon="-1.40456">
        <ele>376.99</ele>
        <time>2021-08-04T16:10:31Z</time>
      </trkpt>
      <trkpt lat="42.51981" lon="-1.4046">
        <ele>376.84</ele>
        <time>2021-08-04T16:10:32Z</time>
      </trkpt>
      <trkpt lat="42.51983" lon="-1.40466">
        <ele>376.7</ele>
        <time>2021-08-04T16:10:33Z</time>
      </trkpt>
      <trkpt lat="42.51986" lon="-1.40472">
        <ele>376.53</ele>
        <time>2021-08-04T16:10:34Z</time>
      </trkpt>
      <trkpt lat="42.51992" lon="-1.40485">
        <ele>376.16</ele>
        <time>2021-08-04T16:10:36Z</time>
      </trkpt>
      <trkpt lat="42.51996" lon="-1.40491">
        <ele>375.97</ele>
        <time>2021-08-04T16:10:37Z</time>
      </trkpt>
      <trkpt lat="42.51999" lon="-1.40495">
        <ele>375.79</ele>
        <time>2021-08-04T16:10:38Z</time>
      </trkpt>
      <trkpt lat="42.52035" lon="-1.40537">
        <ele>375.49</ele>
        <time>2021-08-04T16:10:50Z</time>
      </trkpt>
      <trkpt lat="42.52074" lon="-1.40587">
        <ele>376.91</ele>
        <time>2021-08-04T16:11:04Z</time>
      </trkpt>
      <trkpt lat="42.52093" lon="-1.40609">
        <ele>375.93</ele>
        <time>2021-08-04T16:11:13Z</time>
      </trkpt>
      <trkpt lat="42.52119" lon="-1.40593">
        <ele>375.62</ele>
        <time>2021-08-04T16:11:18Z</time>
      </trkpt>
      <trkpt lat="42.52128" lon="-1.40573">
        <ele>375.5</ele>
        <time>2021-08-04T16:11:20Z</time>
      </trkpt>
      <trkpt lat="42.52143" lon="-1.40554">
        <ele>374.55</ele>
        <time>2021-08-04T16:11:24Z</time>
      </trkpt>
      <trkpt lat="42.52175" lon="-1.405">
        <ele>373.4</ele>
        <time>2021-08-04T16:11:29Z</time>
      </trkpt>
      <trkpt lat="42.52188" lon="-1.40461">
        <ele>372.85</ele>
        <time>2021-08-04T16:11:32Z</time>
      </trkpt>
      <trkpt lat="42.52227" lon="-1.40403">
        <ele>371.32</ele>
        <time>2021-08-04T16:11:39Z</time>
      </trkpt>
      <trkpt lat="42.52269" lon="-1.40368">
        <ele>370.95</ele>
        <time>2021-08-04T16:11:44Z</time>
      </trkpt>
      <trkpt lat="42.52313" lon="-1.40302">
        <ele>371.82</ele>
        <time>2021-08-04T16:11:51Z</time>
      </trkpt>
      <trkpt lat="42.52364" lon="-1.40223">
        <ele>374.36</ele>
        <time>2021-08-04T16:11:59Z</time>
      </trkpt>
      <trkpt lat="42.52381" lon="-1.40193">
        <ele>375.09</ele>
        <time>2021-08-04T16:12:02Z</time>
      </trkpt>
      <trkpt lat="42.52437" lon="-1.40072">
        <ele>377.18</ele>
        <time>2021-08-04T16:12:15Z</time>
      </trkpt>
      <trkpt lat="42.52512" lon="-1.39927">
        <ele>378.87</ele>
        <time>2021-08-04T16:12:28Z</time>
      </trkpt>
      <trkpt lat="42.52581" lon="-1.39777">
        <ele>381</ele>
        <time>2021-08-04T16:12:38Z</time>
      </trkpt>
      <trkpt lat="42.52681" lon="-1.39611">
        <ele>383.74</ele>
        <time>2021-08-04T16:12:46Z</time>
      </trkpt>
      <trkpt lat="42.52704" lon="-1.39569">
        <ele>384.16</ele>
        <time>2021-08-04T16:12:48Z</time>
      </trkpt>
      <trkpt lat="42.52803" lon="-1.39458">
        <ele>384.86</ele>
        <time>2021-08-04T16:12:55Z</time>
      </trkpt>
      <trkpt lat="42.52876" lon="-1.39354">
        <ele>385.76</ele>
        <time>2021-08-04T16:13:01Z</time>
      </trkpt>
      <trkpt lat="42.52918" lon="-1.39339">
        <ele>384.96</ele>
        <time>2021-08-04T16:13:05Z</time>
      </trkpt>
      <trkpt lat="42.53035" lon="-1.39385">
        <ele>382.01</ele>
        <time>2021-08-04T16:13:14Z</time>
      </trkpt>
      <trkpt lat="42.53121" lon="-1.39461">
        <ele>382.11</ele>
        <time>2021-08-04T16:13:22Z</time>
      </trkpt>
      <trkpt lat="42.53166" lon="-1.39473">
        <ele>383.15</ele>
        <time>2021-08-04T16:13:28Z</time>
      </trkpt>
      <trkpt lat="42.5317" lon="-1.39472">
        <ele>383.58</ele>
        <time>2021-08-04T16:13:30Z</time>
      </trkpt>
      <trkpt lat="42.53174" lon="-1.39469">
        <ele>383.85</ele>
        <time>2021-08-04T16:13:32Z</time>
      </trkpt>
      <trkpt lat="42.53186" lon="-1.39486">
        <ele>384.58</ele>
        <time>2021-08-04T16:13:36Z</time>
      </trkpt>
      <trkpt lat="42.53223" lon="-1.39594">
        <ele>386.3</ele>
        <time>2021-08-04T16:13:43Z</time>
      </trkpt>
      <trkpt lat="42.53306" lon="-1.39799">
        <ele>388.95</ele>
        <time>2021-08-04T16:13:52Z</time>
      </trkpt>
      <trkpt lat="42.53437" lon="-1.40059">
        <ele>391.96</ele>
        <time>2021-08-04T16:14:03Z</time>
      </trkpt>
      <trkpt lat="42.53514" lon="-1.40251">
        <ele>393.25</ele>
        <time>2021-08-04T16:14:12Z</time>
      </trkpt>
      <trkpt lat="42.53606" lon="-1.40463">
        <ele>396.27</ele>
        <time>2021-08-04T16:14:22Z</time>
      </trkpt>
      <trkpt lat="42.53721" lon="-1.40579">
        <ele>398.41</ele>
        <time>2021-08-04T16:14:30Z</time>
      </trkpt>
      <trkpt lat="42.53775" lon="-1.40629">
        <ele>398.93</ele>
        <time>2021-08-04T16:14:35Z</time>
      </trkpt>
      <trkpt lat="42.53787" lon="-1.4064">
        <ele>398.5</ele>
        <time>2021-08-04T16:14:37Z</time>
      </trkpt>
      <trkpt lat="42.53813" lon="-1.40654">
        <ele>396.88</ele>
        <time>2021-08-04T16:14:43Z</time>
      </trkpt>
      <trkpt lat="42.53873" lon="-1.40673">
        <ele>396.83</ele>
        <time>2021-08-04T16:14:49Z</time>
      </trkpt>
      <trkpt lat="42.53997" lon="-1.40704">
        <ele>399.6</ele>
        <time>2021-08-04T16:14:57Z</time>
      </trkpt>
      <trkpt lat="42.5415" lon="-1.40745">
        <ele>402.63</ele>
        <time>2021-08-04T16:15:07Z</time>
      </trkpt>
      <trkpt lat="42.5426" lon="-1.40774">
        <ele>405.67</ele>
        <time>2021-08-04T16:15:14Z</time>
      </trkpt>
      <trkpt lat="42.54342" lon="-1.40795">
        <ele>408.68</ele>
        <time>2021-08-04T16:15:19Z</time>
      </trkpt>
      <trkpt lat="42.54458" lon="-1.4085">
        <ele>411.71</ele>
        <time>2021-08-04T16:15:27Z</time>
      </trkpt>
      <trkpt lat="42.54564" lon="-1.4093">
        <ele>413.44</ele>
        <time>2021-08-04T16:15:37Z</time>
      </trkpt>
      <trkpt lat="42.54665" lon="-1.41005">
        <ele>416.87</ele>
        <time>2021-08-04T16:15:44Z</time>
      </trkpt>
      <trkpt lat="42.54739" lon="-1.41058">
        <ele>419.15</ele>
        <time>2021-08-04T16:15:49Z</time>
      </trkpt>
      <trkpt lat="42.54796" lon="-1.41081">
        <ele>421.3</ele>
        <time>2021-08-04T16:15:53Z</time>
      </trkpt>
      <trkpt lat="42.54969" lon="-1.41074">
        <ele>425.15</ele>
        <time>2021-08-04T16:16:04Z</time>
      </trkpt>
      <trkpt lat="42.55" lon="-1.41065">
        <ele>425.85</ele>
        <time>2021-08-04T16:16:06Z</time>
      </trkpt>
      <trkpt lat="42.55089" lon="-1.4109">
        <ele>427.41</ele>
        <time>2021-08-04T16:16:12Z</time>
      </trkpt>
      <trkpt lat="42.55113" lon="-1.41101">
        <ele>427.98</ele>
        <time>2021-08-04T16:16:14Z</time>
      </trkpt>
      <trkpt lat="42.55154" lon="-1.41144">
        <ele>428.99</ele>
        <time>2021-08-04T16:16:18Z</time>
      </trkpt>
      <trkpt lat="42.55189" lon="-1.41212">
        <ele>430.47</ele>
        <time>2021-08-04T16:16:22Z</time>
      </trkpt>
      <trkpt lat="42.55284" lon="-1.4132">
        <ele>433.88</ele>
        <time>2021-08-04T16:16:30Z</time>
      </trkpt>
      <trkpt lat="42.55403" lon="-1.41435">
        <ele>435.66</ele>
        <time>2021-08-04T16:16:41Z</time>
      </trkpt>
      <trkpt lat="42.55439" lon="-1.41464">
        <ele>435.97</ele>
        <time>2021-08-04T16:16:44Z</time>
      </trkpt>
      <trkpt lat="42.55511" lon="-1.41476">
        <ele>437.13</ele>
        <time>2021-08-04T16:16:50Z</time>
      </trkpt>
      <trkpt lat="42.55564" lon="-1.41457">
        <ele>440.71</ele>
        <time>2021-08-04T16:16:56Z</time>
      </trkpt>
      <trkpt lat="42.55582" lon="-1.41459">
        <ele>442.24</ele>
        <time>2021-08-04T16:16:59Z</time>
      </trkpt>
      <trkpt lat="42.55602" lon="-1.41456">
        <ele>443.52</ele>
        <time>2021-08-04T16:17:02Z</time>
      </trkpt>
      <trkpt lat="42.55639" lon="-1.41403">
        <ele>444.42</ele>
        <time>2021-08-04T16:17:08Z</time>
      </trkpt>
      <trkpt lat="42.55693" lon="-1.41238">
        <ele>445.26</ele>
        <time>2021-08-04T16:17:16Z</time>
      </trkpt>
      <trkpt lat="42.55744" lon="-1.41081">
        <ele>448.5</ele>
        <time>2021-08-04T16:17:22Z</time>
      </trkpt>
      <trkpt lat="42.55858" lon="-1.40785">
        <ele>450.71</ele>
        <time>2021-08-04T16:17:34Z</time>
      </trkpt>
      <trkpt lat="42.55995" lon="-1.40592">
        <ele>451.67</ele>
        <time>2021-08-04T16:17:44Z</time>
      </trkpt>
      <trkpt lat="42.56247" lon="-1.40309">
        <ele>453.07</ele>
        <time>2021-08-04T16:18:00Z</time>
      </trkpt>
      <trkpt lat="42.56361" lon="-1.40147">
        <ele>453.97</ele>
        <time>2021-08-04T16:18:08Z</time>
      </trkpt>
      <trkpt lat="42.56419" lon="-1.39951">
        <ele>455.66</ele>
        <time>2021-08-04T16:18:15Z</time>
      </trkpt>
      <trkpt lat="42.56468" lon="-1.39691">
        <ele>456.92</ele>
        <time>2021-08-04T16:18:24Z</time>
      </trkpt>
      <trkpt lat="42.56556" lon="-1.39529">
        <ele>456.54</ele>
        <time>2021-08-04T16:18:31Z</time>
      </trkpt>
      <trkpt lat="42.56675" lon="-1.39421">
        <ele>453.89</ele>
        <time>2021-08-04T16:18:38Z</time>
      </trkpt>
      <trkpt lat="42.56774" lon="-1.39376">
        <ele>450.33</ele>
        <time>2021-08-04T16:18:43Z</time>
      </trkpt>
      <trkpt lat="42.56855" lon="-1.39342">
        <ele>446.68</ele>
        <time>2021-08-04T16:18:47Z</time>
      </trkpt>
      <trkpt lat="42.56914" lon="-1.39317">
        <ele>443.35</ele>
        <time>2021-08-04T16:18:50Z</time>
      </trkpt>
      <trkpt lat="42.56976" lon="-1.39291">
        <ele>439.69</ele>
        <time>2021-08-04T16:18:53Z</time>
      </trkpt>
      <trkpt lat="42.57058" lon="-1.39259">
        <ele>435.87</ele>
        <time>2021-08-04T16:18:57Z</time>
      </trkpt>
      <trkpt lat="42.57274" lon="-1.39204">
        <ele>434.03</ele>
        <time>2021-08-04T16:19:07Z</time>
      </trkpt>
      <trkpt lat="42.57429" lon="-1.39224">
        <ele>435.23</ele>
        <time>2021-08-04T16:19:14Z</time>
      </trkpt>
      <trkpt lat="42.576" lon="-1.39258">
        <ele>437.77</ele>
        <time>2021-08-04T16:19:22Z</time>
      </trkpt>
      <trkpt lat="42.57806" lon="-1.39259">
        <ele>441.06</ele>
        <time>2021-08-04T16:19:33Z</time>
      </trkpt>
      <trkpt lat="42.57932" lon="-1.39258">
        <ele>444.1</ele>
        <time>2021-08-04T16:19:40Z</time>
      </trkpt>
      <trkpt lat="42.58078" lon="-1.39217">
        <ele>445.57</ele>
        <time>2021-08-04T16:19:48Z</time>
      </trkpt>
      <trkpt lat="42.58192" lon="-1.39124">
        <ele>448.73</ele>
        <time>2021-08-04T16:19:55Z</time>
      </trkpt>
      <trkpt lat="42.58268" lon="-1.39022">
        <ele>452.24</ele>
        <time>2021-08-04T16:20:01Z</time>
      </trkpt>
      <trkpt lat="42.58347" lon="-1.38922">
        <ele>455.82</ele>
        <time>2021-08-04T16:20:07Z</time>
      </trkpt>
      <trkpt lat="42.58424" lon="-1.38848">
        <ele>459.45</ele>
        <time>2021-08-04T16:20:12Z</time>
      </trkpt>
      <trkpt lat="42.58485" lon="-1.38786">
        <ele>462.96</ele>
        <time>2021-08-04T16:20:16Z</time>
      </trkpt>
      <trkpt lat="42.5854" lon="-1.3871">
        <ele>466.33</ele>
        <time>2021-08-04T16:20:20Z</time>
      </trkpt>
      <trkpt lat="42.58579" lon="-1.38618">
        <ele>469.99</ele>
        <time>2021-08-04T16:20:24Z</time>
      </trkpt>
      <trkpt lat="42.58606" lon="-1.38491">
        <ele>473.23</ele>
        <time>2021-08-04T16:20:29Z</time>
      </trkpt>
      <trkpt lat="42.58602" lon="-1.38296">
        <ele>476.05</ele>
        <time>2021-08-04T16:20:36Z</time>
      </trkpt>
      <trkpt lat="42.58572" lon="-1.37909">
        <ele>475.99</ele>
        <time>2021-08-04T16:20:49Z</time>
      </trkpt>
      <trkpt lat="42.58556" lon="-1.37472">
        <ele>475.72</ele>
        <time>2021-08-04T16:21:04Z</time>
      </trkpt>
      <trkpt lat="42.5854" lon="-1.37178">
        <ele>473.1</ele>
        <time>2021-08-04T16:21:15Z</time>
      </trkpt>
      <trkpt lat="42.58474" lon="-1.36984">
        <ele>473.06</ele>
        <time>2021-08-04T16:21:23Z</time>
      </trkpt>
      <trkpt lat="42.58357" lon="-1.36763">
        <ele>471.24</ele>
        <time>2021-08-04T16:21:34Z</time>
      </trkpt>
      <trkpt lat="42.58234" lon="-1.36532">
        <ele>469.78</ele>
        <time>2021-08-04T16:21:46Z</time>
      </trkpt>
    </trkseg>
  </trk>
  <trk>
    <name><![CDATA[Fin]]></name>
    <extensions>
      <line xmlns="http://www.topografix.com/GPX/gpx_style/0/2">
        <color>0000FF</color>
        <width>4</width>
      </line>
    </extensions>
    <trkseg>
      <trkpt lat="42.58343" lon="-1.36291">
        <ele>485.56</ele>
        <time>2021-08-05T07:56:48Z</time>
      </trkpt>
      <trkpt lat="42.58398" lon="-1.36284">
        <ele>489.03</ele>
        <time>2021-08-05T07:56:52Z</time>
      </trkpt>
      <trkpt lat="42.58443" lon="-1.36273">
        <ele>489.81</ele>
        <time>2021-08-05T07:56:55Z</time>
      </trkpt>
      <trkpt lat="42.58507" lon="-1.36278">
        <ele>493.13</ele>
        <time>2021-08-05T07:56:59Z</time>
      </trkpt>
      <trkpt lat="42.5858" lon="-1.363">
        <ele>497.45</ele>
        <time>2021-08-05T07:57:03Z</time>
      </trkpt>
      <trkpt lat="42.58639" lon="-1.3632">
        <ele>500.61</ele>
        <time>2021-08-05T07:57:06Z</time>
      </trkpt>
      <trkpt lat="42.58716" lon="-1.3635">
        <ele>504.19</ele>
        <time>2021-08-05T07:57:10Z</time>
      </trkpt>
      <trkpt lat="42.58817" lon="-1.36389">
        <ele>507.44</ele>
        <time>2021-08-05T07:57:16Z</time>
      </trkpt>
      <trkpt lat="42.58922" lon="-1.36427">
        <ele>508.54</ele>
        <time>2021-08-05T07:57:23Z</time>
      </trkpt>
      <trkpt lat="42.59013" lon="-1.3643">
        <ele>510.32</ele>
        <time>2021-08-05T07:57:31Z</time>
      </trkpt>
      <trkpt lat="42.59016" lon="-1.36429">
        <ele>510.93</ele>
        <time>2021-08-05T07:57:37Z</time>
      </trkpt>
      <trkpt lat="42.59026" lon="-1.36432">
        <ele>511.24</ele>
        <time>2021-08-05T07:57:41Z</time>
      </trkpt>
      <trkpt lat="42.59096" lon="-1.36469">
        <ele>512.33</ele>
        <time>2021-08-05T07:57:49Z</time>
      </trkpt>
      <trkpt lat="42.59218" lon="-1.36528">
        <ele>515.68</ele>
        <time>2021-08-05T07:57:57Z</time>
      </trkpt>
      <trkpt lat="42.59252" lon="-1.36546">
        <ele>516.92</ele>
        <time>2021-08-05T07:57:59Z</time>
      </trkpt>
      <trkpt lat="42.59314" lon="-1.36582">
        <ele>520.12</ele>
        <time>2021-08-05T07:58:03Z</time>
      </trkpt>
      <trkpt lat="42.59342" lon="-1.36594">
        <ele>521.14</ele>
        <time>2021-08-05T07:58:05Z</time>
      </trkpt>
      <trkpt lat="42.59421" lon="-1.36679">
        <ele>523.76</ele>
        <time>2021-08-05T07:58:12Z</time>
      </trkpt>
      <trkpt lat="42.59528" lon="-1.36815">
        <ele>526.96</ele>
        <time>2021-08-05T07:58:20Z</time>
      </trkpt>
      <trkpt lat="42.59634" lon="-1.36942">
        <ele>529.97</ele>
        <time>2021-08-05T07:58:27Z</time>
      </trkpt>
      <trkpt lat="42.59772" lon="-1.37109">
        <ele>532.99</ele>
        <time>2021-08-05T07:58:36Z</time>
      </trkpt>
      <trkpt lat="42.5984" lon="-1.37222">
        <ele>535.81</ele>
        <time>2021-08-05T07:58:42Z</time>
      </trkpt>
      <trkpt lat="42.59893" lon="-1.37329">
        <ele>538.94</ele>
        <time>2021-08-05T07:58:47Z</time>
      </trkpt>
      <trkpt lat="42.59924" lon="-1.37431">
        <ele>542.13</ele>
        <time>2021-08-05T07:58:52Z</time>
      </trkpt>
      <trkpt lat="42.59977" lon="-1.37611">
        <ele>545.36</ele>
        <time>2021-08-05T07:59:01Z</time>
      </trkpt>
      <trkpt lat="42.60027" lon="-1.37778">
        <ele>548.71</ele>
        <time>2021-08-05T07:59:08Z</time>
      </trkpt>
      <trkpt lat="42.60057" lon="-1.3788">
        <ele>551.76</ele>
        <time>2021-08-05T07:59:12Z</time>
      </trkpt>
      <trkpt lat="42.60087" lon="-1.37985">
        <ele>555.12</ele>
        <time>2021-08-05T07:59:16Z</time>
      </trkpt>
      <trkpt lat="42.60117" lon="-1.38093">
        <ele>558.5</ele>
        <time>2021-08-05T07:59:20Z</time>
      </trkpt>
      <trkpt lat="42.60144" lon="-1.38187">
        <ele>561.58</ele>
        <time>2021-08-05T07:59:24Z</time>
      </trkpt>
      <trkpt lat="42.6015" lon="-1.38208">
        <ele>562.17</ele>
        <time>2021-08-05T07:59:25Z</time>
      </trkpt>
      <trkpt lat="42.60149" lon="-1.38288">
        <ele>564.48</ele>
        <time>2021-08-05T07:59:29Z</time>
      </trkpt>
      <trkpt lat="42.60143" lon="-1.38324">
        <ele>565.54</ele>
        <time>2021-08-05T07:59:31Z</time>
      </trkpt>
      <trkpt lat="42.60165" lon="-1.38426">
        <ele>567.9</ele>
        <time>2021-08-05T07:59:37Z</time>
      </trkpt>
      <trkpt lat="42.6022" lon="-1.38474">
        <ele>568.36</ele>
        <time>2021-08-05T07:59:42Z</time>
      </trkpt>
      <trkpt lat="42.60237" lon="-1.38523">
        <ele>567.89</ele>
        <time>2021-08-05T07:59:45Z</time>
      </trkpt>
      <trkpt lat="42.60283" lon="-1.38744">
        <ele>565.5</ele>
        <time>2021-08-05T07:59:55Z</time>
      </trkpt>
      <trkpt lat="42.60296" lon="-1.38834">
        <ele>565.04</ele>
        <time>2021-08-05T07:59:59Z</time>
      </trkpt>
      <trkpt lat="42.60276" lon="-1.38982">
        <ele>565.06</ele>
        <time>2021-08-05T08:00:06Z</time>
      </trkpt>
      <trkpt lat="42.60263" lon="-1.39123">
        <ele>566</ele>
        <time>2021-08-05T08:00:13Z</time>
      </trkpt>
      <trkpt lat="42.60301" lon="-1.39186">
        <ele>565.57</ele>
        <time>2021-08-05T08:00:19Z</time>
      </trkpt>
      <trkpt lat="42.60331" lon="-1.39203">
        <ele>565.3</ele>
        <time>2021-08-05T08:00:22Z</time>
      </trkpt>
      <trkpt lat="42.60363" lon="-1.39247">
        <ele>564.81</ele>
        <time>2021-08-05T08:00:26Z</time>
      </trkpt>
      <trkpt lat="42.60438" lon="-1.39419">
        <ele>565.24</ele>
        <time>2021-08-05T08:00:36Z</time>
      </trkpt>
      <trkpt lat="42.60476" lon="-1.3954">
        <ele>566.93</ele>
        <time>2021-08-05T08:00:43Z</time>
      </trkpt>
      <trkpt lat="42.6053" lon="-1.39798">
        <ele>570.08</ele>
        <time>2021-08-05T08:00:55Z</time>
      </trkpt>
      <trkpt lat="42.60582" lon="-1.39999">
        <ele>573.12</ele>
        <time>2021-08-05T08:01:05Z</time>
      </trkpt>
      <trkpt lat="42.60627" lon="-1.40131">
        <ele>576.4</ele>
        <time>2021-08-05T08:01:13Z</time>
      </trkpt>
      <trkpt lat="42.60672" lon="-1.40269">
        <ele>579.85</ele>
        <time>2021-08-05T08:01:21Z</time>
      </trkpt>
      <trkpt lat="42.60703" lon="-1.40363">
        <ele>582.96</ele>
        <time>2021-08-05T08:01:27Z</time>
      </trkpt>
      <trkpt lat="42.6071" lon="-1.40388">
        <ele>584.07</ele>
        <time>2021-08-05T08:01:29Z</time>
      </trkpt>
      <trkpt lat="42.60701" lon="-1.40462">
        <ele>586.56</ele>
        <time>2021-08-05T08:01:35Z</time>
      </trkpt>
      <trkpt lat="42.60695" lon="-1.40472">
        <ele>586.94</ele>
        <time>2021-08-05T08:01:36Z</time>
      </trkpt>
      <trkpt lat="42.60683" lon="-1.40489">
        <ele>587.57</ele>
        <time>2021-08-05T08:01:38Z</time>
      </trkpt>
      <trkpt lat="42.60678" lon="-1.40544">
        <ele>589.49</ele>
        <time>2021-08-05T08:01:44Z</time>
      </trkpt>
      <trkpt lat="42.6071" lon="-1.40669">
        <ele>591.68</ele>
        <time>2021-08-05T08:01:56Z</time>
      </trkpt>
      <trkpt lat="42.60712" lon="-1.40682">
        <ele>591.81</ele>
        <time>2021-08-05T08:01:58Z</time>
      </trkpt>
      <trkpt lat="42.6071" lon="-1.40707">
        <ele>591.77</ele>
        <time>2021-08-05T08:02:08Z</time>
      </trkpt>
      <trkpt lat="42.60704" lon="-1.40735">
        <ele>592.01</ele>
        <time>2021-08-05T08:02:19Z</time>
      </trkpt>
      <trkpt lat="42.60702" lon="-1.40786">
        <ele>593.17</ele>
        <time>2021-08-05T08:02:34Z</time>
      </trkpt>
      <trkpt lat="42.60703" lon="-1.40824">
        <ele>593.52</ele>
        <time>2021-08-05T08:02:43Z</time>
      </trkpt>
      <trkpt lat="42.60712" lon="-1.40828">
        <ele>593.33</ele>
        <time>2021-08-05T08:02:47Z</time>
      </trkpt>
      <trkpt lat="42.60777" lon="-1.40842">
        <ele>595.54</ele>
        <time>2021-08-05T08:02:57Z</time>
      </trkpt>
      <trkpt lat="42.60806" lon="-1.40846">
        <ele>598.8</ele>
        <time>2021-08-05T08:03:05Z</time>
      </trkpt>
      <trkpt lat="42.60813" lon="-1.40844">
        <ele>599.81</ele>
        <time>2021-08-05T08:03:08Z</time>
      </trkpt>
      <trkpt lat="42.60828" lon="-1.40822">
        <ele>601.88</ele>
        <time>2021-08-05T08:03:15Z</time>
      </trkpt>
      <trkpt lat="42.60842" lon="-1.40815">
        <ele>602.23</ele>
        <time>2021-08-05T08:03:18Z</time>
      </trkpt>
      <trkpt lat="42.6086" lon="-1.40795">
        <ele>603.26</ele>
        <time>2021-08-05T08:03:25Z</time>
      </trkpt>
      <trkpt lat="42.60853" lon="-1.40757">
        <ele>603.05</ele>
        <time>2021-08-05T08:03:30Z</time>
      </trkpt>
      <trkpt lat="42.60836" lon="-1.40722">
        <ele>602.14</ele>
        <time>2021-08-05T08:03:35Z</time>
      </trkpt>
      <trkpt lat="42.60845" lon="-1.40711">
        <ele>600.9</ele>
        <time>2021-08-05T08:03:39Z</time>
      </trkpt>
      <trkpt lat="42.60869" lon="-1.40686">
        <ele>600.82</ele>
        <time>2021-08-05T08:03:48Z</time>
      </trkpt>
      <trkpt lat="42.60874" lon="-1.40637">
        <ele>603.04</ele>
        <time>2021-08-05T08:03:58Z</time>
      </trkpt>
      <trkpt lat="42.60914" lon="-1.40599">
        <ele>604.49</ele>
        <time>2021-08-05T08:04:05Z</time>
      </trkpt>
      <trkpt lat="42.60988" lon="-1.40536">
        <ele>607.93</ele>
        <time>2021-08-05T08:04:13Z</time>
      </trkpt>
      <trkpt lat="42.61043" lon="-1.40491">
        <ele>611.11</ele>
        <time>2021-08-05T08:04:18Z</time>
      </trkpt>
      <trkpt lat="42.61093" lon="-1.40438">
        <ele>614.83</ele>
        <time>2021-08-05T08:04:23Z</time>
      </trkpt>
      <trkpt lat="42.61128" lon="-1.40404">
        <ele>617.78</ele>
        <time>2021-08-05T08:04:27Z</time>
      </trkpt>
      <trkpt lat="42.6117" lon="-1.40385">
        <ele>621.2</ele>
        <time>2021-08-05T08:04:31Z</time>
      </trkpt>
      <trkpt lat="42.61227" lon="-1.40375">
        <ele>627.3</ele>
        <time>2021-08-05T08:04:36Z</time>
      </trkpt>
      <trkpt lat="42.61259" lon="-1.4037">
        <ele>630.32</ele>
        <time>2021-08-05T08:04:39Z</time>
      </trkpt>
      <trkpt lat="42.61307" lon="-1.40364">
        <ele>634.02</ele>
        <time>2021-08-05T08:04:43Z</time>
      </trkpt>
      <trkpt lat="42.61332" lon="-1.40359">
        <ele>635.89</ele>
        <time>2021-08-05T08:04:45Z</time>
      </trkpt>
      <trkpt lat="42.61378" lon="-1.40369">
        <ele>639.22</ele>
        <time>2021-08-05T08:04:49Z</time>
      </trkpt>
      <trkpt lat="42.61421" lon="-1.40399">
        <ele>642.96</ele>
        <time>2021-08-05T08:04:53Z</time>
      </trkpt>
      <trkpt lat="42.61471" lon="-1.40418">
        <ele>647.47</ele>
        <time>2021-08-05T08:04:57Z</time>
      </trkpt>
      <trkpt lat="42.61484" lon="-1.40421">
        <ele>648.73</ele>
        <time>2021-08-05T08:04:58Z</time>
      </trkpt>
      <trkpt lat="42.61535" lon="-1.40417">
        <ele>653.91</ele>
        <time>2021-08-05T08:05:02Z</time>
      </trkpt>
      <trkpt lat="42.61571" lon="-1.40402">
        <ele>658.17</ele>
        <time>2021-08-05T08:05:05Z</time>
      </trkpt>
      <trkpt lat="42.61603" lon="-1.40386">
        <ele>662.67</ele>
        <time>2021-08-05T08:05:08Z</time>
      </trkpt>
      <trkpt lat="42.61622" lon="-1.40376">
        <ele>665.8</ele>
        <time>2021-08-05T08:05:10Z</time>
      </trkpt>
      <trkpt lat="42.6164" lon="-1.40366">
        <ele>668.81</ele>
        <time>2021-08-05T08:05:12Z</time>
      </trkpt>
      <trkpt lat="42.61665" lon="-1.40351">
        <ele>673.12</ele>
        <time>2021-08-05T08:05:15Z</time>
      </trkpt>
      <trkpt lat="42.61691" lon="-1.40336">
        <ele>677.05</ele>
        <time>2021-08-05T08:05:18Z</time>
      </trkpt>
      <trkpt lat="42.61722" lon="-1.40321">
        <ele>680.59</ele>
        <time>2021-08-05T08:05:21Z</time>
      </trkpt>
      <trkpt lat="42.61744" lon="-1.40308">
        <ele>682.68</ele>
        <time>2021-08-05T08:05:23Z</time>
      </trkpt>
      <trkpt lat="42.61788" lon="-1.40302">
        <ele>687.7</ele>
        <time>2021-08-05T08:05:27Z</time>
      </trkpt>
      <trkpt lat="42.61814" lon="-1.40324">
        <ele>691.55</ele>
        <time>2021-08-05T08:05:30Z</time>
      </trkpt>
      <trkpt lat="42.61845" lon="-1.40355">
        <ele>697.1</ele>
        <time>2021-08-05T08:05:34Z</time>
      </trkpt>
      <trkpt lat="42.61846" lon="-1.40376">
        <ele>702.32</ele>
        <time>2021-08-05T08:05:38Z</time>
      </trkpt>
      <trkpt lat="42.61837" lon="-1.40379">
        <ele>703.5</ele>
        <time>2021-08-05T08:05:39Z</time>
      </trkpt>
      <trkpt lat="42.61817" lon="-1.40383">
        <ele>705.63</ele>
        <time>2021-08-05T08:05:41Z</time>
      </trkpt>
      <trkpt lat="42.6176" lon="-1.40427">
        <ele>709.7</ele>
        <time>2021-08-05T08:05:46Z</time>
      </trkpt>
      <trkpt lat="42.61745" lon="-1.40476">
        <ele>711.56</ele>
        <time>2021-08-05T08:05:49Z</time>
      </trkpt>
      <trkpt lat="42.61722" lon="-1.40554">
        <ele>715.6</ele>
        <time>2021-08-05T08:05:54Z</time>
      </trkpt>
      <trkpt lat="42.617" lon="-1.40615">
        <ele>721.06</ele>
        <time>2021-08-05T08:05:59Z</time>
      </trkpt>
      <trkpt lat="42.61706" lon="-1.40647">
        <ele>724.22</ele>
        <time>2021-08-05T08:06:02Z</time>
      </trkpt>
      <trkpt lat="42.61713" lon="-1.4066">
        <ele>726.27</ele>
        <time>2021-08-05T08:06:04Z</time>
      </trkpt>
      <trkpt lat="42.61729" lon="-1.40684">
        <ele>730.8</ele>
        <time>2021-08-05T08:06:09Z</time>
      </trkpt>
      <trkpt lat="42.61744" lon="-1.40711">
        <ele>734.14</ele>
        <time>2021-08-05T08:06:13Z</time>
      </trkpt>
      <trkpt lat="42.61755" lon="-1.40731">
        <ele>737.57</ele>
        <time>2021-08-05T08:06:16Z</time>
      </trkpt>
      <trkpt lat="42.61771" lon="-1.4076">
        <ele>740.7</ele>
        <time>2021-08-05T08:06:20Z</time>
      </trkpt>
      <trkpt lat="42.61785" lon="-1.40783">
        <ele>743.22</ele>
        <time>2021-08-05T08:06:23Z</time>
      </trkpt>
      <trkpt lat="42.61805" lon="-1.4081">
        <ele>747.43</ele>
        <time>2021-08-05T08:06:28Z</time>
      </trkpt>
      <trkpt lat="42.61805" lon="-1.40798">
        <ele>748.95</ele>
        <time>2021-08-05T08:06:30Z</time>
      </trkpt>
      <trkpt lat="42.61798" lon="-1.40738">
        <ele>752.64</ele>
        <time>2021-08-05T08:06:35Z</time>
      </trkpt>
      <trkpt lat="42.61802" lon="-1.40696">
        <ele>754.94</ele>
        <time>2021-08-05T08:06:38Z</time>
      </trkpt>
      <trkpt lat="42.61808" lon="-1.40629">
        <ele>759.21</ele>
        <time>2021-08-05T08:06:43Z</time>
      </trkpt>
      <trkpt lat="42.61839" lon="-1.406">
        <ele>763.16</ele>
        <time>2021-08-05T08:06:47Z</time>
      </trkpt>
      <trkpt lat="42.61873" lon="-1.40596">
        <ele>766.34</ele>
        <time>2021-08-05T08:06:50Z</time>
      </trkpt>
      <trkpt lat="42.61884" lon="-1.40597">
        <ele>767.47</ele>
        <time>2021-08-05T08:06:51Z</time>
      </trkpt>
      <trkpt lat="42.61925" lon="-1.40602">
        <ele>772.03</ele>
        <time>2021-08-05T08:06:55Z</time>
      </trkpt>
      <trkpt lat="42.61956" lon="-1.40604">
        <ele>775.2</ele>
        <time>2021-08-05T08:06:58Z</time>
      </trkpt>
      <trkpt lat="42.61989" lon="-1.40611">
        <ele>778.61</ele>
        <time>2021-08-05T08:07:01Z</time>
      </trkpt>
      <trkpt lat="42.62001" lon="-1.40613">
        <ele>779.65</ele>
        <time>2021-08-05T08:07:02Z</time>
      </trkpt>
      <trkpt lat="42.62038" lon="-1.4061">
        <ele>783.42</ele>
        <time>2021-08-05T08:07:06Z</time>
      </trkpt>
      <trkpt lat="42.62063" lon="-1.40608">
        <ele>787.8</ele>
        <time>2021-08-05T08:07:11Z</time>
      </trkpt>
      <trkpt lat="42.62082" lon="-1.40608">
        <ele>790.19</ele>
        <time>2021-08-05T08:07:14Z</time>
      </trkpt>
      <trkpt lat="42.6211" lon="-1.40612">
        <ele>792.58</ele>
        <time>2021-08-05T08:07:17Z</time>
      </trkpt>
      <trkpt lat="42.6216" lon="-1.40611">
        <ele>797.13</ele>
        <time>2021-08-05T08:07:22Z</time>
      </trkpt>
      <trkpt lat="42.62205" lon="-1.40612">
        <ele>801.02</ele>
        <time>2021-08-05T08:07:26Z</time>
      </trkpt>
      <trkpt lat="42.62254" lon="-1.40617">
        <ele>805.11</ele>
        <time>2021-08-05T08:07:30Z</time>
      </trkpt>
      <trkpt lat="42.62288" lon="-1.40622">
        <ele>808.99</ele>
        <time>2021-08-05T08:07:33Z</time>
      </trkpt>
      <trkpt lat="42.62297" lon="-1.40623">
        <ele>810.31</ele>
        <time>2021-08-05T08:07:34Z</time>
      </trkpt>
      <trkpt lat="42.62334" lon="-1.40616">
        <ele>815.19</ele>
        <time>2021-08-05T08:07:38Z</time>
      </trkpt>
      <trkpt lat="42.62344" lon="-1.40614">
        <ele>816.27</ele>
        <time>2021-08-05T08:07:39Z</time>
      </trkpt>
      <trkpt lat="42.62369" lon="-1.40574">
        <ele>820.53</ele>
        <time>2021-08-05T08:07:43Z</time>
      </trkpt>
      <trkpt lat="42.62368" lon="-1.40541">
        <ele>822.64</ele>
        <time>2021-08-05T08:07:45Z</time>
      </trkpt>
      <trkpt lat="42.62357" lon="-1.40459">
        <ele>827.23</ele>
        <time>2021-08-05T08:07:50Z</time>
      </trkpt>
      <trkpt lat="42.62347" lon="-1.40381">
        <ele>830.56</ele>
        <time>2021-08-05T08:07:54Z</time>
      </trkpt>
      <trkpt lat="42.6234" lon="-1.40342">
        <ele>831.71</ele>
        <time>2021-08-05T08:07:56Z</time>
      </trkpt>
      <trkpt lat="42.62347" lon="-1.4031">
        <ele>833.68</ele>
        <time>2021-08-05T08:08:00Z</time>
      </trkpt>
      <trkpt lat="42.62347" lon="-1.40315">
        <ele>835.8</ele>
        <time>2021-08-05T08:08:10Z</time>
      </trkpt>
      <trkpt lat="42.62345" lon="-1.40318">
        <ele>835.85</ele>
        <time>2021-08-05T08:08:26Z</time>
      </trkpt>
      <trkpt lat="42.62345" lon="-1.40318">
        <ele>835.79</ele>
        <time>2021-08-05T08:08:29Z</time>
      </trkpt>
      <trkpt lat="42.62373" lon="-1.40332">
        <ele>836.09</ele>
        <time>2021-08-05T08:08:35Z</time>
      </trkpt>
      <trkpt lat="42.62385" lon="-1.40354">
        <ele>836.64</ele>
        <time>2021-08-05T08:08:37Z</time>
      </trkpt>
      <trkpt lat="42.62422" lon="-1.40439">
        <ele>840.19</ele>
        <time>2021-08-05T08:08:43Z</time>
      </trkpt>
      <trkpt lat="42.62437" lon="-1.40472">
        <ele>842.01</ele>
        <time>2021-08-05T08:08:45Z</time>
      </trkpt>
      <trkpt lat="42.62492" lon="-1.40557">
        <ele>846.67</ele>
        <time>2021-08-05T08:08:50Z</time>
      </trkpt>
      <trkpt lat="42.6253" lon="-1.40632">
        <ele>850.53</ele>
        <time>2021-08-05T08:08:54Z</time>
      </trkpt>
      <trkpt lat="42.62555" lon="-1.40687">
        <ele>854.12</ele>
        <time>2021-08-05T08:08:57Z</time>
      </trkpt>
      <trkpt lat="42.62582" lon="-1.40735">
        <ele>858.48</ele>
        <time>2021-08-05T08:09:00Z</time>
      </trkpt>
      <trkpt lat="42.62596" lon="-1.4076">
        <ele>861.68</ele>
        <time>2021-08-05T08:09:02Z</time>
      </trkpt>
      <trkpt lat="42.62624" lon="-1.40774">
        <ele>866.32</ele>
        <time>2021-08-05T08:09:05Z</time>
      </trkpt>
      <trkpt lat="42.62656" lon="-1.40759">
        <ele>870.18</ele>
        <time>2021-08-05T08:09:08Z</time>
      </trkpt>
      <trkpt lat="42.62677" lon="-1.4076">
        <ele>872.18</ele>
        <time>2021-08-05T08:09:10Z</time>
      </trkpt>
      <trkpt lat="42.62765" lon="-1.40788">
        <ele>876.19</ele>
        <time>2021-08-05T08:09:16Z</time>
      </trkpt>
      <trkpt lat="42.62814" lon="-1.40815">
        <ele>877.37</ele>
        <time>2021-08-05T08:09:19Z</time>
      </trkpt>
      <trkpt lat="42.62888" lon="-1.40858">
        <ele>878</ele>
        <time>2021-08-05T08:09:25Z</time>
      </trkpt>
      <trkpt lat="42.62937" lon="-1.40896">
        <ele>878.1</ele>
        <time>2021-08-05T08:09:29Z</time>
      </trkpt>
      <trkpt lat="42.62958" lon="-1.4093">
        <ele>878.63</ele>
        <time>2021-08-05T08:09:31Z</time>
      </trkpt>
      <trkpt lat="42.63006" lon="-1.41023">
        <ele>881.55</ele>
        <time>2021-08-05T08:09:36Z</time>
      </trkpt>
      <trkpt lat="42.6308" lon="-1.41098">
        <ele>885.67</ele>
        <time>2021-08-05T08:09:42Z</time>
      </trkpt>
      <trkpt lat="42.63089" lon="-1.41108">
        <ele>886.05</ele>
        <time>2021-08-05T08:09:43Z</time>
      </trkpt>
      <trkpt lat="42.6315" lon="-1.41128">
        <ele>885.75</ele>
        <time>2021-08-05T08:09:49Z</time>
      </trkpt>
      <trkpt lat="42.63156" lon="-1.4113">
        <ele>885.29</ele>
        <time>2021-08-05T08:09:50Z</time>
      </trkpt>
      <trkpt lat="42.63186" lon="-1.41155">
        <ele>881.5</ele>
        <time>2021-08-05T08:09:57Z</time>
      </trkpt>
      <trkpt lat="42.6321" lon="-1.41173">
        <ele>879.47</ele>
        <time>2021-08-05T08:10:07Z</time>
      </trkpt>
      <trkpt lat="42.63245" lon="-1.41214">
        <ele>879.22</ele>
        <time>2021-08-05T08:10:13Z</time>
      </trkpt>
      <trkpt lat="42.6331" lon="-1.41218">
        <ele>878.59</ele>
        <time>2021-08-05T08:10:19Z</time>
      </trkpt>
      <trkpt lat="42.63431" lon="-1.41117">
        <ele>880.08</ele>
        <time>2021-08-05T08:10:27Z</time>
      </trkpt>
      <trkpt lat="42.63476" lon="-1.41081">
        <ele>882.03</ele>
        <time>2021-08-05T08:10:30Z</time>
      </trkpt>
      <trkpt lat="42.63536" lon="-1.41062">
        <ele>885.85</ele>
        <time>2021-08-05T08:10:34Z</time>
      </trkpt>
      <trkpt lat="42.63581" lon="-1.41064">
        <ele>888.2</ele>
        <time>2021-08-05T08:10:37Z</time>
      </trkpt>
      <trkpt lat="42.63603" lon="-1.41054">
        <ele>888.87</ele>
        <time>2021-08-05T08:10:39Z</time>
      </trkpt>
      <trkpt lat="42.63618" lon="-1.41029">
        <ele>889.32</ele>
        <time>2021-08-05T08:10:41Z</time>
      </trkpt>
      <trkpt lat="42.63654" lon="-1.40964">
        <ele>892.18</ele>
        <time>2021-08-05T08:10:46Z</time>
      </trkpt>
      <trkpt lat="42.63686" lon="-1.40972">
        <ele>896.26</ele>
        <time>2021-08-05T08:10:51Z</time>
      </trkpt>
      <trkpt lat="42.63704" lon="-1.41007">
        <ele>897.75</ele>
        <time>2021-08-05T08:10:54Z</time>
      </trkpt>
      <trkpt lat="42.63742" lon="-1.4099">
        <ele>899.3</ele>
        <time>2021-08-05T08:10:59Z</time>
      </trkpt>
      <trkpt lat="42.63768" lon="-1.40987">
        <ele>899.69</ele>
        <time>2021-08-05T08:11:01Z</time>
      </trkpt>
      <trkpt lat="42.63805" lon="-1.40988">
        <ele>897.71</ele>
        <time>2021-08-05T08:11:07Z</time>
      </trkpt>
      <trkpt lat="42.63806" lon="-1.40988">
        <ele>894.44</ele>
        <time>2021-08-05T08:11:13Z</time>
      </trkpt>
      <trkpt lat="42.63806" lon="-1.40988">
        <ele>893.46</ele>
        <time>2021-08-05T08:11:15Z</time>
      </trkpt>
      <trkpt lat="42.63807" lon="-1.40989">
        <ele>892.53</ele>
        <time>2021-08-05T08:11:32Z</time>
      </trkpt>
      <trkpt lat="42.63823" lon="-1.40991">
        <ele>892.59</ele>
        <time>2021-08-05T08:11:36Z</time>
      </trkpt>
      <trkpt lat="42.63872" lon="-1.40991">
        <ele>892.53</ele>
        <time>2021-08-05T08:11:40Z</time>
      </trkpt>
      <trkpt lat="42.63914" lon="-1.41009">
        <ele>892.02</ele>
        <time>2021-08-05T08:11:43Z</time>
      </trkpt>
      <trkpt lat="42.63998" lon="-1.41003">
        <ele>891.26</ele>
        <time>2021-08-05T08:11:49Z</time>
      </trkpt>
      <trkpt lat="42.64022" lon="-1.40974">
        <ele>891.82</ele>
        <time>2021-08-05T08:11:51Z</time>
      </trkpt>
      <trkpt lat="42.64058" lon="-1.40914">
        <ele>895.18</ele>
        <time>2021-08-05T08:11:55Z</time>
      </trkpt>
      <trkpt lat="42.64083" lon="-1.40889">
        <ele>900.12</ele>
        <time>2021-08-05T08:11:59Z</time>
      </trkpt>
      <trkpt lat="42.6409" lon="-1.40888">
        <ele>901.35</ele>
        <time>2021-08-05T08:12:00Z</time>
      </trkpt>
      <trkpt lat="42.64105" lon="-1.40882">
        <ele>905.67</ele>
        <time>2021-08-05T08:12:05Z</time>
      </trkpt>
      <trkpt lat="42.64105" lon="-1.40883">
        <ele>908.8</ele>
        <time>2021-08-05T08:12:14Z</time>
      </trkpt>
      <trkpt lat="42.6411" lon="-1.4088">
        <ele>909.88</ele>
        <time>2021-08-05T08:16:44Z</time>
      </trkpt>
      <trkpt lat="42.64131" lon="-1.40884">
        <ele>910.44</ele>
        <time>2021-08-05T08:16:49Z</time>
      </trkpt>
      <trkpt lat="42.6414" lon="-1.40889">
        <ele>910.61</ele>
        <time>2021-08-05T08:16:51Z</time>
      </trkpt>
      <trkpt lat="42.64216" lon="-1.40911">
        <ele>907.05</ele>
        <time>2021-08-05T08:17:01Z</time>
      </trkpt>
      <trkpt lat="42.64225" lon="-1.40915">
        <ele>906.28</ele>
        <time>2021-08-05T08:17:02Z</time>
      </trkpt>
      <trkpt lat="42.64258" lon="-1.40953">
        <ele>902.15</ele>
        <time>2021-08-05T08:17:07Z</time>
      </trkpt>
      <trkpt lat="42.64279" lon="-1.41005">
        <ele>897.88</ele>
        <time>2021-08-05T08:17:13Z</time>
      </trkpt>
      <trkpt lat="42.6428" lon="-1.41007">
        <ele>894.55</ele>
        <time>2021-08-05T08:17:18Z</time>
      </trkpt>
      <trkpt lat="42.6428" lon="-1.41007">
        <ele>891.48</ele>
        <time>2021-08-05T08:17:33Z</time>
      </trkpt>
      <trkpt lat="42.64294" lon="-1.4104">
        <ele>890.94</ele>
        <time>2021-08-05T08:17:46Z</time>
      </trkpt>
      <trkpt lat="42.64315" lon="-1.41088">
        <ele>888.24</ele>
        <time>2021-08-05T08:17:51Z</time>
      </trkpt>
      <trkpt lat="42.64341" lon="-1.41127">
        <ele>884.26</ele>
        <time>2021-08-05T08:17:55Z</time>
      </trkpt>
      <trkpt lat="42.64353" lon="-1.41146">
        <ele>881.97</ele>
        <time>2021-08-05T08:17:57Z</time>
      </trkpt>
      <trkpt lat="42.64383" lon="-1.4117">
        <ele>876.6</ele>
        <time>2021-08-05T08:18:01Z</time>
      </trkpt>
      <trkpt lat="42.64392" lon="-1.41173">
        <ele>875.08</ele>
        <time>2021-08-05T08:18:02Z</time>
      </trkpt>
      <trkpt lat="42.6443" lon="-1.41188">
        <ele>869.33</ele>
        <time>2021-08-05T08:18:06Z</time>
      </trkpt>
      <trkpt lat="42.64458" lon="-1.412">
        <ele>865.34</ele>
        <time>2021-08-05T08:18:09Z</time>
      </trkpt>
      <trkpt lat="42.64468" lon="-1.41203">
        <ele>864.02</ele>
        <time>2021-08-05T08:18:10Z</time>
      </trkpt>
      <trkpt lat="42.64505" lon="-1.41207">
        <ele>858.55</ele>
        <time>2021-08-05T08:18:14Z</time>
      </trkpt>
      <trkpt lat="42.64536" lon="-1.41181">
        <ele>853.22</ele>
        <time>2021-08-05T08:18:18Z</time>
      </trkpt>
      <trkpt lat="42.64542" lon="-1.41166">
        <ele>851.96</ele>
        <time>2021-08-05T08:18:19Z</time>
      </trkpt>
      <trkpt lat="42.64562" lon="-1.41108">
        <ele>847.39</ele>
        <time>2021-08-05T08:18:23Z</time>
      </trkpt>
      <trkpt lat="42.64576" lon="-1.41065">
        <ele>844.43</ele>
        <time>2021-08-05T08:18:26Z</time>
      </trkpt>
      <trkpt lat="42.64604" lon="-1.41018">
        <ele>839.85</ele>
        <time>2021-08-05T08:18:31Z</time>
      </trkpt>
      <trkpt lat="42.64621" lon="-1.41011">
        <ele>838.35</ele>
        <time>2021-08-05T08:18:33Z</time>
      </trkpt>
      <trkpt lat="42.64661" lon="-1.41006">
        <ele>835.93</ele>
        <time>2021-08-05T08:18:37Z</time>
      </trkpt>
      <trkpt lat="42.64715" lon="-1.41015">
        <ele>833.29</ele>
        <time>2021-08-05T08:18:43Z</time>
      </trkpt>
      <trkpt lat="42.64728" lon="-1.41081">
        <ele>832.37</ele>
        <time>2021-08-05T08:18:49Z</time>
      </trkpt>
      <trkpt lat="42.64724" lon="-1.41111">
        <ele>831.94</ele>
        <time>2021-08-05T08:18:51Z</time>
      </trkpt>
      <trkpt lat="42.6472" lon="-1.41149">
        <ele>830.81</ele>
        <time>2021-08-05T08:18:54Z</time>
      </trkpt>
      <trkpt lat="42.64683" lon="-1.41187">
        <ele>829.14</ele>
        <time>2021-08-05T08:19:00Z</time>
      </trkpt>
      <trkpt lat="42.64675" lon="-1.4119">
        <ele>828.87</ele>
        <time>2021-08-05T08:19:01Z</time>
      </trkpt>
      <trkpt lat="42.64667" lon="-1.41195">
        <ele>828.57</ele>
        <time>2021-08-05T08:19:02Z</time>
      </trkpt>
      <trkpt lat="42.6466" lon="-1.41203">
        <ele>828.22</ele>
        <time>2021-08-05T08:19:03Z</time>
      </trkpt>
      <trkpt lat="42.64664" lon="-1.41256">
        <ele>826.08</ele>
        <time>2021-08-05T08:19:07Z</time>
      </trkpt>
      <trkpt lat="42.64723" lon="-1.41317">
        <ele>822.79</ele>
        <time>2021-08-05T08:19:13Z</time>
      </trkpt>
      <trkpt lat="42.64777" lon="-1.41314">
        <ele>819.53</ele>
        <time>2021-08-05T08:19:17Z</time>
      </trkpt>
      <trkpt lat="42.64834" lon="-1.41292">
        <ele>815.37</ele>
        <time>2021-08-05T08:19:21Z</time>
      </trkpt>
      <trkpt lat="42.64874" lon="-1.41272">
        <ele>810.59</ele>
        <time>2021-08-05T08:19:24Z</time>
      </trkpt>
      <trkpt lat="42.64887" lon="-1.41264">
        <ele>810.59</ele>
        <time>2021-08-05T08:19:25Z</time>
      </trkpt>
      <trkpt lat="42.64913" lon="-1.41248">
        <ele>808.12</ele>
        <time>2021-08-05T08:19:27Z</time>
      </trkpt>
      <trkpt lat="42.64936" lon="-1.41229">
        <ele>804.38</ele>
        <time>2021-08-05T08:19:29Z</time>
      </trkpt>
      <trkpt lat="42.64969" lon="-1.41199">
        <ele>800.42</ele>
        <time>2021-08-05T08:19:32Z</time>
      </trkpt>
      <trkpt lat="42.6499" lon="-1.41178">
        <ele>797.83</ele>
        <time>2021-08-05T08:19:34Z</time>
      </trkpt>
      <trkpt lat="42.65024" lon="-1.41125">
        <ele>792.63</ele>
        <time>2021-08-05T08:19:38Z</time>
      </trkpt>
      <trkpt lat="42.65042" lon="-1.4108">
        <ele>788.56</ele>
        <time>2021-08-05T08:19:41Z</time>
      </trkpt>
      <trkpt lat="42.65056" lon="-1.41038">
        <ele>784.89</ele>
        <time>2021-08-05T08:19:44Z</time>
      </trkpt>
      <trkpt lat="42.65067" lon="-1.4101">
        <ele>781.35</ele>
        <time>2021-08-05T08:19:47Z</time>
      </trkpt>
      <trkpt lat="42.65077" lon="-1.40994">
        <ele>779.39</ele>
        <time>2021-08-05T08:19:49Z</time>
      </trkpt>
      <trkpt lat="42.65089" lon="-1.4098">
        <ele>777.63</ele>
        <time>2021-08-05T08:19:51Z</time>
      </trkpt>
      <trkpt lat="42.6512" lon="-1.40907">
        <ele>773.39</ele>
        <time>2021-08-05T08:19:58Z</time>
      </trkpt>
      <trkpt lat="42.65183" lon="-1.40824">
        <ele>770.36</ele>
        <time>2021-08-05T08:20:08Z</time>
      </trkpt>
      <trkpt lat="42.65191" lon="-1.40815">
        <ele>770.39</ele>
        <time>2021-08-05T08:20:09Z</time>
      </trkpt>
      <trkpt lat="42.65245" lon="-1.40796">
        <ele>772.52</ele>
        <time>2021-08-05T08:20:15Z</time>
      </trkpt>
      <trkpt lat="42.65293" lon="-1.40789">
        <ele>776.25</ele>
        <time>2021-08-05T08:20:23Z</time>
      </trkpt>
      <trkpt lat="42.65353" lon="-1.4071">
        <ele>779.73</ele>
        <time>2021-08-05T08:20:33Z</time>
      </trkpt>
      <trkpt lat="42.65406" lon="-1.40657">
        <ele>779.75</ele>
        <time>2021-08-05T08:20:39Z</time>
      </trkpt>
      <trkpt lat="42.65442" lon="-1.4059">
        <ele>776.28</ele>
        <time>2021-08-05T08:20:45Z</time>
      </trkpt>
      <trkpt lat="42.65466" lon="-1.40539">
        <ele>772.85</ele>
        <time>2021-08-05T08:20:49Z</time>
      </trkpt>
      <trkpt lat="42.6548" lon="-1.40497">
        <ele>769.71</ele>
        <time>2021-08-05T08:20:52Z</time>
      </trkpt>
      <trkpt lat="42.65496" lon="-1.40459">
        <ele>765.94</ele>
        <time>2021-08-05T08:20:55Z</time>
      </trkpt>
      <trkpt lat="42.65523" lon="-1.40417">
        <ele>759.79</ele>
        <time>2021-08-05T08:20:59Z</time>
      </trkpt>
      <trkpt lat="42.6553" lon="-1.40406">
        <ele>759.79</ele>
        <time>2021-08-05T08:21:00Z</time>
      </trkpt>
      <trkpt lat="42.65548" lon="-1.40376">
        <ele>756.35</ele>
        <time>2021-08-05T08:21:03Z</time>
      </trkpt>
      <trkpt lat="42.65567" lon="-1.40349">
        <ele>752.8</ele>
        <time>2021-08-05T08:21:06Z</time>
      </trkpt>
      <trkpt lat="42.65586" lon="-1.40323">
        <ele>747.94</ele>
        <time>2021-08-05T08:21:09Z</time>
      </trkpt>
      <trkpt lat="42.65601" lon="-1.40302">
        <ele>744.27</ele>
        <time>2021-08-05T08:21:12Z</time>
      </trkpt>
      <trkpt lat="42.65613" lon="-1.40288">
        <ele>740.67</ele>
        <time>2021-08-05T08:21:15Z</time>
      </trkpt>
      <trkpt lat="42.6562" lon="-1.40286">
        <ele>738.32</ele>
        <time>2021-08-05T08:21:17Z</time>
      </trkpt>
      <trkpt lat="42.6563" lon="-1.40322">
        <ele>733.92</ele>
        <time>2021-08-05T08:21:22Z</time>
      </trkpt>
      <trkpt lat="42.65637" lon="-1.40387">
        <ele>729.56</ele>
        <time>2021-08-05T08:21:28Z</time>
      </trkpt>
      <trkpt lat="42.65645" lon="-1.40447">
        <ele>725.87</ele>
        <time>2021-08-05T08:21:33Z</time>
      </trkpt>
      <trkpt lat="42.65646" lon="-1.40488">
        <ele>722.41</ele>
        <time>2021-08-05T08:21:37Z</time>
      </trkpt>
      <trkpt lat="42.65646" lon="-1.40516">
        <ele>719.16</ele>
        <time>2021-08-05T08:21:41Z</time>
      </trkpt>
      <trkpt lat="42.65645" lon="-1.40549">
        <ele>715.72</ele>
        <time>2021-08-05T08:21:47Z</time>
      </trkpt>
      <trkpt lat="42.65649" lon="-1.40579">
        <ele>712.63</ele>
        <time>2021-08-05T08:21:56Z</time>
      </trkpt>
      <trkpt lat="42.65652" lon="-1.40582">
        <ele>711.63</ele>
        <time>2021-08-05T08:22:02Z</time>
      </trkpt>
      <trkpt lat="42.65661" lon="-1.4056">
        <ele>711.2</ele>
        <time>2021-08-05T08:22:09Z</time>
      </trkpt>
      <trkpt lat="42.65657" lon="-1.4039">
        <ele>713.52</ele>
        <time>2021-08-05T08:22:19Z</time>
      </trkpt>
      <trkpt lat="42.65654" lon="-1.40268">
        <ele>716.57</ele>
        <time>2021-08-05T08:22:24Z</time>
      </trkpt>
      <trkpt lat="42.65648" lon="-1.40164">
        <ele>719.58</ele>
        <time>2021-08-05T08:22:28Z</time>
      </trkpt>
      <trkpt lat="42.6565" lon="-1.4006">
        <ele>722.91</ele>
        <time>2021-08-05T08:22:32Z</time>
      </trkpt>
      <trkpt lat="42.65662" lon="-1.39957">
        <ele>726.17</ele>
        <time>2021-08-05T08:22:36Z</time>
      </trkpt>
      <trkpt lat="42.65664" lon="-1.39833">
        <ele>729.27</ele>
        <time>2021-08-05T08:22:41Z</time>
      </trkpt>
      <trkpt lat="42.65635" lon="-1.3961">
        <ele>727.27</ele>
        <time>2021-08-05T08:22:50Z</time>
      </trkpt>
      <trkpt lat="42.65619" lon="-1.39498">
        <ele>723.94</ele>
        <time>2021-08-05T08:22:54Z</time>
      </trkpt>
      <trkpt lat="42.65604" lon="-1.39414">
        <ele>720.7</ele>
        <time>2021-08-05T08:22:57Z</time>
      </trkpt>
      <trkpt lat="42.65591" lon="-1.3933">
        <ele>717.25</ele>
        <time>2021-08-05T08:23:00Z</time>
      </trkpt>
      <trkpt lat="42.65578" lon="-1.39247">
        <ele>713.87</ele>
        <time>2021-08-05T08:23:03Z</time>
      </trkpt>
      <trkpt lat="42.65562" lon="-1.39135">
        <ele>710.1</ele>
        <time>2021-08-05T08:23:07Z</time>
      </trkpt>
      <trkpt lat="42.65554" lon="-1.39056">
        <ele>707.05</ele>
        <time>2021-08-05T08:23:10Z</time>
      </trkpt>
      <trkpt lat="42.6554" lon="-1.38978">
        <ele>703.51</ele>
        <time>2021-08-05T08:23:13Z</time>
      </trkpt>
      <trkpt lat="42.65515" lon="-1.38905">
        <ele>699.59</ele>
        <time>2021-08-05T08:23:16Z</time>
      </trkpt>
      <trkpt lat="42.65485" lon="-1.38833">
        <ele>695.71</ele>
        <time>2021-08-05T08:23:19Z</time>
      </trkpt>
      <trkpt lat="42.65469" lon="-1.38783">
        <ele>693.23</ele>
        <time>2021-08-05T08:23:21Z</time>
      </trkpt>
      <trkpt lat="42.65458" lon="-1.38676">
        <ele>688.27</ele>
        <time>2021-08-05T08:23:25Z</time>
      </trkpt>
      <trkpt lat="42.6546" lon="-1.3865">
        <ele>687.12</ele>
        <time>2021-08-05T08:23:26Z</time>
      </trkpt>
      <trkpt lat="42.6547" lon="-1.38516">
        <ele>682.25</ele>
        <time>2021-08-05T08:23:31Z</time>
      </trkpt>
      <trkpt lat="42.65468" lon="-1.38404">
        <ele>678.81</ele>
        <time>2021-08-05T08:23:35Z</time>
      </trkpt>
      <trkpt lat="42.65441" lon="-1.38298">
        <ele>674.7</ele>
        <time>2021-08-05T08:23:39Z</time>
      </trkpt>
      <trkpt lat="42.65414" lon="-1.38221">
        <ele>671.42</ele>
        <time>2021-08-05T08:23:42Z</time>
      </trkpt>
      <trkpt lat="42.65397" lon="-1.38137">
        <ele>668.04</ele>
        <time>2021-08-05T08:23:45Z</time>
      </trkpt>
      <trkpt lat="42.6539" lon="-1.38049">
        <ele>664.42</ele>
        <time>2021-08-05T08:23:48Z</time>
      </trkpt>
      <trkpt lat="42.65385" lon="-1.37964">
        <ele>660.58</ele>
        <time>2021-08-05T08:23:51Z</time>
      </trkpt>
      <trkpt lat="42.65379" lon="-1.37881">
        <ele>656.27</ele>
        <time>2021-08-05T08:23:54Z</time>
      </trkpt>
      <trkpt lat="42.65373" lon="-1.37796">
        <ele>651.92</ele>
        <time>2021-08-05T08:23:57Z</time>
      </trkpt>
      <trkpt lat="42.65367" lon="-1.37738">
        <ele>648.89</ele>
        <time>2021-08-05T08:23:59Z</time>
      </trkpt>
      <trkpt lat="42.65359" lon="-1.37679">
        <ele>645.79</ele>
        <time>2021-08-05T08:24:01Z</time>
      </trkpt>
      <trkpt lat="42.65347" lon="-1.37619">
        <ele>642.39</ele>
        <time>2021-08-05T08:24:03Z</time>
      </trkpt>
      <trkpt lat="42.65334" lon="-1.37558">
        <ele>638.76</ele>
        <time>2021-08-05T08:24:05Z</time>
      </trkpt>
      <trkpt lat="42.65321" lon="-1.37496">
        <ele>635.13</ele>
        <time>2021-08-05T08:24:07Z</time>
      </trkpt>
      <trkpt lat="42.65307" lon="-1.37433">
        <ele>631.19</ele>
        <time>2021-08-05T08:24:09Z</time>
      </trkpt>
      <trkpt lat="42.65294" lon="-1.3737">
        <ele>627.28</ele>
        <time>2021-08-05T08:24:11Z</time>
      </trkpt>
      <trkpt lat="42.65281" lon="-1.37303">
        <ele>623.43</ele>
        <time>2021-08-05T08:24:13Z</time>
      </trkpt>
      <trkpt lat="42.6527" lon="-1.37235">
        <ele>619.89</ele>
        <time>2021-08-05T08:24:15Z</time>
      </trkpt>
      <trkpt lat="42.65261" lon="-1.37168">
        <ele>615.34</ele>
        <time>2021-08-05T08:24:17Z</time>
      </trkpt>
      <trkpt lat="42.65257" lon="-1.37134">
        <ele>615.34</ele>
        <time>2021-08-05T08:24:18Z</time>
      </trkpt>
      <trkpt lat="42.6525" lon="-1.37042">
        <ele>611.12</ele>
        <time>2021-08-05T08:24:21Z</time>
      </trkpt>
      <trkpt lat="42.65247" lon="-1.36955">
        <ele>605.28</ele>
        <time>2021-08-05T08:24:24Z</time>
      </trkpt>
      <trkpt lat="42.65245" lon="-1.36928">
        <ele>605.28</ele>
        <time>2021-08-05T08:24:25Z</time>
      </trkpt>
      <trkpt lat="42.65241" lon="-1.36877">
        <ele>601.25</ele>
        <time>2021-08-05T08:24:27Z</time>
      </trkpt>
      <trkpt lat="42.65232" lon="-1.36828">
        <ele>598.49</ele>
        <time>2021-08-05T08:24:29Z</time>
      </trkpt>
      <trkpt lat="42.65196" lon="-1.36735">
        <ele>593.72</ele>
        <time>2021-08-05T08:24:33Z</time>
      </trkpt>
      <trkpt lat="42.65169" lon="-1.36697">
        <ele>591.79</ele>
        <time>2021-08-05T08:24:35Z</time>
      </trkpt>
      <trkpt lat="42.65087" lon="-1.366">
        <ele>587.63</ele>
        <time>2021-08-05T08:24:41Z</time>
      </trkpt>
      <trkpt lat="42.64983" lon="-1.36485">
        <ele>584.62</ele>
        <time>2021-08-05T08:24:48Z</time>
      </trkpt>
      <trkpt lat="42.64922" lon="-1.36409">
        <ele>581.59</ele>
        <time>2021-08-05T08:24:52Z</time>
      </trkpt>
      <trkpt lat="42.64895" lon="-1.36362">
        <ele>579.53</ele>
        <time>2021-08-05T08:24:54Z</time>
      </trkpt>
      <trkpt lat="42.64869" lon="-1.36251">
        <ele>575.03</ele>
        <time>2021-08-05T08:24:58Z</time>
      </trkpt>
      <trkpt lat="42.6486" lon="-1.3614">
        <ele>570.77</ele>
        <time>2021-08-05T08:25:02Z</time>
      </trkpt>
      <trkpt lat="42.64846" lon="-1.36005">
        <ele>567.14</ele>
        <time>2021-08-05T08:25:07Z</time>
      </trkpt>
      <trkpt lat="42.64829" lon="-1.3586">
        <ele>563.63</ele>
        <time>2021-08-05T08:25:12Z</time>
      </trkpt>
      <trkpt lat="42.64814" lon="-1.35741">
        <ele>560.53</ele>
        <time>2021-08-05T08:25:16Z</time>
      </trkpt>
      <trkpt lat="42.6479" lon="-1.35624">
        <ele>556.93</ele>
        <time>2021-08-05T08:25:20Z</time>
      </trkpt>
      <trkpt lat="42.64764" lon="-1.3554">
        <ele>553.58</ele>
        <time>2021-08-05T08:25:23Z</time>
      </trkpt>
      <trkpt lat="42.64734" lon="-1.35458">
        <ele>549.33</ele>
        <time>2021-08-05T08:25:26Z</time>
      </trkpt>
      <trkpt lat="42.64701" lon="-1.35376">
        <ele>545.17</ele>
        <time>2021-08-05T08:25:29Z</time>
      </trkpt>
      <trkpt lat="42.64666" lon="-1.3529">
        <ele>540.77</ele>
        <time>2021-08-05T08:25:32Z</time>
      </trkpt>
      <trkpt lat="42.64629" lon="-1.35202">
        <ele>536.49</ele>
        <time>2021-08-05T08:25:35Z</time>
      </trkpt>
      <trkpt lat="42.64592" lon="-1.35118">
        <ele>532.97</ele>
        <time>2021-08-05T08:25:38Z</time>
      </trkpt>
      <trkpt lat="42.64533" lon="-1.34981">
        <ele>529.61</ele>
        <time>2021-08-05T08:25:43Z</time>
      </trkpt>
      <trkpt lat="42.6439" lon="-1.34647">
        <ele>529.14</ele>
        <time>2021-08-05T08:25:56Z</time>
      </trkpt>
      <trkpt lat="42.64258" lon="-1.34355">
        <ele>525.98</ele>
        <time>2021-08-05T08:26:08Z</time>
      </trkpt>
      <trkpt lat="42.64213" lon="-1.34275">
        <ele>523.01</ele>
        <time>2021-08-05T08:26:12Z</time>
      </trkpt>
      <trkpt lat="42.64137" lon="-1.3421">
        <ele>518.5</ele>
        <time>2021-08-05T08:26:17Z</time>
      </trkpt>
      <trkpt lat="42.64083" lon="-1.34194">
        <ele>517.2</ele>
        <time>2021-08-05T08:26:20Z</time>
      </trkpt>
      <trkpt lat="42.64053" lon="-1.34189">
        <ele>516.94</ele>
        <time>2021-08-05T08:26:22Z</time>
      </trkpt>
      <trkpt lat="42.63993" lon="-1.34154">
        <ele>516.51</ele>
        <time>2021-08-05T08:26:28Z</time>
      </trkpt>
      <trkpt lat="42.6395" lon="-1.34101">
        <ele>516.7</ele>
        <time>2021-08-05T08:26:35Z</time>
      </trkpt>
      <trkpt lat="42.63961" lon="-1.34022">
        <ele>516.79</ele>
        <time>2021-08-05T08:26:41Z</time>
      </trkpt>
      <trkpt lat="42.63959" lon="-1.34007">
        <ele>516.65</ele>
        <time>2021-08-05T08:26:42Z</time>
      </trkpt>
      <trkpt lat="42.63957" lon="-1.33977">
        <ele>516.38</ele>
        <time>2021-08-05T08:26:44Z</time>
      </trkpt>
      <trkpt lat="42.63994" lon="-1.33903">
        <ele>515.61</ele>
        <time>2021-08-05T08:26:50Z</time>
      </trkpt>
      <trkpt lat="42.64099" lon="-1.33835">
        <ele>513.44</ele>
        <time>2021-08-05T08:26:59Z</time>
      </trkpt>
      <trkpt lat="42.64144" lon="-1.33787">
        <ele>511.33</ele>
        <time>2021-08-05T08:27:05Z</time>
      </trkpt>
      <trkpt lat="42.642" lon="-1.33794">
        <ele>510.23</ele>
        <time>2021-08-05T08:27:10Z</time>
      </trkpt>
      <trkpt lat="42.64235" lon="-1.33768">
        <ele>509.41</ele>
        <time>2021-08-05T08:27:13Z</time>
      </trkpt>
      <trkpt lat="42.64367" lon="-1.33598">
        <ele>506.25</ele>
        <time>2021-08-05T08:27:24Z</time>
      </trkpt>
      <trkpt lat="42.64457" lon="-1.33474">
        <ele>503.13</ele>
        <time>2021-08-05T08:27:31Z</time>
      </trkpt>
      <trkpt lat="42.64554" lon="-1.33342">
        <ele>500.08</ele>
        <time>2021-08-05T08:27:38Z</time>
      </trkpt>
      <trkpt lat="42.64623" lon="-1.3325">
        <ele>497.4</ele>
        <time>2021-08-05T08:27:43Z</time>
      </trkpt>
      <trkpt lat="42.64693" lon="-1.33178">
        <ele>494.25</ele>
        <time>2021-08-05T08:27:48Z</time>
      </trkpt>
      <trkpt lat="42.64737" lon="-1.33153">
        <ele>490.92</ele>
        <time>2021-08-05T08:27:52Z</time>
      </trkpt>
      <trkpt lat="42.64774" lon="-1.33134">
        <ele>487.15</ele>
        <time>2021-08-05T08:27:56Z</time>
      </trkpt>
      <trkpt lat="42.64832" lon="-1.33105">
        <ele>483.51</ele>
        <time>2021-08-05T08:28:01Z</time>
      </trkpt>
      <trkpt lat="42.64901" lon="-1.3307">
        <ele>480.37</ele>
        <time>2021-08-05T08:28:06Z</time>
      </trkpt>
      <trkpt lat="42.64947" lon="-1.33044">
        <ele>478.64</ele>
        <time>2021-08-05T08:28:09Z</time>
      </trkpt>
      <trkpt lat="42.65021" lon="-1.32934">
        <ele>474.8</ele>
        <time>2021-08-05T08:28:15Z</time>
      </trkpt>
      <trkpt lat="42.65037" lon="-1.32833">
        <ele>471.68</ele>
        <time>2021-08-05T08:28:19Z</time>
      </trkpt>
      <trkpt lat="42.65036" lon="-1.32807">
        <ele>470.65</ele>
        <time>2021-08-05T08:28:20Z</time>
      </trkpt>
      <trkpt lat="42.65029" lon="-1.32675">
        <ele>465.71</ele>
        <time>2021-08-05T08:28:25Z</time>
      </trkpt>
      <trkpt lat="42.65025" lon="-1.3257">
        <ele>462.38</ele>
        <time>2021-08-05T08:28:29Z</time>
      </trkpt>
      <trkpt lat="42.65021" lon="-1.32438">
        <ele>458.8</ele>
        <time>2021-08-05T08:28:34Z</time>
      </trkpt>
      <trkpt lat="42.65009" lon="-1.32308">
        <ele>455.19</ele>
        <time>2021-08-05T08:28:39Z</time>
      </trkpt>
      <trkpt lat="42.64977" lon="-1.32182">
        <ele>451.9</ele>
        <time>2021-08-05T08:28:44Z</time>
      </trkpt>
      <trkpt lat="42.64934" lon="-1.32037">
        <ele>448.62</ele>
        <time>2021-08-05T08:28:50Z</time>
      </trkpt>
      <trkpt lat="42.64909" lon="-1.31946">
        <ele>447.08</ele>
        <time>2021-08-05T08:28:54Z</time>
      </trkpt>
      <trkpt lat="42.64907" lon="-1.31829">
        <ele>445.94</ele>
        <time>2021-08-05T08:28:59Z</time>
      </trkpt>
      <trkpt lat="42.6494" lon="-1.31549">
        <ele>442.28</ele>
        <time>2021-08-05T08:29:11Z</time>
      </trkpt>
      <trkpt lat="42.64956" lon="-1.31439">
        <ele>438.71</ele>
        <time>2021-08-05T08:29:18Z</time>
      </trkpt>
      <trkpt lat="42.64976" lon="-1.31324">
        <ele>437.12</ele>
        <time>2021-08-05T08:29:27Z</time>
      </trkpt>
      <trkpt lat="42.65002" lon="-1.31191">
        <ele>437.07</ele>
        <time>2021-08-05T08:29:37Z</time>
      </trkpt>
      <trkpt lat="42.65051" lon="-1.31088">
        <ele>438.51</ele>
        <time>2021-08-05T08:29:47Z</time>
      </trkpt>
      <trkpt lat="42.65087" lon="-1.31059">
        <ele>439.52</ele>
        <time>2021-08-05T08:29:51Z</time>
      </trkpt>
      <trkpt lat="42.65211" lon="-1.31023">
        <ele>441.82</ele>
        <time>2021-08-05T08:30:02Z</time>
      </trkpt>
      <trkpt lat="42.65316" lon="-1.30988">
        <ele>443.34</ele>
        <time>2021-08-05T08:30:09Z</time>
      </trkpt>
      <trkpt lat="42.6541" lon="-1.30894">
        <ele>444.99</ele>
        <time>2021-08-05T08:30:16Z</time>
      </trkpt>
      <trkpt lat="42.65441" lon="-1.30803">
        <ele>446.87</ele>
        <time>2021-08-05T08:30:20Z</time>
      </trkpt>
      <trkpt lat="42.6546" lon="-1.30629">
        <ele>450.5</ele>
        <time>2021-08-05T08:30:27Z</time>
      </trkpt>
      <trkpt lat="42.65496" lon="-1.30496">
        <ele>452.76</ele>
        <time>2021-08-05T08:30:34Z</time>
      </trkpt>
      <trkpt lat="42.65542" lon="-1.30422">
        <ele>452.14</ele>
        <time>2021-08-05T08:30:41Z</time>
      </trkpt>
      <trkpt lat="42.65548" lon="-1.30415">
        <ele>451.87</ele>
        <time>2021-08-05T08:30:42Z</time>
      </trkpt>
      <trkpt lat="42.65582" lon="-1.30384">
        <ele>451.01</ele>
        <time>2021-08-05T08:30:47Z</time>
      </trkpt>
      <trkpt lat="42.65693" lon="-1.30251">
        <ele>451.98</ele>
        <time>2021-08-05T08:31:00Z</time>
      </trkpt>
      <trkpt lat="42.65781" lon="-1.30155">
        <ele>455.14</ele>
        <time>2021-08-05T08:31:09Z</time>
      </trkpt>
      <trkpt lat="42.65869" lon="-1.30083">
        <ele>456.96</ele>
        <time>2021-08-05T08:31:18Z</time>
      </trkpt>
      <trkpt lat="42.65986" lon="-1.29983">
        <ele>458.86</ele>
        <time>2021-08-05T08:31:27Z</time>
      </trkpt>
      <trkpt lat="42.66133" lon="-1.29862">
        <ele>461.82</ele>
        <time>2021-08-05T08:31:37Z</time>
      </trkpt>
      <trkpt lat="42.663" lon="-1.29758">
        <ele>464.43</ele>
        <time>2021-08-05T08:31:47Z</time>
      </trkpt>
      <trkpt lat="42.6648" lon="-1.2969">
        <ele>464.7</ele>
        <time>2021-08-05T08:31:57Z</time>
      </trkpt>
      <trkpt lat="42.66744" lon="-1.29678">
        <ele>461.61</ele>
        <time>2021-08-05T08:32:10Z</time>
      </trkpt>
      <trkpt lat="42.67167" lon="-1.29655">
        <ele>464.08</ele>
        <time>2021-08-05T08:32:30Z</time>
      </trkpt>
      <trkpt lat="42.67326" lon="-1.29646">
        <ele>467.21</ele>
        <time>2021-08-05T08:32:38Z</time>
      </trkpt>
      <trkpt lat="42.67439" lon="-1.2964">
        <ele>470.26</ele>
        <time>2021-08-05T08:32:44Z</time>
      </trkpt>
      <trkpt lat="42.67535" lon="-1.29635">
        <ele>473.8</ele>
        <time>2021-08-05T08:32:49Z</time>
      </trkpt>
      <trkpt lat="42.67683" lon="-1.29656">
        <ele>476.97</ele>
        <time>2021-08-05T08:32:58Z</time>
      </trkpt>
      <trkpt lat="42.67809" lon="-1.29746">
        <ele>477.9</ele>
        <time>2021-08-05T08:33:06Z</time>
      </trkpt>
      <trkpt lat="42.68034" lon="-1.2992">
        <ele>474.8</ele>
        <time>2021-08-05T08:33:20Z</time>
      </trkpt>
      <trkpt lat="42.68131" lon="-1.29995">
        <ele>471.77</ele>
        <time>2021-08-05T08:33:26Z</time>
      </trkpt>
      <trkpt lat="42.68211" lon="-1.30056">
        <ele>468.55</ele>
        <time>2021-08-05T08:33:31Z</time>
      </trkpt>
      <trkpt lat="42.68291" lon="-1.30124">
        <ele>465.4</ele>
        <time>2021-08-05T08:33:36Z</time>
      </trkpt>
      <trkpt lat="42.68354" lon="-1.30187">
        <ele>462.3</ele>
        <time>2021-08-05T08:33:40Z</time>
      </trkpt>
      <trkpt lat="42.68417" lon="-1.30253">
        <ele>459.12</ele>
        <time>2021-08-05T08:33:44Z</time>
      </trkpt>
      <trkpt lat="42.68477" lon="-1.30317">
        <ele>455.62</ele>
        <time>2021-08-05T08:33:48Z</time>
      </trkpt>
      <trkpt lat="42.68536" lon="-1.30378">
        <ele>452.5</ele>
        <time>2021-08-05T08:33:52Z</time>
      </trkpt>
      <trkpt lat="42.68615" lon="-1.30459">
        <ele>449.45</ele>
        <time>2021-08-05T08:33:58Z</time>
      </trkpt>
      <trkpt lat="42.68668" lon="-1.30523">
        <ele>434.7</ele>
      </trkpt>
      <trkpt lat="42.68654" lon="-1.30543">
        <ele>434.3</ele>
      </trkpt>
      <trkpt lat="42.68631" lon="-1.30591">
        <ele>433.6</ele>
      </trkpt>
      <trkpt lat="42.68616" lon="-1.30622">
        <ele>433.4</ele>
      </trkpt>
      <trkpt lat="42.68614" lon="-1.30627">
        <ele>433.4</ele>
      </trkpt>
      <trkpt lat="42.68612" lon="-1.30638">
        <ele>433.3</ele>
      </trkpt>
      <trkpt lat="42.68613" lon="-1.30651">
        <ele>433.4</ele>
      </trkpt>
      <trkpt lat="42.68617" lon="-1.30661">
        <ele>433.4</ele>
      </trkpt>
      <trkpt lat="42.68644" lon="-1.30705">
        <ele>433.6</ele>
      </trkpt>
      <trkpt lat="42.68658" lon="-1.30729">
        <ele>433.8</ele>
      </trkpt>
      <trkpt lat="42.68671" lon="-1.30759">
        <ele>434.2</ele>
      </trkpt>
      <trkpt lat="42.68689" lon="-1.30808">
        <ele>435</ele>
      </trkpt>
      <trkpt lat="42.68711" lon="-1.30863">
        <ele>435.6</ele>
      </trkpt>
      <trkpt lat="42.68716" lon="-1.30874">
        <ele>435.5</ele>
      </trkpt>
      <trkpt lat="42.68738" lon="-1.30913">
        <ele>435</ele>
      </trkpt>
      <trkpt lat="42.688" lon="-1.31061">
        <ele>434.2</ele>
      </trkpt>
      <trkpt lat="42.68815" lon="-1.31091">
        <ele>434.2</ele>
      </trkpt>
      <trkpt lat="42.68872" lon="-1.31164">
        <ele>432.6</ele>
      </trkpt>
      <trkpt lat="42.68882" lon="-1.31181">
        <ele>432.3</ele>
      </trkpt>
      <trkpt lat="42.68888" lon="-1.31198">
        <ele>432</ele>
      </trkpt>
      <trkpt lat="42.6893" lon="-1.31347">
        <ele>431</ele>
      </trkpt>
      <trkpt lat="42.68932" lon="-1.31364">
        <ele>431.3</ele>
      </trkpt>
      <trkpt lat="42.68932" lon="-1.31366">
        <ele>431.3</ele>
      </trkpt>
    </trkseg>
  </trk>
  <trk>
    <name><![CDATA[TOTAL 4x4 _22]]></name>
    <extensions>
      <line xmlns="http://www.topografix.com/GPX/gpx_style/0/2">
        <color>008888</color>
        <width>4</width>
      </line>
    </extensions>
    <trkseg>
      <trkpt lat="42.68919" lon="-1.31511">
        <ele>448.86</ele>
        <time>2021-08-05T08:42:33Z</time>
      </trkpt>
      <trkpt lat="42.68917" lon="-1.31514">
        <ele>448.25</ele>
        <time>2021-08-05T08:42:34Z</time>
      </trkpt>
      <trkpt lat="42.68916" lon="-1.31579">
        <ele>444.77</ele>
        <time>2021-08-05T08:42:41Z</time>
      </trkpt>
      <trkpt lat="42.68915" lon="-1.31732">
        <ele>444.5</ele>
        <time>2021-08-05T08:42:50Z</time>
      </trkpt>
      <trkpt lat="42.68914" lon="-1.31749">
        <ele>444.57</ele>
        <time>2021-08-05T08:42:51Z</time>
      </trkpt>
      <trkpt lat="42.68878" lon="-1.3193">
        <ele>445.25</ele>
        <time>2021-08-05T08:43:03Z</time>
      </trkpt>
      <trkpt lat="42.6886" lon="-1.32013">
        <ele>445.25</ele>
        <time>2021-08-05T08:43:08Z</time>
      </trkpt>
      <trkpt lat="42.68831" lon="-1.32058">
        <ele>445.27</ele>
        <time>2021-08-05T08:43:12Z</time>
      </trkpt>
      <trkpt lat="42.68786" lon="-1.32123">
        <ele>445.85</ele>
        <time>2021-08-05T08:43:17Z</time>
      </trkpt>
      <trkpt lat="42.6875" lon="-1.32239">
        <ele>449.51</ele>
        <time>2021-08-05T08:43:23Z</time>
      </trkpt>
      <trkpt lat="42.68731" lon="-1.32319">
        <ele>453.53</ele>
        <time>2021-08-05T08:43:27Z</time>
      </trkpt>
      <trkpt lat="42.68726" lon="-1.32385">
        <ele>457.13</ele>
        <time>2021-08-05T08:43:30Z</time>
      </trkpt>
      <trkpt lat="42.68728" lon="-1.32452">
        <ele>460.77</ele>
        <time>2021-08-05T08:43:33Z</time>
      </trkpt>
      <trkpt lat="42.68737" lon="-1.32516">
        <ele>464.74</ele>
        <time>2021-08-05T08:43:36Z</time>
      </trkpt>
      <trkpt lat="42.68743" lon="-1.32575">
        <ele>468.53</ele>
        <time>2021-08-05T08:43:39Z</time>
      </trkpt>
      <trkpt lat="42.68731" lon="-1.32616">
        <ele>473.04</ele>
        <time>2021-08-05T08:43:43Z</time>
      </trkpt>
      <trkpt lat="42.68705" lon="-1.32599">
        <ele>475.5</ele>
        <time>2021-08-05T08:43:46Z</time>
      </trkpt>
      <trkpt lat="42.68667" lon="-1.3256">
        <ele>477.8</ele>
        <time>2021-08-05T08:43:50Z</time>
      </trkpt>
      <trkpt lat="42.68647" lon="-1.3257">
        <ele>479.57</ele>
        <time>2021-08-05T08:43:56Z</time>
      </trkpt>
      <trkpt lat="42.68619" lon="-1.3258">
        <ele>479.86</ele>
        <time>2021-08-05T08:44:02Z</time>
      </trkpt>
      <trkpt lat="42.68607" lon="-1.32595">
        <ele>479.56</ele>
        <time>2021-08-05T08:44:05Z</time>
      </trkpt>
      <trkpt lat="42.68606" lon="-1.32604">
        <ele>479.46</ele>
        <time>2021-08-05T08:44:06Z</time>
      </trkpt>
      <trkpt lat="42.68609" lon="-1.32611">
        <ele>479.4</ele>
        <time>2021-08-05T08:44:07Z</time>
      </trkpt>
      <trkpt lat="42.68614" lon="-1.32618">
        <ele>479.34</ele>
        <time>2021-08-05T08:44:08Z</time>
      </trkpt>
      <trkpt lat="42.68623" lon="-1.32621">
        <ele>479.17</ele>
        <time>2021-08-05T08:44:09Z</time>
      </trkpt>
      <trkpt lat="42.68724" lon="-1.32678">
        <ele>478.03</ele>
        <time>2021-08-05T08:44:17Z</time>
      </trkpt>
      <trkpt lat="42.68802" lon="-1.32728">
        <ele>474.93</ele>
        <time>2021-08-05T08:44:22Z</time>
      </trkpt>
      <trkpt lat="42.68867" lon="-1.3277">
        <ele>471.89</ele>
        <time>2021-08-05T08:44:26Z</time>
      </trkpt>
      <trkpt lat="42.68971" lon="-1.3281">
        <ele>468.51</ele>
        <time>2021-08-05T08:44:32Z</time>
      </trkpt>
      <trkpt lat="42.69049" lon="-1.32833">
        <ele>465.5</ele>
        <time>2021-08-05T08:44:37Z</time>
      </trkpt>
      <trkpt lat="42.6913" lon="-1.32851">
        <ele>462.33</ele>
        <time>2021-08-05T08:44:42Z</time>
      </trkpt>
      <trkpt lat="42.69256" lon="-1.32907">
        <ele>465.37</ele>
        <time>2021-08-05T08:44:50Z</time>
      </trkpt>
      <trkpt lat="42.69299" lon="-1.3293">
        <ele>468.67</ele>
        <time>2021-08-05T08:44:53Z</time>
      </trkpt>
      <trkpt lat="42.69341" lon="-1.32952">
        <ele>472.6</ele>
        <time>2021-08-05T08:44:56Z</time>
      </trkpt>
      <trkpt lat="42.69382" lon="-1.32975">
        <ele>477.11</ele>
        <time>2021-08-05T08:44:59Z</time>
      </trkpt>
      <trkpt lat="42.69409" lon="-1.32989">
        <ele>480.51</ele>
        <time>2021-08-05T08:45:01Z</time>
      </trkpt>
      <trkpt lat="42.69436" lon="-1.33002">
        <ele>484.02</ele>
        <time>2021-08-05T08:45:03Z</time>
      </trkpt>
      <trkpt lat="42.69465" lon="-1.33015">
        <ele>487.61</ele>
        <time>2021-08-05T08:45:05Z</time>
      </trkpt>
      <trkpt lat="42.69494" lon="-1.33029">
        <ele>490.99</ele>
        <time>2021-08-05T08:45:07Z</time>
      </trkpt>
      <trkpt lat="42.69508" lon="-1.33036">
        <ele>492.57</ele>
        <time>2021-08-05T08:45:08Z</time>
      </trkpt>
      <trkpt lat="42.69561" lon="-1.33083">
        <ele>497.79</ele>
        <time>2021-08-05T08:45:12Z</time>
      </trkpt>
      <trkpt lat="42.69635" lon="-1.33167">
        <ele>500.76</ele>
        <time>2021-08-05T08:45:17Z</time>
      </trkpt>
      <trkpt lat="42.69718" lon="-1.33231">
        <ele>501.8</ele>
        <time>2021-08-05T08:45:22Z</time>
      </trkpt>
      <trkpt lat="42.69803" lon="-1.33353">
        <ele>504.71</ele>
        <time>2021-08-05T08:45:29Z</time>
      </trkpt>
      <trkpt lat="42.69855" lon="-1.3343">
        <ele>507.94</ele>
        <time>2021-08-05T08:45:34Z</time>
      </trkpt>
      <trkpt lat="42.69935" lon="-1.33511">
        <ele>511.2</ele>
        <time>2021-08-05T08:45:40Z</time>
      </trkpt>
      <trkpt lat="42.69998" lon="-1.3357">
        <ele>511.65</ele>
        <time>2021-08-05T08:45:45Z</time>
      </trkpt>
      <trkpt lat="42.70097" lon="-1.33612">
        <ele>509.03</ele>
        <time>2021-08-05T08:45:52Z</time>
      </trkpt>
      <trkpt lat="42.70173" lon="-1.33608">
        <ele>505.31</ele>
        <time>2021-08-05T08:45:57Z</time>
      </trkpt>
      <trkpt lat="42.70269" lon="-1.33663">
        <ele>505.21</ele>
        <time>2021-08-05T08:46:04Z</time>
      </trkpt>
      <trkpt lat="42.70354" lon="-1.33709">
        <ele>508.39</ele>
        <time>2021-08-05T08:46:10Z</time>
      </trkpt>
      <trkpt lat="42.70475" lon="-1.33739">
        <ele>511.59</ele>
        <time>2021-08-05T08:46:16Z</time>
      </trkpt>
      <trkpt lat="42.70687" lon="-1.33782">
        <ele>512.5</ele>
        <time>2021-08-05T08:46:27Z</time>
      </trkpt>
      <trkpt lat="42.70704" lon="-1.33786">
        <ele>512.65</ele>
        <time>2021-08-05T08:46:28Z</time>
      </trkpt>
      <trkpt lat="42.70801" lon="-1.33768">
        <ele>516.54</ele>
        <time>2021-08-05T08:46:34Z</time>
      </trkpt>
      <trkpt lat="42.70817" lon="-1.33764">
        <ele>517.48</ele>
        <time>2021-08-05T08:46:35Z</time>
      </trkpt>
      <trkpt lat="42.70908" lon="-1.33797">
        <ele>521.79</ele>
        <time>2021-08-05T08:46:41Z</time>
      </trkpt>
      <trkpt lat="42.70919" lon="-1.33808">
        <ele>522.68</ele>
        <time>2021-08-05T08:46:42Z</time>
      </trkpt>
      <trkpt lat="42.70953" lon="-1.33867">
        <ele>526.94</ele>
        <time>2021-08-05T08:46:46Z</time>
      </trkpt>
      <trkpt lat="42.70982" lon="-1.33926">
        <ele>530.3</ele>
        <time>2021-08-05T08:46:50Z</time>
      </trkpt>
      <trkpt lat="42.71004" lon="-1.33969">
        <ele>532.44</ele>
        <time>2021-08-05T08:46:53Z</time>
      </trkpt>
      <trkpt lat="42.71055" lon="-1.34003">
        <ele>534.85</ele>
        <time>2021-08-05T08:46:57Z</time>
      </trkpt>
      <trkpt lat="42.71087" lon="-1.34007">
        <ele>535.97</ele>
        <time>2021-08-05T08:46:59Z</time>
      </trkpt>
      <trkpt lat="42.71189" lon="-1.34056">
        <ele>538.54</ele>
        <time>2021-08-05T08:47:06Z</time>
      </trkpt>
      <trkpt lat="42.71291" lon="-1.34108">
        <ele>535.27</ele>
        <time>2021-08-05T08:47:15Z</time>
      </trkpt>
      <trkpt lat="42.71308" lon="-1.34115">
        <ele>531.67</ele>
        <time>2021-08-05T08:47:19Z</time>
      </trkpt>
      <trkpt lat="42.71313" lon="-1.34116">
        <ele>528.28</ele>
        <time>2021-08-05T08:47:23Z</time>
      </trkpt>
      <trkpt lat="42.71313" lon="-1.34117">
        <ele>525.22</ele>
        <time>2021-08-05T08:47:30Z</time>
      </trkpt>
      <trkpt lat="42.71314" lon="-1.34117">
        <ele>523.46</ele>
        <time>2021-08-05T08:48:05Z</time>
      </trkpt>
      <trkpt lat="42.71329" lon="-1.34121">
        <ele>523.46</ele>
        <time>2021-08-05T08:48:34Z</time>
      </trkpt>
      <trkpt lat="42.71373" lon="-1.34142">
        <ele>521.5</ele>
        <time>2021-08-05T08:48:42Z</time>
      </trkpt>
      <trkpt lat="42.71396" lon="-1.34145">
        <ele>517.85</ele>
        <time>2021-08-05T08:48:48Z</time>
      </trkpt>
      <trkpt lat="42.71408" lon="-1.34124">
        <ele>515.57</ele>
        <time>2021-08-05T08:48:52Z</time>
      </trkpt>
      <trkpt lat="42.7142" lon="-1.34102">
        <ele>513.86</ele>
        <time>2021-08-05T08:48:55Z</time>
      </trkpt>
      <trkpt lat="42.71453" lon="-1.34066">
        <ele>510.77</ele>
        <time>2021-08-05T08:49:00Z</time>
      </trkpt>
      <trkpt lat="42.71495" lon="-1.34012">
        <ele>507.25</ele>
        <time>2021-08-05T08:49:05Z</time>
      </trkpt>
      <trkpt lat="42.71504" lon="-1.34001">
        <ele>506.49</ele>
        <time>2021-08-05T08:49:06Z</time>
      </trkpt>
      <trkpt lat="42.71525" lon="-1.33983">
        <ele>503.95</ele>
        <time>2021-08-05T08:49:08Z</time>
      </trkpt>
      <trkpt lat="42.71537" lon="-1.33978">
        <ele>503.95</ele>
        <time>2021-08-05T08:49:09Z</time>
      </trkpt>
      <trkpt lat="42.71548" lon="-1.33974">
        <ele>502.96</ele>
        <time>2021-08-05T08:49:10Z</time>
      </trkpt>
    </trkseg>
  </trk>
  <trk>
    <name><![CDATA[TOTAL 4x4 _23]]></name>
    <extensions>
      <line xmlns="http://www.topografix.com/GPX/gpx_style/0/2">
        <color>888800</color>
        <width>4</width>
      </line>
    </extensions>
    <trkseg>
      <trkpt lat="42.71589" lon="-1.33963">
        <ele>486.74</ele>
        <time>2021-08-05T09:10:43Z</time>
      </trkpt>
      <trkpt lat="42.71608" lon="-1.33871">
        <ele>486.2</ele>
        <time>2021-08-05T09:10:51Z</time>
      </trkpt>
      <trkpt lat="42.71645" lon="-1.33703">
        <ele>484.92</ele>
        <time>2021-08-05T09:10:59Z</time>
      </trkpt>
      <trkpt lat="42.717" lon="-1.33439">
        <ele>481.65</ele>
        <time>2021-08-05T09:11:11Z</time>
      </trkpt>
      <trkpt lat="42.71701" lon="-1.33369">
        <ele>478.43</ele>
        <time>2021-08-05T09:11:15Z</time>
      </trkpt>
      <trkpt lat="42.71675" lon="-1.33342">
        <ele>474.09</ele>
        <time>2021-08-05T09:11:19Z</time>
      </trkpt>
      <trkpt lat="42.71651" lon="-1.3335">
        <ele>472.03</ele>
        <time>2021-08-05T09:11:21Z</time>
      </trkpt>
      <trkpt lat="42.7158" lon="-1.33379">
        <ele>467.29</ele>
        <time>2021-08-05T09:11:26Z</time>
      </trkpt>
      <trkpt lat="42.71555" lon="-1.33388">
        <ele>465.24</ele>
        <time>2021-08-05T09:11:28Z</time>
      </trkpt>
      <trkpt lat="42.71512" lon="-1.33372">
        <ele>461.08</ele>
        <time>2021-08-05T09:11:32Z</time>
      </trkpt>
      <trkpt lat="42.715" lon="-1.33319">
        <ele>457.69</ele>
        <time>2021-08-05T09:11:36Z</time>
      </trkpt>
      <trkpt lat="42.71491" lon="-1.33117">
        <ele>455.39</ele>
        <time>2021-08-05T09:11:46Z</time>
      </trkpt>
      <trkpt lat="42.71489" lon="-1.33077">
        <ele>455.34</ele>
        <time>2021-08-05T09:11:48Z</time>
      </trkpt>
      <trkpt lat="42.71522" lon="-1.32926">
        <ele>455.57</ele>
        <time>2021-08-05T09:11:56Z</time>
      </trkpt>
      <trkpt lat="42.71535" lon="-1.32873">
        <ele>455.79</ele>
        <time>2021-08-05T09:11:59Z</time>
      </trkpt>
      <trkpt lat="42.7153" lon="-1.32716">
        <ele>456.7</ele>
        <time>2021-08-05T09:12:07Z</time>
      </trkpt>
      <trkpt lat="42.71548" lon="-1.32638">
        <ele>457.65</ele>
        <time>2021-08-05T09:12:12Z</time>
      </trkpt>
      <trkpt lat="42.71633" lon="-1.3248">
        <ele>461.07</ele>
        <time>2021-08-05T09:12:21Z</time>
      </trkpt>
      <trkpt lat="42.71676" lon="-1.32401">
        <ele>464.28</ele>
        <time>2021-08-05T09:12:25Z</time>
      </trkpt>
      <trkpt lat="42.717" lon="-1.32356">
        <ele>465.7</ele>
        <time>2021-08-05T09:12:28Z</time>
      </trkpt>
      <trkpt lat="42.71707" lon="-1.32333">
        <ele>466.41</ele>
        <time>2021-08-05T09:12:33Z</time>
      </trkpt>
      <trkpt lat="42.71725" lon="-1.32323">
        <ele>466.69</ele>
        <time>2021-08-05T09:12:37Z</time>
      </trkpt>
      <trkpt lat="42.71836" lon="-1.32293">
        <ele>468.81</ele>
        <time>2021-08-05T09:12:46Z</time>
      </trkpt>
      <trkpt lat="42.71921" lon="-1.3228">
        <ele>472.06</ele>
        <time>2021-08-05T09:12:51Z</time>
      </trkpt>
      <trkpt lat="42.72019" lon="-1.32277">
        <ele>475.75</ele>
        <time>2021-08-05T09:12:56Z</time>
      </trkpt>
      <trkpt lat="42.72097" lon="-1.32257">
        <ele>479.34</ele>
        <time>2021-08-05T09:13:00Z</time>
      </trkpt>
      <trkpt lat="42.72155" lon="-1.32234">
        <ele>482.63</ele>
        <time>2021-08-05T09:13:03Z</time>
      </trkpt>
      <trkpt lat="42.72217" lon="-1.32217">
        <ele>485.88</ele>
        <time>2021-08-05T09:13:06Z</time>
      </trkpt>
      <trkpt lat="42.72279" lon="-1.3221">
        <ele>489.6</ele>
        <time>2021-08-05T09:13:09Z</time>
      </trkpt>
      <trkpt lat="42.72342" lon="-1.32213">
        <ele>493.36</ele>
        <time>2021-08-05T09:13:12Z</time>
      </trkpt>
      <trkpt lat="42.72406" lon="-1.32218">
        <ele>496.94</ele>
        <time>2021-08-05T09:13:15Z</time>
      </trkpt>
      <trkpt lat="42.72469" lon="-1.32223">
        <ele>500.02</ele>
        <time>2021-08-05T09:13:18Z</time>
      </trkpt>
      <trkpt lat="42.72554" lon="-1.32229">
        <ele>503.04</ele>
        <time>2021-08-05T09:13:22Z</time>
      </trkpt>
      <trkpt lat="42.7268" lon="-1.32241">
        <ele>506.06</ele>
        <time>2021-08-05T09:13:28Z</time>
      </trkpt>
      <trkpt lat="42.72884" lon="-1.32286">
        <ele>504.46</ele>
        <time>2021-08-05T09:13:38Z</time>
      </trkpt>
      <trkpt lat="42.72947" lon="-1.32328">
        <ele>500.15</ele>
        <time>2021-08-05T09:13:42Z</time>
      </trkpt>
      <trkpt lat="42.72981" lon="-1.32383">
        <ele>496.55</ele>
        <time>2021-08-05T09:13:45Z</time>
      </trkpt>
      <trkpt lat="42.73" lon="-1.32453">
        <ele>493.07</ele>
        <time>2021-08-05T09:13:48Z</time>
      </trkpt>
      <trkpt lat="42.73" lon="-1.32529">
        <ele>489.51</ele>
        <time>2021-08-05T09:13:51Z</time>
      </trkpt>
      <trkpt lat="42.72983" lon="-1.32601">
        <ele>485.71</ele>
        <time>2021-08-05T09:13:54Z</time>
      </trkpt>
      <trkpt lat="42.72947" lon="-1.32663">
        <ele>482.09</ele>
        <time>2021-08-05T09:13:57Z</time>
      </trkpt>
      <trkpt lat="42.7289" lon="-1.32745">
        <ele>477.29</ele>
        <time>2021-08-05T09:14:01Z</time>
      </trkpt>
      <trkpt lat="42.72854" lon="-1.32848">
        <ele>472.24</ele>
        <time>2021-08-05T09:14:05Z</time>
      </trkpt>
      <trkpt lat="42.72846" lon="-1.32904">
        <ele>470.88</ele>
        <time>2021-08-05T09:14:07Z</time>
      </trkpt>
      <trkpt lat="42.7285" lon="-1.33157">
        <ele>468.94</ele>
        <time>2021-08-05T09:14:16Z</time>
      </trkpt>
      <trkpt lat="42.72893" lon="-1.33623">
        <ele>468.26</ele>
        <time>2021-08-05T09:14:32Z</time>
      </trkpt>
      <trkpt lat="42.72959" lon="-1.3377">
        <ele>468.21</ele>
        <time>2021-08-05T09:14:38Z</time>
      </trkpt>
      <trkpt lat="42.72991" lon="-1.33805">
        <ele>468.53</ele>
        <time>2021-08-05T09:14:40Z</time>
      </trkpt>
      <trkpt lat="42.73055" lon="-1.33857">
        <ele>469.68</ele>
        <time>2021-08-05T09:14:46Z</time>
      </trkpt>
    </trkseg>
  </trk>
  <trk>
    <name><![CDATA[TOTAL 4x4 _24]]></name>
    <extensions>
      <line xmlns="http://www.topografix.com/GPX/gpx_style/0/2">
        <color>880088</color>
        <width>4</width>
      </line>
    </extensions>
    <trkseg>
      <trkpt lat="42.73138" lon="-1.33911">
        <ele>471.99</ele>
        <time>2021-08-05T09:31:32Z</time>
      </trkpt>
      <trkpt lat="42.73152" lon="-1.33916">
        <ele>472.29</ele>
        <time>2021-08-05T09:31:33Z</time>
      </trkpt>
      <trkpt lat="42.73217" lon="-1.33941">
        <ele>473.75</ele>
        <time>2021-08-05T09:31:37Z</time>
      </trkpt>
      <trkpt lat="42.73301" lon="-1.34019">
        <ele>474.67</ele>
        <time>2021-08-05T09:31:42Z</time>
      </trkpt>
      <trkpt lat="42.73316" lon="-1.3404">
        <ele>474.73</ele>
        <time>2021-08-05T09:31:43Z</time>
      </trkpt>
      <trkpt lat="42.73372" lon="-1.34133">
        <ele>474.08</ele>
        <time>2021-08-05T09:31:47Z</time>
      </trkpt>
      <trkpt lat="42.73403" lon="-1.34282">
        <ele>472.14</ele>
        <time>2021-08-05T09:31:52Z</time>
      </trkpt>
      <trkpt lat="42.73413" lon="-1.34671">
        <ele>471.19</ele>
        <time>2021-08-05T09:32:04Z</time>
      </trkpt>
      <trkpt lat="42.73437" lon="-1.34858">
        <ele>471.67</ele>
        <time>2021-08-05T09:32:10Z</time>
      </trkpt>
      <trkpt lat="42.73527" lon="-1.35051">
        <ele>471.89</ele>
        <time>2021-08-05T09:32:17Z</time>
      </trkpt>
      <trkpt lat="42.73726" lon="-1.35435">
        <ele>474.97</ele>
        <time>2021-08-05T09:32:31Z</time>
      </trkpt>
      <trkpt lat="42.73741" lon="-1.3546">
        <ele>475.33</ele>
        <time>2021-08-05T09:32:32Z</time>
      </trkpt>
      <trkpt lat="42.73827" lon="-1.35546">
        <ele>476.94</ele>
        <time>2021-08-05T09:32:37Z</time>
      </trkpt>
      <trkpt lat="42.73915" lon="-1.35598">
        <ele>477.27</ele>
        <time>2021-08-05T09:32:42Z</time>
      </trkpt>
      <trkpt lat="42.74028" lon="-1.35598">
        <ele>475.74</ele>
        <time>2021-08-05T09:32:48Z</time>
      </trkpt>
      <trkpt lat="42.74217" lon="-1.35516">
        <ele>473.11</ele>
        <time>2021-08-05T09:32:57Z</time>
      </trkpt>
      <trkpt lat="42.74396" lon="-1.35483">
        <ele>472.41</ele>
        <time>2021-08-05T09:33:05Z</time>
      </trkpt>
      <trkpt lat="42.74439" lon="-1.35477">
        <ele>472.33</ele>
        <time>2021-08-05T09:33:07Z</time>
      </trkpt>
      <trkpt lat="42.74522" lon="-1.35492">
        <ele>472.09</ele>
        <time>2021-08-05T09:33:11Z</time>
      </trkpt>
      <trkpt lat="42.74752" lon="-1.35619">
        <ele>472.52</ele>
        <time>2021-08-05T09:33:22Z</time>
      </trkpt>
      <trkpt lat="42.74808" lon="-1.35653">
        <ele>472.63</ele>
        <time>2021-08-05T09:33:25Z</time>
      </trkpt>
      <trkpt lat="42.74868" lon="-1.3576">
        <ele>472.79</ele>
        <time>2021-08-05T09:33:30Z</time>
      </trkpt>
      <trkpt lat="42.7491" lon="-1.35953">
        <ele>474.52</ele>
        <time>2021-08-05T09:33:37Z</time>
      </trkpt>
      <trkpt lat="42.74984" lon="-1.36145">
        <ele>477.05</ele>
        <time>2021-08-05T09:33:46Z</time>
      </trkpt>
      <trkpt lat="42.74976" lon="-1.36224">
        <ele>476.91</ele>
        <time>2021-08-05T09:33:51Z</time>
      </trkpt>
      <trkpt lat="42.74964" lon="-1.36236">
        <ele>476.91</ele>
        <time>2021-08-05T09:33:52Z</time>
      </trkpt>
      <trkpt lat="42.74887" lon="-1.36335">
        <ele>480.05</ele>
        <time>2021-08-05T09:34:00Z</time>
      </trkpt>
      <trkpt lat="42.74878" lon="-1.36348">
        <ele>480.71</ele>
        <time>2021-08-05T09:34:01Z</time>
      </trkpt>
      <trkpt lat="42.74874" lon="-1.3643">
        <ele>484.52</ele>
        <time>2021-08-05T09:34:07Z</time>
      </trkpt>
      <trkpt lat="42.74882" lon="-1.36449">
        <ele>484.99</ele>
        <time>2021-08-05T09:34:08Z</time>
      </trkpt>
      <trkpt lat="42.7497" lon="-1.36649">
        <ele>484.99</ele>
        <time>2021-08-05T09:34:17Z</time>
      </trkpt>
      <trkpt lat="42.75127" lon="-1.37011">
        <ele>482.84</ele>
        <time>2021-08-05T09:34:32Z</time>
      </trkpt>
      <trkpt lat="42.7529" lon="-1.37386">
        <ele>480.05</ele>
        <time>2021-08-05T09:34:47Z</time>
      </trkpt>
      <trkpt lat="42.75386" lon="-1.3761">
        <ele>478.44</ele>
        <time>2021-08-05T09:34:56Z</time>
      </trkpt>
      <trkpt lat="42.75514" lon="-1.37771">
        <ele>477.84</ele>
        <time>2021-08-05T09:35:04Z</time>
      </trkpt>
      <trkpt lat="42.75562" lon="-1.37828">
        <ele>477.63</ele>
        <time>2021-08-05T09:35:07Z</time>
      </trkpt>
      <trkpt lat="42.75609" lon="-1.37947">
        <ele>477.04</ele>
        <time>2021-08-05T09:35:12Z</time>
      </trkpt>
      <trkpt lat="42.7561" lon="-1.37975">
        <ele>477</ele>
        <time>2021-08-05T09:35:13Z</time>
      </trkpt>
      <trkpt lat="42.75608" lon="-1.38385">
        <ele>477.08</ele>
        <time>2021-08-05T09:35:27Z</time>
      </trkpt>
      <trkpt lat="42.75589" lon="-1.38513">
        <ele>477.48</ele>
        <time>2021-08-05T09:35:32Z</time>
      </trkpt>
      <trkpt lat="42.75595" lon="-1.38691">
        <ele>481.3</ele>
        <time>2021-08-05T09:35:40Z</time>
      </trkpt>
      <trkpt lat="42.75641" lon="-1.3876">
        <ele>485.14</ele>
        <time>2021-08-05T09:35:46Z</time>
      </trkpt>
      <trkpt lat="42.75656" lon="-1.38762">
        <ele>486.05</ele>
        <time>2021-08-05T09:35:48Z</time>
      </trkpt>
      <trkpt lat="42.75694" lon="-1.38765">
        <ele>487.22</ele>
        <time>2021-08-05T09:35:54Z</time>
      </trkpt>
      <trkpt lat="42.75713" lon="-1.3876">
        <ele>487.17</ele>
        <time>2021-08-05T09:36:01Z</time>
      </trkpt>
      <trkpt lat="42.7571" lon="-1.38762">
        <ele>486.63</ele>
        <time>2021-08-05T09:36:16Z</time>
      </trkpt>
      <trkpt lat="42.7571" lon="-1.38762">
        <ele>486.6</ele>
        <time>2021-08-05T09:36:20Z</time>
      </trkpt>
      <trkpt lat="42.7571" lon="-1.38758">
        <ele>486.84</ele>
        <time>2021-08-05T09:36:36Z</time>
      </trkpt>
      <trkpt lat="42.75695" lon="-1.38761">
        <ele>487.09</ele>
        <time>2021-08-05T09:36:40Z</time>
      </trkpt>
      <trkpt lat="42.75659" lon="-1.38755">
        <ele>487.37</ele>
        <time>2021-08-05T09:36:44Z</time>
      </trkpt>
      <trkpt lat="42.75646" lon="-1.38728">
        <ele>487.94</ele>
        <time>2021-08-05T09:36:50Z</time>
      </trkpt>
      <trkpt lat="42.7565" lon="-1.38723">
        <ele>488.02</ele>
        <time>2021-08-05T09:36:51Z</time>
      </trkpt>
      <trkpt lat="42.75667" lon="-1.38676">
        <ele>488.96</ele>
        <time>2021-08-05T09:36:59Z</time>
      </trkpt>
      <trkpt lat="42.75696" lon="-1.38628">
        <ele>489.57</ele>
        <time>2021-08-05T09:37:07Z</time>
      </trkpt>
      <trkpt lat="42.75699" lon="-1.38585">
        <ele>489.93</ele>
        <time>2021-08-05T09:37:11Z</time>
      </trkpt>
      <trkpt lat="42.75693" lon="-1.38476">
        <ele>492</ele>
        <time>2021-08-05T09:37:19Z</time>
      </trkpt>
      <trkpt lat="42.75704" lon="-1.38455">
        <ele>493.09</ele>
        <time>2021-08-05T09:37:23Z</time>
      </trkpt>
      <trkpt lat="42.75779" lon="-1.38398">
        <ele>496</ele>
        <time>2021-08-05T09:37:34Z</time>
      </trkpt>
      <trkpt lat="42.75874" lon="-1.38324">
        <ele>498.27</ele>
        <time>2021-08-05T09:37:43Z</time>
      </trkpt>
      <trkpt lat="42.75928" lon="-1.38284">
        <ele>499</ele>
        <time>2021-08-05T09:37:48Z</time>
      </trkpt>
      <trkpt lat="42.75952" lon="-1.38226">
        <ele>499.03</ele>
        <time>2021-08-05T09:37:54Z</time>
      </trkpt>
      <trkpt lat="42.75972" lon="-1.38063">
        <ele>501.23</ele>
        <time>2021-08-05T09:38:04Z</time>
      </trkpt>
      <trkpt lat="42.75988" lon="-1.37939">
        <ele>504.6</ele>
        <time>2021-08-05T09:38:10Z</time>
      </trkpt>
      <trkpt lat="42.75999" lon="-1.37851">
        <ele>507.75</ele>
        <time>2021-08-05T09:38:14Z</time>
      </trkpt>
      <trkpt lat="42.76017" lon="-1.37715">
        <ele>511.04</ele>
        <time>2021-08-05T09:38:20Z</time>
      </trkpt>
      <trkpt lat="42.76036" lon="-1.37578">
        <ele>512.31</ele>
        <time>2021-08-05T09:38:27Z</time>
      </trkpt>
      <trkpt lat="42.76077" lon="-1.37522">
        <ele>512.46</ele>
        <time>2021-08-05T09:38:32Z</time>
      </trkpt>
      <trkpt lat="42.76254" lon="-1.37409">
        <ele>513.74</ele>
        <time>2021-08-05T09:38:45Z</time>
      </trkpt>
      <trkpt lat="42.76466" lon="-1.37267">
        <ele>516.68</ele>
        <time>2021-08-05T09:39:01Z</time>
      </trkpt>
      <trkpt lat="42.76586" lon="-1.37188">
        <ele>519.99</ele>
        <time>2021-08-05T09:39:10Z</time>
      </trkpt>
      <trkpt lat="42.76653" lon="-1.37137">
        <ele>523.14</ele>
        <time>2021-08-05T09:39:15Z</time>
      </trkpt>
      <trkpt lat="42.76757" lon="-1.37059">
        <ele>526.2</ele>
        <time>2021-08-05T09:39:23Z</time>
      </trkpt>
      <trkpt lat="42.76917" lon="-1.3694">
        <ele>527.22</ele>
        <time>2021-08-05T09:39:36Z</time>
      </trkpt>
      <trkpt lat="42.77071" lon="-1.36823">
        <ele>530.3</ele>
        <time>2021-08-05T09:39:47Z</time>
      </trkpt>
      <trkpt lat="42.77108" lon="-1.36795">
        <ele>531.81</ele>
        <time>2021-08-05T09:39:50Z</time>
      </trkpt>
      <trkpt lat="42.77183" lon="-1.3678">
        <ele>534.07</ele>
        <time>2021-08-05T09:39:56Z</time>
      </trkpt>
      <trkpt lat="42.7724" lon="-1.36783">
        <ele>534.99</ele>
        <time>2021-08-05T09:40:01Z</time>
      </trkpt>
      <trkpt lat="42.77332" lon="-1.36777">
        <ele>536.77</ele>
        <time>2021-08-05T09:40:08Z</time>
      </trkpt>
      <trkpt lat="42.77393" lon="-1.36766">
        <ele>538.63</ele>
        <time>2021-08-05T09:40:15Z</time>
      </trkpt>
      <trkpt lat="42.7744" lon="-1.36761">
        <ele>540.22</ele>
        <time>2021-08-05T09:40:25Z</time>
      </trkpt>
      <trkpt lat="42.77441" lon="-1.36764">
        <ele>541.32</ele>
        <time>2021-08-05T09:40:35Z</time>
      </trkpt>
      <trkpt lat="42.77441" lon="-1.36764">
        <ele>541.62</ele>
        <time>2021-08-05T09:40:42Z</time>
      </trkpt>
      <trkpt lat="42.77484" lon="-1.36751">
        <ele>542.18</ele>
        <time>2021-08-05T09:40:50Z</time>
      </trkpt>
      <trkpt lat="42.77503" lon="-1.36744">
        <ele>542.53</ele>
        <time>2021-08-05T09:40:52Z</time>
      </trkpt>
      <trkpt lat="42.7752" lon="-1.36734">
        <ele>542.98</ele>
        <time>2021-08-05T09:40:54Z</time>
      </trkpt>
      <trkpt lat="42.77548" lon="-1.36743">
        <ele>544.37</ele>
        <time>2021-08-05T09:40:58Z</time>
      </trkpt>
      <trkpt lat="42.77554" lon="-1.36751">
        <ele>544.78</ele>
        <time>2021-08-05T09:40:59Z</time>
      </trkpt>
      <trkpt lat="42.7756" lon="-1.36758">
        <ele>545.18</ele>
        <time>2021-08-05T09:41:00Z</time>
      </trkpt>
      <trkpt lat="42.77567" lon="-1.36763">
        <ele>545.5</ele>
        <time>2021-08-05T09:41:01Z</time>
      </trkpt>
      <trkpt lat="42.77575" lon="-1.36765">
        <ele>545.71</ele>
        <time>2021-08-05T09:41:02Z</time>
      </trkpt>
      <trkpt lat="42.77584" lon="-1.36765">
        <ele>545.81</ele>
        <time>2021-08-05T09:41:03Z</time>
      </trkpt>
      <trkpt lat="42.77594" lon="-1.36764">
        <ele>545.87</ele>
        <time>2021-08-05T09:41:04Z</time>
      </trkpt>
      <trkpt lat="42.77645" lon="-1.36789">
        <ele>543.55</ele>
        <time>2021-08-05T09:41:09Z</time>
      </trkpt>
      <trkpt lat="42.77691" lon="-1.3683">
        <ele>539.14</ele>
        <time>2021-08-05T09:41:13Z</time>
      </trkpt>
      <trkpt lat="42.77729" lon="-1.36848">
        <ele>534.54</ele>
        <time>2021-08-05T09:41:16Z</time>
      </trkpt>
      <trkpt lat="42.77761" lon="-1.36878">
        <ele>528.92</ele>
        <time>2021-08-05T09:41:19Z</time>
      </trkpt>
      <trkpt lat="42.7777" lon="-1.3689">
        <ele>526.99</ele>
        <time>2021-08-05T09:41:20Z</time>
      </trkpt>
      <trkpt lat="42.7779" lon="-1.3693">
        <ele>521.23</ele>
        <time>2021-08-05T09:41:23Z</time>
      </trkpt>
      <trkpt lat="42.77805" lon="-1.36944">
        <ele>517.48</ele>
        <time>2021-08-05T09:41:25Z</time>
      </trkpt>
      <trkpt lat="42.77845" lon="-1.36978">
        <ele>509.49</ele>
        <time>2021-08-05T09:41:30Z</time>
      </trkpt>
      <trkpt lat="42.77853" lon="-1.36987">
        <ele>508.06</ele>
        <time>2021-08-05T09:41:31Z</time>
      </trkpt>
      <trkpt lat="42.77888" lon="-1.3704">
        <ele>503.03</ele>
        <time>2021-08-05T09:41:36Z</time>
      </trkpt>
      <trkpt lat="42.77938" lon="-1.37052">
        <ele>499.57</ele>
        <time>2021-08-05T09:41:43Z</time>
      </trkpt>
      <trkpt lat="42.77946" lon="-1.37046">
        <ele>499.18</ele>
        <time>2021-08-05T09:41:44Z</time>
      </trkpt>
      <trkpt lat="42.77977" lon="-1.37014">
        <ele>498.56</ele>
        <time>2021-08-05T09:41:48Z</time>
      </trkpt>
      <trkpt lat="42.78003" lon="-1.36997">
        <ele>498.72</ele>
        <time>2021-08-05T09:41:52Z</time>
      </trkpt>
      <trkpt lat="42.78033" lon="-1.36972">
        <ele>498.83</ele>
        <time>2021-08-05T09:41:57Z</time>
      </trkpt>
      <trkpt lat="42.78043" lon="-1.36959">
        <ele>498.8</ele>
        <time>2021-08-05T09:41:59Z</time>
      </trkpt>
      <trkpt lat="42.78065" lon="-1.36942">
        <ele>498.52</ele>
        <time>2021-08-05T09:42:02Z</time>
      </trkpt>
      <trkpt lat="42.78143" lon="-1.36851">
        <ele>497.74</ele>
        <time>2021-08-05T09:42:12Z</time>
      </trkpt>
      <trkpt lat="42.7816" lon="-1.36823">
        <ele>497.82</ele>
        <time>2021-08-05T09:42:15Z</time>
      </trkpt>
      <trkpt lat="42.7817" lon="-1.36777">
        <ele>497.85</ele>
        <time>2021-08-05T09:42:22Z</time>
      </trkpt>
      <trkpt lat="42.78199" lon="-1.36789">
        <ele>497.98</ele>
        <time>2021-08-05T09:42:26Z</time>
      </trkpt>
      <trkpt lat="42.78216" lon="-1.36777">
        <ele>497.99</ele>
        <time>2021-08-05T09:42:28Z</time>
      </trkpt>
      <trkpt lat="42.78236" lon="-1.36753">
        <ele>498.21</ele>
        <time>2021-08-05T09:42:31Z</time>
      </trkpt>
      <trkpt lat="42.7829" lon="-1.36713">
        <ele>498.92</ele>
        <time>2021-08-05T09:42:39Z</time>
      </trkpt>
      <trkpt lat="42.78317" lon="-1.36679">
        <ele>497.94</ele>
        <time>2021-08-05T09:42:48Z</time>
      </trkpt>
      <trkpt lat="42.78321" lon="-1.36675">
        <ele>498</ele>
        <time>2021-08-05T09:42:49Z</time>
      </trkpt>
      <trkpt lat="42.78326" lon="-1.36671">
        <ele>498.09</ele>
        <time>2021-08-05T09:42:50Z</time>
      </trkpt>
      <trkpt lat="42.78332" lon="-1.36668">
        <ele>498.17</ele>
        <time>2021-08-05T09:42:51Z</time>
      </trkpt>
      <trkpt lat="42.78338" lon="-1.36668">
        <ele>498.23</ele>
        <time>2021-08-05T09:42:52Z</time>
      </trkpt>
      <trkpt lat="42.78345" lon="-1.36668">
        <ele>498.28</ele>
        <time>2021-08-05T09:42:53Z</time>
      </trkpt>
      <trkpt lat="42.78377" lon="-1.36661">
        <ele>498.62</ele>
        <time>2021-08-05T09:42:57Z</time>
      </trkpt>
      <trkpt lat="42.78385" lon="-1.36657">
        <ele>498.66</ele>
        <time>2021-08-05T09:42:58Z</time>
      </trkpt>
      <trkpt lat="42.78392" lon="-1.36652">
        <ele>498.66</ele>
        <time>2021-08-05T09:42:59Z</time>
      </trkpt>
      <trkpt lat="42.784" lon="-1.36647">
        <ele>498.66</ele>
        <time>2021-08-05T09:43:00Z</time>
      </trkpt>
      <trkpt lat="42.78433" lon="-1.36628">
        <ele>498.24</ele>
        <time>2021-08-05T09:43:07Z</time>
      </trkpt>
      <trkpt lat="42.78446" lon="-1.36609">
        <ele>498.16</ele>
        <time>2021-08-05T09:43:11Z</time>
      </trkpt>
      <trkpt lat="42.78472" lon="-1.36597">
        <ele>498.59</ele>
        <time>2021-08-05T09:43:15Z</time>
      </trkpt>
      <trkpt lat="42.78502" lon="-1.36587">
        <ele>499.29</ele>
        <time>2021-08-05T09:43:19Z</time>
      </trkpt>
      <trkpt lat="42.7853" lon="-1.36589">
        <ele>498.98</ele>
        <time>2021-08-05T09:43:22Z</time>
      </trkpt>
      <trkpt lat="42.78549" lon="-1.36586">
        <ele>497.85</ele>
        <time>2021-08-05T09:43:24Z</time>
      </trkpt>
      <trkpt lat="42.78558" lon="-1.36582">
        <ele>497.12</ele>
        <time>2021-08-05T09:43:25Z</time>
      </trkpt>
      <trkpt lat="42.78568" lon="-1.36577">
        <ele>496.34</ele>
        <time>2021-08-05T09:43:26Z</time>
      </trkpt>
      <trkpt lat="42.78578" lon="-1.36571">
        <ele>495.59</ele>
        <time>2021-08-05T09:43:27Z</time>
      </trkpt>
      <trkpt lat="42.78661" lon="-1.36531">
        <ele>492.65</ele>
        <time>2021-08-05T09:43:36Z</time>
      </trkpt>
      <trkpt lat="42.78714" lon="-1.3651">
        <ele>491.02</ele>
        <time>2021-08-05T09:43:44Z</time>
      </trkpt>
      <trkpt lat="42.78725" lon="-1.36501">
        <ele>489.5</ele>
        <time>2021-08-05T09:43:55Z</time>
      </trkpt>
      <trkpt lat="42.78749" lon="-1.36478">
        <ele>488.7</ele>
        <time>2021-08-05T09:44:08Z</time>
      </trkpt>
      <trkpt lat="42.78796" lon="-1.36444">
        <ele>488.32</ele>
        <time>2021-08-05T09:44:19Z</time>
      </trkpt>
      <trkpt lat="42.78819" lon="-1.36383">
        <ele>490.62</ele>
        <time>2021-08-05T09:44:26Z</time>
      </trkpt>
      <trkpt lat="42.78832" lon="-1.36375">
        <ele>493.06</ele>
        <time>2021-08-05T09:44:30Z</time>
      </trkpt>
      <trkpt lat="42.78844" lon="-1.36374">
        <ele>494.68</ele>
        <time>2021-08-05T09:44:34Z</time>
      </trkpt>
      <trkpt lat="42.78856" lon="-1.36326">
        <ele>497.98</ele>
        <time>2021-08-05T09:44:41Z</time>
      </trkpt>
      <trkpt lat="42.78851" lon="-1.36294">
        <ele>500.65</ele>
        <time>2021-08-05T09:44:44Z</time>
      </trkpt>
      <trkpt lat="42.78851" lon="-1.36282">
        <ele>501.82</ele>
        <time>2021-08-05T09:44:45Z</time>
      </trkpt>
      <trkpt lat="42.78852" lon="-1.36271">
        <ele>503.08</ele>
        <time>2021-08-05T09:44:46Z</time>
      </trkpt>
      <trkpt lat="42.78853" lon="-1.36259">
        <ele>504.29</ele>
        <time>2021-08-05T09:44:47Z</time>
      </trkpt>
      <trkpt lat="42.78854" lon="-1.36223">
        <ele>508.02</ele>
        <time>2021-08-05T09:44:50Z</time>
      </trkpt>
      <trkpt lat="42.78862" lon="-1.36181">
        <ele>513.1</ele>
        <time>2021-08-05T09:44:54Z</time>
      </trkpt>
      <trkpt lat="42.78863" lon="-1.36171">
        <ele>514.55</ele>
        <time>2021-08-05T09:44:55Z</time>
      </trkpt>
      <trkpt lat="42.78863" lon="-1.36142">
        <ele>519.21</ele>
        <time>2021-08-05T09:44:58Z</time>
      </trkpt>
      <trkpt lat="42.7887" lon="-1.36129">
        <ele>522.4</ele>
        <time>2021-08-05T09:45:00Z</time>
      </trkpt>
      <trkpt lat="42.78877" lon="-1.36125">
        <ele>524.01</ele>
        <time>2021-08-05T09:45:01Z</time>
      </trkpt>
      <trkpt lat="42.78911" lon="-1.36105">
        <ele>529.42</ele>
        <time>2021-08-05T09:45:05Z</time>
      </trkpt>
      <trkpt lat="42.78937" lon="-1.36081">
        <ele>533.1</ele>
        <time>2021-08-05T09:45:08Z</time>
      </trkpt>
      <trkpt lat="42.78962" lon="-1.3605">
        <ele>536.6</ele>
        <time>2021-08-05T09:45:11Z</time>
      </trkpt>
      <trkpt lat="42.78984" lon="-1.3602">
        <ele>540.8</ele>
        <time>2021-08-05T09:45:14Z</time>
      </trkpt>
      <trkpt lat="42.78997" lon="-1.36">
        <ele>543.93</ele>
        <time>2021-08-05T09:45:16Z</time>
      </trkpt>
      <trkpt lat="42.79009" lon="-1.35982">
        <ele>547.14</ele>
        <time>2021-08-05T09:45:18Z</time>
      </trkpt>
      <trkpt lat="42.79021" lon="-1.35964">
        <ele>550.46</ele>
        <time>2021-08-05T09:45:20Z</time>
      </trkpt>
      <trkpt lat="42.79031" lon="-1.35948">
        <ele>555.55</ele>
        <time>2021-08-05T09:45:22Z</time>
      </trkpt>
      <trkpt lat="42.79036" lon="-1.35941">
        <ele>555.55</ele>
        <time>2021-08-05T09:45:23Z</time>
      </trkpt>
      <trkpt lat="42.79044" lon="-1.35926">
        <ele>558.86</ele>
        <time>2021-08-05T09:45:25Z</time>
      </trkpt>
      <trkpt lat="42.79046" lon="-1.3592">
        <ele>562.01</ele>
        <time>2021-08-05T09:45:26Z</time>
      </trkpt>
      <trkpt lat="42.79044" lon="-1.35905">
        <ele>566.29</ele>
        <time>2021-08-05T09:45:29Z</time>
      </trkpt>
      <trkpt lat="42.79027" lon="-1.35906">
        <ele>569.76</ele>
        <time>2021-08-05T09:45:32Z</time>
      </trkpt>
      <trkpt lat="42.79004" lon="-1.3592">
        <ele>572.82</ele>
        <time>2021-08-05T09:45:35Z</time>
      </trkpt>
      <trkpt lat="42.78981" lon="-1.35923">
        <ele>575.93</ele>
        <time>2021-08-05T09:45:38Z</time>
      </trkpt>
      <trkpt lat="42.78974" lon="-1.35921">
        <ele>577.04</ele>
        <time>2021-08-05T09:45:39Z</time>
      </trkpt>
      <trkpt lat="42.78928" lon="-1.35911">
        <ele>582.56</ele>
        <time>2021-08-05T09:45:45Z</time>
      </trkpt>
      <trkpt lat="42.78884" lon="-1.35894">
        <ele>585.65</ele>
        <time>2021-08-05T09:45:50Z</time>
      </trkpt>
      <trkpt lat="42.78864" lon="-1.3588">
        <ele>586.76</ele>
        <time>2021-08-05T09:45:52Z</time>
      </trkpt>
      <trkpt lat="42.78846" lon="-1.35863">
        <ele>588</ele>
        <time>2021-08-05T09:45:54Z</time>
      </trkpt>
      <trkpt lat="42.7883" lon="-1.3584">
        <ele>589.84</ele>
        <time>2021-08-05T09:45:57Z</time>
      </trkpt>
      <trkpt lat="42.78846" lon="-1.35817">
        <ele>592.21</ele>
        <time>2021-08-05T09:46:01Z</time>
      </trkpt>
      <trkpt lat="42.78875" lon="-1.35775">
        <ele>596.09</ele>
        <time>2021-08-05T09:46:06Z</time>
      </trkpt>
      <trkpt lat="42.78887" lon="-1.35722">
        <ele>601.09</ele>
        <time>2021-08-05T09:46:11Z</time>
      </trkpt>
      <trkpt lat="42.78875" lon="-1.35693">
        <ele>604.47</ele>
        <time>2021-08-05T09:46:14Z</time>
      </trkpt>
      <trkpt lat="42.78842" lon="-1.35649">
        <ele>609.49</ele>
        <time>2021-08-05T09:46:19Z</time>
      </trkpt>
      <trkpt lat="42.78817" lon="-1.35623">
        <ele>612.69</ele>
        <time>2021-08-05T09:46:22Z</time>
      </trkpt>
      <trkpt lat="42.788" lon="-1.356">
        <ele>615.9</ele>
        <time>2021-08-05T09:46:25Z</time>
      </trkpt>
      <trkpt lat="42.78793" lon="-1.35587">
        <ele>618.09</ele>
        <time>2021-08-05T09:46:27Z</time>
      </trkpt>
      <trkpt lat="42.78802" lon="-1.35544">
        <ele>622.81</ele>
        <time>2021-08-05T09:46:32Z</time>
      </trkpt>
      <trkpt lat="42.78824" lon="-1.35505">
        <ele>626.84</ele>
        <time>2021-08-05T09:46:36Z</time>
      </trkpt>
      <trkpt lat="42.78843" lon="-1.35477">
        <ele>630.4</ele>
        <time>2021-08-05T09:46:39Z</time>
      </trkpt>
      <trkpt lat="42.7886" lon="-1.35456">
        <ele>634.38</ele>
        <time>2021-08-05T09:46:42Z</time>
      </trkpt>
      <trkpt lat="42.78862" lon="-1.35429">
        <ele>639.49</ele>
        <time>2021-08-05T09:46:46Z</time>
      </trkpt>
      <trkpt lat="42.78841" lon="-1.35415">
        <ele>643.27</ele>
        <time>2021-08-05T09:46:49Z</time>
      </trkpt>
      <trkpt lat="42.78805" lon="-1.35378">
        <ele>647.22</ele>
        <time>2021-08-05T09:46:53Z</time>
      </trkpt>
      <trkpt lat="42.78782" lon="-1.35306">
        <ele>650.9</ele>
        <time>2021-08-05T09:46:58Z</time>
      </trkpt>
      <trkpt lat="42.78774" lon="-1.35237">
        <ele>653.96</ele>
        <time>2021-08-05T09:47:04Z</time>
      </trkpt>
      <trkpt lat="42.78787" lon="-1.35172">
        <ele>657.92</ele>
        <time>2021-08-05T09:47:09Z</time>
      </trkpt>
      <trkpt lat="42.788" lon="-1.35149">
        <ele>659.52</ele>
        <time>2021-08-05T09:47:11Z</time>
      </trkpt>
      <trkpt lat="42.78813" lon="-1.35127">
        <ele>661.21</ele>
        <time>2021-08-05T09:47:13Z</time>
      </trkpt>
      <trkpt lat="42.78816" lon="-1.35059">
        <ele>665.22</ele>
        <time>2021-08-05T09:47:18Z</time>
      </trkpt>
      <trkpt lat="42.78795" lon="-1.35016">
        <ele>667.17</ele>
        <time>2021-08-05T09:47:21Z</time>
      </trkpt>
      <trkpt lat="42.78797" lon="-1.34919">
        <ele>667.55</ele>
        <time>2021-08-05T09:47:28Z</time>
      </trkpt>
      <trkpt lat="42.78834" lon="-1.34877">
        <ele>669.7</ele>
        <time>2021-08-05T09:47:38Z</time>
      </trkpt>
      <trkpt lat="42.78858" lon="-1.34851">
        <ele>673.05</ele>
        <time>2021-08-05T09:47:48Z</time>
      </trkpt>
      <trkpt lat="42.78876" lon="-1.34811">
        <ele>676.15</ele>
        <time>2021-08-05T09:47:56Z</time>
      </trkpt>
      <trkpt lat="42.7889" lon="-1.34783">
        <ele>678.16</ele>
        <time>2021-08-05T09:48:00Z</time>
      </trkpt>
      <trkpt lat="42.78924" lon="-1.34748">
        <ele>681.79</ele>
        <time>2021-08-05T09:48:05Z</time>
      </trkpt>
      <trkpt lat="42.78958" lon="-1.34717">
        <ele>685.3</ele>
        <time>2021-08-05T09:48:09Z</time>
      </trkpt>
      <trkpt lat="42.78982" lon="-1.34701">
        <ele>688.62</ele>
        <time>2021-08-05T09:48:12Z</time>
      </trkpt>
      <trkpt lat="42.78995" lon="-1.34693">
        <ele>691.11</ele>
        <time>2021-08-05T09:48:14Z</time>
      </trkpt>
      <trkpt lat="42.79026" lon="-1.3469">
        <ele>696.17</ele>
        <time>2021-08-05T09:48:18Z</time>
      </trkpt>
      <trkpt lat="42.79059" lon="-1.34697">
        <ele>701.32</ele>
        <time>2021-08-05T09:48:22Z</time>
      </trkpt>
      <trkpt lat="42.79071" lon="-1.34701">
        <ele>703.79</ele>
        <time>2021-08-05T09:48:24Z</time>
      </trkpt>
      <trkpt lat="42.79099" lon="-1.34702">
        <ele>708.39</ele>
        <time>2021-08-05T09:48:28Z</time>
      </trkpt>
      <trkpt lat="42.79122" lon="-1.34683">
        <ele>711.19</ele>
        <time>2021-08-05T09:48:31Z</time>
      </trkpt>
      <trkpt lat="42.79138" lon="-1.34667">
        <ele>713.17</ele>
        <time>2021-08-05T09:48:33Z</time>
      </trkpt>
      <trkpt lat="42.79178" lon="-1.3465">
        <ele>715.55</ele>
        <time>2021-08-05T09:48:37Z</time>
      </trkpt>
      <trkpt lat="42.7923" lon="-1.34597">
        <ele>719.06</ele>
        <time>2021-08-05T09:48:44Z</time>
      </trkpt>
      <trkpt lat="42.79241" lon="-1.34565">
        <ele>721.21</ele>
        <time>2021-08-05T09:48:47Z</time>
      </trkpt>
      <trkpt lat="42.7927" lon="-1.34535">
        <ele>725.26</ele>
        <time>2021-08-05T09:48:52Z</time>
      </trkpt>
      <trkpt lat="42.79316" lon="-1.3451">
        <ele>730.29</ele>
        <time>2021-08-05T09:48:58Z</time>
      </trkpt>
      <trkpt lat="42.79325" lon="-1.3451">
        <ele>731.14</ele>
        <time>2021-08-05T09:48:59Z</time>
      </trkpt>
      <trkpt lat="42.7937" lon="-1.34507">
        <ele>735.36</ele>
        <time>2021-08-05T09:49:04Z</time>
      </trkpt>
      <trkpt lat="42.79378" lon="-1.34506">
        <ele>736.21</ele>
        <time>2021-08-05T09:49:05Z</time>
      </trkpt>
      <trkpt lat="42.79415" lon="-1.34513">
        <ele>740.98</ele>
        <time>2021-08-05T09:49:10Z</time>
      </trkpt>
      <trkpt lat="42.79424" lon="-1.34515">
        <ele>742.81</ele>
        <time>2021-08-05T09:49:12Z</time>
      </trkpt>
      <trkpt lat="42.79454" lon="-1.34504">
        <ele>746.8</ele>
        <time>2021-08-05T09:49:17Z</time>
      </trkpt>
      <trkpt lat="42.79513" lon="-1.34461">
        <ele>750.74</ele>
        <time>2021-08-05T09:49:24Z</time>
      </trkpt>
      <trkpt lat="42.79563" lon="-1.34431">
        <ele>754.09</ele>
        <time>2021-08-05T09:49:29Z</time>
      </trkpt>
      <trkpt lat="42.79573" lon="-1.34426">
        <ele>754.9</ele>
        <time>2021-08-05T09:49:30Z</time>
      </trkpt>
      <trkpt lat="42.79614" lon="-1.34425">
        <ele>758.1</ele>
        <time>2021-08-05T09:49:34Z</time>
      </trkpt>
      <trkpt lat="42.79663" lon="-1.3445">
        <ele>762.97</ele>
        <time>2021-08-05T09:49:40Z</time>
      </trkpt>
      <trkpt lat="42.79672" lon="-1.34454">
        <ele>763.79</ele>
        <time>2021-08-05T09:49:41Z</time>
      </trkpt>
      <trkpt lat="42.7972" lon="-1.34464">
        <ele>767.89</ele>
        <time>2021-08-05T09:49:46Z</time>
      </trkpt>
      <trkpt lat="42.79745" lon="-1.34497">
        <ele>771.36</ele>
        <time>2021-08-05T09:49:50Z</time>
      </trkpt>
      <trkpt lat="42.79769" lon="-1.34541">
        <ele>775.36</ele>
        <time>2021-08-05T09:49:55Z</time>
      </trkpt>
      <trkpt lat="42.79794" lon="-1.34572">
        <ele>778.45</ele>
        <time>2021-08-05T09:49:59Z</time>
      </trkpt>
      <trkpt lat="42.79821" lon="-1.34602">
        <ele>781.48</ele>
        <time>2021-08-05T09:50:03Z</time>
      </trkpt>
      <trkpt lat="42.79858" lon="-1.34638">
        <ele>784.85</ele>
        <time>2021-08-05T09:50:08Z</time>
      </trkpt>
      <trkpt lat="42.79865" lon="-1.34646">
        <ele>785.37</ele>
        <time>2021-08-05T09:50:09Z</time>
      </trkpt>
      <trkpt lat="42.79888" lon="-1.34633">
        <ele>788.64</ele>
        <time>2021-08-05T09:50:14Z</time>
      </trkpt>
      <trkpt lat="42.79877" lon="-1.34614">
        <ele>790.07</ele>
        <time>2021-08-05T09:50:16Z</time>
      </trkpt>
      <trkpt lat="42.79859" lon="-1.34555">
        <ele>794.73</ele>
        <time>2021-08-05T09:50:22Z</time>
      </trkpt>
      <trkpt lat="42.79857" lon="-1.34545">
        <ele>794.73</ele>
        <time>2021-08-05T09:50:23Z</time>
      </trkpt>
      <trkpt lat="42.79845" lon="-1.34514">
        <ele>797.08</ele>
        <time>2021-08-05T09:50:26Z</time>
      </trkpt>
      <trkpt lat="42.79829" lon="-1.34436">
        <ele>800.78</ele>
        <time>2021-08-05T09:50:33Z</time>
      </trkpt>
      <trkpt lat="42.79816" lon="-1.34395">
        <ele>802.38</ele>
        <time>2021-08-05T09:50:37Z</time>
      </trkpt>
      <trkpt lat="42.79798" lon="-1.34372">
        <ele>803.82</ele>
        <time>2021-08-05T09:50:40Z</time>
      </trkpt>
      <trkpt lat="42.79788" lon="-1.34357">
        <ele>805.01</ele>
        <time>2021-08-05T09:50:42Z</time>
      </trkpt>
      <trkpt lat="42.79775" lon="-1.34329">
        <ele>807.13</ele>
        <time>2021-08-05T09:50:45Z</time>
      </trkpt>
      <trkpt lat="42.79753" lon="-1.34293">
        <ele>809.56</ele>
        <time>2021-08-05T09:50:49Z</time>
      </trkpt>
      <trkpt lat="42.7972" lon="-1.34274">
        <ele>812.06</ele>
        <time>2021-08-05T09:50:53Z</time>
      </trkpt>
      <trkpt lat="42.79658" lon="-1.34271">
        <ele>815.91</ele>
        <time>2021-08-05T09:51:00Z</time>
      </trkpt>
      <trkpt lat="42.79649" lon="-1.34272">
        <ele>816.48</ele>
        <time>2021-08-05T09:51:01Z</time>
      </trkpt>
      <trkpt lat="42.79618" lon="-1.34279">
        <ele>818.64</ele>
        <time>2021-08-05T09:51:05Z</time>
      </trkpt>
      <trkpt lat="42.79561" lon="-1.34268">
        <ele>822.45</ele>
        <time>2021-08-05T09:51:12Z</time>
      </trkpt>
      <trkpt lat="42.79539" lon="-1.34223">
        <ele>825.25</ele>
        <time>2021-08-05T09:51:18Z</time>
      </trkpt>
      <trkpt lat="42.79547" lon="-1.34201">
        <ele>826.18</ele>
        <time>2021-08-05T09:51:20Z</time>
      </trkpt>
      <trkpt lat="42.79577" lon="-1.34138">
        <ele>830.05</ele>
        <time>2021-08-05T09:51:27Z</time>
      </trkpt>
      <trkpt lat="42.79613" lon="-1.34086">
        <ele>833.55</ele>
        <time>2021-08-05T09:51:33Z</time>
      </trkpt>
      <trkpt lat="42.79619" lon="-1.34077">
        <ele>834.19</ele>
        <time>2021-08-05T09:51:34Z</time>
      </trkpt>
      <trkpt lat="42.79634" lon="-1.34042">
        <ele>836.4</ele>
        <time>2021-08-05T09:51:38Z</time>
      </trkpt>
      <trkpt lat="42.79654" lon="-1.33977">
        <ele>839.46</ele>
        <time>2021-08-05T09:51:44Z</time>
      </trkpt>
      <trkpt lat="42.79695" lon="-1.33924">
        <ele>843.52</ele>
        <time>2021-08-05T09:51:51Z</time>
      </trkpt>
      <trkpt lat="42.79728" lon="-1.33887">
        <ele>846.61</ele>
        <time>2021-08-05T09:51:56Z</time>
      </trkpt>
      <trkpt lat="42.79765" lon="-1.33849">
        <ele>849.87</ele>
        <time>2021-08-05T09:52:02Z</time>
      </trkpt>
      <trkpt lat="42.79776" lon="-1.33837">
        <ele>850.92</ele>
        <time>2021-08-05T09:52:04Z</time>
      </trkpt>
      <trkpt lat="42.79776" lon="-1.33783">
        <ele>854.38</ele>
        <time>2021-08-05T09:52:10Z</time>
      </trkpt>
      <trkpt lat="42.79745" lon="-1.33707">
        <ele>858.16</ele>
        <time>2021-08-05T09:52:18Z</time>
      </trkpt>
      <trkpt lat="42.7972" lon="-1.33647">
        <ele>861.22</ele>
        <time>2021-08-05T09:52:25Z</time>
      </trkpt>
      <trkpt lat="42.79702" lon="-1.33617">
        <ele>863.51</ele>
        <time>2021-08-05T09:52:29Z</time>
      </trkpt>
      <trkpt lat="42.79706" lon="-1.336">
        <ele>867.24</ele>
        <time>2021-08-05T09:52:35Z</time>
      </trkpt>
      <trkpt lat="42.79708" lon="-1.33602">
        <ele>867.78</ele>
        <time>2021-08-05T09:52:36Z</time>
      </trkpt>
      <trkpt lat="42.79737" lon="-1.33637">
        <ele>871.53</ele>
        <time>2021-08-05T09:52:45Z</time>
      </trkpt>
      <trkpt lat="42.7977" lon="-1.33669">
        <ele>874.73</ele>
        <time>2021-08-05T09:52:52Z</time>
      </trkpt>
      <trkpt lat="42.7979" lon="-1.33688">
        <ele>877.78</ele>
        <time>2021-08-05T09:52:57Z</time>
      </trkpt>
      <trkpt lat="42.79808" lon="-1.33704">
        <ele>881.32</ele>
        <time>2021-08-05T09:53:03Z</time>
      </trkpt>
      <trkpt lat="42.79811" lon="-1.33707">
        <ele>882.03</ele>
        <time>2021-08-05T09:53:04Z</time>
      </trkpt>
      <trkpt lat="42.79832" lon="-1.33731">
        <ele>885.65</ele>
        <time>2021-08-05T09:53:10Z</time>
      </trkpt>
      <trkpt lat="42.79847" lon="-1.33753">
        <ele>888.33</ele>
        <time>2021-08-05T09:53:15Z</time>
      </trkpt>
      <trkpt lat="42.79861" lon="-1.3377">
        <ele>890.17</ele>
        <time>2021-08-05T09:53:19Z</time>
      </trkpt>
      <trkpt lat="42.79885" lon="-1.33814">
        <ele>892.98</ele>
        <time>2021-08-05T09:53:27Z</time>
      </trkpt>
      <trkpt lat="42.7989" lon="-1.33862">
        <ele>895.53</ele>
        <time>2021-08-05T09:53:35Z</time>
      </trkpt>
      <trkpt lat="42.79871" lon="-1.33915">
        <ele>898.48</ele>
        <time>2021-08-05T09:53:44Z</time>
      </trkpt>
      <trkpt lat="42.79855" lon="-1.3394">
        <ele>899.38</ele>
        <time>2021-08-05T09:53:48Z</time>
      </trkpt>
      <trkpt lat="42.79846" lon="-1.33955">
        <ele>899.76</ele>
        <time>2021-08-05T09:53:50Z</time>
      </trkpt>
      <trkpt lat="42.79846" lon="-1.34016">
        <ele>901.81</ele>
        <time>2021-08-05T09:53:57Z</time>
      </trkpt>
      <trkpt lat="42.79858" lon="-1.34026">
        <ele>902.74</ele>
        <time>2021-08-05T09:53:59Z</time>
      </trkpt>
      <trkpt lat="42.79908" lon="-1.34059">
        <ele>906.17</ele>
        <time>2021-08-05T09:54:06Z</time>
      </trkpt>
      <trkpt lat="42.79952" lon="-1.34085">
        <ele>909.43</ele>
        <time>2021-08-05T09:54:12Z</time>
      </trkpt>
      <trkpt lat="42.79995" lon="-1.34111">
        <ele>912.71</ele>
        <time>2021-08-05T09:54:18Z</time>
      </trkpt>
      <trkpt lat="42.80022" lon="-1.34127">
        <ele>915.1</ele>
        <time>2021-08-05T09:54:22Z</time>
      </trkpt>
      <trkpt lat="42.80046" lon="-1.34151">
        <ele>916.94</ele>
        <time>2021-08-05T09:54:26Z</time>
      </trkpt>
      <trkpt lat="42.80057" lon="-1.34134">
        <ele>919.8</ele>
        <time>2021-08-05T09:54:32Z</time>
      </trkpt>
      <trkpt lat="42.80053" lon="-1.34127">
        <ele>920.18</ele>
        <time>2021-08-05T09:54:33Z</time>
      </trkpt>
      <trkpt lat="42.80012" lon="-1.34069">
        <ele>923.51</ele>
        <time>2021-08-05T09:54:41Z</time>
      </trkpt>
      <trkpt lat="42.79974" lon="-1.34021">
        <ele>926.92</ele>
        <time>2021-08-05T09:54:48Z</time>
      </trkpt>
      <trkpt lat="42.79954" lon="-1.3396">
        <ele>930.4</ele>
        <time>2021-08-05T09:54:55Z</time>
      </trkpt>
      <trkpt lat="42.79973" lon="-1.33912">
        <ele>933.06</ele>
        <time>2021-08-05T09:55:00Z</time>
      </trkpt>
      <trkpt lat="42.79989" lon="-1.33891">
        <ele>934.44</ele>
        <time>2021-08-05T09:55:03Z</time>
      </trkpt>
      <trkpt lat="42.80003" lon="-1.33839">
        <ele>937.64</ele>
        <time>2021-08-05T09:55:09Z</time>
      </trkpt>
      <trkpt lat="42.80002" lon="-1.33774">
        <ele>941.74</ele>
        <time>2021-08-05T09:55:16Z</time>
      </trkpt>
      <trkpt lat="42.80001" lon="-1.33733">
        <ele>945.04</ele>
        <time>2021-08-05T09:55:21Z</time>
      </trkpt>
      <trkpt lat="42.80002" lon="-1.33699">
        <ele>948.62</ele>
        <time>2021-08-05T09:55:25Z</time>
      </trkpt>
      <trkpt lat="42.80002" lon="-1.33674">
        <ele>950.66</ele>
        <time>2021-08-05T09:55:28Z</time>
      </trkpt>
      <trkpt lat="42.8001" lon="-1.33642">
        <ele>953.4</ele>
        <time>2021-08-05T09:55:32Z</time>
      </trkpt>
      <trkpt lat="42.80025" lon="-1.33609">
        <ele>955.75</ele>
        <time>2021-08-05T09:55:36Z</time>
      </trkpt>
      <trkpt lat="42.80049" lon="-1.33527">
        <ele>959.5</ele>
        <time>2021-08-05T09:55:44Z</time>
      </trkpt>
      <trkpt lat="42.80073" lon="-1.33449">
        <ele>962.61</ele>
        <time>2021-08-05T09:55:52Z</time>
      </trkpt>
      <trkpt lat="42.80099" lon="-1.33399">
        <ele>965.11</ele>
        <time>2021-08-05T09:55:58Z</time>
      </trkpt>
      <trkpt lat="42.80121" lon="-1.3328">
        <ele>968.4</ele>
        <time>2021-08-05T09:56:09Z</time>
      </trkpt>
      <trkpt lat="42.80131" lon="-1.33222">
        <ele>971.89</ele>
        <time>2021-08-05T09:56:15Z</time>
      </trkpt>
      <trkpt lat="42.80141" lon="-1.33185">
        <ele>975.29</ele>
        <time>2021-08-05T09:56:19Z</time>
      </trkpt>
      <trkpt lat="42.80147" lon="-1.33158">
        <ele>978.79</ele>
        <time>2021-08-05T09:56:23Z</time>
      </trkpt>
      <trkpt lat="42.80152" lon="-1.33133">
        <ele>982.27</ele>
        <time>2021-08-05T09:56:27Z</time>
      </trkpt>
      <trkpt lat="42.80155" lon="-1.33113">
        <ele>984.84</ele>
        <time>2021-08-05T09:56:30Z</time>
      </trkpt>
      <trkpt lat="42.80166" lon="-1.33072">
        <ele>988.69</ele>
        <time>2021-08-05T09:56:36Z</time>
      </trkpt>
      <trkpt lat="42.80168" lon="-1.33062">
        <ele>992.15</ele>
        <time>2021-08-05T09:56:42Z</time>
      </trkpt>
      <trkpt lat="42.80167" lon="-1.33066">
        <ele>993.18</ele>
        <time>2021-08-05T09:56:44Z</time>
      </trkpt>
      <trkpt lat="42.80153" lon="-1.33114">
        <ele>993.99</ele>
        <time>2021-08-05T09:56:54Z</time>
      </trkpt>
      <trkpt lat="42.80147" lon="-1.3315">
        <ele>991.17</ele>
        <time>2021-08-05T09:57:03Z</time>
      </trkpt>
      <trkpt lat="42.80142" lon="-1.33187">
        <ele>987.9</ele>
        <time>2021-08-05T09:57:13Z</time>
      </trkpt>
      <trkpt lat="42.80139" lon="-1.33199">
        <ele>984.87</ele>
        <time>2021-08-05T09:57:21Z</time>
      </trkpt>
      <trkpt lat="42.80134" lon="-1.33223">
        <ele>983.06</ele>
        <time>2021-08-05T09:57:28Z</time>
      </trkpt>
      <trkpt lat="42.80126" lon="-1.33255">
        <ele>980.04</ele>
        <time>2021-08-05T09:57:36Z</time>
      </trkpt>
      <trkpt lat="42.80119" lon="-1.33291">
        <ele>976.74</ele>
        <time>2021-08-05T09:57:45Z</time>
      </trkpt>
      <trkpt lat="42.80115" lon="-1.33319">
        <ele>973.63</ele>
        <time>2021-08-05T09:57:53Z</time>
      </trkpt>
      <trkpt lat="42.80107" lon="-1.33364">
        <ele>970.5</ele>
        <time>2021-08-05T09:58:03Z</time>
      </trkpt>
      <trkpt lat="42.80099" lon="-1.33397">
        <ele>968.29</ele>
        <time>2021-08-05T09:58:15Z</time>
      </trkpt>
      <trkpt lat="42.80099" lon="-1.33396">
        <ele>967.49</ele>
        <time>2021-08-05T09:58:43Z</time>
      </trkpt>
      <trkpt lat="42.80099" lon="-1.33426">
        <ele>967.44</ele>
        <time>2021-08-05T09:58:49Z</time>
      </trkpt>
      <trkpt lat="42.80092" lon="-1.33442">
        <ele>966.95</ele>
        <time>2021-08-05T09:58:54Z</time>
      </trkpt>
      <trkpt lat="42.80093" lon="-1.33449">
        <ele>966.94</ele>
        <time>2021-08-05T09:58:56Z</time>
      </trkpt>
      <trkpt lat="42.80096" lon="-1.33453">
        <ele>966.77</ele>
        <time>2021-08-05T09:59:04Z</time>
      </trkpt>
      <trkpt lat="42.80095" lon="-1.33453">
        <ele>966.84</ele>
        <time>2021-08-05T09:59:06Z</time>
      </trkpt>
      <trkpt lat="42.80099" lon="-1.33428">
        <ele>966.93</ele>
        <time>2021-08-05T09:59:15Z</time>
      </trkpt>
      <trkpt lat="42.801" lon="-1.3342">
        <ele>966.88</ele>
        <time>2021-08-05T09:59:17Z</time>
      </trkpt>
      <trkpt lat="42.80101" lon="-1.3339">
        <ele>966.8</ele>
        <time>2021-08-05T09:59:26Z</time>
      </trkpt>
      <trkpt lat="42.80102" lon="-1.33391">
        <ele>966.99</ele>
        <time>2021-08-05T09:59:35Z</time>
      </trkpt>
      <trkpt lat="42.80092" lon="-1.33413">
        <ele>967.13</ele>
        <time>2021-08-05T09:59:43Z</time>
      </trkpt>
      <trkpt lat="42.80094" lon="-1.33438">
        <ele>966.78</ele>
        <time>2021-08-05T09:59:54Z</time>
      </trkpt>
      <trkpt lat="42.801" lon="-1.33399">
        <ele>966.43</ele>
        <time>2021-08-05T10:00:02Z</time>
      </trkpt>
      <trkpt lat="42.801" lon="-1.33387">
        <ele>966.77</ele>
        <time>2021-08-05T10:00:13Z</time>
      </trkpt>
      <trkpt lat="42.80105" lon="-1.33369">
        <ele>967.23</ele>
        <time>2021-08-05T10:00:55Z</time>
      </trkpt>
      <trkpt lat="42.80105" lon="-1.3337">
        <ele>967.14</ele>
        <time>2021-08-05T10:00:59Z</time>
      </trkpt>
      <trkpt lat="42.801" lon="-1.33395">
        <ele>966.82</ele>
        <time>2021-08-05T10:01:14Z</time>
      </trkpt>
      <trkpt lat="42.801" lon="-1.33395">
        <ele>966.83</ele>
        <time>2021-08-05T10:01:15Z</time>
      </trkpt>
      <trkpt lat="42.80102" lon="-1.3339">
        <ele>966.83</ele>
        <time>2021-08-05T10:01:18Z</time>
      </trkpt>
      <trkpt lat="42.80093" lon="-1.33414">
        <ele>966.6</ele>
        <time>2021-08-05T10:01:27Z</time>
      </trkpt>
      <trkpt lat="42.80094" lon="-1.33423">
        <ele>966.82</ele>
        <time>2021-08-05T10:02:11Z</time>
      </trkpt>
      <trkpt lat="42.80094" lon="-1.33441">
        <ele>965.7</ele>
        <time>2021-08-05T10:02:26Z</time>
      </trkpt>
      <trkpt lat="42.80095" lon="-1.33438">
        <ele>965.62</ele>
        <time>2021-08-05T10:02:38Z</time>
      </trkpt>
      <trkpt lat="42.801" lon="-1.33423">
        <ele>965.62</ele>
        <time>2021-08-05T10:02:43Z</time>
      </trkpt>
      <trkpt lat="42.80102" lon="-1.33388">
        <ele>965.95</ele>
        <time>2021-08-05T10:02:52Z</time>
      </trkpt>
      <trkpt lat="42.80094" lon="-1.3342">
        <ele>966.29</ele>
        <time>2021-08-05T10:03:03Z</time>
      </trkpt>
      <trkpt lat="42.80095" lon="-1.33439">
        <ele>965.72</ele>
        <time>2021-08-05T10:03:21Z</time>
      </trkpt>
      <trkpt lat="42.80101" lon="-1.33397">
        <ele>965.61</ele>
        <time>2021-08-05T10:03:30Z</time>
      </trkpt>
      <trkpt lat="42.80101" lon="-1.33391">
        <ele>965.58</ele>
        <time>2021-08-05T10:03:32Z</time>
      </trkpt>
      <trkpt lat="42.80101" lon="-1.33389">
        <ele>966.06</ele>
        <time>2021-08-05T10:03:56Z</time>
      </trkpt>
      <trkpt lat="42.80101" lon="-1.3339">
        <ele>966.06</ele>
        <time>2021-08-05T10:03:59Z</time>
      </trkpt>
      <trkpt lat="42.80101" lon="-1.33396">
        <ele>966.27</ele>
        <time>2021-08-05T10:04:05Z</time>
      </trkpt>
      <trkpt lat="42.80103" lon="-1.33373">
        <ele>966.9</ele>
        <time>2021-08-05T10:04:16Z</time>
      </trkpt>
      <trkpt lat="42.80113" lon="-1.33328">
        <ele>967.73</ele>
        <time>2021-08-05T10:04:26Z</time>
      </trkpt>
      <trkpt lat="42.80125" lon="-1.33252">
        <ele>971.06</ele>
        <time>2021-08-05T10:04:40Z</time>
      </trkpt>
      <trkpt lat="42.80136" lon="-1.33206">
        <ele>974.25</ele>
        <time>2021-08-05T10:04:46Z</time>
      </trkpt>
      <trkpt lat="42.80147" lon="-1.33163">
        <ele>977.78</ele>
        <time>2021-08-05T10:04:51Z</time>
      </trkpt>
      <trkpt lat="42.80153" lon="-1.33125">
        <ele>981.21</ele>
        <time>2021-08-05T10:04:55Z</time>
      </trkpt>
      <trkpt lat="42.80163" lon="-1.33085">
        <ele>984.74</ele>
        <time>2021-08-05T10:04:59Z</time>
      </trkpt>
      <trkpt lat="42.80171" lon="-1.33042">
        <ele>988.32</ele>
        <time>2021-08-05T10:05:03Z</time>
      </trkpt>
      <trkpt lat="42.80175" lon="-1.33019">
        <ele>990.09</ele>
        <time>2021-08-05T10:05:05Z</time>
      </trkpt>
      <trkpt lat="42.80175" lon="-1.32949">
        <ele>994.27</ele>
        <time>2021-08-05T10:05:11Z</time>
      </trkpt>
      <trkpt lat="42.80187" lon="-1.32809">
        <ele>997.45</ele>
        <time>2021-08-05T10:05:23Z</time>
      </trkpt>
      <trkpt lat="42.80181" lon="-1.32686">
        <ele>998.64</ele>
        <time>2021-08-05T10:05:34Z</time>
      </trkpt>
      <trkpt lat="42.8018" lon="-1.32673">
        <ele>998.44</ele>
        <time>2021-08-05T10:05:35Z</time>
      </trkpt>
      <trkpt lat="42.80179" lon="-1.32605">
        <ele>996.87</ele>
        <time>2021-08-05T10:05:40Z</time>
      </trkpt>
      <trkpt lat="42.80148" lon="-1.32441">
        <ele>993.71</ele>
        <time>2021-08-05T10:05:52Z</time>
      </trkpt>
      <trkpt lat="42.80134" lon="-1.32354">
        <ele>991.75</ele>
        <time>2021-08-05T10:05:58Z</time>
      </trkpt>
      <trkpt lat="42.80107" lon="-1.32255">
        <ele>990.12</ele>
        <time>2021-08-05T10:06:05Z</time>
      </trkpt>
      <trkpt lat="42.80096" lon="-1.32152">
        <ele>986.47</ele>
        <time>2021-08-05T10:06:14Z</time>
      </trkpt>
      <trkpt lat="42.80084" lon="-1.32084">
        <ele>983.09</ele>
        <time>2021-08-05T10:06:20Z</time>
      </trkpt>
      <trkpt lat="42.80083" lon="-1.32073">
        <ele>982.39</ele>
        <time>2021-08-05T10:06:21Z</time>
      </trkpt>
      <trkpt lat="42.80085" lon="-1.31986">
        <ele>978.57</ele>
        <time>2021-08-05T10:06:30Z</time>
      </trkpt>
      <trkpt lat="42.80096" lon="-1.31914">
        <ele>979.06</ele>
        <time>2021-08-05T10:06:37Z</time>
      </trkpt>
      <trkpt lat="42.8011" lon="-1.31822">
        <ele>982.81</ele>
        <time>2021-08-05T10:06:45Z</time>
      </trkpt>
      <trkpt lat="42.80122" lon="-1.31746">
        <ele>985.94</ele>
        <time>2021-08-05T10:06:52Z</time>
      </trkpt>
      <trkpt lat="42.80125" lon="-1.31709">
        <ele>987.43</ele>
        <time>2021-08-05T10:06:55Z</time>
      </trkpt>
      <trkpt lat="42.80131" lon="-1.31639">
        <ele>990.46</ele>
        <time>2021-08-05T10:07:02Z</time>
      </trkpt>
      <trkpt lat="42.80138" lon="-1.31586">
        <ele>992.02</ele>
        <time>2021-08-05T10:07:08Z</time>
      </trkpt>
      <trkpt lat="42.80162" lon="-1.31473">
        <ele>995.49</ele>
        <time>2021-08-05T10:07:19Z</time>
      </trkpt>
      <trkpt lat="42.80205" lon="-1.31365">
        <ele>996.44</ele>
        <time>2021-08-05T10:07:30Z</time>
      </trkpt>
      <trkpt lat="42.80221" lon="-1.31335">
        <ele>996.14</ele>
        <time>2021-08-05T10:07:33Z</time>
      </trkpt>
      <trkpt lat="42.80312" lon="-1.31237">
        <ele>995.68</ele>
        <time>2021-08-05T10:07:45Z</time>
      </trkpt>
      <trkpt lat="42.80381" lon="-1.31178">
        <ele>996.23</ele>
        <time>2021-08-05T10:07:54Z</time>
      </trkpt>
      <trkpt lat="42.80436" lon="-1.31096">
        <ele>994.8</ele>
        <time>2021-08-05T10:08:02Z</time>
      </trkpt>
      <trkpt lat="42.80476" lon="-1.31052">
        <ele>993.9</ele>
        <time>2021-08-05T10:08:07Z</time>
      </trkpt>
      <trkpt lat="42.80575" lon="-1.31">
        <ele>992.48</ele>
        <time>2021-08-05T10:08:18Z</time>
      </trkpt>
      <trkpt lat="42.8066" lon="-1.30947">
        <ele>992.78</ele>
        <time>2021-08-05T10:08:27Z</time>
      </trkpt>
      <trkpt lat="42.807" lon="-1.309">
        <ele>991.17</ele>
        <time>2021-08-05T10:08:32Z</time>
      </trkpt>
      <trkpt lat="42.80712" lon="-1.30878">
        <ele>990.24</ele>
        <time>2021-08-05T10:08:34Z</time>
      </trkpt>
      <trkpt lat="42.80705" lon="-1.30804">
        <ele>987.74</ele>
        <time>2021-08-05T10:08:40Z</time>
      </trkpt>
      <trkpt lat="42.80678" lon="-1.30753">
        <ele>988.28</ele>
        <time>2021-08-05T10:08:45Z</time>
      </trkpt>
      <trkpt lat="42.80691" lon="-1.30698">
        <ele>992.08</ele>
        <time>2021-08-05T10:08:51Z</time>
      </trkpt>
      <trkpt lat="42.80709" lon="-1.30654">
        <ele>994.41</ele>
        <time>2021-08-05T10:08:55Z</time>
      </trkpt>
      <trkpt lat="42.80726" lon="-1.30571">
        <ele>997.51</ele>
        <time>2021-08-05T10:09:03Z</time>
      </trkpt>
      <trkpt lat="42.80726" lon="-1.30551">
        <ele>998.74</ele>
        <time>2021-08-05T10:09:05Z</time>
      </trkpt>
      <trkpt lat="42.80726" lon="-1.30531">
        <ele>1000.3</ele>
        <time>2021-08-05T10:09:07Z</time>
      </trkpt>
      <trkpt lat="42.80735" lon="-1.30495">
        <ele>1004.89</ele>
        <time>2021-08-05T10:09:12Z</time>
      </trkpt>
      <trkpt lat="42.8074" lon="-1.30491">
        <ele>1006.68</ele>
        <time>2021-08-05T10:09:14Z</time>
      </trkpt>
      <trkpt lat="42.80759" lon="-1.30481">
        <ele>1008.89</ele>
        <time>2021-08-05T10:09:18Z</time>
      </trkpt>
      <trkpt lat="42.80848" lon="-1.30427">
        <ele>1010.04</ele>
        <time>2021-08-05T10:09:27Z</time>
      </trkpt>
      <trkpt lat="42.80866" lon="-1.30412">
        <ele>1009.89</ele>
        <time>2021-08-05T10:09:29Z</time>
      </trkpt>
      <trkpt lat="42.80946" lon="-1.30372">
        <ele>1009.19</ele>
        <time>2021-08-05T10:09:39Z</time>
      </trkpt>
      <trkpt lat="42.80953" lon="-1.30368">
        <ele>1009.45</ele>
        <time>2021-08-05T10:09:40Z</time>
      </trkpt>
      <trkpt lat="42.81023" lon="-1.30292">
        <ele>1011.52</ele>
        <time>2021-08-05T10:09:50Z</time>
      </trkpt>
      <trkpt lat="42.81078" lon="-1.30165">
        <ele>1011.85</ele>
        <time>2021-08-05T10:09:58Z</time>
      </trkpt>
      <trkpt lat="42.8113" lon="-1.30058">
        <ele>1008.76</ele>
        <time>2021-08-05T10:10:05Z</time>
      </trkpt>
      <trkpt lat="42.81136" lon="-1.30045">
        <ele>1008.19</ele>
        <time>2021-08-05T10:10:06Z</time>
      </trkpt>
      <trkpt lat="42.8118" lon="-1.29984">
        <ele>1004.89</ele>
        <time>2021-08-05T10:10:12Z</time>
      </trkpt>
      <trkpt lat="42.81191" lon="-1.29951">
        <ele>1003.7</ele>
        <time>2021-08-05T10:10:16Z</time>
      </trkpt>
      <trkpt lat="42.81208" lon="-1.29833">
        <ele>1001.95</ele>
        <time>2021-08-05T10:10:25Z</time>
      </trkpt>
      <trkpt lat="42.81225" lon="-1.29678">
        <ele>1001.52</ele>
        <time>2021-08-05T10:10:34Z</time>
      </trkpt>
      <trkpt lat="42.81242" lon="-1.29566">
        <ele>1001.76</ele>
        <time>2021-08-05T10:10:41Z</time>
      </trkpt>
      <trkpt lat="42.81251" lon="-1.29535">
        <ele>1002.5</ele>
        <time>2021-08-05T10:10:44Z</time>
      </trkpt>
      <trkpt lat="42.81264" lon="-1.29506">
        <ele>1002.97</ele>
        <time>2021-08-05T10:10:47Z</time>
      </trkpt>
      <trkpt lat="42.81276" lon="-1.29471">
        <ele>1003.67</ele>
        <time>2021-08-05T10:10:50Z</time>
      </trkpt>
      <trkpt lat="42.81335" lon="-1.29404">
        <ele>1005.77</ele>
        <time>2021-08-05T10:10:58Z</time>
      </trkpt>
      <trkpt lat="42.81377" lon="-1.29411">
        <ele>1007.73</ele>
        <time>2021-08-05T10:11:02Z</time>
      </trkpt>
      <trkpt lat="42.8145" lon="-1.29409">
        <ele>1012.75</ele>
        <time>2021-08-05T10:11:08Z</time>
      </trkpt>
      <trkpt lat="42.81459" lon="-1.29405">
        <ele>1014</ele>
        <time>2021-08-05T10:11:09Z</time>
      </trkpt>
      <trkpt lat="42.81492" lon="-1.29373">
        <ele>1018.23</ele>
        <time>2021-08-05T10:11:13Z</time>
      </trkpt>
      <trkpt lat="42.81509" lon="-1.29324">
        <ele>1019.98</ele>
        <time>2021-08-05T10:11:16Z</time>
      </trkpt>
      <trkpt lat="42.81547" lon="-1.29127">
        <ele>1016.63</ele>
        <time>2021-08-05T10:11:26Z</time>
      </trkpt>
      <trkpt lat="42.8155" lon="-1.29056">
        <ele>1013.54</ele>
        <time>2021-08-05T10:11:29Z</time>
      </trkpt>
      <trkpt lat="42.81558" lon="-1.28981">
        <ele>1010.27</ele>
        <time>2021-08-05T10:11:32Z</time>
      </trkpt>
      <trkpt lat="42.81568" lon="-1.28909">
        <ele>1006.62</ele>
        <time>2021-08-05T10:11:35Z</time>
      </trkpt>
      <trkpt lat="42.81579" lon="-1.28843">
        <ele>1002.88</ele>
        <time>2021-08-05T10:11:38Z</time>
      </trkpt>
      <trkpt lat="42.81597" lon="-1.28787">
        <ele>999.27</ele>
        <time>2021-08-05T10:11:41Z</time>
      </trkpt>
      <trkpt lat="42.81608" lon="-1.28761">
        <ele>996.96</ele>
        <time>2021-08-05T10:11:43Z</time>
      </trkpt>
      <trkpt lat="42.8164" lon="-1.28752">
        <ele>992.05</ele>
        <time>2021-08-05T10:11:47Z</time>
      </trkpt>
      <trkpt lat="42.8166" lon="-1.28759">
        <ele>989.81</ele>
        <time>2021-08-05T10:11:49Z</time>
      </trkpt>
      <trkpt lat="42.81695" lon="-1.28756">
        <ele>987.66</ele>
        <time>2021-08-05T10:11:52Z</time>
      </trkpt>
      <trkpt lat="42.81707" lon="-1.2875">
        <ele>986.61</ele>
        <time>2021-08-05T10:11:53Z</time>
      </trkpt>
      <trkpt lat="42.81749" lon="-1.28723">
        <ele>985.27</ele>
        <time>2021-08-05T10:11:59Z</time>
      </trkpt>
      <trkpt lat="42.81758" lon="-1.28717">
        <ele>984.93</ele>
        <time>2021-08-05T10:12:02Z</time>
      </trkpt>
      <trkpt lat="42.8176" lon="-1.2866">
        <ele>984.91</ele>
        <time>2021-08-05T10:12:08Z</time>
      </trkpt>
      <trkpt lat="42.81715" lon="-1.28492">
        <ele>985.97</ele>
        <time>2021-08-05T10:12:17Z</time>
      </trkpt>
      <trkpt lat="42.81714" lon="-1.28401">
        <ele>984.1</ele>
        <time>2021-08-05T10:12:22Z</time>
      </trkpt>
      <trkpt lat="42.81743" lon="-1.28326">
        <ele>981.16</ele>
        <time>2021-08-05T10:12:26Z</time>
      </trkpt>
      <trkpt lat="42.81794" lon="-1.28256">
        <ele>978.29</ele>
        <time>2021-08-05T10:12:30Z</time>
      </trkpt>
      <trkpt lat="42.81849" lon="-1.28208">
        <ele>977.74</ele>
        <time>2021-08-05T10:12:35Z</time>
      </trkpt>
      <trkpt lat="42.81914" lon="-1.2815">
        <ele>980.9</ele>
        <time>2021-08-05T10:12:43Z</time>
      </trkpt>
      <trkpt lat="42.8194" lon="-1.28127">
        <ele>981.82</ele>
        <time>2021-08-05T10:12:48Z</time>
      </trkpt>
      <trkpt lat="42.81959" lon="-1.28085">
        <ele>981.66</ele>
        <time>2021-08-05T10:12:53Z</time>
      </trkpt>
      <trkpt lat="42.81982" lon="-1.28005">
        <ele>980.81</ele>
        <time>2021-08-05T10:12:58Z</time>
      </trkpt>
      <trkpt lat="42.81983" lon="-1.27939">
        <ele>980.04</ele>
        <time>2021-08-05T10:13:02Z</time>
      </trkpt>
      <trkpt lat="42.81976" lon="-1.27886">
        <ele>979.48</ele>
        <time>2021-08-05T10:13:05Z</time>
      </trkpt>
      <trkpt lat="42.81981" lon="-1.27826">
        <ele>978.64</ele>
        <time>2021-08-05T10:13:09Z</time>
      </trkpt>
      <trkpt lat="42.82002" lon="-1.27803">
        <ele>976.5</ele>
        <time>2021-08-05T10:13:13Z</time>
      </trkpt>
      <trkpt lat="42.82053" lon="-1.27824">
        <ele>972.98</ele>
        <time>2021-08-05T10:13:18Z</time>
      </trkpt>
      <trkpt lat="42.82095" lon="-1.27797">
        <ele>969.57</ele>
        <time>2021-08-05T10:13:24Z</time>
      </trkpt>
      <trkpt lat="42.821" lon="-1.27764">
        <ele>967.88</ele>
        <time>2021-08-05T10:13:27Z</time>
      </trkpt>
      <trkpt lat="42.8214" lon="-1.27736">
        <ele>964.47</ele>
        <time>2021-08-05T10:13:33Z</time>
      </trkpt>
      <trkpt lat="42.82188" lon="-1.27732">
        <ele>961.74</ele>
        <time>2021-08-05T10:13:38Z</time>
      </trkpt>
      <trkpt lat="42.82253" lon="-1.27685">
        <ele>958.2</ele>
        <time>2021-08-05T10:13:46Z</time>
      </trkpt>
      <trkpt lat="42.82297" lon="-1.27704">
        <ele>956.2</ele>
        <time>2021-08-05T10:13:51Z</time>
      </trkpt>
      <trkpt lat="42.82347" lon="-1.27761">
        <ele>954.08</ele>
        <time>2021-08-05T10:13:56Z</time>
      </trkpt>
      <trkpt lat="42.82401" lon="-1.27769">
        <ele>950.63</ele>
        <time>2021-08-05T10:14:01Z</time>
      </trkpt>
      <trkpt lat="42.82424" lon="-1.27766">
        <ele>949.36</ele>
        <time>2021-08-05T10:14:03Z</time>
      </trkpt>
      <trkpt lat="42.82471" lon="-1.27779">
        <ele>946.73</ele>
        <time>2021-08-05T10:14:07Z</time>
      </trkpt>
      <trkpt lat="42.82499" lon="-1.27812">
        <ele>943.72</ele>
        <time>2021-08-05T10:14:11Z</time>
      </trkpt>
      <trkpt lat="42.82529" lon="-1.27874">
        <ele>939.14</ele>
        <time>2021-08-05T10:14:17Z</time>
      </trkpt>
      <trkpt lat="42.82553" lon="-1.27907">
        <ele>936.96</ele>
        <time>2021-08-05T10:14:20Z</time>
      </trkpt>
      <trkpt lat="42.82618" lon="-1.27923">
        <ele>932.55</ele>
        <time>2021-08-05T10:14:26Z</time>
      </trkpt>
      <trkpt lat="42.82642" lon="-1.27898">
        <ele>929.9</ele>
        <time>2021-08-05T10:14:29Z</time>
      </trkpt>
      <trkpt lat="42.82677" lon="-1.27894">
        <ele>925.18</ele>
        <time>2021-08-05T10:14:35Z</time>
      </trkpt>
      <trkpt lat="42.82712" lon="-1.27907">
        <ele>922.12</ele>
        <time>2021-08-05T10:14:39Z</time>
      </trkpt>
      <trkpt lat="42.82797" lon="-1.27895">
        <ele>916.76</ele>
        <time>2021-08-05T10:14:46Z</time>
      </trkpt>
      <trkpt lat="42.8281" lon="-1.27894">
        <ele>914.69</ele>
        <time>2021-08-05T10:14:48Z</time>
      </trkpt>
      <trkpt lat="42.82825" lon="-1.27884">
        <ele>911.75</ele>
        <time>2021-08-05T10:14:51Z</time>
      </trkpt>
      <trkpt lat="42.82861" lon="-1.27904">
        <ele>907.94</ele>
        <time>2021-08-05T10:14:56Z</time>
      </trkpt>
      <trkpt lat="42.8286" lon="-1.27997">
        <ele>904.89</ele>
        <time>2021-08-05T10:15:01Z</time>
      </trkpt>
      <trkpt lat="42.82835" lon="-1.28053">
        <ele>901.87</ele>
        <time>2021-08-05T10:15:05Z</time>
      </trkpt>
      <trkpt lat="42.82844" lon="-1.28117">
        <ele>899.09</ele>
        <time>2021-08-05T10:15:10Z</time>
      </trkpt>
      <trkpt lat="42.8288" lon="-1.2817">
        <ele>896.47</ele>
        <time>2021-08-05T10:15:15Z</time>
      </trkpt>
      <trkpt lat="42.82928" lon="-1.28212">
        <ele>892.35</ele>
        <time>2021-08-05T10:15:20Z</time>
      </trkpt>
      <trkpt lat="42.82983" lon="-1.28257">
        <ele>889.02</ele>
        <time>2021-08-05T10:15:24Z</time>
      </trkpt>
      <trkpt lat="42.83023" lon="-1.28288">
        <ele>885.16</ele>
        <time>2021-08-05T10:15:28Z</time>
      </trkpt>
      <trkpt lat="42.83048" lon="-1.28328">
        <ele>880.78</ele>
        <time>2021-08-05T10:15:32Z</time>
      </trkpt>
      <trkpt lat="42.83072" lon="-1.28362">
        <ele>878.16</ele>
        <time>2021-08-05T10:15:35Z</time>
      </trkpt>
      <trkpt lat="42.83104" lon="-1.28371">
        <ele>873.64</ele>
        <time>2021-08-05T10:15:40Z</time>
      </trkpt>
      <trkpt lat="42.83114" lon="-1.28361">
        <ele>871.42</ele>
        <time>2021-08-05T10:15:43Z</time>
      </trkpt>
      <trkpt lat="42.83125" lon="-1.28347">
        <ele>870.39</ele>
        <time>2021-08-05T10:15:45Z</time>
      </trkpt>
      <trkpt lat="42.83169" lon="-1.28308">
        <ele>868.2</ele>
        <time>2021-08-05T10:15:50Z</time>
      </trkpt>
      <trkpt lat="42.83188" lon="-1.28325">
        <ele>865.39</ele>
        <time>2021-08-05T10:15:55Z</time>
      </trkpt>
      <trkpt lat="42.8319" lon="-1.28349">
        <ele>864.02</ele>
        <time>2021-08-05T10:15:57Z</time>
      </trkpt>
      <trkpt lat="42.83199" lon="-1.28396">
        <ele>862.54</ele>
        <time>2021-08-05T10:16:00Z</time>
      </trkpt>
      <trkpt lat="42.83228" lon="-1.2847">
        <ele>859.17</ele>
        <time>2021-08-05T10:16:05Z</time>
      </trkpt>
      <trkpt lat="42.83237" lon="-1.2851">
        <ele>856.75</ele>
        <time>2021-08-05T10:16:08Z</time>
      </trkpt>
      <trkpt lat="42.83206" lon="-1.2857">
        <ele>852.59</ele>
        <time>2021-08-05T10:16:14Z</time>
      </trkpt>
      <trkpt lat="42.83201" lon="-1.2858">
        <ele>852.03</ele>
        <time>2021-08-05T10:16:15Z</time>
      </trkpt>
      <trkpt lat="42.832" lon="-1.28659">
        <ele>847.91</ele>
        <time>2021-08-05T10:16:22Z</time>
      </trkpt>
      <trkpt lat="42.83214" lon="-1.28677">
        <ele>846.75</ele>
        <time>2021-08-05T10:16:24Z</time>
      </trkpt>
      <trkpt lat="42.83263" lon="-1.28747">
        <ele>843.09</ele>
        <time>2021-08-05T10:16:30Z</time>
      </trkpt>
      <trkpt lat="42.83272" lon="-1.28765">
        <ele>841.67</ele>
        <time>2021-08-05T10:16:32Z</time>
      </trkpt>
      <trkpt lat="42.83296" lon="-1.28837">
        <ele>837.73</ele>
        <time>2021-08-05T10:16:39Z</time>
      </trkpt>
      <trkpt lat="42.83309" lon="-1.28868">
        <ele>834.21</ele>
        <time>2021-08-05T10:16:45Z</time>
      </trkpt>
      <trkpt lat="42.83317" lon="-1.28885">
        <ele>832.69</ele>
        <time>2021-08-05T10:16:48Z</time>
      </trkpt>
      <trkpt lat="42.83334" lon="-1.28916">
        <ele>829.27</ele>
        <time>2021-08-05T10:16:53Z</time>
      </trkpt>
      <trkpt lat="42.83356" lon="-1.28954">
        <ele>826.16</ele>
        <time>2021-08-05T10:17:00Z</time>
      </trkpt>
      <trkpt lat="42.83392" lon="-1.28959">
        <ele>823.57</ele>
        <time>2021-08-05T10:17:08Z</time>
      </trkpt>
      <trkpt lat="42.83396" lon="-1.2895">
        <ele>823.44</ele>
        <time>2021-08-05T10:17:09Z</time>
      </trkpt>
      <trkpt lat="42.83422" lon="-1.28845">
        <ele>820.67</ele>
        <time>2021-08-05T10:17:18Z</time>
      </trkpt>
      <trkpt lat="42.83439" lon="-1.28816">
        <ele>819.25</ele>
        <time>2021-08-05T10:17:23Z</time>
      </trkpt>
      <trkpt lat="42.83454" lon="-1.2879">
        <ele>818.58</ele>
        <time>2021-08-05T10:17:28Z</time>
      </trkpt>
      <trkpt lat="42.8348" lon="-1.28779">
        <ele>818.75</ele>
        <time>2021-08-05T10:17:32Z</time>
      </trkpt>
      <trkpt lat="42.835" lon="-1.28751">
        <ele>820.23</ele>
        <time>2021-08-05T10:17:36Z</time>
      </trkpt>
      <trkpt lat="42.83513" lon="-1.28695">
        <ele>823.9</ele>
        <time>2021-08-05T10:17:42Z</time>
      </trkpt>
      <trkpt lat="42.83529" lon="-1.28666">
        <ele>826.12</ele>
        <time>2021-08-05T10:17:45Z</time>
      </trkpt>
      <trkpt lat="42.83557" lon="-1.28617">
        <ele>830.07</ele>
        <time>2021-08-05T10:17:51Z</time>
      </trkpt>
      <trkpt lat="42.8359" lon="-1.28587">
        <ele>832.59</ele>
        <time>2021-08-05T10:17:55Z</time>
      </trkpt>
      <trkpt lat="42.83604" lon="-1.28508">
        <ele>836.68</ele>
        <time>2021-08-05T10:18:01Z</time>
      </trkpt>
      <trkpt lat="42.8361" lon="-1.2847">
        <ele>838.28</ele>
        <time>2021-08-05T10:18:04Z</time>
      </trkpt>
      <trkpt lat="42.83627" lon="-1.28403">
        <ele>840.81</ele>
        <time>2021-08-05T10:18:10Z</time>
      </trkpt>
      <trkpt lat="42.83635" lon="-1.28372">
        <ele>841.9</ele>
        <time>2021-08-05T10:18:13Z</time>
      </trkpt>
      <trkpt lat="42.83689" lon="-1.2833">
        <ele>843.55</ele>
        <time>2021-08-05T10:18:20Z</time>
      </trkpt>
      <trkpt lat="42.83699" lon="-1.28324">
        <ele>843.85</ele>
        <time>2021-08-05T10:18:21Z</time>
      </trkpt>
      <trkpt lat="42.83721" lon="-1.28297">
        <ele>844.94</ele>
        <time>2021-08-05T10:18:24Z</time>
      </trkpt>
      <trkpt lat="42.83751" lon="-1.28278">
        <ele>847.08</ele>
        <time>2021-08-05T10:18:28Z</time>
      </trkpt>
      <trkpt lat="42.83762" lon="-1.28273">
        <ele>848.47</ele>
        <time>2021-08-05T10:18:30Z</time>
      </trkpt>
      <trkpt lat="42.83767" lon="-1.28278">
        <ele>850.53</ele>
        <time>2021-08-05T10:18:40Z</time>
      </trkpt>
      <trkpt lat="42.83769" lon="-1.2828">
        <ele>850.92</ele>
        <time>2021-08-05T10:18:44Z</time>
      </trkpt>
      <trkpt lat="42.83772" lon="-1.28283">
        <ele>851.26</ele>
        <time>2021-08-05T10:18:50Z</time>
      </trkpt>
      <trkpt lat="42.83773" lon="-1.28283">
        <ele>851.61</ele>
        <time>2021-08-05T10:18:56Z</time>
      </trkpt>
      <trkpt lat="42.83782" lon="-1.28285">
        <ele>852.2</ele>
        <time>2021-08-05T10:19:10Z</time>
      </trkpt>
      <trkpt lat="42.83802" lon="-1.28289">
        <ele>854.91</ele>
        <time>2021-08-05T10:19:31Z</time>
      </trkpt>
      <trkpt lat="42.83802" lon="-1.28289">
        <ele>855.18</ele>
        <time>2021-08-05T10:19:33Z</time>
      </trkpt>
      <trkpt lat="42.83802" lon="-1.28296">
        <ele>855.73</ele>
        <time>2021-08-05T10:19:46Z</time>
      </trkpt>
      <trkpt lat="42.83802" lon="-1.28292">
        <ele>855.77</ele>
        <time>2021-08-05T10:20:00Z</time>
      </trkpt>
      <trkpt lat="42.838" lon="-1.28287">
        <ele>856.47</ele>
        <time>2021-08-05T10:20:17Z</time>
      </trkpt>
      <trkpt lat="42.8379" lon="-1.28286">
        <ele>855.94</ele>
        <time>2021-08-05T10:20:34Z</time>
      </trkpt>
      <trkpt lat="42.83773" lon="-1.28282">
        <ele>852.89</ele>
        <time>2021-08-05T10:20:52Z</time>
      </trkpt>
      <trkpt lat="42.83762" lon="-1.28279">
        <ele>851.65</ele>
        <time>2021-08-05T10:21:04Z</time>
      </trkpt>
      <trkpt lat="42.83733" lon="-1.28291">
        <ele>851.03</ele>
        <time>2021-08-05T10:21:10Z</time>
      </trkpt>
      <trkpt lat="42.83724" lon="-1.28296">
        <ele>850.39</ele>
        <time>2021-08-05T10:21:18Z</time>
      </trkpt>
      <trkpt lat="42.83722" lon="-1.28296">
        <ele>851.04</ele>
        <time>2021-08-05T10:21:36Z</time>
      </trkpt>
      <trkpt lat="42.83722" lon="-1.28296">
        <ele>849.99</ele>
        <time>2021-08-05T10:22:08Z</time>
      </trkpt>
      <trkpt lat="42.83726" lon="-1.28295">
        <ele>849.83</ele>
        <time>2021-08-05T10:22:19Z</time>
      </trkpt>
      <trkpt lat="42.83752" lon="-1.28281">
        <ele>849.81</ele>
        <time>2021-08-05T10:22:31Z</time>
      </trkpt>
      <trkpt lat="42.83763" lon="-1.28276">
        <ele>850.3</ele>
        <time>2021-08-05T10:22:43Z</time>
      </trkpt>
      <trkpt lat="42.83763" lon="-1.28276">
        <ele>851.06</ele>
        <time>2021-08-05T10:23:15Z</time>
      </trkpt>
      <trkpt lat="42.83771" lon="-1.28208">
        <ele>850.07</ele>
        <time>2021-08-05T10:32:11Z</time>
      </trkpt>
      <trkpt lat="42.83761" lon="-1.28271">
        <ele>848.25</ele>
        <time>2021-08-05T10:32:25Z</time>
      </trkpt>
      <trkpt lat="42.83773" lon="-1.28262">
        <ele>847.5</ele>
        <time>2021-08-05T10:32:40Z</time>
      </trkpt>
      <trkpt lat="42.83777" lon="-1.28259">
        <ele>846.99</ele>
        <time>2021-08-05T10:33:14Z</time>
      </trkpt>
      <trkpt lat="42.8379" lon="-1.28245">
        <ele>846.78</ele>
        <time>2021-08-05T10:33:27Z</time>
      </trkpt>
      <trkpt lat="42.83825" lon="-1.28237">
        <ele>846.06</ele>
        <time>2021-08-05T10:33:33Z</time>
      </trkpt>
      <trkpt lat="42.83844" lon="-1.28227">
        <ele>845.6</ele>
        <time>2021-08-05T10:33:36Z</time>
      </trkpt>
      <trkpt lat="42.83872" lon="-1.28165">
        <ele>844.36</ele>
        <time>2021-08-05T10:33:42Z</time>
      </trkpt>
      <trkpt lat="42.83887" lon="-1.2811">
        <ele>843.23</ele>
        <time>2021-08-05T10:33:46Z</time>
      </trkpt>
      <trkpt lat="42.83922" lon="-1.28054">
        <ele>841.46</ele>
        <time>2021-08-05T10:33:51Z</time>
      </trkpt>
      <trkpt lat="42.83943" lon="-1.28002">
        <ele>838.71</ele>
        <time>2021-08-05T10:33:56Z</time>
      </trkpt>
      <trkpt lat="42.83955" lon="-1.2795">
        <ele>833.96</ele>
        <time>2021-08-05T10:34:03Z</time>
      </trkpt>
      <trkpt lat="42.83965" lon="-1.27858">
        <ele>829.79</ele>
        <time>2021-08-05T10:34:11Z</time>
      </trkpt>
      <trkpt lat="42.83957" lon="-1.2779">
        <ele>825.95</ele>
        <time>2021-08-05T10:34:18Z</time>
      </trkpt>
      <trkpt lat="42.83956" lon="-1.2778">
        <ele>825.64</ele>
        <time>2021-08-05T10:34:19Z</time>
      </trkpt>
      <trkpt lat="42.83959" lon="-1.27751">
        <ele>823.73</ele>
        <time>2021-08-05T10:34:24Z</time>
      </trkpt>
      <trkpt lat="42.83999" lon="-1.27661">
        <ele>822.61</ele>
        <time>2021-08-05T10:34:32Z</time>
      </trkpt>
      <trkpt lat="42.84019" lon="-1.27579">
        <ele>824.2</ele>
        <time>2021-08-05T10:34:37Z</time>
      </trkpt>
      <trkpt lat="42.84038" lon="-1.27545">
        <ele>825.4</ele>
        <time>2021-08-05T10:34:40Z</time>
      </trkpt>
      <trkpt lat="42.84033" lon="-1.27498">
        <ele>825.98</ele>
        <time>2021-08-05T10:34:44Z</time>
      </trkpt>
      <trkpt lat="42.84027" lon="-1.2744">
        <ele>825.1</ele>
        <time>2021-08-05T10:34:51Z</time>
      </trkpt>
      <trkpt lat="42.84004" lon="-1.27363">
        <ele>824.58</ele>
        <time>2021-08-05T10:34:59Z</time>
      </trkpt>
      <trkpt lat="42.83972" lon="-1.27265">
        <ele>827.79</ele>
        <time>2021-08-05T10:35:06Z</time>
      </trkpt>
      <trkpt lat="42.83953" lon="-1.27201">
        <ele>830.98</ele>
        <time>2021-08-05T10:35:10Z</time>
      </trkpt>
      <trkpt lat="42.83945" lon="-1.27171">
        <ele>832.9</ele>
        <time>2021-08-05T10:35:12Z</time>
      </trkpt>
      <trkpt lat="42.83934" lon="-1.27068">
        <ele>837.19</ele>
        <time>2021-08-05T10:35:18Z</time>
      </trkpt>
      <trkpt lat="42.83921" lon="-1.27008">
        <ele>840.29</ele>
        <time>2021-08-05T10:35:23Z</time>
      </trkpt>
      <trkpt lat="42.83912" lon="-1.26968">
        <ele>840.97</ele>
        <time>2021-08-05T10:35:27Z</time>
      </trkpt>
      <trkpt lat="42.83885" lon="-1.26944">
        <ele>841.65</ele>
        <time>2021-08-05T10:35:32Z</time>
      </trkpt>
      <trkpt lat="42.8386" lon="-1.26933">
        <ele>842.14</ele>
        <time>2021-08-05T10:35:35Z</time>
      </trkpt>
      <trkpt lat="42.8381" lon="-1.26872">
        <ele>844.8</ele>
        <time>2021-08-05T10:35:42Z</time>
      </trkpt>
      <trkpt lat="42.8382" lon="-1.26836">
        <ele>847.74</ele>
        <time>2021-08-05T10:35:48Z</time>
      </trkpt>
      <trkpt lat="42.83828" lon="-1.26842">
        <ele>848.01</ele>
        <time>2021-08-05T10:35:49Z</time>
      </trkpt>
      <trkpt lat="42.83845" lon="-1.26855">
        <ele>848.48</ele>
        <time>2021-08-05T10:35:51Z</time>
      </trkpt>
      <trkpt lat="42.83887" lon="-1.2684">
        <ele>850.02</ele>
        <time>2021-08-05T10:35:56Z</time>
      </trkpt>
      <trkpt lat="42.83893" lon="-1.26781">
        <ele>852.24</ele>
        <time>2021-08-05T10:36:00Z</time>
      </trkpt>
      <trkpt lat="42.83884" lon="-1.26702">
        <ele>856.58</ele>
        <time>2021-08-05T10:36:05Z</time>
      </trkpt>
      <trkpt lat="42.83881" lon="-1.26645">
        <ele>859.92</ele>
        <time>2021-08-05T10:36:08Z</time>
      </trkpt>
      <trkpt lat="42.83882" lon="-1.26584">
        <ele>863.3</ele>
        <time>2021-08-05T10:36:11Z</time>
      </trkpt>
      <trkpt lat="42.83887" lon="-1.26535">
        <ele>866.97</ele>
        <time>2021-08-05T10:36:14Z</time>
      </trkpt>
      <trkpt lat="42.83888" lon="-1.26507">
        <ele>869.56</ele>
        <time>2021-08-05T10:36:16Z</time>
      </trkpt>
      <trkpt lat="42.83872" lon="-1.26446">
        <ele>874.19</ele>
        <time>2021-08-05T10:36:20Z</time>
      </trkpt>
      <trkpt lat="42.83851" lon="-1.26398">
        <ele>877.78</ele>
        <time>2021-08-05T10:36:23Z</time>
      </trkpt>
      <trkpt lat="42.83826" lon="-1.26352">
        <ele>883.44</ele>
        <time>2021-08-05T10:36:26Z</time>
      </trkpt>
      <trkpt lat="42.83798" lon="-1.26313">
        <ele>887.77</ele>
        <time>2021-08-05T10:36:29Z</time>
      </trkpt>
      <trkpt lat="42.83793" lon="-1.26301">
        <ele>889.31</ele>
        <time>2021-08-05T10:36:30Z</time>
      </trkpt>
      <trkpt lat="42.83777" lon="-1.2624">
        <ele>894.34</ele>
        <time>2021-08-05T10:36:34Z</time>
      </trkpt>
      <trkpt lat="42.83767" lon="-1.26191">
        <ele>897.63</ele>
        <time>2021-08-05T10:36:37Z</time>
      </trkpt>
      <trkpt lat="42.83759" lon="-1.26141">
        <ele>901.17</ele>
        <time>2021-08-05T10:36:41Z</time>
      </trkpt>
      <trkpt lat="42.83764" lon="-1.26091">
        <ele>904.35</ele>
        <time>2021-08-05T10:36:48Z</time>
      </trkpt>
      <trkpt lat="42.83773" lon="-1.2607">
        <ele>904.75</ele>
        <time>2021-08-05T10:36:53Z</time>
      </trkpt>
      <trkpt lat="42.83788" lon="-1.25981">
        <ele>905.23</ele>
        <time>2021-08-05T10:37:03Z</time>
      </trkpt>
      <trkpt lat="42.83789" lon="-1.2597">
        <ele>905.47</ele>
        <time>2021-08-05T10:37:04Z</time>
      </trkpt>
      <trkpt lat="42.8379" lon="-1.25888">
        <ele>907.33</ele>
        <time>2021-08-05T10:37:11Z</time>
      </trkpt>
      <trkpt lat="42.83802" lon="-1.25839">
        <ele>907.99</ele>
        <time>2021-08-05T10:37:15Z</time>
      </trkpt>
      <trkpt lat="42.83827" lon="-1.25726">
        <ele>909.34</ele>
        <time>2021-08-05T10:37:23Z</time>
      </trkpt>
      <trkpt lat="42.83868" lon="-1.25666">
        <ele>911.82</ele>
        <time>2021-08-05T10:37:30Z</time>
      </trkpt>
      <trkpt lat="42.83899" lon="-1.25681">
        <ele>913.22</ele>
        <time>2021-08-05T10:37:34Z</time>
      </trkpt>
      <trkpt lat="42.83961" lon="-1.25762">
        <ele>917.15</ele>
        <time>2021-08-05T10:37:42Z</time>
      </trkpt>
      <trkpt lat="42.83998" lon="-1.25814">
        <ele>920.05</ele>
        <time>2021-08-05T10:37:47Z</time>
      </trkpt>
      <trkpt lat="42.84049" lon="-1.25838">
        <ele>923.76</ele>
        <time>2021-08-05T10:37:53Z</time>
      </trkpt>
      <trkpt lat="42.84091" lon="-1.25795">
        <ele>927.2</ele>
        <time>2021-08-05T10:37:59Z</time>
      </trkpt>
      <trkpt lat="42.841" lon="-1.25758">
        <ele>928.71</ele>
        <time>2021-08-05T10:38:02Z</time>
      </trkpt>
      <trkpt lat="42.84104" lon="-1.25734">
        <ele>930.14</ele>
        <time>2021-08-05T10:38:04Z</time>
      </trkpt>
      <trkpt lat="42.84119" lon="-1.25708">
        <ele>932.7</ele>
        <time>2021-08-05T10:38:08Z</time>
      </trkpt>
      <trkpt lat="42.84153" lon="-1.25668">
        <ele>932.91</ele>
        <time>2021-08-05T10:38:14Z</time>
      </trkpt>
      <trkpt lat="42.8416" lon="-1.25651">
        <ele>932.7</ele>
        <time>2021-08-05T10:38:16Z</time>
      </trkpt>
      <trkpt lat="42.84168" lon="-1.25623">
        <ele>932.31</ele>
        <time>2021-08-05T10:38:19Z</time>
      </trkpt>
      <trkpt lat="42.84185" lon="-1.25586">
        <ele>931.99</ele>
        <time>2021-08-05T10:38:23Z</time>
      </trkpt>
      <trkpt lat="42.84227" lon="-1.25515">
        <ele>930.48</ele>
        <time>2021-08-05T10:38:32Z</time>
      </trkpt>
      <trkpt lat="42.84266" lon="-1.25448">
        <ele>928.73</ele>
        <time>2021-08-05T10:38:40Z</time>
      </trkpt>
      <trkpt lat="42.84272" lon="-1.25437">
        <ele>928.45</ele>
        <time>2021-08-05T10:38:41Z</time>
      </trkpt>
      <trkpt lat="42.84358" lon="-1.25354">
        <ele>928.16</ele>
        <time>2021-08-05T10:38:52Z</time>
      </trkpt>
      <trkpt lat="42.84365" lon="-1.25347">
        <ele>928.6</ele>
        <time>2021-08-05T10:38:53Z</time>
      </trkpt>
      <trkpt lat="42.84394" lon="-1.25299">
        <ele>932.13</ele>
        <time>2021-08-05T10:38:58Z</time>
      </trkpt>
      <trkpt lat="42.8443" lon="-1.25252">
        <ele>936.72</ele>
        <time>2021-08-05T10:39:03Z</time>
      </trkpt>
      <trkpt lat="42.84453" lon="-1.25223">
        <ele>938.86</ele>
        <time>2021-08-05T10:39:06Z</time>
      </trkpt>
      <trkpt lat="42.84497" lon="-1.25192">
        <ele>940.66</ele>
        <time>2021-08-05T10:39:11Z</time>
      </trkpt>
      <trkpt lat="42.84518" lon="-1.2518">
        <ele>940.78</ele>
        <time>2021-08-05T10:39:14Z</time>
      </trkpt>
      <trkpt lat="42.84566" lon="-1.25144">
        <ele>939.63</ele>
        <time>2021-08-05T10:39:21Z</time>
      </trkpt>
      <trkpt lat="42.84603" lon="-1.25135">
        <ele>939.46</ele>
        <time>2021-08-05T10:39:26Z</time>
      </trkpt>
      <trkpt lat="42.84649" lon="-1.25139">
        <ele>938.33</ele>
        <time>2021-08-05T10:39:34Z</time>
      </trkpt>
      <trkpt lat="42.8465" lon="-1.25139">
        <ele>935.42</ele>
        <time>2021-08-05T10:39:49Z</time>
      </trkpt>
      <trkpt lat="42.84648" lon="-1.2514">
        <ele>935.5</ele>
        <time>2021-08-05T10:40:10Z</time>
      </trkpt>
      <trkpt lat="42.8465" lon="-1.2514">
        <ele>936.08</ele>
        <time>2021-08-05T10:40:34Z</time>
      </trkpt>
      <trkpt lat="42.84656" lon="-1.25141">
        <ele>935.28</ele>
        <time>2021-08-05T10:40:45Z</time>
      </trkpt>
      <trkpt lat="42.84656" lon="-1.2514">
        <ele>935.35</ele>
        <time>2021-08-05T10:40:47Z</time>
      </trkpt>
      <trkpt lat="42.84664" lon="-1.2512">
        <ele>935.64</ele>
        <time>2021-08-05T10:40:52Z</time>
      </trkpt>
      <trkpt lat="42.84702" lon="-1.25079">
        <ele>933.74</ele>
        <time>2021-08-05T10:40:59Z</time>
      </trkpt>
      <trkpt lat="42.84734" lon="-1.25058">
        <ele>930.38</ele>
        <time>2021-08-05T10:41:03Z</time>
      </trkpt>
      <trkpt lat="42.84759" lon="-1.25023">
        <ele>925.55</ele>
        <time>2021-08-05T10:41:07Z</time>
      </trkpt>
      <trkpt lat="42.84766" lon="-1.25001">
        <ele>923.27</ele>
        <time>2021-08-05T10:41:09Z</time>
      </trkpt>
      <trkpt lat="42.84788" lon="-1.2495">
        <ele>918.16</ele>
        <time>2021-08-05T10:41:14Z</time>
      </trkpt>
      <trkpt lat="42.848" lon="-1.24935">
        <ele>916.32</ele>
        <time>2021-08-05T10:41:16Z</time>
      </trkpt>
      <trkpt lat="42.84843" lon="-1.24912">
        <ele>911.74</ele>
        <time>2021-08-05T10:41:21Z</time>
      </trkpt>
      <trkpt lat="42.84855" lon="-1.24903">
        <ele>909.54</ele>
        <time>2021-08-05T10:41:23Z</time>
      </trkpt>
      <trkpt lat="42.84867" lon="-1.24889">
        <ele>904.49</ele>
        <time>2021-08-05T10:41:26Z</time>
      </trkpt>
      <trkpt lat="42.84875" lon="-1.24868">
        <ele>900.93</ele>
        <time>2021-08-05T10:41:29Z</time>
      </trkpt>
      <trkpt lat="42.84883" lon="-1.24832">
        <ele>896.08</ele>
        <time>2021-08-05T10:41:33Z</time>
      </trkpt>
      <trkpt lat="42.84888" lon="-1.24806">
        <ele>892.21</ele>
        <time>2021-08-05T10:41:36Z</time>
      </trkpt>
      <trkpt lat="42.84892" lon="-1.24773">
        <ele>889</ele>
        <time>2021-08-05T10:41:39Z</time>
      </trkpt>
      <trkpt lat="42.849" lon="-1.24737">
        <ele>885.92</ele>
        <time>2021-08-05T10:41:42Z</time>
      </trkpt>
      <trkpt lat="42.84904" lon="-1.24669">
        <ele>881.92</ele>
        <time>2021-08-05T10:41:48Z</time>
      </trkpt>
      <trkpt lat="42.84917" lon="-1.24557">
        <ele>879.28</ele>
        <time>2021-08-05T10:41:55Z</time>
      </trkpt>
      <trkpt lat="42.8492" lon="-1.24488">
        <ele>876.81</ele>
        <time>2021-08-05T10:41:59Z</time>
      </trkpt>
      <trkpt lat="42.84925" lon="-1.24445">
        <ele>874.61</ele>
        <time>2021-08-05T10:42:02Z</time>
      </trkpt>
      <trkpt lat="42.84916" lon="-1.24386">
        <ele>871.31</ele>
        <time>2021-08-05T10:42:07Z</time>
      </trkpt>
      <trkpt lat="42.84896" lon="-1.24341">
        <ele>868.37</ele>
        <time>2021-08-05T10:42:11Z</time>
      </trkpt>
      <trkpt lat="42.84846" lon="-1.24283">
        <ele>863.91</ele>
        <time>2021-08-05T10:42:17Z</time>
      </trkpt>
      <trkpt lat="42.8481" lon="-1.24243">
        <ele>860.81</ele>
        <time>2021-08-05T10:42:21Z</time>
      </trkpt>
      <trkpt lat="42.84771" lon="-1.24205">
        <ele>856.82</ele>
        <time>2021-08-05T10:42:25Z</time>
      </trkpt>
      <trkpt lat="42.84742" lon="-1.24182">
        <ele>853.61</ele>
        <time>2021-08-05T10:42:28Z</time>
      </trkpt>
      <trkpt lat="42.84725" lon="-1.24167">
        <ele>851.72</ele>
        <time>2021-08-05T10:42:30Z</time>
      </trkpt>
      <trkpt lat="42.84683" lon="-1.24142">
        <ele>846.82</ele>
        <time>2021-08-05T10:42:34Z</time>
      </trkpt>
      <trkpt lat="42.84672" lon="-1.24135">
        <ele>845.74</ele>
        <time>2021-08-05T10:42:35Z</time>
      </trkpt>
      <trkpt lat="42.84639" lon="-1.24095">
        <ele>842.09</ele>
        <time>2021-08-05T10:42:39Z</time>
      </trkpt>
      <trkpt lat="42.84601" lon="-1.24039">
        <ele>839.13</ele>
        <time>2021-08-05T10:42:44Z</time>
      </trkpt>
      <trkpt lat="42.84508" lon="-1.23943">
        <ele>837.59</ele>
        <time>2021-08-05T10:42:55Z</time>
      </trkpt>
      <trkpt lat="42.84473" lon="-1.23905">
        <ele>836.1</ele>
        <time>2021-08-05T10:43:01Z</time>
      </trkpt>
      <trkpt lat="42.8443" lon="-1.23894">
        <ele>835.35</ele>
        <time>2021-08-05T10:43:08Z</time>
      </trkpt>
      <trkpt lat="42.84375" lon="-1.2388">
        <ele>831.52</ele>
        <time>2021-08-05T10:43:17Z</time>
      </trkpt>
      <trkpt lat="42.84355" lon="-1.23878">
        <ele>828.36</ele>
        <time>2021-08-05T10:43:23Z</time>
      </trkpt>
      <trkpt lat="42.84345" lon="-1.2388">
        <ele>826.37</ele>
        <time>2021-08-05T10:43:29Z</time>
      </trkpt>
      <trkpt lat="42.84299" lon="-1.23863">
        <ele>825.43</ele>
        <time>2021-08-05T10:43:41Z</time>
      </trkpt>
      <trkpt lat="42.84284" lon="-1.23856">
        <ele>824.93</ele>
        <time>2021-08-05T10:43:52Z</time>
      </trkpt>
      <trkpt lat="42.84256" lon="-1.2384">
        <ele>824.46</ele>
        <time>2021-08-05T10:44:10Z</time>
      </trkpt>
      <trkpt lat="42.84224" lon="-1.23814">
        <ele>823.33</ele>
        <time>2021-08-05T10:44:23Z</time>
      </trkpt>
      <trkpt lat="42.84222" lon="-1.23813">
        <ele>822.44</ele>
        <time>2021-08-05T10:44:37Z</time>
      </trkpt>
      <trkpt lat="42.84202" lon="-1.23805">
        <ele>821.28</ele>
        <time>2021-08-05T10:45:21Z</time>
      </trkpt>
      <trkpt lat="42.84183" lon="-1.23801">
        <ele>818.98</ele>
        <time>2021-08-05T10:45:30Z</time>
      </trkpt>
      <trkpt lat="42.84151" lon="-1.2379">
        <ele>815.69</ele>
        <time>2021-08-05T10:45:41Z</time>
      </trkpt>
      <trkpt lat="42.84124" lon="-1.23777">
        <ele>812.37</ele>
        <time>2021-08-05T10:45:50Z</time>
      </trkpt>
      <trkpt lat="42.84091" lon="-1.23767">
        <ele>809.25</ele>
        <time>2021-08-05T10:46:00Z</time>
      </trkpt>
      <trkpt lat="42.84069" lon="-1.23763">
        <ele>805.96</ele>
        <time>2021-08-05T10:46:08Z</time>
      </trkpt>
      <trkpt lat="42.84045" lon="-1.23759">
        <ele>802.65</ele>
        <time>2021-08-05T10:46:15Z</time>
      </trkpt>
      <trkpt lat="42.84038" lon="-1.23757">
        <ele>801.67</ele>
        <time>2021-08-05T10:46:17Z</time>
      </trkpt>
      <trkpt lat="42.84037" lon="-1.23725">
        <ele>797.7</ele>
        <time>2021-08-05T10:46:23Z</time>
      </trkpt>
      <trkpt lat="42.84042" lon="-1.23714">
        <ele>796.17</ele>
        <time>2021-08-05T10:46:25Z</time>
      </trkpt>
      <trkpt lat="42.8406" lon="-1.23682">
        <ele>792.1</ele>
        <time>2021-08-05T10:46:31Z</time>
      </trkpt>
      <trkpt lat="42.84065" lon="-1.23674">
        <ele>791.48</ele>
        <time>2021-08-05T10:46:32Z</time>
      </trkpt>
      <trkpt lat="42.8409" lon="-1.23648">
        <ele>789.28</ele>
        <time>2021-08-05T10:46:37Z</time>
      </trkpt>
      <trkpt lat="42.84096" lon="-1.23644">
        <ele>788.35</ele>
        <time>2021-08-05T10:46:39Z</time>
      </trkpt>
      <trkpt lat="42.84128" lon="-1.23614">
        <ele>787.01</ele>
        <time>2021-08-05T10:46:45Z</time>
      </trkpt>
      <trkpt lat="42.84149" lon="-1.23593">
        <ele>787.46</ele>
        <time>2021-08-05T10:46:53Z</time>
      </trkpt>
      <trkpt lat="42.84146" lon="-1.23587">
        <ele>787.36</ele>
        <time>2021-08-05T10:46:55Z</time>
      </trkpt>
      <trkpt lat="42.84131" lon="-1.23582">
        <ele>786.63</ele>
        <time>2021-08-05T10:46:59Z</time>
      </trkpt>
      <trkpt lat="42.84111" lon="-1.2359">
        <ele>785.65</ele>
        <time>2021-08-05T10:47:03Z</time>
      </trkpt>
      <trkpt lat="42.84085" lon="-1.23608">
        <ele>783.27</ele>
        <time>2021-08-05T10:47:08Z</time>
      </trkpt>
      <trkpt lat="42.84058" lon="-1.23616">
        <ele>779.28</ele>
        <time>2021-08-05T10:47:14Z</time>
      </trkpt>
      <trkpt lat="42.84051" lon="-1.23616">
        <ele>778.63</ele>
        <time>2021-08-05T10:47:15Z</time>
      </trkpt>
      <trkpt lat="42.84024" lon="-1.23614">
        <ele>776.29</ele>
        <time>2021-08-05T10:47:19Z</time>
      </trkpt>
      <trkpt lat="42.84005" lon="-1.2362">
        <ele>773.27</ele>
        <time>2021-08-05T10:47:24Z</time>
      </trkpt>
      <trkpt lat="42.83966" lon="-1.23647">
        <ele>769.52</ele>
        <time>2021-08-05T10:47:32Z</time>
      </trkpt>
      <trkpt lat="42.83954" lon="-1.23655">
        <ele>766.14</ele>
        <time>2021-08-05T10:47:37Z</time>
      </trkpt>
      <trkpt lat="42.83942" lon="-1.23664">
        <ele>764.27</ele>
        <time>2021-08-05T10:47:40Z</time>
      </trkpt>
      <trkpt lat="42.83915" lon="-1.23675">
        <ele>760.75</ele>
        <time>2021-08-05T10:47:46Z</time>
      </trkpt>
      <trkpt lat="42.83883" lon="-1.23682">
        <ele>756.96</ele>
        <time>2021-08-05T10:47:53Z</time>
      </trkpt>
      <trkpt lat="42.83872" lon="-1.23684">
        <ele>755.7</ele>
        <time>2021-08-05T10:47:55Z</time>
      </trkpt>
      <trkpt lat="42.83847" lon="-1.23695">
        <ele>751.76</ele>
        <time>2021-08-05T10:48:00Z</time>
      </trkpt>
      <trkpt lat="42.83837" lon="-1.237">
        <ele>748.66</ele>
        <time>2021-08-05T10:48:03Z</time>
      </trkpt>
      <trkpt lat="42.8382" lon="-1.23714">
        <ele>745.17</ele>
        <time>2021-08-05T10:48:08Z</time>
      </trkpt>
      <trkpt lat="42.838" lon="-1.23726">
        <ele>741.42</ele>
        <time>2021-08-05T10:48:14Z</time>
      </trkpt>
      <trkpt lat="42.83788" lon="-1.2373">
        <ele>738.21</ele>
        <time>2021-08-05T10:48:19Z</time>
      </trkpt>
      <trkpt lat="42.83785" lon="-1.23733">
        <ele>723.1</ele>
      </trkpt>
      <trkpt lat="42.83775" lon="-1.23729">
        <ele>721.1</ele>
      </trkpt>
      <trkpt lat="42.83768" lon="-1.2372">
        <ele>719.6</ele>
      </trkpt>
      <trkpt lat="42.83761" lon="-1.23701">
        <ele>717.8</ele>
      </trkpt>
      <trkpt lat="42.83751" lon="-1.23686">
        <ele>715.6</ele>
      </trkpt>
      <trkpt lat="42.83736" lon="-1.23661">
        <ele>712.1</ele>
      </trkpt>
      <trkpt lat="42.83766" lon="-1.23595">
        <ele>707.6</ele>
      </trkpt>
      <trkpt lat="42.83761" lon="-1.23592">
        <ele>706.8</ele>
      </trkpt>
    </trkseg>
  </trk>
  <trk>
    <name><![CDATA[TOTAL 4x4 _25]]></name>
    <extensions>
      <line xmlns="http://www.topografix.com/GPX/gpx_style/0/2">
        <color>0000FF</color>
        <width>4</width>
      </line>
    </extensions>
    <trkseg>
      <trkpt lat="42.83779" lon="-1.23602">
        <ele>722.46</ele>
        <time>2021-08-05T12:08:12Z</time>
      </trkpt>
      <trkpt lat="42.83785" lon="-1.23601">
        <ele>722.47</ele>
        <time>2021-08-05T12:08:13Z</time>
      </trkpt>
      <trkpt lat="42.83791" lon="-1.236">
        <ele>722.49</ele>
        <time>2021-08-05T12:08:14Z</time>
      </trkpt>
      <trkpt lat="42.83853" lon="-1.23584">
        <ele>722.47</ele>
        <time>2021-08-05T12:08:21Z</time>
      </trkpt>
      <trkpt lat="42.83908" lon="-1.2351">
        <ele>719.52</ele>
        <time>2021-08-05T12:08:30Z</time>
      </trkpt>
      <trkpt lat="42.83918" lon="-1.23479">
        <ele>718.27</ele>
        <time>2021-08-05T12:08:33Z</time>
      </trkpt>
      <trkpt lat="42.83923" lon="-1.23435">
        <ele>716.67</ele>
        <time>2021-08-05T12:08:37Z</time>
      </trkpt>
      <trkpt lat="42.83924" lon="-1.2341">
        <ele>715.66</ele>
        <time>2021-08-05T12:08:39Z</time>
      </trkpt>
      <trkpt lat="42.83937" lon="-1.23358">
        <ele>713.89</ele>
        <time>2021-08-05T12:08:43Z</time>
      </trkpt>
      <trkpt lat="42.83955" lon="-1.23317">
        <ele>712.09</ele>
        <time>2021-08-05T12:08:47Z</time>
      </trkpt>
      <trkpt lat="42.83984" lon="-1.23302">
        <ele>709.32</ele>
        <time>2021-08-05T12:08:53Z</time>
      </trkpt>
      <trkpt lat="42.84049" lon="-1.23319">
        <ele>708.94</ele>
        <time>2021-08-05T12:09:00Z</time>
      </trkpt>
      <trkpt lat="42.84118" lon="-1.23314">
        <ele>711.91</ele>
        <time>2021-08-05T12:09:07Z</time>
      </trkpt>
      <trkpt lat="42.84174" lon="-1.23338">
        <ele>715.86</ele>
        <time>2021-08-05T12:09:14Z</time>
      </trkpt>
      <trkpt lat="42.84224" lon="-1.23353">
        <ele>717.46</ele>
        <time>2021-08-05T12:09:19Z</time>
      </trkpt>
      <trkpt lat="42.84262" lon="-1.23331">
        <ele>719</ele>
        <time>2021-08-05T12:09:24Z</time>
      </trkpt>
      <trkpt lat="42.84317" lon="-1.23298">
        <ele>720.77</ele>
        <time>2021-08-05T12:09:30Z</time>
      </trkpt>
      <trkpt lat="42.84357" lon="-1.23298">
        <ele>722.1</ele>
        <time>2021-08-05T12:09:34Z</time>
      </trkpt>
      <trkpt lat="42.84394" lon="-1.23316">
        <ele>723.71</ele>
        <time>2021-08-05T12:09:38Z</time>
      </trkpt>
      <trkpt lat="42.84429" lon="-1.23349">
        <ele>725.47</ele>
        <time>2021-08-05T12:09:42Z</time>
      </trkpt>
      <trkpt lat="42.84464" lon="-1.23393">
        <ele>727.97</ele>
        <time>2021-08-05T12:09:47Z</time>
      </trkpt>
      <trkpt lat="42.84489" lon="-1.2339">
        <ele>729.8</ele>
        <time>2021-08-05T12:09:50Z</time>
      </trkpt>
      <trkpt lat="42.84533" lon="-1.23401">
        <ele>732.56</ele>
        <time>2021-08-05T12:09:56Z</time>
      </trkpt>
      <trkpt lat="42.84548" lon="-1.23418">
        <ele>733.45</ele>
        <time>2021-08-05T12:09:58Z</time>
      </trkpt>
      <trkpt lat="42.84593" lon="-1.23473">
        <ele>737.06</ele>
        <time>2021-08-05T12:10:04Z</time>
      </trkpt>
      <trkpt lat="42.84615" lon="-1.23516">
        <ele>739.88</ele>
        <time>2021-08-05T12:10:08Z</time>
      </trkpt>
      <trkpt lat="42.84645" lon="-1.23564">
        <ele>743.82</ele>
        <time>2021-08-05T12:10:13Z</time>
      </trkpt>
      <trkpt lat="42.84651" lon="-1.23572">
        <ele>744.63</ele>
        <time>2021-08-05T12:10:14Z</time>
      </trkpt>
      <trkpt lat="42.84689" lon="-1.23588">
        <ele>748.82</ele>
        <time>2021-08-05T12:10:19Z</time>
      </trkpt>
      <trkpt lat="42.84708" lon="-1.2359">
        <ele>750.53</ele>
        <time>2021-08-05T12:10:21Z</time>
      </trkpt>
      <trkpt lat="42.84735" lon="-1.23602">
        <ele>753.01</ele>
        <time>2021-08-05T12:10:24Z</time>
      </trkpt>
      <trkpt lat="42.84774" lon="-1.23649">
        <ele>757.56</ele>
        <time>2021-08-05T12:10:29Z</time>
      </trkpt>
      <trkpt lat="42.84779" lon="-1.23661">
        <ele>758.52</ele>
        <time>2021-08-05T12:10:30Z</time>
      </trkpt>
      <trkpt lat="42.84809" lon="-1.23724">
        <ele>762.95</ele>
        <time>2021-08-05T12:10:35Z</time>
      </trkpt>
      <trkpt lat="42.84833" lon="-1.23774">
        <ele>766.78</ele>
        <time>2021-08-05T12:10:39Z</time>
      </trkpt>
      <trkpt lat="42.8487" lon="-1.23841">
        <ele>770.47</ele>
        <time>2021-08-05T12:10:44Z</time>
      </trkpt>
      <trkpt lat="42.84884" lon="-1.23865">
        <ele>771.55</ele>
        <time>2021-08-05T12:10:46Z</time>
      </trkpt>
      <trkpt lat="42.84916" lon="-1.23974">
        <ele>775.48</ele>
        <time>2021-08-05T12:10:54Z</time>
      </trkpt>
      <trkpt lat="42.84927" lon="-1.24">
        <ele>776.59</ele>
        <time>2021-08-05T12:10:56Z</time>
      </trkpt>
      <trkpt lat="42.84963" lon="-1.24042">
        <ele>778.39</ele>
        <time>2021-08-05T12:11:00Z</time>
      </trkpt>
      <trkpt lat="42.84992" lon="-1.24072">
        <ele>779.34</ele>
        <time>2021-08-05T12:11:03Z</time>
      </trkpt>
      <trkpt lat="42.85046" lon="-1.24167">
        <ele>782.73</ele>
        <time>2021-08-05T12:11:11Z</time>
      </trkpt>
      <trkpt lat="42.85101" lon="-1.2418">
        <ele>786.7</ele>
        <time>2021-08-05T12:11:17Z</time>
      </trkpt>
      <trkpt lat="42.8519" lon="-1.24185">
        <ele>790.45</ele>
        <time>2021-08-05T12:11:26Z</time>
      </trkpt>
      <trkpt lat="42.85217" lon="-1.24185">
        <ele>792</ele>
        <time>2021-08-05T12:11:29Z</time>
      </trkpt>
      <trkpt lat="42.85236" lon="-1.24179">
        <ele>793.8</ele>
        <time>2021-08-05T12:11:32Z</time>
      </trkpt>
      <trkpt lat="42.85265" lon="-1.24213">
        <ele>797.93</ele>
        <time>2021-08-05T12:11:39Z</time>
      </trkpt>
      <trkpt lat="42.853" lon="-1.2428">
        <ele>802.16</ele>
        <time>2021-08-05T12:11:45Z</time>
      </trkpt>
      <trkpt lat="42.85324" lon="-1.24336">
        <ele>805.64</ele>
        <time>2021-08-05T12:11:49Z</time>
      </trkpt>
      <trkpt lat="42.8533" lon="-1.24405">
        <ele>809.41</ele>
        <time>2021-08-05T12:11:53Z</time>
      </trkpt>
      <trkpt lat="42.85348" lon="-1.24487">
        <ele>814.7</ele>
        <time>2021-08-05T12:11:59Z</time>
      </trkpt>
      <trkpt lat="42.85382" lon="-1.24552">
        <ele>819.17</ele>
        <time>2021-08-05T12:12:04Z</time>
      </trkpt>
      <trkpt lat="42.854" lon="-1.24567">
        <ele>823.76</ele>
        <time>2021-08-05T12:12:09Z</time>
      </trkpt>
      <trkpt lat="42.85392" lon="-1.2453">
        <ele>827.16</ele>
        <time>2021-08-05T12:12:14Z</time>
      </trkpt>
      <trkpt lat="42.85386" lon="-1.2452">
        <ele>827.66</ele>
        <time>2021-08-05T12:12:15Z</time>
      </trkpt>
      <trkpt lat="42.85369" lon="-1.24464">
        <ele>829.68</ele>
        <time>2021-08-05T12:12:19Z</time>
      </trkpt>
      <trkpt lat="42.85369" lon="-1.24397">
        <ele>832.21</ele>
        <time>2021-08-05T12:12:23Z</time>
      </trkpt>
      <trkpt lat="42.8537" lon="-1.24368">
        <ele>833.35</ele>
        <time>2021-08-05T12:12:25Z</time>
      </trkpt>
      <trkpt lat="42.85369" lon="-1.24345">
        <ele>834.56</ele>
        <time>2021-08-05T12:12:28Z</time>
      </trkpt>
      <trkpt lat="42.85382" lon="-1.24376">
        <ele>837.23</ele>
        <time>2021-08-05T12:12:35Z</time>
      </trkpt>
      <trkpt lat="42.85382" lon="-1.24385">
        <ele>837.57</ele>
        <time>2021-08-05T12:12:36Z</time>
      </trkpt>
      <trkpt lat="42.85385" lon="-1.24415">
        <ele>838.83</ele>
        <time>2021-08-05T12:12:39Z</time>
      </trkpt>
      <trkpt lat="42.85419" lon="-1.24497">
        <ele>842.58</ele>
        <time>2021-08-05T12:12:45Z</time>
      </trkpt>
      <trkpt lat="42.85463" lon="-1.24522">
        <ele>846.45</ele>
        <time>2021-08-05T12:12:50Z</time>
      </trkpt>
      <trkpt lat="42.85484" lon="-1.24521">
        <ele>848.06</ele>
        <time>2021-08-05T12:12:52Z</time>
      </trkpt>
      <trkpt lat="42.85511" lon="-1.24551">
        <ele>852.07</ele>
        <time>2021-08-05T12:12:57Z</time>
      </trkpt>
      <trkpt lat="42.85512" lon="-1.24619">
        <ele>855.53</ele>
        <time>2021-08-05T12:13:02Z</time>
      </trkpt>
      <trkpt lat="42.85529" lon="-1.24648">
        <ele>857.71</ele>
        <time>2021-08-05T12:13:05Z</time>
      </trkpt>
      <trkpt lat="42.8556" lon="-1.24686">
        <ele>861.97</ele>
        <time>2021-08-05T12:13:09Z</time>
      </trkpt>
      <trkpt lat="42.85595" lon="-1.24717">
        <ele>865.81</ele>
        <time>2021-08-05T12:13:13Z</time>
      </trkpt>
      <trkpt lat="42.8562" lon="-1.24731">
        <ele>868.94</ele>
        <time>2021-08-05T12:13:16Z</time>
      </trkpt>
      <trkpt lat="42.85639" lon="-1.24739">
        <ele>872.08</ele>
        <time>2021-08-05T12:13:19Z</time>
      </trkpt>
      <trkpt lat="42.85663" lon="-1.24748">
        <ele>875.11</ele>
        <time>2021-08-05T12:13:23Z</time>
      </trkpt>
      <trkpt lat="42.85704" lon="-1.24759">
        <ele>878.46</ele>
        <time>2021-08-05T12:13:31Z</time>
      </trkpt>
      <trkpt lat="42.8575" lon="-1.24767">
        <ele>881.57</ele>
        <time>2021-08-05T12:13:39Z</time>
      </trkpt>
      <trkpt lat="42.85774" lon="-1.24776">
        <ele>882.97</ele>
        <time>2021-08-05T12:13:42Z</time>
      </trkpt>
      <trkpt lat="42.85776" lon="-1.24801">
        <ele>886.34</ele>
        <time>2021-08-05T12:13:48Z</time>
      </trkpt>
      <trkpt lat="42.8577" lon="-1.24804">
        <ele>886.7</ele>
        <time>2021-08-05T12:13:49Z</time>
      </trkpt>
      <trkpt lat="42.85753" lon="-1.24812">
        <ele>887.47</ele>
        <time>2021-08-05T12:13:51Z</time>
      </trkpt>
      <trkpt lat="42.85715" lon="-1.24844">
        <ele>890.12</ele>
        <time>2021-08-05T12:13:57Z</time>
      </trkpt>
      <trkpt lat="42.85704" lon="-1.24893">
        <ele>893.06</ele>
        <time>2021-08-05T12:14:03Z</time>
      </trkpt>
      <trkpt lat="42.85712" lon="-1.24986">
        <ele>896.91</ele>
        <time>2021-08-05T12:14:11Z</time>
      </trkpt>
      <trkpt lat="42.85731" lon="-1.25053">
        <ele>900.69</ele>
        <time>2021-08-05T12:14:17Z</time>
      </trkpt>
      <trkpt lat="42.85745" lon="-1.25098">
        <ele>903.69</ele>
        <time>2021-08-05T12:14:21Z</time>
      </trkpt>
      <trkpt lat="42.85757" lon="-1.2514">
        <ele>906.74</ele>
        <time>2021-08-05T12:14:25Z</time>
      </trkpt>
      <trkpt lat="42.85773" lon="-1.25178">
        <ele>910.15</ele>
        <time>2021-08-05T12:14:29Z</time>
      </trkpt>
      <trkpt lat="42.85787" lon="-1.2522">
        <ele>913.64</ele>
        <time>2021-08-05T12:14:33Z</time>
      </trkpt>
      <trkpt lat="42.85799" lon="-1.25253">
        <ele>916.23</ele>
        <time>2021-08-05T12:14:36Z</time>
      </trkpt>
      <trkpt lat="42.85824" lon="-1.2528">
        <ele>919.18</ele>
        <time>2021-08-05T12:14:40Z</time>
      </trkpt>
      <trkpt lat="42.85847" lon="-1.25319">
        <ele>922.56</ele>
        <time>2021-08-05T12:14:45Z</time>
      </trkpt>
      <trkpt lat="42.85867" lon="-1.25363">
        <ele>926.38</ele>
        <time>2021-08-05T12:14:50Z</time>
      </trkpt>
      <trkpt lat="42.85889" lon="-1.25409">
        <ele>929.66</ele>
        <time>2021-08-05T12:14:55Z</time>
      </trkpt>
      <trkpt lat="42.85897" lon="-1.25426">
        <ele>931.63</ele>
        <time>2021-08-05T12:14:59Z</time>
      </trkpt>
      <trkpt lat="42.85906" lon="-1.25494">
        <ele>934.92</ele>
        <time>2021-08-05T12:15:07Z</time>
      </trkpt>
      <trkpt lat="42.85934" lon="-1.25539">
        <ele>938.79</ele>
        <time>2021-08-05T12:15:14Z</time>
      </trkpt>
      <trkpt lat="42.85963" lon="-1.25549">
        <ele>941.27</ele>
        <time>2021-08-05T12:15:18Z</time>
      </trkpt>
      <trkpt lat="42.86003" lon="-1.2555">
        <ele>944.61</ele>
        <time>2021-08-05T12:15:24Z</time>
      </trkpt>
      <trkpt lat="42.85999" lon="-1.25583">
        <ele>946.84</ele>
        <time>2021-08-05T12:15:28Z</time>
      </trkpt>
      <trkpt lat="42.85989" lon="-1.25618">
        <ele>948.95</ele>
        <time>2021-08-05T12:15:32Z</time>
      </trkpt>
      <trkpt lat="42.85992" lon="-1.25654">
        <ele>950.85</ele>
        <time>2021-08-05T12:15:36Z</time>
      </trkpt>
      <trkpt lat="42.86005" lon="-1.25702">
        <ele>953.7</ele>
        <time>2021-08-05T12:15:41Z</time>
      </trkpt>
      <trkpt lat="42.86009" lon="-1.25748">
        <ele>956.46</ele>
        <time>2021-08-05T12:15:46Z</time>
      </trkpt>
      <trkpt lat="42.86026" lon="-1.25789">
        <ele>958.67</ele>
        <time>2021-08-05T12:15:50Z</time>
      </trkpt>
      <trkpt lat="42.8608" lon="-1.25872">
        <ele>962.22</ele>
        <time>2021-08-05T12:15:59Z</time>
      </trkpt>
      <trkpt lat="42.86095" lon="-1.25888">
        <ele>963.47</ele>
        <time>2021-08-05T12:16:01Z</time>
      </trkpt>
      <trkpt lat="42.86133" lon="-1.25947">
        <ele>967.43</ele>
        <time>2021-08-05T12:16:08Z</time>
      </trkpt>
      <trkpt lat="42.86166" lon="-1.25974">
        <ele>971.1</ele>
        <time>2021-08-05T12:16:13Z</time>
      </trkpt>
      <trkpt lat="42.86204" lon="-1.26006">
        <ele>974.31</ele>
        <time>2021-08-05T12:16:18Z</time>
      </trkpt>
      <trkpt lat="42.86227" lon="-1.26019">
        <ele>976.39</ele>
        <time>2021-08-05T12:16:21Z</time>
      </trkpt>
      <trkpt lat="42.86257" lon="-1.26022">
        <ele>978.82</ele>
        <time>2021-08-05T12:16:25Z</time>
      </trkpt>
      <trkpt lat="42.8632" lon="-1.26044">
        <ele>983.81</ele>
        <time>2021-08-05T12:16:34Z</time>
      </trkpt>
      <trkpt lat="42.86325" lon="-1.26044">
        <ele>984.16</ele>
        <time>2021-08-05T12:16:35Z</time>
      </trkpt>
      <trkpt lat="42.86326" lon="-1.26076">
        <ele>985.42</ele>
        <time>2021-08-05T12:16:42Z</time>
      </trkpt>
      <trkpt lat="42.86313" lon="-1.2609">
        <ele>985.78</ele>
        <time>2021-08-05T12:16:44Z</time>
      </trkpt>
      <trkpt lat="42.863" lon="-1.26102">
        <ele>986.1</ele>
        <time>2021-08-05T12:16:46Z</time>
      </trkpt>
      <trkpt lat="42.86281" lon="-1.26113">
        <ele>986.73</ele>
        <time>2021-08-05T12:16:49Z</time>
      </trkpt>
      <trkpt lat="42.86258" lon="-1.26135">
        <ele>988.05</ele>
        <time>2021-08-05T12:16:53Z</time>
      </trkpt>
      <trkpt lat="42.8623" lon="-1.26187">
        <ele>991.73</ele>
        <time>2021-08-05T12:17:01Z</time>
      </trkpt>
      <trkpt lat="42.86234" lon="-1.26211">
        <ele>993.25</ele>
        <time>2021-08-05T12:17:04Z</time>
      </trkpt>
      <trkpt lat="42.86244" lon="-1.26246">
        <ele>996.95</ele>
        <time>2021-08-05T12:17:11Z</time>
      </trkpt>
      <trkpt lat="42.86247" lon="-1.2625">
        <ele>997.51</ele>
        <time>2021-08-05T12:17:12Z</time>
      </trkpt>
      <trkpt lat="42.86278" lon="-1.26283">
        <ele>1000.94</ele>
        <time>2021-08-05T12:17:19Z</time>
      </trkpt>
      <trkpt lat="42.86273" lon="-1.26308">
        <ele>1004.09</ele>
        <time>2021-08-05T12:17:26Z</time>
      </trkpt>
      <trkpt lat="42.86262" lon="-1.26333">
        <ele>1006.78</ele>
        <time>2021-08-05T12:17:33Z</time>
      </trkpt>
      <trkpt lat="42.86265" lon="-1.26353">
        <ele>1008.47</ele>
        <time>2021-08-05T12:17:37Z</time>
      </trkpt>
      <trkpt lat="42.86244" lon="-1.26373">
        <ele>1010.54</ele>
        <time>2021-08-05T12:17:42Z</time>
      </trkpt>
      <trkpt lat="42.86185" lon="-1.26378">
        <ele>1014.41</ele>
        <time>2021-08-05T12:17:49Z</time>
      </trkpt>
      <trkpt lat="42.86082" lon="-1.26324">
        <ele>1017.55</ele>
        <time>2021-08-05T12:18:01Z</time>
      </trkpt>
      <trkpt lat="42.86075" lon="-1.26343">
        <ele>1014.21</ele>
        <time>2021-08-05T12:18:07Z</time>
      </trkpt>
      <trkpt lat="42.86081" lon="-1.26346">
        <ele>1013.79</ele>
        <time>2021-08-05T12:18:08Z</time>
      </trkpt>
      <trkpt lat="42.86141" lon="-1.26405">
        <ele>1010.07</ele>
        <time>2021-08-05T12:18:18Z</time>
      </trkpt>
      <trkpt lat="42.86184" lon="-1.26449">
        <ele>1006.83</ele>
        <time>2021-08-05T12:18:25Z</time>
      </trkpt>
      <trkpt lat="42.86189" lon="-1.26456">
        <ele>1006.31</ele>
        <time>2021-08-05T12:18:26Z</time>
      </trkpt>
      <trkpt lat="42.8618" lon="-1.26512">
        <ele>1002.29</ele>
        <time>2021-08-05T12:18:32Z</time>
      </trkpt>
      <trkpt lat="42.86165" lon="-1.26542">
        <ele>998.96</ele>
        <time>2021-08-05T12:18:36Z</time>
      </trkpt>
      <trkpt lat="42.86176" lon="-1.2657">
        <ele>996.72</ele>
        <time>2021-08-05T12:18:39Z</time>
      </trkpt>
      <trkpt lat="42.86196" lon="-1.26598">
        <ele>993.74</ele>
        <time>2021-08-05T12:18:43Z</time>
      </trkpt>
      <trkpt lat="42.86179" lon="-1.26633">
        <ele>989.71</ele>
        <time>2021-08-05T12:18:49Z</time>
      </trkpt>
      <trkpt lat="42.8614" lon="-1.26642">
        <ele>986.53</ele>
        <time>2021-08-05T12:18:54Z</time>
      </trkpt>
      <trkpt lat="42.86124" lon="-1.26681">
        <ele>983.19</ele>
        <time>2021-08-05T12:18:59Z</time>
      </trkpt>
      <trkpt lat="42.86125" lon="-1.26691">
        <ele>982.51</ele>
        <time>2021-08-05T12:19:00Z</time>
      </trkpt>
      <trkpt lat="42.86129" lon="-1.26746">
        <ele>978.53</ele>
        <time>2021-08-05T12:19:07Z</time>
      </trkpt>
      <trkpt lat="42.86142" lon="-1.26773">
        <ele>976.13</ele>
        <time>2021-08-05T12:19:11Z</time>
      </trkpt>
      <trkpt lat="42.86151" lon="-1.26784">
        <ele>974.94</ele>
        <time>2021-08-05T12:19:13Z</time>
      </trkpt>
      <trkpt lat="42.86145" lon="-1.26815">
        <ele>972.76</ele>
        <time>2021-08-05T12:19:17Z</time>
      </trkpt>
      <trkpt lat="42.86121" lon="-1.2686">
        <ele>968.71</ele>
        <time>2021-08-05T12:19:23Z</time>
      </trkpt>
      <trkpt lat="42.8611" lon="-1.2688">
        <ele>966.3</ele>
        <time>2021-08-05T12:19:26Z</time>
      </trkpt>
      <trkpt lat="42.8611" lon="-1.26912">
        <ele>962.39</ele>
        <time>2021-08-05T12:19:31Z</time>
      </trkpt>
      <trkpt lat="42.86124" lon="-1.26944">
        <ele>959.35</ele>
        <time>2021-08-05T12:19:35Z</time>
      </trkpt>
      <trkpt lat="42.86153" lon="-1.2699">
        <ele>955.15</ele>
        <time>2021-08-05T12:19:41Z</time>
      </trkpt>
      <trkpt lat="42.86159" lon="-1.26998">
        <ele>954.45</ele>
        <time>2021-08-05T12:19:42Z</time>
      </trkpt>
      <trkpt lat="42.86178" lon="-1.27017">
        <ele>951.64</ele>
        <time>2021-08-05T12:19:45Z</time>
      </trkpt>
      <trkpt lat="42.86224" lon="-1.27049">
        <ele>947.75</ele>
        <time>2021-08-05T12:19:51Z</time>
      </trkpt>
      <trkpt lat="42.8627" lon="-1.27104">
        <ele>944.61</ele>
        <time>2021-08-05T12:19:57Z</time>
      </trkpt>
      <trkpt lat="42.86304" lon="-1.27127">
        <ele>941.77</ele>
        <time>2021-08-05T12:20:01Z</time>
      </trkpt>
      <trkpt lat="42.86351" lon="-1.2714">
        <ele>937.65</ele>
        <time>2021-08-05T12:20:06Z</time>
      </trkpt>
      <trkpt lat="42.8636" lon="-1.2714">
        <ele>936.84</ele>
        <time>2021-08-05T12:20:07Z</time>
      </trkpt>
      <trkpt lat="42.86401" lon="-1.27126">
        <ele>932.82</ele>
        <time>2021-08-05T12:20:12Z</time>
      </trkpt>
      <trkpt lat="42.86413" lon="-1.27114">
        <ele>931.1</ele>
        <time>2021-08-05T12:20:14Z</time>
      </trkpt>
      <trkpt lat="42.86451" lon="-1.27133">
        <ele>925.72</ele>
        <time>2021-08-05T12:20:21Z</time>
      </trkpt>
      <trkpt lat="42.86471" lon="-1.27158">
        <ele>923.76</ele>
        <time>2021-08-05T12:20:24Z</time>
      </trkpt>
      <trkpt lat="42.86517" lon="-1.2721">
        <ele>919.85</ele>
        <time>2021-08-05T12:20:30Z</time>
      </trkpt>
      <trkpt lat="42.86558" lon="-1.27258">
        <ele>916.22</ele>
        <time>2021-08-05T12:20:35Z</time>
      </trkpt>
      <trkpt lat="42.86577" lon="-1.27281">
        <ele>913.93</ele>
        <time>2021-08-05T12:20:38Z</time>
      </trkpt>
      <trkpt lat="42.86608" lon="-1.27286">
        <ele>909.91</ele>
        <time>2021-08-05T12:20:43Z</time>
      </trkpt>
      <trkpt lat="42.86639" lon="-1.27267">
        <ele>906.23</ele>
        <time>2021-08-05T12:20:48Z</time>
      </trkpt>
      <trkpt lat="42.86651" lon="-1.27308">
        <ele>902.11</ele>
        <time>2021-08-05T12:20:54Z</time>
      </trkpt>
      <trkpt lat="42.86647" lon="-1.27321">
        <ele>901.47</ele>
        <time>2021-08-05T12:20:55Z</time>
      </trkpt>
      <trkpt lat="42.86627" lon="-1.27385">
        <ele>897.39</ele>
        <time>2021-08-05T12:21:01Z</time>
      </trkpt>
      <trkpt lat="42.86638" lon="-1.2744">
        <ele>893.22</ele>
        <time>2021-08-05T12:21:07Z</time>
      </trkpt>
      <trkpt lat="42.86685" lon="-1.27473">
        <ele>889.75</ele>
        <time>2021-08-05T12:21:12Z</time>
      </trkpt>
      <trkpt lat="42.86693" lon="-1.27481">
        <ele>888.9</ele>
        <time>2021-08-05T12:21:13Z</time>
      </trkpt>
      <trkpt lat="42.86716" lon="-1.2751">
        <ele>886.35</ele>
        <time>2021-08-05T12:21:16Z</time>
      </trkpt>
      <trkpt lat="42.86733" lon="-1.2754">
        <ele>884.13</ele>
        <time>2021-08-05T12:21:19Z</time>
      </trkpt>
      <trkpt lat="42.8675" lon="-1.2756">
        <ele>881.42</ele>
        <time>2021-08-05T12:21:22Z</time>
      </trkpt>
      <trkpt lat="42.86785" lon="-1.27564">
        <ele>877.39</ele>
        <time>2021-08-05T12:21:26Z</time>
      </trkpt>
      <trkpt lat="42.86817" lon="-1.2757">
        <ele>874.78</ele>
        <time>2021-08-05T12:21:29Z</time>
      </trkpt>
      <trkpt lat="42.86852" lon="-1.27598">
        <ele>870.89</ele>
        <time>2021-08-05T12:21:33Z</time>
      </trkpt>
      <trkpt lat="42.86865" lon="-1.27613">
        <ele>869.01</ele>
        <time>2021-08-05T12:21:35Z</time>
      </trkpt>
      <trkpt lat="42.86904" lon="-1.27625">
        <ele>864.44</ele>
        <time>2021-08-05T12:21:40Z</time>
      </trkpt>
      <trkpt lat="42.8695" lon="-1.27639">
        <ele>858.71</ele>
        <time>2021-08-05T12:21:46Z</time>
      </trkpt>
      <trkpt lat="42.86959" lon="-1.27641">
        <ele>857.86</ele>
        <time>2021-08-05T12:21:47Z</time>
      </trkpt>
      <trkpt lat="42.87002" lon="-1.27653">
        <ele>853.31</ele>
        <time>2021-08-05T12:21:52Z</time>
      </trkpt>
      <trkpt lat="42.87028" lon="-1.27663">
        <ele>850.66</ele>
        <time>2021-08-05T12:21:55Z</time>
      </trkpt>
      <trkpt lat="42.87069" lon="-1.277">
        <ele>846.2</ele>
        <time>2021-08-05T12:22:00Z</time>
      </trkpt>
      <trkpt lat="42.87101" lon="-1.27725">
        <ele>843.13</ele>
        <time>2021-08-05T12:22:04Z</time>
      </trkpt>
      <trkpt lat="42.87132" lon="-1.27747">
        <ele>839.97</ele>
        <time>2021-08-05T12:22:08Z</time>
      </trkpt>
      <trkpt lat="42.87168" lon="-1.27764">
        <ele>835.68</ele>
        <time>2021-08-05T12:22:13Z</time>
      </trkpt>
      <trkpt lat="42.87193" lon="-1.2777">
        <ele>833.31</ele>
        <time>2021-08-05T12:22:16Z</time>
      </trkpt>
      <trkpt lat="42.87225" lon="-1.27794">
        <ele>830.54</ele>
        <time>2021-08-05T12:22:20Z</time>
      </trkpt>
      <trkpt lat="42.87241" lon="-1.27809">
        <ele>829.15</ele>
        <time>2021-08-05T12:22:22Z</time>
      </trkpt>
      <trkpt lat="42.87274" lon="-1.27828">
        <ele>826.41</ele>
        <time>2021-08-05T12:22:26Z</time>
      </trkpt>
      <trkpt lat="42.87315" lon="-1.27886">
        <ele>822.86</ele>
        <time>2021-08-05T12:22:34Z</time>
      </trkpt>
      <trkpt lat="42.87362" lon="-1.27901">
        <ele>820.32</ele>
        <time>2021-08-05T12:22:40Z</time>
      </trkpt>
      <trkpt lat="42.8738" lon="-1.27912">
        <ele>819.66</ele>
        <time>2021-08-05T12:22:42Z</time>
      </trkpt>
      <trkpt lat="42.87422" lon="-1.27918">
        <ele>819.15</ele>
        <time>2021-08-05T12:22:46Z</time>
      </trkpt>
      <trkpt lat="42.87479" lon="-1.27938">
        <ele>818.91</ele>
        <time>2021-08-05T12:22:52Z</time>
      </trkpt>
      <trkpt lat="42.87504" lon="-1.2798">
        <ele>818.36</ele>
        <time>2021-08-05T12:22:56Z</time>
      </trkpt>
      <trkpt lat="42.87517" lon="-1.28001">
        <ele>818.06</ele>
        <time>2021-08-05T12:22:58Z</time>
      </trkpt>
      <trkpt lat="42.87561" lon="-1.28026">
        <ele>814.83</ele>
        <time>2021-08-05T12:23:05Z</time>
      </trkpt>
      <trkpt lat="42.8759" lon="-1.28044">
        <ele>811.79</ele>
        <time>2021-08-05T12:23:10Z</time>
      </trkpt>
      <trkpt lat="42.87598" lon="-1.2806">
        <ele>810.42</ele>
        <time>2021-08-05T12:23:12Z</time>
      </trkpt>
      <trkpt lat="42.87631" lon="-1.28125">
        <ele>806.39</ele>
        <time>2021-08-05T12:23:20Z</time>
      </trkpt>
      <trkpt lat="42.87628" lon="-1.28122">
        <ele>805.09</ele>
        <time>2021-08-05T12:23:28Z</time>
      </trkpt>
      <trkpt lat="42.87643" lon="-1.28136">
        <ele>804.65</ele>
        <time>2021-08-05T12:23:43Z</time>
      </trkpt>
      <trkpt lat="42.87657" lon="-1.28165">
        <ele>806.16</ele>
        <time>2021-08-05T12:23:52Z</time>
      </trkpt>
      <trkpt lat="42.87667" lon="-1.28196">
        <ele>806.33</ele>
        <time>2021-08-05T12:23:56Z</time>
      </trkpt>
      <trkpt lat="42.8768" lon="-1.28224">
        <ele>805.45</ele>
        <time>2021-08-05T12:24:00Z</time>
      </trkpt>
      <trkpt lat="42.8769" lon="-1.28249">
        <ele>804.15</ele>
        <time>2021-08-05T12:24:04Z</time>
      </trkpt>
      <trkpt lat="42.87721" lon="-1.28317">
        <ele>801.25</ele>
        <time>2021-08-05T12:24:12Z</time>
      </trkpt>
      <trkpt lat="42.87779" lon="-1.28357">
        <ele>799.05</ele>
        <time>2021-08-05T12:24:19Z</time>
      </trkpt>
      <trkpt lat="42.87801" lon="-1.28364">
        <ele>798.88</ele>
        <time>2021-08-05T12:24:21Z</time>
      </trkpt>
      <trkpt lat="42.87838" lon="-1.284">
        <ele>798.68</ele>
        <time>2021-08-05T12:24:25Z</time>
      </trkpt>
      <trkpt lat="42.87857" lon="-1.28426">
        <ele>798.55</ele>
        <time>2021-08-05T12:24:27Z</time>
      </trkpt>
      <trkpt lat="42.87884" lon="-1.28497">
        <ele>797.78</ele>
        <time>2021-08-05T12:24:31Z</time>
      </trkpt>
      <trkpt lat="42.8791" lon="-1.28549">
        <ele>796.71</ele>
        <time>2021-08-05T12:24:34Z</time>
      </trkpt>
      <trkpt lat="42.8794" lon="-1.287">
        <ele>793.68</ele>
        <time>2021-08-05T12:24:41Z</time>
      </trkpt>
      <trkpt lat="42.87957" lon="-1.28796">
        <ele>790.25</ele>
        <time>2021-08-05T12:24:45Z</time>
      </trkpt>
      <trkpt lat="42.87977" lon="-1.28882">
        <ele>786.72</ele>
        <time>2021-08-05T12:24:49Z</time>
      </trkpt>
      <trkpt lat="42.87982" lon="-1.28899">
        <ele>785.83</ele>
        <time>2021-08-05T12:24:50Z</time>
      </trkpt>
      <trkpt lat="42.88022" lon="-1.28943">
        <ele>781.93</ele>
        <time>2021-08-05T12:24:54Z</time>
      </trkpt>
      <trkpt lat="42.88142" lon="-1.2906">
        <ele>777.94</ele>
        <time>2021-08-05T12:25:03Z</time>
      </trkpt>
      <trkpt lat="42.88184" lon="-1.29128">
        <ele>775.83</ele>
        <time>2021-08-05T12:25:07Z</time>
      </trkpt>
      <trkpt lat="42.88244" lon="-1.29178">
        <ele>771.92</ele>
        <time>2021-08-05T12:25:12Z</time>
      </trkpt>
      <trkpt lat="42.88266" lon="-1.29201">
        <ele>769.92</ele>
        <time>2021-08-05T12:25:14Z</time>
      </trkpt>
      <trkpt lat="42.8829" lon="-1.29274">
        <ele>765.73</ele>
        <time>2021-08-05T12:25:18Z</time>
      </trkpt>
      <trkpt lat="42.88298" lon="-1.29326">
        <ele>761.63</ele>
        <time>2021-08-05T12:25:21Z</time>
      </trkpt>
      <trkpt lat="42.88329" lon="-1.2937">
        <ele>755.9</ele>
        <time>2021-08-05T12:25:25Z</time>
      </trkpt>
      <trkpt lat="42.88373" lon="-1.29435">
        <ele>749.25</ele>
        <time>2021-08-05T12:25:30Z</time>
      </trkpt>
      <trkpt lat="42.88401" lon="-1.29479">
        <ele>745.41</ele>
        <time>2021-08-05T12:25:33Z</time>
      </trkpt>
      <trkpt lat="42.88426" lon="-1.29498">
        <ele>742.78</ele>
        <time>2021-08-05T12:25:35Z</time>
      </trkpt>
      <trkpt lat="42.88465" lon="-1.29526">
        <ele>739.48</ele>
        <time>2021-08-05T12:25:38Z</time>
      </trkpt>
      <trkpt lat="42.88499" lon="-1.29586">
        <ele>735.98</ele>
        <time>2021-08-05T12:25:42Z</time>
      </trkpt>
      <trkpt lat="42.88513" lon="-1.2962">
        <ele>734.48</ele>
        <time>2021-08-05T12:25:44Z</time>
      </trkpt>
      <trkpt lat="42.88575" lon="-1.29708">
        <ele>730.29</ele>
        <time>2021-08-05T12:25:50Z</time>
      </trkpt>
      <trkpt lat="42.88625" lon="-1.2977">
        <ele>726.93</ele>
        <time>2021-08-05T12:25:54Z</time>
      </trkpt>
      <trkpt lat="42.88655" lon="-1.29827">
        <ele>723.82</ele>
        <time>2021-08-05T12:25:57Z</time>
      </trkpt>
      <trkpt lat="42.88662" lon="-1.29845">
        <ele>722.74</ele>
        <time>2021-08-05T12:25:58Z</time>
      </trkpt>
      <trkpt lat="42.88667" lon="-1.29917">
        <ele>717.52</ele>
        <time>2021-08-05T12:26:02Z</time>
      </trkpt>
      <trkpt lat="42.88683" lon="-1.2998">
        <ele>711.84</ele>
        <time>2021-08-05T12:26:06Z</time>
      </trkpt>
      <trkpt lat="42.88717" lon="-1.30008">
        <ele>707.98</ele>
        <time>2021-08-05T12:26:09Z</time>
      </trkpt>
      <trkpt lat="42.88744" lon="-1.30029">
        <ele>704.18</ele>
        <time>2021-08-05T12:26:12Z</time>
      </trkpt>
      <trkpt lat="42.88744" lon="-1.30058">
        <ele>699.91</ele>
        <time>2021-08-05T12:26:16Z</time>
      </trkpt>
      <trkpt lat="42.88716" lon="-1.30042">
        <ele>696.6</ele>
        <time>2021-08-05T12:26:20Z</time>
      </trkpt>
      <trkpt lat="42.88706" lon="-1.30036">
        <ele>695.26</ele>
        <time>2021-08-05T12:26:21Z</time>
      </trkpt>
      <trkpt lat="42.88676" lon="-1.30002">
        <ele>693.24</ele>
        <time>2021-08-05T12:26:25Z</time>
      </trkpt>
      <trkpt lat="42.88648" lon="-1.30005">
        <ele>690.8</ele>
        <time>2021-08-05T12:26:30Z</time>
      </trkpt>
      <trkpt lat="42.88672" lon="-1.30038">
        <ele>688.9</ele>
        <time>2021-08-05T12:26:34Z</time>
      </trkpt>
      <trkpt lat="42.88735" lon="-1.30098">
        <ele>685.19</ele>
        <time>2021-08-05T12:26:40Z</time>
      </trkpt>
      <trkpt lat="42.88801" lon="-1.3014">
        <ele>680.3</ele>
        <time>2021-08-05T12:26:45Z</time>
      </trkpt>
      <trkpt lat="42.88839" lon="-1.3017">
        <ele>676.7</ele>
        <time>2021-08-05T12:26:48Z</time>
      </trkpt>
      <trkpt lat="42.88873" lon="-1.30201">
        <ele>672.54</ele>
        <time>2021-08-05T12:26:51Z</time>
      </trkpt>
      <trkpt lat="42.88898" lon="-1.30235">
        <ele>668.37</ele>
        <time>2021-08-05T12:26:54Z</time>
      </trkpt>
      <trkpt lat="42.88936" lon="-1.30261">
        <ele>663.02</ele>
        <time>2021-08-05T12:26:58Z</time>
      </trkpt>
      <trkpt lat="42.8897" lon="-1.30245">
        <ele>659.48</ele>
        <time>2021-08-05T12:27:01Z</time>
      </trkpt>
      <trkpt lat="42.8902" lon="-1.30218">
        <ele>655.35</ele>
        <time>2021-08-05T12:27:05Z</time>
      </trkpt>
      <trkpt lat="42.89046" lon="-1.30203">
        <ele>653.37</ele>
        <time>2021-08-05T12:27:07Z</time>
      </trkpt>
      <trkpt lat="42.89098" lon="-1.30194">
        <ele>649.21</ele>
        <time>2021-08-05T12:27:11Z</time>
      </trkpt>
      <trkpt lat="42.89139" lon="-1.30194">
        <ele>645.97</ele>
        <time>2021-08-05T12:27:14Z</time>
      </trkpt>
      <trkpt lat="42.89187" lon="-1.30213">
        <ele>641.72</ele>
        <time>2021-08-05T12:27:18Z</time>
      </trkpt>
      <trkpt lat="42.89226" lon="-1.30228">
        <ele>638.58</ele>
        <time>2021-08-05T12:27:21Z</time>
      </trkpt>
      <trkpt lat="42.89253" lon="-1.30236">
        <ele>636.65</ele>
        <time>2021-08-05T12:27:23Z</time>
      </trkpt>
      <trkpt lat="42.89312" lon="-1.30271">
        <ele>631.79</ele>
        <time>2021-08-05T12:27:28Z</time>
      </trkpt>
      <trkpt lat="42.89332" lon="-1.30283">
        <ele>629.85</ele>
        <time>2021-08-05T12:27:30Z</time>
      </trkpt>
      <trkpt lat="42.89365" lon="-1.30321">
        <ele>627.01</ele>
        <time>2021-08-05T12:27:34Z</time>
      </trkpt>
      <trkpt lat="42.89391" lon="-1.3037">
        <ele>624.48</ele>
        <time>2021-08-05T12:27:38Z</time>
      </trkpt>
      <trkpt lat="42.89404" lon="-1.3039">
        <ele>623.22</ele>
        <time>2021-08-05T12:27:40Z</time>
      </trkpt>
      <trkpt lat="42.89458" lon="-1.30424">
        <ele>619.22</ele>
        <time>2021-08-05T12:27:48Z</time>
      </trkpt>
      <trkpt lat="42.89463" lon="-1.30425">
        <ele>618.9</ele>
        <time>2021-08-05T12:27:49Z</time>
      </trkpt>
      <trkpt lat="42.89468" lon="-1.30422">
        <ele>618.54</ele>
        <time>2021-08-05T12:27:50Z</time>
      </trkpt>
      <trkpt lat="42.89473" lon="-1.30418">
        <ele>618.19</ele>
        <time>2021-08-05T12:27:51Z</time>
      </trkpt>
      <trkpt lat="42.89477" lon="-1.30412">
        <ele>617.89</ele>
        <time>2021-08-05T12:27:52Z</time>
      </trkpt>
      <trkpt lat="42.8948" lon="-1.30407">
        <ele>617.57</ele>
        <time>2021-08-05T12:27:53Z</time>
      </trkpt>
      <trkpt lat="42.89485" lon="-1.30398">
        <ele>616.98</ele>
        <time>2021-08-05T12:27:55Z</time>
      </trkpt>
      <trkpt lat="42.89509" lon="-1.3038">
        <ele>615.83</ele>
        <time>2021-08-05T12:28:01Z</time>
      </trkpt>
      <trkpt lat="42.89524" lon="-1.30372">
        <ele>616.01</ele>
        <time>2021-08-05T12:28:11Z</time>
      </trkpt>
      <trkpt lat="42.8953" lon="-1.30365">
        <ele>616.32</ele>
        <time>2021-08-05T12:28:28Z</time>
      </trkpt>
      <trkpt lat="42.89526" lon="-1.30347">
        <ele>616.59</ele>
        <time>2021-08-05T12:28:32Z</time>
      </trkpt>
      <trkpt lat="42.89519" lon="-1.30328">
        <ele>616.91</ele>
        <time>2021-08-05T12:28:35Z</time>
      </trkpt>
      <trkpt lat="42.89493" lon="-1.30223">
        <ele>617.76</ele>
        <time>2021-08-05T12:28:48Z</time>
      </trkpt>
      <trkpt lat="42.89496" lon="-1.30122">
        <ele>618.46</ele>
        <time>2021-08-05T12:29:00Z</time>
      </trkpt>
      <trkpt lat="42.89524" lon="-1.30013">
        <ele>620.67</ele>
        <time>2021-08-05T12:29:10Z</time>
      </trkpt>
      <trkpt lat="42.89562" lon="-1.29886">
        <ele>623.78</ele>
        <time>2021-08-05T12:29:19Z</time>
      </trkpt>
      <trkpt lat="42.89596" lon="-1.29823">
        <ele>625.43</ele>
        <time>2021-08-05T12:29:23Z</time>
      </trkpt>
      <trkpt lat="42.89698" lon="-1.29707">
        <ele>628.6</ele>
        <time>2021-08-05T12:29:31Z</time>
      </trkpt>
      <trkpt lat="42.89789" lon="-1.2969">
        <ele>631.24</ele>
        <time>2021-08-05T12:29:36Z</time>
      </trkpt>
      <trkpt lat="42.8981" lon="-1.29695">
        <ele>631.24</ele>
        <time>2021-08-05T12:29:37Z</time>
      </trkpt>
      <trkpt lat="42.89851" lon="-1.29705">
        <ele>632.07</ele>
        <time>2021-08-05T12:29:39Z</time>
      </trkpt>
      <trkpt lat="42.89938" lon="-1.29666">
        <ele>633.04</ele>
        <time>2021-08-05T12:29:44Z</time>
      </trkpt>
      <trkpt lat="42.89963" lon="-1.29623">
        <ele>633.07</ele>
        <time>2021-08-05T12:29:46Z</time>
      </trkpt>
      <trkpt lat="42.90074" lon="-1.29512">
        <ele>632.09</ele>
        <time>2021-08-05T12:29:53Z</time>
      </trkpt>
      <trkpt lat="42.90254" lon="-1.2944">
        <ele>633.87</ele>
        <time>2021-08-05T12:30:03Z</time>
      </trkpt>
      <trkpt lat="42.90344" lon="-1.29469">
        <ele>636.45</ele>
        <time>2021-08-05T12:30:09Z</time>
      </trkpt>
      <trkpt lat="42.90366" lon="-1.29502">
        <ele>637.25</ele>
        <time>2021-08-05T12:30:11Z</time>
      </trkpt>
      <trkpt lat="42.90438" lon="-1.29601">
        <ele>639.56</ele>
        <time>2021-08-05T12:30:17Z</time>
      </trkpt>
      <trkpt lat="42.90491" lon="-1.29714">
        <ele>640.92</ele>
        <time>2021-08-05T12:30:23Z</time>
      </trkpt>
      <trkpt lat="42.90577" lon="-1.29772">
        <ele>641.56</ele>
        <time>2021-08-05T12:30:29Z</time>
      </trkpt>
      <trkpt lat="42.9067" lon="-1.29798">
        <ele>641.88</ele>
        <time>2021-08-05T12:30:35Z</time>
      </trkpt>
      <trkpt lat="42.90783" lon="-1.29788">
        <ele>642.09</ele>
        <time>2021-08-05T12:30:42Z</time>
      </trkpt>
      <trkpt lat="42.90909" lon="-1.29745">
        <ele>643.38</ele>
        <time>2021-08-05T12:30:50Z</time>
      </trkpt>
      <trkpt lat="42.91011" lon="-1.29752">
        <ele>645.53</ele>
        <time>2021-08-05T12:30:56Z</time>
      </trkpt>
      <trkpt lat="42.91125" lon="-1.29828">
        <ele>648.21</ele>
        <time>2021-08-05T12:31:03Z</time>
      </trkpt>
      <trkpt lat="42.91208" lon="-1.2982">
        <ele>650.35</ele>
        <time>2021-08-05T12:31:08Z</time>
      </trkpt>
      <trkpt lat="42.91328" lon="-1.29754">
        <ele>654.21</ele>
        <time>2021-08-05T12:31:16Z</time>
      </trkpt>
      <trkpt lat="42.91375" lon="-1.29742">
        <ele>655.4</ele>
        <time>2021-08-05T12:31:19Z</time>
      </trkpt>
      <trkpt lat="42.91509" lon="-1.29641">
        <ele>657.86</ele>
        <time>2021-08-05T12:31:28Z</time>
      </trkpt>
      <trkpt lat="42.91523" lon="-1.29629">
        <ele>658.03</ele>
        <time>2021-08-05T12:31:29Z</time>
      </trkpt>
      <trkpt lat="42.91598" lon="-1.295">
        <ele>659.54</ele>
        <time>2021-08-05T12:31:36Z</time>
      </trkpt>
      <trkpt lat="42.91636" lon="-1.29384">
        <ele>660.39</ele>
        <time>2021-08-05T12:31:43Z</time>
      </trkpt>
      <trkpt lat="42.91641" lon="-1.29371">
        <ele>660.47</ele>
        <time>2021-08-05T12:31:44Z</time>
      </trkpt>
      <trkpt lat="42.91674" lon="-1.29328">
        <ele>661.18</ele>
        <time>2021-08-05T12:31:48Z</time>
      </trkpt>
      <trkpt lat="42.91699" lon="-1.29285">
        <ele>661.63</ele>
        <time>2021-08-05T12:31:51Z</time>
      </trkpt>
      <trkpt lat="42.91718" lon="-1.29238">
        <ele>662.39</ele>
        <time>2021-08-05T12:31:54Z</time>
      </trkpt>
      <trkpt lat="42.91729" lon="-1.29209">
        <ele>662.72</ele>
        <time>2021-08-05T12:31:56Z</time>
      </trkpt>
      <trkpt lat="42.91711" lon="-1.29085">
        <ele>664.14</ele>
        <time>2021-08-05T12:32:03Z</time>
      </trkpt>
      <trkpt lat="42.91697" lon="-1.29006">
        <ele>665.95</ele>
        <time>2021-08-05T12:32:08Z</time>
      </trkpt>
      <trkpt lat="42.91699" lon="-1.28992">
        <ele>666.34</ele>
        <time>2021-08-05T12:32:09Z</time>
      </trkpt>
      <trkpt lat="42.91702" lon="-1.2898">
        <ele>666.76</ele>
        <time>2021-08-05T12:32:10Z</time>
      </trkpt>
      <trkpt lat="42.91706" lon="-1.28969">
        <ele>667.21</ele>
        <time>2021-08-05T12:32:11Z</time>
      </trkpt>
      <trkpt lat="42.91712" lon="-1.28958">
        <ele>667.63</ele>
        <time>2021-08-05T12:32:12Z</time>
      </trkpt>
      <trkpt lat="42.9172" lon="-1.2895">
        <ele>668.08</ele>
        <time>2021-08-05T12:32:13Z</time>
      </trkpt>
      <trkpt lat="42.91733" lon="-1.28948">
        <ele>668.6</ele>
        <time>2021-08-05T12:32:14Z</time>
      </trkpt>
      <trkpt lat="42.91744" lon="-1.28946">
        <ele>669.11</ele>
        <time>2021-08-05T12:32:15Z</time>
      </trkpt>
      <trkpt lat="42.91755" lon="-1.2895">
        <ele>669.63</ele>
        <time>2021-08-05T12:32:16Z</time>
      </trkpt>
      <trkpt lat="42.91764" lon="-1.28955">
        <ele>670.11</ele>
        <time>2021-08-05T12:32:17Z</time>
      </trkpt>
      <trkpt lat="42.91771" lon="-1.28962">
        <ele>670.54</ele>
        <time>2021-08-05T12:32:18Z</time>
      </trkpt>
      <trkpt lat="42.91777" lon="-1.28975">
        <ele>670.98</ele>
        <time>2021-08-05T12:32:19Z</time>
      </trkpt>
      <trkpt lat="42.91782" lon="-1.28988">
        <ele>671.37</ele>
        <time>2021-08-05T12:32:20Z</time>
      </trkpt>
      <trkpt lat="42.91787" lon="-1.29001">
        <ele>671.72</ele>
        <time>2021-08-05T12:32:21Z</time>
      </trkpt>
      <trkpt lat="42.91793" lon="-1.29016">
        <ele>672.12</ele>
        <time>2021-08-05T12:32:22Z</time>
      </trkpt>
      <trkpt lat="42.91815" lon="-1.29051">
        <ele>673.09</ele>
        <time>2021-08-05T12:32:25Z</time>
      </trkpt>
      <trkpt lat="42.91838" lon="-1.29064">
        <ele>674.3</ele>
        <time>2021-08-05T12:32:28Z</time>
      </trkpt>
      <trkpt lat="42.91853" lon="-1.29085">
        <ele>675.86</ele>
        <time>2021-08-05T12:32:31Z</time>
      </trkpt>
      <trkpt lat="42.91899" lon="-1.29082">
        <ele>677.94</ele>
        <time>2021-08-05T12:32:37Z</time>
      </trkpt>
      <trkpt lat="42.91967" lon="-1.29072">
        <ele>681.03</ele>
        <time>2021-08-05T12:32:43Z</time>
      </trkpt>
      <trkpt lat="42.92072" lon="-1.29098">
        <ele>685.35</ele>
        <time>2021-08-05T12:32:49Z</time>
      </trkpt>
      <trkpt lat="42.92148" lon="-1.29126">
        <ele>689.41</ele>
        <time>2021-08-05T12:32:53Z</time>
      </trkpt>
      <trkpt lat="42.92209" lon="-1.29129">
        <ele>691.25</ele>
        <time>2021-08-05T12:32:56Z</time>
      </trkpt>
      <trkpt lat="42.92266" lon="-1.29128">
        <ele>694.77</ele>
        <time>2021-08-05T12:32:59Z</time>
      </trkpt>
      <trkpt lat="42.92298" lon="-1.29135">
        <ele>696.32</ele>
        <time>2021-08-05T12:33:01Z</time>
      </trkpt>
      <trkpt lat="42.92359" lon="-1.29089">
        <ele>699.72</ele>
        <time>2021-08-05T12:33:07Z</time>
      </trkpt>
      <trkpt lat="42.92367" lon="-1.29006">
        <ele>702.05</ele>
        <time>2021-08-05T12:33:11Z</time>
      </trkpt>
      <trkpt lat="42.92375" lon="-1.28987">
        <ele>702.81</ele>
        <time>2021-08-05T12:33:12Z</time>
      </trkpt>
      <trkpt lat="42.92436" lon="-1.28866">
        <ele>707.3</ele>
        <time>2021-08-05T12:33:18Z</time>
      </trkpt>
      <trkpt lat="42.92472" lon="-1.28777">
        <ele>710.76</ele>
        <time>2021-08-05T12:33:22Z</time>
      </trkpt>
      <trkpt lat="42.92555" lon="-1.28736">
        <ele>714.28</ele>
        <time>2021-08-05T12:33:27Z</time>
      </trkpt>
      <trkpt lat="42.92597" lon="-1.28742">
        <ele>715.55</ele>
        <time>2021-08-05T12:33:29Z</time>
      </trkpt>
      <trkpt lat="42.92705" lon="-1.28776">
        <ele>719.8</ele>
        <time>2021-08-05T12:33:34Z</time>
      </trkpt>
      <trkpt lat="42.92787" lon="-1.28811">
        <ele>723.31</ele>
        <time>2021-08-05T12:33:38Z</time>
      </trkpt>
      <trkpt lat="42.92824" lon="-1.28828">
        <ele>725.01</ele>
        <time>2021-08-05T12:33:40Z</time>
      </trkpt>
      <trkpt lat="42.92924" lon="-1.28823">
        <ele>729.18</ele>
        <time>2021-08-05T12:33:45Z</time>
      </trkpt>
      <trkpt lat="42.92981" lon="-1.28817">
        <ele>731.89</ele>
        <time>2021-08-05T12:33:48Z</time>
      </trkpt>
      <trkpt lat="42.93058" lon="-1.28863">
        <ele>736.32</ele>
        <time>2021-08-05T12:33:53Z</time>
      </trkpt>
      <trkpt lat="42.93076" lon="-1.28905">
        <ele>738.14</ele>
        <time>2021-08-05T12:33:55Z</time>
      </trkpt>
      <trkpt lat="42.93116" lon="-1.28988">
        <ele>741.91</ele>
        <time>2021-08-05T12:33:59Z</time>
      </trkpt>
      <trkpt lat="42.9313" lon="-1.29049">
        <ele>744.64</ele>
        <time>2021-08-05T12:34:02Z</time>
      </trkpt>
      <trkpt lat="42.93152" lon="-1.29069">
        <ele>747.66</ele>
        <time>2021-08-05T12:34:07Z</time>
      </trkpt>
      <trkpt lat="42.93163" lon="-1.29042">
        <ele>748.12</ele>
        <time>2021-08-05T12:34:08Z</time>
      </trkpt>
      <trkpt lat="42.93175" lon="-1.29005">
        <ele>749.01</ele>
        <time>2021-08-05T12:34:10Z</time>
      </trkpt>
      <trkpt lat="42.93195" lon="-1.28855">
        <ele>752.72</ele>
        <time>2021-08-05T12:34:16Z</time>
      </trkpt>
      <trkpt lat="42.93198" lon="-1.28828">
        <ele>753.54</ele>
        <time>2021-08-05T12:34:17Z</time>
      </trkpt>
      <trkpt lat="42.93192" lon="-1.28754">
        <ele>755.85</ele>
        <time>2021-08-05T12:34:20Z</time>
      </trkpt>
      <trkpt lat="42.93202" lon="-1.28669">
        <ele>759.18</ele>
        <time>2021-08-05T12:34:24Z</time>
      </trkpt>
      <trkpt lat="42.93293" lon="-1.28645">
        <ele>763.57</ele>
        <time>2021-08-05T12:34:29Z</time>
      </trkpt>
      <trkpt lat="42.93314" lon="-1.28652">
        <ele>763.57</ele>
        <time>2021-08-05T12:34:30Z</time>
      </trkpt>
      <trkpt lat="42.93334" lon="-1.28658">
        <ele>765.21</ele>
        <time>2021-08-05T12:34:31Z</time>
      </trkpt>
      <trkpt lat="42.93386" lon="-1.28679">
        <ele>766.91</ele>
        <time>2021-08-05T12:34:34Z</time>
      </trkpt>
      <trkpt lat="42.93402" lon="-1.28687">
        <ele>768.44</ele>
        <time>2021-08-05T12:34:35Z</time>
      </trkpt>
      <trkpt lat="42.93477" lon="-1.28757">
        <ele>771.92</ele>
        <time>2021-08-05T12:34:40Z</time>
      </trkpt>
      <trkpt lat="42.93539" lon="-1.28819">
        <ele>774.93</ele>
        <time>2021-08-05T12:34:44Z</time>
      </trkpt>
      <trkpt lat="42.93631" lon="-1.28845">
        <ele>779.56</ele>
        <time>2021-08-05T12:34:50Z</time>
      </trkpt>
      <trkpt lat="42.93694" lon="-1.28839">
        <ele>782.97</ele>
        <time>2021-08-05T12:34:55Z</time>
      </trkpt>
      <trkpt lat="42.93705" lon="-1.28826">
        <ele>783.5</ele>
        <time>2021-08-05T12:34:56Z</time>
      </trkpt>
      <trkpt lat="42.9373" lon="-1.288">
        <ele>784.77</ele>
        <time>2021-08-05T12:34:58Z</time>
      </trkpt>
      <trkpt lat="42.93745" lon="-1.28791">
        <ele>785.53</ele>
        <time>2021-08-05T12:34:59Z</time>
      </trkpt>
      <trkpt lat="42.93761" lon="-1.28787">
        <ele>786.34</ele>
        <time>2021-08-05T12:35:00Z</time>
      </trkpt>
      <trkpt lat="42.93776" lon="-1.28787">
        <ele>787.13</ele>
        <time>2021-08-05T12:35:01Z</time>
      </trkpt>
      <trkpt lat="42.93835" lon="-1.28721">
        <ele>791.6</ele>
        <time>2021-08-05T12:35:07Z</time>
      </trkpt>
      <trkpt lat="42.93873" lon="-1.28606">
        <ele>795.68</ele>
        <time>2021-08-05T12:35:12Z</time>
      </trkpt>
      <trkpt lat="42.93899" lon="-1.28503">
        <ele>799.36</ele>
        <time>2021-08-05T12:35:16Z</time>
      </trkpt>
      <trkpt lat="42.93913" lon="-1.28416">
        <ele>802.52</ele>
        <time>2021-08-05T12:35:19Z</time>
      </trkpt>
      <trkpt lat="42.9393" lon="-1.28326">
        <ele>805.65</ele>
        <time>2021-08-05T12:35:22Z</time>
      </trkpt>
      <trkpt lat="42.9394" lon="-1.28236">
        <ele>808.82</ele>
        <time>2021-08-05T12:35:25Z</time>
      </trkpt>
      <trkpt lat="42.93951" lon="-1.28129">
        <ele>812.67</ele>
        <time>2021-08-05T12:35:29Z</time>
      </trkpt>
      <trkpt lat="42.93978" lon="-1.28031">
        <ele>816.25</ele>
        <time>2021-08-05T12:35:33Z</time>
      </trkpt>
      <trkpt lat="42.94006" lon="-1.27966">
        <ele>819.85</ele>
        <time>2021-08-05T12:35:37Z</time>
      </trkpt>
      <trkpt lat="42.94063" lon="-1.27954">
        <ele>823.04</ele>
        <time>2021-08-05T12:35:43Z</time>
      </trkpt>
      <trkpt lat="42.94123" lon="-1.28034">
        <ele>824.52</ele>
        <time>2021-08-05T12:35:49Z</time>
      </trkpt>
      <trkpt lat="42.94126" lon="-1.28071">
        <ele>824.46</ele>
        <time>2021-08-05T12:35:51Z</time>
      </trkpt>
      <trkpt lat="42.94125" lon="-1.28112">
        <ele>823.86</ele>
        <time>2021-08-05T12:35:54Z</time>
      </trkpt>
      <trkpt lat="42.94134" lon="-1.28112">
        <ele>821.78</ele>
        <time>2021-08-05T12:36:00Z</time>
      </trkpt>
      <trkpt lat="42.94137" lon="-1.28023">
        <ele>820.56</ele>
        <time>2021-08-05T12:36:06Z</time>
      </trkpt>
      <trkpt lat="42.94138" lon="-1.28004">
        <ele>820.42</ele>
        <time>2021-08-05T12:36:07Z</time>
      </trkpt>
      <trkpt lat="42.94132" lon="-1.2795">
        <ele>819.82</ele>
        <time>2021-08-05T12:36:10Z</time>
      </trkpt>
      <trkpt lat="42.94141" lon="-1.27885">
        <ele>818.15</ele>
        <time>2021-08-05T12:36:14Z</time>
      </trkpt>
      <trkpt lat="42.94184" lon="-1.27836">
        <ele>814.32</ele>
        <time>2021-08-05T12:36:18Z</time>
      </trkpt>
      <trkpt lat="42.94221" lon="-1.27806">
        <ele>812.19</ele>
        <time>2021-08-05T12:36:21Z</time>
      </trkpt>
      <trkpt lat="42.94247" lon="-1.27755">
        <ele>809.63</ele>
        <time>2021-08-05T12:36:24Z</time>
      </trkpt>
      <trkpt lat="42.94259" lon="-1.2772">
        <ele>808.06</ele>
        <time>2021-08-05T12:36:26Z</time>
      </trkpt>
      <trkpt lat="42.94241" lon="-1.27636">
        <ele>803.9</ele>
        <time>2021-08-05T12:36:31Z</time>
      </trkpt>
      <trkpt lat="42.94231" lon="-1.27621">
        <ele>803.04</ele>
        <time>2021-08-05T12:36:32Z</time>
      </trkpt>
      <trkpt lat="42.94163" lon="-1.27538">
        <ele>798.39</ele>
        <time>2021-08-05T12:36:37Z</time>
      </trkpt>
      <trkpt lat="42.9414" lon="-1.27519">
        <ele>796.28</ele>
        <time>2021-08-05T12:36:39Z</time>
      </trkpt>
      <trkpt lat="42.94136" lon="-1.27486">
        <ele>791.58</ele>
        <time>2021-08-05T12:36:43Z</time>
      </trkpt>
      <trkpt lat="42.94177" lon="-1.27436">
        <ele>787.95</ele>
        <time>2021-08-05T12:36:47Z</time>
      </trkpt>
      <trkpt lat="42.9419" lon="-1.27425">
        <ele>787.17</ele>
        <time>2021-08-05T12:36:48Z</time>
      </trkpt>
      <trkpt lat="42.94256" lon="-1.27341">
        <ele>782.98</ele>
        <time>2021-08-05T12:36:54Z</time>
      </trkpt>
      <trkpt lat="42.94268" lon="-1.2723">
        <ele>778.88</ele>
        <time>2021-08-05T12:36:59Z</time>
      </trkpt>
      <trkpt lat="42.9427" lon="-1.27144">
        <ele>774.96</ele>
        <time>2021-08-05T12:37:03Z</time>
      </trkpt>
      <trkpt lat="42.94278" lon="-1.27101">
        <ele>772.82</ele>
        <time>2021-08-05T12:37:05Z</time>
      </trkpt>
      <trkpt lat="42.94279" lon="-1.27014">
        <ele>768.42</ele>
        <time>2021-08-05T12:37:09Z</time>
      </trkpt>
      <trkpt lat="42.94278" lon="-1.26973">
        <ele>766.29</ele>
        <time>2021-08-05T12:37:11Z</time>
      </trkpt>
      <trkpt lat="42.94303" lon="-1.26912">
        <ele>761.53</ele>
        <time>2021-08-05T12:37:15Z</time>
      </trkpt>
      <trkpt lat="42.94364" lon="-1.26896">
        <ele>757.22</ele>
        <time>2021-08-05T12:37:19Z</time>
      </trkpt>
      <trkpt lat="42.94419" lon="-1.26916">
        <ele>754.09</ele>
        <time>2021-08-05T12:37:22Z</time>
      </trkpt>
      <trkpt lat="42.9446" lon="-1.26915">
        <ele>750.73</ele>
        <time>2021-08-05T12:37:25Z</time>
      </trkpt>
      <trkpt lat="42.94495" lon="-1.26888">
        <ele>746.91</ele>
        <time>2021-08-05T12:37:28Z</time>
      </trkpt>
      <trkpt lat="42.94509" lon="-1.26882">
        <ele>745.75</ele>
        <time>2021-08-05T12:37:29Z</time>
      </trkpt>
      <trkpt lat="42.94581" lon="-1.26816">
        <ele>739.7</ele>
        <time>2021-08-05T12:37:35Z</time>
      </trkpt>
      <trkpt lat="42.94592" lon="-1.26728">
        <ele>736.07</ele>
        <time>2021-08-05T12:37:39Z</time>
      </trkpt>
      <trkpt lat="42.94582" lon="-1.26676">
        <ele>734.2</ele>
        <time>2021-08-05T12:37:41Z</time>
      </trkpt>
      <trkpt lat="42.94566" lon="-1.26579">
        <ele>729.7</ele>
        <time>2021-08-05T12:37:46Z</time>
      </trkpt>
      <trkpt lat="42.94564" lon="-1.26567">
        <ele>728.65</ele>
        <time>2021-08-05T12:37:47Z</time>
      </trkpt>
      <trkpt lat="42.94553" lon="-1.26546">
        <ele>725.25</ele>
        <time>2021-08-05T12:37:50Z</time>
      </trkpt>
      <trkpt lat="42.9455" lon="-1.26544">
        <ele>723.23</ele>
        <time>2021-08-05T12:37:52Z</time>
      </trkpt>
      <trkpt lat="42.94558" lon="-1.26535">
        <ele>719.2</ele>
        <time>2021-08-05T12:37:58Z</time>
      </trkpt>
      <trkpt lat="42.94557" lon="-1.26534">
        <ele>717.43</ele>
        <time>2021-08-05T12:38:24Z</time>
      </trkpt>
      <trkpt lat="42.94561" lon="-1.26537">
        <ele>718.3</ele>
        <time>2021-08-05T12:42:08Z</time>
      </trkpt>
      <trkpt lat="42.94579" lon="-1.26568">
        <ele>719.13</ele>
        <time>2021-08-05T12:42:35Z</time>
      </trkpt>
      <trkpt lat="42.94576" lon="-1.26571">
        <ele>719.12</ele>
        <time>2021-08-05T12:42:37Z</time>
      </trkpt>
      <trkpt lat="42.94574" lon="-1.26581">
        <ele>718.9</ele>
        <time>2021-08-05T12:43:04Z</time>
      </trkpt>
      <trkpt lat="42.94569" lon="-1.26575">
        <ele>719.5</ele>
        <time>2021-08-05T12:43:31Z</time>
      </trkpt>
      <trkpt lat="42.94568" lon="-1.2657">
        <ele>718.75</ele>
        <time>2021-08-05T12:43:57Z</time>
      </trkpt>
      <trkpt lat="42.94551" lon="-1.26557">
        <ele>718.12</ele>
        <time>2021-08-05T12:44:21Z</time>
      </trkpt>
      <trkpt lat="42.94553" lon="-1.26551">
        <ele>718.25</ele>
        <time>2021-08-05T12:44:32Z</time>
      </trkpt>
      <trkpt lat="42.94539" lon="-1.26547">
        <ele>719.05</ele>
        <time>2021-08-05T12:47:38Z</time>
      </trkpt>
      <trkpt lat="42.94558" lon="-1.26556">
        <ele>717.66</ele>
        <time>2021-08-05T12:47:44Z</time>
      </trkpt>
      <trkpt lat="42.94563" lon="-1.26553">
        <ele>717.02</ele>
        <time>2021-08-05T12:47:48Z</time>
      </trkpt>
      <trkpt lat="42.94527" lon="-1.26514">
        <ele>716.69</ele>
        <time>2021-08-05T12:47:52Z</time>
      </trkpt>
      <trkpt lat="42.94462" lon="-1.26425">
        <ele>715.33</ele>
        <time>2021-08-05T12:48:04Z</time>
      </trkpt>
      <trkpt lat="42.9445" lon="-1.26409">
        <ele>714.71</ele>
        <time>2021-08-05T12:48:12Z</time>
      </trkpt>
      <trkpt lat="42.94435" lon="-1.2638">
        <ele>714.75</ele>
        <time>2021-08-05T12:48:25Z</time>
      </trkpt>
      <trkpt lat="42.94411" lon="-1.26354">
        <ele>715.37</ele>
        <time>2021-08-05T12:48:34Z</time>
      </trkpt>
      <trkpt lat="42.94393" lon="-1.26331">
        <ele>715.89</ele>
        <time>2021-08-05T12:48:41Z</time>
      </trkpt>
      <trkpt lat="42.944" lon="-1.26345">
        <ele>716.35</ele>
        <time>2021-08-05T12:48:50Z</time>
      </trkpt>
      <trkpt lat="42.944" lon="-1.26345">
        <ele>716.78</ele>
        <time>2021-08-05T12:49:16Z</time>
      </trkpt>
      <trkpt lat="42.94403" lon="-1.26361">
        <ele>717.29</ele>
        <time>2021-08-05T12:58:20Z</time>
      </trkpt>
      <trkpt lat="42.944" lon="-1.26367">
        <ele>717.29</ele>
        <time>2021-08-05T12:58:21Z</time>
      </trkpt>
      <trkpt lat="42.94395" lon="-1.26361">
        <ele>716.69</ele>
        <time>2021-08-05T12:58:27Z</time>
      </trkpt>
      <trkpt lat="42.94423" lon="-1.26393">
        <ele>715.45</ele>
        <time>2021-08-05T12:58:36Z</time>
      </trkpt>
      <trkpt lat="42.94431" lon="-1.26387">
        <ele>715.14</ele>
        <time>2021-08-05T12:58:47Z</time>
      </trkpt>
      <trkpt lat="42.9443" lon="-1.26382">
        <ele>715.26</ele>
        <time>2021-08-05T12:58:49Z</time>
      </trkpt>
      <trkpt lat="42.94404" lon="-1.2634">
        <ele>716.52</ele>
        <time>2021-08-05T12:58:57Z</time>
      </trkpt>
      <trkpt lat="42.94402" lon="-1.26334">
        <ele>718.82</ele>
        <time>2021-08-05T12:59:06Z</time>
      </trkpt>
      <trkpt lat="42.94399" lon="-1.26327">
        <ele>719.48</ele>
        <time>2021-08-05T12:59:13Z</time>
      </trkpt>
      <trkpt lat="42.94347" lon="-1.2624">
        <ele>722.28</ele>
        <time>2021-08-05T12:59:23Z</time>
      </trkpt>
      <trkpt lat="42.94344" lon="-1.26229">
        <ele>722.75</ele>
        <time>2021-08-05T12:59:24Z</time>
      </trkpt>
      <trkpt lat="42.94339" lon="-1.26205">
        <ele>723.92</ele>
        <time>2021-08-05T12:59:26Z</time>
      </trkpt>
      <trkpt lat="42.94341" lon="-1.2619">
        <ele>724.51</ele>
        <time>2021-08-05T12:59:27Z</time>
      </trkpt>
      <trkpt lat="42.94364" lon="-1.26133">
        <ele>727.23</ele>
        <time>2021-08-05T12:59:31Z</time>
      </trkpt>
      <trkpt lat="42.94404" lon="-1.26041">
        <ele>729.45</ele>
        <time>2021-08-05T12:59:39Z</time>
      </trkpt>
      <trkpt lat="42.94405" lon="-1.2604">
        <ele>728.94</ele>
        <time>2021-08-05T12:59:53Z</time>
      </trkpt>
      <trkpt lat="42.94405" lon="-1.2604">
        <ele>728.95</ele>
        <time>2021-08-05T12:59:54Z</time>
      </trkpt>
      <trkpt lat="42.94414" lon="-1.26068">
        <ele>729.26</ele>
        <time>2021-08-05T13:00:01Z</time>
      </trkpt>
      <trkpt lat="42.94408" lon="-1.26076">
        <ele>729.44</ele>
        <time>2021-08-05T13:00:02Z</time>
      </trkpt>
      <trkpt lat="42.94364" lon="-1.26178">
        <ele>732.89</ele>
        <time>2021-08-05T13:00:11Z</time>
      </trkpt>
      <trkpt lat="42.94362" lon="-1.26188">
        <ele>733.5</ele>
        <time>2021-08-05T13:00:12Z</time>
      </trkpt>
      <trkpt lat="42.94387" lon="-1.2622">
        <ele>736.23</ele>
        <time>2021-08-05T13:00:17Z</time>
      </trkpt>
      <trkpt lat="42.94408" lon="-1.26219">
        <ele>737.38</ele>
        <time>2021-08-05T13:00:19Z</time>
      </trkpt>
      <trkpt lat="42.94473" lon="-1.26218">
        <ele>741.79</ele>
        <time>2021-08-05T13:00:25Z</time>
      </trkpt>
      <trkpt lat="42.94495" lon="-1.26218">
        <ele>743.49</ele>
        <time>2021-08-05T13:00:27Z</time>
      </trkpt>
      <trkpt lat="42.94529" lon="-1.2619">
        <ele>747.73</ele>
        <time>2021-08-05T13:00:32Z</time>
      </trkpt>
      <trkpt lat="42.94551" lon="-1.26182">
        <ele>751.71</ele>
        <time>2021-08-05T13:00:36Z</time>
      </trkpt>
      <trkpt lat="42.94559" lon="-1.26211">
        <ele>753.64</ele>
        <time>2021-08-05T13:00:39Z</time>
      </trkpt>
      <trkpt lat="42.94579" lon="-1.26266">
        <ele>756.83</ele>
        <time>2021-08-05T13:00:44Z</time>
      </trkpt>
      <trkpt lat="42.946" lon="-1.26265">
        <ele>760.17</ele>
        <time>2021-08-05T13:00:50Z</time>
      </trkpt>
      <trkpt lat="42.94584" lon="-1.26196">
        <ele>763.7</ele>
        <time>2021-08-05T13:00:56Z</time>
      </trkpt>
      <trkpt lat="42.94584" lon="-1.26182">
        <ele>764.38</ele>
        <time>2021-08-05T13:00:57Z</time>
      </trkpt>
      <trkpt lat="42.9458" lon="-1.26137">
        <ele>766.52</ele>
        <time>2021-08-05T13:01:00Z</time>
      </trkpt>
      <trkpt lat="42.94542" lon="-1.2609">
        <ele>769.58</ele>
        <time>2021-08-05T13:01:04Z</time>
      </trkpt>
      <trkpt lat="42.94521" lon="-1.26071">
        <ele>771.48</ele>
        <time>2021-08-05T13:01:06Z</time>
      </trkpt>
      <trkpt lat="42.945" lon="-1.26011">
        <ele>776.23</ele>
        <time>2021-08-05T13:01:11Z</time>
      </trkpt>
      <trkpt lat="42.94525" lon="-1.25978">
        <ele>779.92</ele>
        <time>2021-08-05T13:01:15Z</time>
      </trkpt>
      <trkpt lat="42.94565" lon="-1.26">
        <ele>783.36</ele>
        <time>2021-08-05T13:01:19Z</time>
      </trkpt>
      <trkpt lat="42.94587" lon="-1.26042">
        <ele>786.09</ele>
        <time>2021-08-05T13:01:22Z</time>
      </trkpt>
      <trkpt lat="42.94601" lon="-1.26074">
        <ele>787.97</ele>
        <time>2021-08-05T13:01:24Z</time>
      </trkpt>
      <trkpt lat="42.94616" lon="-1.26102">
        <ele>789.94</ele>
        <time>2021-08-05T13:01:26Z</time>
      </trkpt>
      <trkpt lat="42.94639" lon="-1.26167">
        <ele>794.09</ele>
        <time>2021-08-05T13:01:30Z</time>
      </trkpt>
      <trkpt lat="42.94654" lon="-1.26217">
        <ele>797.41</ele>
        <time>2021-08-05T13:01:33Z</time>
      </trkpt>
      <trkpt lat="42.94674" lon="-1.2626">
        <ele>800.53</ele>
        <time>2021-08-05T13:01:36Z</time>
      </trkpt>
      <trkpt lat="42.94723" lon="-1.26297">
        <ele>805.54</ele>
        <time>2021-08-05T13:01:41Z</time>
      </trkpt>
      <trkpt lat="42.94756" lon="-1.26309">
        <ele>808.81</ele>
        <time>2021-08-05T13:01:44Z</time>
      </trkpt>
      <trkpt lat="42.94782" lon="-1.26337">
        <ele>811.99</ele>
        <time>2021-08-05T13:01:47Z</time>
      </trkpt>
      <trkpt lat="42.94799" lon="-1.26356">
        <ele>813.93</ele>
        <time>2021-08-05T13:01:49Z</time>
      </trkpt>
      <trkpt lat="42.94853" lon="-1.26381">
        <ele>818.5</ele>
        <time>2021-08-05T13:01:54Z</time>
      </trkpt>
      <trkpt lat="42.94897" lon="-1.26407">
        <ele>821.65</ele>
        <time>2021-08-05T13:01:58Z</time>
      </trkpt>
      <trkpt lat="42.94964" lon="-1.2644">
        <ele>825.15</ele>
        <time>2021-08-05T13:02:03Z</time>
      </trkpt>
      <trkpt lat="42.95037" lon="-1.26473">
        <ele>828.56</ele>
        <time>2021-08-05T13:02:08Z</time>
      </trkpt>
      <trkpt lat="42.95113" lon="-1.26511">
        <ele>832.32</ele>
        <time>2021-08-05T13:02:13Z</time>
      </trkpt>
      <trkpt lat="42.9516" lon="-1.26538">
        <ele>836.07</ele>
        <time>2021-08-05T13:02:17Z</time>
      </trkpt>
      <trkpt lat="42.9519" lon="-1.2656">
        <ele>839.24</ele>
        <time>2021-08-05T13:02:21Z</time>
      </trkpt>
      <trkpt lat="42.95212" lon="-1.26583">
        <ele>842.19</ele>
        <time>2021-08-05T13:02:25Z</time>
      </trkpt>
      <trkpt lat="42.95232" lon="-1.26613">
        <ele>845.92</ele>
        <time>2021-08-05T13:02:33Z</time>
      </trkpt>
      <trkpt lat="42.95255" lon="-1.26625">
        <ele>847.89</ele>
        <time>2021-08-05T13:02:41Z</time>
      </trkpt>
      <trkpt lat="42.95264" lon="-1.2665">
        <ele>848.36</ele>
        <time>2021-08-05T13:02:45Z</time>
      </trkpt>
      <trkpt lat="42.9527" lon="-1.26667">
        <ele>848.33</ele>
        <time>2021-08-05T13:02:48Z</time>
      </trkpt>
      <trkpt lat="42.95264" lon="-1.26683">
        <ele>848.27</ele>
        <time>2021-08-05T13:02:52Z</time>
      </trkpt>
      <trkpt lat="42.95258" lon="-1.26693">
        <ele>848.51</ele>
        <time>2021-08-05T13:02:56Z</time>
      </trkpt>
      <trkpt lat="42.95279" lon="-1.26692">
        <ele>849.83</ele>
        <time>2021-08-05T13:03:03Z</time>
      </trkpt>
      <trkpt lat="42.95307" lon="-1.26665">
        <ele>851.85</ele>
        <time>2021-08-05T13:03:08Z</time>
      </trkpt>
      <trkpt lat="42.95301" lon="-1.26629">
        <ele>854.76</ele>
        <time>2021-08-05T13:03:14Z</time>
      </trkpt>
      <trkpt lat="42.95291" lon="-1.26611">
        <ele>855.99</ele>
        <time>2021-08-05T13:03:17Z</time>
      </trkpt>
      <trkpt lat="42.95292" lon="-1.26579">
        <ele>858.86</ele>
        <time>2021-08-05T13:03:24Z</time>
      </trkpt>
      <trkpt lat="42.95303" lon="-1.26591">
        <ele>861.12</ele>
        <time>2021-08-05T13:03:29Z</time>
      </trkpt>
      <trkpt lat="42.95309" lon="-1.26596">
        <ele>861.98</ele>
        <time>2021-08-05T13:03:31Z</time>
      </trkpt>
      <trkpt lat="42.95322" lon="-1.26605">
        <ele>863.29</ele>
        <time>2021-08-05T13:03:34Z</time>
      </trkpt>
      <trkpt lat="42.95331" lon="-1.2661">
        <ele>864.19</ele>
        <time>2021-08-05T13:03:36Z</time>
      </trkpt>
      <trkpt lat="42.95334" lon="-1.26614">
        <ele>864.68</ele>
        <time>2021-08-05T13:03:37Z</time>
      </trkpt>
      <trkpt lat="42.95337" lon="-1.26618">
        <ele>865.18</ele>
        <time>2021-08-05T13:03:38Z</time>
      </trkpt>
      <trkpt lat="42.95339" lon="-1.26622">
        <ele>865.67</ele>
        <time>2021-08-05T13:03:39Z</time>
      </trkpt>
      <trkpt lat="42.95341" lon="-1.26627">
        <ele>866.08</ele>
        <time>2021-08-05T13:03:40Z</time>
      </trkpt>
      <trkpt lat="42.95366" lon="-1.26657">
        <ele>868.17</ele>
        <time>2021-08-05T13:03:46Z</time>
      </trkpt>
      <trkpt lat="42.95391" lon="-1.26675">
        <ele>871.17</ele>
        <time>2021-08-05T13:03:55Z</time>
      </trkpt>
      <trkpt lat="42.95378" lon="-1.26693">
        <ele>872.5</ele>
        <time>2021-08-05T13:03:59Z</time>
      </trkpt>
      <trkpt lat="42.95368" lon="-1.26703">
        <ele>873.27</ele>
        <time>2021-08-05T13:04:01Z</time>
      </trkpt>
      <trkpt lat="42.9534" lon="-1.26739">
        <ele>876.96</ele>
        <time>2021-08-05T13:04:08Z</time>
      </trkpt>
      <trkpt lat="42.95335" lon="-1.26743">
        <ele>877.55</ele>
        <time>2021-08-05T13:04:09Z</time>
      </trkpt>
      <trkpt lat="42.95331" lon="-1.26785">
        <ele>881.55</ele>
        <time>2021-08-05T13:04:15Z</time>
      </trkpt>
      <trkpt lat="42.9535" lon="-1.26815">
        <ele>884.23</ele>
        <time>2021-08-05T13:04:19Z</time>
      </trkpt>
      <trkpt lat="42.95376" lon="-1.26843">
        <ele>887.67</ele>
        <time>2021-08-05T13:04:23Z</time>
      </trkpt>
      <trkpt lat="42.95382" lon="-1.26847">
        <ele>888.64</ele>
        <time>2021-08-05T13:04:24Z</time>
      </trkpt>
      <trkpt lat="42.95389" lon="-1.26848">
        <ele>889.63</ele>
        <time>2021-08-05T13:04:25Z</time>
      </trkpt>
      <trkpt lat="42.95395" lon="-1.26845">
        <ele>890.67</ele>
        <time>2021-08-05T13:04:26Z</time>
      </trkpt>
      <trkpt lat="42.95399" lon="-1.26837">
        <ele>891.69</ele>
        <time>2021-08-05T13:04:27Z</time>
      </trkpt>
      <trkpt lat="42.95402" lon="-1.26813">
        <ele>893.59</ele>
        <time>2021-08-05T13:04:29Z</time>
      </trkpt>
      <trkpt lat="42.95422" lon="-1.26779">
        <ele>898.92</ele>
        <time>2021-08-05T13:04:34Z</time>
      </trkpt>
      <trkpt lat="42.95461" lon="-1.26767">
        <ele>903.12</ele>
        <time>2021-08-05T13:04:38Z</time>
      </trkpt>
      <trkpt lat="42.95471" lon="-1.26765">
        <ele>904.1</ele>
        <time>2021-08-05T13:04:39Z</time>
      </trkpt>
      <trkpt lat="42.95507" lon="-1.26718">
        <ele>908.51</ele>
        <time>2021-08-05T13:04:44Z</time>
      </trkpt>
      <trkpt lat="42.9551" lon="-1.26677">
        <ele>911.44</ele>
        <time>2021-08-05T13:04:47Z</time>
      </trkpt>
      <trkpt lat="42.9551" lon="-1.26629">
        <ele>914.22</ele>
        <time>2021-08-05T13:04:50Z</time>
      </trkpt>
      <trkpt lat="42.95487" lon="-1.26568">
        <ele>918.28</ele>
        <time>2021-08-05T13:04:54Z</time>
      </trkpt>
      <trkpt lat="42.95472" lon="-1.26545">
        <ele>920.47</ele>
        <time>2021-08-05T13:04:56Z</time>
      </trkpt>
      <trkpt lat="42.95456" lon="-1.26518">
        <ele>923.57</ele>
        <time>2021-08-05T13:04:59Z</time>
      </trkpt>
      <trkpt lat="42.95477" lon="-1.26507">
        <ele>928.24</ele>
        <time>2021-08-05T13:05:04Z</time>
      </trkpt>
      <trkpt lat="42.95516" lon="-1.26544">
        <ele>931.76</ele>
        <time>2021-08-05T13:05:08Z</time>
      </trkpt>
      <trkpt lat="42.95541" lon="-1.26594">
        <ele>935.42</ele>
        <time>2021-08-05T13:05:12Z</time>
      </trkpt>
      <trkpt lat="42.95546" lon="-1.26624">
        <ele>937.6</ele>
        <time>2021-08-05T13:05:14Z</time>
      </trkpt>
      <trkpt lat="42.95559" lon="-1.2669">
        <ele>941.84</ele>
        <time>2021-08-05T13:05:18Z</time>
      </trkpt>
      <trkpt lat="42.95577" lon="-1.26739">
        <ele>945.29</ele>
        <time>2021-08-05T13:05:21Z</time>
      </trkpt>
      <trkpt lat="42.95592" lon="-1.26791">
        <ele>948.83</ele>
        <time>2021-08-05T13:05:24Z</time>
      </trkpt>
      <trkpt lat="42.95596" lon="-1.26824">
        <ele>951.3</ele>
        <time>2021-08-05T13:05:26Z</time>
      </trkpt>
      <trkpt lat="42.95589" lon="-1.26885">
        <ele>955.93</ele>
        <time>2021-08-05T13:05:30Z</time>
      </trkpt>
      <trkpt lat="42.95614" lon="-1.26941">
        <ele>960.02</ele>
        <time>2021-08-05T13:05:34Z</time>
      </trkpt>
      <trkpt lat="42.95633" lon="-1.26967">
        <ele>963.62</ele>
        <time>2021-08-05T13:05:36Z</time>
      </trkpt>
      <trkpt lat="42.95673" lon="-1.2702">
        <ele>968.79</ele>
        <time>2021-08-05T13:05:40Z</time>
      </trkpt>
      <trkpt lat="42.95709" lon="-1.27052">
        <ele>972.65</ele>
        <time>2021-08-05T13:05:43Z</time>
      </trkpt>
      <trkpt lat="42.95743" lon="-1.27083">
        <ele>976.46</ele>
        <time>2021-08-05T13:05:46Z</time>
      </trkpt>
      <trkpt lat="42.95779" lon="-1.27116">
        <ele>980.26</ele>
        <time>2021-08-05T13:05:49Z</time>
      </trkpt>
      <trkpt lat="42.95813" lon="-1.2715">
        <ele>983.93</ele>
        <time>2021-08-05T13:05:52Z</time>
      </trkpt>
      <trkpt lat="42.95843" lon="-1.27184">
        <ele>987.88</ele>
        <time>2021-08-05T13:05:55Z</time>
      </trkpt>
      <trkpt lat="42.95871" lon="-1.27225">
        <ele>991.88</ele>
        <time>2021-08-05T13:05:58Z</time>
      </trkpt>
      <trkpt lat="42.95891" lon="-1.27259">
        <ele>995.84</ele>
        <time>2021-08-05T13:06:01Z</time>
      </trkpt>
      <trkpt lat="42.95903" lon="-1.27281">
        <ele>998.32</ele>
        <time>2021-08-05T13:06:03Z</time>
      </trkpt>
      <trkpt lat="42.95939" lon="-1.27315">
        <ele>1002.59</ele>
        <time>2021-08-05T13:06:07Z</time>
      </trkpt>
      <trkpt lat="42.95978" lon="-1.27323">
        <ele>1005.76</ele>
        <time>2021-08-05T13:06:11Z</time>
      </trkpt>
      <trkpt lat="42.95989" lon="-1.27321">
        <ele>1006.47</ele>
        <time>2021-08-05T13:06:12Z</time>
      </trkpt>
      <trkpt lat="42.96044" lon="-1.27307">
        <ele>1008.23</ele>
        <time>2021-08-05T13:06:17Z</time>
      </trkpt>
      <trkpt lat="42.96085" lon="-1.27274">
        <ele>1007.89</ele>
        <time>2021-08-05T13:06:22Z</time>
      </trkpt>
      <trkpt lat="42.9612" lon="-1.27253">
        <ele>1006.6</ele>
        <time>2021-08-05T13:06:27Z</time>
      </trkpt>
      <trkpt lat="42.96157" lon="-1.27242">
        <ele>1004.82</ele>
        <time>2021-08-05T13:06:31Z</time>
      </trkpt>
      <trkpt lat="42.96181" lon="-1.27224">
        <ele>1003.36</ele>
        <time>2021-08-05T13:06:34Z</time>
      </trkpt>
      <trkpt lat="42.96206" lon="-1.27215">
        <ele>1001.85</ele>
        <time>2021-08-05T13:06:37Z</time>
      </trkpt>
      <trkpt lat="42.96235" lon="-1.27191">
        <ele>999.77</ele>
        <time>2021-08-05T13:06:41Z</time>
      </trkpt>
      <trkpt lat="42.96289" lon="-1.27206">
        <ele>996.08</ele>
        <time>2021-08-05T13:06:48Z</time>
      </trkpt>
      <trkpt lat="42.96306" lon="-1.27229">
        <ele>995.19</ele>
        <time>2021-08-05T13:06:50Z</time>
      </trkpt>
      <trkpt lat="42.96343" lon="-1.27296">
        <ele>992.58</ele>
        <time>2021-08-05T13:06:55Z</time>
      </trkpt>
      <trkpt lat="42.96397" lon="-1.27302">
        <ele>988.8</ele>
        <time>2021-08-05T13:07:01Z</time>
      </trkpt>
      <trkpt lat="42.96418" lon="-1.27241">
        <ele>985.82</ele>
        <time>2021-08-05T13:07:06Z</time>
      </trkpt>
      <trkpt lat="42.96444" lon="-1.27186">
        <ele>982.64</ele>
        <time>2021-08-05T13:07:11Z</time>
      </trkpt>
      <trkpt lat="42.96482" lon="-1.2708">
        <ele>978.3</ele>
        <time>2021-08-05T13:07:19Z</time>
      </trkpt>
      <trkpt lat="42.96483" lon="-1.27058">
        <ele>977.69</ele>
        <time>2021-08-05T13:07:21Z</time>
      </trkpt>
      <trkpt lat="42.96513" lon="-1.27005">
        <ele>977.08</ele>
        <time>2021-08-05T13:07:27Z</time>
      </trkpt>
      <trkpt lat="42.96621" lon="-1.26899">
        <ele>973.63</ele>
        <time>2021-08-05T13:07:38Z</time>
      </trkpt>
      <trkpt lat="42.96628" lon="-1.26891">
        <ele>973.17</ele>
        <time>2021-08-05T13:07:39Z</time>
      </trkpt>
      <trkpt lat="42.96651" lon="-1.26909">
        <ele>971.02</ele>
        <time>2021-08-05T13:07:44Z</time>
      </trkpt>
      <trkpt lat="42.96653" lon="-1.26937">
        <ele>970.32</ele>
        <time>2021-08-05T13:07:46Z</time>
      </trkpt>
      <trkpt lat="42.96661" lon="-1.27044">
        <ele>966.37</ele>
        <time>2021-08-05T13:07:53Z</time>
      </trkpt>
      <trkpt lat="42.96663" lon="-1.27071">
        <ele>964.96</ele>
        <time>2021-08-05T13:07:55Z</time>
      </trkpt>
      <trkpt lat="42.96698" lon="-1.271">
        <ele>960.44</ele>
        <time>2021-08-05T13:08:00Z</time>
      </trkpt>
      <trkpt lat="42.96738" lon="-1.27078">
        <ele>957.25</ele>
        <time>2021-08-05T13:08:04Z</time>
      </trkpt>
      <trkpt lat="42.9676" lon="-1.27049">
        <ele>954.75</ele>
        <time>2021-08-05T13:08:07Z</time>
      </trkpt>
      <trkpt lat="42.96798" lon="-1.27029">
        <ele>948.97</ele>
        <time>2021-08-05T13:08:13Z</time>
      </trkpt>
      <trkpt lat="42.96822" lon="-1.27059">
        <ele>946.6</ele>
        <time>2021-08-05T13:08:16Z</time>
      </trkpt>
      <trkpt lat="42.96856" lon="-1.27128">
        <ele>942.61</ele>
        <time>2021-08-05T13:08:21Z</time>
      </trkpt>
      <trkpt lat="42.96862" lon="-1.27144">
        <ele>941.77</ele>
        <time>2021-08-05T13:08:22Z</time>
      </trkpt>
      <trkpt lat="42.96881" lon="-1.27222">
        <ele>936.96</ele>
        <time>2021-08-05T13:08:27Z</time>
      </trkpt>
      <trkpt lat="42.96867" lon="-1.27251">
        <ele>932.33</ele>
        <time>2021-08-05T13:08:31Z</time>
      </trkpt>
      <trkpt lat="42.96832" lon="-1.27254">
        <ele>928.48</ele>
        <time>2021-08-05T13:08:35Z</time>
      </trkpt>
      <trkpt lat="42.96825" lon="-1.27276">
        <ele>926.65</ele>
        <time>2021-08-05T13:08:37Z</time>
      </trkpt>
      <trkpt lat="42.96805" lon="-1.27348">
        <ele>922.6</ele>
        <time>2021-08-05T13:08:42Z</time>
      </trkpt>
      <trkpt lat="42.96798" lon="-1.27411">
        <ele>918.91</ele>
        <time>2021-08-05T13:08:46Z</time>
      </trkpt>
      <trkpt lat="42.96782" lon="-1.27464">
        <ele>914.8</ele>
        <time>2021-08-05T13:08:50Z</time>
      </trkpt>
      <trkpt lat="42.96765" lon="-1.27487">
        <ele>912.62</ele>
        <time>2021-08-05T13:08:52Z</time>
      </trkpt>
      <trkpt lat="42.9673" lon="-1.2752">
        <ele>907.02</ele>
        <time>2021-08-05T13:08:56Z</time>
      </trkpt>
      <trkpt lat="42.96721" lon="-1.2753">
        <ele>904.61</ele>
        <time>2021-08-05T13:08:58Z</time>
      </trkpt>
      <trkpt lat="42.96732" lon="-1.27546">
        <ele>900.02</ele>
        <time>2021-08-05T13:09:03Z</time>
      </trkpt>
      <trkpt lat="42.96738" lon="-1.27544">
        <ele>899.32</ele>
        <time>2021-08-05T13:09:04Z</time>
      </trkpt>
      <trkpt lat="42.96782" lon="-1.27534">
        <ele>897.17</ele>
        <time>2021-08-05T13:09:08Z</time>
      </trkpt>
      <trkpt lat="42.96857" lon="-1.27537">
        <ele>894.1</ele>
        <time>2021-08-05T13:09:13Z</time>
      </trkpt>
      <trkpt lat="42.96929" lon="-1.27512">
        <ele>889.79</ele>
        <time>2021-08-05T13:09:18Z</time>
      </trkpt>
      <trkpt lat="42.96964" lon="-1.27499">
        <ele>886.41</ele>
        <time>2021-08-05T13:09:21Z</time>
      </trkpt>
      <trkpt lat="42.96974" lon="-1.27497">
        <ele>885.18</ele>
        <time>2021-08-05T13:09:22Z</time>
      </trkpt>
      <trkpt lat="42.97019" lon="-1.27497">
        <ele>880.15</ele>
        <time>2021-08-05T13:09:26Z</time>
      </trkpt>
      <trkpt lat="42.97056" lon="-1.27493">
        <ele>876.65</ele>
        <time>2021-08-05T13:09:29Z</time>
      </trkpt>
      <trkpt lat="42.97089" lon="-1.27492">
        <ele>873.4</ele>
        <time>2021-08-05T13:09:32Z</time>
      </trkpt>
      <trkpt lat="42.97127" lon="-1.2753">
        <ele>869.19</ele>
        <time>2021-08-05T13:09:36Z</time>
      </trkpt>
      <trkpt lat="42.97135" lon="-1.27546">
        <ele>868.14</ele>
        <time>2021-08-05T13:09:37Z</time>
      </trkpt>
      <trkpt lat="42.97171" lon="-1.2761">
        <ele>863.75</ele>
        <time>2021-08-05T13:09:41Z</time>
      </trkpt>
      <trkpt lat="42.97193" lon="-1.27663">
        <ele>860.21</ele>
        <time>2021-08-05T13:09:44Z</time>
      </trkpt>
      <trkpt lat="42.97214" lon="-1.27713">
        <ele>856.52</ele>
        <time>2021-08-05T13:09:47Z</time>
      </trkpt>
      <trkpt lat="42.97221" lon="-1.27729">
        <ele>855.17</ele>
        <time>2021-08-05T13:09:48Z</time>
      </trkpt>
      <trkpt lat="42.97235" lon="-1.27783">
        <ele>850.99</ele>
        <time>2021-08-05T13:09:51Z</time>
      </trkpt>
      <trkpt lat="42.97242" lon="-1.27829">
        <ele>846.37</ele>
        <time>2021-08-05T13:09:54Z</time>
      </trkpt>
      <trkpt lat="42.97229" lon="-1.27878">
        <ele>840.44</ele>
        <time>2021-08-05T13:09:58Z</time>
      </trkpt>
      <trkpt lat="42.97214" lon="-1.27886">
        <ele>837.87</ele>
        <time>2021-08-05T13:10:00Z</time>
      </trkpt>
      <trkpt lat="42.97196" lon="-1.27886">
        <ele>832.03</ele>
        <time>2021-08-05T13:10:05Z</time>
      </trkpt>
      <trkpt lat="42.97193" lon="-1.27884">
        <ele>828.4</ele>
        <time>2021-08-05T13:10:09Z</time>
      </trkpt>
      <trkpt lat="42.97191" lon="-1.27887">
        <ele>825.27</ele>
        <time>2021-08-05T13:10:15Z</time>
      </trkpt>
      <trkpt lat="42.97191" lon="-1.27887">
        <ele>822.26</ele>
        <time>2021-08-05T13:10:33Z</time>
      </trkpt>
      <trkpt lat="42.97202" lon="-1.27894">
        <ele>821.51</ele>
        <time>2021-08-05T13:10:50Z</time>
      </trkpt>
      <trkpt lat="42.97236" lon="-1.27912">
        <ele>820.31</ele>
        <time>2021-08-05T13:11:05Z</time>
      </trkpt>
      <trkpt lat="42.97242" lon="-1.27915">
        <ele>819.44</ele>
        <time>2021-08-05T13:11:15Z</time>
      </trkpt>
      <trkpt lat="42.97252" lon="-1.27909">
        <ele>818.2</ele>
        <time>2021-08-05T13:11:29Z</time>
      </trkpt>
      <trkpt lat="42.97256" lon="-1.27907">
        <ele>817.57</ele>
        <time>2021-08-05T13:11:42Z</time>
      </trkpt>
      <trkpt lat="42.97265" lon="-1.27905">
        <ele>816.81</ele>
        <time>2021-08-05T13:12:03Z</time>
      </trkpt>
      <trkpt lat="42.9727" lon="-1.27902">
        <ele>815.9</ele>
        <time>2021-08-05T13:12:32Z</time>
      </trkpt>
      <trkpt lat="42.97261" lon="-1.27921">
        <ele>815.18</ele>
        <time>2021-08-05T13:13:03Z</time>
      </trkpt>
      <trkpt lat="42.97263" lon="-1.27926">
        <ele>815.77</ele>
        <time>2021-08-05T13:13:27Z</time>
      </trkpt>
      <trkpt lat="42.97269" lon="-1.27928">
        <ele>816.26</ele>
        <time>2021-08-05T13:13:46Z</time>
      </trkpt>
      <trkpt lat="42.97276" lon="-1.27929">
        <ele>817.79</ele>
        <time>2021-08-05T13:14:48Z</time>
      </trkpt>
      <trkpt lat="42.97268" lon="-1.27916">
        <ele>817.79</ele>
        <time>2021-08-05T13:14:49Z</time>
      </trkpt>
      <trkpt lat="42.97255" lon="-1.27931">
        <ele>817.79</ele>
        <time>2021-08-05T13:15:13Z</time>
      </trkpt>
      <trkpt lat="42.97255" lon="-1.27933">
        <ele>817.79</ele>
        <time>2021-08-05T13:15:41Z</time>
      </trkpt>
      <trkpt lat="42.97274" lon="-1.27908">
        <ele>818.75</ele>
        <time>2021-08-05T14:00:20Z</time>
      </trkpt>
      <trkpt lat="42.97271" lon="-1.27912">
        <ele>818.75</ele>
        <time>2021-08-05T14:00:31Z</time>
      </trkpt>
      <trkpt lat="42.97276" lon="-1.27897">
        <ele>817.1</ele>
        <time>2021-08-05T14:00:38Z</time>
      </trkpt>
      <trkpt lat="42.97308" lon="-1.27865">
        <ele>815.87</ele>
        <time>2021-08-05T14:00:49Z</time>
      </trkpt>
      <trkpt lat="42.97328" lon="-1.27849">
        <ele>812.87</ele>
        <time>2021-08-05T14:01:04Z</time>
      </trkpt>
      <trkpt lat="42.97334" lon="-1.27839">
        <ele>811.83</ele>
        <time>2021-08-05T14:01:19Z</time>
      </trkpt>
      <trkpt lat="42.97349" lon="-1.27827">
        <ele>811.08</ele>
        <time>2021-08-05T14:01:41Z</time>
      </trkpt>
      <trkpt lat="42.97356" lon="-1.27817">
        <ele>811.69</ele>
        <time>2021-08-05T14:02:25Z</time>
      </trkpt>
      <trkpt lat="42.97367" lon="-1.27803">
        <ele>810.7</ele>
        <time>2021-08-05T14:02:40Z</time>
      </trkpt>
      <trkpt lat="42.97378" lon="-1.2779">
        <ele>810.1</ele>
        <time>2021-08-05T14:03:02Z</time>
      </trkpt>
      <trkpt lat="42.9738" lon="-1.27779">
        <ele>809.96</ele>
        <time>2021-08-05T14:03:31Z</time>
      </trkpt>
      <trkpt lat="42.97381" lon="-1.27775">
        <ele>810</ele>
        <time>2021-08-05T14:03:34Z</time>
      </trkpt>
      <trkpt lat="42.97389" lon="-1.27742">
        <ele>810.49</ele>
        <time>2021-08-05T14:03:44Z</time>
      </trkpt>
      <trkpt lat="42.97404" lon="-1.27726">
        <ele>811.08</ele>
        <time>2021-08-05T14:03:48Z</time>
      </trkpt>
      <trkpt lat="42.97419" lon="-1.27715">
        <ele>811.98</ele>
        <time>2021-08-05T14:03:51Z</time>
      </trkpt>
      <trkpt lat="42.97494" lon="-1.27702">
        <ele>814.63</ele>
        <time>2021-08-05T14:04:01Z</time>
      </trkpt>
      <trkpt lat="42.97551" lon="-1.27691">
        <ele>815.46</ele>
        <time>2021-08-05T14:04:12Z</time>
      </trkpt>
      <trkpt lat="42.97594" lon="-1.2768">
        <ele>818.05</ele>
        <time>2021-08-05T14:04:25Z</time>
      </trkpt>
      <trkpt lat="42.97598" lon="-1.27681">
        <ele>820.26</ele>
        <time>2021-08-05T14:04:39Z</time>
      </trkpt>
      <trkpt lat="42.97604" lon="-1.27682">
        <ele>820.87</ele>
        <time>2021-08-05T14:04:53Z</time>
      </trkpt>
      <trkpt lat="42.97619" lon="-1.27686">
        <ele>821.02</ele>
        <time>2021-08-05T14:04:56Z</time>
      </trkpt>
      <trkpt lat="42.97635" lon="-1.27687">
        <ele>821.23</ele>
        <time>2021-08-05T14:04:58Z</time>
      </trkpt>
      <trkpt lat="42.97674" lon="-1.27693">
        <ele>821.7</ele>
        <time>2021-08-05T14:05:02Z</time>
      </trkpt>
      <trkpt lat="42.97702" lon="-1.27709">
        <ele>822.08</ele>
        <time>2021-08-05T14:05:05Z</time>
      </trkpt>
      <trkpt lat="42.97748" lon="-1.27734">
        <ele>822.87</ele>
        <time>2021-08-05T14:05:11Z</time>
      </trkpt>
      <trkpt lat="42.97761" lon="-1.27758">
        <ele>823.22</ele>
        <time>2021-08-05T14:05:13Z</time>
      </trkpt>
      <trkpt lat="42.97826" lon="-1.27837">
        <ele>824.83</ele>
        <time>2021-08-05T14:05:20Z</time>
      </trkpt>
      <trkpt lat="42.97866" lon="-1.27838">
        <ele>825.85</ele>
        <time>2021-08-05T14:05:24Z</time>
      </trkpt>
      <trkpt lat="42.9796" lon="-1.27832">
        <ele>827.62</ele>
        <time>2021-08-05T14:05:34Z</time>
      </trkpt>
      <trkpt lat="42.98006" lon="-1.27855">
        <ele>828.5</ele>
        <time>2021-08-05T14:05:38Z</time>
      </trkpt>
      <trkpt lat="42.98027" lon="-1.27873">
        <ele>828.99</ele>
        <time>2021-08-05T14:05:40Z</time>
      </trkpt>
      <trkpt lat="42.98055" lon="-1.27927">
        <ele>829.81</ele>
        <time>2021-08-05T14:05:44Z</time>
      </trkpt>
      <trkpt lat="42.98114" lon="-1.27985">
        <ele>831.24</ele>
        <time>2021-08-05T14:05:50Z</time>
      </trkpt>
      <trkpt lat="42.98121" lon="-1.27998">
        <ele>831.58</ele>
        <time>2021-08-05T14:05:51Z</time>
      </trkpt>
      <trkpt lat="42.98142" lon="-1.28042">
        <ele>832.5</ele>
        <time>2021-08-05T14:05:54Z</time>
      </trkpt>
      <trkpt lat="42.98174" lon="-1.28145">
        <ele>834.95</ele>
        <time>2021-08-05T14:06:02Z</time>
      </trkpt>
      <trkpt lat="42.98206" lon="-1.28191">
        <ele>838.3</ele>
        <time>2021-08-05T14:06:09Z</time>
      </trkpt>
      <trkpt lat="42.98221" lon="-1.2822">
        <ele>841.9</ele>
        <time>2021-08-05T14:06:16Z</time>
      </trkpt>
      <trkpt lat="42.98222" lon="-1.28225">
        <ele>843.4</ele>
        <time>2021-08-05T14:06:22Z</time>
      </trkpt>
      <trkpt lat="42.98226" lon="-1.28192">
        <ele>844.46</ele>
        <time>2021-08-05T14:06:29Z</time>
      </trkpt>
      <trkpt lat="42.98214" lon="-1.28157">
        <ele>845.99</ele>
        <time>2021-08-05T14:06:33Z</time>
      </trkpt>
      <trkpt lat="42.9821" lon="-1.28129">
        <ele>847.04</ele>
        <time>2021-08-05T14:06:36Z</time>
      </trkpt>
      <trkpt lat="42.9823" lon="-1.28115">
        <ele>851</ele>
        <time>2021-08-05T14:06:43Z</time>
      </trkpt>
      <trkpt lat="42.98263" lon="-1.28124">
        <ele>853.45</ele>
        <time>2021-08-05T14:06:48Z</time>
      </trkpt>
      <trkpt lat="42.98327" lon="-1.28114">
        <ele>857</ele>
        <time>2021-08-05T14:06:54Z</time>
      </trkpt>
      <trkpt lat="42.98362" lon="-1.28102">
        <ele>859.3</ele>
        <time>2021-08-05T14:06:57Z</time>
      </trkpt>
      <trkpt lat="42.98409" lon="-1.28059">
        <ele>863.5</ele>
        <time>2021-08-05T14:07:01Z</time>
      </trkpt>
      <trkpt lat="42.98476" lon="-1.28003">
        <ele>869.36</ele>
        <time>2021-08-05T14:07:07Z</time>
      </trkpt>
      <trkpt lat="42.98511" lon="-1.27961">
        <ele>873.88</ele>
        <time>2021-08-05T14:07:11Z</time>
      </trkpt>
      <trkpt lat="42.98536" lon="-1.27927">
        <ele>877.13</ele>
        <time>2021-08-05T14:07:14Z</time>
      </trkpt>
      <trkpt lat="42.98557" lon="-1.27907">
        <ele>879.13</ele>
        <time>2021-08-05T14:07:16Z</time>
      </trkpt>
      <trkpt lat="42.98585" lon="-1.27875">
        <ele>881.79</ele>
        <time>2021-08-05T14:07:19Z</time>
      </trkpt>
      <trkpt lat="42.98606" lon="-1.27821">
        <ele>884.99</ele>
        <time>2021-08-05T14:07:23Z</time>
      </trkpt>
      <trkpt lat="42.98609" lon="-1.27798">
        <ele>886.59</ele>
        <time>2021-08-05T14:07:25Z</time>
      </trkpt>
      <trkpt lat="42.9862" lon="-1.27787">
        <ele>890.82</ele>
        <time>2021-08-05T14:07:30Z</time>
      </trkpt>
      <trkpt lat="42.98621" lon="-1.27806">
        <ele>893.62</ele>
        <time>2021-08-05T14:07:34Z</time>
      </trkpt>
      <trkpt lat="42.98621" lon="-1.27864">
        <ele>897.8</ele>
        <time>2021-08-05T14:07:40Z</time>
      </trkpt>
      <trkpt lat="42.98607" lon="-1.27901">
        <ele>900.68</ele>
        <time>2021-08-05T14:07:44Z</time>
      </trkpt>
      <trkpt lat="42.98607" lon="-1.27985">
        <ele>904.75</ele>
        <time>2021-08-05T14:07:50Z</time>
      </trkpt>
      <trkpt lat="42.98625" lon="-1.28054">
        <ele>907.48</ele>
        <time>2021-08-05T14:07:54Z</time>
      </trkpt>
      <trkpt lat="42.9863" lon="-1.28088">
        <ele>908.91</ele>
        <time>2021-08-05T14:07:56Z</time>
      </trkpt>
      <trkpt lat="42.98657" lon="-1.28165">
        <ele>911.5</ele>
        <time>2021-08-05T14:08:01Z</time>
      </trkpt>
      <trkpt lat="42.9868" lon="-1.28234">
        <ele>912.72</ele>
        <time>2021-08-05T14:08:05Z</time>
      </trkpt>
      <trkpt lat="42.98703" lon="-1.28278">
        <ele>912.29</ele>
        <time>2021-08-05T14:08:09Z</time>
      </trkpt>
      <trkpt lat="42.9875" lon="-1.28329">
        <ele>910.28</ele>
        <time>2021-08-05T14:08:16Z</time>
      </trkpt>
      <trkpt lat="42.98801" lon="-1.28335">
        <ele>910.28</ele>
        <time>2021-08-05T14:08:22Z</time>
      </trkpt>
      <trkpt lat="42.9886" lon="-1.28328">
        <ele>912.18</ele>
        <time>2021-08-05T14:08:29Z</time>
      </trkpt>
      <trkpt lat="42.98882" lon="-1.2833">
        <ele>914.55</ele>
        <time>2021-08-05T14:08:35Z</time>
      </trkpt>
      <trkpt lat="42.98873" lon="-1.28303">
        <ele>918.04</ele>
        <time>2021-08-05T14:08:41Z</time>
      </trkpt>
      <trkpt lat="42.98845" lon="-1.2829">
        <ele>922.42</ele>
        <time>2021-08-05T14:08:48Z</time>
      </trkpt>
      <trkpt lat="42.98835" lon="-1.28286">
        <ele>924.29</ele>
        <time>2021-08-05T14:08:51Z</time>
      </trkpt>
      <trkpt lat="42.9885" lon="-1.28263">
        <ele>927.95</ele>
        <time>2021-08-05T14:08:57Z</time>
      </trkpt>
      <trkpt lat="42.98863" lon="-1.28257">
        <ele>929.07</ele>
        <time>2021-08-05T14:08:59Z</time>
      </trkpt>
      <trkpt lat="42.98904" lon="-1.28215">
        <ele>933.36</ele>
        <time>2021-08-05T14:09:06Z</time>
      </trkpt>
      <trkpt lat="42.98922" lon="-1.28183">
        <ele>936.25</ele>
        <time>2021-08-05T14:09:10Z</time>
      </trkpt>
      <trkpt lat="42.98954" lon="-1.28131">
        <ele>940.43</ele>
        <time>2021-08-05T14:09:16Z</time>
      </trkpt>
      <trkpt lat="42.98989" lon="-1.28104">
        <ele>944.24</ele>
        <time>2021-08-05T14:09:21Z</time>
      </trkpt>
      <trkpt lat="42.99025" lon="-1.28076">
        <ele>948.32</ele>
        <time>2021-08-05T14:09:27Z</time>
      </trkpt>
      <trkpt lat="42.99055" lon="-1.28025">
        <ele>952.13</ele>
        <time>2021-08-05T14:09:33Z</time>
      </trkpt>
      <trkpt lat="42.99064" lon="-1.28007">
        <ele>953.55</ele>
        <time>2021-08-05T14:09:35Z</time>
      </trkpt>
      <trkpt lat="42.99088" lon="-1.27987">
        <ele>956.18</ele>
        <time>2021-08-05T14:09:39Z</time>
      </trkpt>
      <trkpt lat="42.99102" lon="-1.27981">
        <ele>957.37</ele>
        <time>2021-08-05T14:09:41Z</time>
      </trkpt>
      <trkpt lat="42.99143" lon="-1.27944">
        <ele>960.87</ele>
        <time>2021-08-05T14:09:47Z</time>
      </trkpt>
      <trkpt lat="42.99171" lon="-1.2789">
        <ele>964.4</ele>
        <time>2021-08-05T14:09:53Z</time>
      </trkpt>
      <trkpt lat="42.99221" lon="-1.27821">
        <ele>968.2</ele>
        <time>2021-08-05T14:10:01Z</time>
      </trkpt>
      <trkpt lat="42.99266" lon="-1.27751">
        <ele>971.77</ele>
        <time>2021-08-05T14:10:08Z</time>
      </trkpt>
      <trkpt lat="42.993" lon="-1.27681">
        <ele>975.12</ele>
        <time>2021-08-05T14:10:14Z</time>
      </trkpt>
      <trkpt lat="42.99329" lon="-1.27625">
        <ele>978.43</ele>
        <time>2021-08-05T14:10:20Z</time>
      </trkpt>
      <trkpt lat="42.99344" lon="-1.27606">
        <ele>980</ele>
        <time>2021-08-05T14:10:27Z</time>
      </trkpt>
      <trkpt lat="42.99371" lon="-1.27564">
        <ele>980.47</ele>
        <time>2021-08-05T14:10:39Z</time>
      </trkpt>
      <trkpt lat="42.99397" lon="-1.27525">
        <ele>981.11</ele>
        <time>2021-08-05T14:10:48Z</time>
      </trkpt>
      <trkpt lat="42.99417" lon="-1.27521">
        <ele>982.98</ele>
        <time>2021-08-05T14:10:57Z</time>
      </trkpt>
      <trkpt lat="42.99452" lon="-1.27523">
        <ele>985.68</ele>
        <time>2021-08-05T14:11:09Z</time>
      </trkpt>
      <trkpt lat="42.99457" lon="-1.27523">
        <ele>985.91</ele>
        <time>2021-08-05T14:11:10Z</time>
      </trkpt>
      <trkpt lat="42.99465" lon="-1.27543">
        <ele>988.56</ele>
        <time>2021-08-05T14:11:17Z</time>
      </trkpt>
      <trkpt lat="42.99455" lon="-1.27558">
        <ele>989.81</ele>
        <time>2021-08-05T14:11:20Z</time>
      </trkpt>
      <trkpt lat="42.99463" lon="-1.27626">
        <ele>993.11</ele>
        <time>2021-08-05T14:11:29Z</time>
      </trkpt>
      <trkpt lat="42.99468" lon="-1.27634">
        <ele>993.39</ele>
        <time>2021-08-05T14:11:30Z</time>
      </trkpt>
      <trkpt lat="42.99479" lon="-1.27651">
        <ele>994.05</ele>
        <time>2021-08-05T14:11:32Z</time>
      </trkpt>
      <trkpt lat="42.99563" lon="-1.27724">
        <ele>997.18</ele>
        <time>2021-08-05T14:11:43Z</time>
      </trkpt>
      <trkpt lat="42.99567" lon="-1.27733">
        <ele>997.74</ele>
        <time>2021-08-05T14:11:45Z</time>
      </trkpt>
      <trkpt lat="42.99539" lon="-1.27753">
        <ele>998.74</ele>
        <time>2021-08-05T14:11:49Z</time>
      </trkpt>
      <trkpt lat="42.99495" lon="-1.27775">
        <ele>1000.56</ele>
        <time>2021-08-05T14:11:55Z</time>
      </trkpt>
      <trkpt lat="42.99485" lon="-1.2783">
        <ele>1004.01</ele>
        <time>2021-08-05T14:12:02Z</time>
      </trkpt>
      <trkpt lat="42.99528" lon="-1.27855">
        <ele>1006.72</ele>
        <time>2021-08-05T14:12:07Z</time>
      </trkpt>
      <trkpt lat="42.99574" lon="-1.27876">
        <ele>1009.26</ele>
        <time>2021-08-05T14:12:12Z</time>
      </trkpt>
      <trkpt lat="42.99605" lon="-1.27958">
        <ele>1013.02</ele>
        <time>2021-08-05T14:12:19Z</time>
      </trkpt>
      <trkpt lat="42.99598" lon="-1.27997">
        <ele>1014.22</ele>
        <time>2021-08-05T14:12:22Z</time>
      </trkpt>
      <trkpt lat="42.99589" lon="-1.2804">
        <ele>1016</ele>
        <time>2021-08-05T14:12:26Z</time>
      </trkpt>
      <trkpt lat="42.99608" lon="-1.28078">
        <ele>1017.59</ele>
        <time>2021-08-05T14:12:32Z</time>
      </trkpt>
      <trkpt lat="42.99635" lon="-1.28071">
        <ele>1017.95</ele>
        <time>2021-08-05T14:12:35Z</time>
      </trkpt>
      <trkpt lat="42.99774" lon="-1.28021">
        <ele>1019.49</ele>
        <time>2021-08-05T14:12:46Z</time>
      </trkpt>
      <trkpt lat="42.99811" lon="-1.27997">
        <ele>1020.65</ele>
        <time>2021-08-05T14:12:49Z</time>
      </trkpt>
      <trkpt lat="42.99891" lon="-1.27874">
        <ele>1023.69</ele>
        <time>2021-08-05T14:12:58Z</time>
      </trkpt>
      <trkpt lat="42.99951" lon="-1.27766">
        <ele>1026.76</ele>
        <time>2021-08-05T14:13:06Z</time>
      </trkpt>
      <trkpt lat="43.00048" lon="-1.27667">
        <ele>1029.36</ele>
        <time>2021-08-05T14:13:17Z</time>
      </trkpt>
      <trkpt lat="43.00088" lon="-1.27647">
        <ele>1031.5</ele>
        <time>2021-08-05T14:13:23Z</time>
      </trkpt>
      <trkpt lat="43.00091" lon="-1.27644">
        <ele>1031.9</ele>
        <time>2021-08-05T14:13:24Z</time>
      </trkpt>
      <trkpt lat="43.00093" lon="-1.2764">
        <ele>1032.28</ele>
        <time>2021-08-05T14:13:25Z</time>
      </trkpt>
      <trkpt lat="43.00094" lon="-1.27635">
        <ele>1032.65</ele>
        <time>2021-08-05T14:13:26Z</time>
      </trkpt>
      <trkpt lat="43.00095" lon="-1.27628">
        <ele>1033.01</ele>
        <time>2021-08-05T14:13:27Z</time>
      </trkpt>
      <trkpt lat="43.00096" lon="-1.27621">
        <ele>1033.32</ele>
        <time>2021-08-05T14:13:28Z</time>
      </trkpt>
      <trkpt lat="43.00119" lon="-1.27529">
        <ele>1033.98</ele>
        <time>2021-08-05T14:13:38Z</time>
      </trkpt>
      <trkpt lat="43.00169" lon="-1.27483">
        <ele>1030.61</ele>
        <time>2021-08-05T14:13:45Z</time>
      </trkpt>
      <trkpt lat="43.00203" lon="-1.27472">
        <ele>1027.94</ele>
        <time>2021-08-05T14:13:49Z</time>
      </trkpt>
      <trkpt lat="43.0024" lon="-1.27479">
        <ele>1024.22</ele>
        <time>2021-08-05T14:13:55Z</time>
      </trkpt>
      <trkpt lat="43.00252" lon="-1.27449">
        <ele>1020.83</ele>
        <time>2021-08-05T14:14:00Z</time>
      </trkpt>
      <trkpt lat="43.00244" lon="-1.27348">
        <ele>1017.22</ele>
        <time>2021-08-05T14:14:07Z</time>
      </trkpt>
      <trkpt lat="43.0025" lon="-1.27232">
        <ele>1013.47</ele>
        <time>2021-08-05T14:14:14Z</time>
      </trkpt>
      <trkpt lat="43.00255" lon="-1.27161">
        <ele>1010.02</ele>
        <time>2021-08-05T14:14:18Z</time>
      </trkpt>
      <trkpt lat="43.00261" lon="-1.27109">
        <ele>1007.58</ele>
        <time>2021-08-05T14:14:21Z</time>
      </trkpt>
      <trkpt lat="43.00284" lon="-1.2703">
        <ele>1003.06</ele>
        <time>2021-08-05T14:14:26Z</time>
      </trkpt>
      <trkpt lat="43.00291" lon="-1.27007">
        <ele>1001.32</ele>
        <time>2021-08-05T14:14:28Z</time>
      </trkpt>
      <trkpt lat="43.00316" lon="-1.26977">
        <ele>997.59</ele>
        <time>2021-08-05T14:14:33Z</time>
      </trkpt>
      <trkpt lat="43.00334" lon="-1.26931">
        <ele>993.99</ele>
        <time>2021-08-05T14:14:40Z</time>
      </trkpt>
      <trkpt lat="43.00346" lon="-1.26797">
        <ele>990.52</ele>
        <time>2021-08-05T14:14:50Z</time>
      </trkpt>
      <trkpt lat="43.0036" lon="-1.2673">
        <ele>987.52</ele>
        <time>2021-08-05T14:14:55Z</time>
      </trkpt>
      <trkpt lat="43.00374" lon="-1.2668">
        <ele>985.27</ele>
        <time>2021-08-05T14:14:59Z</time>
      </trkpt>
      <trkpt lat="43.00409" lon="-1.26631">
        <ele>981.11</ele>
        <time>2021-08-05T14:15:05Z</time>
      </trkpt>
      <trkpt lat="43.00434" lon="-1.26613">
        <ele>978.58</ele>
        <time>2021-08-05T14:15:08Z</time>
      </trkpt>
      <trkpt lat="43.00452" lon="-1.26593">
        <ele>974.6</ele>
        <time>2021-08-05T14:15:11Z</time>
      </trkpt>
      <trkpt lat="43.00456" lon="-1.26586">
        <ele>974.6</ele>
        <time>2021-08-05T14:15:12Z</time>
      </trkpt>
      <trkpt lat="43.00459" lon="-1.2656">
        <ele>970.58</ele>
        <time>2021-08-05T14:15:15Z</time>
      </trkpt>
      <trkpt lat="43.00453" lon="-1.2654">
        <ele>968.94</ele>
        <time>2021-08-05T14:15:17Z</time>
      </trkpt>
      <trkpt lat="43.00443" lon="-1.26509">
        <ele>966.74</ele>
        <time>2021-08-05T14:15:20Z</time>
      </trkpt>
      <trkpt lat="43.00445" lon="-1.26466">
        <ele>963.62</ele>
        <time>2021-08-05T14:15:24Z</time>
      </trkpt>
      <trkpt lat="43.00456" lon="-1.26409">
        <ele>959.82</ele>
        <time>2021-08-05T14:15:29Z</time>
      </trkpt>
      <trkpt lat="43.00449" lon="-1.26351">
        <ele>954.96</ele>
        <time>2021-08-05T14:15:34Z</time>
      </trkpt>
      <trkpt lat="43.00449" lon="-1.26301">
        <ele>949.6</ele>
        <time>2021-08-05T14:15:39Z</time>
      </trkpt>
      <trkpt lat="43.00463" lon="-1.2627">
        <ele>946.48</ele>
        <time>2021-08-05T14:15:42Z</time>
      </trkpt>
      <trkpt lat="43.00474" lon="-1.26237">
        <ele>943.33</ele>
        <time>2021-08-05T14:15:45Z</time>
      </trkpt>
      <trkpt lat="43.00476" lon="-1.26225">
        <ele>942.33</ele>
        <time>2021-08-05T14:15:46Z</time>
      </trkpt>
      <trkpt lat="43.00484" lon="-1.26181">
        <ele>938.23</ele>
        <time>2021-08-05T14:15:50Z</time>
      </trkpt>
      <trkpt lat="43.00487" lon="-1.26154">
        <ele>934.9</ele>
        <time>2021-08-05T14:15:53Z</time>
      </trkpt>
      <trkpt lat="43.00489" lon="-1.26128">
        <ele>930.99</ele>
        <time>2021-08-05T14:15:57Z</time>
      </trkpt>
      <trkpt lat="43.00492" lon="-1.26109">
        <ele>927.61</ele>
        <time>2021-08-05T14:16:01Z</time>
      </trkpt>
      <trkpt lat="43.005" lon="-1.2609">
        <ele>924.4</ele>
        <time>2021-08-05T14:16:06Z</time>
      </trkpt>
      <trkpt lat="43.00503" lon="-1.26079">
        <ele>923.51</ele>
        <time>2021-08-05T14:16:08Z</time>
      </trkpt>
      <trkpt lat="43.00504" lon="-1.26072">
        <ele>923.06</ele>
        <time>2021-08-05T14:16:09Z</time>
      </trkpt>
      <trkpt lat="43.00511" lon="-1.2603">
        <ele>919.84</ele>
        <time>2021-08-05T14:16:17Z</time>
      </trkpt>
      <trkpt lat="43.00524" lon="-1.26011">
        <ele>917.09</ele>
        <time>2021-08-05T14:16:26Z</time>
      </trkpt>
      <trkpt lat="43.00538" lon="-1.25979">
        <ele>915.69</ele>
        <time>2021-08-05T14:16:33Z</time>
      </trkpt>
      <trkpt lat="43.00548" lon="-1.25954">
        <ele>915.33</ele>
        <time>2021-08-05T14:16:37Z</time>
      </trkpt>
      <trkpt lat="43.0057" lon="-1.25925">
        <ele>914.93</ele>
        <time>2021-08-05T14:16:42Z</time>
      </trkpt>
      <trkpt lat="43.00649" lon="-1.25875">
        <ele>913.47</ele>
        <time>2021-08-05T14:16:52Z</time>
      </trkpt>
      <trkpt lat="43.00759" lon="-1.25876">
        <ele>911.74</ele>
        <time>2021-08-05T14:17:03Z</time>
      </trkpt>
      <trkpt lat="43.00838" lon="-1.25842">
        <ele>911.64</ele>
        <time>2021-08-05T14:17:13Z</time>
      </trkpt>
      <trkpt lat="43.00854" lon="-1.25836">
        <ele>911.61</ele>
        <time>2021-08-05T14:17:15Z</time>
      </trkpt>
      <trkpt lat="43.00894" lon="-1.25772">
        <ele>911.16</ele>
        <time>2021-08-05T14:17:22Z</time>
      </trkpt>
      <trkpt lat="43.00897" lon="-1.2576">
        <ele>911.11</ele>
        <time>2021-08-05T14:17:23Z</time>
      </trkpt>
      <trkpt lat="43.00932" lon="-1.25708">
        <ele>910.84</ele>
        <time>2021-08-05T14:17:30Z</time>
      </trkpt>
      <trkpt lat="43.00946" lon="-1.25699">
        <ele>910.68</ele>
        <time>2021-08-05T14:17:32Z</time>
      </trkpt>
      <trkpt lat="43.0098" lon="-1.25639">
        <ele>908.79</ele>
        <time>2021-08-05T14:17:42Z</time>
      </trkpt>
      <trkpt lat="43.01028" lon="-1.25545">
        <ele>905.9</ele>
        <time>2021-08-05T14:17:52Z</time>
      </trkpt>
      <trkpt lat="43.01034" lon="-1.25531">
        <ele>904.93</ele>
        <time>2021-08-05T14:17:54Z</time>
      </trkpt>
      <trkpt lat="43.01037" lon="-1.25493">
        <ele>903.3</ele>
        <time>2021-08-05T14:17:58Z</time>
      </trkpt>
      <trkpt lat="43.0103" lon="-1.2545">
        <ele>901.9</ele>
        <time>2021-08-05T14:18:02Z</time>
      </trkpt>
      <trkpt lat="43.01027" lon="-1.25429">
        <ele>901.12</ele>
        <time>2021-08-05T14:18:04Z</time>
      </trkpt>
      <trkpt lat="43.01045" lon="-1.2537">
        <ele>899.59</ele>
        <time>2021-08-05T14:18:09Z</time>
      </trkpt>
      <trkpt lat="43.01069" lon="-1.25284">
        <ele>897.84</ele>
        <time>2021-08-05T14:18:15Z</time>
      </trkpt>
      <trkpt lat="43.0105" lon="-1.25225">
        <ele>896.53</ele>
        <time>2021-08-05T14:18:20Z</time>
      </trkpt>
      <trkpt lat="43.01043" lon="-1.25207">
        <ele>896.29</ele>
        <time>2021-08-05T14:18:22Z</time>
      </trkpt>
      <trkpt lat="43.01057" lon="-1.25146">
        <ele>896.14</ele>
        <time>2021-08-05T14:18:30Z</time>
      </trkpt>
      <trkpt lat="43.01073" lon="-1.25135">
        <ele>895.66</ele>
        <time>2021-08-05T14:18:32Z</time>
      </trkpt>
      <trkpt lat="43.01101" lon="-1.25099">
        <ele>890.48</ele>
        <time>2021-08-05T14:18:37Z</time>
      </trkpt>
      <trkpt lat="43.01101" lon="-1.25065">
        <ele>887.46</ele>
        <time>2021-08-05T14:18:41Z</time>
      </trkpt>
      <trkpt lat="43.01106" lon="-1.25046">
        <ele>886.36</ele>
        <time>2021-08-05T14:18:43Z</time>
      </trkpt>
      <trkpt lat="43.01168" lon="-1.24943">
        <ele>883.54</ele>
        <time>2021-08-05T14:18:55Z</time>
      </trkpt>
      <trkpt lat="43.01175" lon="-1.24937">
        <ele>883.07</ele>
        <time>2021-08-05T14:18:56Z</time>
      </trkpt>
      <trkpt lat="43.01189" lon="-1.24896">
        <ele>880.37</ele>
        <time>2021-08-05T14:19:02Z</time>
      </trkpt>
      <trkpt lat="43.01194" lon="-1.2488">
        <ele>879.49</ele>
        <time>2021-08-05T14:19:07Z</time>
      </trkpt>
      <trkpt lat="43.01197" lon="-1.24788">
        <ele>880.07</ele>
        <time>2021-08-05T14:19:15Z</time>
      </trkpt>
      <trkpt lat="43.01199" lon="-1.24686">
        <ele>879.26</ele>
        <time>2021-08-05T14:19:23Z</time>
      </trkpt>
      <trkpt lat="43.01206" lon="-1.2465">
        <ele>877.62</ele>
        <time>2021-08-05T14:19:27Z</time>
      </trkpt>
      <trkpt lat="43.01204" lon="-1.24631">
        <ele>876.14</ele>
        <time>2021-08-05T14:19:29Z</time>
      </trkpt>
      <trkpt lat="43.01164" lon="-1.24588">
        <ele>873.13</ele>
        <time>2021-08-05T14:19:35Z</time>
      </trkpt>
      <trkpt lat="43.01151" lon="-1.24568">
        <ele>872.78</ele>
        <time>2021-08-05T14:19:37Z</time>
      </trkpt>
      <trkpt lat="43.01128" lon="-1.245">
        <ele>872.73</ele>
        <time>2021-08-05T14:19:43Z</time>
      </trkpt>
      <trkpt lat="43.01096" lon="-1.24454">
        <ele>872.56</ele>
        <time>2021-08-05T14:19:48Z</time>
      </trkpt>
      <trkpt lat="43.01084" lon="-1.24442">
        <ele>872.33</ele>
        <time>2021-08-05T14:19:50Z</time>
      </trkpt>
      <trkpt lat="43.01067" lon="-1.24385">
        <ele>870.91</ele>
        <time>2021-08-05T14:19:56Z</time>
      </trkpt>
      <trkpt lat="43.01063" lon="-1.243">
        <ele>867.54</ele>
        <time>2021-08-05T14:20:04Z</time>
      </trkpt>
      <trkpt lat="43.01066" lon="-1.24232">
        <ele>864.19</ele>
        <time>2021-08-05T14:20:10Z</time>
      </trkpt>
      <trkpt lat="43.01067" lon="-1.24222">
        <ele>863.5</ele>
        <time>2021-08-05T14:20:11Z</time>
      </trkpt>
      <trkpt lat="43.01075" lon="-1.24184">
        <ele>861.33</ele>
        <time>2021-08-05T14:20:15Z</time>
      </trkpt>
      <trkpt lat="43.01038" lon="-1.24123">
        <ele>860.34</ele>
        <time>2021-08-05T14:20:22Z</time>
      </trkpt>
      <trkpt lat="43.01006" lon="-1.24088">
        <ele>859.67</ele>
        <time>2021-08-05T14:20:27Z</time>
      </trkpt>
      <trkpt lat="43.00983" lon="-1.24039">
        <ele>858.58</ele>
        <time>2021-08-05T14:20:32Z</time>
      </trkpt>
      <trkpt lat="43.00997" lon="-1.23978">
        <ele>855.81</ele>
        <time>2021-08-05T14:20:39Z</time>
      </trkpt>
      <trkpt lat="43.01029" lon="-1.23959">
        <ele>854.91</ele>
        <time>2021-08-05T14:20:44Z</time>
      </trkpt>
      <trkpt lat="43.01063" lon="-1.23957">
        <ele>854.92</ele>
        <time>2021-08-05T14:20:48Z</time>
      </trkpt>
      <trkpt lat="43.01098" lon="-1.23928">
        <ele>855.96</ele>
        <time>2021-08-05T14:20:53Z</time>
      </trkpt>
      <trkpt lat="43.01107" lon="-1.2391">
        <ele>856.65</ele>
        <time>2021-08-05T14:20:55Z</time>
      </trkpt>
      <trkpt lat="43.01116" lon="-1.23867">
        <ele>858.08</ele>
        <time>2021-08-05T14:20:59Z</time>
      </trkpt>
      <trkpt lat="43.01121" lon="-1.23798">
        <ele>861.15</ele>
        <time>2021-08-05T14:21:05Z</time>
      </trkpt>
      <trkpt lat="43.01126" lon="-1.23755">
        <ele>863.74</ele>
        <time>2021-08-05T14:21:11Z</time>
      </trkpt>
      <trkpt lat="43.01107" lon="-1.23657">
        <ele>866.42</ele>
        <time>2021-08-05T14:21:20Z</time>
      </trkpt>
      <trkpt lat="43.01115" lon="-1.23528">
        <ele>867.87</ele>
        <time>2021-08-05T14:21:29Z</time>
      </trkpt>
      <trkpt lat="43.01117" lon="-1.2341">
        <ele>864.84</ele>
        <time>2021-08-05T14:21:37Z</time>
      </trkpt>
      <trkpt lat="43.01121" lon="-1.23308">
        <ele>861.43</ele>
        <time>2021-08-05T14:21:45Z</time>
      </trkpt>
      <trkpt lat="43.01122" lon="-1.23229">
        <ele>857.68</ele>
        <time>2021-08-05T14:21:51Z</time>
      </trkpt>
      <trkpt lat="43.01118" lon="-1.2318">
        <ele>854.18</ele>
        <time>2021-08-05T14:21:55Z</time>
      </trkpt>
      <trkpt lat="43.01113" lon="-1.23144">
        <ele>850.88</ele>
        <time>2021-08-05T14:21:58Z</time>
      </trkpt>
      <trkpt lat="43.01107" lon="-1.23107">
        <ele>847.64</ele>
        <time>2021-08-05T14:22:01Z</time>
      </trkpt>
      <trkpt lat="43.01102" lon="-1.23068">
        <ele>844.39</ele>
        <time>2021-08-05T14:22:04Z</time>
      </trkpt>
      <trkpt lat="43.01097" lon="-1.23035">
        <ele>841.13</ele>
        <time>2021-08-05T14:22:07Z</time>
      </trkpt>
      <trkpt lat="43.01093" lon="-1.23017">
        <ele>839.07</ele>
        <time>2021-08-05T14:22:09Z</time>
      </trkpt>
      <trkpt lat="43.01092" lon="-1.23002">
        <ele>837.03</ele>
        <time>2021-08-05T14:22:11Z</time>
      </trkpt>
      <trkpt lat="43.0107" lon="-1.2298">
        <ele>832.57</ele>
        <time>2021-08-05T14:22:16Z</time>
      </trkpt>
      <trkpt lat="43.01063" lon="-1.22977">
        <ele>831.88</ele>
        <time>2021-08-05T14:22:17Z</time>
      </trkpt>
      <trkpt lat="43.01037" lon="-1.2297">
        <ele>829.52</ele>
        <time>2021-08-05T14:22:22Z</time>
      </trkpt>
      <trkpt lat="43.01019" lon="-1.22952">
        <ele>828.15</ele>
        <time>2021-08-05T14:22:27Z</time>
      </trkpt>
      <trkpt lat="43.01014" lon="-1.22936">
        <ele>826.68</ele>
        <time>2021-08-05T14:22:34Z</time>
      </trkpt>
      <trkpt lat="43.00999" lon="-1.22904">
        <ele>826.74</ele>
        <time>2021-08-05T14:22:43Z</time>
      </trkpt>
      <trkpt lat="43.00995" lon="-1.229">
        <ele>827.32</ele>
        <time>2021-08-05T14:22:46Z</time>
      </trkpt>
      <trkpt lat="43.00972" lon="-1.22843">
        <ele>830.49</ele>
        <time>2021-08-05T14:22:57Z</time>
      </trkpt>
      <trkpt lat="43.00952" lon="-1.22786">
        <ele>832</ele>
        <time>2021-08-05T14:23:09Z</time>
      </trkpt>
      <trkpt lat="43.00951" lon="-1.2276">
        <ele>831.97</ele>
        <time>2021-08-05T14:23:22Z</time>
      </trkpt>
      <trkpt lat="43.0095" lon="-1.22761">
        <ele>832.51</ele>
        <time>2021-08-05T14:23:44Z</time>
      </trkpt>
      <trkpt lat="43.00951" lon="-1.22764">
        <ele>832.53</ele>
        <time>2021-08-05T14:23:46Z</time>
      </trkpt>
      <trkpt lat="43.00962" lon="-1.22813">
        <ele>833.01</ele>
        <time>2021-08-05T14:23:58Z</time>
      </trkpt>
      <trkpt lat="43.00987" lon="-1.22879">
        <ele>833.3</ele>
        <time>2021-08-05T14:24:07Z</time>
      </trkpt>
      <trkpt lat="43.01004" lon="-1.22901">
        <ele>833.17</ele>
        <time>2021-08-05T14:24:11Z</time>
      </trkpt>
      <trkpt lat="43.0109" lon="-1.22934">
        <ele>833.88</ele>
        <time>2021-08-05T14:24:20Z</time>
      </trkpt>
      <trkpt lat="43.01135" lon="-1.22911">
        <ele>834.35</ele>
        <time>2021-08-05T14:24:24Z</time>
      </trkpt>
      <trkpt lat="43.01181" lon="-1.22836">
        <ele>835.51</ele>
        <time>2021-08-05T14:24:30Z</time>
      </trkpt>
      <trkpt lat="43.01247" lon="-1.22811">
        <ele>837.06</ele>
        <time>2021-08-05T14:24:36Z</time>
      </trkpt>
      <trkpt lat="43.01261" lon="-1.22812">
        <ele>837.2</ele>
        <time>2021-08-05T14:24:37Z</time>
      </trkpt>
      <trkpt lat="43.0129" lon="-1.22821">
        <ele>837.4</ele>
        <time>2021-08-05T14:24:39Z</time>
      </trkpt>
      <trkpt lat="43.0141" lon="-1.22905">
        <ele>838.92</ele>
        <time>2021-08-05T14:24:48Z</time>
      </trkpt>
      <trkpt lat="43.01501" lon="-1.22924">
        <ele>841.28</ele>
        <time>2021-08-05T14:24:54Z</time>
      </trkpt>
      <trkpt lat="43.01561" lon="-1.22888">
        <ele>842.55</ele>
        <time>2021-08-05T14:24:59Z</time>
      </trkpt>
      <trkpt lat="43.01588" lon="-1.22872">
        <ele>843.04</ele>
        <time>2021-08-05T14:25:01Z</time>
      </trkpt>
      <trkpt lat="43.01667" lon="-1.22874">
        <ele>844.56</ele>
        <time>2021-08-05T14:25:07Z</time>
      </trkpt>
      <trkpt lat="43.01755" lon="-1.22909">
        <ele>845.09</ele>
        <time>2021-08-05T14:25:14Z</time>
      </trkpt>
      <trkpt lat="43.01816" lon="-1.22918">
        <ele>846.29</ele>
        <time>2021-08-05T14:25:19Z</time>
      </trkpt>
      <trkpt lat="43.0187" lon="-1.22982">
        <ele>848.32</ele>
        <time>2021-08-05T14:25:25Z</time>
      </trkpt>
      <trkpt lat="43.01876" lon="-1.22999">
        <ele>848.58</ele>
        <time>2021-08-05T14:25:26Z</time>
      </trkpt>
      <trkpt lat="43.01891" lon="-1.23046">
        <ele>849.49</ele>
        <time>2021-08-05T14:25:29Z</time>
      </trkpt>
      <trkpt lat="43.01936" lon="-1.23086">
        <ele>850.59</ele>
        <time>2021-08-05T14:25:35Z</time>
      </trkpt>
      <trkpt lat="43.01972" lon="-1.2309">
        <ele>852.45</ele>
        <time>2021-08-05T14:25:39Z</time>
      </trkpt>
      <trkpt lat="43.0203" lon="-1.23066">
        <ele>856.83</ele>
        <time>2021-08-05T14:25:45Z</time>
      </trkpt>
      <trkpt lat="43.02082" lon="-1.23036">
        <ele>860.36</ele>
        <time>2021-08-05T14:25:49Z</time>
      </trkpt>
      <trkpt lat="43.02096" lon="-1.23029">
        <ele>861.17</ele>
        <time>2021-08-05T14:25:50Z</time>
      </trkpt>
      <trkpt lat="43.02172" lon="-1.23013">
        <ele>865.94</ele>
        <time>2021-08-05T14:25:55Z</time>
      </trkpt>
      <trkpt lat="43.02216" lon="-1.23014">
        <ele>869.3</ele>
        <time>2021-08-05T14:25:58Z</time>
      </trkpt>
      <trkpt lat="43.02257" lon="-1.23018">
        <ele>872.63</ele>
        <time>2021-08-05T14:26:01Z</time>
      </trkpt>
      <trkpt lat="43.02271" lon="-1.23022">
        <ele>873.69</ele>
        <time>2021-08-05T14:26:02Z</time>
      </trkpt>
      <trkpt lat="43.0232" lon="-1.23054">
        <ele>877</ele>
        <time>2021-08-05T14:26:06Z</time>
      </trkpt>
      <trkpt lat="43.02397" lon="-1.23062">
        <ele>881.45</ele>
        <time>2021-08-05T14:26:12Z</time>
      </trkpt>
      <trkpt lat="43.02438" lon="-1.23015">
        <ele>884.64</ele>
        <time>2021-08-05T14:26:16Z</time>
      </trkpt>
      <trkpt lat="43.02445" lon="-1.22999">
        <ele>885.54</ele>
        <time>2021-08-05T14:26:17Z</time>
      </trkpt>
      <trkpt lat="43.02488" lon="-1.22919">
        <ele>889.26</ele>
        <time>2021-08-05T14:26:22Z</time>
      </trkpt>
      <trkpt lat="43.02532" lon="-1.22887">
        <ele>890.66</ele>
        <time>2021-08-05T14:26:26Z</time>
      </trkpt>
      <trkpt lat="43.02586" lon="-1.2288">
        <ele>892.02</ele>
        <time>2021-08-05T14:26:30Z</time>
      </trkpt>
      <trkpt lat="43.02647" lon="-1.22936">
        <ele>895.54</ele>
        <time>2021-08-05T14:26:37Z</time>
      </trkpt>
      <trkpt lat="43.02684" lon="-1.2296">
        <ele>898.4</ele>
        <time>2021-08-05T14:26:42Z</time>
      </trkpt>
      <trkpt lat="43.02698" lon="-1.22946">
        <ele>899.89</ele>
        <time>2021-08-05T14:26:44Z</time>
      </trkpt>
      <trkpt lat="43.02737" lon="-1.22904">
        <ele>905.38</ele>
        <time>2021-08-05T14:26:49Z</time>
      </trkpt>
      <trkpt lat="43.02746" lon="-1.22896">
        <ele>906.37</ele>
        <time>2021-08-05T14:26:50Z</time>
      </trkpt>
      <trkpt lat="43.0277" lon="-1.2286">
        <ele>909.58</ele>
        <time>2021-08-05T14:26:53Z</time>
      </trkpt>
      <trkpt lat="43.02812" lon="-1.22815">
        <ele>914.34</ele>
        <time>2021-08-05T14:26:57Z</time>
      </trkpt>
      <trkpt lat="43.02824" lon="-1.22807">
        <ele>915.72</ele>
        <time>2021-08-05T14:26:58Z</time>
      </trkpt>
      <trkpt lat="43.02847" lon="-1.22791">
        <ele>918.76</ele>
        <time>2021-08-05T14:27:00Z</time>
      </trkpt>
      <trkpt lat="43.02884" lon="-1.22785">
        <ele>923.35</ele>
        <time>2021-08-05T14:27:03Z</time>
      </trkpt>
      <trkpt lat="43.02925" lon="-1.22778">
        <ele>927.82</ele>
        <time>2021-08-05T14:27:06Z</time>
      </trkpt>
      <trkpt lat="43.02951" lon="-1.22765">
        <ele>930.96</ele>
        <time>2021-08-05T14:27:08Z</time>
      </trkpt>
      <trkpt lat="43.02978" lon="-1.22767">
        <ele>934.03</ele>
        <time>2021-08-05T14:27:10Z</time>
      </trkpt>
      <trkpt lat="43.03006" lon="-1.22774">
        <ele>937.11</ele>
        <time>2021-08-05T14:27:12Z</time>
      </trkpt>
      <trkpt lat="43.0304" lon="-1.22768">
        <ele>942.81</ele>
        <time>2021-08-05T14:27:16Z</time>
      </trkpt>
      <trkpt lat="43.03058" lon="-1.22763">
        <ele>946.92</ele>
        <time>2021-08-05T14:27:19Z</time>
      </trkpt>
      <trkpt lat="43.03086" lon="-1.22754">
        <ele>950.28</ele>
        <time>2021-08-05T14:27:22Z</time>
      </trkpt>
      <trkpt lat="43.03117" lon="-1.22743">
        <ele>953.68</ele>
        <time>2021-08-05T14:27:25Z</time>
      </trkpt>
      <trkpt lat="43.03127" lon="-1.2274">
        <ele>954.86</ele>
        <time>2021-08-05T14:27:26Z</time>
      </trkpt>
      <trkpt lat="43.03171" lon="-1.22738">
        <ele>959.71</ele>
        <time>2021-08-05T14:27:30Z</time>
      </trkpt>
      <trkpt lat="43.03202" lon="-1.22733">
        <ele>963.44</ele>
        <time>2021-08-05T14:27:33Z</time>
      </trkpt>
      <trkpt lat="43.0321" lon="-1.22731">
        <ele>964.65</ele>
        <time>2021-08-05T14:27:34Z</time>
      </trkpt>
      <trkpt lat="43.03234" lon="-1.2271">
        <ele>968.97</ele>
        <time>2021-08-05T14:27:38Z</time>
      </trkpt>
      <trkpt lat="43.03238" lon="-1.22702">
        <ele>969.71</ele>
        <time>2021-08-05T14:27:39Z</time>
      </trkpt>
      <trkpt lat="43.03267" lon="-1.22644">
        <ele>974.05</ele>
        <time>2021-08-05T14:27:45Z</time>
      </trkpt>
      <trkpt lat="43.03291" lon="-1.22612">
        <ele>977.69</ele>
        <time>2021-08-05T14:27:49Z</time>
      </trkpt>
      <trkpt lat="43.03307" lon="-1.22584">
        <ele>981.75</ele>
        <time>2021-08-05T14:27:53Z</time>
      </trkpt>
      <trkpt lat="43.03315" lon="-1.22571">
        <ele>983.78</ele>
        <time>2021-08-05T14:27:55Z</time>
      </trkpt>
      <trkpt lat="43.03341" lon="-1.22537">
        <ele>987.71</ele>
        <time>2021-08-05T14:28:00Z</time>
      </trkpt>
      <trkpt lat="43.0337" lon="-1.22498">
        <ele>991.04</ele>
        <time>2021-08-05T14:28:04Z</time>
      </trkpt>
      <trkpt lat="43.03393" lon="-1.22464">
        <ele>994.04</ele>
        <time>2021-08-05T14:28:07Z</time>
      </trkpt>
      <trkpt lat="43.03435" lon="-1.22429">
        <ele>998.56</ele>
        <time>2021-08-05T14:28:11Z</time>
      </trkpt>
      <trkpt lat="43.03474" lon="-1.22402">
        <ele>1002.08</ele>
        <time>2021-08-05T14:28:14Z</time>
      </trkpt>
      <trkpt lat="43.03516" lon="-1.22378">
        <ele>1005.78</ele>
        <time>2021-08-05T14:28:17Z</time>
      </trkpt>
      <trkpt lat="43.03564" lon="-1.22371">
        <ele>1010.93</ele>
        <time>2021-08-05T14:28:21Z</time>
      </trkpt>
      <trkpt lat="43.03579" lon="-1.22392">
        <ele>1013.68</ele>
        <time>2021-08-05T14:28:23Z</time>
      </trkpt>
      <trkpt lat="43.03588" lon="-1.22419">
        <ele>1016.21</ele>
        <time>2021-08-05T14:28:25Z</time>
      </trkpt>
      <trkpt lat="43.03605" lon="-1.22432">
        <ele>1020.52</ele>
        <time>2021-08-05T14:28:28Z</time>
      </trkpt>
      <trkpt lat="43.03615" lon="-1.22402">
        <ele>1023.39</ele>
        <time>2021-08-05T14:28:31Z</time>
      </trkpt>
      <trkpt lat="43.03646" lon="-1.22324">
        <ele>1029.21</ele>
        <time>2021-08-05T14:28:37Z</time>
      </trkpt>
      <trkpt lat="43.03687" lon="-1.22331">
        <ele>1033.15</ele>
        <time>2021-08-05T14:28:41Z</time>
      </trkpt>
      <trkpt lat="43.03744" lon="-1.22361">
        <ele>1038.64</ele>
        <time>2021-08-05T14:28:46Z</time>
      </trkpt>
      <trkpt lat="43.03774" lon="-1.22371">
        <ele>1042.16</ele>
        <time>2021-08-05T14:28:49Z</time>
      </trkpt>
      <trkpt lat="43.03783" lon="-1.22373">
        <ele>1043.36</ele>
        <time>2021-08-05T14:28:50Z</time>
      </trkpt>
      <trkpt lat="43.03808" lon="-1.22374">
        <ele>1048.21</ele>
        <time>2021-08-05T14:28:54Z</time>
      </trkpt>
      <trkpt lat="43.03821" lon="-1.22361">
        <ele>1051.87</ele>
        <time>2021-08-05T14:28:58Z</time>
      </trkpt>
      <trkpt lat="43.03827" lon="-1.22339">
        <ele>1053.5</ele>
        <time>2021-08-05T14:29:01Z</time>
      </trkpt>
      <trkpt lat="43.03856" lon="-1.22215">
        <ele>1054.18</ele>
        <time>2021-08-05T14:29:11Z</time>
      </trkpt>
      <trkpt lat="43.03881" lon="-1.22164">
        <ele>1052.74</ele>
        <time>2021-08-05T14:29:15Z</time>
      </trkpt>
      <trkpt lat="43.03865" lon="-1.22116">
        <ele>1050.5</ele>
        <time>2021-08-05T14:29:20Z</time>
      </trkpt>
      <trkpt lat="43.03786" lon="-1.22055">
        <ele>1047.02</ele>
        <time>2021-08-05T14:29:27Z</time>
      </trkpt>
      <trkpt lat="43.03726" lon="-1.22014">
        <ele>1043.41</ele>
        <time>2021-08-05T14:29:32Z</time>
      </trkpt>
      <trkpt lat="43.03677" lon="-1.21976">
        <ele>1040.01</ele>
        <time>2021-08-05T14:29:36Z</time>
      </trkpt>
      <trkpt lat="43.0363" lon="-1.21936">
        <ele>1036.41</ele>
        <time>2021-08-05T14:29:40Z</time>
      </trkpt>
      <trkpt lat="43.03605" lon="-1.21919">
        <ele>1033.71</ele>
        <time>2021-08-05T14:29:43Z</time>
      </trkpt>
      <trkpt lat="43.03612" lon="-1.219">
        <ele>1029.14</ele>
        <time>2021-08-05T14:29:48Z</time>
      </trkpt>
      <trkpt lat="43.03621" lon="-1.21902">
        <ele>1028.5</ele>
        <time>2021-08-05T14:29:49Z</time>
      </trkpt>
      <trkpt lat="43.03693" lon="-1.21915">
        <ele>1024.67</ele>
        <time>2021-08-05T14:29:54Z</time>
      </trkpt>
      <trkpt lat="43.03748" lon="-1.21922">
        <ele>1021.18</ele>
        <time>2021-08-05T14:29:58Z</time>
      </trkpt>
      <trkpt lat="43.03806" lon="-1.21932">
        <ele>1017.64</ele>
        <time>2021-08-05T14:30:02Z</time>
      </trkpt>
      <trkpt lat="43.03867" lon="-1.21933">
        <ele>1012.74</ele>
        <time>2021-08-05T14:30:06Z</time>
      </trkpt>
      <trkpt lat="43.03914" lon="-1.21926">
        <ele>1009.31</ele>
        <time>2021-08-05T14:30:09Z</time>
      </trkpt>
      <trkpt lat="43.03944" lon="-1.21917">
        <ele>1007.02</ele>
        <time>2021-08-05T14:30:11Z</time>
      </trkpt>
      <trkpt lat="43.04" lon="-1.21917">
        <ele>1002.47</ele>
        <time>2021-08-05T14:30:15Z</time>
      </trkpt>
      <trkpt lat="43.04015" lon="-1.21917">
        <ele>1001.31</ele>
        <time>2021-08-05T14:30:16Z</time>
      </trkpt>
      <trkpt lat="43.04063" lon="-1.21894">
        <ele>997.03</ele>
        <time>2021-08-05T14:30:20Z</time>
      </trkpt>
      <trkpt lat="43.04074" lon="-1.21883">
        <ele>996</ele>
        <time>2021-08-05T14:30:21Z</time>
      </trkpt>
      <trkpt lat="43.0412" lon="-1.21839">
        <ele>992.43</ele>
        <time>2021-08-05T14:30:25Z</time>
      </trkpt>
      <trkpt lat="43.0414" lon="-1.21827">
        <ele>991.16</ele>
        <time>2021-08-05T14:30:27Z</time>
      </trkpt>
      <trkpt lat="43.04159" lon="-1.21823">
        <ele>990.49</ele>
        <time>2021-08-05T14:30:29Z</time>
      </trkpt>
      <trkpt lat="43.04182" lon="-1.21822">
        <ele>990.35</ele>
        <time>2021-08-05T14:30:32Z</time>
      </trkpt>
      <trkpt lat="43.04206" lon="-1.21772">
        <ele>992.21</ele>
        <time>2021-08-05T14:30:39Z</time>
      </trkpt>
      <trkpt lat="43.04207" lon="-1.21763">
        <ele>992.71</ele>
        <time>2021-08-05T14:30:40Z</time>
      </trkpt>
      <trkpt lat="43.04225" lon="-1.21713">
        <ele>996.8</ele>
        <time>2021-08-05T14:30:46Z</time>
      </trkpt>
      <trkpt lat="43.04249" lon="-1.21667">
        <ele>999.94</ele>
        <time>2021-08-05T14:30:52Z</time>
      </trkpt>
      <trkpt lat="43.04288" lon="-1.21627">
        <ele>1001.02</ele>
        <time>2021-08-05T14:30:57Z</time>
      </trkpt>
      <trkpt lat="43.04412" lon="-1.21543">
        <ele>1000.24</ele>
        <time>2021-08-05T14:31:08Z</time>
      </trkpt>
      <trkpt lat="43.0455" lon="-1.21455">
        <ele>997.21</ele>
        <time>2021-08-05T14:31:19Z</time>
      </trkpt>
      <trkpt lat="43.04633" lon="-1.2141">
        <ele>995.66</ele>
        <time>2021-08-05T14:31:27Z</time>
      </trkpt>
      <trkpt lat="43.04756" lon="-1.21343">
        <ele>994.81</ele>
        <time>2021-08-05T14:31:39Z</time>
      </trkpt>
      <trkpt lat="43.04818" lon="-1.2131">
        <ele>994.97</ele>
        <time>2021-08-05T14:31:47Z</time>
      </trkpt>
      <trkpt lat="43.04844" lon="-1.21264">
        <ele>994.45</ele>
        <time>2021-08-05T14:31:53Z</time>
      </trkpt>
      <trkpt lat="43.04865" lon="-1.21243">
        <ele>994.23</ele>
        <time>2021-08-05T14:31:56Z</time>
      </trkpt>
      <trkpt lat="43.04938" lon="-1.21177">
        <ele>994.3</ele>
        <time>2021-08-05T14:32:07Z</time>
      </trkpt>
    </trkseg>
  </trk>
  <trk>
    <name><![CDATA[TOTAL 4x4 _26]]></name>
    <extensions>
      <line xmlns="http://www.topografix.com/GPX/gpx_style/0/2">
        <color>00FF00</color>
        <width>4</width>
      </line>
    </extensions>
    <trkseg>
      <trkpt lat="43.04979" lon="-1.21173">
        <ele>998.44</ele>
        <time>2021-08-05T14:54:11Z</time>
      </trkpt>
      <trkpt lat="43.05007" lon="-1.21176">
        <ele>997.02</ele>
        <time>2021-08-05T14:54:14Z</time>
      </trkpt>
      <trkpt lat="43.05092" lon="-1.21158">
        <ele>998.38</ele>
        <time>2021-08-05T14:54:25Z</time>
      </trkpt>
      <trkpt lat="43.0516" lon="-1.21187">
        <ele>1001.28</ele>
        <time>2021-08-05T14:54:35Z</time>
      </trkpt>
      <trkpt lat="43.05207" lon="-1.21209">
        <ele>1000.54</ele>
        <time>2021-08-05T14:54:44Z</time>
      </trkpt>
      <trkpt lat="43.05296" lon="-1.21251">
        <ele>998.09</ele>
        <time>2021-08-05T14:54:57Z</time>
      </trkpt>
      <trkpt lat="43.05327" lon="-1.21266">
        <ele>996.79</ele>
        <time>2021-08-05T14:55:01Z</time>
      </trkpt>
      <trkpt lat="43.05394" lon="-1.21338">
        <ele>993.18</ele>
        <time>2021-08-05T14:55:11Z</time>
      </trkpt>
      <trkpt lat="43.054" lon="-1.21345">
        <ele>992.79</ele>
        <time>2021-08-05T14:55:12Z</time>
      </trkpt>
      <trkpt lat="43.05414" lon="-1.21378">
        <ele>990.97</ele>
        <time>2021-08-05T14:55:16Z</time>
      </trkpt>
      <trkpt lat="43.05415" lon="-1.21436">
        <ele>987.67</ele>
        <time>2021-08-05T14:55:23Z</time>
      </trkpt>
      <trkpt lat="43.05421" lon="-1.21456">
        <ele>984.09</ele>
        <time>2021-08-05T14:55:31Z</time>
      </trkpt>
      <trkpt lat="43.05436" lon="-1.21446">
        <ele>983.09</ele>
        <time>2021-08-05T14:55:35Z</time>
      </trkpt>
      <trkpt lat="43.05495" lon="-1.21381">
        <ele>981.72</ele>
        <time>2021-08-05T14:55:42Z</time>
      </trkpt>
      <trkpt lat="43.05554" lon="-1.21381">
        <ele>979.35</ele>
        <time>2021-08-05T14:55:47Z</time>
      </trkpt>
      <trkpt lat="43.05604" lon="-1.21391">
        <ele>976.14</ele>
        <time>2021-08-05T14:55:51Z</time>
      </trkpt>
      <trkpt lat="43.05643" lon="-1.21399">
        <ele>972.38</ele>
        <time>2021-08-05T14:55:55Z</time>
      </trkpt>
      <trkpt lat="43.0566" lon="-1.21404">
        <ele>968.86</ele>
        <time>2021-08-05T14:55:58Z</time>
      </trkpt>
      <trkpt lat="43.05677" lon="-1.21409">
        <ele>965.81</ele>
        <time>2021-08-05T14:56:01Z</time>
      </trkpt>
      <trkpt lat="43.05704" lon="-1.21414">
        <ele>962.29</ele>
        <time>2021-08-05T14:56:05Z</time>
      </trkpt>
      <trkpt lat="43.05724" lon="-1.21417">
        <ele>958.72</ele>
        <time>2021-08-05T14:56:08Z</time>
      </trkpt>
      <trkpt lat="43.05773" lon="-1.21426">
        <ele>955.58</ele>
        <time>2021-08-05T14:56:15Z</time>
      </trkpt>
      <trkpt lat="43.05791" lon="-1.21432">
        <ele>954.02</ele>
        <time>2021-08-05T14:56:18Z</time>
      </trkpt>
      <trkpt lat="43.05817" lon="-1.21404">
        <ele>949.81</ele>
        <time>2021-08-05T14:56:25Z</time>
      </trkpt>
      <trkpt lat="43.05815" lon="-1.21387">
        <ele>948.78</ele>
        <time>2021-08-05T14:56:27Z</time>
      </trkpt>
      <trkpt lat="43.05813" lon="-1.21369">
        <ele>948.12</ele>
        <time>2021-08-05T14:56:29Z</time>
      </trkpt>
      <trkpt lat="43.05836" lon="-1.21321">
        <ele>945.34</ele>
        <time>2021-08-05T14:56:36Z</time>
      </trkpt>
      <trkpt lat="43.05855" lon="-1.21296">
        <ele>944</ele>
        <time>2021-08-05T14:56:39Z</time>
      </trkpt>
      <trkpt lat="43.0588" lon="-1.21254">
        <ele>940.59</ele>
        <time>2021-08-05T14:56:44Z</time>
      </trkpt>
      <trkpt lat="43.05884" lon="-1.212">
        <ele>937.51</ele>
        <time>2021-08-05T14:56:51Z</time>
      </trkpt>
      <trkpt lat="43.05863" lon="-1.21136">
        <ele>932.63</ele>
        <time>2021-08-05T14:56:58Z</time>
      </trkpt>
      <trkpt lat="43.05861" lon="-1.2108">
        <ele>929.38</ele>
        <time>2021-08-05T14:57:03Z</time>
      </trkpt>
      <trkpt lat="43.05863" lon="-1.21057">
        <ele>928.05</ele>
        <time>2021-08-05T14:57:05Z</time>
      </trkpt>
      <trkpt lat="43.05859" lon="-1.21013">
        <ele>925.31</ele>
        <time>2021-08-05T14:57:09Z</time>
      </trkpt>
      <trkpt lat="43.05874" lon="-1.2097">
        <ele>921.83</ele>
        <time>2021-08-05T14:57:14Z</time>
      </trkpt>
      <trkpt lat="43.05887" lon="-1.20954">
        <ele>920.53</ele>
        <time>2021-08-05T14:57:16Z</time>
      </trkpt>
      <trkpt lat="43.05925" lon="-1.20929">
        <ele>917.96</ele>
        <time>2021-08-05T14:57:20Z</time>
      </trkpt>
      <trkpt lat="43.05969" lon="-1.20906">
        <ele>914.53</ele>
        <time>2021-08-05T14:57:25Z</time>
      </trkpt>
      <trkpt lat="43.0599" lon="-1.20959">
        <ele>911.09</ele>
        <time>2021-08-05T14:57:30Z</time>
      </trkpt>
      <trkpt lat="43.06001" lon="-1.21034">
        <ele>908.09</ele>
        <time>2021-08-05T14:57:34Z</time>
      </trkpt>
      <trkpt lat="43.06008" lon="-1.211">
        <ele>906.04</ele>
        <time>2021-08-05T14:57:37Z</time>
      </trkpt>
      <trkpt lat="43.06037" lon="-1.21151">
        <ele>901.64</ele>
        <time>2021-08-05T14:57:41Z</time>
      </trkpt>
      <trkpt lat="43.06063" lon="-1.21158">
        <ele>898.99</ele>
        <time>2021-08-05T14:57:43Z</time>
      </trkpt>
      <trkpt lat="43.06109" lon="-1.21192">
        <ele>894.19</ele>
        <time>2021-08-05T14:57:47Z</time>
      </trkpt>
      <trkpt lat="43.06125" lon="-1.21232">
        <ele>890.38</ele>
        <time>2021-08-05T14:57:50Z</time>
      </trkpt>
      <trkpt lat="43.0612" lon="-1.21272">
        <ele>886.74</ele>
        <time>2021-08-05T14:57:53Z</time>
      </trkpt>
      <trkpt lat="43.06109" lon="-1.21312">
        <ele>883.11</ele>
        <time>2021-08-05T14:57:56Z</time>
      </trkpt>
      <trkpt lat="43.06102" lon="-1.21358">
        <ele>879.88</ele>
        <time>2021-08-05T14:57:59Z</time>
      </trkpt>
      <trkpt lat="43.06097" lon="-1.21373">
        <ele>879.03</ele>
        <time>2021-08-05T14:58:00Z</time>
      </trkpt>
      <trkpt lat="43.061" lon="-1.21466">
        <ele>873.69</ele>
        <time>2021-08-05T14:58:06Z</time>
      </trkpt>
      <trkpt lat="43.0613" lon="-1.21501">
        <ele>870</ele>
        <time>2021-08-05T14:58:09Z</time>
      </trkpt>
      <trkpt lat="43.06159" lon="-1.21552">
        <ele>865.35</ele>
        <time>2021-08-05T14:58:13Z</time>
      </trkpt>
      <trkpt lat="43.06195" lon="-1.21565">
        <ele>860.39</ele>
        <time>2021-08-05T14:58:17Z</time>
      </trkpt>
      <trkpt lat="43.06214" lon="-1.21551">
        <ele>858.07</ele>
        <time>2021-08-05T14:58:19Z</time>
      </trkpt>
      <trkpt lat="43.06276" lon="-1.2152">
        <ele>853.08</ele>
        <time>2021-08-05T14:58:24Z</time>
      </trkpt>
      <trkpt lat="43.06314" lon="-1.21499">
        <ele>849.91</ele>
        <time>2021-08-05T14:58:27Z</time>
      </trkpt>
      <trkpt lat="43.06338" lon="-1.2149">
        <ele>847.82</ele>
        <time>2021-08-05T14:58:29Z</time>
      </trkpt>
      <trkpt lat="43.06366" lon="-1.21495">
        <ele>843.2</ele>
        <time>2021-08-05T14:58:32Z</time>
      </trkpt>
      <trkpt lat="43.06379" lon="-1.21515">
        <ele>840.94</ele>
        <time>2021-08-05T14:58:34Z</time>
      </trkpt>
      <trkpt lat="43.06416" lon="-1.21594">
        <ele>836.38</ele>
        <time>2021-08-05T14:58:39Z</time>
      </trkpt>
      <trkpt lat="43.06452" lon="-1.21662">
        <ele>832.22</ele>
        <time>2021-08-05T14:58:43Z</time>
      </trkpt>
      <trkpt lat="43.06482" lon="-1.21717">
        <ele>828.77</ele>
        <time>2021-08-05T14:58:46Z</time>
      </trkpt>
      <trkpt lat="43.06509" lon="-1.2177">
        <ele>824.58</ele>
        <time>2021-08-05T14:58:49Z</time>
      </trkpt>
      <trkpt lat="43.06527" lon="-1.21807">
        <ele>821.45</ele>
        <time>2021-08-05T14:58:51Z</time>
      </trkpt>
      <trkpt lat="43.06554" lon="-1.21861">
        <ele>817.19</ele>
        <time>2021-08-05T14:58:54Z</time>
      </trkpt>
      <trkpt lat="43.06568" lon="-1.21898">
        <ele>814.05</ele>
        <time>2021-08-05T14:58:56Z</time>
      </trkpt>
      <trkpt lat="43.06582" lon="-1.21932">
        <ele>810.78</ele>
        <time>2021-08-05T14:58:58Z</time>
      </trkpt>
      <trkpt lat="43.06597" lon="-1.21962">
        <ele>807.71</ele>
        <time>2021-08-05T14:59:00Z</time>
      </trkpt>
      <trkpt lat="43.06623" lon="-1.22007">
        <ele>803.39</ele>
        <time>2021-08-05T14:59:03Z</time>
      </trkpt>
      <trkpt lat="43.0665" lon="-1.22056">
        <ele>799.11</ele>
        <time>2021-08-05T14:59:06Z</time>
      </trkpt>
      <trkpt lat="43.06677" lon="-1.22111">
        <ele>795.29</ele>
        <time>2021-08-05T14:59:09Z</time>
      </trkpt>
      <trkpt lat="43.06702" lon="-1.22163">
        <ele>791.04</ele>
        <time>2021-08-05T14:59:12Z</time>
      </trkpt>
      <trkpt lat="43.06712" lon="-1.22195">
        <ele>787.93</ele>
        <time>2021-08-05T14:59:14Z</time>
      </trkpt>
      <trkpt lat="43.06717" lon="-1.22218">
        <ele>784.86</ele>
        <time>2021-08-05T14:59:16Z</time>
      </trkpt>
      <trkpt lat="43.06718" lon="-1.22225">
        <ele>783.33</ele>
        <time>2021-08-05T14:59:17Z</time>
      </trkpt>
      <trkpt lat="43.06727" lon="-1.22221">
        <ele>778.17</ele>
        <time>2021-08-05T14:59:21Z</time>
      </trkpt>
      <trkpt lat="43.06725" lon="-1.22203">
        <ele>776.38</ele>
        <time>2021-08-05T14:59:23Z</time>
      </trkpt>
      <trkpt lat="43.06708" lon="-1.22099">
        <ele>772.69</ele>
        <time>2021-08-05T14:59:29Z</time>
      </trkpt>
      <trkpt lat="43.06698" lon="-1.22014">
        <ele>769.67</ele>
        <time>2021-08-05T14:59:33Z</time>
      </trkpt>
      <trkpt lat="43.06686" lon="-1.21942">
        <ele>765.54</ele>
        <time>2021-08-05T14:59:37Z</time>
      </trkpt>
      <trkpt lat="43.06678" lon="-1.21885">
        <ele>761.89</ele>
        <time>2021-08-05T14:59:40Z</time>
      </trkpt>
      <trkpt lat="43.06667" lon="-1.21833">
        <ele>757.76</ele>
        <time>2021-08-05T14:59:43Z</time>
      </trkpt>
      <trkpt lat="43.06658" lon="-1.21779">
        <ele>753.65</ele>
        <time>2021-08-05T14:59:46Z</time>
      </trkpt>
      <trkpt lat="43.06652" lon="-1.21724">
        <ele>749.67</ele>
        <time>2021-08-05T14:59:49Z</time>
      </trkpt>
      <trkpt lat="43.0665" lon="-1.21668">
        <ele>745.49</ele>
        <time>2021-08-05T14:59:52Z</time>
      </trkpt>
      <trkpt lat="43.06644" lon="-1.21612">
        <ele>741.23</ele>
        <time>2021-08-05T14:59:55Z</time>
      </trkpt>
      <trkpt lat="43.06638" lon="-1.21582">
        <ele>738.12</ele>
        <time>2021-08-05T14:59:57Z</time>
      </trkpt>
      <trkpt lat="43.06628" lon="-1.21537">
        <ele>733.68</ele>
        <time>2021-08-05T15:00:00Z</time>
      </trkpt>
      <trkpt lat="43.06622" lon="-1.21488">
        <ele>729.46</ele>
        <time>2021-08-05T15:00:03Z</time>
      </trkpt>
      <trkpt lat="43.06619" lon="-1.21458">
        <ele>726.66</ele>
        <time>2021-08-05T15:00:05Z</time>
      </trkpt>
      <trkpt lat="43.06625" lon="-1.21399">
        <ele>721.46</ele>
        <time>2021-08-05T15:00:09Z</time>
      </trkpt>
      <trkpt lat="43.0663" lon="-1.21369">
        <ele>717.53</ele>
        <time>2021-08-05T15:00:11Z</time>
      </trkpt>
      <trkpt lat="43.06637" lon="-1.21336">
        <ele>713.83</ele>
        <time>2021-08-05T15:00:14Z</time>
      </trkpt>
      <trkpt lat="43.06638" lon="-1.21323">
        <ele>711.29</ele>
        <time>2021-08-05T15:00:16Z</time>
      </trkpt>
      <trkpt lat="43.06639" lon="-1.21302">
        <ele>708.36</ele>
        <time>2021-08-05T15:00:19Z</time>
      </trkpt>
      <trkpt lat="43.06626" lon="-1.21255">
        <ele>704.91</ele>
        <time>2021-08-05T15:00:23Z</time>
      </trkpt>
      <trkpt lat="43.066" lon="-1.21177">
        <ele>701.2</ele>
        <time>2021-08-05T15:00:28Z</time>
      </trkpt>
      <trkpt lat="43.06593" lon="-1.21164">
        <ele>700.23</ele>
        <time>2021-08-05T15:00:29Z</time>
      </trkpt>
      <trkpt lat="43.06557" lon="-1.21126">
        <ele>696.04</ele>
        <time>2021-08-05T15:00:33Z</time>
      </trkpt>
      <trkpt lat="43.06536" lon="-1.21077">
        <ele>692.01</ele>
        <time>2021-08-05T15:00:37Z</time>
      </trkpt>
      <trkpt lat="43.06524" lon="-1.21034">
        <ele>688.74</ele>
        <time>2021-08-05T15:00:40Z</time>
      </trkpt>
      <trkpt lat="43.06501" lon="-1.20989">
        <ele>685.42</ele>
        <time>2021-08-05T15:00:43Z</time>
      </trkpt>
      <trkpt lat="43.06486" lon="-1.20964">
        <ele>683</ele>
        <time>2021-08-05T15:00:45Z</time>
      </trkpt>
      <trkpt lat="43.06463" lon="-1.20943">
        <ele>679.04</ele>
        <time>2021-08-05T15:00:48Z</time>
      </trkpt>
      <trkpt lat="43.06455" lon="-1.20894">
        <ele>674.55</ele>
        <time>2021-08-05T15:00:52Z</time>
      </trkpt>
      <trkpt lat="43.06454" lon="-1.20805">
        <ele>669.6</ele>
        <time>2021-08-05T15:00:57Z</time>
      </trkpt>
      <trkpt lat="43.06453" lon="-1.20786">
        <ele>668.57</ele>
        <time>2021-08-05T15:00:58Z</time>
      </trkpt>
      <trkpt lat="43.06441" lon="-1.20713">
        <ele>663.9</ele>
        <time>2021-08-05T15:01:02Z</time>
      </trkpt>
      <trkpt lat="43.06428" lon="-1.20657">
        <ele>660.25</ele>
        <time>2021-08-05T15:01:05Z</time>
      </trkpt>
      <trkpt lat="43.06414" lon="-1.20599">
        <ele>656.69</ele>
        <time>2021-08-05T15:01:08Z</time>
      </trkpt>
      <trkpt lat="43.064" lon="-1.20542">
        <ele>652.48</ele>
        <time>2021-08-05T15:01:11Z</time>
      </trkpt>
      <trkpt lat="43.0639" lon="-1.20488">
        <ele>648.23</ele>
        <time>2021-08-05T15:01:14Z</time>
      </trkpt>
      <trkpt lat="43.06383" lon="-1.20432">
        <ele>643.79</ele>
        <time>2021-08-05T15:01:17Z</time>
      </trkpt>
      <trkpt lat="43.06371" lon="-1.20377">
        <ele>639.31</ele>
        <time>2021-08-05T15:01:20Z</time>
      </trkpt>
      <trkpt lat="43.0636" lon="-1.20343">
        <ele>636.28</ele>
        <time>2021-08-05T15:01:22Z</time>
      </trkpt>
      <trkpt lat="43.06356" lon="-1.20325">
        <ele>634.86</ele>
        <time>2021-08-05T15:01:23Z</time>
      </trkpt>
      <trkpt lat="43.06349" lon="-1.20256">
        <ele>629.02</ele>
        <time>2021-08-05T15:01:27Z</time>
      </trkpt>
      <trkpt lat="43.06335" lon="-1.20216">
        <ele>624.69</ele>
        <time>2021-08-05T15:01:30Z</time>
      </trkpt>
      <trkpt lat="43.06317" lon="-1.20179">
        <ele>619.59</ele>
        <time>2021-08-05T15:01:34Z</time>
      </trkpt>
      <trkpt lat="43.06325" lon="-1.20165">
        <ele>615.99</ele>
        <time>2021-08-05T15:01:38Z</time>
      </trkpt>
      <trkpt lat="43.06336" lon="-1.20225">
        <ele>612.75</ele>
        <time>2021-08-05T15:01:43Z</time>
      </trkpt>
      <trkpt lat="43.06339" lon="-1.20238">
        <ele>612.2</ele>
        <time>2021-08-05T15:01:44Z</time>
      </trkpt>
      <trkpt lat="43.06357" lon="-1.20294">
        <ele>610.36</ele>
        <time>2021-08-05T15:01:48Z</time>
      </trkpt>
      <trkpt lat="43.06405" lon="-1.20378">
        <ele>605.58</ele>
        <time>2021-08-05T15:01:54Z</time>
      </trkpt>
      <trkpt lat="43.06428" lon="-1.2042">
        <ele>602.4</ele>
        <time>2021-08-05T15:01:57Z</time>
      </trkpt>
      <trkpt lat="43.0645" lon="-1.20465">
        <ele>598.87</ele>
        <time>2021-08-05T15:02:00Z</time>
      </trkpt>
      <trkpt lat="43.06471" lon="-1.20515">
        <ele>595.48</ele>
        <time>2021-08-05T15:02:03Z</time>
      </trkpt>
      <trkpt lat="43.06486" lon="-1.20566">
        <ele>592.06</ele>
        <time>2021-08-05T15:02:06Z</time>
      </trkpt>
      <trkpt lat="43.06491" lon="-1.20583">
        <ele>590.85</ele>
        <time>2021-08-05T15:02:07Z</time>
      </trkpt>
      <trkpt lat="43.06528" lon="-1.20644">
        <ele>586.23</ele>
        <time>2021-08-05T15:02:11Z</time>
      </trkpt>
      <trkpt lat="43.06558" lon="-1.20686">
        <ele>582.37</ele>
        <time>2021-08-05T15:02:14Z</time>
      </trkpt>
      <trkpt lat="43.06586" lon="-1.20728">
        <ele>578.29</ele>
        <time>2021-08-05T15:02:17Z</time>
      </trkpt>
      <trkpt lat="43.06611" lon="-1.20766">
        <ele>573.99</ele>
        <time>2021-08-05T15:02:20Z</time>
      </trkpt>
      <trkpt lat="43.0662" lon="-1.20775">
        <ele>572.57</ele>
        <time>2021-08-05T15:02:21Z</time>
      </trkpt>
      <trkpt lat="43.06659" lon="-1.20809">
        <ele>567.51</ele>
        <time>2021-08-05T15:02:25Z</time>
      </trkpt>
      <trkpt lat="43.06677" lon="-1.20829">
        <ele>564.97</ele>
        <time>2021-08-05T15:02:27Z</time>
      </trkpt>
      <trkpt lat="43.06709" lon="-1.20886">
        <ele>559.75</ele>
        <time>2021-08-05T15:02:31Z</time>
      </trkpt>
      <trkpt lat="43.06736" lon="-1.20926">
        <ele>556</ele>
        <time>2021-08-05T15:02:34Z</time>
      </trkpt>
      <trkpt lat="43.06766" lon="-1.20959">
        <ele>552.28</ele>
        <time>2021-08-05T15:02:37Z</time>
      </trkpt>
      <trkpt lat="43.06791" lon="-1.2098">
        <ele>548.53</ele>
        <time>2021-08-05T15:02:40Z</time>
      </trkpt>
      <trkpt lat="43.06798" lon="-1.20986">
        <ele>547.26</ele>
        <time>2021-08-05T15:02:41Z</time>
      </trkpt>
      <trkpt lat="43.06814" lon="-1.21031">
        <ele>542.88</ele>
        <time>2021-08-05T15:02:45Z</time>
      </trkpt>
      <trkpt lat="43.06822" lon="-1.21053">
        <ele>540.88</ele>
        <time>2021-08-05T15:02:47Z</time>
      </trkpt>
      <trkpt lat="43.06857" lon="-1.21075">
        <ele>536.44</ele>
        <time>2021-08-05T15:02:51Z</time>
      </trkpt>
      <trkpt lat="43.06893" lon="-1.21095">
        <ele>532.06</ele>
        <time>2021-08-05T15:02:55Z</time>
      </trkpt>
      <trkpt lat="43.06914" lon="-1.21143">
        <ele>526.6</ele>
        <time>2021-08-05T15:02:59Z</time>
      </trkpt>
      <trkpt lat="43.06925" lon="-1.21188">
        <ele>522.76</ele>
        <time>2021-08-05T15:03:02Z</time>
      </trkpt>
      <trkpt lat="43.06959" lon="-1.21259">
        <ele>516.07</ele>
        <time>2021-08-05T15:03:07Z</time>
      </trkpt>
      <trkpt lat="43.06972" lon="-1.21295">
        <ele>512.68</ele>
        <time>2021-08-05T15:03:10Z</time>
      </trkpt>
      <trkpt lat="43.06976" lon="-1.21304">
        <ele>511.74</ele>
        <time>2021-08-05T15:03:11Z</time>
      </trkpt>
      <trkpt lat="43.07004" lon="-1.21303">
        <ele>507.78</ele>
        <time>2021-08-05T15:03:17Z</time>
      </trkpt>
      <trkpt lat="43.06994" lon="-1.21258">
        <ele>506.18</ele>
        <time>2021-08-05T15:03:22Z</time>
      </trkpt>
      <trkpt lat="43.06988" lon="-1.21183">
        <ele>504.3</ele>
        <time>2021-08-05T15:03:29Z</time>
      </trkpt>
      <trkpt lat="43.07016" lon="-1.21112">
        <ele>500.37</ele>
        <time>2021-08-05T15:03:37Z</time>
      </trkpt>
      <trkpt lat="43.06999" lon="-1.21082">
        <ele>497.7</ele>
        <time>2021-08-05T15:03:41Z</time>
      </trkpt>
      <trkpt lat="43.06987" lon="-1.21065">
        <ele>496.6</ele>
        <time>2021-08-05T15:03:43Z</time>
      </trkpt>
      <trkpt lat="43.06965" lon="-1.21003">
        <ele>493.57</ele>
        <time>2021-08-05T15:03:48Z</time>
      </trkpt>
      <trkpt lat="43.06946" lon="-1.20968">
        <ele>491.61</ele>
        <time>2021-08-05T15:03:51Z</time>
      </trkpt>
      <trkpt lat="43.06939" lon="-1.20918">
        <ele>488.76</ele>
        <time>2021-08-05T15:03:55Z</time>
      </trkpt>
      <trkpt lat="43.06932" lon="-1.20849">
        <ele>485.59</ele>
        <time>2021-08-05T15:04:00Z</time>
      </trkpt>
      <trkpt lat="43.06926" lon="-1.20803">
        <ele>483.29</ele>
        <time>2021-08-05T15:04:03Z</time>
      </trkpt>
      <trkpt lat="43.06895" lon="-1.20727">
        <ele>478.41</ele>
        <time>2021-08-05T15:04:08Z</time>
      </trkpt>
      <trkpt lat="43.06878" lon="-1.20666">
        <ele>474.79</ele>
        <time>2021-08-05T15:04:12Z</time>
      </trkpt>
      <trkpt lat="43.06852" lon="-1.2059">
        <ele>469.66</ele>
        <time>2021-08-05T15:04:18Z</time>
      </trkpt>
      <trkpt lat="43.06844" lon="-1.20548">
        <ele>467.51</ele>
        <time>2021-08-05T15:04:21Z</time>
      </trkpt>
      <trkpt lat="43.06828" lon="-1.20466">
        <ele>463.18</ele>
        <time>2021-08-05T15:04:26Z</time>
      </trkpt>
      <trkpt lat="43.06825" lon="-1.20453">
        <ele>462.13</ele>
        <time>2021-08-05T15:04:27Z</time>
      </trkpt>
      <trkpt lat="43.06822" lon="-1.20399">
        <ele>457.83</ele>
        <time>2021-08-05T15:04:31Z</time>
      </trkpt>
      <trkpt lat="43.06822" lon="-1.20363">
        <ele>455.02</ele>
        <time>2021-08-05T15:04:34Z</time>
      </trkpt>
      <trkpt lat="43.06845" lon="-1.20339">
        <ele>451.77</ele>
        <time>2021-08-05T15:04:38Z</time>
      </trkpt>
      <trkpt lat="43.069" lon="-1.20317">
        <ele>448.2</ele>
        <time>2021-08-05T15:04:43Z</time>
      </trkpt>
      <trkpt lat="43.06919" lon="-1.20283">
        <ele>443.85</ele>
        <time>2021-08-05T15:04:48Z</time>
      </trkpt>
      <trkpt lat="43.06882" lon="-1.20271">
        <ele>440.47</ele>
        <time>2021-08-05T15:04:52Z</time>
      </trkpt>
      <trkpt lat="43.06857" lon="-1.20269">
        <ele>439.31</ele>
        <time>2021-08-05T15:04:54Z</time>
      </trkpt>
      <trkpt lat="43.06799" lon="-1.20211">
        <ele>436.56</ele>
        <time>2021-08-05T15:05:01Z</time>
      </trkpt>
      <trkpt lat="43.06799" lon="-1.20195">
        <ele>435.93</ele>
        <time>2021-08-05T15:05:02Z</time>
      </trkpt>
      <trkpt lat="43.068" lon="-1.2016">
        <ele>434.55</ele>
        <time>2021-08-05T15:05:04Z</time>
      </trkpt>
      <trkpt lat="43.06825" lon="-1.20075">
        <ele>430.09</ele>
        <time>2021-08-05T15:05:09Z</time>
      </trkpt>
      <trkpt lat="43.06836" lon="-1.20041">
        <ele>428.03</ele>
        <time>2021-08-05T15:05:11Z</time>
      </trkpt>
      <trkpt lat="43.0685" lon="-1.19985">
        <ele>423.68</ele>
        <time>2021-08-05T15:05:15Z</time>
      </trkpt>
      <trkpt lat="43.06851" lon="-1.19955">
        <ele>419.64</ele>
        <time>2021-08-05T15:05:18Z</time>
      </trkpt>
      <trkpt lat="43.06836" lon="-1.19935">
        <ele>415.66</ele>
        <time>2021-08-05T15:05:21Z</time>
      </trkpt>
      <trkpt lat="43.06836" lon="-1.19904">
        <ele>412.63</ele>
        <time>2021-08-05T15:05:24Z</time>
      </trkpt>
      <trkpt lat="43.0684" lon="-1.19892">
        <ele>411.7</ele>
        <time>2021-08-05T15:05:25Z</time>
      </trkpt>
      <trkpt lat="43.06851" lon="-1.19864">
        <ele>410.09</ele>
        <time>2021-08-05T15:05:27Z</time>
      </trkpt>
      <trkpt lat="43.0685" lon="-1.19793">
        <ele>405.63</ele>
        <time>2021-08-05T15:05:32Z</time>
      </trkpt>
      <trkpt lat="43.06832" lon="-1.19779">
        <ele>403.57</ele>
        <time>2021-08-05T15:05:34Z</time>
      </trkpt>
      <trkpt lat="43.0682" lon="-1.19735">
        <ele>398.11</ele>
        <time>2021-08-05T15:05:39Z</time>
      </trkpt>
      <trkpt lat="43.06825" lon="-1.19721">
        <ele>397.18</ele>
        <time>2021-08-05T15:05:40Z</time>
      </trkpt>
      <trkpt lat="43.06843" lon="-1.19649">
        <ele>393.57</ele>
        <time>2021-08-05T15:05:44Z</time>
      </trkpt>
      <trkpt lat="43.06844" lon="-1.19612">
        <ele>391.68</ele>
        <time>2021-08-05T15:05:46Z</time>
      </trkpt>
      <trkpt lat="43.06845" lon="-1.1957">
        <ele>387.99</ele>
        <time>2021-08-05T15:05:49Z</time>
      </trkpt>
      <trkpt lat="43.06847" lon="-1.19558">
        <ele>386.66</ele>
        <time>2021-08-05T15:05:50Z</time>
      </trkpt>
      <trkpt lat="43.06853" lon="-1.19548">
        <ele>385.32</ele>
        <time>2021-08-05T15:05:51Z</time>
      </trkpt>
      <trkpt lat="43.06859" lon="-1.19536">
        <ele>384.06</ele>
        <time>2021-08-05T15:05:52Z</time>
      </trkpt>
      <trkpt lat="43.06891" lon="-1.1945">
        <ele>378.49</ele>
        <time>2021-08-05T15:05:58Z</time>
      </trkpt>
      <trkpt lat="43.06913" lon="-1.1939">
        <ele>375.3</ele>
        <time>2021-08-05T15:06:03Z</time>
      </trkpt>
      <trkpt lat="43.06916" lon="-1.19379">
        <ele>374.58</ele>
        <time>2021-08-05T15:06:04Z</time>
      </trkpt>
      <trkpt lat="43.0696" lon="-1.19337">
        <ele>371.87</ele>
        <time>2021-08-05T15:06:10Z</time>
      </trkpt>
      <trkpt lat="43.07024" lon="-1.19334">
        <ele>370.49</ele>
        <time>2021-08-05T15:06:16Z</time>
      </trkpt>
      <trkpt lat="43.0704" lon="-1.19355">
        <ele>369.82</ele>
        <time>2021-08-05T15:06:18Z</time>
      </trkpt>
      <trkpt lat="43.071" lon="-1.19385">
        <ele>368.31</ele>
        <time>2021-08-05T15:06:25Z</time>
      </trkpt>
      <trkpt lat="43.07135" lon="-1.19323">
        <ele>365.54</ele>
        <time>2021-08-05T15:06:31Z</time>
      </trkpt>
      <trkpt lat="43.07154" lon="-1.19256">
        <ele>362.89</ele>
        <time>2021-08-05T15:06:37Z</time>
      </trkpt>
      <trkpt lat="43.07189" lon="-1.19235">
        <ele>361.6</ele>
        <time>2021-08-05T15:06:41Z</time>
      </trkpt>
      <trkpt lat="43.07233" lon="-1.19215">
        <ele>361.15</ele>
        <time>2021-08-05T15:06:45Z</time>
      </trkpt>
      <trkpt lat="43.07299" lon="-1.19224">
        <ele>361.66</ele>
        <time>2021-08-05T15:06:52Z</time>
      </trkpt>
      <trkpt lat="43.07322" lon="-1.1918">
        <ele>362.84</ele>
        <time>2021-08-05T15:06:57Z</time>
      </trkpt>
      <trkpt lat="43.07303" lon="-1.19159">
        <ele>362.67</ele>
        <time>2021-08-05T15:06:59Z</time>
      </trkpt>
      <trkpt lat="43.07268" lon="-1.19127">
        <ele>361.19</ele>
        <time>2021-08-05T15:07:02Z</time>
      </trkpt>
      <trkpt lat="43.07245" lon="-1.19085">
        <ele>357.96</ele>
        <time>2021-08-05T15:07:05Z</time>
      </trkpt>
      <trkpt lat="43.07262" lon="-1.19037">
        <ele>352.26</ele>
        <time>2021-08-05T15:07:09Z</time>
      </trkpt>
      <trkpt lat="43.07277" lon="-1.18984">
        <ele>348.87</ele>
        <time>2021-08-05T15:07:12Z</time>
      </trkpt>
      <trkpt lat="43.07298" lon="-1.18905">
        <ele>346.82</ele>
        <time>2021-08-05T15:07:16Z</time>
      </trkpt>
      <trkpt lat="43.07324" lon="-1.18849">
        <ele>346.37</ele>
        <time>2021-08-05T15:07:19Z</time>
      </trkpt>
      <trkpt lat="43.07388" lon="-1.18808">
        <ele>345.91</ele>
        <time>2021-08-05T15:07:24Z</time>
      </trkpt>
      <trkpt lat="43.07413" lon="-1.18823">
        <ele>345</ele>
        <time>2021-08-05T15:07:29Z</time>
      </trkpt>
      <trkpt lat="43.07427" lon="-1.18861">
        <ele>342.87</ele>
        <time>2021-08-05T15:07:34Z</time>
      </trkpt>
      <trkpt lat="43.07432" lon="-1.18888">
        <ele>342.4</ele>
        <time>2021-08-05T15:07:36Z</time>
      </trkpt>
      <trkpt lat="43.07489" lon="-1.18928">
        <ele>341.96</ele>
        <time>2021-08-05T15:07:42Z</time>
      </trkpt>
      <trkpt lat="43.07503" lon="-1.18926">
        <ele>342.09</ele>
        <time>2021-08-05T15:07:43Z</time>
      </trkpt>
      <trkpt lat="43.07598" lon="-1.18925">
        <ele>345.05</ele>
        <time>2021-08-05T15:07:50Z</time>
      </trkpt>
      <trkpt lat="43.07676" lon="-1.18976">
        <ele>348.46</ele>
        <time>2021-08-05T15:07:57Z</time>
      </trkpt>
      <trkpt lat="43.07768" lon="-1.19001">
        <ele>349.83</ele>
        <time>2021-08-05T15:08:06Z</time>
      </trkpt>
      <trkpt lat="43.07839" lon="-1.19037">
        <ele>346.61</ele>
        <time>2021-08-05T15:08:14Z</time>
      </trkpt>
      <trkpt lat="43.07885" lon="-1.19074">
        <ele>343.19</ele>
        <time>2021-08-05T15:08:20Z</time>
      </trkpt>
      <trkpt lat="43.07912" lon="-1.19095">
        <ele>339.85</ele>
        <time>2021-08-05T15:08:24Z</time>
      </trkpt>
      <trkpt lat="43.07923" lon="-1.19103">
        <ele>337.66</ele>
        <time>2021-08-05T15:08:26Z</time>
      </trkpt>
      <trkpt lat="43.07962" lon="-1.19102">
        <ele>331.85</ele>
        <time>2021-08-05T15:08:31Z</time>
      </trkpt>
      <trkpt lat="43.07976" lon="-1.19101">
        <ele>329.94</ele>
        <time>2021-08-05T15:08:33Z</time>
      </trkpt>
      <trkpt lat="43.07991" lon="-1.191">
        <ele>328.3</ele>
        <time>2021-08-05T15:08:35Z</time>
      </trkpt>
      <trkpt lat="43.08022" lon="-1.19085">
        <ele>326.43</ele>
        <time>2021-08-05T15:08:39Z</time>
      </trkpt>
      <trkpt lat="43.08115" lon="-1.19064">
        <ele>323.23</ele>
        <time>2021-08-05T15:08:48Z</time>
      </trkpt>
      <trkpt lat="43.08188" lon="-1.19107">
        <ele>321.46</ele>
        <time>2021-08-05T15:08:54Z</time>
      </trkpt>
      <trkpt lat="43.08307" lon="-1.19191">
        <ele>321.15</ele>
        <time>2021-08-05T15:09:02Z</time>
      </trkpt>
      <trkpt lat="43.08365" lon="-1.19208">
        <ele>322.36</ele>
        <time>2021-08-05T15:09:06Z</time>
      </trkpt>
      <trkpt lat="43.08447" lon="-1.19216">
        <ele>325.15</ele>
        <time>2021-08-05T15:09:11Z</time>
      </trkpt>
      <trkpt lat="43.08476" lon="-1.19229">
        <ele>325.93</ele>
        <time>2021-08-05T15:09:13Z</time>
      </trkpt>
      <trkpt lat="43.085" lon="-1.19238">
        <ele>326.11</ele>
        <time>2021-08-05T15:09:15Z</time>
      </trkpt>
      <trkpt lat="43.08584" lon="-1.19315">
        <ele>324.24</ele>
        <time>2021-08-05T15:09:22Z</time>
      </trkpt>
      <trkpt lat="43.08636" lon="-1.19368">
        <ele>321.13</ele>
        <time>2021-08-05T15:09:26Z</time>
      </trkpt>
      <trkpt lat="43.08687" lon="-1.1941">
        <ele>317.43</ele>
        <time>2021-08-05T15:09:30Z</time>
      </trkpt>
      <trkpt lat="43.0875" lon="-1.19452">
        <ele>315.15</ele>
        <time>2021-08-05T15:09:36Z</time>
      </trkpt>
      <trkpt lat="43.08828" lon="-1.1945">
        <ele>317.71</ele>
        <time>2021-08-05T15:09:42Z</time>
      </trkpt>
      <trkpt lat="43.08858" lon="-1.19441">
        <ele>319.23</ele>
        <time>2021-08-05T15:09:44Z</time>
      </trkpt>
      <trkpt lat="43.08936" lon="-1.1944">
        <ele>323.06</ele>
        <time>2021-08-05T15:09:49Z</time>
      </trkpt>
      <trkpt lat="43.08977" lon="-1.19447">
        <ele>324.59</ele>
        <time>2021-08-05T15:09:52Z</time>
      </trkpt>
      <trkpt lat="43.09025" lon="-1.1948">
        <ele>324.88</ele>
        <time>2021-08-05T15:09:57Z</time>
      </trkpt>
      <trkpt lat="43.09074" lon="-1.19503">
        <ele>323.42</ele>
        <time>2021-08-05T15:10:01Z</time>
      </trkpt>
      <trkpt lat="43.09128" lon="-1.19535">
        <ele>319.7</ele>
        <time>2021-08-05T15:10:05Z</time>
      </trkpt>
      <trkpt lat="43.0914" lon="-1.19545">
        <ele>318.72</ele>
        <time>2021-08-05T15:10:06Z</time>
      </trkpt>
      <trkpt lat="43.09161" lon="-1.19566">
        <ele>316.53</ele>
        <time>2021-08-05T15:10:08Z</time>
      </trkpt>
      <trkpt lat="43.09195" lon="-1.19585">
        <ele>313.28</ele>
        <time>2021-08-05T15:10:11Z</time>
      </trkpt>
      <trkpt lat="43.0925" lon="-1.19587">
        <ele>309.23</ele>
        <time>2021-08-05T15:10:15Z</time>
      </trkpt>
      <trkpt lat="43.09305" lon="-1.19591">
        <ele>305.36</ele>
        <time>2021-08-05T15:10:19Z</time>
      </trkpt>
      <trkpt lat="43.09359" lon="-1.19608">
        <ele>301.72</ele>
        <time>2021-08-05T15:10:23Z</time>
      </trkpt>
      <trkpt lat="43.09382" lon="-1.19612">
        <ele>299.86</ele>
        <time>2021-08-05T15:10:25Z</time>
      </trkpt>
      <trkpt lat="43.09437" lon="-1.19638">
        <ele>295.92</ele>
        <time>2021-08-05T15:10:30Z</time>
      </trkpt>
      <trkpt lat="43.09449" lon="-1.19645">
        <ele>295.3</ele>
        <time>2021-08-05T15:10:31Z</time>
      </trkpt>
      <trkpt lat="43.09491" lon="-1.19699">
        <ele>293.73</ele>
        <time>2021-08-05T15:10:35Z</time>
      </trkpt>
      <trkpt lat="43.09579" lon="-1.19774">
        <ele>293.19</ele>
        <time>2021-08-05T15:10:43Z</time>
      </trkpt>
      <trkpt lat="43.09734" lon="-1.19835">
        <ele>292.01</ele>
        <time>2021-08-05T15:10:54Z</time>
      </trkpt>
      <trkpt lat="43.09786" lon="-1.1985">
        <ele>288.64</ele>
        <time>2021-08-05T15:11:01Z</time>
      </trkpt>
      <trkpt lat="43.09861" lon="-1.19849">
        <ele>285.91</ele>
        <time>2021-08-05T15:11:08Z</time>
      </trkpt>
      <trkpt lat="43.09899" lon="-1.19818">
        <ele>283.83</ele>
        <time>2021-08-05T15:11:17Z</time>
      </trkpt>
      <trkpt lat="43.09976" lon="-1.19769">
        <ele>282.61</ele>
        <time>2021-08-05T15:11:29Z</time>
      </trkpt>
      <trkpt lat="43.10065" lon="-1.19723">
        <ele>282.57</ele>
        <time>2021-08-05T15:11:38Z</time>
      </trkpt>
      <trkpt lat="43.10145" lon="-1.19664">
        <ele>281.15</ele>
        <time>2021-08-05T15:11:48Z</time>
      </trkpt>
      <trkpt lat="43.1018" lon="-1.19612">
        <ele>280.96</ele>
        <time>2021-08-05T15:11:54Z</time>
      </trkpt>
      <trkpt lat="43.10188" lon="-1.19604">
        <ele>281.11</ele>
        <time>2021-08-05T15:11:55Z</time>
      </trkpt>
      <trkpt lat="43.10256" lon="-1.19558">
        <ele>283.29</ele>
        <time>2021-08-05T15:12:03Z</time>
      </trkpt>
      <trkpt lat="43.103" lon="-1.1956">
        <ele>283.54</ele>
        <time>2021-08-05T15:12:08Z</time>
      </trkpt>
      <trkpt lat="43.10359" lon="-1.19595">
        <ele>281.32</ele>
        <time>2021-08-05T15:12:15Z</time>
      </trkpt>
      <trkpt lat="43.10388" lon="-1.19595">
        <ele>278.99</ele>
        <time>2021-08-05T15:12:20Z</time>
      </trkpt>
      <trkpt lat="43.10434" lon="-1.19574">
        <ele>278.31</ele>
        <time>2021-08-05T15:12:32Z</time>
      </trkpt>
      <trkpt lat="43.10471" lon="-1.19581">
        <ele>278.37</ele>
        <time>2021-08-05T15:12:38Z</time>
      </trkpt>
      <trkpt lat="43.10487" lon="-1.19591">
        <ele>278.29</ele>
        <time>2021-08-05T15:12:40Z</time>
      </trkpt>
      <trkpt lat="43.10547" lon="-1.1961">
        <ele>278.57</ele>
        <time>2021-08-05T15:12:48Z</time>
      </trkpt>
      <trkpt lat="43.10581" lon="-1.19632">
        <ele>279.95</ele>
        <time>2021-08-05T15:12:54Z</time>
      </trkpt>
      <trkpt lat="43.10595" lon="-1.19646">
        <ele>280.8</ele>
        <time>2021-08-05T15:12:57Z</time>
      </trkpt>
      <trkpt lat="43.10631" lon="-1.19682">
        <ele>284.2</ele>
        <time>2021-08-05T15:13:05Z</time>
      </trkpt>
      <trkpt lat="43.10648" lon="-1.1971">
        <ele>285.77</ele>
        <time>2021-08-05T15:13:08Z</time>
      </trkpt>
      <trkpt lat="43.10708" lon="-1.19797">
        <ele>289.45</ele>
        <time>2021-08-05T15:13:16Z</time>
      </trkpt>
      <trkpt lat="43.10799" lon="-1.19921">
        <ele>291.22</ele>
        <time>2021-08-05T15:13:27Z</time>
      </trkpt>
      <trkpt lat="43.10855" lon="-1.20008">
        <ele>291.79</ele>
        <time>2021-08-05T15:13:34Z</time>
      </trkpt>
      <trkpt lat="43.10894" lon="-1.20047">
        <ele>291.44</ele>
        <time>2021-08-05T15:13:38Z</time>
      </trkpt>
      <trkpt lat="43.10934" lon="-1.20115">
        <ele>289.56</ele>
        <time>2021-08-05T15:13:43Z</time>
      </trkpt>
      <trkpt lat="43.10963" lon="-1.20173">
        <ele>288.11</ele>
        <time>2021-08-05T15:13:48Z</time>
      </trkpt>
      <trkpt lat="43.11051" lon="-1.20266">
        <ele>286.24</ele>
        <time>2021-08-05T15:13:58Z</time>
      </trkpt>
      <trkpt lat="43.11078" lon="-1.20287">
        <ele>285.55</ele>
        <time>2021-08-05T15:14:00Z</time>
      </trkpt>
      <trkpt lat="43.11198" lon="-1.20415">
        <ele>282.46</ele>
        <time>2021-08-05T15:14:09Z</time>
      </trkpt>
      <trkpt lat="43.11211" lon="-1.20428">
        <ele>282.07</ele>
        <time>2021-08-05T15:14:10Z</time>
      </trkpt>
      <trkpt lat="43.11257" lon="-1.20499">
        <ele>279.74</ele>
        <time>2021-08-05T15:14:15Z</time>
      </trkpt>
      <trkpt lat="43.11282" lon="-1.20586">
        <ele>277.37</ele>
        <time>2021-08-05T15:14:21Z</time>
      </trkpt>
      <trkpt lat="43.1129" lon="-1.20642">
        <ele>276.95</ele>
        <time>2021-08-05T15:14:25Z</time>
      </trkpt>
      <trkpt lat="43.11347" lon="-1.20726">
        <ele>276.54</ele>
        <time>2021-08-05T15:14:32Z</time>
      </trkpt>
      <trkpt lat="43.11367" lon="-1.20741">
        <ele>276.01</ele>
        <time>2021-08-05T15:14:34Z</time>
      </trkpt>
      <trkpt lat="43.11423" lon="-1.20823">
        <ele>274.34</ele>
        <time>2021-08-05T15:14:41Z</time>
      </trkpt>
      <trkpt lat="43.11441" lon="-1.2092">
        <ele>275.43</ele>
        <time>2021-08-05T15:14:46Z</time>
      </trkpt>
      <trkpt lat="43.11434" lon="-1.2105">
        <ele>279.35</ele>
        <time>2021-08-05T15:14:52Z</time>
      </trkpt>
      <trkpt lat="43.11432" lon="-1.21069">
        <ele>279.73</ele>
        <time>2021-08-05T15:14:53Z</time>
      </trkpt>
      <trkpt lat="43.11441" lon="-1.21157">
        <ele>280.05</ele>
        <time>2021-08-05T15:14:58Z</time>
      </trkpt>
      <trkpt lat="43.11474" lon="-1.21222">
        <ele>278.28</ele>
        <time>2021-08-05T15:15:02Z</time>
      </trkpt>
      <trkpt lat="43.11513" lon="-1.21272">
        <ele>275.91</ele>
        <time>2021-08-05T15:15:05Z</time>
      </trkpt>
      <trkpt lat="43.11557" lon="-1.2131">
        <ele>274.05</ele>
        <time>2021-08-05T15:15:08Z</time>
      </trkpt>
      <trkpt lat="43.11634" lon="-1.21338">
        <ele>271.7</ele>
        <time>2021-08-05T15:15:13Z</time>
      </trkpt>
      <trkpt lat="43.11664" lon="-1.21348">
        <ele>271.42</ele>
        <time>2021-08-05T15:15:15Z</time>
      </trkpt>
      <trkpt lat="43.11726" lon="-1.21433">
        <ele>268.66</ele>
        <time>2021-08-05T15:15:21Z</time>
      </trkpt>
      <trkpt lat="43.11782" lon="-1.21518">
        <ele>266.29</ele>
        <time>2021-08-05T15:15:26Z</time>
      </trkpt>
      <trkpt lat="43.11834" lon="-1.21564">
        <ele>265.59</ele>
        <time>2021-08-05T15:15:30Z</time>
      </trkpt>
      <trkpt lat="43.11889" lon="-1.21585">
        <ele>265.99</ele>
        <time>2021-08-05T15:15:34Z</time>
      </trkpt>
      <trkpt lat="43.11954" lon="-1.2159">
        <ele>266.5</ele>
        <time>2021-08-05T15:15:38Z</time>
      </trkpt>
      <trkpt lat="43.12119" lon="-1.21555">
        <ele>267.42</ele>
        <time>2021-08-05T15:15:47Z</time>
      </trkpt>
      <trkpt lat="43.12243" lon="-1.21525">
        <ele>266.49</ele>
        <time>2021-08-05T15:15:54Z</time>
      </trkpt>
      <trkpt lat="43.1226" lon="-1.21522">
        <ele>266.07</ele>
        <time>2021-08-05T15:15:55Z</time>
      </trkpt>
      <trkpt lat="43.12322" lon="-1.2149">
        <ele>263.93</ele>
        <time>2021-08-05T15:15:59Z</time>
      </trkpt>
      <trkpt lat="43.12406" lon="-1.21412">
        <ele>260.64</ele>
        <time>2021-08-05T15:16:05Z</time>
      </trkpt>
      <trkpt lat="43.12451" lon="-1.21385">
        <ele>259.66</ele>
        <time>2021-08-05T15:16:08Z</time>
      </trkpt>
      <trkpt lat="43.12531" lon="-1.21339">
        <ele>258.33</ele>
        <time>2021-08-05T15:16:14Z</time>
      </trkpt>
      <trkpt lat="43.12631" lon="-1.21336">
        <ele>257.03</ele>
        <time>2021-08-05T15:16:20Z</time>
      </trkpt>
      <trkpt lat="43.12708" lon="-1.21389">
        <ele>256</ele>
        <time>2021-08-05T15:16:25Z</time>
      </trkpt>
      <trkpt lat="43.12781" lon="-1.21422">
        <ele>255.89</ele>
        <time>2021-08-05T15:16:29Z</time>
      </trkpt>
      <trkpt lat="43.12818" lon="-1.21428">
        <ele>256.06</ele>
        <time>2021-08-05T15:16:31Z</time>
      </trkpt>
      <trkpt lat="43.12862" lon="-1.21447">
        <ele>256.34</ele>
        <time>2021-08-05T15:16:34Z</time>
      </trkpt>
      <trkpt lat="43.12901" lon="-1.21463">
        <ele>256.76</ele>
        <time>2021-08-05T15:16:37Z</time>
      </trkpt>
      <trkpt lat="43.12984" lon="-1.21537">
        <ele>258.09</ele>
        <time>2021-08-05T15:16:43Z</time>
      </trkpt>
      <trkpt lat="43.1314" lon="-1.21644">
        <ele>260.26</ele>
        <time>2021-08-05T15:16:52Z</time>
      </trkpt>
      <trkpt lat="43.13288" lon="-1.21734">
        <ele>259.31</ele>
        <time>2021-08-05T15:17:00Z</time>
      </trkpt>
      <trkpt lat="43.13353" lon="-1.21823">
        <ele>255.35</ele>
        <time>2021-08-05T15:17:06Z</time>
      </trkpt>
      <trkpt lat="43.13386" lon="-1.21866">
        <ele>251.58</ele>
        <time>2021-08-05T15:17:10Z</time>
      </trkpt>
      <trkpt lat="43.13397" lon="-1.21879">
        <ele>249.12</ele>
        <time>2021-08-05T15:17:12Z</time>
      </trkpt>
      <trkpt lat="43.13429" lon="-1.219">
        <ele>245.38</ele>
        <time>2021-08-05T15:17:16Z</time>
      </trkpt>
      <trkpt lat="43.1347" lon="-1.21951">
        <ele>243.18</ele>
        <time>2021-08-05T15:17:22Z</time>
      </trkpt>
      <trkpt lat="43.13514" lon="-1.22054">
        <ele>241.97</ele>
        <time>2021-08-05T15:17:32Z</time>
      </trkpt>
      <trkpt lat="43.13528" lon="-1.22077">
        <ele>241.01</ele>
        <time>2021-08-05T15:17:35Z</time>
      </trkpt>
      <trkpt lat="43.13552" lon="-1.2213">
        <ele>238.52</ele>
        <time>2021-08-05T15:17:45Z</time>
      </trkpt>
      <trkpt lat="43.13554" lon="-1.22135">
        <ele>237.92</ele>
        <time>2021-08-05T15:17:48Z</time>
      </trkpt>
      <trkpt lat="43.13545" lon="-1.22133">
        <ele>236.7</ele>
        <time>2021-08-05T15:17:57Z</time>
      </trkpt>
      <trkpt lat="43.13546" lon="-1.22128">
        <ele>236.38</ele>
        <time>2021-08-05T15:18:03Z</time>
      </trkpt>
      <trkpt lat="43.13542" lon="-1.22109">
        <ele>236.48</ele>
        <time>2021-08-05T15:18:07Z</time>
      </trkpt>
      <trkpt lat="43.13535" lon="-1.22095">
        <ele>236.56</ele>
        <time>2021-08-05T15:18:09Z</time>
      </trkpt>
      <trkpt lat="43.13517" lon="-1.22063">
        <ele>236.94</ele>
        <time>2021-08-05T15:18:13Z</time>
      </trkpt>
      <trkpt lat="43.13504" lon="-1.22042">
        <ele>237.49</ele>
        <time>2021-08-05T15:18:21Z</time>
      </trkpt>
      <trkpt lat="43.13504" lon="-1.22039">
        <ele>237.1</ele>
        <time>2021-08-05T15:18:31Z</time>
      </trkpt>
      <trkpt lat="43.13524" lon="-1.22042">
        <ele>237.06</ele>
        <time>2021-08-05T15:18:36Z</time>
      </trkpt>
      <trkpt lat="43.13547" lon="-1.22059">
        <ele>237.61</ele>
        <time>2021-08-05T15:18:39Z</time>
      </trkpt>
      <trkpt lat="43.13586" lon="-1.22073">
        <ele>238.51</ele>
        <time>2021-08-05T15:18:43Z</time>
      </trkpt>
      <trkpt lat="43.13682" lon="-1.22081">
        <ele>239.39</ele>
        <time>2021-08-05T15:18:52Z</time>
      </trkpt>
      <trkpt lat="43.13722" lon="-1.22072">
        <ele>238.83</ele>
        <time>2021-08-05T15:18:56Z</time>
      </trkpt>
      <trkpt lat="43.13775" lon="-1.22046">
        <ele>237.51</ele>
        <time>2021-08-05T15:19:03Z</time>
      </trkpt>
      <trkpt lat="43.13781" lon="-1.22045">
        <ele>237.29</ele>
        <time>2021-08-05T15:19:04Z</time>
      </trkpt>
      <trkpt lat="43.13788" lon="-1.22047">
        <ele>237.14</ele>
        <time>2021-08-05T15:19:05Z</time>
      </trkpt>
      <trkpt lat="43.13798" lon="-1.22057">
        <ele>237</ele>
        <time>2021-08-05T15:19:07Z</time>
      </trkpt>
      <trkpt lat="43.13804" lon="-1.22064">
        <ele>237.01</ele>
        <time>2021-08-05T15:19:10Z</time>
      </trkpt>
      <trkpt lat="43.13822" lon="-1.22066">
        <ele>237.91</ele>
        <time>2021-08-05T15:19:14Z</time>
      </trkpt>
      <trkpt lat="43.13855" lon="-1.22061">
        <ele>239.59</ele>
        <time>2021-08-05T15:19:18Z</time>
      </trkpt>
      <trkpt lat="43.13907" lon="-1.22032">
        <ele>244.49</ele>
        <time>2021-08-05T15:19:23Z</time>
      </trkpt>
      <trkpt lat="43.13941" lon="-1.22016">
        <ele>248.51</ele>
        <time>2021-08-05T15:19:26Z</time>
      </trkpt>
      <trkpt lat="43.13996" lon="-1.22034">
        <ele>254.13</ele>
        <time>2021-08-05T15:19:30Z</time>
      </trkpt>
      <trkpt lat="43.14028" lon="-1.22071">
        <ele>258.52</ele>
        <time>2021-08-05T15:19:33Z</time>
      </trkpt>
      <trkpt lat="43.14051" lon="-1.22091">
        <ele>261.66</ele>
        <time>2021-08-05T15:19:35Z</time>
      </trkpt>
      <trkpt lat="43.14077" lon="-1.22096">
        <ele>264.78</ele>
        <time>2021-08-05T15:19:37Z</time>
      </trkpt>
      <trkpt lat="43.14109" lon="-1.2207">
        <ele>269.17</ele>
        <time>2021-08-05T15:19:40Z</time>
      </trkpt>
      <trkpt lat="43.14124" lon="-1.22022">
        <ele>272.79</ele>
        <time>2021-08-05T15:19:43Z</time>
      </trkpt>
      <trkpt lat="43.14161" lon="-1.21984">
        <ele>277.36</ele>
        <time>2021-08-05T15:19:49Z</time>
      </trkpt>
      <trkpt lat="43.14188" lon="-1.22008">
        <ele>279.03</ele>
        <time>2021-08-05T15:19:52Z</time>
      </trkpt>
      <trkpt lat="43.14206" lon="-1.21994">
        <ele>283.4</ele>
        <time>2021-08-05T15:19:58Z</time>
      </trkpt>
      <trkpt lat="43.14216" lon="-1.21972">
        <ele>286.98</ele>
        <time>2021-08-05T15:20:01Z</time>
      </trkpt>
      <trkpt lat="43.14243" lon="-1.2197">
        <ele>290.1</ele>
        <time>2021-08-05T15:20:04Z</time>
      </trkpt>
      <trkpt lat="43.14255" lon="-1.21974">
        <ele>291.15</ele>
        <time>2021-08-05T15:20:05Z</time>
      </trkpt>
      <trkpt lat="43.14281" lon="-1.2198">
        <ele>293.32</ele>
        <time>2021-08-05T15:20:07Z</time>
      </trkpt>
      <trkpt lat="43.14328" lon="-1.21971">
        <ele>297.91</ele>
        <time>2021-08-05T15:20:11Z</time>
      </trkpt>
      <trkpt lat="43.14385" lon="-1.21941">
        <ele>300.72</ele>
        <time>2021-08-05T15:20:15Z</time>
      </trkpt>
      <trkpt lat="43.14494" lon="-1.21924">
        <ele>300.79</ele>
        <time>2021-08-05T15:20:22Z</time>
      </trkpt>
      <trkpt lat="43.1459" lon="-1.21891">
        <ele>301.26</ele>
        <time>2021-08-05T15:20:29Z</time>
      </trkpt>
      <trkpt lat="43.1465" lon="-1.21823">
        <ele>299.62</ele>
        <time>2021-08-05T15:20:37Z</time>
      </trkpt>
      <trkpt lat="43.14658" lon="-1.21815">
        <ele>296.16</ele>
        <time>2021-08-05T15:20:42Z</time>
      </trkpt>
      <trkpt lat="43.14663" lon="-1.21809">
        <ele>295.72</ele>
        <time>2021-08-05T15:20:43Z</time>
      </trkpt>
      <trkpt lat="43.14669" lon="-1.21799">
        <ele>295.32</ele>
        <time>2021-08-05T15:20:44Z</time>
      </trkpt>
      <trkpt lat="43.14672" lon="-1.21786">
        <ele>295</ele>
        <time>2021-08-05T15:20:45Z</time>
      </trkpt>
      <trkpt lat="43.14675" lon="-1.21771">
        <ele>294.74</ele>
        <time>2021-08-05T15:20:46Z</time>
      </trkpt>
      <trkpt lat="43.14676" lon="-1.21758">
        <ele>294.5</ele>
        <time>2021-08-05T15:20:47Z</time>
      </trkpt>
      <trkpt lat="43.14678" lon="-1.21746">
        <ele>294.22</ele>
        <time>2021-08-05T15:20:48Z</time>
      </trkpt>
      <trkpt lat="43.14679" lon="-1.21737">
        <ele>293.85</ele>
        <time>2021-08-05T15:20:49Z</time>
      </trkpt>
      <trkpt lat="43.14681" lon="-1.21732">
        <ele>293.34</ele>
        <time>2021-08-05T15:20:50Z</time>
      </trkpt>
      <trkpt lat="43.1469" lon="-1.21724">
        <ele>291.64</ele>
        <time>2021-08-05T15:20:53Z</time>
      </trkpt>
      <trkpt lat="43.14723" lon="-1.21646">
        <ele>288.95</ele>
        <time>2021-08-05T15:20:59Z</time>
      </trkpt>
      <trkpt lat="43.14726" lon="-1.21587">
        <ele>285.76</ele>
        <time>2021-08-05T15:21:03Z</time>
      </trkpt>
      <trkpt lat="43.14725" lon="-1.21534">
        <ele>282.19</ele>
        <time>2021-08-05T15:21:06Z</time>
      </trkpt>
      <trkpt lat="43.14732" lon="-1.21493">
        <ele>279.71</ele>
        <time>2021-08-05T15:21:08Z</time>
      </trkpt>
      <trkpt lat="43.14725" lon="-1.21406">
        <ele>274.4</ele>
        <time>2021-08-05T15:21:12Z</time>
      </trkpt>
      <trkpt lat="43.14729" lon="-1.2137">
        <ele>271.39</ele>
        <time>2021-08-05T15:21:14Z</time>
      </trkpt>
      <trkpt lat="43.14743" lon="-1.21335">
        <ele>268.03</ele>
        <time>2021-08-05T15:21:16Z</time>
      </trkpt>
      <trkpt lat="43.14765" lon="-1.21301">
        <ele>265.01</ele>
        <time>2021-08-05T15:21:18Z</time>
      </trkpt>
      <trkpt lat="43.14787" lon="-1.2127">
        <ele>262.64</ele>
        <time>2021-08-05T15:21:20Z</time>
      </trkpt>
      <trkpt lat="43.1481" lon="-1.2118">
        <ele>258.54</ele>
        <time>2021-08-05T15:21:26Z</time>
      </trkpt>
      <trkpt lat="43.14802" lon="-1.21135">
        <ele>258.48</ele>
        <time>2021-08-05T15:21:29Z</time>
      </trkpt>
      <trkpt lat="43.14787" lon="-1.21075">
        <ele>260.98</ele>
        <time>2021-08-05T15:21:36Z</time>
      </trkpt>
      <trkpt lat="43.14784" lon="-1.21066">
        <ele>262.26</ele>
        <time>2021-08-05T15:21:39Z</time>
      </trkpt>
      <trkpt lat="43.1478" lon="-1.21054">
        <ele>262.51</ele>
        <time>2021-08-05T15:21:41Z</time>
      </trkpt>
      <trkpt lat="43.14742" lon="-1.2099">
        <ele>261.39</ele>
        <time>2021-08-05T15:21:48Z</time>
      </trkpt>
      <trkpt lat="43.14744" lon="-1.2097">
        <ele>260.68</ele>
        <time>2021-08-05T15:21:49Z</time>
      </trkpt>
      <trkpt lat="43.14744" lon="-1.20847">
        <ele>256.8</ele>
        <time>2021-08-05T15:21:55Z</time>
      </trkpt>
      <trkpt lat="43.14726" lon="-1.20734">
        <ele>253.84</ele>
        <time>2021-08-05T15:22:02Z</time>
      </trkpt>
      <trkpt lat="43.14724" lon="-1.20722">
        <ele>253.34</ele>
        <time>2021-08-05T15:22:03Z</time>
      </trkpt>
      <trkpt lat="43.14729" lon="-1.20675">
        <ele>251.94</ele>
        <time>2021-08-05T15:22:07Z</time>
      </trkpt>
      <trkpt lat="43.14735" lon="-1.20658">
        <ele>251.75</ele>
        <time>2021-08-05T15:22:09Z</time>
      </trkpt>
      <trkpt lat="43.14738" lon="-1.20612">
        <ele>252.18</ele>
        <time>2021-08-05T15:22:14Z</time>
      </trkpt>
      <trkpt lat="43.14728" lon="-1.20524">
        <ele>252.6</ele>
        <time>2021-08-05T15:22:19Z</time>
      </trkpt>
      <trkpt lat="43.14671" lon="-1.20363">
        <ele>250.09</ele>
        <time>2021-08-05T15:22:28Z</time>
      </trkpt>
      <trkpt lat="43.14631" lon="-1.20246">
        <ele>249.66</ele>
        <time>2021-08-05T15:22:36Z</time>
      </trkpt>
      <trkpt lat="43.14631" lon="-1.20169">
        <ele>249.24</ele>
        <time>2021-08-05T15:22:41Z</time>
      </trkpt>
      <trkpt lat="43.14636" lon="-1.2013">
        <ele>249.09</ele>
        <time>2021-08-05T15:22:43Z</time>
      </trkpt>
      <trkpt lat="43.14623" lon="-1.19959">
        <ele>251.5</ele>
        <time>2021-08-05T15:22:51Z</time>
      </trkpt>
      <trkpt lat="43.14611" lon="-1.19866">
        <ele>254.45</ele>
        <time>2021-08-05T15:22:55Z</time>
      </trkpt>
      <trkpt lat="43.14616" lon="-1.19754">
        <ele>259.23</ele>
        <time>2021-08-05T15:23:00Z</time>
      </trkpt>
      <trkpt lat="43.14603" lon="-1.19687">
        <ele>263.84</ele>
        <time>2021-08-05T15:23:04Z</time>
      </trkpt>
      <trkpt lat="43.14595" lon="-1.19677">
        <ele>265.05</ele>
        <time>2021-08-05T15:23:05Z</time>
      </trkpt>
      <trkpt lat="43.14567" lon="-1.19644">
        <ele>269.39</ele>
        <time>2021-08-05T15:23:09Z</time>
      </trkpt>
      <trkpt lat="43.1454" lon="-1.19616">
        <ele>272.96</ele>
        <time>2021-08-05T15:23:13Z</time>
      </trkpt>
      <trkpt lat="43.14526" lon="-1.19601">
        <ele>274.85</ele>
        <time>2021-08-05T15:23:15Z</time>
      </trkpt>
      <trkpt lat="43.14504" lon="-1.19589">
        <ele>278.7</ele>
        <time>2021-08-05T15:23:19Z</time>
      </trkpt>
      <trkpt lat="43.14499" lon="-1.19584">
        <ele>279.84</ele>
        <time>2021-08-05T15:23:21Z</time>
      </trkpt>
      <trkpt lat="43.14509" lon="-1.19564">
        <ele>282.17</ele>
        <time>2021-08-05T15:23:25Z</time>
      </trkpt>
      <trkpt lat="43.14543" lon="-1.19522">
        <ele>285.72</ele>
        <time>2021-08-05T15:23:31Z</time>
      </trkpt>
      <trkpt lat="43.14547" lon="-1.19519">
        <ele>286.2</ele>
        <time>2021-08-05T15:23:32Z</time>
      </trkpt>
      <trkpt lat="43.14552" lon="-1.19516">
        <ele>286.58</ele>
        <time>2021-08-05T15:23:33Z</time>
      </trkpt>
      <trkpt lat="43.14559" lon="-1.19514">
        <ele>287</ele>
        <time>2021-08-05T15:23:34Z</time>
      </trkpt>
      <trkpt lat="43.14575" lon="-1.19506">
        <ele>287.76</ele>
        <time>2021-08-05T15:23:36Z</time>
      </trkpt>
      <trkpt lat="43.14636" lon="-1.19475">
        <ele>287.89</ele>
        <time>2021-08-05T15:23:42Z</time>
      </trkpt>
      <trkpt lat="43.14721" lon="-1.1947">
        <ele>284.45</ele>
        <time>2021-08-05T15:23:50Z</time>
      </trkpt>
      <trkpt lat="43.14742" lon="-1.19464">
        <ele>282.66</ele>
        <time>2021-08-05T15:23:53Z</time>
      </trkpt>
      <trkpt lat="43.14768" lon="-1.19463">
        <ele>280.74</ele>
        <time>2021-08-05T15:23:57Z</time>
      </trkpt>
      <trkpt lat="43.14798" lon="-1.19457">
        <ele>279.54</ele>
        <time>2021-08-05T15:24:00Z</time>
      </trkpt>
      <trkpt lat="43.14822" lon="-1.19447">
        <ele>279.21</ele>
        <time>2021-08-05T15:24:02Z</time>
      </trkpt>
      <trkpt lat="43.14835" lon="-1.19437">
        <ele>279.01</ele>
        <time>2021-08-05T15:24:03Z</time>
      </trkpt>
      <trkpt lat="43.14857" lon="-1.19405">
        <ele>278.34</ele>
        <time>2021-08-05T15:24:05Z</time>
      </trkpt>
      <trkpt lat="43.14961" lon="-1.19247">
        <ele>274.95</ele>
        <time>2021-08-05T15:24:13Z</time>
      </trkpt>
      <trkpt lat="43.15037" lon="-1.19178">
        <ele>273.13</ele>
        <time>2021-08-05T15:24:18Z</time>
      </trkpt>
      <trkpt lat="43.15102" lon="-1.19041">
        <ele>271.33</ele>
        <time>2021-08-05T15:24:26Z</time>
      </trkpt>
      <trkpt lat="43.15125" lon="-1.19011">
        <ele>271.33</ele>
        <time>2021-08-05T15:24:28Z</time>
      </trkpt>
      <trkpt lat="43.15165" lon="-1.18977">
        <ele>271.23</ele>
        <time>2021-08-05T15:24:31Z</time>
      </trkpt>
      <trkpt lat="43.15191" lon="-1.18958">
        <ele>270.59</ele>
        <time>2021-08-05T15:24:33Z</time>
      </trkpt>
      <trkpt lat="43.15201" lon="-1.18944">
        <ele>270.13</ele>
        <time>2021-08-05T15:24:34Z</time>
      </trkpt>
      <trkpt lat="43.1521" lon="-1.18928">
        <ele>269.56</ele>
        <time>2021-08-05T15:24:35Z</time>
      </trkpt>
      <trkpt lat="43.15216" lon="-1.18909">
        <ele>268.88</ele>
        <time>2021-08-05T15:24:36Z</time>
      </trkpt>
      <trkpt lat="43.15222" lon="-1.18889">
        <ele>268.08</ele>
        <time>2021-08-05T15:24:37Z</time>
      </trkpt>
      <trkpt lat="43.1525" lon="-1.18783">
        <ele>263.67</ele>
        <time>2021-08-05T15:24:42Z</time>
      </trkpt>
      <trkpt lat="43.15265" lon="-1.18725">
        <ele>260.63</ele>
        <time>2021-08-05T15:24:45Z</time>
      </trkpt>
      <trkpt lat="43.1531" lon="-1.18685">
        <ele>256.43</ele>
        <time>2021-08-05T15:24:49Z</time>
      </trkpt>
      <trkpt lat="43.15335" lon="-1.18685">
        <ele>254.95</ele>
        <time>2021-08-05T15:24:51Z</time>
      </trkpt>
      <trkpt lat="43.1538" lon="-1.18657">
        <ele>252.52</ele>
        <time>2021-08-05T15:24:56Z</time>
      </trkpt>
      <trkpt lat="43.15378" lon="-1.18592">
        <ele>252.86</ele>
        <time>2021-08-05T15:25:00Z</time>
      </trkpt>
      <trkpt lat="43.15423" lon="-1.18565">
        <ele>255.97</ele>
        <time>2021-08-05T15:25:05Z</time>
      </trkpt>
      <trkpt lat="43.15471" lon="-1.18531">
        <ele>259.79</ele>
        <time>2021-08-05T15:25:10Z</time>
      </trkpt>
      <trkpt lat="43.15482" lon="-1.18532">
        <ele>260.66</ele>
        <time>2021-08-05T15:25:11Z</time>
      </trkpt>
      <trkpt lat="43.15499" lon="-1.18533">
        <ele>262.04</ele>
        <time>2021-08-05T15:25:13Z</time>
      </trkpt>
      <trkpt lat="43.15509" lon="-1.1853">
        <ele>263.97</ele>
        <time>2021-08-05T15:25:17Z</time>
      </trkpt>
      <trkpt lat="43.15516" lon="-1.1853">
        <ele>264.77</ele>
        <time>2021-08-05T15:25:20Z</time>
      </trkpt>
      <trkpt lat="43.15559" lon="-1.18578">
        <ele>265.68</ele>
        <time>2021-08-05T15:25:26Z</time>
      </trkpt>
      <trkpt lat="43.15658" lon="-1.18676">
        <ele>266.34</ele>
        <time>2021-08-05T15:25:33Z</time>
      </trkpt>
      <trkpt lat="43.15812" lon="-1.18826">
        <ele>266.39</ele>
        <time>2021-08-05T15:25:41Z</time>
      </trkpt>
      <trkpt lat="43.15972" lon="-1.18969">
        <ele>264.53</ele>
        <time>2021-08-05T15:25:49Z</time>
      </trkpt>
      <trkpt lat="43.16068" lon="-1.19057">
        <ele>261.22</ele>
        <time>2021-08-05T15:25:55Z</time>
      </trkpt>
      <trkpt lat="43.16214" lon="-1.19189">
        <ele>258.78</ele>
        <time>2021-08-05T15:26:04Z</time>
      </trkpt>
      <trkpt lat="43.1632" lon="-1.19259">
        <ele>255.9</ele>
        <time>2021-08-05T15:26:11Z</time>
      </trkpt>
      <trkpt lat="43.16406" lon="-1.19312">
        <ele>252.8</ele>
        <time>2021-08-05T15:26:18Z</time>
      </trkpt>
      <trkpt lat="43.16449" lon="-1.19337">
        <ele>249.54</ele>
        <time>2021-08-05T15:26:23Z</time>
      </trkpt>
      <trkpt lat="43.16519" lon="-1.19376">
        <ele>246.97</ele>
        <time>2021-08-05T15:26:34Z</time>
      </trkpt>
      <trkpt lat="43.16535" lon="-1.19383">
        <ele>248.15</ele>
        <time>2021-08-05T15:26:43Z</time>
      </trkpt>
      <trkpt lat="43.1654" lon="-1.19381">
        <ele>248.45</ele>
        <time>2021-08-05T15:26:46Z</time>
      </trkpt>
      <trkpt lat="43.16546" lon="-1.1936">
        <ele>248.76</ele>
        <time>2021-08-05T15:26:50Z</time>
      </trkpt>
      <trkpt lat="43.16557" lon="-1.19267">
        <ele>249.37</ele>
        <time>2021-08-05T15:26:57Z</time>
      </trkpt>
      <trkpt lat="43.16582" lon="-1.19076">
        <ele>250.8</ele>
        <time>2021-08-05T15:27:05Z</time>
      </trkpt>
      <trkpt lat="43.16607" lon="-1.18897">
        <ele>253.09</ele>
        <time>2021-08-05T15:27:13Z</time>
      </trkpt>
      <trkpt lat="43.16619" lon="-1.18813">
        <ele>254.71</ele>
        <time>2021-08-05T15:27:18Z</time>
      </trkpt>
      <trkpt lat="43.16671" lon="-1.18763">
        <ele>257.14</ele>
        <time>2021-08-05T15:27:24Z</time>
      </trkpt>
      <trkpt lat="43.1671" lon="-1.18778">
        <ele>257.45</ele>
        <time>2021-08-05T15:27:27Z</time>
      </trkpt>
      <trkpt lat="43.16821" lon="-1.18826">
        <ele>254.03</ele>
        <time>2021-08-05T15:27:35Z</time>
      </trkpt>
      <trkpt lat="43.16877" lon="-1.18846">
        <ele>250.74</ele>
        <time>2021-08-05T15:27:40Z</time>
      </trkpt>
      <trkpt lat="43.169" lon="-1.18851">
        <ele>247.45</ele>
        <time>2021-08-05T15:27:45Z</time>
      </trkpt>
      <trkpt lat="43.16911" lon="-1.18852">
        <ele>245.49</ele>
        <time>2021-08-05T15:27:50Z</time>
      </trkpt>
      <trkpt lat="43.16937" lon="-1.18809">
        <ele>244.12</ele>
        <time>2021-08-05T15:27:56Z</time>
      </trkpt>
      <trkpt lat="43.16962" lon="-1.18766">
        <ele>243.64</ele>
        <time>2021-08-05T15:27:59Z</time>
      </trkpt>
      <trkpt lat="43.1708" lon="-1.1865">
        <ele>242.54</ele>
        <time>2021-08-05T15:28:08Z</time>
      </trkpt>
      <trkpt lat="43.1725" lon="-1.18511">
        <ele>242.58</ele>
        <time>2021-08-05T15:28:20Z</time>
      </trkpt>
      <trkpt lat="43.17432" lon="-1.18363">
        <ele>240.37</ele>
        <time>2021-08-05T15:28:33Z</time>
      </trkpt>
      <trkpt lat="43.17595" lon="-1.18238">
        <ele>239.86</ele>
        <time>2021-08-05T15:28:44Z</time>
      </trkpt>
      <trkpt lat="43.17717" lon="-1.18139">
        <ele>242.87</ele>
        <time>2021-08-05T15:28:52Z</time>
      </trkpt>
      <trkpt lat="43.17781" lon="-1.18086">
        <ele>246.26</ele>
        <time>2021-08-05T15:28:57Z</time>
      </trkpt>
      <trkpt lat="43.17844" lon="-1.18036">
        <ele>249.86</ele>
        <time>2021-08-05T15:29:02Z</time>
      </trkpt>
      <trkpt lat="43.17915" lon="-1.17979">
        <ele>253.44</ele>
        <time>2021-08-05T15:29:07Z</time>
      </trkpt>
      <trkpt lat="43.18061" lon="-1.17861">
        <ele>254.38</ele>
        <time>2021-08-05T15:29:16Z</time>
      </trkpt>
      <trkpt lat="43.18163" lon="-1.17778">
        <ele>251.34</ele>
        <time>2021-08-05T15:29:22Z</time>
      </trkpt>
      <trkpt lat="43.18273" lon="-1.17669">
        <ele>249.24</ele>
        <time>2021-08-05T15:29:29Z</time>
      </trkpt>
      <trkpt lat="43.18313" lon="-1.1756">
        <ele>248.69</ele>
        <time>2021-08-05T15:29:34Z</time>
      </trkpt>
      <trkpt lat="43.18363" lon="-1.17273">
        <ele>246.82</ele>
        <time>2021-08-05T15:29:46Z</time>
      </trkpt>
      <trkpt lat="43.18446" lon="-1.17139">
        <ele>246.33</ele>
        <time>2021-08-05T15:29:53Z</time>
      </trkpt>
      <trkpt lat="43.18594" lon="-1.17014">
        <ele>245.65</ele>
        <time>2021-08-05T15:30:04Z</time>
      </trkpt>
      <trkpt lat="43.18701" lon="-1.16925">
        <ele>248.7</ele>
        <time>2021-08-05T15:30:15Z</time>
      </trkpt>
      <trkpt lat="43.18746" lon="-1.16887">
        <ele>251.71</ele>
        <time>2021-08-05T15:30:20Z</time>
      </trkpt>
      <trkpt lat="43.18791" lon="-1.16848">
        <ele>255.33</ele>
        <time>2021-08-05T15:30:25Z</time>
      </trkpt>
      <trkpt lat="43.18842" lon="-1.16803">
        <ele>259.1</ele>
        <time>2021-08-05T15:30:30Z</time>
      </trkpt>
      <trkpt lat="43.18883" lon="-1.16759">
        <ele>262.66</ele>
        <time>2021-08-05T15:30:35Z</time>
      </trkpt>
      <trkpt lat="43.18936" lon="-1.16697">
        <ele>265.93</ele>
        <time>2021-08-05T15:30:41Z</time>
      </trkpt>
      <trkpt lat="43.19029" lon="-1.16596">
        <ele>269.01</ele>
        <time>2021-08-05T15:30:51Z</time>
      </trkpt>
      <trkpt lat="43.19115" lon="-1.1651">
        <ele>272.38</ele>
        <time>2021-08-05T15:31:01Z</time>
      </trkpt>
      <trkpt lat="43.19158" lon="-1.16499">
        <ele>274.07</ele>
        <time>2021-08-05T15:31:05Z</time>
      </trkpt>
      <trkpt lat="43.19249" lon="-1.1649">
        <ele>277.53</ele>
        <time>2021-08-05T15:31:12Z</time>
      </trkpt>
      <trkpt lat="43.19333" lon="-1.1643">
        <ele>277.72</ele>
        <time>2021-08-05T15:31:18Z</time>
      </trkpt>
      <trkpt lat="43.19413" lon="-1.16306">
        <ele>273.51</ele>
        <time>2021-08-05T15:31:24Z</time>
      </trkpt>
      <trkpt lat="43.19449" lon="-1.16235">
        <ele>270.03</ele>
        <time>2021-08-05T15:31:27Z</time>
      </trkpt>
      <trkpt lat="43.19484" lon="-1.16164">
        <ele>266.26</ele>
        <time>2021-08-05T15:31:30Z</time>
      </trkpt>
      <trkpt lat="43.19519" lon="-1.16093">
        <ele>262.78</ele>
        <time>2021-08-05T15:31:33Z</time>
      </trkpt>
      <trkpt lat="43.19551" lon="-1.16024">
        <ele>260.1</ele>
        <time>2021-08-05T15:31:36Z</time>
      </trkpt>
      <trkpt lat="43.19657" lon="-1.158">
        <ele>263.37</ele>
        <time>2021-08-05T15:31:46Z</time>
      </trkpt>
      <trkpt lat="43.19708" lon="-1.15695">
        <ele>266.43</ele>
        <time>2021-08-05T15:31:51Z</time>
      </trkpt>
      <trkpt lat="43.19773" lon="-1.15504">
        <ele>269.22</ele>
        <time>2021-08-05T15:32:00Z</time>
      </trkpt>
      <trkpt lat="43.19794" lon="-1.15347">
        <ele>272.61</ele>
        <time>2021-08-05T15:32:07Z</time>
      </trkpt>
      <trkpt lat="43.19832" lon="-1.15204">
        <ele>275.95</ele>
        <time>2021-08-05T15:32:14Z</time>
      </trkpt>
      <trkpt lat="43.19882" lon="-1.15117">
        <ele>278.22</ele>
        <time>2021-08-05T15:32:19Z</time>
      </trkpt>
      <trkpt lat="43.19953" lon="-1.15062">
        <ele>279.01</ele>
        <time>2021-08-05T15:32:24Z</time>
      </trkpt>
      <trkpt lat="43.20103" lon="-1.14977">
        <ele>275.9</ele>
        <time>2021-08-05T15:32:33Z</time>
      </trkpt>
      <trkpt lat="43.20289" lon="-1.14805">
        <ele>274.55</ele>
        <time>2021-08-05T15:32:45Z</time>
      </trkpt>
      <trkpt lat="43.20372" lon="-1.14707">
        <ele>277.67</ele>
        <time>2021-08-05T15:32:51Z</time>
      </trkpt>
      <trkpt lat="43.20444" lon="-1.14613">
        <ele>280.27</ele>
        <time>2021-08-05T15:32:56Z</time>
      </trkpt>
      <trkpt lat="43.20596" lon="-1.14388">
        <ele>280.63</ele>
        <time>2021-08-05T15:33:07Z</time>
      </trkpt>
      <trkpt lat="43.20741" lon="-1.14149">
        <ele>283.18</ele>
        <time>2021-08-05T15:33:18Z</time>
      </trkpt>
      <trkpt lat="43.20815" lon="-1.14053">
        <ele>286.25</ele>
        <time>2021-08-05T15:33:23Z</time>
      </trkpt>
      <trkpt lat="43.20875" lon="-1.13974">
        <ele>289.41</ele>
        <time>2021-08-05T15:33:27Z</time>
      </trkpt>
      <trkpt lat="43.20935" lon="-1.13896">
        <ele>293.42</ele>
        <time>2021-08-05T15:33:31Z</time>
      </trkpt>
      <trkpt lat="43.20992" lon="-1.13821">
        <ele>297.19</ele>
        <time>2021-08-05T15:33:35Z</time>
      </trkpt>
      <trkpt lat="43.21046" lon="-1.13749">
        <ele>300.42</ele>
        <time>2021-08-05T15:33:39Z</time>
      </trkpt>
      <trkpt lat="43.21101" lon="-1.13678">
        <ele>303.69</ele>
        <time>2021-08-05T15:33:43Z</time>
      </trkpt>
      <trkpt lat="43.21149" lon="-1.13632">
        <ele>305.35</ele>
        <time>2021-08-05T15:33:46Z</time>
      </trkpt>
      <trkpt lat="43.21261" lon="-1.13515">
        <ele>303.07</ele>
        <time>2021-08-05T15:33:53Z</time>
      </trkpt>
      <trkpt lat="43.21299" lon="-1.13451">
        <ele>300</ele>
        <time>2021-08-05T15:33:56Z</time>
      </trkpt>
      <trkpt lat="43.21335" lon="-1.13382">
        <ele>296.29</ele>
        <time>2021-08-05T15:33:59Z</time>
      </trkpt>
      <trkpt lat="43.21345" lon="-1.13356">
        <ele>294.96</ele>
        <time>2021-08-05T15:34:00Z</time>
      </trkpt>
      <trkpt lat="43.21362" lon="-1.13243">
        <ele>289.33</ele>
        <time>2021-08-05T15:34:04Z</time>
      </trkpt>
      <trkpt lat="43.21359" lon="-1.1313">
        <ele>283.67</ele>
        <time>2021-08-05T15:34:08Z</time>
      </trkpt>
      <trkpt lat="43.21356" lon="-1.13048">
        <ele>279.31</ele>
        <time>2021-08-05T15:34:11Z</time>
      </trkpt>
      <trkpt lat="43.21359" lon="-1.12994">
        <ele>276.27</ele>
        <time>2021-08-05T15:34:13Z</time>
      </trkpt>
      <trkpt lat="43.21369" lon="-1.1294">
        <ele>273.33</ele>
        <time>2021-08-05T15:34:15Z</time>
      </trkpt>
      <trkpt lat="43.21396" lon="-1.12867">
        <ele>268.78</ele>
        <time>2021-08-05T15:34:18Z</time>
      </trkpt>
      <trkpt lat="43.21429" lon="-1.12799">
        <ele>264.42</ele>
        <time>2021-08-05T15:34:21Z</time>
      </trkpt>
      <trkpt lat="43.21458" lon="-1.12732">
        <ele>260.01</ele>
        <time>2021-08-05T15:34:24Z</time>
      </trkpt>
      <trkpt lat="43.21485" lon="-1.12661">
        <ele>255.55</ele>
        <time>2021-08-05T15:34:27Z</time>
      </trkpt>
      <trkpt lat="43.21514" lon="-1.12591">
        <ele>251.16</ele>
        <time>2021-08-05T15:34:30Z</time>
      </trkpt>
      <trkpt lat="43.2157" lon="-1.12511">
        <ele>245.74</ele>
        <time>2021-08-05T15:34:34Z</time>
      </trkpt>
      <trkpt lat="43.21635" lon="-1.12447">
        <ele>240.91</ele>
        <time>2021-08-05T15:34:38Z</time>
      </trkpt>
      <trkpt lat="43.21681" lon="-1.124">
        <ele>237.87</ele>
        <time>2021-08-05T15:34:41Z</time>
      </trkpt>
      <trkpt lat="43.2174" lon="-1.12341">
        <ele>234.51</ele>
        <time>2021-08-05T15:34:45Z</time>
      </trkpt>
      <trkpt lat="43.21815" lon="-1.12265">
        <ele>231.28</ele>
        <time>2021-08-05T15:34:50Z</time>
      </trkpt>
      <trkpt lat="43.21878" lon="-1.12202">
        <ele>228.02</ele>
        <time>2021-08-05T15:34:54Z</time>
      </trkpt>
      <trkpt lat="43.21941" lon="-1.12133">
        <ele>224.95</ele>
        <time>2021-08-05T15:34:58Z</time>
      </trkpt>
      <trkpt lat="43.22016" lon="-1.12039">
        <ele>221.51</ele>
        <time>2021-08-05T15:35:03Z</time>
      </trkpt>
      <trkpt lat="43.22114" lon="-1.11891">
        <ele>218.51</ele>
        <time>2021-08-05T15:35:10Z</time>
      </trkpt>
      <trkpt lat="43.22226" lon="-1.11688">
        <ele>215.44</ele>
        <time>2021-08-05T15:35:19Z</time>
      </trkpt>
      <trkpt lat="43.22429" lon="-1.11302">
        <ele>212.91</ele>
        <time>2021-08-05T15:35:37Z</time>
      </trkpt>
      <trkpt lat="43.22578" lon="-1.11001">
        <ele>210.42</ele>
        <time>2021-08-05T15:35:50Z</time>
      </trkpt>
      <trkpt lat="43.22717" lon="-1.10742">
        <ele>207.39</ele>
        <time>2021-08-05T15:36:01Z</time>
      </trkpt>
      <trkpt lat="43.22897" lon="-1.10402">
        <ele>207.17</ele>
        <time>2021-08-05T15:36:15Z</time>
      </trkpt>
      <trkpt lat="43.23009" lon="-1.10204">
        <ele>208.85</ele>
        <time>2021-08-05T15:36:24Z</time>
      </trkpt>
      <trkpt lat="43.23061" lon="-1.1011">
        <ele>212.22</ele>
        <time>2021-08-05T15:36:29Z</time>
      </trkpt>
      <trkpt lat="43.23171" lon="-1.09901">
        <ele>213.89</ele>
        <time>2021-08-05T15:36:41Z</time>
      </trkpt>
      <trkpt lat="43.23228" lon="-1.09792">
        <ele>210.54</ele>
        <time>2021-08-05T15:36:47Z</time>
      </trkpt>
      <trkpt lat="43.23261" lon="-1.09725">
        <ele>206.93</ele>
        <time>2021-08-05T15:36:51Z</time>
      </trkpt>
      <trkpt lat="43.23292" lon="-1.09673">
        <ele>203.61</ele>
        <time>2021-08-05T15:36:56Z</time>
      </trkpt>
      <trkpt lat="43.23298" lon="-1.09666">
        <ele>203.39</ele>
        <time>2021-08-05T15:36:57Z</time>
      </trkpt>
      <trkpt lat="43.23303" lon="-1.0966">
        <ele>203.27</ele>
        <time>2021-08-05T15:36:58Z</time>
      </trkpt>
      <trkpt lat="43.23323" lon="-1.09608">
        <ele>203.53</ele>
        <time>2021-08-05T15:37:04Z</time>
      </trkpt>
      <trkpt lat="43.23382" lon="-1.09495">
        <ele>206.16</ele>
        <time>2021-08-05T15:37:13Z</time>
      </trkpt>
      <trkpt lat="43.23474" lon="-1.09323">
        <ele>206.05</ele>
        <time>2021-08-05T15:37:22Z</time>
      </trkpt>
      <trkpt lat="43.23548" lon="-1.09183">
        <ele>203.52</ele>
        <time>2021-08-05T15:37:30Z</time>
      </trkpt>
      <trkpt lat="43.23651" lon="-1.08988">
        <ele>200.1</ele>
        <time>2021-08-05T15:37:40Z</time>
      </trkpt>
      <trkpt lat="43.23707" lon="-1.08883">
        <ele>197.06</ele>
        <time>2021-08-05T15:37:45Z</time>
      </trkpt>
      <trkpt lat="43.2382" lon="-1.08681">
        <ele>196.44</ele>
        <time>2021-08-05T15:37:56Z</time>
      </trkpt>
      <trkpt lat="43.23952" lon="-1.08429">
        <ele>195.25</ele>
        <time>2021-08-05T15:38:09Z</time>
      </trkpt>
      <trkpt lat="43.24039" lon="-1.0823">
        <ele>194.71</ele>
        <time>2021-08-05T15:38:16Z</time>
      </trkpt>
      <trkpt lat="43.24154" lon="-1.08018">
        <ele>194.58</ele>
        <time>2021-08-05T15:38:23Z</time>
      </trkpt>
      <trkpt lat="43.24256" lon="-1.07837">
        <ele>191.63</ele>
        <time>2021-08-05T15:38:31Z</time>
      </trkpt>
      <trkpt lat="43.24366" lon="-1.07637">
        <ele>188.52</ele>
        <time>2021-08-05T15:38:40Z</time>
      </trkpt>
      <trkpt lat="43.24437" lon="-1.07504">
        <ele>185.3</ele>
        <time>2021-08-05T15:38:46Z</time>
      </trkpt>
      <trkpt lat="43.24494" lon="-1.07386">
        <ele>181.65</ele>
        <time>2021-08-05T15:38:51Z</time>
      </trkpt>
      <trkpt lat="43.24567" lon="-1.07236">
        <ele>178.56</ele>
        <time>2021-08-05T15:38:57Z</time>
      </trkpt>
      <trkpt lat="43.24747" lon="-1.06907">
        <ele>177.9</ele>
        <time>2021-08-05T15:39:10Z</time>
      </trkpt>
      <trkpt lat="43.2488" lon="-1.06672">
        <ele>178.03</ele>
        <time>2021-08-05T15:39:20Z</time>
      </trkpt>
      <trkpt lat="43.25021" lon="-1.06443">
        <ele>174.73</ele>
        <time>2021-08-05T15:39:30Z</time>
      </trkpt>
      <trkpt lat="43.25066" lon="-1.06341">
        <ele>171.32</ele>
        <time>2021-08-05T15:39:34Z</time>
      </trkpt>
      <trkpt lat="43.25104" lon="-1.06201">
        <ele>168.3</ele>
        <time>2021-08-05T15:39:39Z</time>
      </trkpt>
      <trkpt lat="43.25149" lon="-1.05905">
        <ele>168.03</ele>
        <time>2021-08-05T15:39:49Z</time>
      </trkpt>
      <trkpt lat="43.25159" lon="-1.05789">
        <ele>171.22</ele>
        <time>2021-08-05T15:39:53Z</time>
      </trkpt>
      <trkpt lat="43.25167" lon="-1.05704">
        <ele>175.43</ele>
        <time>2021-08-05T15:39:56Z</time>
      </trkpt>
      <trkpt lat="43.25175" lon="-1.05649">
        <ele>177.61</ele>
        <time>2021-08-05T15:39:58Z</time>
      </trkpt>
      <trkpt lat="43.25207" lon="-1.05519">
        <ele>181.79</ele>
        <time>2021-08-05T15:40:03Z</time>
      </trkpt>
      <trkpt lat="43.25228" lon="-1.05444">
        <ele>182.52</ele>
        <time>2021-08-05T15:40:06Z</time>
      </trkpt>
      <trkpt lat="43.25214" lon="-1.05287">
        <ele>180.92</ele>
        <time>2021-08-05T15:40:12Z</time>
      </trkpt>
      <trkpt lat="43.25136" lon="-1.05112">
        <ele>176.88</ele>
        <time>2021-08-05T15:40:19Z</time>
      </trkpt>
      <trkpt lat="43.25115" lon="-1.04978">
        <ele>172.99</ele>
        <time>2021-08-05T15:40:24Z</time>
      </trkpt>
      <trkpt lat="43.25121" lon="-1.04922">
        <ele>171.61</ele>
        <time>2021-08-05T15:40:26Z</time>
      </trkpt>
      <trkpt lat="43.25157" lon="-1.04762">
        <ele>169.15</ele>
        <time>2021-08-05T15:40:32Z</time>
      </trkpt>
      <trkpt lat="43.25246" lon="-1.04608">
        <ele>167.84</ele>
        <time>2021-08-05T15:40:39Z</time>
      </trkpt>
      <trkpt lat="43.25376" lon="-1.04484">
        <ele>164.39</ele>
        <time>2021-08-05T15:40:46Z</time>
      </trkpt>
      <trkpt lat="43.25523" lon="-1.04388">
        <ele>161.01</ele>
        <time>2021-08-05T15:40:53Z</time>
      </trkpt>
      <trkpt lat="43.25563" lon="-1.04362">
        <ele>160.25</ele>
        <time>2021-08-05T15:40:55Z</time>
      </trkpt>
      <trkpt lat="43.25659" lon="-1.04307">
        <ele>159.37</ele>
        <time>2021-08-05T15:41:00Z</time>
      </trkpt>
      <trkpt lat="43.25741" lon="-1.04227">
        <ele>155.19</ele>
        <time>2021-08-05T15:41:05Z</time>
      </trkpt>
      <trkpt lat="43.25813" lon="-1.04153">
        <ele>151.81</ele>
        <time>2021-08-05T15:41:10Z</time>
      </trkpt>
      <trkpt lat="43.25954" lon="-1.0409">
        <ele>150.36</ele>
        <time>2021-08-05T15:41:18Z</time>
      </trkpt>
      <trkpt lat="43.26147" lon="-1.04026">
        <ele>150.4</ele>
        <time>2021-08-05T15:41:27Z</time>
      </trkpt>
      <trkpt lat="43.26452" lon="-1.0393">
        <ele>147.24</ele>
        <time>2021-08-05T15:41:42Z</time>
      </trkpt>
      <trkpt lat="43.2666" lon="-1.0384">
        <ele>144.77</ele>
        <time>2021-08-05T15:41:52Z</time>
      </trkpt>
      <trkpt lat="43.26811" lon="-1.03688">
        <ele>143.79</ele>
        <time>2021-08-05T15:42:01Z</time>
      </trkpt>
      <trkpt lat="43.26846" lon="-1.03586">
        <ele>143.45</ele>
        <time>2021-08-05T15:42:05Z</time>
      </trkpt>
      <trkpt lat="43.26855" lon="-1.03533">
        <ele>144.01</ele>
        <time>2021-08-05T15:42:07Z</time>
      </trkpt>
      <trkpt lat="43.26909" lon="-1.03424">
        <ele>147.17</ele>
        <time>2021-08-05T15:42:12Z</time>
      </trkpt>
      <trkpt lat="43.26997" lon="-1.03301">
        <ele>150.97</ele>
        <time>2021-08-05T15:42:18Z</time>
      </trkpt>
      <trkpt lat="43.27135" lon="-1.03154">
        <ele>151.53</ele>
        <time>2021-08-05T15:42:26Z</time>
      </trkpt>
      <trkpt lat="43.27247" lon="-1.03054">
        <ele>148.06</ele>
        <time>2021-08-05T15:42:32Z</time>
      </trkpt>
      <trkpt lat="43.27325" lon="-1.02971">
        <ele>144.56</ele>
        <time>2021-08-05T15:42:37Z</time>
      </trkpt>
      <trkpt lat="43.27376" lon="-1.02915">
        <ele>141.43</ele>
        <time>2021-08-05T15:42:41Z</time>
      </trkpt>
      <trkpt lat="43.27476" lon="-1.02843">
        <ele>138.19</ele>
        <time>2021-08-05T15:42:48Z</time>
      </trkpt>
      <trkpt lat="43.27552" lon="-1.02777">
        <ele>137.58</ele>
        <time>2021-08-05T15:42:53Z</time>
      </trkpt>
      <trkpt lat="43.276" lon="-1.02683">
        <ele>137.57</ele>
        <time>2021-08-05T15:42:57Z</time>
      </trkpt>
      <trkpt lat="43.27626" lon="-1.0252">
        <ele>138.52</ele>
        <time>2021-08-05T15:43:03Z</time>
      </trkpt>
      <trkpt lat="43.27619" lon="-1.02444">
        <ele>139.34</ele>
        <time>2021-08-05T15:43:06Z</time>
      </trkpt>
      <trkpt lat="43.2766" lon="-1.0231">
        <ele>141.31</ele>
        <time>2021-08-05T15:43:12Z</time>
      </trkpt>
      <trkpt lat="43.27705" lon="-1.02274">
        <ele>141.77</ele>
        <time>2021-08-05T15:43:15Z</time>
      </trkpt>
      <trkpt lat="43.2782" lon="-1.02213">
        <ele>138.91</ele>
        <time>2021-08-05T15:43:24Z</time>
      </trkpt>
      <trkpt lat="43.27934" lon="-1.02143">
        <ele>135.92</ele>
        <time>2021-08-05T15:43:33Z</time>
      </trkpt>
      <trkpt lat="43.28047" lon="-1.02046">
        <ele>135.47</ele>
        <time>2021-08-05T15:43:42Z</time>
      </trkpt>
      <trkpt lat="43.28158" lon="-1.01902">
        <ele>135.65</ele>
        <time>2021-08-05T15:43:51Z</time>
      </trkpt>
      <trkpt lat="43.2819" lon="-1.0184">
        <ele>135.55</ele>
        <time>2021-08-05T15:43:54Z</time>
      </trkpt>
      <trkpt lat="43.28233" lon="-1.01629">
        <ele>135.04</ele>
        <time>2021-08-05T15:44:02Z</time>
      </trkpt>
      <trkpt lat="43.28244" lon="-1.01524">
        <ele>134.68</ele>
        <time>2021-08-05T15:44:06Z</time>
      </trkpt>
      <trkpt lat="43.28312" lon="-1.01422">
        <ele>134.68</ele>
        <time>2021-08-05T15:44:12Z</time>
      </trkpt>
      <trkpt lat="43.28383" lon="-1.01426">
        <ele>136.48</ele>
        <time>2021-08-05T15:44:16Z</time>
      </trkpt>
      <trkpt lat="43.28401" lon="-1.01436">
        <ele>136.92</ele>
        <time>2021-08-05T15:44:17Z</time>
      </trkpt>
      <trkpt lat="43.28515" lon="-1.01511">
        <ele>137.17</ele>
        <time>2021-08-05T15:44:23Z</time>
      </trkpt>
      <trkpt lat="43.28571" lon="-1.01584">
        <ele>135.22</ele>
        <time>2021-08-05T15:44:27Z</time>
      </trkpt>
      <trkpt lat="43.28605" lon="-1.01657">
        <ele>134.5</ele>
        <time>2021-08-05T15:44:30Z</time>
      </trkpt>
      <trkpt lat="43.28692" lon="-1.01742">
        <ele>133.24</ele>
        <time>2021-08-05T15:44:35Z</time>
      </trkpt>
      <trkpt lat="43.28893" lon="-1.01809">
        <ele>132.57</ele>
        <time>2021-08-05T15:44:44Z</time>
      </trkpt>
      <trkpt lat="43.29064" lon="-1.01784">
        <ele>130.94</ele>
        <time>2021-08-05T15:44:51Z</time>
      </trkpt>
      <trkpt lat="43.2935" lon="-1.01742">
        <ele>132.72</ele>
        <time>2021-08-05T15:45:02Z</time>
      </trkpt>
      <trkpt lat="43.2947" lon="-1.01731">
        <ele>136.06</ele>
        <time>2021-08-05T15:45:07Z</time>
      </trkpt>
      <trkpt lat="43.29614" lon="-1.01689">
        <ele>139.14</ele>
        <time>2021-08-05T15:45:13Z</time>
      </trkpt>
      <trkpt lat="43.29775" lon="-1.01673">
        <ele>138.99</ele>
        <time>2021-08-05T15:45:20Z</time>
      </trkpt>
      <trkpt lat="43.29944" lon="-1.01678">
        <ele>135.84</ele>
        <time>2021-08-05T15:45:28Z</time>
      </trkpt>
      <trkpt lat="43.30059" lon="-1.01602">
        <ele>132.22</ele>
        <time>2021-08-05T15:45:34Z</time>
      </trkpt>
      <trkpt lat="43.30151" lon="-1.01517">
        <ele>128.54</ele>
        <time>2021-08-05T15:45:39Z</time>
      </trkpt>
      <trkpt lat="43.30239" lon="-1.01418">
        <ele>125.27</ele>
        <time>2021-08-05T15:45:44Z</time>
      </trkpt>
      <trkpt lat="43.30295" lon="-1.01322">
        <ele>122.2</ele>
        <time>2021-08-05T15:45:48Z</time>
      </trkpt>
      <trkpt lat="43.30343" lon="-1.0123">
        <ele>119.05</ele>
        <time>2021-08-05T15:45:52Z</time>
      </trkpt>
      <trkpt lat="43.30433" lon="-1.01116">
        <ele>115.81</ele>
        <time>2021-08-05T15:45:58Z</time>
      </trkpt>
      <trkpt lat="43.30554" lon="-1.00992">
        <ele>113.94</ele>
        <time>2021-08-05T15:46:06Z</time>
      </trkpt>
      <trkpt lat="43.30619" lon="-1.00975">
        <ele>113.48</ele>
        <time>2021-08-05T15:46:10Z</time>
      </trkpt>
      <trkpt lat="43.3067" lon="-1.00973">
        <ele>113.22</ele>
        <time>2021-08-05T15:46:13Z</time>
      </trkpt>
      <trkpt lat="43.3074" lon="-1.00941">
        <ele>113.28</ele>
        <time>2021-08-05T15:46:17Z</time>
      </trkpt>
      <trkpt lat="43.30936" lon="-1.00799">
        <ele>115.8</ele>
        <time>2021-08-05T15:46:28Z</time>
      </trkpt>
      <trkpt lat="43.31071" lon="-1.00748">
        <ele>116.82</ele>
        <time>2021-08-05T15:46:35Z</time>
      </trkpt>
      <trkpt lat="43.31179" lon="-1.00784">
        <ele>117.54</ele>
        <time>2021-08-05T15:46:41Z</time>
      </trkpt>
      <trkpt lat="43.31255" lon="-1.00897">
        <ele>118.17</ele>
        <time>2021-08-05T15:46:47Z</time>
      </trkpt>
      <trkpt lat="43.31263" lon="-1.00921">
        <ele>118.26</ele>
        <time>2021-08-05T15:46:48Z</time>
      </trkpt>
      <trkpt lat="43.31348" lon="-1.01223">
        <ele>117.45</ele>
        <time>2021-08-05T15:47:02Z</time>
      </trkpt>
      <trkpt lat="43.31376" lon="-1.01326">
        <ele>116.55</ele>
        <time>2021-08-05T15:47:08Z</time>
      </trkpt>
      <trkpt lat="43.31426" lon="-1.01369">
        <ele>113.52</ele>
        <time>2021-08-05T15:47:15Z</time>
      </trkpt>
      <trkpt lat="43.31512" lon="-1.01367">
        <ele>111.54</ele>
        <time>2021-08-05T15:47:22Z</time>
      </trkpt>
      <trkpt lat="43.31647" lon="-1.01329">
        <ele>108.59</ele>
        <time>2021-08-05T15:47:29Z</time>
      </trkpt>
      <trkpt lat="43.31756" lon="-1.0135">
        <ele>106.5</ele>
        <time>2021-08-05T15:47:34Z</time>
      </trkpt>
      <trkpt lat="43.32043" lon="-1.01528">
        <ele>108.12</ele>
        <time>2021-08-05T15:47:47Z</time>
      </trkpt>
      <trkpt lat="43.32162" lon="-1.01701">
        <ele>109.53</ele>
        <time>2021-08-05T15:47:54Z</time>
      </trkpt>
      <trkpt lat="43.32259" lon="-1.01957">
        <ele>108.85</ele>
        <time>2021-08-05T15:48:02Z</time>
      </trkpt>
      <trkpt lat="43.32329" lon="-1.02144">
        <ele>107.03</ele>
        <time>2021-08-05T15:48:08Z</time>
      </trkpt>
      <trkpt lat="43.32431" lon="-1.02261">
        <ele>105.53</ele>
        <time>2021-08-05T15:48:14Z</time>
      </trkpt>
      <trkpt lat="43.32543" lon="-1.02308">
        <ele>108.7</ele>
        <time>2021-08-05T15:48:21Z</time>
      </trkpt>
      <trkpt lat="43.32553" lon="-1.02312">
        <ele>109.19</ele>
        <time>2021-08-05T15:48:22Z</time>
      </trkpt>
      <trkpt lat="43.32583" lon="-1.02306">
        <ele>110.64</ele>
        <time>2021-08-05T15:48:29Z</time>
      </trkpt>
      <trkpt lat="43.32636" lon="-1.02284">
        <ele>111.29</ele>
        <time>2021-08-05T15:48:35Z</time>
      </trkpt>
      <trkpt lat="43.32642" lon="-1.02269">
        <ele>111.35</ele>
        <time>2021-08-05T15:48:36Z</time>
      </trkpt>
      <trkpt lat="43.32647" lon="-1.02253">
        <ele>111.4</ele>
        <time>2021-08-05T15:48:37Z</time>
      </trkpt>
      <trkpt lat="43.32699" lon="-1.02114">
        <ele>112.85</ele>
        <time>2021-08-05T15:48:44Z</time>
      </trkpt>
      <trkpt lat="43.3272" lon="-1.02066">
        <ele>113.32</ele>
        <time>2021-08-05T15:48:46Z</time>
      </trkpt>
      <trkpt lat="43.32851" lon="-1.01913">
        <ele>113.51</ele>
        <time>2021-08-05T15:48:54Z</time>
      </trkpt>
      <trkpt lat="43.32962" lon="-1.01755">
        <ele>110.48</ele>
        <time>2021-08-05T15:49:01Z</time>
      </trkpt>
      <trkpt lat="43.33018" lon="-1.0167">
        <ele>109.51</ele>
        <time>2021-08-05T15:49:05Z</time>
      </trkpt>
      <trkpt lat="43.33113" lon="-1.01609">
        <ele>109.77</ele>
        <time>2021-08-05T15:49:10Z</time>
      </trkpt>
      <trkpt lat="43.33294" lon="-1.01538">
        <ele>113.34</ele>
        <time>2021-08-05T15:49:19Z</time>
      </trkpt>
      <trkpt lat="43.33404" lon="-1.0149">
        <ele>116.48</ele>
        <time>2021-08-05T15:49:25Z</time>
      </trkpt>
      <trkpt lat="43.33517" lon="-1.01441">
        <ele>119.77</ele>
        <time>2021-08-05T15:49:31Z</time>
      </trkpt>
      <trkpt lat="43.33638" lon="-1.01391">
        <ele>122.98</ele>
        <time>2021-08-05T15:49:37Z</time>
      </trkpt>
      <trkpt lat="43.33779" lon="-1.01337">
        <ele>126.95</ele>
        <time>2021-08-05T15:49:44Z</time>
      </trkpt>
      <trkpt lat="43.33925" lon="-1.01281">
        <ele>129.95</ele>
        <time>2021-08-05T15:49:51Z</time>
      </trkpt>
      <trkpt lat="43.3412" lon="-1.01164">
        <ele>131.38</ele>
        <time>2021-08-05T15:50:01Z</time>
      </trkpt>
      <trkpt lat="43.34283" lon="-1.0099">
        <ele>129.31</ele>
        <time>2021-08-05T15:50:11Z</time>
      </trkpt>
      <trkpt lat="43.3444" lon="-1.00782">
        <ele>126.16</ele>
        <time>2021-08-05T15:50:22Z</time>
      </trkpt>
      <trkpt lat="43.34591" lon="-1.00583">
        <ele>126.63</ele>
        <time>2021-08-05T15:50:33Z</time>
      </trkpt>
      <trkpt lat="43.34669" lon="-1.0044">
        <ele>130.1</ele>
        <time>2021-08-05T15:50:40Z</time>
      </trkpt>
      <trkpt lat="43.34688" lon="-1.00362">
        <ele>131.83</ele>
        <time>2021-08-05T15:50:43Z</time>
      </trkpt>
      <trkpt lat="43.34691" lon="-1.00223">
        <ele>135.72</ele>
        <time>2021-08-05T15:50:48Z</time>
      </trkpt>
      <trkpt lat="43.34674" lon="-1.00054">
        <ele>139.23</ele>
        <time>2021-08-05T15:50:54Z</time>
      </trkpt>
      <trkpt lat="43.34652" lon="-0.99848">
        <ele>142.24</ele>
        <time>2021-08-05T15:51:01Z</time>
      </trkpt>
      <trkpt lat="43.34647" lon="-0.99675">
        <ele>145.35</ele>
        <time>2021-08-05T15:51:07Z</time>
      </trkpt>
      <trkpt lat="43.34667" lon="-0.99532">
        <ele>148.38</ele>
        <time>2021-08-05T15:51:12Z</time>
      </trkpt>
      <trkpt lat="43.34697" lon="-0.99391">
        <ele>151.99</ele>
        <time>2021-08-05T15:51:17Z</time>
      </trkpt>
      <trkpt lat="43.34734" lon="-0.9922">
        <ele>155.16</ele>
        <time>2021-08-05T15:51:23Z</time>
      </trkpt>
      <trkpt lat="43.34741" lon="-0.99191">
        <ele>155.43</ele>
        <time>2021-08-05T15:51:24Z</time>
      </trkpt>
      <trkpt lat="43.34779" lon="-0.98924">
        <ele>158.01</ele>
        <time>2021-08-05T15:51:33Z</time>
      </trkpt>
      <trkpt lat="43.3478" lon="-0.9864">
        <ele>161.39</ele>
        <time>2021-08-05T15:51:42Z</time>
      </trkpt>
      <trkpt lat="43.34783" lon="-0.98371">
        <ele>164.74</ele>
        <time>2021-08-05T15:51:51Z</time>
      </trkpt>
      <trkpt lat="43.34785" lon="-0.98221">
        <ele>167.74</ele>
        <time>2021-08-05T15:51:56Z</time>
      </trkpt>
      <trkpt lat="43.34786" lon="-0.98079">
        <ele>171.16</ele>
        <time>2021-08-05T15:52:01Z</time>
      </trkpt>
      <trkpt lat="43.34795" lon="-0.97952">
        <ele>174.76</ele>
        <time>2021-08-05T15:52:06Z</time>
      </trkpt>
      <trkpt lat="43.34832" lon="-0.97838">
        <ele>178.2</ele>
        <time>2021-08-05T15:52:11Z</time>
      </trkpt>
      <trkpt lat="43.34894" lon="-0.97737">
        <ele>181.34</ele>
        <time>2021-08-05T15:52:16Z</time>
      </trkpt>
      <trkpt lat="43.3506" lon="-0.9751">
        <ele>183.29</ele>
        <time>2021-08-05T15:52:27Z</time>
      </trkpt>
      <trkpt lat="43.35265" lon="-0.97249">
        <ele>184.99</ele>
        <time>2021-08-05T15:52:41Z</time>
      </trkpt>
      <trkpt lat="43.35352" lon="-0.9721">
        <ele>188.22</ele>
        <time>2021-08-05T15:52:46Z</time>
      </trkpt>
      <trkpt lat="43.35473" lon="-0.97167">
        <ele>191.4</ele>
        <time>2021-08-05T15:52:53Z</time>
      </trkpt>
      <trkpt lat="43.35695" lon="-0.97057">
        <ele>188.07</ele>
        <time>2021-08-05T15:53:06Z</time>
      </trkpt>
      <trkpt lat="43.3577" lon="-0.97016">
        <ele>184.18</ele>
        <time>2021-08-05T15:53:10Z</time>
      </trkpt>
      <trkpt lat="43.35826" lon="-0.96977">
        <ele>180.23</ele>
        <time>2021-08-05T15:53:13Z</time>
      </trkpt>
      <trkpt lat="43.35881" lon="-0.96932">
        <ele>175.97</ele>
        <time>2021-08-05T15:53:16Z</time>
      </trkpt>
      <trkpt lat="43.35931" lon="-0.96888">
        <ele>171.45</ele>
        <time>2021-08-05T15:53:19Z</time>
      </trkpt>
      <trkpt lat="43.35964" lon="-0.96863">
        <ele>168.19</ele>
        <time>2021-08-05T15:53:21Z</time>
      </trkpt>
      <trkpt lat="43.36018" lon="-0.96832">
        <ele>163.93</ele>
        <time>2021-08-05T15:53:24Z</time>
      </trkpt>
      <trkpt lat="43.36082" lon="-0.96804">
        <ele>159.96</ele>
        <time>2021-08-05T15:53:27Z</time>
      </trkpt>
      <trkpt lat="43.36154" lon="-0.96775">
        <ele>156.6</ele>
        <time>2021-08-05T15:53:30Z</time>
      </trkpt>
      <trkpt lat="43.36228" lon="-0.96746">
        <ele>153.16</ele>
        <time>2021-08-05T15:53:33Z</time>
      </trkpt>
      <trkpt lat="43.36298" lon="-0.96715">
        <ele>150.14</ele>
        <time>2021-08-05T15:53:36Z</time>
      </trkpt>
      <trkpt lat="43.36354" lon="-0.96676">
        <ele>146.94</ele>
        <time>2021-08-05T15:53:39Z</time>
      </trkpt>
      <trkpt lat="43.36402" lon="-0.96628">
        <ele>143.85</ele>
        <time>2021-08-05T15:53:42Z</time>
      </trkpt>
      <trkpt lat="43.36459" lon="-0.9656">
        <ele>140.64</ele>
        <time>2021-08-05T15:53:46Z</time>
      </trkpt>
      <trkpt lat="43.36519" lon="-0.96471">
        <ele>137.14</ele>
        <time>2021-08-05T15:53:51Z</time>
      </trkpt>
      <trkpt lat="43.3661" lon="-0.96318">
        <ele>133.97</ele>
        <time>2021-08-05T15:53:59Z</time>
      </trkpt>
      <trkpt lat="43.36705" lon="-0.96139">
        <ele>132.09</ele>
        <time>2021-08-05T15:54:06Z</time>
      </trkpt>
      <trkpt lat="43.3683" lon="-0.95915">
        <ele>129.82</ele>
        <time>2021-08-05T15:54:15Z</time>
      </trkpt>
      <trkpt lat="43.36959" lon="-0.95786">
        <ele>127.41</ele>
        <time>2021-08-05T15:54:22Z</time>
      </trkpt>
      <trkpt lat="43.37168" lon="-0.95636">
        <ele>124.36</ele>
        <time>2021-08-05T15:54:33Z</time>
      </trkpt>
      <trkpt lat="43.37279" lon="-0.95505">
        <ele>121.84</ele>
        <time>2021-08-05T15:54:40Z</time>
      </trkpt>
      <trkpt lat="43.37403" lon="-0.95269">
        <ele>119.81</ele>
        <time>2021-08-05T15:54:51Z</time>
      </trkpt>
      <trkpt lat="43.37557" lon="-0.94987">
        <ele>119.28</ele>
        <time>2021-08-05T15:55:05Z</time>
      </trkpt>
      <trkpt lat="43.37649" lon="-0.94928">
        <ele>118.9</ele>
        <time>2021-08-05T15:55:11Z</time>
      </trkpt>
      <trkpt lat="43.37794" lon="-0.94898">
        <ele>118.05</ele>
        <time>2021-08-05T15:55:19Z</time>
      </trkpt>
      <trkpt lat="43.37885" lon="-0.9492">
        <ele>116.99</ele>
        <time>2021-08-05T15:55:24Z</time>
      </trkpt>
      <trkpt lat="43.37956" lon="-0.9496">
        <ele>114.54</ele>
        <time>2021-08-05T15:55:28Z</time>
      </trkpt>
      <trkpt lat="43.38031" lon="-0.94974">
        <ele>110.64</ele>
        <time>2021-08-05T15:55:32Z</time>
      </trkpt>
      <trkpt lat="43.3809" lon="-0.94972">
        <ele>107.45</ele>
        <time>2021-08-05T15:55:36Z</time>
      </trkpt>
      <trkpt lat="43.3813" lon="-0.94972">
        <ele>105.66</ele>
        <time>2021-08-05T15:55:40Z</time>
      </trkpt>
      <trkpt lat="43.38221" lon="-0.94952">
        <ele>106.34</ele>
        <time>2021-08-05T15:55:48Z</time>
      </trkpt>
      <trkpt lat="43.38282" lon="-0.94908">
        <ele>109.62</ele>
        <time>2021-08-05T15:55:56Z</time>
      </trkpt>
      <trkpt lat="43.38333" lon="-0.94868">
        <ele>112.87</ele>
        <time>2021-08-05T15:56:04Z</time>
      </trkpt>
      <trkpt lat="43.38385" lon="-0.94829">
        <ele>115.26</ele>
        <time>2021-08-05T15:56:11Z</time>
      </trkpt>
      <trkpt lat="43.38394" lon="-0.94825">
        <ele>115.59</ele>
        <time>2021-08-05T15:56:12Z</time>
      </trkpt>
      <trkpt lat="43.38479" lon="-0.94782">
        <ele>117.02</ele>
        <time>2021-08-05T15:56:21Z</time>
      </trkpt>
      <trkpt lat="43.38549" lon="-0.94694">
        <ele>116.73</ele>
        <time>2021-08-05T15:56:35Z</time>
      </trkpt>
      <trkpt lat="43.38634" lon="-0.94605">
        <ele>116.86</ele>
        <time>2021-08-05T15:56:49Z</time>
      </trkpt>
      <trkpt lat="43.38737" lon="-0.94528">
        <ele>117.15</ele>
        <time>2021-08-05T15:57:04Z</time>
      </trkpt>
      <trkpt lat="43.3883" lon="-0.9447">
        <ele>117.29</ele>
        <time>2021-08-05T15:57:17Z</time>
      </trkpt>
      <trkpt lat="43.38892" lon="-0.94431">
        <ele>117.04</ele>
        <time>2021-08-05T15:57:29Z</time>
      </trkpt>
      <trkpt lat="43.38909" lon="-0.9442">
        <ele>116.6</ele>
        <time>2021-08-05T15:57:42Z</time>
      </trkpt>
      <trkpt lat="43.38916" lon="-0.9441">
        <ele>116.62</ele>
        <time>2021-08-05T15:57:45Z</time>
      </trkpt>
      <trkpt lat="43.38928" lon="-0.94377">
        <ele>116.68</ele>
        <time>2021-08-05T15:57:53Z</time>
      </trkpt>
    </trkseg>
  </trk>
</gpx>